<?xml version='1.0' encoding='UTF-8'?><gpx version="1.1" creator="JPX - https://github.com/jenetics/jpx" xmlns="http://www.topografix.com/GPX/1/1"><trk><trkseg><trkpt lat="45.2700083" lon="7.7300767"><ele>248.0</ele><time>2026-04-25T09:59:01.701Z</time></trkpt><trkpt lat="45.270305" lon="7.7298767"><ele>248.0</ele><time>2026-04-25T09:59:03.701Z</time></trkpt><trkpt lat="45.2704433" lon="7.7297983"><ele>248.0</ele><time>2026-04-25T09:59:04.701Z</time></trkpt><trkpt lat="45.2705817" lon="7.7297367"><ele>248.0</ele><time>2026-04-25T09:59:05.701Z</time></trkpt><trkpt lat="45.2707283" lon="7.7297033"><ele>248.0</ele><time>2026-04-25T09:59:06.701Z</time></trkpt><trkpt lat="45.27088" lon="7.7297033"><ele>248.0</ele><time>2026-04-25T09:59:07.701Z</time></trkpt><trkpt lat="45.2710467" lon="7.72978"><ele>248.33333333333334</ele><time>2026-04-25T09:59:08.701Z</time></trkpt><trkpt lat="45.2712217" lon="7.7299"><ele>248.66666666666669</ele><time>2026-04-25T09:59:09.701Z</time></trkpt><trkpt lat="45.271385" lon="7.7300183"><ele>249.0</ele><time>2026-04-25T09:59:10.701Z</time></trkpt><trkpt lat="45.2715267" lon="7.7301467"><ele>248.75</ele><time>2026-04-25T09:59:11.701Z</time></trkpt><trkpt lat="45.2716583" lon="7.73027"><ele>248.5</ele><time>2026-04-25T09:59:12.701Z</time></trkpt><trkpt lat="45.2717883" lon="7.730375"><ele>248.25</ele><time>2026-04-25T09:59:13.701Z</time></trkpt><trkpt lat="45.2719067" lon="7.7304767"><ele>248.0</ele><time>2026-04-25T09:59:14.701Z</time></trkpt><trkpt lat="45.272015" lon="7.7305617"><ele>248.0</ele><time>2026-04-25T09:59:15.701Z</time></trkpt><trkpt lat="45.272105" lon="7.7306317"><ele>248.0</ele><time>2026-04-25T09:59:16.701Z</time></trkpt><trkpt lat="45.272175" lon="7.7307"><ele>248.0</ele><time>2026-04-25T09:59:17.701Z</time></trkpt><trkpt lat="45.272245" lon="7.73077"><ele>248.0</ele><time>2026-04-25T09:59:18.701Z</time></trkpt><trkpt lat="45.2723333" lon="7.7308283"><ele>248.0</ele><time>2026-04-25T09:59:19.701Z</time></trkpt><trkpt lat="45.27243" lon="7.7308633"><ele>248.5</ele><time>2026-04-25T09:59:20.701Z</time></trkpt><trkpt lat="45.2725367" lon="7.7308683"><ele>249.0</ele><time>2026-04-25T09:59:21.701Z</time></trkpt><trkpt lat="45.2726517" lon="7.7308483"><ele>249.5</ele><time>2026-04-25T09:59:22.702Z</time></trkpt><trkpt lat="45.272765" lon="7.730815"><ele>250.0</ele><time>2026-04-25T09:59:23.701Z</time></trkpt><trkpt lat="45.27288" lon="7.7307733"><ele>250.0</ele><time>2026-04-25T09:59:24.701Z</time></trkpt><trkpt lat="45.2729967" lon="7.7307283"><ele>250.0</ele><time>2026-04-25T09:59:25.702Z</time></trkpt><trkpt lat="45.2731333" lon="7.7306867"><ele>250.0</ele><time>2026-04-25T09:59:26.701Z</time></trkpt><trkpt lat="45.2732867" lon="7.7306283"><ele>250.0</ele><time>2026-04-25T09:59:27.701Z</time></trkpt><trkpt lat="45.2734417" lon="7.7305783"><ele>250.66666666666666</ele><time>2026-04-25T09:59:28.701Z</time></trkpt><trkpt lat="45.2735983" lon="7.730525"><ele>251.33333333333331</ele><time>2026-04-25T09:59:29.701Z</time></trkpt><trkpt lat="45.27376" lon="7.7304767"><ele>252.0</ele><time>2026-04-25T09:59:30.702Z</time></trkpt><trkpt lat="45.2739267" lon="7.73043"><ele>252.0</ele><time>2026-04-25T09:59:31.701Z</time></trkpt><trkpt lat="45.2740783" lon="7.7303817"><ele>252.0</ele><time>2026-04-25T09:59:32.701Z</time></trkpt><trkpt lat="45.2742367" lon="7.7303267"><ele>252.0</ele><time>2026-04-25T09:59:33.701Z</time></trkpt><trkpt lat="45.2744033" lon="7.7302583"><ele>251.66666666666669</ele><time>2026-04-25T09:59:34.701Z</time></trkpt><trkpt lat="45.2745783" lon="7.7301933"><ele>251.33333333333334</ele><time>2026-04-25T09:59:35.701Z</time></trkpt><trkpt lat="45.2747467" lon="7.73013"><ele>251.0</ele><time>2026-04-25T09:59:36.701Z</time></trkpt><trkpt lat="45.2749167" lon="7.7300583"><ele>251.66666666666669</ele><time>2026-04-25T09:59:37.701Z</time></trkpt><trkpt lat="45.2750917" lon="7.72998"><ele>252.33333333333331</ele><time>2026-04-25T09:59:38.701Z</time></trkpt><trkpt lat="45.2752683" lon="7.7299017"><ele>253.0</ele><time>2026-04-25T09:59:39.701Z</time></trkpt><trkpt lat="45.27545" lon="7.7298267"><ele>252.66666666666666</ele><time>2026-04-25T09:59:40.701Z</time></trkpt><trkpt lat="45.2756483" lon="7.729755"><ele>252.33333333333331</ele><time>2026-04-25T09:59:41.701Z</time></trkpt><trkpt lat="45.2758467" lon="7.72967"><ele>252.0</ele><time>2026-04-25T09:59:42.701Z</time></trkpt><trkpt lat="45.2760333" lon="7.7295783"><ele>252.0</ele><time>2026-04-25T09:59:43.701Z</time></trkpt><trkpt lat="45.2762083" lon="7.7294933"><ele>252.0</ele><time>2026-04-25T09:59:44.701Z</time></trkpt><trkpt lat="45.2763717" lon="7.72942"><ele>252.0</ele><time>2026-04-25T09:59:45.701Z</time></trkpt><trkpt lat="45.27653" lon="7.7293517"><ele>252.66666666666669</ele><time>2026-04-25T09:59:46.701Z</time></trkpt><trkpt lat="45.2766833" lon="7.72929"><ele>253.33333333333334</ele><time>2026-04-25T09:59:47.701Z</time></trkpt><trkpt lat="45.2768567" lon="7.7292117"><ele>254.0</ele><time>2026-04-25T09:59:48.701Z</time></trkpt><trkpt lat="45.2770367" lon="7.7291317"><ele>254.0</ele><time>2026-04-25T09:59:49.701Z</time></trkpt><trkpt lat="45.2772283" lon="7.7290467"><ele>254.0</ele><time>2026-04-25T09:59:50.701Z</time></trkpt><trkpt lat="45.2774183" lon="7.7289617"><ele>254.0</ele><time>2026-04-25T09:59:51.701Z</time></trkpt><trkpt lat="45.277595" lon="7.7288867"><ele>254.0</ele><time>2026-04-25T09:59:52.701Z</time></trkpt><trkpt lat="45.277755" lon="7.728815"><ele>254.0</ele><time>2026-04-25T09:59:53.701Z</time></trkpt><trkpt lat="45.277895" lon="7.7287533"><ele>254.0</ele><time>2026-04-25T09:59:54.701Z</time></trkpt><trkpt lat="45.2780067" lon="7.7287"><ele>254.0</ele><time>2026-04-25T09:59:55.701Z</time></trkpt><trkpt lat="45.278115" lon="7.7286467"><ele>254.0</ele><time>2026-04-25T09:59:56.701Z</time></trkpt><trkpt lat="45.2782233" lon="7.7285933"><ele>254.0</ele><time>2026-04-25T09:59:57.702Z</time></trkpt><trkpt lat="45.2783433" lon="7.7285267"><ele>254.0</ele><time>2026-04-25T09:59:58.701Z</time></trkpt><trkpt lat="45.2784733" lon="7.7284583"><ele>254.0</ele><time>2026-04-25T09:59:59.701Z</time></trkpt><trkpt lat="45.278605" lon="7.7283883"><ele>254.0</ele><time>2026-04-25T10:00:00.701Z</time></trkpt><trkpt lat="45.27874" lon="7.72831"><ele>254.0</ele><time>2026-04-25T10:00:01.701Z</time></trkpt><trkpt lat="45.2788733" lon="7.7282383"><ele>254.0</ele><time>2026-04-25T10:00:02.701Z</time></trkpt><trkpt lat="45.2789983" lon="7.72818"><ele>254.0</ele><time>2026-04-25T10:00:03.701Z</time></trkpt><trkpt lat="45.2791083" lon="7.7281183"><ele>254.0</ele><time>2026-04-25T10:00:04.701Z</time></trkpt><trkpt lat="45.2792133" lon="7.7280617"><ele>253.99999999999997</ele><time>2026-04-25T10:00:05.701Z</time></trkpt><trkpt lat="45.2793083" lon="7.72801"><ele>253.99999999999997</ele><time>2026-04-25T10:00:06.701Z</time></trkpt><trkpt lat="45.2794017" lon="7.7279617"><ele>254.0</ele><time>2026-04-25T10:00:07.701Z</time></trkpt><trkpt lat="45.279485" lon="7.7279183"><ele>254.0</ele><time>2026-04-25T10:00:08.701Z</time></trkpt><trkpt lat="45.27955" lon="7.727875"><ele>254.0</ele><time>2026-04-25T10:00:09.701Z</time></trkpt><trkpt lat="45.2796117" lon="7.72778"><ele>253.99999999999997</ele><time>2026-04-25T10:00:11.701Z</time></trkpt><trkpt lat="45.2795867" lon="7.7276567"><ele>253.99999999999997</ele><time>2026-04-25T10:00:13.701Z</time></trkpt><trkpt lat="45.279525" lon="7.7276017"><ele>254.0</ele><time>2026-04-25T10:00:14.701Z</time></trkpt><trkpt lat="45.2794333" lon="7.7275417"><ele>254.0</ele><time>2026-04-25T10:00:15.701Z</time></trkpt><trkpt lat="45.2793483" lon="7.727475"><ele>254.2</ele><time>2026-04-25T10:00:16.701Z</time></trkpt><trkpt lat="45.2792583" lon="7.727405"><ele>254.39999999999998</ele><time>2026-04-25T10:00:17.701Z</time></trkpt><trkpt lat="45.279155" lon="7.7273267"><ele>254.6</ele><time>2026-04-25T10:00:18.701Z</time></trkpt><trkpt lat="45.27906" lon="7.7272383"><ele>254.8</ele><time>2026-04-25T10:00:19.701Z</time></trkpt><trkpt lat="45.27897" lon="7.7271483"><ele>255.0</ele><time>2026-04-25T10:00:20.701Z</time></trkpt><trkpt lat="45.27888" lon="7.7270533"><ele>255.0</ele><time>2026-04-25T10:00:21.701Z</time></trkpt><trkpt lat="45.2788" lon="7.72693"><ele>255.0</ele><time>2026-04-25T10:00:22.701Z</time></trkpt><trkpt lat="45.2787183" lon="7.7268067"><ele>255.0</ele><time>2026-04-25T10:00:23.701Z</time></trkpt><trkpt lat="45.27865" lon="7.726655"><ele>255.0</ele><time>2026-04-25T10:00:24.701Z</time></trkpt><trkpt lat="45.2785883" lon="7.7264933"><ele>255.5</ele><time>2026-04-25T10:00:25.701Z</time></trkpt><trkpt lat="45.2785183" lon="7.7263217"><ele>256.0</ele><time>2026-04-25T10:00:26.702Z</time></trkpt><trkpt lat="45.2784367" lon="7.7261517"><ele>256.5</ele><time>2026-04-25T10:00:27.701Z</time></trkpt><trkpt lat="45.2783483" lon="7.7259883"><ele>257.0</ele><time>2026-04-25T10:00:28.701Z</time></trkpt><trkpt lat="45.2782683" lon="7.7258317"><ele>257.0</ele><time>2026-04-25T10:00:29.701Z</time></trkpt><trkpt lat="45.278185" lon="7.72566"><ele>257.0</ele><time>2026-04-25T10:00:30.701Z</time></trkpt><trkpt lat="45.2781" lon="7.7254817"><ele>257.0</ele><time>2026-04-25T10:00:31.701Z</time></trkpt><trkpt lat="45.2780017" lon="7.725285"><ele>256.6666666666667</ele><time>2026-04-25T10:00:32.701Z</time></trkpt><trkpt lat="45.2779017" lon="7.725095"><ele>256.3333333333333</ele><time>2026-04-25T10:00:33.701Z</time></trkpt><trkpt lat="45.2778067" lon="7.7249167"><ele>256.0</ele><time>2026-04-25T10:00:34.701Z</time></trkpt><trkpt lat="45.2777183" lon="7.7247433"><ele>256.0</ele><time>2026-04-25T10:00:35.701Z</time></trkpt><trkpt lat="45.2776367" lon="7.7245833"><ele>256.0</ele><time>2026-04-25T10:00:36.701Z</time></trkpt><trkpt lat="45.2775617" lon="7.72439"><ele>256.0</ele><time>2026-04-25T10:00:37.701Z</time></trkpt><trkpt lat="45.2774933" lon="7.7241733"><ele>256.0</ele><time>2026-04-25T10:00:38.701Z</time></trkpt><trkpt lat="45.2774367" lon="7.7239583"><ele>256.0</ele><time>2026-04-25T10:00:39.701Z</time></trkpt><trkpt lat="45.2773883" lon="7.7237533"><ele>256.0</ele><time>2026-04-25T10:00:40.701Z</time></trkpt><trkpt lat="45.27734" lon="7.7235617"><ele>256.0</ele><time>2026-04-25T10:00:41.702Z</time></trkpt><trkpt lat="45.277295" lon="7.7233817"><ele>256.0</ele><time>2026-04-25T10:00:42.701Z</time></trkpt><trkpt lat="45.2772433" lon="7.7232133"><ele>256.0</ele><time>2026-04-25T10:00:43.701Z</time></trkpt><trkpt lat="45.277205" lon="7.72306"><ele>256.0</ele><time>2026-04-25T10:00:44.701Z</time></trkpt><trkpt lat="45.277165" lon="7.722925"><ele>255.99999999999997</ele><time>2026-04-25T10:00:45.701Z</time></trkpt><trkpt lat="45.27712" lon="7.7228117"><ele>256.0</ele><time>2026-04-25T10:00:46.701Z</time></trkpt><trkpt lat="45.2770967" lon="7.7227133"><ele>256.0</ele><time>2026-04-25T10:00:47.701Z</time></trkpt><trkpt lat="45.2770533" lon="7.7226367"><ele>256.0</ele><time>2026-04-25T10:00:48.701Z</time></trkpt><trkpt lat="45.276985" lon="7.7225867"><ele>255.99999999999997</ele><time>2026-04-25T10:00:49.701Z</time></trkpt><trkpt lat="45.2768867" lon="7.72259"><ele>256.0</ele><time>2026-04-25T10:00:50.701Z</time></trkpt><trkpt lat="45.27678" lon="7.722625"><ele>256.0</ele><time>2026-04-25T10:00:51.701Z</time></trkpt><trkpt lat="45.2766433" lon="7.7226717"><ele>256.0</ele><time>2026-04-25T10:00:52.701Z</time></trkpt><trkpt lat="45.2764817" lon="7.7227183"><ele>256.0</ele><time>2026-04-25T10:00:53.701Z</time></trkpt><trkpt lat="45.276315" lon="7.722755"><ele>256.0</ele><time>2026-04-25T10:00:54.701Z</time></trkpt><trkpt lat="45.2761467" lon="7.722785"><ele>256.0</ele><time>2026-04-25T10:00:55.701Z</time></trkpt><trkpt lat="45.2759767" lon="7.722825"><ele>256.0</ele><time>2026-04-25T10:00:56.701Z</time></trkpt><trkpt lat="45.275825" lon="7.722865"><ele>256.0</ele><time>2026-04-25T10:00:57.701Z</time></trkpt><trkpt lat="45.27569" lon="7.72289"><ele>256.0</ele><time>2026-04-25T10:00:58.701Z</time></trkpt><trkpt lat="45.2755817" lon="7.7229117"><ele>256.0</ele><time>2026-04-25T10:00:59.701Z</time></trkpt><trkpt lat="45.2755033" lon="7.7229233"><ele>256.0</ele><time>2026-04-25T10:01:00.701Z</time></trkpt><trkpt lat="45.2754283" lon="7.7229033"><ele>256.0</ele><time>2026-04-25T10:01:01.701Z</time></trkpt><trkpt lat="45.2753583" lon="7.7228633"><ele>255.8</ele><time>2026-04-25T10:01:02.701Z</time></trkpt><trkpt lat="45.275295" lon="7.7227967"><ele>255.60000000000002</ele><time>2026-04-25T10:01:03.701Z</time></trkpt><trkpt lat="45.27523" lon="7.7227117"><ele>255.4</ele><time>2026-04-25T10:01:04.702Z</time></trkpt><trkpt lat="45.2751583" lon="7.7226167"><ele>255.2</ele><time>2026-04-25T10:01:05.701Z</time></trkpt><trkpt lat="45.2750783" lon="7.72251"><ele>255.0</ele><time>2026-04-25T10:01:06.701Z</time></trkpt><trkpt lat="45.2749967" lon="7.72241"><ele>255.4</ele><time>2026-04-25T10:01:07.701Z</time></trkpt><trkpt lat="45.2749183" lon="7.7223117"><ele>255.8</ele><time>2026-04-25T10:01:08.701Z</time></trkpt><trkpt lat="45.2748467" lon="7.7222333"><ele>256.2</ele><time>2026-04-25T10:01:09.701Z</time></trkpt><trkpt lat="45.274795" lon="7.7221633"><ele>256.6</ele><time>2026-04-25T10:01:10.701Z</time></trkpt><trkpt lat="45.2747517" lon="7.7220517"><ele>257.0</ele><time>2026-04-25T10:01:11.701Z</time></trkpt><trkpt lat="45.27471" lon="7.7219117"><ele>256.5</ele><time>2026-04-25T10:01:12.701Z</time></trkpt><trkpt lat="45.274665" lon="7.7217483"><ele>256.0</ele><time>2026-04-25T10:01:13.701Z</time></trkpt><trkpt lat="45.2746183" lon="7.7215883"><ele>255.5</ele><time>2026-04-25T10:01:14.701Z</time></trkpt><trkpt lat="45.2745817" lon="7.7214233"><ele>255.0</ele><time>2026-04-25T10:01:15.701Z</time></trkpt><trkpt lat="45.2745383" lon="7.72127"><ele>255.0</ele><time>2026-04-25T10:01:16.701Z</time></trkpt><trkpt lat="45.2745133" lon="7.7211033"><ele>255.0</ele><time>2026-04-25T10:01:17.701Z</time></trkpt><trkpt lat="45.274475" lon="7.72093"><ele>255.0</ele><time>2026-04-25T10:01:18.701Z</time></trkpt><trkpt lat="45.2744333" lon="7.7207383"><ele>255.0</ele><time>2026-04-25T10:01:19.701Z</time></trkpt><trkpt lat="45.2743733" lon="7.72053"><ele>254.66666666666669</ele><time>2026-04-25T10:01:20.701Z</time></trkpt><trkpt lat="45.2743083" lon="7.7203117"><ele>254.33333333333334</ele><time>2026-04-25T10:01:21.701Z</time></trkpt><trkpt lat="45.27425" lon="7.7200867"><ele>254.0</ele><time>2026-04-25T10:01:22.701Z</time></trkpt><trkpt lat="45.2741883" lon="7.7198817"><ele>254.0</ele><time>2026-04-25T10:01:23.701Z</time></trkpt><trkpt lat="45.2741417" lon="7.7197"><ele>254.0</ele><time>2026-04-25T10:01:24.702Z</time></trkpt><trkpt lat="45.2741" lon="7.7195367"><ele>254.0</ele><time>2026-04-25T10:01:25.701Z</time></trkpt><trkpt lat="45.2740517" lon="7.719395"><ele>254.0</ele><time>2026-04-25T10:01:26.701Z</time></trkpt><trkpt lat="45.2740017" lon="7.7192533"><ele>253.33333333333334</ele><time>2026-04-25T10:01:27.701Z</time></trkpt><trkpt lat="45.2739367" lon="7.7190883"><ele>252.66666666666669</ele><time>2026-04-25T10:01:28.701Z</time></trkpt><trkpt lat="45.2738467" lon="7.7189"><ele>252.0</ele><time>2026-04-25T10:01:29.701Z</time></trkpt><trkpt lat="45.27374" lon="7.7187033"><ele>252.33333333333331</ele><time>2026-04-25T10:01:30.701Z</time></trkpt><trkpt lat="45.2736467" lon="7.7185083"><ele>252.66666666666666</ele><time>2026-04-25T10:01:31.701Z</time></trkpt><trkpt lat="45.2735567" lon="7.718315"><ele>253.0</ele><time>2026-04-25T10:01:32.701Z</time></trkpt><trkpt lat="45.2734633" lon="7.7181267"><ele>253.0</ele><time>2026-04-25T10:01:33.701Z</time></trkpt><trkpt lat="45.2733833" lon="7.7179517"><ele>253.0</ele><time>2026-04-25T10:01:34.701Z</time></trkpt><trkpt lat="45.273305" lon="7.7177683"><ele>253.0</ele><time>2026-04-25T10:01:35.701Z</time></trkpt><trkpt lat="45.2732333" lon="7.717585"><ele>253.0</ele><time>2026-04-25T10:01:36.702Z</time></trkpt><trkpt lat="45.2731633" lon="7.7174083"><ele>252.8</ele><time>2026-04-25T10:01:37.701Z</time></trkpt><trkpt lat="45.2731" lon="7.717245"><ele>252.60000000000002</ele><time>2026-04-25T10:01:38.701Z</time></trkpt><trkpt lat="45.273035" lon="7.717095"><ele>252.39999999999998</ele><time>2026-04-25T10:01:39.701Z</time></trkpt><trkpt lat="45.2729617" lon="7.7169967"><ele>252.2</ele><time>2026-04-25T10:01:40.701Z</time></trkpt><trkpt lat="45.2728983" lon="7.71693"><ele>252.0</ele><time>2026-04-25T10:01:41.701Z</time></trkpt><trkpt lat="45.27285" lon="7.7168233"><ele>252.39999999999998</ele><time>2026-04-25T10:01:43.701Z</time></trkpt><trkpt lat="45.2729133" lon="7.7167433"><ele>252.79999999999998</ele><time>2026-04-25T10:01:45.701Z</time></trkpt><trkpt lat="45.27298" lon="7.7166967"><ele>253.2</ele><time>2026-04-25T10:01:46.701Z</time></trkpt><trkpt lat="45.27308" lon="7.7166367"><ele>253.6</ele><time>2026-04-25T10:01:47.701Z</time></trkpt><trkpt lat="45.27319" lon="7.7165783"><ele>254.0</ele><time>2026-04-25T10:01:48.701Z</time></trkpt><trkpt lat="45.2733017" lon="7.716515"><ele>254.0</ele><time>2026-04-25T10:01:49.701Z</time></trkpt><trkpt lat="45.2734083" lon="7.7164267"><ele>253.99999999999997</ele><time>2026-04-25T10:01:50.701Z</time></trkpt><trkpt lat="45.2735133" lon="7.7163283"><ele>253.99999999999997</ele><time>2026-04-25T10:01:51.701Z</time></trkpt><trkpt lat="45.2735983" lon="7.716255"><ele>254.0</ele><time>2026-04-25T10:01:52.701Z</time></trkpt><trkpt lat="45.2736683" lon="7.716205"><ele>254.0</ele><time>2026-04-25T10:01:53.701Z</time></trkpt><trkpt lat="45.273735" lon="7.7161867"><ele>254.0</ele><time>2026-04-25T10:01:54.701Z</time></trkpt><trkpt lat="45.2738017" lon="7.7161933"><ele>253.99999999999997</ele><time>2026-04-25T10:01:55.701Z</time></trkpt><trkpt lat="45.27389" lon="7.71631"><ele>253.99999999999997</ele><time>2026-04-25T10:01:57.701Z</time></trkpt><trkpt lat="45.2739967" lon="7.7163917"><ele>254.0</ele><time>2026-04-25T10:01:59.701Z</time></trkpt><trkpt lat="45.27407" lon="7.7163783"><ele>254.0</ele><time>2026-04-25T10:02:00.701Z</time></trkpt><trkpt lat="45.2741733" lon="7.7163333"><ele>254.33333333333334</ele><time>2026-04-25T10:02:01.701Z</time></trkpt><trkpt lat="45.274315" lon="7.71626"><ele>254.66666666666669</ele><time>2026-04-25T10:02:02.701Z</time></trkpt><trkpt lat="45.274475" lon="7.71618"><ele>255.0</ele><time>2026-04-25T10:02:03.701Z</time></trkpt><trkpt lat="45.274635" lon="7.7161083"><ele>255.75</ele><time>2026-04-25T10:02:04.701Z</time></trkpt><trkpt lat="45.2747967" lon="7.716045"><ele>256.5</ele><time>2026-04-25T10:02:05.701Z</time></trkpt><trkpt lat="45.2749333" lon="7.715985"><ele>257.25</ele><time>2026-04-25T10:02:06.701Z</time></trkpt><trkpt lat="45.2750633" lon="7.71593"><ele>258.0</ele><time>2026-04-25T10:02:07.701Z</time></trkpt><trkpt lat="45.27518" lon="7.7158833"><ele>258.0</ele><time>2026-04-25T10:02:08.701Z</time></trkpt><trkpt lat="45.27529" lon="7.7158283"><ele>258.0</ele><time>2026-04-25T10:02:09.701Z</time></trkpt><trkpt lat="45.2753967" lon="7.7157817"><ele>258.0</ele><time>2026-04-25T10:02:10.701Z</time></trkpt><trkpt lat="45.2755033" lon="7.71574"><ele>258.0</ele><time>2026-04-25T10:02:11.701Z</time></trkpt><trkpt lat="45.2756267" lon="7.7156883"><ele>258.0</ele><time>2026-04-25T10:02:12.701Z</time></trkpt><trkpt lat="45.27575" lon="7.7156333"><ele>258.0</ele><time>2026-04-25T10:02:13.701Z</time></trkpt><trkpt lat="45.275865" lon="7.7155817"><ele>258.0</ele><time>2026-04-25T10:02:14.701Z</time></trkpt><trkpt lat="45.2759883" lon="7.71553"><ele>258.0</ele><time>2026-04-25T10:02:15.701Z</time></trkpt><trkpt lat="45.276105" lon="7.71548"><ele>258.0</ele><time>2026-04-25T10:02:16.701Z</time></trkpt><trkpt lat="45.2762117" lon="7.715445"><ele>258.0</ele><time>2026-04-25T10:02:17.701Z</time></trkpt><trkpt lat="45.27631" lon="7.7154067"><ele>258.0</ele><time>2026-04-25T10:02:18.701Z</time></trkpt><trkpt lat="45.2764033" lon="7.7153783"><ele>258.0</ele><time>2026-04-25T10:02:19.701Z</time></trkpt><trkpt lat="45.2764867" lon="7.7153433"><ele>258.0</ele><time>2026-04-25T10:02:20.701Z</time></trkpt><trkpt lat="45.27656" lon="7.7153117"><ele>258.0</ele><time>2026-04-25T10:02:21.701Z</time></trkpt><trkpt lat="45.276625" lon="7.7152867"><ele>258.0</ele><time>2026-04-25T10:02:22.701Z</time></trkpt><trkpt lat="45.27673" lon="7.7152367"><ele>258.0</ele><time>2026-04-25T10:02:24.701Z</time></trkpt><trkpt lat="45.2768383" lon="7.7152283"><ele>258.0</ele><time>2026-04-25T10:02:26.701Z</time></trkpt><trkpt lat="45.2768983" lon="7.7152667"><ele>258.0</ele><time>2026-04-25T10:02:27.701Z</time></trkpt><trkpt lat="45.2769583" lon="7.715355"><ele>258.0</ele><time>2026-04-25T10:02:28.701Z</time></trkpt><trkpt lat="45.2770233" lon="7.7154633"><ele>258.0</ele><time>2026-04-25T10:02:29.701Z</time></trkpt><trkpt lat="45.2771033" lon="7.71558"><ele>258.0</ele><time>2026-04-25T10:02:30.701Z</time></trkpt><trkpt lat="45.2771967" lon="7.715695"><ele>258.0</ele><time>2026-04-25T10:02:31.701Z</time></trkpt><trkpt lat="45.2772833" lon="7.7158283"><ele>258.0</ele><time>2026-04-25T10:02:32.701Z</time></trkpt><trkpt lat="45.2773717" lon="7.7159633"><ele>258.0</ele><time>2026-04-25T10:02:33.701Z</time></trkpt><trkpt lat="45.277475" lon="7.716105"><ele>258.0</ele><time>2026-04-25T10:02:34.701Z</time></trkpt><trkpt lat="45.2775783" lon="7.7162283"><ele>258.0</ele><time>2026-04-25T10:02:35.701Z</time></trkpt><trkpt lat="45.2776683" lon="7.7163567"><ele>258.0</ele><time>2026-04-25T10:02:36.701Z</time></trkpt><trkpt lat="45.2777583" lon="7.716475"><ele>258.0</ele><time>2026-04-25T10:02:37.701Z</time></trkpt><trkpt lat="45.277835" lon="7.7165867"><ele>258.0</ele><time>2026-04-25T10:02:38.701Z</time></trkpt><trkpt lat="45.27791" lon="7.716705"><ele>258.0</ele><time>2026-04-25T10:02:39.701Z</time></trkpt><trkpt lat="45.2779883" lon="7.7168183"><ele>258.0</ele><time>2026-04-25T10:02:40.701Z</time></trkpt><trkpt lat="45.2780617" lon="7.7169267"><ele>258.0</ele><time>2026-04-25T10:02:41.701Z</time></trkpt><trkpt lat="45.2781333" lon="7.7170183"><ele>258.2</ele><time>2026-04-25T10:02:42.701Z</time></trkpt><trkpt lat="45.2781867" lon="7.7171033"><ele>258.4</ele><time>2026-04-25T10:02:43.701Z</time></trkpt><trkpt lat="45.2782333" lon="7.7171767"><ele>258.59999999999997</ele><time>2026-04-25T10:02:44.701Z</time></trkpt><trkpt lat="45.2783483" lon="7.7172283"><ele>258.8</ele><time>2026-04-25T10:02:46.701Z</time></trkpt><trkpt lat="45.278425" lon="7.71722"><ele>259.0</ele><time>2026-04-25T10:02:47.701Z</time></trkpt><trkpt lat="45.2785267" lon="7.7171683"><ele>259.0</ele><time>2026-04-25T10:02:48.701Z</time></trkpt><trkpt lat="45.2786383" lon="7.7170867"><ele>259.0</ele><time>2026-04-25T10:02:49.701Z</time></trkpt><trkpt lat="45.2787617" lon="7.7169983"><ele>259.0</ele><time>2026-04-25T10:02:50.701Z</time></trkpt><trkpt lat="45.2788917" lon="7.71691"><ele>259.0</ele><time>2026-04-25T10:02:51.701Z</time></trkpt><trkpt lat="45.2790083" lon="7.71683"><ele>259.0</ele><time>2026-04-25T10:02:52.701Z</time></trkpt><trkpt lat="45.279125" lon="7.7167383"><ele>259.0</ele><time>2026-04-25T10:02:53.701Z</time></trkpt><trkpt lat="45.2792383" lon="7.7166683"><ele>259.0</ele><time>2026-04-25T10:02:54.701Z</time></trkpt><trkpt lat="45.2793467" lon="7.7165983"><ele>259.0</ele><time>2026-04-25T10:02:55.702Z</time></trkpt><trkpt lat="45.2794417" lon="7.7165333"><ele>259.0</ele><time>2026-04-25T10:02:56.701Z</time></trkpt><trkpt lat="45.2795367" lon="7.7164667"><ele>259.0</ele><time>2026-04-25T10:02:57.701Z</time></trkpt><trkpt lat="45.2796367" lon="7.716415"><ele>259.0</ele><time>2026-04-25T10:02:58.702Z</time></trkpt><trkpt lat="45.2797333" lon="7.7163583"><ele>259.0</ele><time>2026-04-25T10:02:59.701Z</time></trkpt><trkpt lat="45.2798267" lon="7.7163033"><ele>259.0</ele><time>2026-04-25T10:03:00.701Z</time></trkpt><trkpt lat="45.2799083" lon="7.716245"><ele>258.7142857142857</ele><time>2026-04-25T10:03:01.701Z</time></trkpt><trkpt lat="45.2799883" lon="7.7161917"><ele>258.42857142857144</ele><time>2026-04-25T10:03:02.701Z</time></trkpt><trkpt lat="45.2800483" lon="7.7161467"><ele>258.1428571428571</ele><time>2026-04-25T10:03:03.701Z</time></trkpt><trkpt lat="45.2801183" lon="7.7161217"><ele>257.8571428571429</ele><time>2026-04-25T10:03:04.701Z</time></trkpt><trkpt lat="45.280185" lon="7.7161283"><ele>257.57142857142856</ele><time>2026-04-25T10:03:05.701Z</time></trkpt><trkpt lat="45.28025" lon="7.716165"><ele>257.2857142857143</ele><time>2026-04-25T10:03:06.701Z</time></trkpt><trkpt lat="45.28031" lon="7.7162467"><ele>257.0</ele><time>2026-04-25T10:03:07.701Z</time></trkpt><trkpt lat="45.2803467" lon="7.716385"><ele>257.0</ele><time>2026-04-25T10:03:08.701Z</time></trkpt><trkpt lat="45.2803783" lon="7.71657"><ele>257.0</ele><time>2026-04-25T10:03:09.701Z</time></trkpt><trkpt lat="45.2804067" lon="7.716775"><ele>257.0</ele><time>2026-04-25T10:03:10.701Z</time></trkpt><trkpt lat="45.280435" lon="7.7169833"><ele>257.0</ele><time>2026-04-25T10:03:11.701Z</time></trkpt><trkpt lat="45.2804667" lon="7.7171533"><ele>257.25</ele><time>2026-04-25T10:03:12.701Z</time></trkpt><trkpt lat="45.2804917" lon="7.7173167"><ele>257.5</ele><time>2026-04-25T10:03:13.701Z</time></trkpt><trkpt lat="45.2805217" lon="7.7174833"><ele>257.75</ele><time>2026-04-25T10:03:14.701Z</time></trkpt><trkpt lat="45.28053" lon="7.7176567"><ele>258.0</ele><time>2026-04-25T10:03:15.701Z</time></trkpt><trkpt lat="45.2805167" lon="7.7178067"><ele>258.0</ele><time>2026-04-25T10:03:16.701Z</time></trkpt><trkpt lat="45.2804933" lon="7.7179117"><ele>258.0</ele><time>2026-04-25T10:03:17.701Z</time></trkpt><trkpt lat="45.2804733" lon="7.7179967"><ele>258.0</ele><time>2026-04-25T10:03:18.701Z</time></trkpt><trkpt lat="45.280475" lon="7.7181233"><ele>258.0</ele><time>2026-04-25T10:03:20.701Z</time></trkpt><trkpt lat="45.2805383" lon="7.7181883"><ele>258.0</ele><time>2026-04-25T10:03:22.701Z</time></trkpt><trkpt lat="45.280675" lon="7.71816"><ele>258.0</ele><time>2026-04-25T10:03:24.701Z</time></trkpt><trkpt lat="45.2807833" lon="7.71811"><ele>258.25</ele><time>2026-04-25T10:03:25.701Z</time></trkpt><trkpt lat="45.28091" lon="7.7180483"><ele>258.5</ele><time>2026-04-25T10:03:26.701Z</time></trkpt><trkpt lat="45.281035" lon="7.7179867"><ele>258.75</ele><time>2026-04-25T10:03:27.701Z</time></trkpt><trkpt lat="45.28117" lon="7.7179067"><ele>259.0</ele><time>2026-04-25T10:03:28.701Z</time></trkpt><trkpt lat="45.2812917" lon="7.7178167"><ele>259.0</ele><time>2026-04-25T10:03:29.701Z</time></trkpt><trkpt lat="45.2814183" lon="7.7177133"><ele>259.0</ele><time>2026-04-25T10:03:30.701Z</time></trkpt><trkpt lat="45.281545" lon="7.717615"><ele>259.0</ele><time>2026-04-25T10:03:31.701Z</time></trkpt><trkpt lat="45.28168" lon="7.7174967"><ele>259.0</ele><time>2026-04-25T10:03:32.702Z</time></trkpt><trkpt lat="45.2818217" lon="7.7173717"><ele>259.0</ele><time>2026-04-25T10:03:33.701Z</time></trkpt><trkpt lat="45.2819533" lon="7.71725"><ele>259.0</ele><time>2026-04-25T10:03:34.701Z</time></trkpt><trkpt lat="45.2820833" lon="7.71713"><ele>259.0</ele><time>2026-04-25T10:03:35.701Z</time></trkpt><trkpt lat="45.28222" lon="7.717015"><ele>259.66666666666663</ele><time>2026-04-25T10:03:36.701Z</time></trkpt><trkpt lat="45.2823533" lon="7.7168983"><ele>260.3333333333333</ele><time>2026-04-25T10:03:37.701Z</time></trkpt><trkpt lat="45.2824867" lon="7.7167917"><ele>261.0</ele><time>2026-04-25T10:03:38.701Z</time></trkpt><trkpt lat="45.2826167" lon="7.71668"><ele>261.0</ele><time>2026-04-25T10:03:39.701Z</time></trkpt><trkpt lat="45.2827417" lon="7.716575"><ele>261.0</ele><time>2026-04-25T10:03:40.701Z</time></trkpt><trkpt lat="45.282865" lon="7.716485"><ele>261.0</ele><time>2026-04-25T10:03:41.701Z</time></trkpt><trkpt lat="45.2829967" lon="7.71638"><ele>261.0</ele><time>2026-04-25T10:03:42.701Z</time></trkpt><trkpt lat="45.28313" lon="7.7162767"><ele>261.0</ele><time>2026-04-25T10:03:43.701Z</time></trkpt><trkpt lat="45.28327" lon="7.71617"><ele>261.0</ele><time>2026-04-25T10:03:44.701Z</time></trkpt><trkpt lat="45.2834017" lon="7.7160583"><ele>261.0</ele><time>2026-04-25T10:03:45.701Z</time></trkpt><trkpt lat="45.283535" lon="7.7159517"><ele>261.0</ele><time>2026-04-25T10:03:46.701Z</time></trkpt><trkpt lat="45.283665" lon="7.71584"><ele>261.0</ele><time>2026-04-25T10:03:47.701Z</time></trkpt><trkpt lat="45.2837917" lon="7.71573"><ele>261.0</ele><time>2026-04-25T10:03:48.701Z</time></trkpt><trkpt lat="45.2839117" lon="7.7156317"><ele>261.0</ele><time>2026-04-25T10:03:49.701Z</time></trkpt><trkpt lat="45.28403" lon="7.7155283"><ele>261.25</ele><time>2026-04-25T10:03:50.701Z</time></trkpt><trkpt lat="45.2841467" lon="7.7154283"><ele>261.5</ele><time>2026-04-25T10:03:51.701Z</time></trkpt><trkpt lat="45.2842467" lon="7.7153317"><ele>261.75</ele><time>2026-04-25T10:03:52.701Z</time></trkpt><trkpt lat="45.2843417" lon="7.7152383"><ele>262.0</ele><time>2026-04-25T10:03:53.701Z</time></trkpt><trkpt lat="45.28443" lon="7.7151283"><ele>262.0</ele><time>2026-04-25T10:03:54.701Z</time></trkpt><trkpt lat="45.2845083" lon="7.7149917"><ele>262.0</ele><time>2026-04-25T10:03:55.701Z</time></trkpt><trkpt lat="45.2845683" lon="7.71484"><ele>262.0</ele><time>2026-04-25T10:03:56.701Z</time></trkpt><trkpt lat="45.284615" lon="7.714685"><ele>262.0</ele><time>2026-04-25T10:03:57.701Z</time></trkpt><trkpt lat="45.2846483" lon="7.71453"><ele>262.16666666666663</ele><time>2026-04-25T10:03:58.701Z</time></trkpt><trkpt lat="45.2846683" lon="7.714385"><ele>262.3333333333333</ele><time>2026-04-25T10:03:59.701Z</time></trkpt><trkpt lat="45.2846733" lon="7.7142483"><ele>262.5</ele><time>2026-04-25T10:04:00.701Z</time></trkpt><trkpt lat="45.2846933" lon="7.7141233"><ele>262.6666666666667</ele><time>2026-04-25T10:04:01.701Z</time></trkpt><trkpt lat="45.2847167" lon="7.7140183"><ele>262.83333333333337</ele><time>2026-04-25T10:04:02.701Z</time></trkpt><trkpt lat="45.284755" lon="7.713925"><ele>263.0</ele><time>2026-04-25T10:04:03.701Z</time></trkpt><trkpt lat="45.284805" lon="7.7138367"><ele>263.0</ele><time>2026-04-25T10:04:04.701Z</time></trkpt><trkpt lat="45.2848667" lon="7.7137583"><ele>263.0</ele><time>2026-04-25T10:04:05.701Z</time></trkpt><trkpt lat="45.2849533" lon="7.7136983"><ele>263.0</ele><time>2026-04-25T10:04:06.701Z</time></trkpt><trkpt lat="45.285065" lon="7.7136683"><ele>263.0</ele><time>2026-04-25T10:04:07.701Z</time></trkpt><trkpt lat="45.2851933" lon="7.7136517"><ele>263.0</ele><time>2026-04-25T10:04:08.701Z</time></trkpt><trkpt lat="45.2853233" lon="7.7136383"><ele>263.0</ele><time>2026-04-25T10:04:09.701Z</time></trkpt><trkpt lat="45.28545" lon="7.7136483"><ele>263.0</ele><time>2026-04-25T10:04:10.701Z</time></trkpt><trkpt lat="45.2855633" lon="7.7136583"><ele>263.0</ele><time>2026-04-25T10:04:11.701Z</time></trkpt><trkpt lat="45.2856617" lon="7.713665"><ele>263.0</ele><time>2026-04-25T10:04:12.701Z</time></trkpt><trkpt lat="45.2857617" lon="7.7136633"><ele>263.0</ele><time>2026-04-25T10:04:13.701Z</time></trkpt><trkpt lat="45.2858467" lon="7.71365"><ele>263.4</ele><time>2026-04-25T10:04:14.701Z</time></trkpt><trkpt lat="45.285935" lon="7.7136233"><ele>263.8</ele><time>2026-04-25T10:04:15.701Z</time></trkpt><trkpt lat="45.2860317" lon="7.7135883"><ele>264.2</ele><time>2026-04-25T10:04:16.701Z</time></trkpt><trkpt lat="45.2861317" lon="7.7135533"><ele>264.6</ele><time>2026-04-25T10:04:17.701Z</time></trkpt><trkpt lat="45.28623" lon="7.713515"><ele>265.0</ele><time>2026-04-25T10:04:18.701Z</time></trkpt><trkpt lat="45.2863183" lon="7.7134867"><ele>265.0</ele><time>2026-04-25T10:04:19.701Z</time></trkpt><trkpt lat="45.2864" lon="7.7134667"><ele>265.0</ele><time>2026-04-25T10:04:20.701Z</time></trkpt><trkpt lat="45.2864833" lon="7.7134367"><ele>265.0</ele><time>2026-04-25T10:04:21.701Z</time></trkpt><trkpt lat="45.2865633" lon="7.7134133"><ele>265.0</ele><time>2026-04-25T10:04:22.701Z</time></trkpt><trkpt lat="45.2866467" lon="7.7133717"><ele>265.0</ele><time>2026-04-25T10:04:23.701Z</time></trkpt><trkpt lat="45.2867383" lon="7.71331"><ele>265.0</ele><time>2026-04-25T10:04:24.701Z</time></trkpt><trkpt lat="45.286845" lon="7.7132333"><ele>265.0</ele><time>2026-04-25T10:04:25.701Z</time></trkpt><trkpt lat="45.2869417" lon="7.71313"><ele>265.0</ele><time>2026-04-25T10:04:26.701Z</time></trkpt><trkpt lat="45.2870233" lon="7.7130383"><ele>265.0</ele><time>2026-04-25T10:04:27.701Z</time></trkpt><trkpt lat="45.2871117" lon="7.7129433"><ele>265.0</ele><time>2026-04-25T10:04:28.701Z</time></trkpt><trkpt lat="45.2871983" lon="7.7128533"><ele>265.0</ele><time>2026-04-25T10:04:29.701Z</time></trkpt><trkpt lat="45.28729" lon="7.7127633"><ele>265.75</ele><time>2026-04-25T10:04:30.701Z</time></trkpt><trkpt lat="45.2873917" lon="7.7126533"><ele>266.5</ele><time>2026-04-25T10:04:31.701Z</time></trkpt><trkpt lat="45.287505" lon="7.7125233"><ele>267.25</ele><time>2026-04-25T10:04:32.701Z</time></trkpt><trkpt lat="45.28761" lon="7.7124083"><ele>268.0</ele><time>2026-04-25T10:04:33.701Z</time></trkpt><trkpt lat="45.2877083" lon="7.7122867"><ele>268.0</ele><time>2026-04-25T10:04:34.701Z</time></trkpt><trkpt lat="45.287805" lon="7.7121633"><ele>268.0</ele><time>2026-04-25T10:04:35.701Z</time></trkpt><trkpt lat="45.287905" lon="7.7120333"><ele>268.0</ele><time>2026-04-25T10:04:36.701Z</time></trkpt><trkpt lat="45.288" lon="7.7119"><ele>268.0</ele><time>2026-04-25T10:04:37.701Z</time></trkpt><trkpt lat="45.2880933" lon="7.711775"><ele>268.0</ele><time>2026-04-25T10:04:38.701Z</time></trkpt><trkpt lat="45.2882117" lon="7.7116683"><ele>268.0</ele><time>2026-04-25T10:04:39.701Z</time></trkpt><trkpt lat="45.288355" lon="7.711575"><ele>268.0</ele><time>2026-04-25T10:04:40.701Z</time></trkpt><trkpt lat="45.2885117" lon="7.7114883"><ele>268.0</ele><time>2026-04-25T10:04:41.702Z</time></trkpt><trkpt lat="45.288655" lon="7.7114167"><ele>268.0</ele><time>2026-04-25T10:04:42.701Z</time></trkpt><trkpt lat="45.2887933" lon="7.7113367"><ele>268.0</ele><time>2026-04-25T10:04:43.701Z</time></trkpt><trkpt lat="45.2889167" lon="7.711265"><ele>268.0</ele><time>2026-04-25T10:04:44.701Z</time></trkpt><trkpt lat="45.2890333" lon="7.7112033"><ele>268.0</ele><time>2026-04-25T10:04:45.701Z</time></trkpt><trkpt lat="45.2891333" lon="7.711145"><ele>268.0</ele><time>2026-04-25T10:04:46.701Z</time></trkpt><trkpt lat="45.2892233" lon="7.711095"><ele>268.0</ele><time>2026-04-25T10:04:47.701Z</time></trkpt><trkpt lat="45.2892967" lon="7.7110567"><ele>268.0</ele><time>2026-04-25T10:04:48.701Z</time></trkpt><trkpt lat="45.28941" lon="7.7110033"><ele>268.0</ele><time>2026-04-25T10:04:50.701Z</time></trkpt><trkpt lat="45.2894767" lon="7.7109667"><ele>268.16666666666663</ele><time>2026-04-25T10:04:51.701Z</time></trkpt><trkpt lat="45.2895617" lon="7.7109167"><ele>268.3333333333333</ele><time>2026-04-25T10:04:52.701Z</time></trkpt><trkpt lat="45.2896517" lon="7.7108617"><ele>268.5</ele><time>2026-04-25T10:04:53.701Z</time></trkpt><trkpt lat="45.2897383" lon="7.7108283"><ele>268.6666666666667</ele><time>2026-04-25T10:04:54.701Z</time></trkpt><trkpt lat="45.2898167" lon="7.710785"><ele>268.83333333333337</ele><time>2026-04-25T10:04:55.701Z</time></trkpt><trkpt lat="45.2898783" lon="7.7107017"><ele>269.0</ele><time>2026-04-25T10:04:56.701Z</time></trkpt><trkpt lat="45.2899117" lon="7.7105667"><ele>269.0</ele><time>2026-04-25T10:04:57.701Z</time></trkpt><trkpt lat="45.2899117" lon="7.7103917"><ele>269.0</ele><time>2026-04-25T10:04:58.701Z</time></trkpt><trkpt lat="45.28988" lon="7.7101867"><ele>269.0</ele><time>2026-04-25T10:04:59.701Z</time></trkpt><trkpt lat="45.2898467" lon="7.70996"><ele>269.0</ele><time>2026-04-25T10:05:00.701Z</time></trkpt><trkpt lat="45.2898067" lon="7.7097183"><ele>268.6666666666667</ele><time>2026-04-25T10:05:01.701Z</time></trkpt><trkpt lat="45.2897683" lon="7.70946"><ele>268.3333333333333</ele><time>2026-04-25T10:05:02.701Z</time></trkpt><trkpt lat="45.2897333" lon="7.7091917"><ele>268.0</ele><time>2026-04-25T10:05:03.701Z</time></trkpt><trkpt lat="45.2897" lon="7.7089217"><ele>268.0</ele><time>2026-04-25T10:05:04.701Z</time></trkpt><trkpt lat="45.2896633" lon="7.7086533"><ele>268.0</ele><time>2026-04-25T10:05:05.701Z</time></trkpt><trkpt lat="45.289625" lon="7.7083817"><ele>268.0</ele><time>2026-04-25T10:05:06.701Z</time></trkpt><trkpt lat="45.2895933" lon="7.7081217"><ele>268.0</ele><time>2026-04-25T10:05:07.701Z</time></trkpt><trkpt lat="45.2895633" lon="7.7078733"><ele>268.0</ele><time>2026-04-25T10:05:08.701Z</time></trkpt><trkpt lat="45.2895317" lon="7.707645"><ele>268.0</ele><time>2026-04-25T10:05:09.701Z</time></trkpt><trkpt lat="45.2894983" lon="7.707415"><ele>268.66666666666663</ele><time>2026-04-25T10:05:10.701Z</time></trkpt><trkpt lat="45.2894717" lon="7.7071717"><ele>269.3333333333333</ele><time>2026-04-25T10:05:11.701Z</time></trkpt><trkpt lat="45.2894533" lon="7.7069583"><ele>270.0</ele><time>2026-04-25T10:05:12.702Z</time></trkpt><trkpt lat="45.2894683" lon="7.7067417"><ele>270.6666666666667</ele><time>2026-04-25T10:05:13.701Z</time></trkpt><trkpt lat="45.2894933" lon="7.70653"><ele>271.33333333333337</ele><time>2026-04-25T10:05:14.701Z</time></trkpt><trkpt lat="45.289515" lon="7.7063033"><ele>272.0</ele><time>2026-04-25T10:05:15.701Z</time></trkpt><trkpt lat="45.28952" lon="7.70608"><ele>272.0</ele><time>2026-04-25T10:05:16.701Z</time></trkpt><trkpt lat="45.2894967" lon="7.7058633"><ele>272.0</ele><time>2026-04-25T10:05:17.701Z</time></trkpt><trkpt lat="45.28947" lon="7.7056467"><ele>272.0</ele><time>2026-04-25T10:05:18.701Z</time></trkpt><trkpt lat="45.289445" lon="7.7054517"><ele>272.0</ele><time>2026-04-25T10:05:19.701Z</time></trkpt><trkpt lat="45.2894133" lon="7.7052983"><ele>271.4</ele><time>2026-04-25T10:05:20.701Z</time></trkpt><trkpt lat="45.2893683" lon="7.7051683"><ele>270.79999999999995</ele><time>2026-04-25T10:05:21.701Z</time></trkpt><trkpt lat="45.2893183" lon="7.7050883"><ele>270.2</ele><time>2026-04-25T10:05:22.701Z</time></trkpt><trkpt lat="45.2891967" lon="7.7050633"><ele>269.59999999999997</ele><time>2026-04-25T10:05:24.701Z</time></trkpt><trkpt lat="45.2891117" lon="7.705085"><ele>269.0</ele><time>2026-04-25T10:05:25.701Z</time></trkpt><trkpt lat="45.2890183" lon="7.70509"><ele>269.0</ele><time>2026-04-25T10:05:26.701Z</time></trkpt><trkpt lat="45.2889383" lon="7.705045"><ele>269.0</ele><time>2026-04-25T10:05:27.701Z</time></trkpt><trkpt lat="45.2888567" lon="7.704925"><ele>269.0</ele><time>2026-04-25T10:05:28.701Z</time></trkpt><trkpt lat="45.2888117" lon="7.704755"><ele>269.0</ele><time>2026-04-25T10:05:29.701Z</time></trkpt><trkpt lat="45.288795" lon="7.7045117"><ele>269.33333333333337</ele><time>2026-04-25T10:05:30.701Z</time></trkpt><trkpt lat="45.2887917" lon="7.7042233"><ele>269.6666666666667</ele><time>2026-04-25T10:05:31.701Z</time></trkpt><trkpt lat="45.28878" lon="7.7039533"><ele>270.0</ele><time>2026-04-25T10:05:32.701Z</time></trkpt><trkpt lat="45.2887633" lon="7.7037117"><ele>270.3333333333333</ele><time>2026-04-25T10:05:33.701Z</time></trkpt><trkpt lat="45.2887467" lon="7.7034833"><ele>270.66666666666663</ele><time>2026-04-25T10:05:34.701Z</time></trkpt><trkpt lat="45.288725" lon="7.7032567"><ele>271.0</ele><time>2026-04-25T10:05:35.701Z</time></trkpt><trkpt lat="45.2887" lon="7.7030333"><ele>271.0</ele><time>2026-04-25T10:05:36.701Z</time></trkpt><trkpt lat="45.2886783" lon="7.702825"><ele>271.0</ele><time>2026-04-25T10:05:37.701Z</time></trkpt><trkpt lat="45.288655" lon="7.70263"><ele>271.0</ele><time>2026-04-25T10:05:38.701Z</time></trkpt><trkpt lat="45.2886333" lon="7.7024533"><ele>271.0</ele><time>2026-04-25T10:05:39.701Z</time></trkpt><trkpt lat="45.2885883" lon="7.70229"><ele>271.0</ele><time>2026-04-25T10:05:40.701Z</time></trkpt><trkpt lat="45.288545" lon="7.7021317"><ele>271.0</ele><time>2026-04-25T10:05:41.701Z</time></trkpt><trkpt lat="45.2884933" lon="7.7019483"><ele>271.0</ele><time>2026-04-25T10:05:42.701Z</time></trkpt><trkpt lat="45.2884567" lon="7.701745"><ele>271.0</ele><time>2026-04-25T10:05:43.701Z</time></trkpt><trkpt lat="45.28844" lon="7.7015267"><ele>270.66666666666663</ele><time>2026-04-25T10:05:44.701Z</time></trkpt><trkpt lat="45.288445" lon="7.7013083"><ele>270.3333333333333</ele><time>2026-04-25T10:05:45.701Z</time></trkpt><trkpt lat="45.2884833" lon="7.701085"><ele>270.0</ele><time>2026-04-25T10:05:46.701Z</time></trkpt><trkpt lat="45.288535" lon="7.700875"><ele>270.0</ele><time>2026-04-25T10:05:47.701Z</time></trkpt><trkpt lat="45.2885783" lon="7.70069"><ele>270.0</ele><time>2026-04-25T10:05:48.701Z</time></trkpt><trkpt lat="45.288615" lon="7.7005017"><ele>270.0</ele><time>2026-04-25T10:05:49.701Z</time></trkpt><trkpt lat="45.2886417" lon="7.7003033"><ele>270.0</ele><time>2026-04-25T10:05:50.701Z</time></trkpt><trkpt lat="45.2886583" lon="7.700085"><ele>270.5</ele><time>2026-04-25T10:05:51.701Z</time></trkpt><trkpt lat="45.28866" lon="7.699885"><ele>271.0</ele><time>2026-04-25T10:05:52.701Z</time></trkpt><trkpt lat="45.288665" lon="7.699705"><ele>271.5</ele><time>2026-04-25T10:05:53.701Z</time></trkpt><trkpt lat="45.28867" lon="7.6995567"><ele>272.0</ele><time>2026-04-25T10:05:54.701Z</time></trkpt><trkpt lat="45.288675" lon="7.699435"><ele>272.0</ele><time>2026-04-25T10:05:55.701Z</time></trkpt><trkpt lat="45.2886783" lon="7.6993333"><ele>272.0</ele><time>2026-04-25T10:05:56.7Z</time></trkpt><trkpt lat="45.2886767" lon="7.69919"><ele>272.0</ele><time>2026-04-25T10:05:58.7Z</time></trkpt><trkpt lat="45.288785" lon="7.6991483"><ele>272.0</ele><time>2026-04-25T10:06:00.7Z</time></trkpt><trkpt lat="45.28889" lon="7.6991433"><ele>272.0</ele><time>2026-04-25T10:06:01.7Z</time></trkpt><trkpt lat="45.289025" lon="7.6991433"><ele>272.0</ele><time>2026-04-25T10:06:02.7Z</time></trkpt><trkpt lat="45.289155" lon="7.6991417"><ele>272.0</ele><time>2026-04-25T10:06:03.7Z</time></trkpt><trkpt lat="45.28927" lon="7.699105"><ele>272.0</ele><time>2026-04-25T10:06:04.7Z</time></trkpt><trkpt lat="45.2893867" lon="7.6990667"><ele>272.0</ele><time>2026-04-25T10:06:05.7Z</time></trkpt><trkpt lat="45.2894883" lon="7.6990167"><ele>272.0</ele><time>2026-04-25T10:06:06.7Z</time></trkpt><trkpt lat="45.2895767" lon="7.698975"><ele>272.0</ele><time>2026-04-25T10:06:07.7Z</time></trkpt><trkpt lat="45.289665" lon="7.6989417"><ele>272.0</ele><time>2026-04-25T10:06:08.7Z</time></trkpt><trkpt lat="45.289745" lon="7.6989117"><ele>272.0</ele><time>2026-04-25T10:06:09.7Z</time></trkpt><trkpt lat="45.2898233" lon="7.6988617"><ele>272.0</ele><time>2026-04-25T10:06:10.7Z</time></trkpt><trkpt lat="45.2898933" lon="7.6987583"><ele>272.0</ele><time>2026-04-25T10:06:11.7Z</time></trkpt><trkpt lat="45.289935" lon="7.6986"><ele>272.0</ele><time>2026-04-25T10:06:12.7Z</time></trkpt><trkpt lat="45.28995" lon="7.6983883"><ele>272.0</ele><time>2026-04-25T10:06:13.7Z</time></trkpt><trkpt lat="45.2899533" lon="7.6981667"><ele>272.0</ele><time>2026-04-25T10:06:14.7Z</time></trkpt><trkpt lat="45.2899717" lon="7.6979583"><ele>272.25</ele><time>2026-04-25T10:06:15.7Z</time></trkpt><trkpt lat="45.2899883" lon="7.6977567"><ele>272.5</ele><time>2026-04-25T10:06:16.7Z</time></trkpt><trkpt lat="45.2900033" lon="7.6975717"><ele>272.75</ele><time>2026-04-25T10:06:17.7Z</time></trkpt><trkpt lat="45.29" lon="7.6974217"><ele>273.0</ele><time>2026-04-25T10:06:18.7Z</time></trkpt><trkpt lat="45.29" lon="7.69727"><ele>273.0</ele><time>2026-04-25T10:06:19.7Z</time></trkpt><trkpt lat="45.2899983" lon="7.6970817"><ele>273.0</ele><time>2026-04-25T10:06:20.7Z</time></trkpt><trkpt lat="45.2899833" lon="7.6968983"><ele>273.0</ele><time>2026-04-25T10:06:21.7Z</time></trkpt><trkpt lat="45.2899667" lon="7.6966933"><ele>273.0</ele><time>2026-04-25T10:06:22.7Z</time></trkpt><trkpt lat="45.2899617" lon="7.6964983"><ele>272.75</ele><time>2026-04-25T10:06:23.7Z</time></trkpt><trkpt lat="45.2899617" lon="7.69631"><ele>272.5</ele><time>2026-04-25T10:06:24.7Z</time></trkpt><trkpt lat="45.289965" lon="7.696135"><ele>272.25</ele><time>2026-04-25T10:06:25.7Z</time></trkpt><trkpt lat="45.2899667" lon="7.6959817"><ele>272.0</ele><time>2026-04-25T10:06:26.7Z</time></trkpt><trkpt lat="45.289965" lon="7.6958333"><ele>272.0</ele><time>2026-04-25T10:06:27.7Z</time></trkpt><trkpt lat="45.2899567" lon="7.695695"><ele>272.0</ele><time>2026-04-25T10:06:28.701Z</time></trkpt><trkpt lat="45.2899467" lon="7.6955667"><ele>272.0</ele><time>2026-04-25T10:06:29.7Z</time></trkpt><trkpt lat="45.2899367" lon="7.6954567"><ele>272.0</ele><time>2026-04-25T10:06:30.7Z</time></trkpt><trkpt lat="45.289925" lon="7.695345"><ele>272.0</ele><time>2026-04-25T10:06:32.7Z</time></trkpt><trkpt lat="45.2899233" lon="7.695255"><ele>272.0</ele><time>2026-04-25T10:06:35.7Z</time></trkpt><trkpt lat="45.2899217" lon="7.6951333"><ele>272.4</ele><time>2026-04-25T10:06:37.7Z</time></trkpt><trkpt lat="45.2899317" lon="7.6949667"><ele>272.79999999999995</ele><time>2026-04-25T10:06:39.7Z</time></trkpt><trkpt lat="45.28994" lon="7.6948733"><ele>273.2</ele><time>2026-04-25T10:06:40.7Z</time></trkpt><trkpt lat="45.289955" lon="7.69477"><ele>273.59999999999997</ele><time>2026-04-25T10:06:41.7Z</time></trkpt><trkpt lat="45.2899683" lon="7.6946317"><ele>274.0</ele><time>2026-04-25T10:06:42.7Z</time></trkpt><trkpt lat="45.2899783" lon="7.6944783"><ele>273.75</ele><time>2026-04-25T10:06:43.701Z</time></trkpt><trkpt lat="45.2899833" lon="7.6943017"><ele>273.5</ele><time>2026-04-25T10:06:44.7Z</time></trkpt><trkpt lat="45.2900017" lon="7.6941067"><ele>273.25</ele><time>2026-04-25T10:06:45.7Z</time></trkpt><trkpt lat="45.2900233" lon="7.6939"><ele>273.0</ele><time>2026-04-25T10:06:46.7Z</time></trkpt><trkpt lat="45.290045" lon="7.6936883"><ele>273.0</ele><time>2026-04-25T10:06:47.7Z</time></trkpt><trkpt lat="45.2900683" lon="7.693485"><ele>273.0</ele><time>2026-04-25T10:06:48.7Z</time></trkpt><trkpt lat="45.2900933" lon="7.6933033"><ele>273.0</ele><time>2026-04-25T10:06:49.7Z</time></trkpt><trkpt lat="45.29012" lon="7.6931283"><ele>273.0</ele><time>2026-04-25T10:06:50.7Z</time></trkpt><trkpt lat="45.2901517" lon="7.6929433"><ele>273.0</ele><time>2026-04-25T10:06:51.7Z</time></trkpt><trkpt lat="45.2901867" lon="7.6927717"><ele>273.0</ele><time>2026-04-25T10:06:52.7Z</time></trkpt><trkpt lat="45.290215" lon="7.6926067"><ele>273.0</ele><time>2026-04-25T10:06:53.7Z</time></trkpt><trkpt lat="45.2902467" lon="7.692445"><ele>273.0</ele><time>2026-04-25T10:06:54.7Z</time></trkpt><trkpt lat="45.29027" lon="7.6922817"><ele>273.25</ele><time>2026-04-25T10:06:55.7Z</time></trkpt><trkpt lat="45.2903" lon="7.6920967"><ele>273.5</ele><time>2026-04-25T10:06:56.7Z</time></trkpt><trkpt lat="45.2903317" lon="7.6919033"><ele>273.75</ele><time>2026-04-25T10:06:57.7Z</time></trkpt><trkpt lat="45.290365" lon="7.6916883"><ele>274.0</ele><time>2026-04-25T10:06:58.701Z</time></trkpt><trkpt lat="45.2903833" lon="7.69147"><ele>274.0</ele><time>2026-04-25T10:06:59.7Z</time></trkpt><trkpt lat="45.29037" lon="7.6912417"><ele>274.0</ele><time>2026-04-25T10:07:00.7Z</time></trkpt><trkpt lat="45.290345" lon="7.6910083"><ele>274.0</ele><time>2026-04-25T10:07:01.7Z</time></trkpt><trkpt lat="45.29032" lon="7.6907683"><ele>274.0</ele><time>2026-04-25T10:07:02.7Z</time></trkpt><trkpt lat="45.2902967" lon="7.6905283"><ele>274.0</ele><time>2026-04-25T10:07:03.7Z</time></trkpt><trkpt lat="45.2902767" lon="7.6903033"><ele>274.0</ele><time>2026-04-25T10:07:04.7Z</time></trkpt><trkpt lat="45.2902617" lon="7.6900917"><ele>274.0</ele><time>2026-04-25T10:07:05.7Z</time></trkpt><trkpt lat="45.290245" lon="7.68989"><ele>274.0</ele><time>2026-04-25T10:07:06.7Z</time></trkpt><trkpt lat="45.2902283" lon="7.6896883"><ele>274.0</ele><time>2026-04-25T10:07:07.7Z</time></trkpt><trkpt lat="45.29021" lon="7.689475"><ele>274.0</ele><time>2026-04-25T10:07:08.7Z</time></trkpt><trkpt lat="45.2901917" lon="7.6892683"><ele>274.0</ele><time>2026-04-25T10:07:09.7Z</time></trkpt><trkpt lat="45.290175" lon="7.6890717"><ele>274.0</ele><time>2026-04-25T10:07:10.7Z</time></trkpt><trkpt lat="45.2901583" lon="7.6888817"><ele>274.0</ele><time>2026-04-25T10:07:11.7Z</time></trkpt><trkpt lat="45.29015" lon="7.68871"><ele>274.0</ele><time>2026-04-25T10:07:12.7Z</time></trkpt><trkpt lat="45.2901367" lon="7.6885617"><ele>274.16666666666663</ele><time>2026-04-25T10:07:13.7Z</time></trkpt><trkpt lat="45.2901317" lon="7.6884367"><ele>274.3333333333333</ele><time>2026-04-25T10:07:14.7Z</time></trkpt><trkpt lat="45.29013" lon="7.68834"><ele>274.5</ele><time>2026-04-25T10:07:15.7Z</time></trkpt><trkpt lat="45.2901283" lon="7.6882483"><ele>274.6666666666667</ele><time>2026-04-25T10:07:16.7Z</time></trkpt><trkpt lat="45.2901517" lon="7.688165"><ele>274.83333333333337</ele><time>2026-04-25T10:07:17.7Z</time></trkpt><trkpt lat="45.290255" lon="7.68808"><ele>275.0</ele><time>2026-04-25T10:07:19.7Z</time></trkpt><trkpt lat="45.2903317" lon="7.6880767"><ele>275.0</ele><time>2026-04-25T10:07:20.7Z</time></trkpt><trkpt lat="45.2904383" lon="7.6880767"><ele>275.0</ele><time>2026-04-25T10:07:21.7Z</time></trkpt><trkpt lat="45.2905717" lon="7.6880917"><ele>275.0</ele><time>2026-04-25T10:07:22.7Z</time></trkpt><trkpt lat="45.29073" lon="7.6880967"><ele>275.0</ele><time>2026-04-25T10:07:23.7Z</time></trkpt><trkpt lat="45.290875" lon="7.6881017"><ele>275.25</ele><time>2026-04-25T10:07:24.7Z</time></trkpt><trkpt lat="45.2910183" lon="7.6881033"><ele>275.5</ele><time>2026-04-25T10:07:25.701Z</time></trkpt><trkpt lat="45.2911533" lon="7.6881133"><ele>275.75</ele><time>2026-04-25T10:07:26.7Z</time></trkpt><trkpt lat="45.2912817" lon="7.6881183"><ele>276.0</ele><time>2026-04-25T10:07:27.7Z</time></trkpt><trkpt lat="45.2914183" lon="7.6881333"><ele>276.0</ele><time>2026-04-25T10:07:28.7Z</time></trkpt><trkpt lat="45.2915783" lon="7.6881433"><ele>276.0</ele><time>2026-04-25T10:07:29.7Z</time></trkpt><trkpt lat="45.291745" lon="7.6881567"><ele>276.0</ele><time>2026-04-25T10:07:30.7Z</time></trkpt><trkpt lat="45.291905" lon="7.6881583"><ele>276.0</ele><time>2026-04-25T10:07:31.7Z</time></trkpt><trkpt lat="45.2920567" lon="7.688155"><ele>276.0</ele><time>2026-04-25T10:07:32.7Z</time></trkpt><trkpt lat="45.292215" lon="7.6881533"><ele>276.0</ele><time>2026-04-25T10:07:33.7Z</time></trkpt><trkpt lat="45.29238" lon="7.6881483"><ele>276.0</ele><time>2026-04-25T10:07:34.7Z</time></trkpt><trkpt lat="45.2925483" lon="7.6881383"><ele>276.0</ele><time>2026-04-25T10:07:35.7Z</time></trkpt><trkpt lat="45.2927117" lon="7.688135"><ele>276.0</ele><time>2026-04-25T10:07:36.7Z</time></trkpt><trkpt lat="45.29287" lon="7.6881417"><ele>276.0</ele><time>2026-04-25T10:07:37.7Z</time></trkpt><trkpt lat="45.2930283" lon="7.6881417"><ele>276.0</ele><time>2026-04-25T10:07:38.7Z</time></trkpt><trkpt lat="45.2931883" lon="7.6881433"><ele>276.0</ele><time>2026-04-25T10:07:39.7Z</time></trkpt><trkpt lat="45.2933383" lon="7.6881533"><ele>275.75</ele><time>2026-04-25T10:07:40.7Z</time></trkpt><trkpt lat="45.2934783" lon="7.68816"><ele>275.5</ele><time>2026-04-25T10:07:41.7Z</time></trkpt><trkpt lat="45.29361" lon="7.68817"><ele>275.25</ele><time>2026-04-25T10:07:42.7Z</time></trkpt><trkpt lat="45.293735" lon="7.6881717"><ele>275.0</ele><time>2026-04-25T10:07:43.7Z</time></trkpt><trkpt lat="45.2938433" lon="7.6881683"><ele>275.33333333333337</ele><time>2026-04-25T10:07:44.7Z</time></trkpt><trkpt lat="45.2939417" lon="7.688165"><ele>275.6666666666667</ele><time>2026-04-25T10:07:45.7Z</time></trkpt><trkpt lat="45.2940283" lon="7.68815"><ele>276.0</ele><time>2026-04-25T10:07:46.7Z</time></trkpt><trkpt lat="45.2940967" lon="7.6881233"><ele>276.3333333333333</ele><time>2026-04-25T10:07:47.7Z</time></trkpt><trkpt lat="45.29415" lon="7.6880617"><ele>276.66666666666663</ele><time>2026-04-25T10:07:48.7Z</time></trkpt><trkpt lat="45.2941733" lon="7.68797"><ele>277.0</ele><time>2026-04-25T10:07:49.7Z</time></trkpt><trkpt lat="45.294175" lon="7.6878433"><ele>277.25</ele><time>2026-04-25T10:07:50.7Z</time></trkpt><trkpt lat="45.2941517" lon="7.687675"><ele>277.5</ele><time>2026-04-25T10:07:51.7Z</time></trkpt><trkpt lat="45.29412" lon="7.6874817"><ele>277.75</ele><time>2026-04-25T10:07:52.7Z</time></trkpt><trkpt lat="45.29409" lon="7.6872933"><ele>278.0</ele><time>2026-04-25T10:07:53.7Z</time></trkpt><trkpt lat="45.29407" lon="7.6871067"><ele>278.25</ele><time>2026-04-25T10:07:54.7Z</time></trkpt><trkpt lat="45.29406" lon="7.6869083"><ele>278.5</ele><time>2026-04-25T10:07:55.7Z</time></trkpt><trkpt lat="45.29404" lon="7.686725"><ele>278.75</ele><time>2026-04-25T10:07:56.7Z</time></trkpt><trkpt lat="45.2940317" lon="7.6865517"><ele>279.0</ele><time>2026-04-25T10:07:57.7Z</time></trkpt><trkpt lat="45.29402" lon="7.6863767"><ele>279.0</ele><time>2026-04-25T10:07:58.7Z</time></trkpt><trkpt lat="45.294005" lon="7.686185"><ele>279.0</ele><time>2026-04-25T10:07:59.7Z</time></trkpt><trkpt lat="45.2940017" lon="7.6859733"><ele>279.0</ele><time>2026-04-25T10:08:00.7Z</time></trkpt><trkpt lat="45.2939983" lon="7.68576"><ele>279.0</ele><time>2026-04-25T10:08:01.7Z</time></trkpt><trkpt lat="45.2939983" lon="7.68554"><ele>278.6666666666667</ele><time>2026-04-25T10:08:02.7Z</time></trkpt><trkpt lat="45.2939917" lon="7.68532"><ele>278.33333333333337</ele><time>2026-04-25T10:08:03.7Z</time></trkpt><trkpt lat="45.294" lon="7.6850933"><ele>278.0</ele><time>2026-04-25T10:08:04.7Z</time></trkpt><trkpt lat="45.2940033" lon="7.6848617"><ele>277.6666666666667</ele><time>2026-04-25T10:08:05.7Z</time></trkpt><trkpt lat="45.2940083" lon="7.6846317"><ele>277.3333333333333</ele><time>2026-04-25T10:08:06.7Z</time></trkpt><trkpt lat="45.2940083" lon="7.6843983"><ele>277.0</ele><time>2026-04-25T10:08:07.7Z</time></trkpt><trkpt lat="45.2940167" lon="7.684165"><ele>277.3333333333333</ele><time>2026-04-25T10:08:08.7Z</time></trkpt><trkpt lat="45.2940317" lon="7.6839283"><ele>277.6666666666667</ele><time>2026-04-25T10:08:09.7Z</time></trkpt><trkpt lat="45.2940383" lon="7.683695"><ele>278.0</ele><time>2026-04-25T10:08:10.7Z</time></trkpt><trkpt lat="45.29404" lon="7.6834667"><ele>278.0</ele><time>2026-04-25T10:08:11.7Z</time></trkpt><trkpt lat="45.2940367" lon="7.6832283"><ele>278.0</ele><time>2026-04-25T10:08:12.7Z</time></trkpt><trkpt lat="45.294035" lon="7.68299"><ele>278.0</ele><time>2026-04-25T10:08:13.7Z</time></trkpt><trkpt lat="45.2940367" lon="7.682755"><ele>278.0</ele><time>2026-04-25T10:08:14.7Z</time></trkpt><trkpt lat="45.2940417" lon="7.6825333"><ele>278.0</ele><time>2026-04-25T10:08:15.7Z</time></trkpt><trkpt lat="45.29404" lon="7.682305"><ele>278.0</ele><time>2026-04-25T10:08:16.7Z</time></trkpt><trkpt lat="45.29405" lon="7.682075"><ele>278.6666666666667</ele><time>2026-04-25T10:08:17.7Z</time></trkpt><trkpt lat="45.2940533" lon="7.6818467"><ele>279.3333333333333</ele><time>2026-04-25T10:08:18.7Z</time></trkpt><trkpt lat="45.2940567" lon="7.681635"><ele>280.0</ele><time>2026-04-25T10:08:19.7Z</time></trkpt><trkpt lat="45.2940583" lon="7.681425"><ele>280.0</ele><time>2026-04-25T10:08:20.7Z</time></trkpt><trkpt lat="45.2940583" lon="7.6811833"><ele>280.0</ele><time>2026-04-25T10:08:21.7Z</time></trkpt><trkpt lat="45.2940567" lon="7.6809367"><ele>280.0</ele><time>2026-04-25T10:08:22.7Z</time></trkpt><trkpt lat="45.29406" lon="7.6806867"><ele>280.0</ele><time>2026-04-25T10:08:23.7Z</time></trkpt><trkpt lat="45.29407" lon="7.6804367"><ele>280.0</ele><time>2026-04-25T10:08:24.7Z</time></trkpt><trkpt lat="45.2940767" lon="7.680185"><ele>280.0</ele><time>2026-04-25T10:08:25.7Z</time></trkpt><trkpt lat="45.294085" lon="7.6799267"><ele>280.3333333333333</ele><time>2026-04-25T10:08:26.7Z</time></trkpt><trkpt lat="45.29409" lon="7.67966"><ele>280.6666666666667</ele><time>2026-04-25T10:08:27.7Z</time></trkpt><trkpt lat="45.2941017" lon="7.6793833"><ele>281.0</ele><time>2026-04-25T10:08:28.7Z</time></trkpt><trkpt lat="45.2941067" lon="7.6791067"><ele>281.0</ele><time>2026-04-25T10:08:29.7Z</time></trkpt><trkpt lat="45.2941117" lon="7.6788467"><ele>281.0</ele><time>2026-04-25T10:08:30.7Z</time></trkpt><trkpt lat="45.29412" lon="7.67861"><ele>281.0</ele><time>2026-04-25T10:08:31.7Z</time></trkpt><trkpt lat="45.2941283" lon="7.6783717"><ele>280.6666666666667</ele><time>2026-04-25T10:08:32.7Z</time></trkpt><trkpt lat="45.294145" lon="7.6781283"><ele>280.3333333333333</ele><time>2026-04-25T10:08:33.7Z</time></trkpt><trkpt lat="45.2941483" lon="7.6778817"><ele>280.0</ele><time>2026-04-25T10:08:34.7Z</time></trkpt><trkpt lat="45.294145" lon="7.6776417"><ele>280.0</ele><time>2026-04-25T10:08:35.7Z</time></trkpt><trkpt lat="45.2941517" lon="7.6774017"><ele>280.0</ele><time>2026-04-25T10:08:36.7Z</time></trkpt><trkpt lat="45.2941517" lon="7.677155"><ele>280.0</ele><time>2026-04-25T10:08:37.7Z</time></trkpt><trkpt lat="45.29416" lon="7.6769"><ele>280.3333333333333</ele><time>2026-04-25T10:08:38.7Z</time></trkpt><trkpt lat="45.2941633" lon="7.6766617"><ele>280.6666666666667</ele><time>2026-04-25T10:08:39.701Z</time></trkpt><trkpt lat="45.2941617" lon="7.6764383"><ele>281.0</ele><time>2026-04-25T10:08:40.7Z</time></trkpt><trkpt lat="45.2941617" lon="7.6761983"><ele>281.0</ele><time>2026-04-25T10:08:41.7Z</time></trkpt><trkpt lat="45.294165" lon="7.6759583"><ele>281.0</ele><time>2026-04-25T10:08:42.7Z</time></trkpt><trkpt lat="45.29417" lon="7.67573"><ele>281.0</ele><time>2026-04-25T10:08:43.7Z</time></trkpt><trkpt lat="45.2941817" lon="7.6755083"><ele>281.0</ele><time>2026-04-25T10:08:44.7Z</time></trkpt><trkpt lat="45.2941833" lon="7.6753"><ele>281.0</ele><time>2026-04-25T10:08:45.7Z</time></trkpt><trkpt lat="45.2941833" lon="7.6750967"><ele>281.0</ele><time>2026-04-25T10:08:46.7Z</time></trkpt><trkpt lat="45.2941867" lon="7.6748883"><ele>281.0</ele><time>2026-04-25T10:08:47.7Z</time></trkpt><trkpt lat="45.294195" lon="7.6746883"><ele>280.8</ele><time>2026-04-25T10:08:48.701Z</time></trkpt><trkpt lat="45.294195" lon="7.674505"><ele>280.6</ele><time>2026-04-25T10:08:49.7Z</time></trkpt><trkpt lat="45.2941967" lon="7.6743417"><ele>280.4</ele><time>2026-04-25T10:08:50.7Z</time></trkpt><trkpt lat="45.294205" lon="7.6742033"><ele>280.2</ele><time>2026-04-25T10:08:51.7Z</time></trkpt><trkpt lat="45.29421" lon="7.6741"><ele>280.0</ele><time>2026-04-25T10:08:52.7Z</time></trkpt><trkpt lat="45.2942167" lon="7.6739767"><ele>280.0</ele><time>2026-04-25T10:08:54.7Z</time></trkpt><trkpt lat="45.2942033" lon="7.6738483"><ele>280.0</ele><time>2026-04-25T10:09:12.7Z</time></trkpt><trkpt lat="45.2941467" lon="7.6738033"><ele>280.0</ele><time>2026-04-25T10:09:13.7Z</time></trkpt><trkpt lat="45.2940483" lon="7.6737617"><ele>280.0</ele><time>2026-04-25T10:09:14.7Z</time></trkpt><trkpt lat="45.29392" lon="7.67373"><ele>280.0</ele><time>2026-04-25T10:09:15.7Z</time></trkpt><trkpt lat="45.2937567" lon="7.673685"><ele>280.0</ele><time>2026-04-25T10:09:16.7Z</time></trkpt><trkpt lat="45.29358" lon="7.67364"><ele>280.0</ele><time>2026-04-25T10:09:17.7Z</time></trkpt><trkpt lat="45.293405" lon="7.6735933"><ele>280.0</ele><time>2026-04-25T10:09:18.7Z</time></trkpt><trkpt lat="45.29322" lon="7.67355"><ele>279.66666666666663</ele><time>2026-04-25T10:09:19.7Z</time></trkpt><trkpt lat="45.2930317" lon="7.6735117"><ele>279.3333333333333</ele><time>2026-04-25T10:09:20.7Z</time></trkpt><trkpt lat="45.29284" lon="7.6734667"><ele>279.0</ele><time>2026-04-25T10:09:21.7Z</time></trkpt><trkpt lat="45.29264" lon="7.6734183"><ele>279.0</ele><time>2026-04-25T10:09:22.7Z</time></trkpt><trkpt lat="45.29244" lon="7.6733717"><ele>279.0</ele><time>2026-04-25T10:09:23.7Z</time></trkpt><trkpt lat="45.2922383" lon="7.6733233"><ele>279.0</ele><time>2026-04-25T10:09:24.7Z</time></trkpt><trkpt lat="45.2920417" lon="7.673275"><ele>278.6666666666667</ele><time>2026-04-25T10:09:25.7Z</time></trkpt><trkpt lat="45.2918483" lon="7.6732283"><ele>278.33333333333337</ele><time>2026-04-25T10:09:26.7Z</time></trkpt><trkpt lat="45.291655" lon="7.6731767"><ele>278.0</ele><time>2026-04-25T10:09:27.7Z</time></trkpt><trkpt lat="45.2914633" lon="7.6731283"><ele>278.0</ele><time>2026-04-25T10:09:28.7Z</time></trkpt><trkpt lat="45.2912717" lon="7.6730767"><ele>278.0</ele><time>2026-04-25T10:09:29.7Z</time></trkpt><trkpt lat="45.29108" lon="7.67303"><ele>278.0</ele><time>2026-04-25T10:09:30.7Z</time></trkpt><trkpt lat="45.290885" lon="7.67298"><ele>278.0</ele><time>2026-04-25T10:09:31.7Z</time></trkpt><trkpt lat="45.2906867" lon="7.6729333"><ele>278.0</ele><time>2026-04-25T10:09:32.7Z</time></trkpt><trkpt lat="45.2904883" lon="7.6728867"><ele>278.0</ele><time>2026-04-25T10:09:33.7Z</time></trkpt><trkpt lat="45.2902917" lon="7.6728433"><ele>278.0</ele><time>2026-04-25T10:09:34.7Z</time></trkpt><trkpt lat="45.2901033" lon="7.6727917"><ele>278.0</ele><time>2026-04-25T10:09:35.7Z</time></trkpt><trkpt lat="45.2899117" lon="7.6727417"><ele>278.0</ele><time>2026-04-25T10:09:36.7Z</time></trkpt><trkpt lat="45.2897133" lon="7.6726933"><ele>278.0</ele><time>2026-04-25T10:09:37.7Z</time></trkpt><trkpt lat="45.2895117" lon="7.672645"><ele>278.0</ele><time>2026-04-25T10:09:38.7Z</time></trkpt><trkpt lat="45.2893083" lon="7.6725967"><ele>278.0</ele><time>2026-04-25T10:09:39.7Z</time></trkpt><trkpt lat="45.2891083" lon="7.6725283"><ele>278.0</ele><time>2026-04-25T10:09:40.7Z</time></trkpt><trkpt lat="45.28891" lon="7.67244"><ele>278.0</ele><time>2026-04-25T10:09:41.7Z</time></trkpt><trkpt lat="45.2887183" lon="7.6723267"><ele>278.0</ele><time>2026-04-25T10:09:42.7Z</time></trkpt><trkpt lat="45.2885367" lon="7.6721833"><ele>278.0</ele><time>2026-04-25T10:09:43.7Z</time></trkpt><trkpt lat="45.2883617" lon="7.6720167"><ele>278.0</ele><time>2026-04-25T10:09:44.7Z</time></trkpt><trkpt lat="45.2882133" lon="7.671835"><ele>278.0</ele><time>2026-04-25T10:09:45.7Z</time></trkpt><trkpt lat="45.2880783" lon="7.6716417"><ele>277.0</ele><time>2026-04-25T10:09:46.701Z</time></trkpt><trkpt lat="45.2879483" lon="7.6714617"><ele>276.0</ele><time>2026-04-25T10:09:47.7Z</time></trkpt><trkpt lat="45.2878283" lon="7.67128"><ele>275.0</ele><time>2026-04-25T10:09:48.7Z</time></trkpt><trkpt lat="45.28773" lon="7.6710967"><ele>274.6666666666667</ele><time>2026-04-25T10:09:49.7Z</time></trkpt><trkpt lat="45.2876383" lon="7.67091"><ele>274.3333333333333</ele><time>2026-04-25T10:09:50.7Z</time></trkpt><trkpt lat="45.287555" lon="7.6707067"><ele>274.0</ele><time>2026-04-25T10:09:51.7Z</time></trkpt><trkpt lat="45.2874717" lon="7.6704917"><ele>274.0</ele><time>2026-04-25T10:09:52.7Z</time></trkpt><trkpt lat="45.2873883" lon="7.6702617"><ele>274.0</ele><time>2026-04-25T10:09:53.7Z</time></trkpt><trkpt lat="45.287315" lon="7.670045"><ele>274.0</ele><time>2026-04-25T10:09:54.7Z</time></trkpt><trkpt lat="45.287235" lon="7.66983"><ele>274.0</ele><time>2026-04-25T10:09:55.7Z</time></trkpt><trkpt lat="45.2871567" lon="7.66962"><ele>274.0</ele><time>2026-04-25T10:09:56.701Z</time></trkpt><trkpt lat="45.2870833" lon="7.6694217"><ele>274.0</ele><time>2026-04-25T10:09:57.7Z</time></trkpt><trkpt lat="45.287015" lon="7.6692383"><ele>274.0</ele><time>2026-04-25T10:09:58.7Z</time></trkpt><trkpt lat="45.2869467" lon="7.6690683"><ele>274.0</ele><time>2026-04-25T10:09:59.7Z</time></trkpt><trkpt lat="45.2868783" lon="7.6689067"><ele>274.0</ele><time>2026-04-25T10:10:00.7Z</time></trkpt><trkpt lat="45.286825" lon="7.668775"><ele>274.0</ele><time>2026-04-25T10:10:01.7Z</time></trkpt><trkpt lat="45.2867817" lon="7.6686567"><ele>273.8333333333333</ele><time>2026-04-25T10:10:02.7Z</time></trkpt><trkpt lat="45.28673" lon="7.668555"><ele>273.66666666666663</ele><time>2026-04-25T10:10:03.7Z</time></trkpt><trkpt lat="45.286695" lon="7.6684717"><ele>273.5</ele><time>2026-04-25T10:10:04.7Z</time></trkpt><trkpt lat="45.2866433" lon="7.6683467"><ele>273.3333333333333</ele><time>2026-04-25T10:10:06.7Z</time></trkpt><trkpt lat="45.28662" lon="7.6682533"><ele>273.1666666666667</ele><time>2026-04-25T10:10:09.7Z</time></trkpt><trkpt lat="45.2865633" lon="7.668145"><ele>273.0</ele><time>2026-04-25T10:10:14.7Z</time></trkpt><trkpt lat="45.2864517" lon="7.6680283"><ele>272.8</ele><time>2026-04-25T10:10:16.7Z</time></trkpt><trkpt lat="45.286365" lon="7.66798"><ele>272.6</ele><time>2026-04-25T10:10:17.7Z</time></trkpt><trkpt lat="45.286265" lon="7.6679283"><ele>272.4</ele><time>2026-04-25T10:10:18.7Z</time></trkpt><trkpt lat="45.2861717" lon="7.6678733"><ele>272.2</ele><time>2026-04-25T10:10:19.7Z</time></trkpt><trkpt lat="45.2860567" lon="7.6678183"><ele>272.0</ele><time>2026-04-25T10:10:20.7Z</time></trkpt><trkpt lat="45.2859367" lon="7.6677417"><ele>271.5</ele><time>2026-04-25T10:10:21.7Z</time></trkpt><trkpt lat="45.2858167" lon="7.6676583"><ele>271.0</ele><time>2026-04-25T10:10:22.7Z</time></trkpt><trkpt lat="45.2856967" lon="7.6675733"><ele>270.5</ele><time>2026-04-25T10:10:23.7Z</time></trkpt><trkpt lat="45.2855767" lon="7.6674767"><ele>270.0</ele><time>2026-04-25T10:10:24.7Z</time></trkpt><trkpt lat="45.2854517" lon="7.6673833"><ele>270.0</ele><time>2026-04-25T10:10:25.7Z</time></trkpt><trkpt lat="45.2853417" lon="7.667295"><ele>270.0</ele><time>2026-04-25T10:10:26.7Z</time></trkpt><trkpt lat="45.2852367" lon="7.6672133"><ele>270.0</ele><time>2026-04-25T10:10:27.7Z</time></trkpt><trkpt lat="45.2851233" lon="7.66714"><ele>270.0</ele><time>2026-04-25T10:10:28.7Z</time></trkpt><trkpt lat="45.285005" lon="7.66705"><ele>270.0</ele><time>2026-04-25T10:10:29.7Z</time></trkpt><trkpt lat="45.284875" lon="7.66697"><ele>270.0</ele><time>2026-04-25T10:10:30.7Z</time></trkpt><trkpt lat="45.2847517" lon="7.6668783"><ele>270.0</ele><time>2026-04-25T10:10:31.7Z</time></trkpt><trkpt lat="45.2846333" lon="7.6667917"><ele>270.0</ele><time>2026-04-25T10:10:32.7Z</time></trkpt><trkpt lat="45.2845183" lon="7.66671"><ele>270.0</ele><time>2026-04-25T10:10:33.7Z</time></trkpt><trkpt lat="45.284405" lon="7.6666283"><ele>270.0</ele><time>2026-04-25T10:10:34.7Z</time></trkpt><trkpt lat="45.2842867" lon="7.6665433"><ele>270.0</ele><time>2026-04-25T10:10:35.7Z</time></trkpt><trkpt lat="45.2841717" lon="7.666455"><ele>270.0</ele><time>2026-04-25T10:10:36.7Z</time></trkpt><trkpt lat="45.2840633" lon="7.6663683"><ele>270.0</ele><time>2026-04-25T10:10:37.7Z</time></trkpt><trkpt lat="45.2839533" lon="7.6662817"><ele>270.0</ele><time>2026-04-25T10:10:38.7Z</time></trkpt><trkpt lat="45.2838367" lon="7.6662"><ele>270.0</ele><time>2026-04-25T10:10:39.7Z</time></trkpt><trkpt lat="45.2837133" lon="7.6661133"><ele>270.0</ele><time>2026-04-25T10:10:40.7Z</time></trkpt><trkpt lat="45.28359" lon="7.6660267"><ele>269.5</ele><time>2026-04-25T10:10:41.7Z</time></trkpt><trkpt lat="45.283465" lon="7.6659367"><ele>269.0</ele><time>2026-04-25T10:10:42.7Z</time></trkpt><trkpt lat="45.283355" lon="7.665835"><ele>268.5</ele><time>2026-04-25T10:10:43.7Z</time></trkpt><trkpt lat="45.2832533" lon="7.66573"><ele>268.0</ele><time>2026-04-25T10:10:44.7Z</time></trkpt><trkpt lat="45.28315" lon="7.665635"><ele>267.8</ele><time>2026-04-25T10:10:45.7Z</time></trkpt><trkpt lat="45.2830533" lon="7.6655333"><ele>267.6</ele><time>2026-04-25T10:10:46.7Z</time></trkpt><trkpt lat="45.282965" lon="7.6654467"><ele>267.4</ele><time>2026-04-25T10:10:47.7Z</time></trkpt><trkpt lat="45.2828983" lon="7.6653883"><ele>267.2</ele><time>2026-04-25T10:10:48.7Z</time></trkpt><trkpt lat="45.2828267" lon="7.6653067"><ele>267.0</ele><time>2026-04-25T10:10:50.7Z</time></trkpt><trkpt lat="45.2827967" lon="7.6652233"><ele>267.0</ele><time>2026-04-25T10:10:54.7Z</time></trkpt><trkpt lat="45.2827683" lon="7.6651117"><ele>267.0</ele><time>2026-04-25T10:10:56.7Z</time></trkpt><trkpt lat="45.2827583" lon="7.665015"><ele>267.0</ele><time>2026-04-25T10:10:57.7Z</time></trkpt><trkpt lat="45.2827517" lon="7.6648933"><ele>267.0</ele><time>2026-04-25T10:10:58.7Z</time></trkpt><trkpt lat="45.2827633" lon="7.6647483"><ele>267.0</ele><time>2026-04-25T10:10:59.7Z</time></trkpt><trkpt lat="45.28279" lon="7.66459"><ele>267.25</ele><time>2026-04-25T10:11:00.7Z</time></trkpt><trkpt lat="45.2828167" lon="7.6644083"><ele>267.5</ele><time>2026-04-25T10:11:01.7Z</time></trkpt><trkpt lat="45.2828433" lon="7.6642217"><ele>267.75</ele><time>2026-04-25T10:11:02.7Z</time></trkpt><trkpt lat="45.282875" lon="7.6640317"><ele>268.0</ele><time>2026-04-25T10:11:03.701Z</time></trkpt><trkpt lat="45.2829333" lon="7.6638367"><ele>268.0</ele><time>2026-04-25T10:11:04.7Z</time></trkpt><trkpt lat="45.2830067" lon="7.6636567"><ele>268.0</ele><time>2026-04-25T10:11:05.7Z</time></trkpt><trkpt lat="45.2831067" lon="7.6634933"><ele>268.0</ele><time>2026-04-25T10:11:06.7Z</time></trkpt><trkpt lat="45.2832083" lon="7.6633417"><ele>268.0</ele><time>2026-04-25T10:11:07.7Z</time></trkpt><trkpt lat="45.2833167" lon="7.66321"><ele>268.25</ele><time>2026-04-25T10:11:08.7Z</time></trkpt><trkpt lat="45.2834233" lon="7.6630933"><ele>268.5</ele><time>2026-04-25T10:11:09.7Z</time></trkpt><trkpt lat="45.2835367" lon="7.6629983"><ele>268.75</ele><time>2026-04-25T10:11:10.701Z</time></trkpt><trkpt lat="45.2836483" lon="7.662915"><ele>269.0</ele><time>2026-04-25T10:11:11.7Z</time></trkpt><trkpt lat="45.283745" lon="7.6628483"><ele>269.0</ele><time>2026-04-25T10:11:12.7Z</time></trkpt><trkpt lat="45.2838283" lon="7.662785"><ele>269.0</ele><time>2026-04-25T10:11:13.7Z</time></trkpt><trkpt lat="45.28391" lon="7.6627467"><ele>269.0</ele><time>2026-04-25T10:11:14.7Z</time></trkpt><trkpt lat="45.2839817" lon="7.6627267"><ele>269.0</ele><time>2026-04-25T10:11:15.7Z</time></trkpt><trkpt lat="45.284055" lon="7.6627333"><ele>269.0</ele><time>2026-04-25T10:11:16.7Z</time></trkpt><trkpt lat="45.284125" lon="7.6627217"><ele>269.0</ele><time>2026-04-25T10:11:17.701Z</time></trkpt><trkpt lat="45.28419" lon="7.66268"><ele>269.0</ele><time>2026-04-25T10:11:18.7Z</time></trkpt><trkpt lat="45.2842283" lon="7.6625933"><ele>269.0</ele><time>2026-04-25T10:11:19.7Z</time></trkpt><trkpt lat="45.2842183" lon="7.6624983"><ele>269.0</ele><time>2026-04-25T10:11:20.7Z</time></trkpt><trkpt lat="45.2841717" lon="7.6624067"><ele>269.0</ele><time>2026-04-25T10:11:21.701Z</time></trkpt><trkpt lat="45.2841" lon="7.66234"><ele>269.0</ele><time>2026-04-25T10:11:22.7Z</time></trkpt><trkpt lat="45.28401" lon="7.6622683"><ele>269.0</ele><time>2026-04-25T10:11:23.701Z</time></trkpt><trkpt lat="45.2839133" lon="7.6621633"><ele>269.0</ele><time>2026-04-25T10:11:24.7Z</time></trkpt><trkpt lat="45.2838333" lon="7.6620067"><ele>269.0</ele><time>2026-04-25T10:11:25.7Z</time></trkpt><trkpt lat="45.2837483" lon="7.6618483"><ele>269.0</ele><time>2026-04-25T10:11:26.701Z</time></trkpt><trkpt lat="45.283665" lon="7.6616833"><ele>269.0</ele><time>2026-04-25T10:11:27.7Z</time></trkpt><trkpt lat="45.2835867" lon="7.6615233"><ele>269.25</ele><time>2026-04-25T10:11:28.7Z</time></trkpt><trkpt lat="45.2835133" lon="7.6613733"><ele>269.5</ele><time>2026-04-25T10:11:29.7Z</time></trkpt><trkpt lat="45.2834383" lon="7.6612283"><ele>269.75</ele><time>2026-04-25T10:11:30.7Z</time></trkpt><trkpt lat="45.28338" lon="7.6610967"><ele>270.0</ele><time>2026-04-25T10:11:31.7Z</time></trkpt><trkpt lat="45.2833267" lon="7.6609817"><ele>271.0</ele><time>2026-04-25T10:11:32.7Z</time></trkpt><trkpt lat="45.28328" lon="7.660875"><ele>272.0</ele><time>2026-04-25T10:11:33.7Z</time></trkpt><trkpt lat="45.2832517" lon="7.6607767"><ele>273.0</ele><time>2026-04-25T10:11:34.7Z</time></trkpt><trkpt lat="45.28323" lon="7.6606817"><ele>274.0</ele><time>2026-04-25T10:11:35.7Z</time></trkpt><trkpt lat="45.283235" lon="7.660585"><ele>275.0</ele><time>2026-04-25T10:11:36.7Z</time></trkpt><trkpt lat="45.2832767" lon="7.6604967"><ele>276.0</ele><time>2026-04-25T10:11:37.7Z</time></trkpt><trkpt lat="45.2833567" lon="7.6604183"><ele>276.0</ele><time>2026-04-25T10:11:38.7Z</time></trkpt><trkpt lat="45.2834717" lon="7.6603517"><ele>276.0</ele><time>2026-04-25T10:11:39.7Z</time></trkpt><trkpt lat="45.28363" lon="7.6602983"><ele>276.0</ele><time>2026-04-25T10:11:40.7Z</time></trkpt><trkpt lat="45.2837917" lon="7.6602383"><ele>275.0</ele><time>2026-04-25T10:11:41.7Z</time></trkpt><trkpt lat="45.2839417" lon="7.66016"><ele>274.0</ele><time>2026-04-25T10:11:42.7Z</time></trkpt><trkpt lat="45.2840917" lon="7.6600917"><ele>273.0</ele><time>2026-04-25T10:11:43.7Z</time></trkpt><trkpt lat="45.2842367" lon="7.66001"><ele>273.0</ele><time>2026-04-25T10:11:44.701Z</time></trkpt><trkpt lat="45.2843867" lon="7.6599217"><ele>273.0</ele><time>2026-04-25T10:11:45.701Z</time></trkpt><trkpt lat="45.28454" lon="7.659835"><ele>273.0</ele><time>2026-04-25T10:11:46.7Z</time></trkpt><trkpt lat="45.2847" lon="7.65974"><ele>272.6666666666667</ele><time>2026-04-25T10:11:47.7Z</time></trkpt><trkpt lat="45.28486" lon="7.65964"><ele>272.33333333333337</ele><time>2026-04-25T10:11:48.7Z</time></trkpt><trkpt lat="45.285015" lon="7.6595383"><ele>272.0</ele><time>2026-04-25T10:11:49.7Z</time></trkpt><trkpt lat="45.2851667" lon="7.65944"><ele>273.0</ele><time>2026-04-25T10:11:50.7Z</time></trkpt><trkpt lat="45.2853183" lon="7.659345"><ele>274.0</ele><time>2026-04-25T10:11:51.7Z</time></trkpt><trkpt lat="45.2854667" lon="7.65926"><ele>275.0</ele><time>2026-04-25T10:11:52.7Z</time></trkpt><trkpt lat="45.28562" lon="7.6591617"><ele>275.0</ele><time>2026-04-25T10:11:53.7Z</time></trkpt><trkpt lat="45.2857733" lon="7.6590783"><ele>275.0</ele><time>2026-04-25T10:11:54.7Z</time></trkpt><trkpt lat="45.285915" lon="7.6589867"><ele>275.0</ele><time>2026-04-25T10:11:55.7Z</time></trkpt><trkpt lat="45.2860433" lon="7.6588783"><ele>275.0</ele><time>2026-04-25T10:11:56.7Z</time></trkpt><trkpt lat="45.286175" lon="7.65871"><ele>275.0</ele><time>2026-04-25T10:11:57.7Z</time></trkpt><trkpt lat="45.2862883" lon="7.6585233"><ele>275.0</ele><time>2026-04-25T10:11:58.7Z</time></trkpt><trkpt lat="45.2863833" lon="7.658315"><ele>276.33333333333337</ele><time>2026-04-25T10:11:59.7Z</time></trkpt><trkpt lat="45.28646" lon="7.6581133"><ele>277.6666666666667</ele><time>2026-04-25T10:12:00.7Z</time></trkpt><trkpt lat="45.286525" lon="7.6579033"><ele>279.0</ele><time>2026-04-25T10:12:01.7Z</time></trkpt><trkpt lat="45.28658" lon="7.6576633"><ele>279.3333333333333</ele><time>2026-04-25T10:12:02.7Z</time></trkpt><trkpt lat="45.286635" lon="7.6574317"><ele>279.66666666666663</ele><time>2026-04-25T10:12:03.7Z</time></trkpt><trkpt lat="45.2866617" lon="7.6571683"><ele>280.0</ele><time>2026-04-25T10:12:04.7Z</time></trkpt><trkpt lat="45.28667" lon="7.6569133"><ele>280.3333333333333</ele><time>2026-04-25T10:12:05.7Z</time></trkpt><trkpt lat="45.2866833" lon="7.6566767"><ele>280.6666666666667</ele><time>2026-04-25T10:12:06.7Z</time></trkpt><trkpt lat="45.2867" lon="7.656435"><ele>281.0</ele><time>2026-04-25T10:12:07.7Z</time></trkpt><trkpt lat="45.2867233" lon="7.6562017"><ele>280.75</ele><time>2026-04-25T10:12:08.7Z</time></trkpt><trkpt lat="45.28674" lon="7.6559833"><ele>280.5</ele><time>2026-04-25T10:12:09.7Z</time></trkpt><trkpt lat="45.2867717" lon="7.655795"><ele>280.25</ele><time>2026-04-25T10:12:10.7Z</time></trkpt><trkpt lat="45.2868117" lon="7.655625"><ele>280.0</ele><time>2026-04-25T10:12:11.7Z</time></trkpt><trkpt lat="45.286875" lon="7.65548"><ele>280.0</ele><time>2026-04-25T10:12:12.7Z</time></trkpt><trkpt lat="45.28697" lon="7.6553717"><ele>280.0</ele><time>2026-04-25T10:12:13.7Z</time></trkpt><trkpt lat="45.2870933" lon="7.6553183"><ele>280.0</ele><time>2026-04-25T10:12:14.7Z</time></trkpt><trkpt lat="45.2872383" lon="7.6553083"><ele>280.0</ele><time>2026-04-25T10:12:15.7Z</time></trkpt><trkpt lat="45.2873983" lon="7.6553333"><ele>279.66666666666663</ele><time>2026-04-25T10:12:16.7Z</time></trkpt><trkpt lat="45.28757" lon="7.6553617"><ele>279.3333333333333</ele><time>2026-04-25T10:12:17.7Z</time></trkpt><trkpt lat="45.2877433" lon="7.6553867"><ele>279.0</ele><time>2026-04-25T10:12:18.7Z</time></trkpt><trkpt lat="45.2879133" lon="7.655415"><ele>279.0</ele><time>2026-04-25T10:12:19.701Z</time></trkpt><trkpt lat="45.2880833" lon="7.6554417"><ele>279.0</ele><time>2026-04-25T10:12:20.7Z</time></trkpt><trkpt lat="45.2882533" lon="7.6554833"><ele>279.0</ele><time>2026-04-25T10:12:21.7Z</time></trkpt><trkpt lat="45.2884083" lon="7.6555133"><ele>279.75</ele><time>2026-04-25T10:12:22.7Z</time></trkpt><trkpt lat="45.288565" lon="7.6555433"><ele>280.5</ele><time>2026-04-25T10:12:23.7Z</time></trkpt><trkpt lat="45.28871" lon="7.6555633"><ele>281.25</ele><time>2026-04-25T10:12:24.7Z</time></trkpt><trkpt lat="45.28884" lon="7.6555883"><ele>282.0</ele><time>2026-04-25T10:12:25.7Z</time></trkpt><trkpt lat="45.2889733" lon="7.65561"><ele>282.0</ele><time>2026-04-25T10:12:26.7Z</time></trkpt><trkpt lat="45.2891133" lon="7.655635"><ele>282.0</ele><time>2026-04-25T10:12:27.7Z</time></trkpt><trkpt lat="45.2892517" lon="7.6556483"><ele>282.0</ele><time>2026-04-25T10:12:28.7Z</time></trkpt><trkpt lat="45.28939" lon="7.655665"><ele>282.0</ele><time>2026-04-25T10:12:29.7Z</time></trkpt><trkpt lat="45.2895333" lon="7.6556933"><ele>282.0</ele><time>2026-04-25T10:12:30.7Z</time></trkpt><trkpt lat="45.2896833" lon="7.6557217"><ele>282.0</ele><time>2026-04-25T10:12:31.7Z</time></trkpt><trkpt lat="45.28983" lon="7.655755"><ele>282.0</ele><time>2026-04-25T10:12:32.7Z</time></trkpt><trkpt lat="45.2899667" lon="7.655785"><ele>282.0</ele><time>2026-04-25T10:12:33.7Z</time></trkpt><trkpt lat="45.2900967" lon="7.655805"><ele>282.0</ele><time>2026-04-25T10:12:34.7Z</time></trkpt><trkpt lat="45.2902217" lon="7.65582"><ele>282.0</ele><time>2026-04-25T10:12:35.7Z</time></trkpt><trkpt lat="45.2903433" lon="7.65582"><ele>282.0</ele><time>2026-04-25T10:12:36.7Z</time></trkpt><trkpt lat="45.2904683" lon="7.65578"><ele>282.0</ele><time>2026-04-25T10:12:37.7Z</time></trkpt><trkpt lat="45.2905817" lon="7.6556867"><ele>283.25</ele><time>2026-04-25T10:12:38.7Z</time></trkpt><trkpt lat="45.290655" lon="7.6555317"><ele>284.5</ele><time>2026-04-25T10:12:39.7Z</time></trkpt><trkpt lat="45.290695" lon="7.6553433"><ele>285.75</ele><time>2026-04-25T10:12:40.7Z</time></trkpt><trkpt lat="45.2907017" lon="7.65513"><ele>287.0</ele><time>2026-04-25T10:12:41.7Z</time></trkpt><trkpt lat="45.2906983" lon="7.654915"><ele>287.25</ele><time>2026-04-25T10:12:42.7Z</time></trkpt><trkpt lat="45.2906933" lon="7.6547"><ele>287.5</ele><time>2026-04-25T10:12:43.7Z</time></trkpt><trkpt lat="45.2906983" lon="7.65449"><ele>287.75</ele><time>2026-04-25T10:12:44.7Z</time></trkpt><trkpt lat="45.2907067" lon="7.6542783"><ele>288.0</ele><time>2026-04-25T10:12:45.7Z</time></trkpt><trkpt lat="45.29071" lon="7.6540667"><ele>288.3333333333333</ele><time>2026-04-25T10:12:46.7Z</time></trkpt><trkpt lat="45.2907217" lon="7.6538517"><ele>288.66666666666663</ele><time>2026-04-25T10:12:47.701Z</time></trkpt><trkpt lat="45.2907283" lon="7.6536267"><ele>289.0</ele><time>2026-04-25T10:12:48.7Z</time></trkpt><trkpt lat="45.290735" lon="7.6534017"><ele>289.0</ele><time>2026-04-25T10:12:49.7Z</time></trkpt><trkpt lat="45.2907383" lon="7.653165"><ele>289.0</ele><time>2026-04-25T10:12:50.7Z</time></trkpt><trkpt lat="45.2907467" lon="7.6529167"><ele>289.0</ele><time>2026-04-25T10:12:51.7Z</time></trkpt><trkpt lat="45.29075" lon="7.65266"><ele>291.3333333333333</ele><time>2026-04-25T10:12:52.7Z</time></trkpt><trkpt lat="45.2907567" lon="7.6523967"><ele>293.6666666666667</ele><time>2026-04-25T10:12:53.7Z</time></trkpt><trkpt lat="45.2907683" lon="7.6521267"><ele>296.0</ele><time>2026-04-25T10:12:54.7Z</time></trkpt><trkpt lat="45.2907817" lon="7.651835"><ele>297.33333333333337</ele><time>2026-04-25T10:12:55.7Z</time></trkpt><trkpt lat="45.29079" lon="7.6515517"><ele>298.6666666666667</ele><time>2026-04-25T10:12:56.7Z</time></trkpt><trkpt lat="45.29079" lon="7.6512783"><ele>300.0</ele><time>2026-04-25T10:12:57.7Z</time></trkpt><trkpt lat="45.2907917" lon="7.6510117"><ele>301.6666666666667</ele><time>2026-04-25T10:12:58.7Z</time></trkpt><trkpt lat="45.2907867" lon="7.6507533"><ele>303.33333333333337</ele><time>2026-04-25T10:12:59.7Z</time></trkpt><trkpt lat="45.2907783" lon="7.6505117"><ele>305.0</ele><time>2026-04-25T10:13:00.7Z</time></trkpt><trkpt lat="45.2907667" lon="7.650275"><ele>305.6666666666667</ele><time>2026-04-25T10:13:01.7Z</time></trkpt><trkpt lat="45.2907517" lon="7.65005"><ele>306.3333333333333</ele><time>2026-04-25T10:13:02.7Z</time></trkpt><trkpt lat="45.2907383" lon="7.6498"><ele>307.0</ele><time>2026-04-25T10:13:03.7Z</time></trkpt><trkpt lat="45.2907283" lon="7.6495367"><ele>308.3333333333333</ele><time>2026-04-25T10:13:04.7Z</time></trkpt><trkpt lat="45.290735" lon="7.6492733"><ele>309.6666666666667</ele><time>2026-04-25T10:13:05.7Z</time></trkpt><trkpt lat="45.2907517" lon="7.649005"><ele>311.0</ele><time>2026-04-25T10:13:06.7Z</time></trkpt><trkpt lat="45.290765" lon="7.6487633"><ele>311.5</ele><time>2026-04-25T10:13:07.7Z</time></trkpt><trkpt lat="45.29078" lon="7.6485533"><ele>312.0</ele><time>2026-04-25T10:13:08.7Z</time></trkpt><trkpt lat="45.2907983" lon="7.648345"><ele>312.5</ele><time>2026-04-25T10:13:09.7Z</time></trkpt><trkpt lat="45.2908283" lon="7.6481433"><ele>313.0</ele><time>2026-04-25T10:13:10.7Z</time></trkpt><trkpt lat="45.2908783" lon="7.6479283"><ele>313.66666666666663</ele><time>2026-04-25T10:13:11.7Z</time></trkpt><trkpt lat="45.2909417" lon="7.6477083"><ele>314.3333333333333</ele><time>2026-04-25T10:13:12.7Z</time></trkpt><trkpt lat="45.29102" lon="7.6474967"><ele>315.0</ele><time>2026-04-25T10:13:13.7Z</time></trkpt><trkpt lat="45.2911083" lon="7.64728"><ele>315.0</ele><time>2026-04-25T10:13:14.7Z</time></trkpt><trkpt lat="45.2911983" lon="7.6470717"><ele>315.0</ele><time>2026-04-25T10:13:15.7Z</time></trkpt><trkpt lat="45.2912717" lon="7.646865"><ele>315.0</ele><time>2026-04-25T10:13:16.7Z</time></trkpt><trkpt lat="45.291335" lon="7.64668"><ele>314.6666666666667</ele><time>2026-04-25T10:13:17.7Z</time></trkpt><trkpt lat="45.29141" lon="7.6464867"><ele>314.33333333333337</ele><time>2026-04-25T10:13:18.7Z</time></trkpt><trkpt lat="45.291495" lon="7.6462933"><ele>314.0</ele><time>2026-04-25T10:13:19.7Z</time></trkpt><trkpt lat="45.291565" lon="7.64608"><ele>318.33333333333337</ele><time>2026-04-25T10:13:20.7Z</time></trkpt><trkpt lat="45.291645" lon="7.6458833"><ele>322.6666666666667</ele><time>2026-04-25T10:13:21.7Z</time></trkpt><trkpt lat="45.291715" lon="7.6457017"><ele>327.0</ele><time>2026-04-25T10:13:22.7Z</time></trkpt><trkpt lat="45.29179" lon="7.6455017"><ele>327.0</ele><time>2026-04-25T10:13:23.7Z</time></trkpt><trkpt lat="45.2918617" lon="7.6453167"><ele>327.0</ele><time>2026-04-25T10:13:24.701Z</time></trkpt><trkpt lat="45.291915" lon="7.6451083"><ele>327.0</ele><time>2026-04-25T10:13:25.7Z</time></trkpt><trkpt lat="45.29196" lon="7.6448933"><ele>327.6666666666667</ele><time>2026-04-25T10:13:26.7Z</time></trkpt><trkpt lat="45.2919917" lon="7.6446783"><ele>328.33333333333337</ele><time>2026-04-25T10:13:27.7Z</time></trkpt><trkpt lat="45.2920233" lon="7.64447"><ele>329.0</ele><time>2026-04-25T10:13:28.7Z</time></trkpt><trkpt lat="45.2920617" lon="7.644265"><ele>329.0</ele><time>2026-04-25T10:13:29.7Z</time></trkpt><trkpt lat="45.2920983" lon="7.6440567"><ele>329.0</ele><time>2026-04-25T10:13:30.7Z</time></trkpt><trkpt lat="45.2921417" lon="7.6438517"><ele>329.0</ele><time>2026-04-25T10:13:31.7Z</time></trkpt><trkpt lat="45.29218" lon="7.6436633"><ele>329.0</ele><time>2026-04-25T10:13:32.7Z</time></trkpt><trkpt lat="45.2922117" lon="7.6434633"><ele>330.0</ele><time>2026-04-25T10:13:33.7Z</time></trkpt><trkpt lat="45.29223" lon="7.6432517"><ele>331.0</ele><time>2026-04-25T10:13:34.7Z</time></trkpt><trkpt lat="45.292235" lon="7.6430333"><ele>332.0</ele><time>2026-04-25T10:13:35.7Z</time></trkpt><trkpt lat="45.29224" lon="7.642805"><ele>332.33333333333337</ele><time>2026-04-25T10:13:36.7Z</time></trkpt><trkpt lat="45.292235" lon="7.6425717"><ele>332.6666666666667</ele><time>2026-04-25T10:13:37.7Z</time></trkpt><trkpt lat="45.2922383" lon="7.6423417"><ele>333.0</ele><time>2026-04-25T10:13:38.7Z</time></trkpt><trkpt lat="45.29224" lon="7.6421283"><ele>334.0</ele><time>2026-04-25T10:13:39.7Z</time></trkpt><trkpt lat="45.2922333" lon="7.64192"><ele>335.0</ele><time>2026-04-25T10:13:40.7Z</time></trkpt><trkpt lat="45.2922317" lon="7.6417017"><ele>336.0</ele><time>2026-04-25T10:13:41.7Z</time></trkpt><trkpt lat="45.2922317" lon="7.6414717"><ele>336.0</ele><time>2026-04-25T10:13:42.7Z</time></trkpt><trkpt lat="45.2922333" lon="7.6412467"><ele>336.0</ele><time>2026-04-25T10:13:43.7Z</time></trkpt><trkpt lat="45.2922317" lon="7.6410333"><ele>336.0</ele><time>2026-04-25T10:13:44.7Z</time></trkpt><trkpt lat="45.29222" lon="7.6408067"><ele>337.0</ele><time>2026-04-25T10:13:45.7Z</time></trkpt><trkpt lat="45.292205" lon="7.6405767"><ele>338.0</ele><time>2026-04-25T10:13:46.7Z</time></trkpt><trkpt lat="45.2921917" lon="7.640355"><ele>339.0</ele><time>2026-04-25T10:13:47.7Z</time></trkpt><trkpt lat="45.2921783" lon="7.6401117"><ele>339.3333333333333</ele><time>2026-04-25T10:13:48.7Z</time></trkpt><trkpt lat="45.29216" lon="7.639875"><ele>339.66666666666663</ele><time>2026-04-25T10:13:49.7Z</time></trkpt><trkpt lat="45.2921583" lon="7.639645"><ele>340.0</ele><time>2026-04-25T10:13:50.7Z</time></trkpt><trkpt lat="45.2921517" lon="7.639415"><ele>340.0</ele><time>2026-04-25T10:13:51.7Z</time></trkpt><trkpt lat="45.2921383" lon="7.6392067"><ele>340.0</ele><time>2026-04-25T10:13:52.7Z</time></trkpt><trkpt lat="45.29212" lon="7.6390033"><ele>340.0</ele><time>2026-04-25T10:13:53.7Z</time></trkpt><trkpt lat="45.2920983" lon="7.6387917"><ele>340.0</ele><time>2026-04-25T10:13:54.7Z</time></trkpt><trkpt lat="45.2920817" lon="7.6385833"><ele>340.25</ele><time>2026-04-25T10:13:55.7Z</time></trkpt><trkpt lat="45.29206" lon="7.6383767"><ele>340.5</ele><time>2026-04-25T10:13:56.7Z</time></trkpt><trkpt lat="45.2920417" lon="7.6381683"><ele>340.75</ele><time>2026-04-25T10:13:57.7Z</time></trkpt><trkpt lat="45.2920267" lon="7.6379667"><ele>341.0</ele><time>2026-04-25T10:13:58.7Z</time></trkpt><trkpt lat="45.292" lon="7.6377733"><ele>341.75</ele><time>2026-04-25T10:13:59.7Z</time></trkpt><trkpt lat="45.2919867" lon="7.6375867"><ele>342.5</ele><time>2026-04-25T10:14:00.7Z</time></trkpt><trkpt lat="45.2919683" lon="7.63742"><ele>343.25</ele><time>2026-04-25T10:14:01.701Z</time></trkpt><trkpt lat="45.29195" lon="7.6372533"><ele>344.0</ele><time>2026-04-25T10:14:02.7Z</time></trkpt><trkpt lat="45.291935" lon="7.6370967"><ele>344.0</ele><time>2026-04-25T10:14:03.7Z</time></trkpt><trkpt lat="45.2919167" lon="7.6369533"><ele>344.0</ele><time>2026-04-25T10:14:04.7Z</time></trkpt><trkpt lat="45.291905" lon="7.6368267"><ele>344.0</ele><time>2026-04-25T10:14:05.7Z</time></trkpt><trkpt lat="45.2919017" lon="7.6367117"><ele>344.0</ele><time>2026-04-25T10:14:06.7Z</time></trkpt><trkpt lat="45.291905" lon="7.6366167"><ele>344.0</ele><time>2026-04-25T10:14:07.7Z</time></trkpt><trkpt lat="45.29192" lon="7.6365283"><ele>344.0</ele><time>2026-04-25T10:14:08.7Z</time></trkpt><trkpt lat="45.291945" lon="7.6363317"><ele>344.0</ele><time>2026-04-25T10:14:10.7Z</time></trkpt><trkpt lat="45.2919367" lon="7.63618"><ele>344.0</ele><time>2026-04-25T10:14:11.7Z</time></trkpt><trkpt lat="45.2919483" lon="7.6360233"><ele>344.0</ele><time>2026-04-25T10:14:12.7Z</time></trkpt><trkpt lat="45.2919817" lon="7.6358667"><ele>344.0</ele><time>2026-04-25T10:14:13.7Z</time></trkpt><trkpt lat="45.2920283" lon="7.6356833"><ele>344.0</ele><time>2026-04-25T10:14:14.701Z</time></trkpt><trkpt lat="45.292095" lon="7.6355017"><ele>344.0</ele><time>2026-04-25T10:14:15.7Z</time></trkpt><trkpt lat="45.292165" lon="7.635325"><ele>344.0</ele><time>2026-04-25T10:14:16.701Z</time></trkpt><trkpt lat="45.2922417" lon="7.6351433"><ele>344.0</ele><time>2026-04-25T10:14:17.7Z</time></trkpt><trkpt lat="45.292315" lon="7.6349717"><ele>344.75</ele><time>2026-04-25T10:14:18.7Z</time></trkpt><trkpt lat="45.292395" lon="7.634785"><ele>345.5</ele><time>2026-04-25T10:14:19.7Z</time></trkpt><trkpt lat="45.2924683" lon="7.6346167"><ele>346.25</ele><time>2026-04-25T10:14:20.7Z</time></trkpt><trkpt lat="45.2925317" lon="7.6344433"><ele>347.0</ele><time>2026-04-25T10:14:21.7Z</time></trkpt><trkpt lat="45.29259" lon="7.6342567"><ele>347.6666666666667</ele><time>2026-04-25T10:14:22.7Z</time></trkpt><trkpt lat="45.2926417" lon="7.634035"><ele>348.3333333333333</ele><time>2026-04-25T10:14:23.699Z</time></trkpt><trkpt lat="45.2926817" lon="7.6338067"><ele>349.0</ele><time>2026-04-25T10:14:24.699Z</time></trkpt><trkpt lat="45.2927083" lon="7.6335483"><ele>349.3333333333333</ele><time>2026-04-25T10:14:25.699Z</time></trkpt><trkpt lat="45.29273" lon="7.6332967"><ele>349.6666666666667</ele><time>2026-04-25T10:14:26.699Z</time></trkpt><trkpt lat="45.2927583" lon="7.63306"><ele>350.0</ele><time>2026-04-25T10:14:27.699Z</time></trkpt><trkpt lat="45.29279" lon="7.6328233"><ele>350.33333333333337</ele><time>2026-04-25T10:14:28.699Z</time></trkpt><trkpt lat="45.2928167" lon="7.632595"><ele>350.6666666666667</ele><time>2026-04-25T10:14:29.699Z</time></trkpt><trkpt lat="45.292845" lon="7.6323617"><ele>351.0</ele><time>2026-04-25T10:14:30.699Z</time></trkpt><trkpt lat="45.2928733" lon="7.6321217"><ele>350.6666666666667</ele><time>2026-04-25T10:14:31.699Z</time></trkpt><trkpt lat="45.292905" lon="7.6318633"><ele>350.33333333333337</ele><time>2026-04-25T10:14:32.699Z</time></trkpt><trkpt lat="45.292915" lon="7.6316517"><ele>350.0</ele><time>2026-04-25T10:14:33.699Z</time></trkpt><trkpt lat="45.2929367" lon="7.6314433"><ele>350.0</ele><time>2026-04-25T10:14:34.699Z</time></trkpt><trkpt lat="45.2929567" lon="7.6312267"><ele>350.0</ele><time>2026-04-25T10:14:35.699Z</time></trkpt><trkpt lat="45.29298" lon="7.63103"><ele>350.0</ele><time>2026-04-25T10:14:36.699Z</time></trkpt><trkpt lat="45.2929983" lon="7.6308517"><ele>350.0</ele><time>2026-04-25T10:14:37.699Z</time></trkpt><trkpt lat="45.2930117" lon="7.630695"><ele>350.0</ele><time>2026-04-25T10:14:38.699Z</time></trkpt><trkpt lat="45.293035" lon="7.6305567"><ele>350.0</ele><time>2026-04-25T10:14:39.699Z</time></trkpt><trkpt lat="45.29305" lon="7.63043"><ele>350.0</ele><time>2026-04-25T10:14:40.699Z</time></trkpt><trkpt lat="45.2930783" lon="7.6303367"><ele>350.0</ele><time>2026-04-25T10:14:41.699Z</time></trkpt><trkpt lat="45.293125" lon="7.6302633"><ele>350.0</ele><time>2026-04-25T10:14:42.699Z</time></trkpt><trkpt lat="45.293185" lon="7.63022"><ele>350.0</ele><time>2026-04-25T10:14:43.7Z</time></trkpt><trkpt lat="45.2932617" lon="7.6301883"><ele>349.5</ele><time>2026-04-25T10:14:44.699Z</time></trkpt><trkpt lat="45.2933617" lon="7.6301767"><ele>349.0</ele><time>2026-04-25T10:14:45.699Z</time></trkpt><trkpt lat="45.2934967" lon="7.630195"><ele>348.5</ele><time>2026-04-25T10:14:46.699Z</time></trkpt><trkpt lat="45.2936683" lon="7.6302517"><ele>348.0</ele><time>2026-04-25T10:14:47.699Z</time></trkpt><trkpt lat="45.2938317" lon="7.6303017"><ele>347.6666666666667</ele><time>2026-04-25T10:14:48.699Z</time></trkpt><trkpt lat="45.2939867" lon="7.6303283"><ele>347.33333333333337</ele><time>2026-04-25T10:14:49.699Z</time></trkpt><trkpt lat="45.2941417" lon="7.6303033"><ele>347.0</ele><time>2026-04-25T10:14:50.699Z</time></trkpt><trkpt lat="45.294285" lon="7.630285"><ele>347.25</ele><time>2026-04-25T10:14:51.699Z</time></trkpt><trkpt lat="45.2944233" lon="7.6302633"><ele>347.5</ele><time>2026-04-25T10:14:52.699Z</time></trkpt><trkpt lat="45.29455" lon="7.6302633"><ele>347.75</ele><time>2026-04-25T10:14:53.699Z</time></trkpt><trkpt lat="45.2946683" lon="7.6302617"><ele>348.0</ele><time>2026-04-25T10:14:54.699Z</time></trkpt><trkpt lat="45.2947933" lon="7.630265"><ele>348.0</ele><time>2026-04-25T10:14:55.699Z</time></trkpt><trkpt lat="45.29493" lon="7.6302367"><ele>348.0</ele><time>2026-04-25T10:14:56.699Z</time></trkpt><trkpt lat="45.2950567" lon="7.630165"><ele>348.0</ele><time>2026-04-25T10:14:57.699Z</time></trkpt><trkpt lat="45.29517" lon="7.6300683"><ele>348.0</ele><time>2026-04-25T10:14:58.699Z</time></trkpt><trkpt lat="45.2952667" lon="7.6299283"><ele>348.0</ele><time>2026-04-25T10:14:59.699Z</time></trkpt><trkpt lat="45.2953367" lon="7.6297783"><ele>348.0</ele><time>2026-04-25T10:15:00.699Z</time></trkpt><trkpt lat="45.2953817" lon="7.6295983"><ele>348.0</ele><time>2026-04-25T10:15:01.7Z</time></trkpt><trkpt lat="45.295395" lon="7.6293833"><ele>348.0</ele><time>2026-04-25T10:15:02.699Z</time></trkpt><trkpt lat="45.295395" lon="7.6291417"><ele>348.3333333333333</ele><time>2026-04-25T10:15:03.699Z</time></trkpt><trkpt lat="45.2953867" lon="7.6289167"><ele>348.66666666666663</ele><time>2026-04-25T10:15:04.699Z</time></trkpt><trkpt lat="45.2953833" lon="7.628695"><ele>349.0</ele><time>2026-04-25T10:15:05.699Z</time></trkpt><trkpt lat="45.29539" lon="7.6284783"><ele>349.0</ele><time>2026-04-25T10:15:06.699Z</time></trkpt><trkpt lat="45.29539" lon="7.6282617"><ele>349.0</ele><time>2026-04-25T10:15:07.7Z</time></trkpt><trkpt lat="45.2953883" lon="7.6280383"><ele>349.0</ele><time>2026-04-25T10:15:08.699Z</time></trkpt><trkpt lat="45.295405" lon="7.6278117"><ele>347.3333333333333</ele><time>2026-04-25T10:15:09.699Z</time></trkpt><trkpt lat="45.2954367" lon="7.6275817"><ele>345.6666666666667</ele><time>2026-04-25T10:15:10.699Z</time></trkpt><trkpt lat="45.2954667" lon="7.6273467"><ele>344.0</ele><time>2026-04-25T10:15:11.699Z</time></trkpt><trkpt lat="45.29552" lon="7.6271083"><ele>338.6666666666667</ele><time>2026-04-25T10:15:12.699Z</time></trkpt><trkpt lat="45.295595" lon="7.6268717"><ele>333.3333333333333</ele><time>2026-04-25T10:15:13.699Z</time></trkpt><trkpt lat="45.29569" lon="7.6266483"><ele>328.0</ele><time>2026-04-25T10:15:14.699Z</time></trkpt><trkpt lat="45.2957767" lon="7.6264483"><ele>328.0</ele><time>2026-04-25T10:15:15.7Z</time></trkpt><trkpt lat="45.2958617" lon="7.6262683"><ele>328.0</ele><time>2026-04-25T10:15:16.699Z</time></trkpt><trkpt lat="45.29595" lon="7.6260717"><ele>328.0</ele><time>2026-04-25T10:15:17.699Z</time></trkpt><trkpt lat="45.2960367" lon="7.6258567"><ele>328.66666666666663</ele><time>2026-04-25T10:15:18.699Z</time></trkpt><trkpt lat="45.2961133" lon="7.6256667"><ele>329.3333333333333</ele><time>2026-04-25T10:15:19.699Z</time></trkpt><trkpt lat="45.2962017" lon="7.6254917"><ele>330.0</ele><time>2026-04-25T10:15:20.699Z</time></trkpt><trkpt lat="45.2962967" lon="7.6253"><ele>330.3333333333333</ele><time>2026-04-25T10:15:21.699Z</time></trkpt><trkpt lat="45.2963867" lon="7.6251083"><ele>330.66666666666663</ele><time>2026-04-25T10:15:22.699Z</time></trkpt><trkpt lat="45.2964717" lon="7.6249133"><ele>331.0</ele><time>2026-04-25T10:15:23.699Z</time></trkpt><trkpt lat="45.2965633" lon="7.6247233"><ele>330.0</ele><time>2026-04-25T10:15:24.699Z</time></trkpt><trkpt lat="45.2966583" lon="7.6245217"><ele>329.0</ele><time>2026-04-25T10:15:25.699Z</time></trkpt><trkpt lat="45.2967567" lon="7.624325"><ele>328.0</ele><time>2026-04-25T10:15:26.699Z</time></trkpt><trkpt lat="45.2968567" lon="7.6241067"><ele>328.0</ele><time>2026-04-25T10:15:27.699Z</time></trkpt><trkpt lat="45.296955" lon="7.62389"><ele>328.0</ele><time>2026-04-25T10:15:28.699Z</time></trkpt><trkpt lat="45.29706" lon="7.6236783"><ele>328.0</ele><time>2026-04-25T10:15:29.699Z</time></trkpt><trkpt lat="45.2971533" lon="7.6234617"><ele>328.66666666666663</ele><time>2026-04-25T10:15:30.699Z</time></trkpt><trkpt lat="45.2972433" lon="7.623255"><ele>329.3333333333333</ele><time>2026-04-25T10:15:31.699Z</time></trkpt><trkpt lat="45.297325" lon="7.6230517"><ele>330.0</ele><time>2026-04-25T10:15:32.699Z</time></trkpt><trkpt lat="45.2973983" lon="7.62285"><ele>330.6666666666667</ele><time>2026-04-25T10:15:33.699Z</time></trkpt><trkpt lat="45.2974683" lon="7.6226467"><ele>331.33333333333337</ele><time>2026-04-25T10:15:34.699Z</time></trkpt><trkpt lat="45.29754" lon="7.62244"><ele>332.0</ele><time>2026-04-25T10:15:35.699Z</time></trkpt><trkpt lat="45.2976167" lon="7.6222267"><ele>332.0</ele><time>2026-04-25T10:15:36.699Z</time></trkpt><trkpt lat="45.2976883" lon="7.621995"><ele>332.0</ele><time>2026-04-25T10:15:37.699Z</time></trkpt><trkpt lat="45.2977617" lon="7.6217533"><ele>332.0</ele><time>2026-04-25T10:15:38.699Z</time></trkpt><trkpt lat="45.2978333" lon="7.6215217"><ele>332.33333333333337</ele><time>2026-04-25T10:15:39.699Z</time></trkpt><trkpt lat="45.2979" lon="7.6213017"><ele>332.6666666666667</ele><time>2026-04-25T10:15:40.699Z</time></trkpt><trkpt lat="45.2979583" lon="7.6210983"><ele>333.0</ele><time>2026-04-25T10:15:41.699Z</time></trkpt><trkpt lat="45.2980067" lon="7.62089"><ele>333.3333333333333</ele><time>2026-04-25T10:15:42.699Z</time></trkpt><trkpt lat="45.2980433" lon="7.6206883"><ele>333.66666666666663</ele><time>2026-04-25T10:15:43.699Z</time></trkpt><trkpt lat="45.2980767" lon="7.620475"><ele>334.0</ele><time>2026-04-25T10:15:44.699Z</time></trkpt><trkpt lat="45.298105" lon="7.620265"><ele>334.0</ele><time>2026-04-25T10:15:45.699Z</time></trkpt><trkpt lat="45.298135" lon="7.6200583"><ele>334.0</ele><time>2026-04-25T10:15:46.699Z</time></trkpt><trkpt lat="45.298165" lon="7.6198383"><ele>334.0</ele><time>2026-04-25T10:15:47.7Z</time></trkpt><trkpt lat="45.298195" lon="7.6196183"><ele>335.3333333333333</ele><time>2026-04-25T10:15:48.699Z</time></trkpt><trkpt lat="45.2982383" lon="7.6193867"><ele>336.6666666666667</ele><time>2026-04-25T10:15:49.699Z</time></trkpt><trkpt lat="45.2982817" lon="7.6191683"><ele>338.0</ele><time>2026-04-25T10:15:50.7Z</time></trkpt><trkpt lat="45.2983183" lon="7.6189467"><ele>338.0</ele><time>2026-04-25T10:15:51.699Z</time></trkpt><trkpt lat="45.29835" lon="7.61873"><ele>338.0</ele><time>2026-04-25T10:15:52.699Z</time></trkpt><trkpt lat="45.2983783" lon="7.618535"><ele>338.0</ele><time>2026-04-25T10:15:53.699Z</time></trkpt><trkpt lat="45.2984067" lon="7.6183267"><ele>338.0</ele><time>2026-04-25T10:15:54.699Z</time></trkpt><trkpt lat="45.298435" lon="7.6181183"><ele>338.4</ele><time>2026-04-25T10:15:55.699Z</time></trkpt><trkpt lat="45.2984583" lon="7.6179283"><ele>338.79999999999995</ele><time>2026-04-25T10:15:56.699Z</time></trkpt><trkpt lat="45.29848" lon="7.6177583"><ele>339.2</ele><time>2026-04-25T10:15:57.699Z</time></trkpt><trkpt lat="45.2984967" lon="7.6176233"><ele>339.6</ele><time>2026-04-25T10:15:58.699Z</time></trkpt><trkpt lat="45.29851" lon="7.6174917"><ele>340.0</ele><time>2026-04-25T10:15:59.699Z</time></trkpt><trkpt lat="45.2985217" lon="7.6173483"><ele>340.25</ele><time>2026-04-25T10:16:00.699Z</time></trkpt><trkpt lat="45.29853" lon="7.61719"><ele>340.5</ele><time>2026-04-25T10:16:01.699Z</time></trkpt><trkpt lat="45.298535" lon="7.6170183"><ele>340.75</ele><time>2026-04-25T10:16:02.699Z</time></trkpt><trkpt lat="45.2985283" lon="7.61684"><ele>341.0</ele><time>2026-04-25T10:16:03.699Z</time></trkpt><trkpt lat="45.2985267" lon="7.61666"><ele>341.25</ele><time>2026-04-25T10:16:04.699Z</time></trkpt><trkpt lat="45.2985183" lon="7.6164817"><ele>341.5</ele><time>2026-04-25T10:16:05.699Z</time></trkpt><trkpt lat="45.2985133" lon="7.6162883"><ele>341.75</ele><time>2026-04-25T10:16:06.699Z</time></trkpt><trkpt lat="45.2985133" lon="7.6160917"><ele>342.0</ele><time>2026-04-25T10:16:07.699Z</time></trkpt><trkpt lat="45.2985083" lon="7.6158967"><ele>342.75</ele><time>2026-04-25T10:16:08.699Z</time></trkpt><trkpt lat="45.298505" lon="7.615705"><ele>343.5</ele><time>2026-04-25T10:16:09.699Z</time></trkpt><trkpt lat="45.2985017" lon="7.6155233"><ele>344.25</ele><time>2026-04-25T10:16:10.699Z</time></trkpt><trkpt lat="45.2985" lon="7.6153567"><ele>345.0</ele><time>2026-04-25T10:16:11.699Z</time></trkpt><trkpt lat="45.2985033" lon="7.6152"><ele>345.1666666666667</ele><time>2026-04-25T10:16:12.699Z</time></trkpt><trkpt lat="45.2985083" lon="7.6150567"><ele>345.3333333333333</ele><time>2026-04-25T10:16:13.699Z</time></trkpt><trkpt lat="45.2985067" lon="7.6149267"><ele>345.5</ele><time>2026-04-25T10:16:14.699Z</time></trkpt><trkpt lat="45.2985067" lon="7.614805"><ele>345.66666666666663</ele><time>2026-04-25T10:16:15.699Z</time></trkpt><trkpt lat="45.2985167" lon="7.614705"><ele>345.8333333333333</ele><time>2026-04-25T10:16:16.699Z</time></trkpt><trkpt lat="45.2985483" lon="7.6146267"><ele>346.0</ele><time>2026-04-25T10:16:17.699Z</time></trkpt><trkpt lat="45.2986017" lon="7.6145733"><ele>346.0</ele><time>2026-04-25T10:16:18.699Z</time></trkpt><trkpt lat="45.2986833" lon="7.6145517"><ele>346.0</ele><time>2026-04-25T10:16:19.699Z</time></trkpt><trkpt lat="45.2988133" lon="7.6145767"><ele>346.0</ele><time>2026-04-25T10:16:20.699Z</time></trkpt><trkpt lat="45.29898" lon="7.6146317"><ele>346.0</ele><time>2026-04-25T10:16:21.699Z</time></trkpt><trkpt lat="45.2991667" lon="7.6146883"><ele>345.0</ele><time>2026-04-25T10:16:22.699Z</time></trkpt><trkpt lat="45.2993667" lon="7.6147267"><ele>344.0</ele><time>2026-04-25T10:16:23.699Z</time></trkpt><trkpt lat="45.29957" lon="7.6147633"><ele>343.0</ele><time>2026-04-25T10:16:24.699Z</time></trkpt><trkpt lat="45.2997717" lon="7.6147967"><ele>341.66666666666663</ele><time>2026-04-25T10:16:25.7Z</time></trkpt><trkpt lat="45.299985" lon="7.6148267"><ele>340.3333333333333</ele><time>2026-04-25T10:16:26.699Z</time></trkpt><trkpt lat="45.30019" lon="7.6148617"><ele>339.0</ele><time>2026-04-25T10:16:27.7Z</time></trkpt><trkpt lat="45.3003967" lon="7.6148983"><ele>339.3333333333333</ele><time>2026-04-25T10:16:28.699Z</time></trkpt><trkpt lat="45.3006083" lon="7.61493"><ele>339.66666666666663</ele><time>2026-04-25T10:16:29.699Z</time></trkpt><trkpt lat="45.3008167" lon="7.614965"><ele>340.0</ele><time>2026-04-25T10:16:30.699Z</time></trkpt><trkpt lat="45.3010333" lon="7.615005"><ele>340.0</ele><time>2026-04-25T10:16:31.699Z</time></trkpt><trkpt lat="45.301245" lon="7.615045"><ele>340.0</ele><time>2026-04-25T10:16:32.699Z</time></trkpt><trkpt lat="45.3014533" lon="7.615075"><ele>340.0</ele><time>2026-04-25T10:16:33.699Z</time></trkpt><trkpt lat="45.3016683" lon="7.6150933"><ele>341.3333333333333</ele><time>2026-04-25T10:16:34.699Z</time></trkpt><trkpt lat="45.3018783" lon="7.6151133"><ele>342.6666666666667</ele><time>2026-04-25T10:16:35.699Z</time></trkpt><trkpt lat="45.302095" lon="7.6151167"><ele>344.0</ele><time>2026-04-25T10:16:36.699Z</time></trkpt><trkpt lat="45.3023083" lon="7.6151117"><ele>344.0</ele><time>2026-04-25T10:16:37.699Z</time></trkpt><trkpt lat="45.30252" lon="7.61511"><ele>344.0</ele><time>2026-04-25T10:16:38.699Z</time></trkpt><trkpt lat="45.3027233" lon="7.6151083"><ele>344.0</ele><time>2026-04-25T10:16:39.699Z</time></trkpt><trkpt lat="45.30293" lon="7.6150933"><ele>343.0</ele><time>2026-04-25T10:16:40.699Z</time></trkpt><trkpt lat="45.3031383" lon="7.61507"><ele>342.0</ele><time>2026-04-25T10:16:41.699Z</time></trkpt><trkpt lat="45.3033533" lon="7.615045"><ele>341.0</ele><time>2026-04-25T10:16:42.699Z</time></trkpt><trkpt lat="45.303565" lon="7.6150383"><ele>341.0</ele><time>2026-04-25T10:16:43.699Z</time></trkpt><trkpt lat="45.3037733" lon="7.615075"><ele>341.0</ele><time>2026-04-25T10:16:44.699Z</time></trkpt><trkpt lat="45.303985" lon="7.6151083"><ele>341.0</ele><time>2026-04-25T10:16:45.699Z</time></trkpt><trkpt lat="45.3041967" lon="7.6151367"><ele>341.6666666666667</ele><time>2026-04-25T10:16:46.699Z</time></trkpt><trkpt lat="45.304395" lon="7.6151683"><ele>342.3333333333333</ele><time>2026-04-25T10:16:47.699Z</time></trkpt><trkpt lat="45.3045867" lon="7.6152033"><ele>343.0</ele><time>2026-04-25T10:16:48.699Z</time></trkpt><trkpt lat="45.30477" lon="7.6152567"><ele>343.0</ele><time>2026-04-25T10:16:49.699Z</time></trkpt><trkpt lat="45.3049517" lon="7.6153183"><ele>343.0</ele><time>2026-04-25T10:16:50.699Z</time></trkpt><trkpt lat="45.30514" lon="7.6153933"><ele>343.0</ele><time>2026-04-25T10:16:51.699Z</time></trkpt><trkpt lat="45.30532" lon="7.61549"><ele>343.0</ele><time>2026-04-25T10:16:52.699Z</time></trkpt><trkpt lat="45.3055" lon="7.615585"><ele>343.0</ele><time>2026-04-25T10:16:53.699Z</time></trkpt><trkpt lat="45.3056583" lon="7.61567"><ele>343.0</ele><time>2026-04-25T10:16:54.699Z</time></trkpt><trkpt lat="45.3058383" lon="7.615725"><ele>343.0</ele><time>2026-04-25T10:16:55.699Z</time></trkpt><trkpt lat="45.3060333" lon="7.6157433"><ele>343.0</ele><time>2026-04-25T10:16:56.699Z</time></trkpt><trkpt lat="45.3062283" lon="7.6157233"><ele>343.0</ele><time>2026-04-25T10:16:57.699Z</time></trkpt><trkpt lat="45.3064217" lon="7.6156617"><ele>342.0</ele><time>2026-04-25T10:16:58.699Z</time></trkpt><trkpt lat="45.3066" lon="7.615605"><ele>341.0</ele><time>2026-04-25T10:16:59.699Z</time></trkpt><trkpt lat="45.30677" lon="7.615555"><ele>340.0</ele><time>2026-04-25T10:17:00.699Z</time></trkpt><trkpt lat="45.306945" lon="7.6155067"><ele>340.0</ele><time>2026-04-25T10:17:01.699Z</time></trkpt><trkpt lat="45.30711" lon="7.6154583"><ele>340.0</ele><time>2026-04-25T10:17:02.699Z</time></trkpt><trkpt lat="45.30727" lon="7.6153983"><ele>340.0</ele><time>2026-04-25T10:17:03.699Z</time></trkpt><trkpt lat="45.3074233" lon="7.6153217"><ele>341.3333333333333</ele><time>2026-04-25T10:17:04.699Z</time></trkpt><trkpt lat="45.307575" lon="7.6152083"><ele>342.6666666666667</ele><time>2026-04-25T10:17:05.699Z</time></trkpt><trkpt lat="45.307725" lon="7.61506"><ele>344.0</ele><time>2026-04-25T10:17:06.699Z</time></trkpt><trkpt lat="45.3078633" lon="7.61487"><ele>344.0</ele><time>2026-04-25T10:17:07.699Z</time></trkpt><trkpt lat="45.3080017" lon="7.6146733"><ele>344.0</ele><time>2026-04-25T10:17:08.699Z</time></trkpt><trkpt lat="45.3081467" lon="7.6144767"><ele>344.0</ele><time>2026-04-25T10:17:09.699Z</time></trkpt><trkpt lat="45.3083033" lon="7.614275"><ele>344.33333333333337</ele><time>2026-04-25T10:17:10.699Z</time></trkpt><trkpt lat="45.3084633" lon="7.6140717"><ele>344.6666666666667</ele><time>2026-04-25T10:17:11.699Z</time></trkpt><trkpt lat="45.30862" lon="7.6138617"><ele>345.0</ele><time>2026-04-25T10:17:12.699Z</time></trkpt><trkpt lat="45.3087783" lon="7.6136533"><ele>344.6666666666667</ele><time>2026-04-25T10:17:13.699Z</time></trkpt><trkpt lat="45.308925" lon="7.61345"><ele>344.33333333333337</ele><time>2026-04-25T10:17:14.699Z</time></trkpt><trkpt lat="45.3090633" lon="7.6132617"><ele>344.0</ele><time>2026-04-25T10:17:15.699Z</time></trkpt><trkpt lat="45.309195" lon="7.6130867"><ele>344.0</ele><time>2026-04-25T10:17:16.699Z</time></trkpt><trkpt lat="45.3093117" lon="7.6129217"><ele>344.0</ele><time>2026-04-25T10:17:17.699Z</time></trkpt><trkpt lat="45.3094383" lon="7.6127683"><ele>344.0</ele><time>2026-04-25T10:17:18.699Z</time></trkpt><trkpt lat="45.3095717" lon="7.6126233"><ele>344.0</ele><time>2026-04-25T10:17:19.699Z</time></trkpt><trkpt lat="45.309715" lon="7.6124783"><ele>344.0</ele><time>2026-04-25T10:17:20.699Z</time></trkpt><trkpt lat="45.3098683" lon="7.6123667"><ele>344.0</ele><time>2026-04-25T10:17:21.699Z</time></trkpt><trkpt lat="45.3100167" lon="7.6122767"><ele>344.0</ele><time>2026-04-25T10:17:22.699Z</time></trkpt><trkpt lat="45.3101717" lon="7.6121883"><ele>344.0</ele><time>2026-04-25T10:17:23.699Z</time></trkpt><trkpt lat="45.310325" lon="7.6121133"><ele>344.0</ele><time>2026-04-25T10:17:24.699Z</time></trkpt><trkpt lat="45.310475" lon="7.6120583"><ele>343.6666666666667</ele><time>2026-04-25T10:17:25.699Z</time></trkpt><trkpt lat="45.310625" lon="7.61201"><ele>343.3333333333333</ele><time>2026-04-25T10:17:26.699Z</time></trkpt><trkpt lat="45.3107783" lon="7.6119667"><ele>343.0</ele><time>2026-04-25T10:17:27.699Z</time></trkpt><trkpt lat="45.3109333" lon="7.61193"><ele>343.3333333333333</ele><time>2026-04-25T10:17:28.699Z</time></trkpt><trkpt lat="45.311095" lon="7.6118817"><ele>343.6666666666667</ele><time>2026-04-25T10:17:29.7Z</time></trkpt><trkpt lat="45.3112633" lon="7.6118233"><ele>344.0</ele><time>2026-04-25T10:17:30.699Z</time></trkpt><trkpt lat="45.311435" lon="7.61176"><ele>344.0</ele><time>2026-04-25T10:17:31.699Z</time></trkpt><trkpt lat="45.3116033" lon="7.61169"><ele>344.0</ele><time>2026-04-25T10:17:32.699Z</time></trkpt><trkpt lat="45.3117583" lon="7.611605"><ele>344.0</ele><time>2026-04-25T10:17:33.699Z</time></trkpt><trkpt lat="45.3119033" lon="7.6115117"><ele>344.0</ele><time>2026-04-25T10:17:34.7Z</time></trkpt><trkpt lat="45.3120483" lon="7.6114267"><ele>344.0</ele><time>2026-04-25T10:17:35.699Z</time></trkpt><trkpt lat="45.312185" lon="7.6113367"><ele>344.0</ele><time>2026-04-25T10:17:36.699Z</time></trkpt><trkpt lat="45.3123267" lon="7.6112683"><ele>344.25</ele><time>2026-04-25T10:17:37.699Z</time></trkpt><trkpt lat="45.3124667" lon="7.6112133"><ele>344.5</ele><time>2026-04-25T10:17:38.699Z</time></trkpt><trkpt lat="45.3125983" lon="7.6111983"><ele>344.75</ele><time>2026-04-25T10:17:39.699Z</time></trkpt><trkpt lat="45.3127283" lon="7.6111867"><ele>345.0</ele><time>2026-04-25T10:17:40.699Z</time></trkpt><trkpt lat="45.3128517" lon="7.611185"><ele>345.0</ele><time>2026-04-25T10:17:41.699Z</time></trkpt><trkpt lat="45.3129683" lon="7.611185"><ele>345.0</ele><time>2026-04-25T10:17:42.699Z</time></trkpt><trkpt lat="45.31308" lon="7.6111617"><ele>345.0</ele><time>2026-04-25T10:17:43.699Z</time></trkpt><trkpt lat="45.313185" lon="7.6111033"><ele>345.0</ele><time>2026-04-25T10:17:44.699Z</time></trkpt><trkpt lat="45.3132783" lon="7.61101"><ele>345.25</ele><time>2026-04-25T10:17:45.699Z</time></trkpt><trkpt lat="45.3133667" lon="7.6108683"><ele>345.5</ele><time>2026-04-25T10:17:46.699Z</time></trkpt><trkpt lat="45.3134483" lon="7.6107233"><ele>345.75</ele><time>2026-04-25T10:17:47.699Z</time></trkpt><trkpt lat="45.3135233" lon="7.6105667"><ele>346.0</ele><time>2026-04-25T10:17:48.699Z</time></trkpt><trkpt lat="45.3136033" lon="7.610435"><ele>346.0</ele><time>2026-04-25T10:17:49.699Z</time></trkpt><trkpt lat="45.3136967" lon="7.6103217"><ele>346.0</ele><time>2026-04-25T10:17:50.699Z</time></trkpt><trkpt lat="45.313795" lon="7.6102467"><ele>346.0</ele><time>2026-04-25T10:17:51.699Z</time></trkpt><trkpt lat="45.3139" lon="7.6101867"><ele>346.0</ele><time>2026-04-25T10:17:52.699Z</time></trkpt><trkpt lat="45.3139967" lon="7.6101367"><ele>346.0</ele><time>2026-04-25T10:17:53.699Z</time></trkpt><trkpt lat="45.3140867" lon="7.6100883"><ele>346.0</ele><time>2026-04-25T10:17:54.699Z</time></trkpt><trkpt lat="45.3141633" lon="7.6100583"><ele>346.0</ele><time>2026-04-25T10:17:55.699Z</time></trkpt><trkpt lat="45.3142467" lon="7.6100283"><ele>346.0</ele><time>2026-04-25T10:17:57.699Z</time></trkpt><trkpt lat="45.31437" lon="7.6100183"><ele>346.0</ele><time>2026-04-25T10:17:59.699Z</time></trkpt><trkpt lat="45.31447" lon="7.610005"><ele>346.0</ele><time>2026-04-25T10:18:00.699Z</time></trkpt><trkpt lat="45.314585" lon="7.609975"><ele>346.0</ele><time>2026-04-25T10:18:01.699Z</time></trkpt><trkpt lat="45.3147083" lon="7.609935"><ele>346.0</ele><time>2026-04-25T10:18:02.699Z</time></trkpt><trkpt lat="45.3148383" lon="7.6098967"><ele>346.0</ele><time>2026-04-25T10:18:03.699Z</time></trkpt><trkpt lat="45.314975" lon="7.6098383"><ele>345.75</ele><time>2026-04-25T10:18:04.699Z</time></trkpt><trkpt lat="45.31511" lon="7.6097733"><ele>345.5</ele><time>2026-04-25T10:18:05.699Z</time></trkpt><trkpt lat="45.3152383" lon="7.60972"><ele>345.25</ele><time>2026-04-25T10:18:06.699Z</time></trkpt><trkpt lat="45.31537" lon="7.6096667"><ele>345.0</ele><time>2026-04-25T10:18:07.699Z</time></trkpt><trkpt lat="45.3155" lon="7.6096017"><ele>344.75</ele><time>2026-04-25T10:18:08.699Z</time></trkpt><trkpt lat="45.3156317" lon="7.6095317"><ele>344.5</ele><time>2026-04-25T10:18:09.699Z</time></trkpt><trkpt lat="45.3157583" lon="7.60947"><ele>344.25</ele><time>2026-04-25T10:18:10.699Z</time></trkpt><trkpt lat="45.3158817" lon="7.6094"><ele>344.0</ele><time>2026-04-25T10:18:11.699Z</time></trkpt><trkpt lat="45.316005" lon="7.609335"><ele>344.75</ele><time>2026-04-25T10:18:12.699Z</time></trkpt><trkpt lat="45.3161317" lon="7.60927"><ele>345.5</ele><time>2026-04-25T10:18:13.699Z</time></trkpt><trkpt lat="45.316265" lon="7.6092133"><ele>346.25</ele><time>2026-04-25T10:18:14.699Z</time></trkpt><trkpt lat="45.3164" lon="7.6091533"><ele>347.0</ele><time>2026-04-25T10:18:15.699Z</time></trkpt><trkpt lat="45.3165267" lon="7.6090917"><ele>347.5</ele><time>2026-04-25T10:18:16.699Z</time></trkpt><trkpt lat="45.3166483" lon="7.6090367"><ele>348.0</ele><time>2026-04-25T10:18:17.699Z</time></trkpt><trkpt lat="45.316775" lon="7.60898"><ele>348.5</ele><time>2026-04-25T10:18:18.699Z</time></trkpt><trkpt lat="45.3168833" lon="7.6089183"><ele>349.0</ele><time>2026-04-25T10:18:19.699Z</time></trkpt><trkpt lat="45.316985" lon="7.6088683"><ele>349.0</ele><time>2026-04-25T10:18:20.699Z</time></trkpt><trkpt lat="45.3170883" lon="7.6088217"><ele>349.0</ele><time>2026-04-25T10:18:21.699Z</time></trkpt><trkpt lat="45.3171783" lon="7.60876"><ele>349.0</ele><time>2026-04-25T10:18:22.699Z</time></trkpt><trkpt lat="45.3172633" lon="7.60868"><ele>349.0</ele><time>2026-04-25T10:18:23.699Z</time></trkpt><trkpt lat="45.31734" lon="7.6085867"><ele>349.0</ele><time>2026-04-25T10:18:24.699Z</time></trkpt><trkpt lat="45.3174" lon="7.6084817"><ele>349.3333333333333</ele><time>2026-04-25T10:18:25.7Z</time></trkpt><trkpt lat="45.31745" lon="7.6083867"><ele>349.66666666666663</ele><time>2026-04-25T10:18:26.699Z</time></trkpt><trkpt lat="45.3174917" lon="7.6083167"><ele>350.0</ele><time>2026-04-25T10:18:27.699Z</time></trkpt><trkpt lat="45.3175583" lon="7.6081983"><ele>350.3333333333333</ele><time>2026-04-25T10:18:29.699Z</time></trkpt><trkpt lat="45.3176167" lon="7.6081133"><ele>350.6666666666667</ele><time>2026-04-25T10:18:30.699Z</time></trkpt><trkpt lat="45.3176783" lon="7.60801"><ele>351.0</ele><time>2026-04-25T10:18:31.7Z</time></trkpt><trkpt lat="45.3177383" lon="7.607915"><ele>351.4</ele><time>2026-04-25T10:18:32.699Z</time></trkpt><trkpt lat="45.31781" lon="7.6078217"><ele>351.8</ele><time>2026-04-25T10:18:33.699Z</time></trkpt><trkpt lat="45.31788" lon="7.6077417"><ele>352.2</ele><time>2026-04-25T10:18:34.699Z</time></trkpt><trkpt lat="45.317955" lon="7.6076483"><ele>352.59999999999997</ele><time>2026-04-25T10:18:35.699Z</time></trkpt><trkpt lat="45.3180233" lon="7.6075683"><ele>353.0</ele><time>2026-04-25T10:18:36.699Z</time></trkpt><trkpt lat="45.3181033" lon="7.6074817"><ele>353.4</ele><time>2026-04-25T10:18:37.699Z</time></trkpt><trkpt lat="45.318185" lon="7.607395"><ele>353.79999999999995</ele><time>2026-04-25T10:18:38.699Z</time></trkpt><trkpt lat="45.3182567" lon="7.6073233"><ele>354.2</ele><time>2026-04-25T10:18:39.699Z</time></trkpt><trkpt lat="45.3183183" lon="7.6072483"><ele>354.6</ele><time>2026-04-25T10:18:40.699Z</time></trkpt><trkpt lat="45.3183817" lon="7.607185"><ele>355.0</ele><time>2026-04-25T10:18:41.699Z</time></trkpt><trkpt lat="45.31848" lon="7.6070917"><ele>355.0</ele><time>2026-04-25T10:18:43.699Z</time></trkpt><trkpt lat="45.3185367" lon="7.60704"><ele>355.0</ele><time>2026-04-25T10:18:44.699Z</time></trkpt><trkpt lat="45.3185883" lon="7.6069733"><ele>355.0</ele><time>2026-04-25T10:18:45.699Z</time></trkpt><trkpt lat="45.3186533" lon="7.6069067"><ele>355.0</ele><time>2026-04-25T10:18:46.699Z</time></trkpt><trkpt lat="45.318725" lon="7.60685"><ele>355.0</ele><time>2026-04-25T10:18:47.699Z</time></trkpt><trkpt lat="45.3187933" lon="7.60679"><ele>355.0</ele><time>2026-04-25T10:18:48.699Z</time></trkpt><trkpt lat="45.318855" lon="7.6067283"><ele>355.5</ele><time>2026-04-25T10:18:49.699Z</time></trkpt><trkpt lat="45.318925" lon="7.6066933"><ele>356.0</ele><time>2026-04-25T10:18:50.699Z</time></trkpt><trkpt lat="45.3189933" lon="7.6066433"><ele>356.5</ele><time>2026-04-25T10:18:51.699Z</time></trkpt><trkpt lat="45.3190567" lon="7.60659"><ele>357.0</ele><time>2026-04-25T10:18:52.699Z</time></trkpt><trkpt lat="45.3191317" lon="7.606525"><ele>357.5</ele><time>2026-04-25T10:18:53.699Z</time></trkpt><trkpt lat="45.319205" lon="7.6064583"><ele>358.0</ele><time>2026-04-25T10:18:54.699Z</time></trkpt><trkpt lat="45.319285" lon="7.6064117"><ele>358.0</ele><time>2026-04-25T10:18:55.699Z</time></trkpt><trkpt lat="45.319355" lon="7.6063433"><ele>358.0</ele><time>2026-04-25T10:18:56.699Z</time></trkpt><trkpt lat="45.3194233" lon="7.6062633"><ele>358.0</ele><time>2026-04-25T10:18:57.699Z</time></trkpt><trkpt lat="45.3194867" lon="7.606185"><ele>358.0</ele><time>2026-04-25T10:18:58.699Z</time></trkpt><trkpt lat="45.31954" lon="7.6061267"><ele>358.0</ele><time>2026-04-25T10:18:59.699Z</time></trkpt><trkpt lat="45.3195867" lon="7.6060567"><ele>358.0</ele><time>2026-04-25T10:19:00.699Z</time></trkpt><trkpt lat="45.319625" lon="7.605955"><ele>358.2</ele><time>2026-04-25T10:19:01.699Z</time></trkpt><trkpt lat="45.3196583" lon="7.60584"><ele>358.4</ele><time>2026-04-25T10:19:02.699Z</time></trkpt><trkpt lat="45.3196817" lon="7.6057267"><ele>358.59999999999997</ele><time>2026-04-25T10:19:03.699Z</time></trkpt><trkpt lat="45.3197067" lon="7.6056233"><ele>358.79999999999995</ele><time>2026-04-25T10:19:04.7Z</time></trkpt><trkpt lat="45.3197617" lon="7.6055017"><ele>359.0</ele><time>2026-04-25T10:19:05.699Z</time></trkpt><trkpt lat="45.3198533" lon="7.60536"><ele>359.5</ele><time>2026-04-25T10:19:06.699Z</time></trkpt><trkpt lat="45.3199433" lon="7.6052217"><ele>360.0</ele><time>2026-04-25T10:19:07.699Z</time></trkpt><trkpt lat="45.320025" lon="7.6050883"><ele>360.5</ele><time>2026-04-25T10:19:08.699Z</time></trkpt><trkpt lat="45.3201" lon="7.604985"><ele>361.0</ele><time>2026-04-25T10:19:09.699Z</time></trkpt><trkpt lat="45.320165" lon="7.6048867"><ele>361.0</ele><time>2026-04-25T10:19:10.699Z</time></trkpt><trkpt lat="45.3202217" lon="7.6047883"><ele>361.0</ele><time>2026-04-25T10:19:11.699Z</time></trkpt><trkpt lat="45.32028" lon="7.604715"><ele>361.0</ele><time>2026-04-25T10:19:12.699Z</time></trkpt><trkpt lat="45.32034" lon="7.6046233"><ele>361.0</ele><time>2026-04-25T10:19:13.699Z</time></trkpt><trkpt lat="45.3204017" lon="7.60453"><ele>361.0</ele><time>2026-04-25T10:19:14.699Z</time></trkpt><trkpt lat="45.3204683" lon="7.60446"><ele>361.0</ele><time>2026-04-25T10:19:15.699Z</time></trkpt><trkpt lat="45.3205217" lon="7.60438"><ele>362.0</ele><time>2026-04-25T10:19:16.699Z</time></trkpt><trkpt lat="45.3205967" lon="7.6042633"><ele>363.0</ele><time>2026-04-25T10:19:18.699Z</time></trkpt><trkpt lat="45.3206283" lon="7.604165"><ele>364.0</ele><time>2026-04-25T10:19:21.699Z</time></trkpt><trkpt lat="45.3205783" lon="7.6041067"><ele>365.0</ele><time>2026-04-25T10:19:51.699Z</time></trkpt><trkpt lat="45.3206633" lon="7.6041267"><ele>366.0</ele><time>2026-04-25T10:19:55.699Z</time></trkpt><trkpt lat="45.3207467" lon="7.604005"><ele>366.0</ele><time>2026-04-25T10:19:57.699Z</time></trkpt><trkpt lat="45.3208117" lon="7.6038783"><ele>366.0</ele><time>2026-04-25T10:19:59.699Z</time></trkpt><trkpt lat="45.3208533" lon="7.6037917"><ele>366.0</ele><time>2026-04-25T10:20:01.699Z</time></trkpt><trkpt lat="45.32091" lon="7.6036983"><ele>366.0</ele><time>2026-04-25T10:20:03.699Z</time></trkpt><trkpt lat="45.32096" lon="7.6036"><ele>366.0</ele><time>2026-04-25T10:20:05.699Z</time></trkpt><trkpt lat="45.3210083" lon="7.6035333"><ele>366.0</ele><time>2026-04-25T10:20:08.7Z</time></trkpt><trkpt lat="45.3209667" lon="7.6036533"><ele>366.0</ele><time>2026-04-25T10:20:19.699Z</time></trkpt><trkpt lat="45.3208883" lon="7.6037683"><ele>366.0</ele><time>2026-04-25T10:20:21.699Z</time></trkpt><trkpt lat="45.32083" lon="7.603835"><ele>366.0</ele><time>2026-04-25T10:20:23.699Z</time></trkpt><trkpt lat="45.32074" lon="7.603775"><ele>366.0</ele><time>2026-04-25T10:20:26.699Z</time></trkpt><trkpt lat="45.3206817" lon="7.6037"><ele>366.0</ele><time>2026-04-25T10:20:27.699Z</time></trkpt><trkpt lat="45.3206133" lon="7.6036267"><ele>366.6666666666667</ele><time>2026-04-25T10:20:28.699Z</time></trkpt><trkpt lat="45.320545" lon="7.60356"><ele>367.3333333333333</ele><time>2026-04-25T10:20:29.699Z</time></trkpt><trkpt lat="45.3204833" lon="7.6035067"><ele>368.0</ele><time>2026-04-25T10:20:30.699Z</time></trkpt><trkpt lat="45.3203983" lon="7.6034167"><ele>368.66666666666663</ele><time>2026-04-25T10:20:32.699Z</time></trkpt><trkpt lat="45.3204083" lon="7.60328"><ele>369.3333333333333</ele><time>2026-04-25T10:20:34.699Z</time></trkpt><trkpt lat="45.32043" lon="7.603195"><ele>370.0</ele><time>2026-04-25T10:20:35.699Z</time></trkpt><trkpt lat="45.32046" lon="7.603105"><ele>370.0</ele><time>2026-04-25T10:20:36.699Z</time></trkpt><trkpt lat="45.32051" lon="7.6029467"><ele>370.0</ele><time>2026-04-25T10:20:38.699Z</time></trkpt><trkpt lat="45.3205183" lon="7.602855"><ele>370.0</ele><time>2026-04-25T10:20:39.699Z</time></trkpt><trkpt lat="45.3205" lon="7.6027683"><ele>370.0</ele><time>2026-04-25T10:20:40.699Z</time></trkpt><trkpt lat="45.3204633" lon="7.6026817"><ele>370.0</ele><time>2026-04-25T10:20:41.699Z</time></trkpt><trkpt lat="45.3204033" lon="7.6025933"><ele>370.0</ele><time>2026-04-25T10:20:42.699Z</time></trkpt><trkpt lat="45.3203333" lon="7.60248"><ele>371.4</ele><time>2026-04-25T10:20:43.699Z</time></trkpt><trkpt lat="45.3202683" lon="7.6023717"><ele>372.8</ele><time>2026-04-25T10:20:44.699Z</time></trkpt><trkpt lat="45.32021" lon="7.6022667"><ele>374.20000000000005</ele><time>2026-04-25T10:20:45.699Z</time></trkpt><trkpt lat="45.32015" lon="7.602165"><ele>375.6</ele><time>2026-04-25T10:20:46.699Z</time></trkpt><trkpt lat="45.3200983" lon="7.6020683"><ele>377.0</ele><time>2026-04-25T10:20:47.699Z</time></trkpt><trkpt lat="45.32004" lon="7.60199"><ele>379.33333333333337</ele><time>2026-04-25T10:20:48.699Z</time></trkpt><trkpt lat="45.319985" lon="7.6019167"><ele>381.6666666666667</ele><time>2026-04-25T10:20:49.699Z</time></trkpt><trkpt lat="45.3199317" lon="7.6018367"><ele>384.0</ele><time>2026-04-25T10:20:50.699Z</time></trkpt><trkpt lat="45.319885" lon="7.601775"><ele>386.33333333333337</ele><time>2026-04-25T10:20:51.699Z</time></trkpt><trkpt lat="45.31984" lon="7.6016817"><ele>388.6666666666667</ele><time>2026-04-25T10:20:53.699Z</time></trkpt><trkpt lat="45.3198017" lon="7.6015983"><ele>391.0</ele><time>2026-04-25T10:20:55.699Z</time></trkpt><trkpt lat="45.3197083" lon="7.6015583"><ele>390.99999999999994</ele><time>2026-04-25T10:20:57.699Z</time></trkpt><trkpt lat="45.31963" lon="7.6015517"><ele>391.0</ele><time>2026-04-25T10:20:58.699Z</time></trkpt><trkpt lat="45.3195633" lon="7.6015533"><ele>391.0</ele><time>2026-04-25T10:20:59.699Z</time></trkpt><trkpt lat="45.319475" lon="7.6015417"><ele>391.0</ele><time>2026-04-25T10:21:01.699Z</time></trkpt><trkpt lat="45.319455" lon="7.6014567"><ele>391.0</ele><time>2026-04-25T10:21:03.699Z</time></trkpt><trkpt lat="45.319525" lon="7.601405"><ele>390.99999999999994</ele><time>2026-04-25T10:21:05.699Z</time></trkpt><trkpt lat="45.3195967" lon="7.6014033"><ele>391.0</ele><time>2026-04-25T10:21:06.699Z</time></trkpt><trkpt lat="45.3196983" lon="7.6013933"><ele>391.20000000000005</ele><time>2026-04-25T10:21:07.699Z</time></trkpt><trkpt lat="45.3197967" lon="7.6013667"><ele>391.40000000000003</ele><time>2026-04-25T10:21:08.699Z</time></trkpt><trkpt lat="45.3198767" lon="7.6013167"><ele>391.6</ele><time>2026-04-25T10:21:09.699Z</time></trkpt><trkpt lat="45.3199433" lon="7.6012617"><ele>391.8</ele><time>2026-04-25T10:21:10.699Z</time></trkpt><trkpt lat="45.3200267" lon="7.6011683"><ele>392.0</ele><time>2026-04-25T10:21:12.699Z</time></trkpt><trkpt lat="45.3201067" lon="7.6011617"><ele>391.99999999999994</ele><time>2026-04-25T10:21:14.699Z</time></trkpt><trkpt lat="45.32017" lon="7.6012033"><ele>392.0</ele><time>2026-04-25T10:21:15.699Z</time></trkpt><trkpt lat="45.3202483" lon="7.6012467"><ele>392.0</ele><time>2026-04-25T10:21:16.699Z</time></trkpt><trkpt lat="45.32033" lon="7.6012783"><ele>392.0</ele><time>2026-04-25T10:21:17.699Z</time></trkpt><trkpt lat="45.3204033" lon="7.6012783"><ele>391.99999999999994</ele><time>2026-04-25T10:21:18.699Z</time></trkpt><trkpt lat="45.3204933" lon="7.6012567"><ele>392.0</ele><time>2026-04-25T10:21:20.699Z</time></trkpt><trkpt lat="45.3205283" lon="7.6011683"><ele>395.49999999999994</ele><time>2026-04-25T10:21:23.699Z</time></trkpt><trkpt lat="45.3204617" lon="7.6011167"><ele>399.0</ele><time>2026-04-25T10:21:25.699Z</time></trkpt><trkpt lat="45.3204" lon="7.6010933"><ele>402.5</ele><time>2026-04-25T10:21:26.699Z</time></trkpt><trkpt lat="45.3202883" lon="7.6010467"><ele>406.0</ele><time>2026-04-25T10:21:28.699Z</time></trkpt><trkpt lat="45.3202483" lon="7.60096"><ele>409.49999999999994</ele><time>2026-04-25T10:21:30.698Z</time></trkpt><trkpt lat="45.3203667" lon="7.6009483"><ele>413.0</ele><time>2026-04-25T10:21:33.698Z</time></trkpt><trkpt lat="45.3204333" lon="7.600975"><ele>412.99999999999994</ele><time>2026-04-25T10:21:34.698Z</time></trkpt><trkpt lat="45.3204983" lon="7.6009883"><ele>413.0</ele><time>2026-04-25T10:21:35.698Z</time></trkpt><trkpt lat="45.3206083" lon="7.60099"><ele>413.0</ele><time>2026-04-25T10:21:37.698Z</time></trkpt><trkpt lat="45.3206833" lon="7.6009583"><ele>413.0</ele><time>2026-04-25T10:21:39.698Z</time></trkpt><trkpt lat="45.3207633" lon="7.6008633"><ele>412.99999999999994</ele><time>2026-04-25T10:21:41.698Z</time></trkpt><trkpt lat="45.3208083" lon="7.600795"><ele>413.0</ele><time>2026-04-25T10:21:42.698Z</time></trkpt><trkpt lat="45.32088" lon="7.60066"><ele>412.16666666666663</ele><time>2026-04-25T10:21:44.698Z</time></trkpt><trkpt lat="45.320905" lon="7.6005567"><ele>411.3333333333333</ele><time>2026-04-25T10:21:45.698Z</time></trkpt><trkpt lat="45.3209233" lon="7.6004567"><ele>410.5</ele><time>2026-04-25T10:21:46.698Z</time></trkpt><trkpt lat="45.3209267" lon="7.600365"><ele>409.66666666666663</ele><time>2026-04-25T10:21:47.698Z</time></trkpt><trkpt lat="45.32092" lon="7.6002717"><ele>408.8333333333333</ele><time>2026-04-25T10:21:48.698Z</time></trkpt><trkpt lat="45.3209083" lon="7.600175"><ele>408.0</ele><time>2026-04-25T10:21:49.698Z</time></trkpt><trkpt lat="45.3208683" lon="7.6000117"><ele>410.6666666666667</ele><time>2026-04-25T10:21:51.698Z</time></trkpt><trkpt lat="45.32086" lon="7.5998417"><ele>413.33333333333337</ele><time>2026-04-25T10:21:53.698Z</time></trkpt><trkpt lat="45.32086" lon="7.599735"><ele>416.0</ele><time>2026-04-25T10:21:54.698Z</time></trkpt><trkpt lat="45.320855" lon="7.59963"><ele>418.6666666666667</ele><time>2026-04-25T10:21:55.698Z</time></trkpt><trkpt lat="45.3208467" lon="7.5995217"><ele>421.33333333333337</ele><time>2026-04-25T10:21:56.698Z</time></trkpt><trkpt lat="45.3208367" lon="7.5994133"><ele>424.0</ele><time>2026-04-25T10:21:57.698Z</time></trkpt><trkpt lat="45.320825" lon="7.5993017"><ele>425.6666666666667</ele><time>2026-04-25T10:21:58.698Z</time></trkpt><trkpt lat="45.32081" lon="7.599185"><ele>427.33333333333337</ele><time>2026-04-25T10:21:59.698Z</time></trkpt><trkpt lat="45.3207883" lon="7.5990817"><ele>429.0</ele><time>2026-04-25T10:22:00.698Z</time></trkpt><trkpt lat="45.32074" lon="7.5990133"><ele>430.66666666666663</ele><time>2026-04-25T10:22:01.698Z</time></trkpt><trkpt lat="45.32069" lon="7.5989283"><ele>432.3333333333333</ele><time>2026-04-25T10:22:03.698Z</time></trkpt><trkpt lat="45.3206767" lon="7.59883"><ele>434.0</ele><time>2026-04-25T10:22:05.698Z</time></trkpt><trkpt lat="45.3207383" lon="7.59876"><ele>435.99999999999994</ele><time>2026-04-25T10:22:07.698Z</time></trkpt><trkpt lat="45.320825" lon="7.5986517"><ele>438.0</ele><time>2026-04-25T10:22:09.698Z</time></trkpt><trkpt lat="45.320855" lon="7.5985667"><ele>440.0</ele><time>2026-04-25T10:22:10.698Z</time></trkpt><trkpt lat="45.32089" lon="7.5984733"><ele>442.0</ele><time>2026-04-25T10:22:11.698Z</time></trkpt><trkpt lat="45.320925" lon="7.5983867"><ele>443.99999999999994</ele><time>2026-04-25T10:22:12.698Z</time></trkpt><trkpt lat="45.320945" lon="7.598295"><ele>446.0</ele><time>2026-04-25T10:22:13.698Z</time></trkpt><trkpt lat="45.320965" lon="7.5982017"><ele>446.0</ele><time>2026-04-25T10:22:14.698Z</time></trkpt><trkpt lat="45.3209967" lon="7.5980917"><ele>446.0</ele><time>2026-04-25T10:22:15.698Z</time></trkpt><trkpt lat="45.3210233" lon="7.5980017"><ele>446.0</ele><time>2026-04-25T10:22:16.698Z</time></trkpt><trkpt lat="45.3210617" lon="7.5979033"><ele>446.0</ele><time>2026-04-25T10:22:18.698Z</time></trkpt><trkpt lat="45.320995" lon="7.5979383"><ele>446.0</ele><time>2026-04-25T10:22:24.698Z</time></trkpt><trkpt lat="45.32097" lon="7.5980217"><ele>446.0</ele><time>2026-04-25T10:22:25.698Z</time></trkpt><trkpt lat="45.3209333" lon="7.5981117"><ele>446.0</ele><time>2026-04-25T10:22:26.698Z</time></trkpt><trkpt lat="45.320855" lon="7.5982667"><ele>446.0</ele><time>2026-04-25T10:22:28.698Z</time></trkpt><trkpt lat="45.3207633" lon="7.5983783"><ele>446.0</ele><time>2026-04-25T10:22:30.698Z</time></trkpt><trkpt lat="45.3206833" lon="7.5984217"><ele>446.0</ele><time>2026-04-25T10:22:31.698Z</time></trkpt><trkpt lat="45.3206133" lon="7.598445"><ele>446.0</ele><time>2026-04-25T10:22:32.698Z</time></trkpt><trkpt lat="45.3205433" lon="7.598455"><ele>446.0</ele><time>2026-04-25T10:22:33.698Z</time></trkpt><trkpt lat="45.3204233" lon="7.5984933"><ele>448.4</ele><time>2026-04-25T10:22:35.698Z</time></trkpt><trkpt lat="45.3203717" lon="7.5985517"><ele>450.8</ele><time>2026-04-25T10:22:36.698Z</time></trkpt><trkpt lat="45.3203117" lon="7.5986883"><ele>453.19999999999993</ele><time>2026-04-25T10:22:38.698Z</time></trkpt><trkpt lat="45.320255" lon="7.5988317"><ele>455.59999999999997</ele><time>2026-04-25T10:22:40.698Z</time></trkpt><trkpt lat="45.320245" lon="7.5989933"><ele>458.0</ele><time>2026-04-25T10:22:42.698Z</time></trkpt><trkpt lat="45.3202583" lon="7.5991233"><ele>458.0</ele><time>2026-04-25T10:22:44.698Z</time></trkpt><trkpt lat="45.3202733" lon="7.5992117"><ele>457.99999999999994</ele><time>2026-04-25T10:22:46.698Z</time></trkpt><trkpt lat="45.320215" lon="7.5991467"><ele>457.99999999999994</ele><time>2026-04-25T10:23:04.698Z</time></trkpt><trkpt lat="45.3201917" lon="7.5990217"><ele>458.0</ele><time>2026-04-25T10:23:06.698Z</time></trkpt><trkpt lat="45.32015" lon="7.5988717"><ele>458.0</ele><time>2026-04-25T10:23:08.698Z</time></trkpt><trkpt lat="45.320095" lon="7.598725"><ele>460.16666666666663</ele><time>2026-04-25T10:23:10.698Z</time></trkpt><trkpt lat="45.3200733" lon="7.5985983"><ele>462.3333333333333</ele><time>2026-04-25T10:23:12.698Z</time></trkpt><trkpt lat="45.32011" lon="7.59844"><ele>464.5</ele><time>2026-04-25T10:23:14.698Z</time></trkpt><trkpt lat="45.3201417" lon="7.5983567"><ele>466.66666666666663</ele><time>2026-04-25T10:23:15.698Z</time></trkpt><trkpt lat="45.3201933" lon="7.598265"><ele>468.8333333333333</ele><time>2026-04-25T10:23:16.698Z</time></trkpt><trkpt lat="45.320235" lon="7.59818"><ele>471.0</ele><time>2026-04-25T10:23:17.698Z</time></trkpt><trkpt lat="45.3203083" lon="7.5980617"><ele>471.0</ele><time>2026-04-25T10:23:19.698Z</time></trkpt><trkpt lat="45.320355" lon="7.5979917"><ele>471.0</ele><time>2026-04-25T10:23:21.698Z</time></trkpt><trkpt lat="45.3203283" lon="7.59791"><ele>471.0</ele><time>2026-04-25T10:23:24.699Z</time></trkpt><trkpt lat="45.3202483" lon="7.5979767"><ele>471.0</ele><time>2026-04-25T10:23:27.699Z</time></trkpt><trkpt lat="45.32015" lon="7.59805"><ele>471.0</ele><time>2026-04-25T10:23:29.698Z</time></trkpt><trkpt lat="45.3200867" lon="7.5980783"><ele>471.0</ele><time>2026-04-25T10:23:30.698Z</time></trkpt><trkpt lat="45.319965" lon="7.5981383"><ele>471.00000000000006</ele><time>2026-04-25T10:23:32.698Z</time></trkpt><trkpt lat="45.3199033" lon="7.59816"><ele>471.0</ele><time>2026-04-25T10:23:33.698Z</time></trkpt><trkpt lat="45.3198217" lon="7.59819"><ele>471.00000000000006</ele><time>2026-04-25T10:23:35.698Z</time></trkpt><trkpt lat="45.31976" lon="7.5981567"><ele>471.00000000000006</ele><time>2026-04-25T10:23:37.698Z</time></trkpt><trkpt lat="45.31979" lon="7.59807"><ele>471.0</ele><time>2026-04-25T10:23:40.698Z</time></trkpt><trkpt lat="45.3198683" lon="7.5980333"><ele>471.00000000000006</ele><time>2026-04-25T10:23:42.698Z</time></trkpt><trkpt lat="45.3199317" lon="7.598005"><ele>471.00000000000006</ele><time>2026-04-25T10:23:43.698Z</time></trkpt><trkpt lat="45.319995" lon="7.5979567"><ele>471.0</ele><time>2026-04-25T10:23:44.698Z</time></trkpt><trkpt lat="45.3200517" lon="7.59789"><ele>471.0</ele><time>2026-04-25T10:23:45.698Z</time></trkpt><trkpt lat="45.320095" lon="7.5978217"><ele>471.0</ele><time>2026-04-25T10:23:46.698Z</time></trkpt><trkpt lat="45.32017" lon="7.5976983"><ele>471.0</ele><time>2026-04-25T10:23:48.698Z</time></trkpt><trkpt lat="45.3202183" lon="7.5976317"><ele>471.0</ele><time>2026-04-25T10:23:57.698Z</time></trkpt><trkpt lat="45.3202933" lon="7.597495"><ele>471.0</ele><time>2026-04-25T10:23:59.698Z</time></trkpt><trkpt lat="45.3203583" lon="7.5974133"><ele>470.6</ele><time>2026-04-25T10:24:00.698Z</time></trkpt><trkpt lat="45.3204383" lon="7.597305"><ele>470.20000000000005</ele><time>2026-04-25T10:24:01.698Z</time></trkpt><trkpt lat="45.320515" lon="7.5972117"><ele>469.79999999999995</ele><time>2026-04-25T10:24:02.698Z</time></trkpt><trkpt lat="45.320595" lon="7.597125"><ele>469.4</ele><time>2026-04-25T10:24:03.698Z</time></trkpt><trkpt lat="45.3206717" lon="7.5970483"><ele>469.0</ele><time>2026-04-25T10:24:04.698Z</time></trkpt><trkpt lat="45.3207533" lon="7.596995"><ele>471.33333333333337</ele><time>2026-04-25T10:24:05.698Z</time></trkpt><trkpt lat="45.3208233" lon="7.5969583"><ele>473.6666666666667</ele><time>2026-04-25T10:24:06.698Z</time></trkpt><trkpt lat="45.320895" lon="7.596895"><ele>476.0</ele><time>2026-04-25T10:24:07.698Z</time></trkpt><trkpt lat="45.32096" lon="7.5968117"><ele>478.33333333333337</ele><time>2026-04-25T10:24:08.698Z</time></trkpt><trkpt lat="45.321015" lon="7.5967133"><ele>480.6666666666667</ele><time>2026-04-25T10:24:09.698Z</time></trkpt><trkpt lat="45.3210633" lon="7.5966033"><ele>483.0</ele><time>2026-04-25T10:24:10.699Z</time></trkpt><trkpt lat="45.3211117" lon="7.5964833"><ele>483.0</ele><time>2026-04-25T10:24:11.698Z</time></trkpt><trkpt lat="45.3211683" lon="7.596385"><ele>483.0</ele><time>2026-04-25T10:24:12.698Z</time></trkpt><trkpt lat="45.3212183" lon="7.596275"><ele>483.0</ele><time>2026-04-25T10:24:13.698Z</time></trkpt><trkpt lat="45.321265" lon="7.59619"><ele>483.0</ele><time>2026-04-25T10:24:14.698Z</time></trkpt><trkpt lat="45.3213183" lon="7.59612"><ele>483.0</ele><time>2026-04-25T10:24:15.698Z</time></trkpt><trkpt lat="45.3213633" lon="7.5960533"><ele>483.0</ele><time>2026-04-25T10:24:16.698Z</time></trkpt><trkpt lat="45.3214133" lon="7.5959917"><ele>484.1428571428571</ele><time>2026-04-25T10:24:17.698Z</time></trkpt><trkpt lat="45.32148" lon="7.5959517"><ele>485.2857142857143</ele><time>2026-04-25T10:24:18.698Z</time></trkpt><trkpt lat="45.3215517" lon="7.5959267"><ele>486.42857142857144</ele><time>2026-04-25T10:24:19.698Z</time></trkpt><trkpt lat="45.3216283" lon="7.5959017"><ele>487.57142857142856</ele><time>2026-04-25T10:24:20.698Z</time></trkpt><trkpt lat="45.32171" lon="7.5958783"><ele>488.71428571428567</ele><time>2026-04-25T10:24:21.698Z</time></trkpt><trkpt lat="45.3217767" lon="7.5958517"><ele>489.85714285714283</ele><time>2026-04-25T10:24:22.698Z</time></trkpt><trkpt lat="45.3218433" lon="7.5958167"><ele>491.0</ele><time>2026-04-25T10:24:23.698Z</time></trkpt><trkpt lat="45.321915" lon="7.5957867"><ele>490.99999999999994</ele><time>2026-04-25T10:24:24.698Z</time></trkpt><trkpt lat="45.3219833" lon="7.595765"><ele>491.0</ele><time>2026-04-25T10:24:25.699Z</time></trkpt><trkpt lat="45.32205" lon="7.5957467"><ele>491.0</ele><time>2026-04-25T10:24:26.699Z</time></trkpt><trkpt lat="45.3221667" lon="7.5957683"><ele>491.0</ele><time>2026-04-25T10:24:28.698Z</time></trkpt><trkpt lat="45.3222233" lon="7.5958133"><ele>490.99999999999994</ele><time>2026-04-25T10:24:29.698Z</time></trkpt><trkpt lat="45.3222733" lon="7.5958917"><ele>491.0</ele><time>2026-04-25T10:24:30.698Z</time></trkpt><trkpt lat="45.32232" lon="7.5959567"><ele>491.66666666666663</ele><time>2026-04-25T10:24:31.698Z</time></trkpt><trkpt lat="45.3223867" lon="7.5960467"><ele>492.3333333333333</ele><time>2026-04-25T10:24:33.698Z</time></trkpt><trkpt lat="45.32244" lon="7.5959783"><ele>493.0</ele><time>2026-04-25T10:24:36.698Z</time></trkpt><trkpt lat="45.322425" lon="7.5958233"><ele>493.66666666666663</ele><time>2026-04-25T10:24:38.698Z</time></trkpt><trkpt lat="45.3224133" lon="7.59572"><ele>494.3333333333333</ele><time>2026-04-25T10:24:39.698Z</time></trkpt><trkpt lat="45.3224117" lon="7.5956167"><ele>495.0</ele><time>2026-04-25T10:24:40.698Z</time></trkpt><trkpt lat="45.322415" lon="7.5955067"><ele>495.0</ele><time>2026-04-25T10:24:41.698Z</time></trkpt><trkpt lat="45.3224217" lon="7.5953883"><ele>495.0</ele><time>2026-04-25T10:24:42.698Z</time></trkpt><trkpt lat="45.3224183" lon="7.5952767"><ele>495.0</ele><time>2026-04-25T10:24:43.698Z</time></trkpt><trkpt lat="45.322405" lon="7.59518"><ele>495.0</ele><time>2026-04-25T10:24:44.698Z</time></trkpt><trkpt lat="45.3223833" lon="7.595005"><ele>495.0</ele><time>2026-04-25T10:24:46.698Z</time></trkpt><trkpt lat="45.3223667" lon="7.594915"><ele>495.0</ele><time>2026-04-25T10:24:47.698Z</time></trkpt><trkpt lat="45.322345" lon="7.5948217"><ele>495.5714285714285</ele><time>2026-04-25T10:24:48.698Z</time></trkpt><trkpt lat="45.322325" lon="7.5947317"><ele>496.1428571428571</ele><time>2026-04-25T10:24:49.698Z</time></trkpt><trkpt lat="45.3222983" lon="7.59464"><ele>496.7142857142857</ele><time>2026-04-25T10:24:50.698Z</time></trkpt><trkpt lat="45.322255" lon="7.5945483"><ele>497.2857142857143</ele><time>2026-04-25T10:24:51.698Z</time></trkpt><trkpt lat="45.3221983" lon="7.5944733"><ele>497.8571428571429</ele><time>2026-04-25T10:24:52.698Z</time></trkpt><trkpt lat="45.3221333" lon="7.59441"><ele>498.4285714285715</ele><time>2026-04-25T10:24:53.698Z</time></trkpt><trkpt lat="45.322075" lon="7.594345"><ele>499.00000000000006</ele><time>2026-04-25T10:24:54.698Z</time></trkpt><trkpt lat="45.3220317" lon="7.5942617"><ele>501.1666666666667</ele><time>2026-04-25T10:24:55.698Z</time></trkpt><trkpt lat="45.3220133" lon="7.5941667"><ele>503.33333333333337</ele><time>2026-04-25T10:24:56.698Z</time></trkpt><trkpt lat="45.3220183" lon="7.59403"><ele>505.5</ele><time>2026-04-25T10:24:57.698Z</time></trkpt><trkpt lat="45.32204" lon="7.593895"><ele>507.66666666666663</ele><time>2026-04-25T10:24:58.698Z</time></trkpt><trkpt lat="45.3220717" lon="7.593775"><ele>509.8333333333333</ele><time>2026-04-25T10:24:59.698Z</time></trkpt><trkpt lat="45.3220983" lon="7.5936667"><ele>512.0</ele><time>2026-04-25T10:25:00.698Z</time></trkpt><trkpt lat="45.32211" lon="7.59355"><ele>511.0</ele><time>2026-04-25T10:25:01.698Z</time></trkpt><trkpt lat="45.3221317" lon="7.59345"><ele>510.00000000000006</ele><time>2026-04-25T10:25:02.698Z</time></trkpt><trkpt lat="45.3221567" lon="7.5933667"><ele>509.00000000000006</ele><time>2026-04-25T10:25:03.698Z</time></trkpt><trkpt lat="45.322215" lon="7.59323"><ele>508.0</ele><time>2026-04-25T10:25:05.698Z</time></trkpt><trkpt lat="45.3222567" lon="7.5930333"><ele>507.0</ele><time>2026-04-25T10:25:07.698Z</time></trkpt><trkpt lat="45.3222867" lon="7.5929183"><ele>508.6666666666667</ele><time>2026-04-25T10:25:08.698Z</time></trkpt><trkpt lat="45.3223067" lon="7.592815"><ele>510.33333333333337</ele><time>2026-04-25T10:25:09.698Z</time></trkpt><trkpt lat="45.3223233" lon="7.5927167"><ele>512.0</ele><time>2026-04-25T10:25:10.698Z</time></trkpt><trkpt lat="45.3223117" lon="7.5925517"><ele>513.6666666666667</ele><time>2026-04-25T10:25:12.698Z</time></trkpt><trkpt lat="45.3223033" lon="7.5923883"><ele>515.3333333333334</ele><time>2026-04-25T10:25:14.698Z</time></trkpt><trkpt lat="45.3222983" lon="7.5922917"><ele>517.0</ele><time>2026-04-25T10:25:15.698Z</time></trkpt><trkpt lat="45.3222867" lon="7.59219"><ele>517.0</ele><time>2026-04-25T10:25:16.698Z</time></trkpt><trkpt lat="45.3222767" lon="7.5920833"><ele>517.0</ele><time>2026-04-25T10:25:17.698Z</time></trkpt><trkpt lat="45.3222617" lon="7.591985"><ele>517.0</ele><time>2026-04-25T10:25:18.698Z</time></trkpt><trkpt lat="45.32222" lon="7.591895"><ele>517.0</ele><time>2026-04-25T10:25:19.698Z</time></trkpt><trkpt lat="45.3221467" lon="7.5918117"><ele>517.0</ele><time>2026-04-25T10:25:21.698Z</time></trkpt><trkpt lat="45.3221083" lon="7.59172"><ele>517.0</ele><time>2026-04-25T10:25:23.698Z</time></trkpt><trkpt lat="45.3221217" lon="7.5916117"><ele>519.8333333333334</ele><time>2026-04-25T10:25:25.698Z</time></trkpt><trkpt lat="45.3221483" lon="7.591465"><ele>522.6666666666667</ele><time>2026-04-25T10:25:27.698Z</time></trkpt><trkpt lat="45.3221783" lon="7.5913633"><ele>525.5</ele><time>2026-04-25T10:25:28.698Z</time></trkpt><trkpt lat="45.3221967" lon="7.59126"><ele>528.3333333333334</ele><time>2026-04-25T10:25:29.698Z</time></trkpt><trkpt lat="45.3222167" lon="7.59112"><ele>531.1666666666666</ele><time>2026-04-25T10:25:31.698Z</time></trkpt><trkpt lat="45.3222633" lon="7.591035"><ele>534.0</ele><time>2026-04-25T10:25:33.698Z</time></trkpt><trkpt lat="45.3223367" lon="7.590995"><ele>534.0</ele><time>2026-04-25T10:25:35.698Z</time></trkpt><trkpt lat="45.322415" lon="7.5908867"><ele>534.0</ele><time>2026-04-25T10:25:37.698Z</time></trkpt><trkpt lat="45.3224467" lon="7.5907983"><ele>534.0</ele><time>2026-04-25T10:25:38.698Z</time></trkpt><trkpt lat="45.32247" lon="7.5907017"><ele>534.0</ele><time>2026-04-25T10:25:39.698Z</time></trkpt><trkpt lat="45.322485" lon="7.5906117"><ele>534.0</ele><time>2026-04-25T10:25:40.698Z</time></trkpt><trkpt lat="45.3225017" lon="7.5904517"><ele>534.0</ele><time>2026-04-25T10:25:42.699Z</time></trkpt><trkpt lat="45.322555" lon="7.590355"><ele>537.25</ele><time>2026-04-25T10:25:44.698Z</time></trkpt><trkpt lat="45.3226533" lon="7.5903083"><ele>540.5</ele><time>2026-04-25T10:25:46.698Z</time></trkpt><trkpt lat="45.3227567" lon="7.59026"><ele>543.75</ele><time>2026-04-25T10:25:48.698Z</time></trkpt><trkpt lat="45.32284" lon="7.5901333"><ele>547.0</ele><time>2026-04-25T10:25:50.698Z</time></trkpt><trkpt lat="45.3229117" lon="7.5899867"><ele>547.0</ele><time>2026-04-25T10:25:52.699Z</time></trkpt><trkpt lat="45.3229517" lon="7.589865"><ele>547.0</ele><time>2026-04-25T10:25:54.698Z</time></trkpt><trkpt lat="45.32301" lon="7.5898233"><ele>547.0</ele><time>2026-04-25T10:25:56.698Z</time></trkpt><trkpt lat="45.323105" lon="7.5897983"><ele>547.0</ele><time>2026-04-25T10:25:58.698Z</time></trkpt><trkpt lat="45.3231733" lon="7.5897967"><ele>547.0</ele><time>2026-04-25T10:25:59.698Z</time></trkpt><trkpt lat="45.3232467" lon="7.5898"><ele>547.0</ele><time>2026-04-25T10:26:00.698Z</time></trkpt><trkpt lat="45.3233133" lon="7.589785"><ele>546.5</ele><time>2026-04-25T10:26:01.698Z</time></trkpt><trkpt lat="45.323375" lon="7.5897617"><ele>546.0</ele><time>2026-04-25T10:26:02.698Z</time></trkpt><trkpt lat="45.32343" lon="7.5897133"><ele>545.5</ele><time>2026-04-25T10:26:03.698Z</time></trkpt><trkpt lat="45.323475" lon="7.5896483"><ele>545.0</ele><time>2026-04-25T10:26:04.698Z</time></trkpt><trkpt lat="45.3235317" lon="7.5895183"><ele>544.5</ele><time>2026-04-25T10:26:06.698Z</time></trkpt><trkpt lat="45.323555" lon="7.5893617"><ele>544.0</ele><time>2026-04-25T10:26:08.698Z</time></trkpt><trkpt lat="45.323575" lon="7.5892283"><ele>546.0</ele><time>2026-04-25T10:26:10.698Z</time></trkpt><trkpt lat="45.3235983" lon="7.589125"><ele>548.0</ele><time>2026-04-25T10:26:12.698Z</time></trkpt><trkpt lat="45.323625" lon="7.5890017"><ele>550.0</ele><time>2026-04-25T10:26:14.698Z</time></trkpt><trkpt lat="45.3236633" lon="7.5888917"><ele>552.0</ele><time>2026-04-25T10:26:16.698Z</time></trkpt><trkpt lat="45.323735" lon="7.5888317"><ele>554.0</ele><time>2026-04-25T10:26:19.698Z</time></trkpt><trkpt lat="45.3238083" lon="7.5889117"><ele>556.0</ele><time>2026-04-25T10:26:21.698Z</time></trkpt><trkpt lat="45.323875" lon="7.5890567"><ele>558.0</ele><time>2026-04-25T10:26:23.698Z</time></trkpt><trkpt lat="45.3239117" lon="7.5891417"><ele>560.0</ele><time>2026-04-25T10:26:24.698Z</time></trkpt><trkpt lat="45.32395" lon="7.5892333"><ele>562.0</ele><time>2026-04-25T10:26:25.698Z</time></trkpt><trkpt lat="45.323995" lon="7.5893233"><ele>564.0</ele><time>2026-04-25T10:26:26.698Z</time></trkpt><trkpt lat="45.324035" lon="7.5893933"><ele>566.0</ele><time>2026-04-25T10:26:27.698Z</time></trkpt><trkpt lat="45.3241267" lon="7.5894733"><ele>568.0</ele><time>2026-04-25T10:26:29.698Z</time></trkpt><trkpt lat="45.3242267" lon="7.589505"><ele>568.0</ele><time>2026-04-25T10:26:31.698Z</time></trkpt><trkpt lat="45.324345" lon="7.5894917"><ele>568.0</ele><time>2026-04-25T10:26:33.698Z</time></trkpt><trkpt lat="45.324445" lon="7.5894183"><ele>568.0</ele><time>2026-04-25T10:26:35.698Z</time></trkpt><trkpt lat="45.32453" lon="7.5893367"><ele>568.0</ele><time>2026-04-25T10:26:37.698Z</time></trkpt><trkpt lat="45.324605" lon="7.5891933"><ele>568.0</ele><time>2026-04-25T10:39:41.696Z</time></trkpt><trkpt lat="45.324695" lon="7.5891867"><ele>568.0</ele><time>2026-04-25T10:39:44.696Z</time></trkpt><trkpt lat="45.324795" lon="7.5891617"><ele>568.0</ele><time>2026-04-25T10:39:46.696Z</time></trkpt><trkpt lat="45.3248633" lon="7.589115"><ele>568.0</ele><time>2026-04-25T10:39:47.696Z</time></trkpt><trkpt lat="45.324955" lon="7.589025"><ele>568.0</ele><time>2026-04-25T10:39:49.696Z</time></trkpt><trkpt lat="45.3250167" lon="7.5889567"><ele>568.6666666666667</ele><time>2026-04-25T10:39:51.696Z</time></trkpt><trkpt lat="45.3250917" lon="7.5889333"><ele>569.3333333333334</ele><time>2026-04-25T10:39:54.696Z</time></trkpt><trkpt lat="45.3251467" lon="7.5890067"><ele>570.0</ele><time>2026-04-25T10:39:57.696Z</time></trkpt><trkpt lat="45.3251917" lon="7.5891433"><ele>570.6666666666666</ele><time>2026-04-25T10:39:59.696Z</time></trkpt><trkpt lat="45.3252567" lon="7.58929"><ele>571.3333333333333</ele><time>2026-04-25T10:40:01.696Z</time></trkpt><trkpt lat="45.3252967" lon="7.5893617"><ele>572.0</ele><time>2026-04-25T10:40:02.696Z</time></trkpt><trkpt lat="45.3253633" lon="7.5895017"><ele>571.4</ele><time>2026-04-25T10:40:04.696Z</time></trkpt><trkpt lat="45.3254" lon="7.589665"><ele>570.8000000000001</ele><time>2026-04-25T10:40:06.696Z</time></trkpt><trkpt lat="45.3254283" lon="7.58975"><ele>570.2</ele><time>2026-04-25T10:40:07.696Z</time></trkpt><trkpt lat="45.3254717" lon="7.5898217"><ele>569.6</ele><time>2026-04-25T10:40:08.696Z</time></trkpt><trkpt lat="45.3255733" lon="7.5898867"><ele>569.0</ele><time>2026-04-25T10:40:10.696Z</time></trkpt><trkpt lat="45.3256867" lon="7.5898617"><ele>569.0</ele><time>2026-04-25T10:40:12.696Z</time></trkpt><trkpt lat="45.3257567" lon="7.5898"><ele>569.0</ele><time>2026-04-25T10:40:13.696Z</time></trkpt><trkpt lat="45.3258233" lon="7.5897317"><ele>569.0</ele><time>2026-04-25T10:40:14.696Z</time></trkpt><trkpt lat="45.32589" lon="7.5896633"><ele>569.0</ele><time>2026-04-25T10:40:15.696Z</time></trkpt><trkpt lat="45.3259533" lon="7.5896067"><ele>569.0</ele><time>2026-04-25T10:40:16.696Z</time></trkpt><trkpt lat="45.3260217" lon="7.589555"><ele>569.0</ele><time>2026-04-25T10:40:17.696Z</time></trkpt><trkpt lat="45.32609" lon="7.5895267"><ele>570.8333333333333</ele><time>2026-04-25T10:40:18.696Z</time></trkpt><trkpt lat="45.3261567" lon="7.5895"><ele>572.6666666666666</ele><time>2026-04-25T10:40:19.696Z</time></trkpt><trkpt lat="45.326225" lon="7.5894883"><ele>574.5</ele><time>2026-04-25T10:40:20.696Z</time></trkpt><trkpt lat="45.32629" lon="7.5894683"><ele>576.3333333333334</ele><time>2026-04-25T10:40:21.696Z</time></trkpt><trkpt lat="45.3264" lon="7.5894483"><ele>578.1666666666667</ele><time>2026-04-25T10:40:23.696Z</time></trkpt><trkpt lat="45.3265167" lon="7.5894417"><ele>580.0</ele><time>2026-04-25T10:40:25.696Z</time></trkpt><trkpt lat="45.3265933" lon="7.5894483"><ele>580.0</ele><time>2026-04-25T10:40:26.696Z</time></trkpt><trkpt lat="45.3266667" lon="7.5894617"><ele>580.0</ele><time>2026-04-25T10:40:27.696Z</time></trkpt><trkpt lat="45.3267467" lon="7.58949"><ele>580.0</ele><time>2026-04-25T10:40:28.696Z</time></trkpt><trkpt lat="45.3268233" lon="7.589535"><ele>580.0</ele><time>2026-04-25T10:40:29.696Z</time></trkpt><trkpt lat="45.326915" lon="7.5895967"><ele>580.0</ele><time>2026-04-25T10:40:30.696Z</time></trkpt><trkpt lat="45.3270117" lon="7.5896567"><ele>580.0</ele><time>2026-04-25T10:40:31.696Z</time></trkpt><trkpt lat="45.32709" lon="7.58972"><ele>575.1666666666667</ele><time>2026-04-25T10:40:32.696Z</time></trkpt><trkpt lat="45.3271667" lon="7.5897933"><ele>570.3333333333334</ele><time>2026-04-25T10:40:33.696Z</time></trkpt><trkpt lat="45.3272367" lon="7.5898817"><ele>565.5</ele><time>2026-04-25T10:40:34.696Z</time></trkpt><trkpt lat="45.3272983" lon="7.589985"><ele>560.6666666666666</ele><time>2026-04-25T10:40:35.696Z</time></trkpt><trkpt lat="45.3273383" lon="7.5900867"><ele>555.8333333333333</ele><time>2026-04-25T10:40:36.696Z</time></trkpt><trkpt lat="45.3273833" lon="7.5901817"><ele>551.0</ele><time>2026-04-25T10:40:37.696Z</time></trkpt><trkpt lat="45.327425" lon="7.590275"><ele>549.0</ele><time>2026-04-25T10:40:38.696Z</time></trkpt><trkpt lat="45.32746" lon="7.5903667"><ele>547.0</ele><time>2026-04-25T10:40:39.697Z</time></trkpt><trkpt lat="45.32749" lon="7.5904533"><ele>545.0</ele><time>2026-04-25T10:40:40.696Z</time></trkpt><trkpt lat="45.3275317" lon="7.5905767"><ele>543.0</ele><time>2026-04-25T10:40:42.696Z</time></trkpt><trkpt lat="45.3275917" lon="7.5906333"><ele>541.0</ele><time>2026-04-25T10:40:45.696Z</time></trkpt><trkpt lat="45.327645" lon="7.5905267"><ele>539.0</ele><time>2026-04-25T10:40:47.696Z</time></trkpt><trkpt lat="45.3276783" lon="7.5904117"><ele>540.8333333333333</ele><time>2026-04-25T10:40:49.696Z</time></trkpt><trkpt lat="45.3277183" lon="7.5902883"><ele>542.6666666666666</ele><time>2026-04-25T10:40:51.696Z</time></trkpt><trkpt lat="45.32776" lon="7.5901383"><ele>544.5</ele><time>2026-04-25T10:40:53.696Z</time></trkpt><trkpt lat="45.3277967" lon="7.59005"><ele>546.3333333333334</ele><time>2026-04-25T10:40:54.696Z</time></trkpt><trkpt lat="45.327835" lon="7.5899617"><ele>548.1666666666667</ele><time>2026-04-25T10:40:55.696Z</time></trkpt><trkpt lat="45.3278633" lon="7.58987"><ele>550.0</ele><time>2026-04-25T10:40:56.696Z</time></trkpt><trkpt lat="45.327895" lon="7.589785"><ele>550.0</ele><time>2026-04-25T10:40:57.696Z</time></trkpt><trkpt lat="45.3279267" lon="7.589695"><ele>550.0</ele><time>2026-04-25T10:40:58.696Z</time></trkpt><trkpt lat="45.327955" lon="7.589605"><ele>550.0</ele><time>2026-04-25T10:40:59.696Z</time></trkpt><trkpt lat="45.3279767" lon="7.5895117"><ele>550.0</ele><time>2026-04-25T10:41:00.696Z</time></trkpt><trkpt lat="45.3280033" lon="7.5894217"><ele>550.0</ele><time>2026-04-25T10:41:01.696Z</time></trkpt><trkpt lat="45.3280317" lon="7.5893333"><ele>550.0</ele><time>2026-04-25T10:41:02.696Z</time></trkpt><trkpt lat="45.3280783" lon="7.5891767"><ele>549.0</ele><time>2026-04-25T10:41:04.696Z</time></trkpt><trkpt lat="45.3280983" lon="7.5890867"><ele>548.0</ele><time>2026-04-25T10:41:05.696Z</time></trkpt><trkpt lat="45.3281267" lon="7.588925"><ele>547.0</ele><time>2026-04-25T10:41:07.696Z</time></trkpt><trkpt lat="45.3281317" lon="7.5888267"><ele>546.0</ele><time>2026-04-25T10:41:08.696Z</time></trkpt><trkpt lat="45.3281317" lon="7.5887167"><ele>545.0</ele><time>2026-04-25T10:41:09.696Z</time></trkpt><trkpt lat="45.3281333" lon="7.5885933"><ele>544.0</ele><time>2026-04-25T10:41:10.696Z</time></trkpt><trkpt lat="45.328135" lon="7.5884617"><ele>544.0</ele><time>2026-04-25T10:41:11.696Z</time></trkpt><trkpt lat="45.3281467" lon="7.5883467"><ele>544.0</ele><time>2026-04-25T10:41:12.696Z</time></trkpt><trkpt lat="45.32815" lon="7.5882567"><ele>544.0</ele><time>2026-04-25T10:41:13.696Z</time></trkpt><trkpt lat="45.3281617" lon="7.5880867"><ele>544.0</ele><time>2026-04-25T10:41:15.696Z</time></trkpt><trkpt lat="45.3281767" lon="7.5879883"><ele>544.0</ele><time>2026-04-25T10:41:16.696Z</time></trkpt><trkpt lat="45.3281917" lon="7.5878817"><ele>544.0</ele><time>2026-04-25T10:41:17.696Z</time></trkpt><trkpt lat="45.3282083" lon="7.5877783"><ele>546.0</ele><time>2026-04-25T10:41:18.697Z</time></trkpt><trkpt lat="45.3282383" lon="7.5876783"><ele>548.0</ele><time>2026-04-25T10:41:19.696Z</time></trkpt><trkpt lat="45.3282883" lon="7.587585"><ele>550.0</ele><time>2026-04-25T10:41:20.696Z</time></trkpt><trkpt lat="45.3283333" lon="7.5875117"><ele>552.0</ele><time>2026-04-25T10:41:21.696Z</time></trkpt><trkpt lat="45.3284267" lon="7.5874317"><ele>554.0</ele><time>2026-04-25T10:41:23.696Z</time></trkpt><trkpt lat="45.3285217" lon="7.5874267"><ele>556.0</ele><time>2026-04-25T10:41:25.696Z</time></trkpt><trkpt lat="45.3286083" lon="7.58739"><ele>556.0</ele><time>2026-04-25T10:41:27.696Z</time></trkpt><trkpt lat="45.328685" lon="7.5872817"><ele>556.0</ele><time>2026-04-25T10:41:29.696Z</time></trkpt><trkpt lat="45.32875" lon="7.5871617"><ele>556.0</ele><time>2026-04-25T10:41:31.696Z</time></trkpt><trkpt lat="45.328805" lon="7.5870217"><ele>556.0</ele><time>2026-04-25T10:41:33.696Z</time></trkpt><trkpt lat="45.328815" lon="7.5868367"><ele>558.6666666666667</ele><time>2026-04-25T10:41:35.696Z</time></trkpt><trkpt lat="45.3288233" lon="7.586735"><ele>561.3333333333334</ele><time>2026-04-25T10:41:36.696Z</time></trkpt><trkpt lat="45.32883" lon="7.58663"><ele>564.0</ele><time>2026-04-25T10:41:37.696Z</time></trkpt><trkpt lat="45.3288317" lon="7.5865183"><ele>566.6666666666666</ele><time>2026-04-25T10:41:38.696Z</time></trkpt><trkpt lat="45.3288333" lon="7.5864033"><ele>569.3333333333333</ele><time>2026-04-25T10:41:39.696Z</time></trkpt><trkpt lat="45.32883" lon="7.5862933"><ele>572.0</ele><time>2026-04-25T10:41:40.696Z</time></trkpt><trkpt lat="45.3288367" lon="7.5861983"><ele>574.5</ele><time>2026-04-25T10:41:41.696Z</time></trkpt><trkpt lat="45.32885" lon="7.58602"><ele>577.0</ele><time>2026-04-25T10:41:43.696Z</time></trkpt><trkpt lat="45.328885" lon="7.585865"><ele>579.5</ele><time>2026-04-25T10:41:45.696Z</time></trkpt><trkpt lat="45.32894" lon="7.5857217"><ele>582.0</ele><time>2026-04-25T10:41:47.696Z</time></trkpt><trkpt lat="45.32901" lon="7.5856033"><ele>578.0</ele><time>2026-04-25T10:41:49.696Z</time></trkpt><trkpt lat="45.3290867" lon="7.5854917"><ele>574.0</ele><time>2026-04-25T10:41:51.696Z</time></trkpt><trkpt lat="45.3291367" lon="7.5853917"><ele>570.0</ele><time>2026-04-25T10:41:53.696Z</time></trkpt><trkpt lat="45.329175" lon="7.5852567"><ele>566.0</ele><time>2026-04-25T10:41:55.696Z</time></trkpt><trkpt lat="45.3292" lon="7.5850817"><ele>562.0</ele><time>2026-04-25T10:41:57.696Z</time></trkpt><trkpt lat="45.3292233" lon="7.5849933"><ele>562.0</ele><time>2026-04-25T10:41:58.696Z</time></trkpt><trkpt lat="45.3292883" lon="7.584845"><ele>562.0</ele><time>2026-04-25T10:42:00.696Z</time></trkpt><trkpt lat="45.3293683" lon="7.5848117"><ele>562.0</ele><time>2026-04-25T10:42:02.696Z</time></trkpt><trkpt lat="45.3294367" lon="7.5848733"><ele>562.0</ele><time>2026-04-25T10:42:04.696Z</time></trkpt><trkpt lat="45.3295033" lon="7.5849967"><ele>562.0</ele><time>2026-04-25T10:42:06.696Z</time></trkpt><trkpt lat="45.32955" lon="7.58507"><ele>562.0</ele><time>2026-04-25T10:42:07.696Z</time></trkpt><trkpt lat="45.3296017" lon="7.585135"><ele>562.0</ele><time>2026-04-25T10:42:08.696Z</time></trkpt><trkpt lat="45.3296533" lon="7.5852067"><ele>562.0</ele><time>2026-04-25T10:42:09.696Z</time></trkpt><trkpt lat="45.3297117" lon="7.5852717"><ele>562.0</ele><time>2026-04-25T10:42:10.696Z</time></trkpt><trkpt lat="45.3297583" lon="7.5853467"><ele>562.0</ele><time>2026-04-25T10:42:11.696Z</time></trkpt><trkpt lat="45.32985" lon="7.585435"><ele>562.0</ele><time>2026-04-25T10:42:13.696Z</time></trkpt><trkpt lat="45.3299717" lon="7.585425"><ele>560.8000000000001</ele><time>2026-04-25T10:42:15.696Z</time></trkpt><trkpt lat="45.33008" lon="7.5853717"><ele>559.6</ele><time>2026-04-25T10:42:17.696Z</time></trkpt><trkpt lat="45.3301583" lon="7.5852517"><ele>558.4000000000001</ele><time>2026-04-25T10:42:19.696Z</time></trkpt><trkpt lat="45.33023" lon="7.5851667"><ele>557.2</ele><time>2026-04-25T10:42:21.696Z</time></trkpt><trkpt lat="45.33032" lon="7.585205"><ele>556.0</ele><time>2026-04-25T10:42:25.696Z</time></trkpt><trkpt lat="45.3303767" lon="7.585295"><ele>555.8</ele><time>2026-04-25T10:42:27.696Z</time></trkpt><trkpt lat="45.3304183" lon="7.5854217"><ele>555.6</ele><time>2026-04-25T10:42:29.696Z</time></trkpt><trkpt lat="45.3304683" lon="7.585555"><ele>555.4</ele><time>2026-04-25T10:42:31.696Z</time></trkpt><trkpt lat="45.3305533" lon="7.585645"><ele>555.2</ele><time>2026-04-25T10:42:33.696Z</time></trkpt><trkpt lat="45.3306683" lon="7.5856417"><ele>555.0</ele><time>2026-04-25T10:42:35.696Z</time></trkpt><trkpt lat="45.3307617" lon="7.5856567"><ele>555.0</ele><time>2026-04-25T10:42:37.696Z</time></trkpt><trkpt lat="45.3308183" lon="7.58576"><ele>555.0</ele><time>2026-04-25T10:42:39.696Z</time></trkpt><trkpt lat="45.330835" lon="7.58588"><ele>555.0</ele><time>2026-04-25T10:42:40.696Z</time></trkpt><trkpt lat="45.33085" lon="7.5860317"><ele>555.0</ele><time>2026-04-25T10:42:41.696Z</time></trkpt><trkpt lat="45.3308683" lon="7.5861883"><ele>555.0</ele><time>2026-04-25T10:42:42.696Z</time></trkpt><trkpt lat="45.3309" lon="7.586345"><ele>554.0</ele><time>2026-04-25T10:42:43.696Z</time></trkpt><trkpt lat="45.330935" lon="7.5865067"><ele>553.0</ele><time>2026-04-25T10:42:44.696Z</time></trkpt><trkpt lat="45.330975" lon="7.58667"><ele>552.0</ele><time>2026-04-25T10:42:45.696Z</time></trkpt><trkpt lat="45.33101" lon="7.5867933"><ele>551.0</ele><time>2026-04-25T10:42:46.696Z</time></trkpt><trkpt lat="45.33105" lon="7.5869"><ele>550.0</ele><time>2026-04-25T10:42:47.696Z</time></trkpt><trkpt lat="45.331085" lon="7.58698"><ele>548.4</ele><time>2026-04-25T10:42:48.696Z</time></trkpt><trkpt lat="45.3311583" lon="7.5871117"><ele>546.8</ele><time>2026-04-25T10:42:50.696Z</time></trkpt><trkpt lat="45.331235" lon="7.5872133"><ele>545.2</ele><time>2026-04-25T10:42:52.696Z</time></trkpt><trkpt lat="45.3313267" lon="7.58728"><ele>543.6</ele><time>2026-04-25T10:42:54.696Z</time></trkpt><trkpt lat="45.3314433" lon="7.5873317"><ele>542.0</ele><time>2026-04-25T10:42:56.696Z</time></trkpt><trkpt lat="45.3315067" lon="7.5873433"><ele>542.0</ele><time>2026-04-25T10:42:57.696Z</time></trkpt><trkpt lat="45.33158" lon="7.5873533"><ele>542.0</ele><time>2026-04-25T10:42:58.697Z</time></trkpt><trkpt lat="45.3316483" lon="7.5873633"><ele>542.0</ele><time>2026-04-25T10:42:59.696Z</time></trkpt><trkpt lat="45.331715" lon="7.587365"><ele>542.0</ele><time>2026-04-25T10:43:00.696Z</time></trkpt><trkpt lat="45.331825" lon="7.587375"><ele>542.0</ele><time>2026-04-25T10:43:02.696Z</time></trkpt><trkpt lat="45.3319367" lon="7.58741"><ele>542.0</ele><time>2026-04-25T10:43:04.696Z</time></trkpt><trkpt lat="45.33205" lon="7.587505"><ele>542.0</ele><time>2026-04-25T10:43:06.696Z</time></trkpt><trkpt lat="45.332115" lon="7.587535"><ele>542.0</ele><time>2026-04-25T10:43:07.696Z</time></trkpt><trkpt lat="45.33218" lon="7.58754"><ele>542.0</ele><time>2026-04-25T10:43:08.696Z</time></trkpt><trkpt lat="45.3322483" lon="7.5875317"><ele>542.0</ele><time>2026-04-25T10:43:09.696Z</time></trkpt><trkpt lat="45.3323183" lon="7.5875067"><ele>542.0</ele><time>2026-04-25T10:43:10.696Z</time></trkpt><trkpt lat="45.3323833" lon="7.58747"><ele>542.0</ele><time>2026-04-25T10:43:11.696Z</time></trkpt><trkpt lat="45.33244" lon="7.5874133"><ele>542.0</ele><time>2026-04-25T10:43:12.696Z</time></trkpt><trkpt lat="45.33249" lon="7.5873467"><ele>541.8000000000001</ele><time>2026-04-25T10:43:13.696Z</time></trkpt><trkpt lat="45.3325717" lon="7.5872333"><ele>541.6</ele><time>2026-04-25T10:43:15.696Z</time></trkpt><trkpt lat="45.33266" lon="7.5872"><ele>541.4000000000001</ele><time>2026-04-25T10:43:17.696Z</time></trkpt><trkpt lat="45.3327217" lon="7.5872883"><ele>541.2</ele><time>2026-04-25T10:43:19.696Z</time></trkpt><trkpt lat="45.3327333" lon="7.5874017"><ele>541.0</ele><time>2026-04-25T10:43:20.696Z</time></trkpt><trkpt lat="45.3327467" lon="7.587535"><ele>541.0</ele><time>2026-04-25T10:43:21.696Z</time></trkpt><trkpt lat="45.3327767" lon="7.5876567"><ele>541.0</ele><time>2026-04-25T10:43:22.696Z</time></trkpt><trkpt lat="45.3328183" lon="7.5877533"><ele>541.0</ele><time>2026-04-25T10:43:23.696Z</time></trkpt><trkpt lat="45.33287" lon="7.5878317"><ele>541.0</ele><time>2026-04-25T10:43:24.696Z</time></trkpt><trkpt lat="45.3329817" lon="7.5878817"><ele>541.0</ele><time>2026-04-25T10:43:26.696Z</time></trkpt><trkpt lat="45.3330483" lon="7.5878567"><ele>541.0</ele><time>2026-04-25T10:43:27.696Z</time></trkpt><trkpt lat="45.33312" lon="7.5877967"><ele>539.4</ele><time>2026-04-25T10:43:28.696Z</time></trkpt><trkpt lat="45.333195" lon="7.5877467"><ele>537.8</ele><time>2026-04-25T10:43:29.696Z</time></trkpt><trkpt lat="45.3332733" lon="7.5877083"><ele>536.1999999999999</ele><time>2026-04-25T10:43:30.696Z</time></trkpt><trkpt lat="45.3333367" lon="7.5876683"><ele>534.6</ele><time>2026-04-25T10:43:31.696Z</time></trkpt><trkpt lat="45.3334467" lon="7.5875983"><ele>533.0</ele><time>2026-04-25T10:43:33.696Z</time></trkpt><trkpt lat="45.3335417" lon="7.5874883"><ele>533.0</ele><time>2026-04-25T10:43:35.696Z</time></trkpt><trkpt lat="45.3335833" lon="7.5873967"><ele>533.0</ele><time>2026-04-25T10:43:36.696Z</time></trkpt><trkpt lat="45.33362" lon="7.58729"><ele>533.0</ele><time>2026-04-25T10:43:37.696Z</time></trkpt><trkpt lat="45.33365" lon="7.5871883"><ele>533.0</ele><time>2026-04-25T10:43:38.696Z</time></trkpt><trkpt lat="45.3336683" lon="7.5870867"><ele>533.0</ele><time>2026-04-25T10:43:39.696Z</time></trkpt><trkpt lat="45.333685" lon="7.5869883"><ele>533.0</ele><time>2026-04-25T10:43:40.696Z</time></trkpt><trkpt lat="45.3337083" lon="7.58689"><ele>533.6666666666666</ele><time>2026-04-25T10:43:41.696Z</time></trkpt><trkpt lat="45.3337383" lon="7.5867867"><ele>534.3333333333333</ele><time>2026-04-25T10:43:42.696Z</time></trkpt><trkpt lat="45.3337733" lon="7.5866633"><ele>535.0</ele><time>2026-04-25T10:43:43.696Z</time></trkpt><trkpt lat="45.333805" lon="7.58657"><ele>535.6666666666666</ele><time>2026-04-25T10:43:44.696Z</time></trkpt><trkpt lat="45.3338567" lon="7.58646"><ele>536.3333333333334</ele><time>2026-04-25T10:43:46.696Z</time></trkpt><trkpt lat="45.3339367" lon="7.5865183"><ele>537.0</ele><time>2026-04-25T10:43:50.696Z</time></trkpt><trkpt lat="45.3339817" lon="7.586705"><ele>537.0</ele><time>2026-04-25T10:43:52.696Z</time></trkpt><trkpt lat="45.33403" lon="7.5868383"><ele>537.0</ele><time>2026-04-25T10:43:53.696Z</time></trkpt><trkpt lat="45.3340917" lon="7.586955"><ele>537.0</ele><time>2026-04-25T10:43:54.696Z</time></trkpt><trkpt lat="45.3341667" lon="7.5870783"><ele>537.0</ele><time>2026-04-25T10:43:55.696Z</time></trkpt><trkpt lat="45.3342367" lon="7.58718"><ele>537.0</ele><time>2026-04-25T10:43:56.696Z</time></trkpt><trkpt lat="45.3343217" lon="7.58726"><ele>534.5</ele><time>2026-04-25T10:43:57.696Z</time></trkpt><trkpt lat="45.334405" lon="7.5873"><ele>532.0</ele><time>2026-04-25T10:43:58.696Z</time></trkpt><trkpt lat="45.33448" lon="7.5873417"><ele>529.5</ele><time>2026-04-25T10:43:59.696Z</time></trkpt><trkpt lat="45.3345517" lon="7.5873717"><ele>527.0</ele><time>2026-04-25T10:44:00.696Z</time></trkpt><trkpt lat="45.3346083" lon="7.5874233"><ele>524.5</ele><time>2026-04-25T10:44:01.696Z</time></trkpt><trkpt lat="45.3346517" lon="7.5875"><ele>522.0</ele><time>2026-04-25T10:44:02.696Z</time></trkpt><trkpt lat="45.3346767" lon="7.587595"><ele>522.0</ele><time>2026-04-25T10:44:03.696Z</time></trkpt><trkpt lat="45.3347" lon="7.5877383"><ele>522.0</ele><time>2026-04-25T10:44:05.696Z</time></trkpt><trkpt lat="45.3347533" lon="7.587815"><ele>522.0</ele><time>2026-04-25T10:44:07.696Z</time></trkpt><trkpt lat="45.334845" lon="7.5877567"><ele>522.0</ele><time>2026-04-25T10:44:10.696Z</time></trkpt><trkpt lat="45.334915" lon="7.5876717"><ele>522.0</ele><time>2026-04-25T10:44:12.696Z</time></trkpt><trkpt lat="45.33496" lon="7.5876"><ele>522.0</ele><time>2026-04-25T10:44:14.696Z</time></trkpt><trkpt lat="45.3350033" lon="7.5875267"><ele>521.6666666666666</ele><time>2026-04-25T10:44:16.696Z</time></trkpt><trkpt lat="45.33506" lon="7.5874833"><ele>521.3333333333334</ele><time>2026-04-25T10:44:18.696Z</time></trkpt><trkpt lat="45.3351483" lon="7.5874683"><ele>521.0</ele><time>2026-04-25T10:44:21.696Z</time></trkpt><trkpt lat="45.3352367" lon="7.5875233"><ele>520.6666666666667</ele><time>2026-04-25T10:44:24.696Z</time></trkpt><trkpt lat="45.3352367" lon="7.587635"><ele>520.3333333333334</ele><time>2026-04-25T10:44:27.696Z</time></trkpt><trkpt lat="45.3351883" lon="7.5876933"><ele>520.0</ele><time>2026-04-25T10:44:29.696Z</time></trkpt><trkpt lat="45.3351367" lon="7.587795"><ele>518.6</ele><time>2026-04-25T10:44:31.696Z</time></trkpt><trkpt lat="45.3351317" lon="7.5879117"><ele>517.2</ele><time>2026-04-25T10:44:33.696Z</time></trkpt><trkpt lat="45.3351817" lon="7.588035"><ele>515.8</ele><time>2026-04-25T10:44:35.696Z</time></trkpt><trkpt lat="45.335225" lon="7.5881483"><ele>514.4</ele><time>2026-04-25T10:44:37.696Z</time></trkpt><trkpt lat="45.3352667" lon="7.5882767"><ele>513.0</ele><time>2026-04-25T10:44:39.696Z</time></trkpt><trkpt lat="45.3352983" lon="7.5884083"><ele>513.0</ele><time>2026-04-25T10:44:41.696Z</time></trkpt><trkpt lat="45.3353883" lon="7.5885217"><ele>513.0</ele><time>2026-04-25T10:44:43.696Z</time></trkpt><trkpt lat="45.33546" lon="7.5885717"><ele>513.0</ele><time>2026-04-25T10:44:44.696Z</time></trkpt><trkpt lat="45.3355467" lon="7.5886283"><ele>513.0</ele><time>2026-04-25T10:44:45.696Z</time></trkpt><trkpt lat="45.3356167" lon="7.5886967"><ele>513.0</ele><time>2026-04-25T10:44:46.696Z</time></trkpt><trkpt lat="45.3356733" lon="7.5887917"><ele>517.1999999999999</ele><time>2026-04-25T10:44:47.697Z</time></trkpt><trkpt lat="45.3357167" lon="7.5888867"><ele>521.4</ele><time>2026-04-25T10:44:48.696Z</time></trkpt><trkpt lat="45.335745" lon="7.588995"><ele>525.5999999999999</ele><time>2026-04-25T10:44:49.696Z</time></trkpt><trkpt lat="45.3357667" lon="7.5891117"><ele>529.8</ele><time>2026-04-25T10:44:50.696Z</time></trkpt><trkpt lat="45.3357817" lon="7.589265"><ele>534.0</ele><time>2026-04-25T10:44:51.696Z</time></trkpt><trkpt lat="45.3357683" lon="7.58947"><ele>534.0</ele><time>2026-04-25T10:44:52.696Z</time></trkpt><trkpt lat="45.3357517" lon="7.5897033"><ele>534.0</ele><time>2026-04-25T10:44:53.696Z</time></trkpt><trkpt lat="45.3357333" lon="7.58994"><ele>534.0</ele><time>2026-04-25T10:44:54.696Z</time></trkpt><trkpt lat="45.33571" lon="7.5901533"><ele>534.0</ele><time>2026-04-25T10:44:55.696Z</time></trkpt><trkpt lat="45.3356933" lon="7.5903183"><ele>534.0</ele><time>2026-04-25T10:44:56.696Z</time></trkpt><trkpt lat="45.3356717" lon="7.5904267"><ele>534.0</ele><time>2026-04-25T10:44:57.696Z</time></trkpt><trkpt lat="45.3356383" lon="7.590545"><ele>534.0</ele><time>2026-04-25T10:44:59.696Z</time></trkpt><trkpt lat="45.3357067" lon="7.590565"><ele>534.0</ele><time>2026-04-25T10:45:04.696Z</time></trkpt><trkpt lat="45.335775" lon="7.590405"><ele>534.0</ele><time>2026-04-25T10:45:06.696Z</time></trkpt><trkpt lat="45.3358183" lon="7.5903033"><ele>534.0</ele><time>2026-04-25T10:45:07.696Z</time></trkpt><trkpt lat="45.3358667" lon="7.5902067"><ele>534.0</ele><time>2026-04-25T10:45:08.696Z</time></trkpt><trkpt lat="45.3359167" lon="7.590095"><ele>534.0</ele><time>2026-04-25T10:45:09.696Z</time></trkpt><trkpt lat="45.33596" lon="7.5899917"><ele>534.0</ele><time>2026-04-25T10:45:10.696Z</time></trkpt><trkpt lat="45.335995" lon="7.5899083"><ele>534.0</ele><time>2026-04-25T10:45:11.696Z</time></trkpt><trkpt lat="45.3360333" lon="7.5898333"><ele>534.0</ele><time>2026-04-25T10:45:12.696Z</time></trkpt><trkpt lat="45.3360817" lon="7.589755"><ele>534.0</ele><time>2026-04-25T10:45:13.696Z</time></trkpt><trkpt lat="45.3361317" lon="7.5896417"><ele>534.0</ele><time>2026-04-25T10:45:14.696Z</time></trkpt><trkpt lat="45.336195" lon="7.5895233"><ele>534.0</ele><time>2026-04-25T10:45:15.696Z</time></trkpt><trkpt lat="45.3362683" lon="7.5894067"><ele>534.0</ele><time>2026-04-25T10:45:16.696Z</time></trkpt><trkpt lat="45.33637" lon="7.5892833"><ele>536.5</ele><time>2026-04-25T10:45:17.696Z</time></trkpt><trkpt lat="45.336495" lon="7.5891733"><ele>539.0</ele><time>2026-04-25T10:45:18.696Z</time></trkpt><trkpt lat="45.3366117" lon="7.589085"><ele>541.5</ele><time>2026-04-25T10:45:19.696Z</time></trkpt><trkpt lat="45.336725" lon="7.5890017"><ele>544.0</ele><time>2026-04-25T10:45:20.696Z</time></trkpt><trkpt lat="45.3368283" lon="7.5889167"><ele>544.0</ele><time>2026-04-25T10:45:21.697Z</time></trkpt><trkpt lat="45.3369383" lon="7.5888283"><ele>544.0</ele><time>2026-04-25T10:45:22.696Z</time></trkpt><trkpt lat="45.337045" lon="7.58873"><ele>544.0</ele><time>2026-04-25T10:45:23.696Z</time></trkpt><trkpt lat="45.33716" lon="7.588615"><ele>544.0</ele><time>2026-04-25T10:45:24.696Z</time></trkpt><trkpt lat="45.3372633" lon="7.5884917"><ele>545.4</ele><time>2026-04-25T10:45:25.696Z</time></trkpt><trkpt lat="45.337355" lon="7.588385"><ele>546.8</ele><time>2026-04-25T10:45:26.696Z</time></trkpt><trkpt lat="45.3374433" lon="7.5882917"><ele>548.2</ele><time>2026-04-25T10:45:27.696Z</time></trkpt><trkpt lat="45.3375267" lon="7.5881967"><ele>549.6</ele><time>2026-04-25T10:45:28.696Z</time></trkpt><trkpt lat="45.3376117" lon="7.5880967"><ele>551.0</ele><time>2026-04-25T10:45:29.696Z</time></trkpt><trkpt lat="45.3376817" lon="7.5879917"><ele>551.0</ele><time>2026-04-25T10:45:30.696Z</time></trkpt><trkpt lat="45.3377467" lon="7.5879017"><ele>551.0</ele><time>2026-04-25T10:45:31.696Z</time></trkpt><trkpt lat="45.337805" lon="7.5878217"><ele>551.0</ele><time>2026-04-25T10:45:32.696Z</time></trkpt><trkpt lat="45.3378667" lon="7.5877567"><ele>551.0</ele><time>2026-04-25T10:45:33.696Z</time></trkpt><trkpt lat="45.337935" lon="7.5876883"><ele>551.0</ele><time>2026-04-25T10:45:34.696Z</time></trkpt><trkpt lat="45.3380083" lon="7.587615"><ele>551.0</ele><time>2026-04-25T10:45:35.696Z</time></trkpt><trkpt lat="45.3380967" lon="7.5875483"><ele>552.4</ele><time>2026-04-25T10:45:36.696Z</time></trkpt><trkpt lat="45.3381783" lon="7.5874633"><ele>553.8</ele><time>2026-04-25T10:45:37.696Z</time></trkpt><trkpt lat="45.3382617" lon="7.5873867"><ele>555.1999999999999</ele><time>2026-04-25T10:45:38.696Z</time></trkpt><trkpt lat="45.3383383" lon="7.58729"><ele>556.6</ele><time>2026-04-25T10:45:39.697Z</time></trkpt><trkpt lat="45.338405" lon="7.5871717"><ele>558.0</ele><time>2026-04-25T10:45:40.696Z</time></trkpt><trkpt lat="45.3384533" lon="7.5870367"><ele>558.5</ele><time>2026-04-25T10:45:41.696Z</time></trkpt><trkpt lat="45.3384967" lon="7.5869067"><ele>559.0</ele><time>2026-04-25T10:45:42.696Z</time></trkpt><trkpt lat="45.33854" lon="7.5868017"><ele>559.5</ele><time>2026-04-25T10:45:43.696Z</time></trkpt><trkpt lat="45.338585" lon="7.5867183"><ele>560.0</ele><time>2026-04-25T10:45:44.696Z</time></trkpt><trkpt lat="45.3386233" lon="7.5866467"><ele>560.5</ele><time>2026-04-25T10:45:45.696Z</time></trkpt><trkpt lat="45.33866" lon="7.5864867"><ele>561.0</ele><time>2026-04-25T10:45:47.696Z</time></trkpt><trkpt lat="45.3386567" lon="7.5863767"><ele>561.0</ele><time>2026-04-25T10:45:48.696Z</time></trkpt><trkpt lat="45.3386233" lon="7.5862683"><ele>561.0</ele><time>2026-04-25T10:45:49.696Z</time></trkpt><trkpt lat="45.3385767" lon="7.5861433"><ele>561.0</ele><time>2026-04-25T10:45:50.696Z</time></trkpt><trkpt lat="45.3385133" lon="7.5860283"><ele>561.0</ele><time>2026-04-25T10:45:51.696Z</time></trkpt><trkpt lat="45.3384683" lon="7.5859167"><ele>561.0</ele><time>2026-04-25T10:45:52.696Z</time></trkpt><trkpt lat="45.338435" lon="7.5858267"><ele>561.0</ele><time>2026-04-25T10:45:53.696Z</time></trkpt><trkpt lat="45.3384117" lon="7.585735"><ele>561.6</ele><time>2026-04-25T10:45:54.696Z</time></trkpt><trkpt lat="45.3384467" lon="7.58561"><ele>562.2</ele><time>2026-04-25T10:45:56.696Z</time></trkpt><trkpt lat="45.3384917" lon="7.5854833"><ele>562.8</ele><time>2026-04-25T10:45:58.696Z</time></trkpt><trkpt lat="45.3385267" lon="7.5853083"><ele>563.4</ele><time>2026-04-25T10:46:00.696Z</time></trkpt><trkpt lat="45.338535" lon="7.5852167"><ele>564.0</ele><time>2026-04-25T10:46:01.696Z</time></trkpt><trkpt lat="45.3385717" lon="7.585045"><ele>562.8333333333334</ele><time>2026-04-25T10:46:03.696Z</time></trkpt><trkpt lat="45.33861" lon="7.5849517"><ele>561.6666666666666</ele><time>2026-04-25T10:46:04.696Z</time></trkpt><trkpt lat="45.3386633" lon="7.5848717"><ele>560.5</ele><time>2026-04-25T10:46:05.696Z</time></trkpt><trkpt lat="45.33873" lon="7.58481"><ele>559.3333333333333</ele><time>2026-04-25T10:46:06.696Z</time></trkpt><trkpt lat="45.3388133" lon="7.58476"><ele>558.1666666666666</ele><time>2026-04-25T10:46:07.696Z</time></trkpt><trkpt lat="45.3388967" lon="7.584695"><ele>557.0</ele><time>2026-04-25T10:46:08.696Z</time></trkpt><trkpt lat="45.3389967" lon="7.584595"><ele>558.0</ele><time>2026-04-25T10:46:09.696Z</time></trkpt><trkpt lat="45.3390817" lon="7.5844667"><ele>559.0</ele><time>2026-04-25T10:46:10.696Z</time></trkpt><trkpt lat="45.3391567" lon="7.5843317"><ele>560.0</ele><time>2026-04-25T10:46:11.696Z</time></trkpt><trkpt lat="45.3392183" lon="7.5841917"><ele>561.0</ele><time>2026-04-25T10:46:12.697Z</time></trkpt><trkpt lat="45.3392683" lon="7.5840533"><ele>561.0</ele><time>2026-04-25T10:46:13.696Z</time></trkpt><trkpt lat="45.3393067" lon="7.583915"><ele>561.0</ele><time>2026-04-25T10:46:14.696Z</time></trkpt><trkpt lat="45.339335" lon="7.5837717"><ele>561.0</ele><time>2026-04-25T10:46:15.696Z</time></trkpt><trkpt lat="45.339365" lon="7.58362"><ele>561.0</ele><time>2026-04-25T10:46:16.696Z</time></trkpt><trkpt lat="45.3394083" lon="7.5834883"><ele>561.0</ele><time>2026-04-25T10:46:17.696Z</time></trkpt><trkpt lat="45.3394533" lon="7.5833617"><ele>559.25</ele><time>2026-04-25T10:46:18.696Z</time></trkpt><trkpt lat="45.3394967" lon="7.583245"><ele>557.5</ele><time>2026-04-25T10:46:19.696Z</time></trkpt><trkpt lat="45.33955" lon="7.5831283"><ele>555.75</ele><time>2026-04-25T10:46:20.696Z</time></trkpt><trkpt lat="45.3396267" lon="7.5828617"><ele>554.0</ele><time>2026-04-25T10:46:22.696Z</time></trkpt><trkpt lat="45.3396367" lon="7.5827383"><ele>554.0</ele><time>2026-04-25T10:46:23.696Z</time></trkpt><trkpt lat="45.3396333" lon="7.5826133"><ele>554.0</ele><time>2026-04-25T10:46:24.696Z</time></trkpt><trkpt lat="45.3396267" lon="7.5824883"><ele>554.0</ele><time>2026-04-25T10:46:25.696Z</time></trkpt><trkpt lat="45.33963" lon="7.58236"><ele>554.0</ele><time>2026-04-25T10:46:26.695Z</time></trkpt><trkpt lat="45.33965" lon="7.5822317"><ele>554.0</ele><time>2026-04-25T10:46:27.695Z</time></trkpt><trkpt lat="45.339675" lon="7.5821167"><ele>554.0</ele><time>2026-04-25T10:46:28.695Z</time></trkpt><trkpt lat="45.3397233" lon="7.58202"><ele>556.3333333333333</ele><time>2026-04-25T10:46:29.695Z</time></trkpt><trkpt lat="45.339755" lon="7.5819283"><ele>558.6666666666666</ele><time>2026-04-25T10:46:30.695Z</time></trkpt><trkpt lat="45.3397617" lon="7.5817833"><ele>561.0</ele><time>2026-04-25T10:46:32.695Z</time></trkpt><trkpt lat="45.3397033" lon="7.58165"><ele>563.3333333333334</ele><time>2026-04-25T10:46:34.695Z</time></trkpt><trkpt lat="45.3396783" lon="7.58156"><ele>565.6666666666667</ele><time>2026-04-25T10:46:35.695Z</time></trkpt><trkpt lat="45.3396683" lon="7.5814433"><ele>568.0</ele><time>2026-04-25T10:46:36.695Z</time></trkpt><trkpt lat="45.33965" lon="7.5813183"><ele>568.1428571428571</ele><time>2026-04-25T10:46:37.695Z</time></trkpt><trkpt lat="45.33962" lon="7.5812"><ele>568.2857142857142</ele><time>2026-04-25T10:46:38.695Z</time></trkpt><trkpt lat="45.3395833" lon="7.5811083"><ele>568.4285714285714</ele><time>2026-04-25T10:46:39.695Z</time></trkpt><trkpt lat="45.33953" lon="7.5810217"><ele>568.5714285714286</ele><time>2026-04-25T10:46:40.695Z</time></trkpt><trkpt lat="45.3394883" lon="7.58094"><ele>568.7142857142858</ele><time>2026-04-25T10:46:41.695Z</time></trkpt><trkpt lat="45.339455" lon="7.58085"><ele>568.8571428571429</ele><time>2026-04-25T10:46:42.696Z</time></trkpt><trkpt lat="45.3394433" lon="7.5807617"><ele>569.0</ele><time>2026-04-25T10:46:43.695Z</time></trkpt><trkpt lat="45.33944" lon="7.5806517"><ele>571.2</ele><time>2026-04-25T10:46:44.695Z</time></trkpt><trkpt lat="45.339445" lon="7.580525"><ele>573.4</ele><time>2026-04-25T10:46:45.695Z</time></trkpt><trkpt lat="45.3394517" lon="7.58039"><ele>575.6</ele><time>2026-04-25T10:46:46.696Z</time></trkpt><trkpt lat="45.3394583" lon="7.5802567"><ele>577.8</ele><time>2026-04-25T10:46:47.695Z</time></trkpt><trkpt lat="45.3394767" lon="7.5801317"><ele>580.0</ele><time>2026-04-25T10:46:48.695Z</time></trkpt><trkpt lat="45.3395033" lon="7.5799967"><ele>581.8</ele><time>2026-04-25T10:46:49.695Z</time></trkpt><trkpt lat="45.3395233" lon="7.57986"><ele>583.6</ele><time>2026-04-25T10:46:50.695Z</time></trkpt><trkpt lat="45.3395417" lon="7.5797017"><ele>585.4</ele><time>2026-04-25T10:46:51.695Z</time></trkpt><trkpt lat="45.33954" lon="7.5795317"><ele>587.2</ele><time>2026-04-25T10:46:52.695Z</time></trkpt><trkpt lat="45.3395333" lon="7.5793783"><ele>589.0</ele><time>2026-04-25T10:46:53.695Z</time></trkpt><trkpt lat="45.3395117" lon="7.5792533"><ele>589.6666666666667</ele><time>2026-04-25T10:46:54.695Z</time></trkpt><trkpt lat="45.339485" lon="7.5791583"><ele>590.3333333333334</ele><time>2026-04-25T10:46:55.695Z</time></trkpt><trkpt lat="45.3394267" lon="7.5790717"><ele>591.0</ele><time>2026-04-25T10:46:56.695Z</time></trkpt><trkpt lat="45.33938" lon="7.5789967"><ele>591.6666666666666</ele><time>2026-04-25T10:46:57.695Z</time></trkpt><trkpt lat="45.3393017" lon="7.5788867"><ele>592.3333333333333</ele><time>2026-04-25T10:46:59.695Z</time></trkpt><trkpt lat="45.3392217" lon="7.578855"><ele>593.0</ele><time>2026-04-25T10:47:01.695Z</time></trkpt><trkpt lat="45.3391667" lon="7.5789417"><ele>593.0</ele><time>2026-04-25T10:47:03.695Z</time></trkpt><trkpt lat="45.3391617" lon="7.5790467"><ele>593.0</ele><time>2026-04-25T10:47:04.695Z</time></trkpt><trkpt lat="45.339155" lon="7.5791767"><ele>593.0</ele><time>2026-04-25T10:47:05.695Z</time></trkpt><trkpt lat="45.3391483" lon="7.579315"><ele>593.0</ele><time>2026-04-25T10:47:06.695Z</time></trkpt><trkpt lat="45.3391383" lon="7.579445"><ele>593.0</ele><time>2026-04-25T10:47:07.695Z</time></trkpt><trkpt lat="45.3391233" lon="7.579565"><ele>593.0</ele><time>2026-04-25T10:47:08.695Z</time></trkpt><trkpt lat="45.3390883" lon="7.5796583"><ele>592.3333333333333</ele><time>2026-04-25T10:47:09.695Z</time></trkpt><trkpt lat="45.3390383" lon="7.57974"><ele>591.6666666666666</ele><time>2026-04-25T10:47:10.695Z</time></trkpt><trkpt lat="45.3389767" lon="7.579805"><ele>591.0</ele><time>2026-04-25T10:47:11.695Z</time></trkpt><trkpt lat="45.338895" lon="7.57986"><ele>590.3333333333334</ele><time>2026-04-25T10:47:12.695Z</time></trkpt><trkpt lat="45.3388233" lon="7.5798833"><ele>589.6666666666667</ele><time>2026-04-25T10:47:13.695Z</time></trkpt><trkpt lat="45.33873" lon="7.5799083"><ele>589.0</ele><time>2026-04-25T10:47:14.695Z</time></trkpt><trkpt lat="45.3386583" lon="7.5799367"><ele>593.4</ele><time>2026-04-25T10:47:15.695Z</time></trkpt><trkpt lat="45.3385967" lon="7.5799633"><ele>597.8</ele><time>2026-04-25T10:47:16.695Z</time></trkpt><trkpt lat="45.3384883" lon="7.5799617"><ele>602.2</ele><time>2026-04-25T10:47:18.695Z</time></trkpt><trkpt lat="45.33844" lon="7.5798883"><ele>606.6</ele><time>2026-04-25T10:47:20.695Z</time></trkpt><trkpt lat="45.3385117" lon="7.57969"><ele>611.0</ele><time>2026-04-25T10:47:22.695Z</time></trkpt><trkpt lat="45.3385683" lon="7.579565"><ele>611.4</ele><time>2026-04-25T10:47:23.695Z</time></trkpt><trkpt lat="45.3386" lon="7.5794283"><ele>611.8</ele><time>2026-04-25T10:47:24.695Z</time></trkpt><trkpt lat="45.338625" lon="7.5792933"><ele>612.1999999999999</ele><time>2026-04-25T10:47:25.695Z</time></trkpt><trkpt lat="45.3386333" lon="7.5791867"><ele>612.6</ele><time>2026-04-25T10:47:26.695Z</time></trkpt><trkpt lat="45.3386333" lon="7.5790933"><ele>613.0</ele><time>2026-04-25T10:47:27.695Z</time></trkpt><trkpt lat="45.338525" lon="7.5790067"><ele>613.0</ele><time>2026-04-25T10:47:29.695Z</time></trkpt><trkpt lat="45.338455" lon="7.5790283"><ele>613.0</ele><time>2026-04-25T10:47:30.695Z</time></trkpt><trkpt lat="45.338375" lon="7.5790833"><ele>613.0</ele><time>2026-04-25T10:47:31.695Z</time></trkpt><trkpt lat="45.3382717" lon="7.5791583"><ele>613.0</ele><time>2026-04-25T10:47:32.695Z</time></trkpt><trkpt lat="45.3381583" lon="7.579235"><ele>613.0</ele><time>2026-04-25T10:47:33.695Z</time></trkpt><trkpt lat="45.3380533" lon="7.57927"><ele>617.0</ele><time>2026-04-25T10:47:34.696Z</time></trkpt><trkpt lat="45.3379417" lon="7.57928"><ele>621.0</ele><time>2026-04-25T10:47:35.696Z</time></trkpt><trkpt lat="45.337835" lon="7.5792733"><ele>625.0</ele><time>2026-04-25T10:47:36.695Z</time></trkpt><trkpt lat="45.3377317" lon="7.5792467"><ele>629.0</ele><time>2026-04-25T10:47:37.695Z</time></trkpt><trkpt lat="45.3376117" lon="7.5791983"><ele>633.0</ele><time>2026-04-25T10:47:38.695Z</time></trkpt><trkpt lat="45.3374933" lon="7.5791267"><ele>633.0</ele><time>2026-04-25T10:47:39.695Z</time></trkpt><trkpt lat="45.337375" lon="7.5790483"><ele>633.0</ele><time>2026-04-25T10:47:40.695Z</time></trkpt><trkpt lat="45.33729" lon="7.5789833"><ele>633.0</ele><time>2026-04-25T10:47:41.695Z</time></trkpt><trkpt lat="45.3372" lon="7.5789183"><ele>633.0</ele><time>2026-04-25T10:47:42.695Z</time></trkpt><trkpt lat="45.3371033" lon="7.5788633"><ele>633.0</ele><time>2026-04-25T10:47:43.695Z</time></trkpt><trkpt lat="45.3370367" lon="7.578815"><ele>638.2</ele><time>2026-04-25T10:47:44.695Z</time></trkpt><trkpt lat="45.3369267" lon="7.57878"><ele>643.4</ele><time>2026-04-25T10:47:46.695Z</time></trkpt><trkpt lat="45.3368717" lon="7.5788633"><ele>648.6</ele><time>2026-04-25T10:47:48.695Z</time></trkpt><trkpt lat="45.33691" lon="7.579055"><ele>653.8000000000001</ele><time>2026-04-25T10:47:50.695Z</time></trkpt><trkpt lat="45.3369467" lon="7.5791783"><ele>659.0</ele><time>2026-04-25T10:47:51.695Z</time></trkpt><trkpt lat="45.3369733" lon="7.5792933"><ele>659.0</ele><time>2026-04-25T10:47:52.695Z</time></trkpt><trkpt lat="45.3369917" lon="7.5794233"><ele>659.0</ele><time>2026-04-25T10:47:53.695Z</time></trkpt><trkpt lat="45.336995" lon="7.5795617"><ele>659.0</ele><time>2026-04-25T10:47:54.695Z</time></trkpt><trkpt lat="45.336975" lon="7.5797033"><ele>659.0</ele><time>2026-04-25T10:47:55.695Z</time></trkpt><trkpt lat="45.3369567" lon="7.5798583"><ele>659.0</ele><time>2026-04-25T10:47:56.695Z</time></trkpt><trkpt lat="45.33693" lon="7.5800033"><ele>659.6</ele><time>2026-04-25T10:47:57.696Z</time></trkpt><trkpt lat="45.3368867" lon="7.5801383"><ele>660.2</ele><time>2026-04-25T10:47:58.695Z</time></trkpt><trkpt lat="45.3368233" lon="7.5802717"><ele>660.8000000000001</ele><time>2026-04-25T10:47:59.695Z</time></trkpt><trkpt lat="45.3367633" lon="7.580395"><ele>661.4000000000001</ele><time>2026-04-25T10:48:00.695Z</time></trkpt><trkpt lat="45.3367217" lon="7.5805133"><ele>662.0</ele><time>2026-04-25T10:48:01.695Z</time></trkpt><trkpt lat="45.3366933" lon="7.5806067"><ele>662.0</ele><time>2026-04-25T10:48:02.695Z</time></trkpt><trkpt lat="45.336675" lon="7.5807283"><ele>662.0</ele><time>2026-04-25T10:48:04.695Z</time></trkpt><trkpt lat="45.33666" lon="7.580855"><ele>662.0</ele><time>2026-04-25T10:48:06.695Z</time></trkpt><trkpt lat="45.3366233" lon="7.58098"><ele>662.0</ele><time>2026-04-25T10:48:08.695Z</time></trkpt><trkpt lat="45.3365467" lon="7.5811233"><ele>662.0</ele><time>2026-04-25T10:48:10.695Z</time></trkpt><trkpt lat="45.3364717" lon="7.5811933"><ele>664.8</ele><time>2026-04-25T10:48:11.695Z</time></trkpt><trkpt lat="45.3363767" lon="7.5812533"><ele>667.6</ele><time>2026-04-25T10:48:12.695Z</time></trkpt><trkpt lat="45.336285" lon="7.581325"><ele>670.4</ele><time>2026-04-25T10:48:13.695Z</time></trkpt><trkpt lat="45.3362033" lon="7.5814"><ele>673.1999999999999</ele><time>2026-04-25T10:48:14.695Z</time></trkpt><trkpt lat="45.33615" lon="7.5814733"><ele>676.0</ele><time>2026-04-25T10:48:15.695Z</time></trkpt><trkpt lat="45.33608" lon="7.581605"><ele>676.0</ele><time>2026-04-25T10:48:17.695Z</time></trkpt><trkpt lat="45.3360217" lon="7.5817483"><ele>676.0</ele><time>2026-04-25T10:48:19.695Z</time></trkpt><trkpt lat="45.3359533" lon="7.5818633"><ele>676.0</ele><time>2026-04-25T10:48:21.695Z</time></trkpt><trkpt lat="45.3358833" lon="7.5819883"><ele>676.0</ele><time>2026-04-25T10:48:23.695Z</time></trkpt><trkpt lat="45.3357917" lon="7.582095"><ele>674.6666666666667</ele><time>2026-04-25T10:48:25.695Z</time></trkpt><trkpt lat="45.3356933" lon="7.58214"><ele>673.3333333333334</ele><time>2026-04-25T10:48:27.695Z</time></trkpt><trkpt lat="45.3356283" lon="7.5821117"><ele>672.0</ele><time>2026-04-25T10:48:28.695Z</time></trkpt><trkpt lat="45.335565" lon="7.58205"><ele>670.6666666666666</ele><time>2026-04-25T10:48:29.695Z</time></trkpt><trkpt lat="45.3355167" lon="7.5819667"><ele>669.3333333333333</ele><time>2026-04-25T10:48:30.695Z</time></trkpt><trkpt lat="45.3354767" lon="7.5818683"><ele>668.0</ele><time>2026-04-25T10:48:31.695Z</time></trkpt><trkpt lat="45.3354433" lon="7.5817783"><ele>668.0</ele><time>2026-04-25T10:48:32.695Z</time></trkpt><trkpt lat="45.335435" lon="7.58165"><ele>668.0</ele><time>2026-04-25T10:48:34.695Z</time></trkpt><trkpt lat="45.335505" lon="7.5815717"><ele>668.0</ele><time>2026-04-25T10:48:36.695Z</time></trkpt><trkpt lat="45.33562" lon="7.58156"><ele>668.0</ele><time>2026-04-25T10:48:38.695Z</time></trkpt><trkpt lat="45.335715" lon="7.5815"><ele>668.0</ele><time>2026-04-25T10:48:40.695Z</time></trkpt><trkpt lat="45.3357467" lon="7.581415"><ele>669.3333333333333</ele><time>2026-04-25T10:48:41.695Z</time></trkpt><trkpt lat="45.3357483" lon="7.5813017"><ele>670.6666666666666</ele><time>2026-04-25T10:48:42.695Z</time></trkpt><trkpt lat="45.3357367" lon="7.5811833"><ele>672.0</ele><time>2026-04-25T10:48:43.695Z</time></trkpt><trkpt lat="45.3357283" lon="7.58106"><ele>673.3333333333334</ele><time>2026-04-25T10:48:44.695Z</time></trkpt><trkpt lat="45.3357167" lon="7.5809317"><ele>674.6666666666667</ele><time>2026-04-25T10:48:45.695Z</time></trkpt><trkpt lat="45.3357067" lon="7.5808"><ele>676.0</ele><time>2026-04-25T10:48:46.695Z</time></trkpt><trkpt lat="45.3357067" lon="7.5806933"><ele>678.1666666666667</ele><time>2026-04-25T10:48:47.695Z</time></trkpt><trkpt lat="45.335725" lon="7.5805867"><ele>680.3333333333334</ele><time>2026-04-25T10:48:48.695Z</time></trkpt><trkpt lat="45.3357617" lon="7.58049"><ele>682.5</ele><time>2026-04-25T10:48:49.695Z</time></trkpt><trkpt lat="45.3358133" lon="7.58042"><ele>684.6666666666666</ele><time>2026-04-25T10:48:50.695Z</time></trkpt><trkpt lat="45.3358567" lon="7.5803517"><ele>686.8333333333333</ele><time>2026-04-25T10:48:51.696Z</time></trkpt><trkpt lat="45.3358983" lon="7.5802283"><ele>689.0</ele><time>2026-04-25T10:48:53.695Z</time></trkpt><trkpt lat="45.335865" lon="7.5801467"><ele>689.0</ele><time>2026-04-25T10:48:55.695Z</time></trkpt><trkpt lat="45.33579" lon="7.5802033"><ele>689.0</ele><time>2026-04-25T10:48:57.696Z</time></trkpt><trkpt lat="45.335715" lon="7.5803217"><ele>689.0</ele><time>2026-04-25T10:48:59.695Z</time></trkpt><trkpt lat="45.3356167" lon="7.580415"><ele>689.0</ele><time>2026-04-25T10:49:01.695Z</time></trkpt><trkpt lat="45.3355533" lon="7.5804533"><ele>689.0</ele><time>2026-04-25T10:49:02.695Z</time></trkpt><trkpt lat="45.3354883" lon="7.5804967"><ele>690.3333333333333</ele><time>2026-04-25T10:49:03.695Z</time></trkpt><trkpt lat="45.3354233" lon="7.5805433"><ele>691.6666666666666</ele><time>2026-04-25T10:49:04.695Z</time></trkpt><trkpt lat="45.3353667" lon="7.5805867"><ele>693.0</ele><time>2026-04-25T10:49:05.695Z</time></trkpt><trkpt lat="45.3353083" lon="7.5806283"><ele>694.3333333333334</ele><time>2026-04-25T10:49:06.695Z</time></trkpt><trkpt lat="45.3352467" lon="7.5806567"><ele>695.6666666666667</ele><time>2026-04-25T10:49:07.695Z</time></trkpt><trkpt lat="45.3351233" lon="7.5806733"><ele>697.0</ele><time>2026-04-25T10:49:09.695Z</time></trkpt><trkpt lat="45.3350067" lon="7.5806"><ele>697.0</ele><time>2026-04-25T10:49:11.695Z</time></trkpt><trkpt lat="45.33496" lon="7.5805317"><ele>697.0</ele><time>2026-04-25T10:49:12.695Z</time></trkpt><trkpt lat="45.334915" lon="7.5804667"><ele>697.0</ele><time>2026-04-25T10:49:13.695Z</time></trkpt><trkpt lat="45.334875" lon="7.5803917"><ele>697.0</ele><time>2026-04-25T10:49:14.695Z</time></trkpt><trkpt lat="45.334835" lon="7.580315"><ele>697.0</ele><time>2026-04-25T10:49:15.695Z</time></trkpt><trkpt lat="45.3347567" lon="7.5801983"><ele>697.0</ele><time>2026-04-25T10:49:17.695Z</time></trkpt><trkpt lat="45.3346767" lon="7.5800517"><ele>699.0</ele><time>2026-04-25T10:49:19.695Z</time></trkpt><trkpt lat="45.3346283" lon="7.5799717"><ele>701.0</ele><time>2026-04-25T10:49:20.695Z</time></trkpt><trkpt lat="45.3345617" lon="7.5798183"><ele>703.0</ele><time>2026-04-25T10:49:22.695Z</time></trkpt><trkpt lat="45.33453" lon="7.57974"><ele>705.0</ele><time>2026-04-25T10:49:23.695Z</time></trkpt><trkpt lat="45.3344933" lon="7.579655"><ele>707.0</ele><time>2026-04-25T10:49:24.695Z</time></trkpt><trkpt lat="45.3344517" lon="7.5795733"><ele>709.0</ele><time>2026-04-25T10:49:25.695Z</time></trkpt><trkpt lat="45.3343817" lon="7.5794267"><ele>712.4000000000001</ele><time>2026-04-25T10:49:27.695Z</time></trkpt><trkpt lat="45.3343483" lon="7.579295"><ele>715.8</ele><time>2026-04-25T10:49:29.695Z</time></trkpt><trkpt lat="45.3343767" lon="7.5791767"><ele>719.2</ele><time>2026-04-25T10:49:31.695Z</time></trkpt><trkpt lat="45.334455" lon="7.5791433"><ele>722.5999999999999</ele><time>2026-04-25T10:49:33.696Z</time></trkpt><trkpt lat="45.3345783" lon="7.5791883"><ele>726.0</ele><time>2026-04-25T10:49:35.695Z</time></trkpt><trkpt lat="45.33463" lon="7.579245"><ele>726.0</ele><time>2026-04-25T10:49:36.695Z</time></trkpt><trkpt lat="45.3347133" lon="7.57934"><ele>726.0</ele><time>2026-04-25T10:49:38.695Z</time></trkpt><trkpt lat="45.3347717" lon="7.5794183"><ele>726.0</ele><time>2026-04-25T10:49:40.695Z</time></trkpt><trkpt lat="45.33483" lon="7.5795133"><ele>726.0</ele><time>2026-04-25T10:49:42.695Z</time></trkpt><trkpt lat="45.334865" lon="7.5796117"><ele>726.0</ele><time>2026-04-25T10:49:44.695Z</time></trkpt><trkpt lat="45.3347633" lon="7.5795367"><ele>726.0</ele><time>2026-04-25T10:58:18.706Z</time></trkpt><trkpt lat="45.3347267" lon="7.5794067"><ele>726.0</ele><time>2026-04-25T10:58:20.706Z</time></trkpt><trkpt lat="45.3346933" lon="7.5793217"><ele>726.0</ele><time>2026-04-25T10:58:21.706Z</time></trkpt><trkpt lat="45.33464" lon="7.57924"><ele>726.0</ele><time>2026-04-25T10:58:22.706Z</time></trkpt><trkpt lat="45.3345717" lon="7.5791617"><ele>726.0</ele><time>2026-04-25T10:58:23.706Z</time></trkpt><trkpt lat="45.334515" lon="7.5790983"><ele>726.0</ele><time>2026-04-25T10:58:24.706Z</time></trkpt><trkpt lat="45.3344617" lon="7.5790433"><ele>726.0</ele><time>2026-04-25T10:58:25.706Z</time></trkpt><trkpt lat="45.3344083" lon="7.5789783"><ele>726.0</ele><time>2026-04-25T10:58:26.706Z</time></trkpt><trkpt lat="45.33436" lon="7.5789167"><ele>726.0</ele><time>2026-04-25T10:58:27.706Z</time></trkpt><trkpt lat="45.33427" lon="7.5788333"><ele>726.0</ele><time>2026-04-25T10:58:29.706Z</time></trkpt><trkpt lat="45.3342" lon="7.5788433"><ele>726.0</ele><time>2026-04-25T10:58:32.706Z</time></trkpt><trkpt lat="45.3342283" lon="7.57895"><ele>726.0</ele><time>2026-04-25T10:58:35.706Z</time></trkpt><trkpt lat="45.3342683" lon="7.57903"><ele>726.0</ele><time>2026-04-25T10:58:37.707Z</time></trkpt><trkpt lat="45.3343067" lon="7.5791283"><ele>726.0</ele><time>2026-04-25T10:58:39.706Z</time></trkpt><trkpt lat="45.33433" lon="7.57923"><ele>726.0</ele><time>2026-04-25T10:58:41.706Z</time></trkpt><trkpt lat="45.334365" lon="7.5793467"><ele>726.0</ele><time>2026-04-25T10:58:43.706Z</time></trkpt><trkpt lat="45.33441" lon="7.579475"><ele>726.0</ele><time>2026-04-25T10:58:45.706Z</time></trkpt><trkpt lat="45.334465" lon="7.5796"><ele>726.0</ele><time>2026-04-25T10:58:47.706Z</time></trkpt><trkpt lat="45.334515" lon="7.57973"><ele>724.9999999999999</ele><time>2026-04-25T10:58:49.706Z</time></trkpt><trkpt lat="45.3345683" lon="7.5798717"><ele>724.0</ele><time>2026-04-25T10:58:51.706Z</time></trkpt><trkpt lat="45.3346067" lon="7.5799433"><ele>723.0</ele><time>2026-04-25T10:58:52.706Z</time></trkpt><trkpt lat="45.33465" lon="7.5800183"><ele>722.0</ele><time>2026-04-25T10:58:53.706Z</time></trkpt><trkpt lat="45.3346967" lon="7.5800883"><ele>721.0</ele><time>2026-04-25T10:58:54.706Z</time></trkpt><trkpt lat="45.33475" lon="7.5801583"><ele>719.9999999999999</ele><time>2026-04-25T10:58:55.706Z</time></trkpt><trkpt lat="45.3347933" lon="7.580225"><ele>719.0</ele><time>2026-04-25T10:58:56.706Z</time></trkpt><trkpt lat="45.3348733" lon="7.58034"><ele>714.6</ele><time>2026-04-25T10:58:58.706Z</time></trkpt><trkpt lat="45.334925" lon="7.580455"><ele>710.2</ele><time>2026-04-25T10:59:00.706Z</time></trkpt><trkpt lat="45.3349883" lon="7.5805733"><ele>705.8000000000001</ele><time>2026-04-25T10:59:02.706Z</time></trkpt><trkpt lat="45.33507" lon="7.5806517"><ele>701.4000000000001</ele><time>2026-04-25T10:59:04.706Z</time></trkpt><trkpt lat="45.335175" lon="7.580675"><ele>697.0</ele><time>2026-04-25T10:59:06.705Z</time></trkpt><trkpt lat="45.3352817" lon="7.5806317"><ele>697.0</ele><time>2026-04-25T10:59:08.705Z</time></trkpt><trkpt lat="45.33538" lon="7.5805567"><ele>697.0</ele><time>2026-04-25T10:59:10.705Z</time></trkpt><trkpt lat="45.3354767" lon="7.580475"><ele>697.0</ele><time>2026-04-25T10:59:12.706Z</time></trkpt><trkpt lat="45.3355783" lon="7.5803967"><ele>697.0</ele><time>2026-04-25T10:59:14.705Z</time></trkpt><trkpt lat="45.3356717" lon="7.5803183"><ele>697.0</ele><time>2026-04-25T10:59:16.705Z</time></trkpt><trkpt lat="45.3357383" lon="7.58023"><ele>698.0</ele><time>2026-04-25T10:59:18.705Z</time></trkpt><trkpt lat="45.3357967" lon="7.580165"><ele>699.0</ele><time>2026-04-25T10:59:20.705Z</time></trkpt><trkpt lat="45.335865" lon="7.580145"><ele>700.0</ele><time>2026-04-25T10:59:22.705Z</time></trkpt><trkpt lat="45.33588" lon="7.5802867"><ele>701.0</ele><time>2026-04-25T10:59:25.705Z</time></trkpt><trkpt lat="45.3358133" lon="7.5804183"><ele>702.0</ele><time>2026-04-25T10:59:27.705Z</time></trkpt><trkpt lat="45.335735" lon="7.5805217"><ele>699.8333333333334</ele><time>2026-04-25T10:59:29.705Z</time></trkpt><trkpt lat="45.3356867" lon="7.580645"><ele>697.6666666666666</ele><time>2026-04-25T10:59:31.705Z</time></trkpt><trkpt lat="45.3356783" lon="7.5808"><ele>695.5</ele><time>2026-04-25T10:59:33.705Z</time></trkpt><trkpt lat="45.3356867" lon="7.5808983"><ele>693.3333333333333</ele><time>2026-04-25T10:59:34.705Z</time></trkpt><trkpt lat="45.3356967" lon="7.5809883"><ele>691.1666666666666</ele><time>2026-04-25T10:59:35.705Z</time></trkpt><trkpt lat="45.3357033" lon="7.5810817"><ele>689.0</ele><time>2026-04-25T10:59:36.705Z</time></trkpt><trkpt lat="45.3357083" lon="7.581235"><ele>686.4000000000001</ele><time>2026-04-25T10:59:38.705Z</time></trkpt><trkpt lat="45.3357233" lon="7.5813633"><ele>683.8</ele><time>2026-04-25T10:59:40.705Z</time></trkpt><trkpt lat="45.33571" lon="7.5814967"><ele>681.2</ele><time>2026-04-25T10:59:42.705Z</time></trkpt><trkpt lat="45.3356417" lon="7.5816033"><ele>678.5999999999999</ele><time>2026-04-25T10:59:44.705Z</time></trkpt><trkpt lat="45.3355267" lon="7.5816033"><ele>676.0</ele><time>2026-04-25T10:59:46.705Z</time></trkpt><trkpt lat="45.3354433" lon="7.5816317"><ele>676.0</ele><time>2026-04-25T10:59:48.705Z</time></trkpt><trkpt lat="45.3354367" lon="7.5817333"><ele>676.0</ele><time>2026-04-25T10:59:50.705Z</time></trkpt><trkpt lat="45.33549" lon="7.581885"><ele>676.0</ele><time>2026-04-25T10:59:52.705Z</time></trkpt><trkpt lat="45.3355617" lon="7.58201"><ele>676.0</ele><time>2026-04-25T10:59:54.705Z</time></trkpt><trkpt lat="45.335655" lon="7.5821017"><ele>676.0</ele><time>2026-04-25T10:59:56.705Z</time></trkpt><trkpt lat="45.3357617" lon="7.5821067"><ele>676.0</ele><time>2026-04-25T10:59:58.705Z</time></trkpt><trkpt lat="45.335855" lon="7.5820583"><ele>676.0</ele><time>2026-04-25T11:00:00.705Z</time></trkpt><trkpt lat="45.335955" lon="7.58193"><ele>676.0</ele><time>2026-04-25T11:00:02.705Z</time></trkpt><trkpt lat="45.336005" lon="7.5818533"><ele>676.0</ele><time>2026-04-25T11:00:03.705Z</time></trkpt><trkpt lat="45.336055" lon="7.5817733"><ele>676.0</ele><time>2026-04-25T11:00:04.705Z</time></trkpt><trkpt lat="45.3360983" lon="7.58169"><ele>676.0</ele><time>2026-04-25T11:00:05.705Z</time></trkpt><trkpt lat="45.3361333" lon="7.5815983"><ele>676.0</ele><time>2026-04-25T11:00:06.705Z</time></trkpt><trkpt lat="45.3361667" lon="7.5815133"><ele>676.0</ele><time>2026-04-25T11:00:07.705Z</time></trkpt><trkpt lat="45.3362083" lon="7.5814267"><ele>676.0</ele><time>2026-04-25T11:00:08.705Z</time></trkpt><trkpt lat="45.336245" lon="7.5813483"><ele>676.0</ele><time>2026-04-25T11:00:09.706Z</time></trkpt><trkpt lat="45.3362933" lon="7.5812833"><ele>676.0</ele><time>2026-04-25T11:00:10.705Z</time></trkpt><trkpt lat="45.336345" lon="7.581225"><ele>676.0</ele><time>2026-04-25T11:00:11.705Z</time></trkpt><trkpt lat="45.33645" lon="7.581165"><ele>673.6666666666667</ele><time>2026-04-25T11:00:13.705Z</time></trkpt><trkpt lat="45.33656" lon="7.58108"><ele>671.3333333333334</ele><time>2026-04-25T11:00:15.706Z</time></trkpt><trkpt lat="45.3366033" lon="7.5810133"><ele>669.0</ele><time>2026-04-25T11:00:16.705Z</time></trkpt><trkpt lat="45.33664" lon="7.5809217"><ele>666.6666666666666</ele><time>2026-04-25T11:00:17.705Z</time></trkpt><trkpt lat="45.3366733" lon="7.5808183"><ele>664.3333333333333</ele><time>2026-04-25T11:00:18.705Z</time></trkpt><trkpt lat="45.3366933" lon="7.5807117"><ele>662.0</ele><time>2026-04-25T11:00:19.705Z</time></trkpt><trkpt lat="45.3367067" lon="7.5805967"><ele>662.0</ele><time>2026-04-25T11:00:20.705Z</time></trkpt><trkpt lat="45.3367283" lon="7.5804783"><ele>662.0</ele><time>2026-04-25T11:00:21.705Z</time></trkpt><trkpt lat="45.33676" lon="7.5803717"><ele>662.0</ele><time>2026-04-25T11:00:22.705Z</time></trkpt><trkpt lat="45.3368067" lon="7.5802583"><ele>662.0</ele><time>2026-04-25T11:00:23.705Z</time></trkpt><trkpt lat="45.3368583" lon="7.5801533"><ele>662.0</ele><time>2026-04-25T11:00:24.705Z</time></trkpt><trkpt lat="45.3369017" lon="7.5800533"><ele>662.0</ele><time>2026-04-25T11:00:25.705Z</time></trkpt><trkpt lat="45.3369317" lon="7.57996"><ele>662.2857142857143</ele><time>2026-04-25T11:00:26.705Z</time></trkpt><trkpt lat="45.3369483" lon="7.5798633"><ele>662.5714285714286</ele><time>2026-04-25T11:00:27.705Z</time></trkpt><trkpt lat="45.336965" lon="7.579755"><ele>662.8571428571429</ele><time>2026-04-25T11:00:28.705Z</time></trkpt><trkpt lat="45.3369883" lon="7.579645"><ele>663.1428571428571</ele><time>2026-04-25T11:00:29.705Z</time></trkpt><trkpt lat="45.3370083" lon="7.5795467"><ele>663.4285714285714</ele><time>2026-04-25T11:00:30.705Z</time></trkpt><trkpt lat="45.3370117" lon="7.5794433"><ele>663.7142857142857</ele><time>2026-04-25T11:00:31.705Z</time></trkpt><trkpt lat="45.3370033" lon="7.5793417"><ele>664.0</ele><time>2026-04-25T11:00:32.706Z</time></trkpt><trkpt lat="45.3369817" lon="7.5791567"><ele>663.1666666666667</ele><time>2026-04-25T11:00:34.705Z</time></trkpt><trkpt lat="45.3369567" lon="7.5790683"><ele>662.3333333333334</ele><time>2026-04-25T11:00:35.705Z</time></trkpt><trkpt lat="45.3369067" lon="7.578925"><ele>661.5</ele><time>2026-04-25T11:00:37.705Z</time></trkpt><trkpt lat="45.33692" lon="7.578815"><ele>660.6666666666666</ele><time>2026-04-25T11:00:39.705Z</time></trkpt><trkpt lat="45.3370017" lon="7.578805"><ele>659.8333333333333</ele><time>2026-04-25T11:00:41.705Z</time></trkpt><trkpt lat="45.33709" lon="7.578855"><ele>659.0</ele><time>2026-04-25T11:00:42.705Z</time></trkpt><trkpt lat="45.337195" lon="7.578915"><ele>653.8000000000001</ele><time>2026-04-25T11:00:43.705Z</time></trkpt><trkpt lat="45.337295" lon="7.57897"><ele>648.6</ele><time>2026-04-25T11:00:44.705Z</time></trkpt><trkpt lat="45.3373933" lon="7.5790383"><ele>643.4</ele><time>2026-04-25T11:00:45.705Z</time></trkpt><trkpt lat="45.3374867" lon="7.5791017"><ele>638.2</ele><time>2026-04-25T11:00:46.705Z</time></trkpt><trkpt lat="45.3375767" lon="7.5791433"><ele>633.0</ele><time>2026-04-25T11:00:47.705Z</time></trkpt><trkpt lat="45.3376583" lon="7.5791933"><ele>633.0</ele><time>2026-04-25T11:00:48.706Z</time></trkpt><trkpt lat="45.3377367" lon="7.5792367"><ele>633.0</ele><time>2026-04-25T11:00:49.705Z</time></trkpt><trkpt lat="45.3378083" lon="7.5792717"><ele>633.0</ele><time>2026-04-25T11:00:50.705Z</time></trkpt><trkpt lat="45.33787" lon="7.5792983"><ele>633.0</ele><time>2026-04-25T11:00:51.705Z</time></trkpt><trkpt lat="45.3379367" lon="7.579315"><ele>633.0</ele><time>2026-04-25T11:00:52.705Z</time></trkpt><trkpt lat="45.3380017" lon="7.5793183"><ele>633.0</ele><time>2026-04-25T11:00:53.705Z</time></trkpt><trkpt lat="45.3381333" lon="7.5792933"><ele>629.6666666666666</ele><time>2026-04-25T11:00:55.706Z</time></trkpt><trkpt lat="45.338205" lon="7.5792733"><ele>626.3333333333334</ele><time>2026-04-25T11:00:56.705Z</time></trkpt><trkpt lat="45.33827" lon="7.5792283"><ele>623.0</ele><time>2026-04-25T11:00:57.705Z</time></trkpt><trkpt lat="45.3383267" lon="7.5791767"><ele>619.6666666666667</ele><time>2026-04-25T11:00:58.705Z</time></trkpt><trkpt lat="45.3384317" lon="7.5790883"><ele>616.3333333333334</ele><time>2026-04-25T11:01:00.705Z</time></trkpt><trkpt lat="45.3385283" lon="7.5790733"><ele>613.0</ele><time>2026-04-25T11:01:02.705Z</time></trkpt><trkpt lat="45.3386083" lon="7.5791583"><ele>613.0</ele><time>2026-04-25T11:01:04.705Z</time></trkpt><trkpt lat="45.3386367" lon="7.5793217"><ele>613.0</ele><time>2026-04-25T11:01:06.705Z</time></trkpt><trkpt lat="45.3386333" lon="7.5794267"><ele>613.0</ele><time>2026-04-25T11:01:07.705Z</time></trkpt><trkpt lat="45.3386133" lon="7.5795267"><ele>613.0</ele><time>2026-04-25T11:01:08.705Z</time></trkpt><trkpt lat="45.338575" lon="7.5796233"><ele>613.0</ele><time>2026-04-25T11:01:09.706Z</time></trkpt><trkpt lat="45.3385217" lon="7.5797"><ele>613.0</ele><time>2026-04-25T11:01:10.705Z</time></trkpt><trkpt lat="45.33847" lon="7.5797667"><ele>612.6666666666667</ele><time>2026-04-25T11:01:11.705Z</time></trkpt><trkpt lat="45.3384167" lon="7.5798783"><ele>612.3333333333334</ele><time>2026-04-25T11:01:13.705Z</time></trkpt><trkpt lat="45.33846" lon="7.579965"><ele>612.0</ele><time>2026-04-25T11:01:15.705Z</time></trkpt><trkpt lat="45.3385233" lon="7.579965"><ele>611.6666666666666</ele><time>2026-04-25T11:01:16.705Z</time></trkpt><trkpt lat="45.338605" lon="7.5799417"><ele>611.3333333333333</ele><time>2026-04-25T11:01:17.705Z</time></trkpt><trkpt lat="45.3386917" lon="7.5799133"><ele>611.0</ele><time>2026-04-25T11:01:18.705Z</time></trkpt><trkpt lat="45.3387767" lon="7.579875"><ele>611.0</ele><time>2026-04-25T11:01:19.705Z</time></trkpt><trkpt lat="45.338865" lon="7.5798383"><ele>611.0</ele><time>2026-04-25T11:01:20.705Z</time></trkpt><trkpt lat="45.338945" lon="7.5798033"><ele>611.0</ele><time>2026-04-25T11:01:21.705Z</time></trkpt><trkpt lat="45.3390183" lon="7.5797367"><ele>611.0</ele><time>2026-04-25T11:01:22.705Z</time></trkpt><trkpt lat="45.33908" lon="7.579655"><ele>611.0</ele><time>2026-04-25T11:01:23.705Z</time></trkpt><trkpt lat="45.3391217" lon="7.5795617"><ele>611.0</ele><time>2026-04-25T11:01:24.705Z</time></trkpt><trkpt lat="45.339155" lon="7.5794617"><ele>608.0</ele><time>2026-04-25T11:01:25.705Z</time></trkpt><trkpt lat="45.3391767" lon="7.57935"><ele>605.0</ele><time>2026-04-25T11:01:26.705Z</time></trkpt><trkpt lat="45.3391733" lon="7.5792483"><ele>602.0</ele><time>2026-04-25T11:01:27.705Z</time></trkpt><trkpt lat="45.3391767" lon="7.5790883"><ele>599.0</ele><time>2026-04-25T11:01:29.705Z</time></trkpt><trkpt lat="45.3391517" lon="7.5789683"><ele>596.0</ele><time>2026-04-25T11:01:31.705Z</time></trkpt><trkpt lat="45.3391883" lon="7.578885"><ele>593.0</ele><time>2026-04-25T11:01:33.705Z</time></trkpt><trkpt lat="45.3392833" lon="7.5789167"><ele>593.0</ele><time>2026-04-25T11:01:35.705Z</time></trkpt><trkpt lat="45.3393283" lon="7.5789833"><ele>593.0</ele><time>2026-04-25T11:01:36.705Z</time></trkpt><trkpt lat="45.3393717" lon="7.5790517"><ele>593.0</ele><time>2026-04-25T11:01:37.705Z</time></trkpt><trkpt lat="45.339435" lon="7.5791267"><ele>593.0</ele><time>2026-04-25T11:01:38.705Z</time></trkpt><trkpt lat="45.3394967" lon="7.5792133"><ele>593.0</ele><time>2026-04-25T11:01:39.705Z</time></trkpt><trkpt lat="45.339535" lon="7.5793117"><ele>593.0</ele><time>2026-04-25T11:01:40.705Z</time></trkpt><trkpt lat="45.339565" lon="7.5794167"><ele>592.3333333333333</ele><time>2026-04-25T11:01:41.705Z</time></trkpt><trkpt lat="45.3395733" lon="7.5795233"><ele>591.6666666666666</ele><time>2026-04-25T11:01:42.705Z</time></trkpt><trkpt lat="45.33956" lon="7.5796317"><ele>591.0</ele><time>2026-04-25T11:01:43.705Z</time></trkpt><trkpt lat="45.3395583" lon="7.579725"><ele>590.3333333333334</ele><time>2026-04-25T11:01:44.705Z</time></trkpt><trkpt lat="45.3395517" lon="7.5798183"><ele>589.6666666666667</ele><time>2026-04-25T11:01:45.705Z</time></trkpt><trkpt lat="45.339535" lon="7.57991"><ele>589.0</ele><time>2026-04-25T11:01:46.705Z</time></trkpt><trkpt lat="45.339485" lon="7.5800617"><ele>589.0</ele><time>2026-04-25T11:01:48.705Z</time></trkpt><trkpt lat="45.3394617" lon="7.5802067"><ele>589.0</ele><time>2026-04-25T11:01:50.705Z</time></trkpt><trkpt lat="45.3394517" lon="7.58031"><ele>589.0</ele><time>2026-04-25T11:01:52.705Z</time></trkpt><trkpt lat="45.33945" lon="7.580445"><ele>589.0</ele><time>2026-04-25T11:01:54.705Z</time></trkpt><trkpt lat="45.3394417" lon="7.580595"><ele>589.0</ele><time>2026-04-25T11:01:56.705Z</time></trkpt><trkpt lat="45.339435" lon="7.5807817"><ele>587.5</ele><time>2026-04-25T11:01:58.705Z</time></trkpt><trkpt lat="45.3394517" lon="7.5808717"><ele>586.0</ele><time>2026-04-25T11:01:59.705Z</time></trkpt><trkpt lat="45.33948" lon="7.580955"><ele>584.5</ele><time>2026-04-25T11:02:00.705Z</time></trkpt><trkpt lat="45.3395283" lon="7.5810383"><ele>583.0</ele><time>2026-04-25T11:02:01.705Z</time></trkpt><trkpt lat="45.33958" lon="7.5811383"><ele>581.5</ele><time>2026-04-25T11:02:02.705Z</time></trkpt><trkpt lat="45.3396267" lon="7.5812417"><ele>580.0</ele><time>2026-04-25T11:02:03.705Z</time></trkpt><trkpt lat="45.3396667" lon="7.581345"><ele>577.8</ele><time>2026-04-25T11:02:04.705Z</time></trkpt><trkpt lat="45.3396917" lon="7.58145"><ele>575.6</ele><time>2026-04-25T11:02:05.705Z</time></trkpt><trkpt lat="45.3397" lon="7.58155"><ele>573.4</ele><time>2026-04-25T11:02:06.705Z</time></trkpt><trkpt lat="45.3397317" lon="7.5817017"><ele>571.2</ele><time>2026-04-25T11:02:08.705Z</time></trkpt><trkpt lat="45.3397817" lon="7.5818217"><ele>569.0</ele><time>2026-04-25T11:02:10.705Z</time></trkpt><trkpt lat="45.33978" lon="7.5819717"><ele>568.8333333333333</ele><time>2026-04-25T11:02:12.705Z</time></trkpt><trkpt lat="45.3397367" lon="7.58207"><ele>568.6666666666666</ele><time>2026-04-25T11:02:13.705Z</time></trkpt><trkpt lat="45.33968" lon="7.58218"><ele>568.5</ele><time>2026-04-25T11:02:14.705Z</time></trkpt><trkpt lat="45.33963" lon="7.5822783"><ele>568.3333333333334</ele><time>2026-04-25T11:02:15.705Z</time></trkpt><trkpt lat="45.339605" lon="7.5823667"><ele>568.1666666666667</ele><time>2026-04-25T11:02:16.705Z</time></trkpt><trkpt lat="45.3396083" lon="7.5824633"><ele>568.0</ele><time>2026-04-25T11:02:17.705Z</time></trkpt><trkpt lat="45.339615" lon="7.5825583"><ele>565.6666666666667</ele><time>2026-04-25T11:02:18.705Z</time></trkpt><trkpt lat="45.339635" lon="7.582715"><ele>563.3333333333334</ele><time>2026-04-25T11:02:20.705Z</time></trkpt><trkpt lat="45.3396233" lon="7.5828283"><ele>561.0</ele><time>2026-04-25T11:02:22.705Z</time></trkpt><trkpt lat="45.33959" lon="7.582935"><ele>558.6666666666666</ele><time>2026-04-25T11:02:24.705Z</time></trkpt><trkpt lat="45.3395633" lon="7.5830217"><ele>556.3333333333333</ele><time>2026-04-25T11:02:25.705Z</time></trkpt><trkpt lat="45.3395233" lon="7.583135"><ele>554.0</ele><time>2026-04-25T11:02:26.705Z</time></trkpt><trkpt lat="45.3394783" lon="7.58327"><ele>553.8333333333333</ele><time>2026-04-25T11:02:27.705Z</time></trkpt><trkpt lat="45.33943" lon="7.5834"><ele>553.6666666666666</ele><time>2026-04-25T11:02:28.705Z</time></trkpt><trkpt lat="45.3393933" lon="7.5835"><ele>553.5</ele><time>2026-04-25T11:02:29.705Z</time></trkpt><trkpt lat="45.3393633" lon="7.5836"><ele>553.3333333333334</ele><time>2026-04-25T11:02:30.705Z</time></trkpt><trkpt lat="45.33933" lon="7.5837"><ele>553.1666666666667</ele><time>2026-04-25T11:02:31.705Z</time></trkpt><trkpt lat="45.3392967" lon="7.583815"><ele>553.0</ele><time>2026-04-25T11:02:32.705Z</time></trkpt><trkpt lat="45.33925" lon="7.5839467"><ele>554.6</ele><time>2026-04-25T11:02:33.705Z</time></trkpt><trkpt lat="45.3392083" lon="7.5840783"><ele>556.1999999999999</ele><time>2026-04-25T11:02:34.705Z</time></trkpt><trkpt lat="45.3391733" lon="7.58421"><ele>557.8</ele><time>2026-04-25T11:02:35.705Z</time></trkpt><trkpt lat="45.3391167" lon="7.5843283"><ele>559.4</ele><time>2026-04-25T11:02:36.705Z</time></trkpt><trkpt lat="45.3390533" lon="7.5844433"><ele>561.0</ele><time>2026-04-25T11:02:37.705Z</time></trkpt><trkpt lat="45.3389883" lon="7.584555"><ele>560.3333333333334</ele><time>2026-04-25T11:02:38.706Z</time></trkpt><trkpt lat="45.3389217" lon="7.5846483"><ele>559.6666666666666</ele><time>2026-04-25T11:02:39.705Z</time></trkpt><trkpt lat="45.3388567" lon="7.58471"><ele>559.0</ele><time>2026-04-25T11:02:40.705Z</time></trkpt><trkpt lat="45.3387967" lon="7.5847633"><ele>558.3333333333333</ele><time>2026-04-25T11:02:41.705Z</time></trkpt><trkpt lat="45.3387283" lon="7.5848133"><ele>557.6666666666666</ele><time>2026-04-25T11:02:42.705Z</time></trkpt><trkpt lat="45.33866" lon="7.5848683"><ele>557.0</ele><time>2026-04-25T11:02:43.705Z</time></trkpt><trkpt lat="45.3386033" lon="7.5849333"><ele>557.0</ele><time>2026-04-25T11:02:44.705Z</time></trkpt><trkpt lat="45.3385583" lon="7.585025"><ele>557.0</ele><time>2026-04-25T11:02:45.705Z</time></trkpt><trkpt lat="45.33853" lon="7.585165"><ele>557.0</ele><time>2026-04-25T11:02:46.705Z</time></trkpt><trkpt lat="45.338505" lon="7.5853183"><ele>557.0</ele><time>2026-04-25T11:02:47.705Z</time></trkpt><trkpt lat="45.3384883" lon="7.5854333"><ele>557.0</ele><time>2026-04-25T11:02:48.705Z</time></trkpt><trkpt lat="45.33846" lon="7.5855683"><ele>558.1666666666666</ele><time>2026-04-25T11:02:50.705Z</time></trkpt><trkpt lat="45.33853" lon="7.5855833"><ele>559.3333333333333</ele><time>2026-04-25T11:03:00.705Z</time></trkpt><trkpt lat="45.338605" lon="7.5855683"><ele>560.5</ele><time>2026-04-25T11:03:02.705Z</time></trkpt><trkpt lat="45.338675" lon="7.58555"><ele>561.6666666666666</ele><time>2026-04-25T11:03:04.705Z</time></trkpt><trkpt lat="45.3387517" lon="7.5854517"><ele>562.8333333333334</ele><time>2026-04-25T11:03:06.705Z</time></trkpt><trkpt lat="45.3388267" lon="7.585365"><ele>564.0</ele><time>2026-04-25T11:03:08.705Z</time></trkpt><trkpt lat="45.33891" lon="7.5853233"><ele>564.0</ele><time>2026-04-25T11:03:10.705Z</time></trkpt><trkpt lat="45.338985" lon="7.5852817"><ele>564.0</ele><time>2026-04-25T11:03:12.705Z</time></trkpt><trkpt lat="45.33891" lon="7.5853267"><ele>564.0</ele><time>2026-04-25T11:03:41.705Z</time></trkpt><trkpt lat="45.3388117" lon="7.5854017"><ele>564.0</ele><time>2026-04-25T11:03:43.705Z</time></trkpt><trkpt lat="45.33873" lon="7.58551"><ele>564.0</ele><time>2026-04-25T11:03:45.705Z</time></trkpt><trkpt lat="45.338635" lon="7.58558"><ele>564.0</ele><time>2026-04-25T11:03:47.705Z</time></trkpt><trkpt lat="45.3385583" lon="7.5855967"><ele>564.0</ele><time>2026-04-25T11:03:49.705Z</time></trkpt><trkpt lat="45.33849" lon="7.585585"><ele>564.0</ele><time>2026-04-25T11:03:52.705Z</time></trkpt><trkpt lat="45.338425" lon="7.585675"><ele>564.0</ele><time>2026-04-25T11:03:55.705Z</time></trkpt><trkpt lat="45.3383867" lon="7.5857617"><ele>564.0</ele><time>2026-04-25T11:03:57.705Z</time></trkpt><trkpt lat="45.3383933" lon="7.58586"><ele>564.0</ele><time>2026-04-25T11:04:00.705Z</time></trkpt><trkpt lat="45.3384167" lon="7.585975"><ele>564.0</ele><time>2026-04-25T11:04:03.705Z</time></trkpt><trkpt lat="45.3384433" lon="7.5860883"><ele>564.0</ele><time>2026-04-25T11:04:05.705Z</time></trkpt><trkpt lat="45.3385" lon="7.586225"><ele>564.0</ele><time>2026-04-25T11:04:08.705Z</time></trkpt><trkpt lat="45.3385833" lon="7.5863633"><ele>564.0</ele><time>2026-04-25T11:04:10.705Z</time></trkpt><trkpt lat="45.338625" lon="7.586445"><ele>564.0</ele><time>2026-04-25T11:04:11.705Z</time></trkpt><trkpt lat="45.3386883" lon="7.586525"><ele>564.5</ele><time>2026-04-25T11:04:12.705Z</time></trkpt><trkpt lat="45.3387667" lon="7.5866217"><ele>565.0</ele><time>2026-04-25T11:04:13.705Z</time></trkpt><trkpt lat="45.3388583" lon="7.586735"><ele>565.5</ele><time>2026-04-25T11:04:14.705Z</time></trkpt><trkpt lat="45.3389567" lon="7.5868533"><ele>566.0</ele><time>2026-04-25T11:04:15.705Z</time></trkpt><trkpt lat="45.3390617" lon="7.5869517"><ele>565.8</ele><time>2026-04-25T11:04:16.706Z</time></trkpt><trkpt lat="45.339165" lon="7.5870233"><ele>565.6</ele><time>2026-04-25T11:04:17.705Z</time></trkpt><trkpt lat="45.3392533" lon="7.5870817"><ele>565.4</ele><time>2026-04-25T11:04:18.705Z</time></trkpt><trkpt lat="45.33935" lon="7.58711"><ele>565.2</ele><time>2026-04-25T11:04:19.705Z</time></trkpt><trkpt lat="45.3394483" lon="7.5871283"><ele>565.0</ele><time>2026-04-25T11:04:20.704Z</time></trkpt><trkpt lat="45.3395283" lon="7.5871517"><ele>565.0</ele><time>2026-04-25T11:04:21.704Z</time></trkpt><trkpt lat="45.3396" lon="7.5871767"><ele>565.0</ele><time>2026-04-25T11:04:22.704Z</time></trkpt><trkpt lat="45.3397067" lon="7.5872083"><ele>565.0</ele><time>2026-04-25T11:04:24.704Z</time></trkpt><trkpt lat="45.3397833" lon="7.58726"><ele>565.0</ele><time>2026-04-25T11:04:26.704Z</time></trkpt><trkpt lat="45.3398467" lon="7.5872067"><ele>565.0</ele><time>2026-04-25T11:04:28.704Z</time></trkpt><trkpt lat="45.3399183" lon="7.5871217"><ele>565.0</ele><time>2026-04-25T11:04:30.704Z</time></trkpt><trkpt lat="45.3399783" lon="7.58705"><ele>566.75</ele><time>2026-04-25T11:04:33.704Z</time></trkpt><trkpt lat="45.340055" lon="7.5869"><ele>568.5</ele><time>2026-04-25T11:04:35.704Z</time></trkpt><trkpt lat="45.3401267" lon="7.586775"><ele>570.25</ele><time>2026-04-25T11:04:36.704Z</time></trkpt><trkpt lat="45.34023" lon="7.58664"><ele>572.0</ele><time>2026-04-25T11:04:37.704Z</time></trkpt><trkpt lat="45.3403367" lon="7.5865167"><ele>572.0</ele><time>2026-04-25T11:04:38.704Z</time></trkpt><trkpt lat="45.3404317" lon="7.5864133"><ele>572.0</ele><time>2026-04-25T11:04:39.704Z</time></trkpt><trkpt lat="45.34051" lon="7.5863167"><ele>572.0</ele><time>2026-04-25T11:04:40.704Z</time></trkpt><trkpt lat="45.3405817" lon="7.5862033"><ele>572.0</ele><time>2026-04-25T11:04:41.704Z</time></trkpt><trkpt lat="45.34066" lon="7.5861033"><ele>572.0</ele><time>2026-04-25T11:04:42.704Z</time></trkpt><trkpt lat="45.3407317" lon="7.585985"><ele>572.25</ele><time>2026-04-25T11:04:43.704Z</time></trkpt><trkpt lat="45.3408017" lon="7.5858683"><ele>572.5</ele><time>2026-04-25T11:04:44.704Z</time></trkpt><trkpt lat="45.340875" lon="7.585745"><ele>572.75</ele><time>2026-04-25T11:04:45.704Z</time></trkpt><trkpt lat="45.3409617" lon="7.5856217"><ele>573.0</ele><time>2026-04-25T11:04:46.705Z</time></trkpt><trkpt lat="45.34107" lon="7.585485"><ele>574.5</ele><time>2026-04-25T11:04:47.704Z</time></trkpt><trkpt lat="45.341175" lon="7.5853433"><ele>576.0</ele><time>2026-04-25T11:04:48.704Z</time></trkpt><trkpt lat="45.3412783" lon="7.5852083"><ele>577.5</ele><time>2026-04-25T11:04:49.705Z</time></trkpt><trkpt lat="45.3413867" lon="7.58508"><ele>579.0</ele><time>2026-04-25T11:04:50.704Z</time></trkpt><trkpt lat="45.3415067" lon="7.58497"><ele>579.0</ele><time>2026-04-25T11:04:51.704Z</time></trkpt><trkpt lat="45.3416133" lon="7.5848867"><ele>579.0</ele><time>2026-04-25T11:04:52.704Z</time></trkpt><trkpt lat="45.341715" lon="7.5848183"><ele>579.0</ele><time>2026-04-25T11:04:53.704Z</time></trkpt><trkpt lat="45.3418133" lon="7.5847517"><ele>579.0</ele><time>2026-04-25T11:04:54.704Z</time></trkpt><trkpt lat="45.3418983" lon="7.5846967"><ele>579.0</ele><time>2026-04-25T11:04:55.704Z</time></trkpt><trkpt lat="45.3419617" lon="7.5846567"><ele>579.0</ele><time>2026-04-25T11:04:56.704Z</time></trkpt><trkpt lat="45.3420233" lon="7.5846017"><ele>579.0</ele><time>2026-04-25T11:04:58.704Z</time></trkpt><trkpt lat="45.3420933" lon="7.58455"><ele>579.0</ele><time>2026-04-25T11:05:00.704Z</time></trkpt><trkpt lat="45.3421733" lon="7.584525"><ele>579.0</ele><time>2026-04-25T11:05:01.704Z</time></trkpt><trkpt lat="45.3422583" lon="7.5844883"><ele>579.0</ele><time>2026-04-25T11:05:02.704Z</time></trkpt><trkpt lat="45.3423633" lon="7.5844467"><ele>579.0</ele><time>2026-04-25T11:05:03.704Z</time></trkpt><trkpt lat="45.342485" lon="7.5844167"><ele>581.3333333333334</ele><time>2026-04-25T11:05:04.704Z</time></trkpt><trkpt lat="45.3426483" lon="7.5844333"><ele>583.6666666666667</ele><time>2026-04-25T11:05:05.704Z</time></trkpt><trkpt lat="45.342795" lon="7.5844117"><ele>586.0</ele><time>2026-04-25T11:05:06.704Z</time></trkpt><trkpt lat="45.3429433" lon="7.5844083"><ele>584.25</ele><time>2026-04-25T11:05:07.704Z</time></trkpt><trkpt lat="45.3430833" lon="7.5844"><ele>582.5</ele><time>2026-04-25T11:05:08.704Z</time></trkpt><trkpt lat="45.3432133" lon="7.584385"><ele>580.75</ele><time>2026-04-25T11:05:09.704Z</time></trkpt><trkpt lat="45.3433417" lon="7.584345"><ele>579.0</ele><time>2026-04-25T11:05:10.704Z</time></trkpt><trkpt lat="45.3434683" lon="7.5843017"><ele>579.0</ele><time>2026-04-25T11:05:11.704Z</time></trkpt><trkpt lat="45.3435983" lon="7.5842583"><ele>579.0</ele><time>2026-04-25T11:05:12.704Z</time></trkpt><trkpt lat="45.3437233" lon="7.584215"><ele>579.0</ele><time>2026-04-25T11:05:13.704Z</time></trkpt><trkpt lat="45.3438333" lon="7.5841667"><ele>579.0</ele><time>2026-04-25T11:05:14.704Z</time></trkpt><trkpt lat="45.34394" lon="7.5841267"><ele>576.75</ele><time>2026-04-25T11:05:15.704Z</time></trkpt><trkpt lat="45.3440517" lon="7.584075"><ele>574.5</ele><time>2026-04-25T11:05:16.704Z</time></trkpt><trkpt lat="45.3441717" lon="7.584035"><ele>572.25</ele><time>2026-04-25T11:05:17.704Z</time></trkpt><trkpt lat="45.3442867" lon="7.5839917"><ele>570.0</ele><time>2026-04-25T11:05:18.704Z</time></trkpt><trkpt lat="45.3444033" lon="7.5839383"><ele>570.0</ele><time>2026-04-25T11:05:19.704Z</time></trkpt><trkpt lat="45.3445233" lon="7.5838833"><ele>570.0</ele><time>2026-04-25T11:05:20.705Z</time></trkpt><trkpt lat="45.3446567" lon="7.5838317"><ele>570.0</ele><time>2026-04-25T11:05:21.704Z</time></trkpt><trkpt lat="45.3447783" lon="7.5837767"><ele>570.0</ele><time>2026-04-25T11:05:22.704Z</time></trkpt><trkpt lat="45.3448867" lon="7.5837217"><ele>571.0</ele><time>2026-04-25T11:05:23.704Z</time></trkpt><trkpt lat="45.3449783" lon="7.5836783"><ele>572.0</ele><time>2026-04-25T11:05:24.704Z</time></trkpt><trkpt lat="45.3450717" lon="7.583635"><ele>573.0</ele><time>2026-04-25T11:05:25.704Z</time></trkpt><trkpt lat="45.3451933" lon="7.5835833"><ele>574.0</ele><time>2026-04-25T11:05:26.704Z</time></trkpt><trkpt lat="45.345325" lon="7.5835"><ele>574.0</ele><time>2026-04-25T11:05:27.704Z</time></trkpt><trkpt lat="45.34546" lon="7.5834033"><ele>574.0</ele><time>2026-04-25T11:05:28.704Z</time></trkpt><trkpt lat="45.3455917" lon="7.5833083"><ele>574.0</ele><time>2026-04-25T11:05:29.704Z</time></trkpt><trkpt lat="45.34571" lon="7.5832067"><ele>574.0</ele><time>2026-04-25T11:05:30.704Z</time></trkpt><trkpt lat="45.3458183" lon="7.5831017"><ele>574.75</ele><time>2026-04-25T11:05:31.704Z</time></trkpt><trkpt lat="45.3459317" lon="7.5830033"><ele>575.5</ele><time>2026-04-25T11:05:32.704Z</time></trkpt><trkpt lat="45.3460467" lon="7.5828983"><ele>576.25</ele><time>2026-04-25T11:05:33.704Z</time></trkpt><trkpt lat="45.346165" lon="7.5828133"><ele>577.0</ele><time>2026-04-25T11:05:34.704Z</time></trkpt><trkpt lat="45.3462867" lon="7.5827383"><ele>574.4</ele><time>2026-04-25T11:05:35.704Z</time></trkpt><trkpt lat="45.3464017" lon="7.5826817"><ele>571.8000000000001</ele><time>2026-04-25T11:05:36.704Z</time></trkpt><trkpt lat="45.3465017" lon="7.5826383"><ele>569.2</ele><time>2026-04-25T11:05:37.704Z</time></trkpt><trkpt lat="45.34661" lon="7.5826083"><ele>566.6</ele><time>2026-04-25T11:05:38.704Z</time></trkpt><trkpt lat="45.3467017" lon="7.5826167"><ele>564.0</ele><time>2026-04-25T11:05:39.704Z</time></trkpt><trkpt lat="45.3467783" lon="7.582675"><ele>564.0</ele><time>2026-04-25T11:05:40.704Z</time></trkpt><trkpt lat="45.3468217" lon="7.5827733"><ele>564.0</ele><time>2026-04-25T11:05:41.705Z</time></trkpt><trkpt lat="45.3468583" lon="7.582895"><ele>564.0</ele><time>2026-04-25T11:05:42.704Z</time></trkpt><trkpt lat="45.3468683" lon="7.5830517"><ele>564.0</ele><time>2026-04-25T11:05:43.704Z</time></trkpt><trkpt lat="45.3468517" lon="7.583235"><ele>564.0</ele><time>2026-04-25T11:05:44.704Z</time></trkpt><trkpt lat="45.3468117" lon="7.5834383"><ele>562.8</ele><time>2026-04-25T11:05:45.704Z</time></trkpt><trkpt lat="45.3467833" lon="7.58363"><ele>561.5999999999999</ele><time>2026-04-25T11:05:46.705Z</time></trkpt><trkpt lat="45.3467683" lon="7.5837867"><ele>560.4</ele><time>2026-04-25T11:05:47.704Z</time></trkpt><trkpt lat="45.3467583" lon="7.5839233"><ele>559.1999999999999</ele><time>2026-04-25T11:05:48.705Z</time></trkpt><trkpt lat="45.3467617" lon="7.58405"><ele>558.0</ele><time>2026-04-25T11:05:49.704Z</time></trkpt><trkpt lat="45.34679" lon="7.5841667"><ele>557.8333333333334</ele><time>2026-04-25T11:05:50.704Z</time></trkpt><trkpt lat="45.3468383" lon="7.5842767"><ele>557.6666666666666</ele><time>2026-04-25T11:05:51.704Z</time></trkpt><trkpt lat="45.3468967" lon="7.5843683"><ele>557.5</ele><time>2026-04-25T11:05:52.704Z</time></trkpt><trkpt lat="45.3469617" lon="7.5844483"><ele>557.3333333333333</ele><time>2026-04-25T11:05:53.704Z</time></trkpt><trkpt lat="45.3470167" lon="7.584505"><ele>557.1666666666666</ele><time>2026-04-25T11:05:54.704Z</time></trkpt><trkpt lat="45.347105" lon="7.5845533"><ele>557.0</ele><time>2026-04-25T11:05:56.704Z</time></trkpt><trkpt lat="45.3471717" lon="7.5845983"><ele>560.0</ele><time>2026-04-25T11:05:58.704Z</time></trkpt><trkpt lat="45.347245" lon="7.584705"><ele>563.0</ele><time>2026-04-25T11:06:00.704Z</time></trkpt><trkpt lat="45.347295" lon="7.5847917"><ele>566.0</ele><time>2026-04-25T11:06:03.704Z</time></trkpt><trkpt lat="45.347295" lon="7.5848967"><ele>569.0</ele><time>2026-04-25T11:06:07.704Z</time></trkpt><trkpt lat="45.347315" lon="7.5850083"><ele>572.0</ele><time>2026-04-25T11:07:15.704Z</time></trkpt><trkpt lat="45.3473517" lon="7.585155"><ele>575.0</ele><time>2026-04-25T11:07:18.704Z</time></trkpt><trkpt lat="45.3474167" lon="7.5852967"><ele>574.75</ele><time>2026-04-25T11:07:20.704Z</time></trkpt><trkpt lat="45.3474483" lon="7.585435"><ele>574.5</ele><time>2026-04-25T11:07:22.704Z</time></trkpt><trkpt lat="45.3474217" lon="7.5856267"><ele>574.25</ele><time>2026-04-25T11:07:24.704Z</time></trkpt><trkpt lat="45.3473867" lon="7.5857617"><ele>574.0</ele><time>2026-04-25T11:07:25.704Z</time></trkpt><trkpt lat="45.34737" lon="7.5859367"><ele>574.0</ele><time>2026-04-25T11:07:26.704Z</time></trkpt><trkpt lat="45.3473683" lon="7.5861117"><ele>574.0</ele><time>2026-04-25T11:07:27.704Z</time></trkpt><trkpt lat="45.3473733" lon="7.5862633"><ele>574.0</ele><time>2026-04-25T11:07:28.704Z</time></trkpt><trkpt lat="45.3473817" lon="7.5863967"><ele>574.0</ele><time>2026-04-25T11:07:29.704Z</time></trkpt><trkpt lat="45.347395" lon="7.5865133"><ele>574.0</ele><time>2026-04-25T11:07:30.704Z</time></trkpt><trkpt lat="45.347425" lon="7.58662"><ele>573.6</ele><time>2026-04-25T11:07:31.704Z</time></trkpt><trkpt lat="45.347475" lon="7.58673"><ele>573.2</ele><time>2026-04-25T11:07:32.704Z</time></trkpt><trkpt lat="45.3475517" lon="7.586845"><ele>572.8000000000001</ele><time>2026-04-25T11:07:33.704Z</time></trkpt><trkpt lat="45.3476317" lon="7.5869433"><ele>572.4</ele><time>2026-04-25T11:07:34.704Z</time></trkpt><trkpt lat="45.3477083" lon="7.58704"><ele>572.0</ele><time>2026-04-25T11:07:35.704Z</time></trkpt><trkpt lat="45.3477967" lon="7.5871033"><ele>571.8333333333333</ele><time>2026-04-25T11:07:36.704Z</time></trkpt><trkpt lat="45.3478717" lon="7.58716"><ele>571.6666666666666</ele><time>2026-04-25T11:07:37.704Z</time></trkpt><trkpt lat="45.3479483" lon="7.5871967"><ele>571.5</ele><time>2026-04-25T11:07:38.704Z</time></trkpt><trkpt lat="45.3480233" lon="7.5872317"><ele>571.3333333333334</ele><time>2026-04-25T11:07:39.704Z</time></trkpt><trkpt lat="45.3481133" lon="7.58737"><ele>571.1666666666667</ele><time>2026-04-25T11:07:41.704Z</time></trkpt><trkpt lat="45.3481533" lon="7.5874467"><ele>571.0</ele><time>2026-04-25T11:07:42.704Z</time></trkpt><trkpt lat="45.3482583" lon="7.5874983"><ele>571.0</ele><time>2026-04-25T11:07:44.704Z</time></trkpt><trkpt lat="45.3483267" lon="7.5874533"><ele>571.0</ele><time>2026-04-25T11:07:45.704Z</time></trkpt><trkpt lat="45.348405" lon="7.5873817"><ele>571.0</ele><time>2026-04-25T11:07:46.704Z</time></trkpt><trkpt lat="45.3485317" lon="7.5872833"><ele>571.0</ele><time>2026-04-25T11:07:47.704Z</time></trkpt><trkpt lat="45.3486867" lon="7.5872067"><ele>571.0</ele><time>2026-04-25T11:07:48.704Z</time></trkpt><trkpt lat="45.3488483" lon="7.58714"><ele>571.0</ele><time>2026-04-25T11:07:49.704Z</time></trkpt><trkpt lat="45.3490083" lon="7.587075"><ele>571.0</ele><time>2026-04-25T11:07:50.704Z</time></trkpt><trkpt lat="45.3491717" lon="7.5869983"><ele>572.6666666666667</ele><time>2026-04-25T11:07:51.704Z</time></trkpt><trkpt lat="45.349335" lon="7.5869467"><ele>574.3333333333334</ele><time>2026-04-25T11:07:52.704Z</time></trkpt><trkpt lat="45.3494933" lon="7.5869233"><ele>576.0</ele><time>2026-04-25T11:07:53.704Z</time></trkpt><trkpt lat="45.34966" lon="7.5869167"><ele>575.3333333333334</ele><time>2026-04-25T11:07:54.704Z</time></trkpt><trkpt lat="45.349835" lon="7.5869267"><ele>574.6666666666667</ele><time>2026-04-25T11:07:55.704Z</time></trkpt><trkpt lat="45.35002" lon="7.58691"><ele>574.0</ele><time>2026-04-25T11:07:56.704Z</time></trkpt><trkpt lat="45.3501933" lon="7.5868733"><ele>574.0</ele><time>2026-04-25T11:07:57.704Z</time></trkpt><trkpt lat="45.3503617" lon="7.5868283"><ele>574.0</ele><time>2026-04-25T11:07:58.704Z</time></trkpt><trkpt lat="45.3505317" lon="7.5867767"><ele>574.0</ele><time>2026-04-25T11:07:59.704Z</time></trkpt><trkpt lat="45.3506867" lon="7.5867233"><ele>573.6666666666667</ele><time>2026-04-25T11:08:00.704Z</time></trkpt><trkpt lat="45.3508383" lon="7.5866633"><ele>573.3333333333334</ele><time>2026-04-25T11:08:01.704Z</time></trkpt><trkpt lat="45.3509817" lon="7.5866183"><ele>573.0</ele><time>2026-04-25T11:08:02.704Z</time></trkpt><trkpt lat="45.3511283" lon="7.5866"><ele>573.0</ele><time>2026-04-25T11:08:03.704Z</time></trkpt><trkpt lat="45.35128" lon="7.5866083"><ele>573.0</ele><time>2026-04-25T11:08:04.704Z</time></trkpt><trkpt lat="45.3514367" lon="7.5866533"><ele>573.0</ele><time>2026-04-25T11:08:05.704Z</time></trkpt><trkpt lat="45.351615" lon="7.5867483"><ele>573.3333333333334</ele><time>2026-04-25T11:08:06.704Z</time></trkpt><trkpt lat="45.35176" lon="7.5868683"><ele>573.6666666666667</ele><time>2026-04-25T11:08:07.704Z</time></trkpt><trkpt lat="45.3518967" lon="7.5869717"><ele>574.0</ele><time>2026-04-25T11:08:08.704Z</time></trkpt><trkpt lat="45.3520217" lon="7.58707"><ele>573.5</ele><time>2026-04-25T11:08:09.704Z</time></trkpt><trkpt lat="45.3521433" lon="7.5871817"><ele>573.0</ele><time>2026-04-25T11:08:10.704Z</time></trkpt><trkpt lat="45.3522533" lon="7.5873167"><ele>572.5</ele><time>2026-04-25T11:08:11.704Z</time></trkpt><trkpt lat="45.352325" lon="7.5874883"><ele>572.0</ele><time>2026-04-25T11:08:12.704Z</time></trkpt><trkpt lat="45.3523883" lon="7.5876767"><ele>571.5</ele><time>2026-04-25T11:08:13.704Z</time></trkpt><trkpt lat="45.3524183" lon="7.58787"><ele>571.0</ele><time>2026-04-25T11:08:14.704Z</time></trkpt><trkpt lat="45.3524267" lon="7.5880767"><ele>570.5</ele><time>2026-04-25T11:08:15.704Z</time></trkpt><trkpt lat="45.3524083" lon="7.5882733"><ele>570.0</ele><time>2026-04-25T11:08:16.704Z</time></trkpt><trkpt lat="45.3523767" lon="7.5884617"><ele>570.0</ele><time>2026-04-25T11:08:17.704Z</time></trkpt><trkpt lat="45.3523583" lon="7.5886467"><ele>570.0</ele><time>2026-04-25T11:08:18.704Z</time></trkpt><trkpt lat="45.3523433" lon="7.5888333"><ele>570.0</ele><time>2026-04-25T11:08:19.704Z</time></trkpt><trkpt lat="45.35237" lon="7.5890167"><ele>570.0</ele><time>2026-04-25T11:08:20.704Z</time></trkpt><trkpt lat="45.352435" lon="7.5891833"><ele>570.5</ele><time>2026-04-25T11:08:21.704Z</time></trkpt><trkpt lat="45.3525233" lon="7.5893283"><ele>571.0</ele><time>2026-04-25T11:08:22.704Z</time></trkpt><trkpt lat="45.3526133" lon="7.589445"><ele>571.5</ele><time>2026-04-25T11:08:23.704Z</time></trkpt><trkpt lat="45.3526883" lon="7.589565"><ele>572.0</ele><time>2026-04-25T11:08:24.705Z</time></trkpt><trkpt lat="45.352765" lon="7.5896633"><ele>572.2</ele><time>2026-04-25T11:08:25.704Z</time></trkpt><trkpt lat="45.352835" lon="7.58976"><ele>572.4000000000001</ele><time>2026-04-25T11:08:26.704Z</time></trkpt><trkpt lat="45.3528733" lon="7.5898717"><ele>572.5999999999999</ele><time>2026-04-25T11:08:27.704Z</time></trkpt><trkpt lat="45.3528883" lon="7.5899933"><ele>572.8</ele><time>2026-04-25T11:08:28.705Z</time></trkpt><trkpt lat="45.3528867" lon="7.59012"><ele>573.0</ele><time>2026-04-25T11:08:29.704Z</time></trkpt><trkpt lat="45.3528383" lon="7.5902583"><ele>573.6666666666666</ele><time>2026-04-25T11:08:30.704Z</time></trkpt><trkpt lat="45.3527583" lon="7.5904383"><ele>574.3333333333333</ele><time>2026-04-25T11:08:31.704Z</time></trkpt><trkpt lat="45.3526567" lon="7.5906933"><ele>575.0</ele><time>2026-04-25T11:08:32.704Z</time></trkpt><trkpt lat="45.3526067" lon="7.5909633"><ele>576.6666666666666</ele><time>2026-04-25T11:08:33.705Z</time></trkpt><trkpt lat="45.352585" lon="7.5912167"><ele>578.3333333333334</ele><time>2026-04-25T11:08:34.704Z</time></trkpt><trkpt lat="45.3525733" lon="7.5914283"><ele>580.0</ele><time>2026-04-25T11:08:35.704Z</time></trkpt><trkpt lat="45.35256" lon="7.5916133"><ele>580.0</ele><time>2026-04-25T11:08:36.704Z</time></trkpt><trkpt lat="45.3525567" lon="7.5918033"><ele>580.0</ele><time>2026-04-25T11:08:37.704Z</time></trkpt><trkpt lat="45.35256" lon="7.5919983"><ele>580.0</ele><time>2026-04-25T11:08:38.704Z</time></trkpt><trkpt lat="45.352575" lon="7.5922033"><ele>580.0</ele><time>2026-04-25T11:08:39.704Z</time></trkpt><trkpt lat="45.352595" lon="7.5924117"><ele>581.3333333333334</ele><time>2026-04-25T11:08:40.704Z</time></trkpt><trkpt lat="45.3526117" lon="7.5926283"><ele>582.6666666666666</ele><time>2026-04-25T11:08:41.704Z</time></trkpt><trkpt lat="45.352615" lon="7.5928417"><ele>584.0</ele><time>2026-04-25T11:08:42.704Z</time></trkpt><trkpt lat="45.3526017" lon="7.593065"><ele>585.6666666666666</ele><time>2026-04-25T11:08:43.704Z</time></trkpt><trkpt lat="45.3525867" lon="7.593305"><ele>587.3333333333334</ele><time>2026-04-25T11:08:44.704Z</time></trkpt><trkpt lat="45.3525967" lon="7.59358"><ele>589.0</ele><time>2026-04-25T11:08:45.704Z</time></trkpt><trkpt lat="45.3526117" lon="7.5938267"><ele>591.0</ele><time>2026-04-25T11:08:46.704Z</time></trkpt><trkpt lat="45.3526167" lon="7.5940417"><ele>593.0</ele><time>2026-04-25T11:08:47.704Z</time></trkpt><trkpt lat="45.3526033" lon="7.5942533"><ele>595.0</ele><time>2026-04-25T11:08:48.704Z</time></trkpt><trkpt lat="45.352605" lon="7.59446"><ele>597.0</ele><time>2026-04-25T11:08:49.704Z</time></trkpt><trkpt lat="45.3526183" lon="7.5946367"><ele>598.2</ele><time>2026-04-25T11:08:50.705Z</time></trkpt><trkpt lat="45.3526317" lon="7.5948017"><ele>599.4000000000001</ele><time>2026-04-25T11:08:51.704Z</time></trkpt><trkpt lat="45.3526483" lon="7.5949533"><ele>600.5999999999999</ele><time>2026-04-25T11:08:52.704Z</time></trkpt><trkpt lat="45.3526567" lon="7.5950983"><ele>601.8</ele><time>2026-04-25T11:08:53.704Z</time></trkpt><trkpt lat="45.3526433" lon="7.5952333"><ele>603.0</ele><time>2026-04-25T11:08:54.704Z</time></trkpt><trkpt lat="45.352595" lon="7.5953367"><ele>603.6</ele><time>2026-04-25T11:08:55.704Z</time></trkpt><trkpt lat="45.3525267" lon="7.5954117"><ele>604.1999999999999</ele><time>2026-04-25T11:08:56.704Z</time></trkpt><trkpt lat="45.35243" lon="7.5954517"><ele>604.8</ele><time>2026-04-25T11:08:57.704Z</time></trkpt><trkpt lat="45.3523067" lon="7.5954583"><ele>605.4</ele><time>2026-04-25T11:08:58.704Z</time></trkpt><trkpt lat="45.3521683" lon="7.5954467"><ele>606.0</ele><time>2026-04-25T11:08:59.704Z</time></trkpt><trkpt lat="45.3520167" lon="7.5954333"><ele>606.0</ele><time>2026-04-25T11:09:00.704Z</time></trkpt><trkpt lat="45.3518683" lon="7.5955033"><ele>606.0</ele><time>2026-04-25T11:09:01.704Z</time></trkpt><trkpt lat="45.3517317" lon="7.59562"><ele>606.0</ele><time>2026-04-25T11:09:02.704Z</time></trkpt><trkpt lat="45.351605" lon="7.59574"><ele>606.0</ele><time>2026-04-25T11:09:03.704Z</time></trkpt><trkpt lat="45.35148" lon="7.5958483"><ele>606.0</ele><time>2026-04-25T11:09:04.704Z</time></trkpt><trkpt lat="45.351355" lon="7.59595"><ele>606.0</ele><time>2026-04-25T11:09:05.704Z</time></trkpt><trkpt lat="45.35124" lon="7.5960383"><ele>606.0</ele><time>2026-04-25T11:09:06.704Z</time></trkpt><trkpt lat="45.3511383" lon="7.5961417"><ele>606.0</ele><time>2026-04-25T11:09:07.704Z</time></trkpt><trkpt lat="45.3510383" lon="7.5962667"><ele>606.0</ele><time>2026-04-25T11:09:08.704Z</time></trkpt><trkpt lat="45.35095" lon="7.5964283"><ele>606.0</ele><time>2026-04-25T11:09:09.704Z</time></trkpt><trkpt lat="45.3508617" lon="7.596605"><ele>606.0</ele><time>2026-04-25T11:09:10.704Z</time></trkpt><trkpt lat="45.3507833" lon="7.5967817"><ele>606.0</ele><time>2026-04-25T11:09:11.704Z</time></trkpt><trkpt lat="45.350715" lon="7.5969467"><ele>606.0</ele><time>2026-04-25T11:09:12.704Z</time></trkpt><trkpt lat="45.3506533" lon="7.59709"><ele>606.0</ele><time>2026-04-25T11:09:13.704Z</time></trkpt><trkpt lat="45.350595" lon="7.5972317"><ele>606.0</ele><time>2026-04-25T11:09:14.704Z</time></trkpt><trkpt lat="45.3505617" lon="7.5973817"><ele>606.75</ele><time>2026-04-25T11:09:15.704Z</time></trkpt><trkpt lat="45.35056" lon="7.59756"><ele>607.5</ele><time>2026-04-25T11:09:16.704Z</time></trkpt><trkpt lat="45.3505833" lon="7.5977633"><ele>608.25</ele><time>2026-04-25T11:09:17.704Z</time></trkpt><trkpt lat="45.3506233" lon="7.5979483"><ele>609.0</ele><time>2026-04-25T11:09:18.704Z</time></trkpt><trkpt lat="45.3506533" lon="7.5981133"><ele>609.0</ele><time>2026-04-25T11:09:19.704Z</time></trkpt><trkpt lat="45.350685" lon="7.598255"><ele>609.0</ele><time>2026-04-25T11:09:20.704Z</time></trkpt><trkpt lat="45.35071" lon="7.5983817"><ele>609.0</ele><time>2026-04-25T11:09:21.704Z</time></trkpt><trkpt lat="45.3507533" lon="7.5984833"><ele>609.0</ele><time>2026-04-25T11:09:22.704Z</time></trkpt><trkpt lat="45.3508067" lon="7.5985567"><ele>609.0</ele><time>2026-04-25T11:09:23.704Z</time></trkpt><trkpt lat="45.3508683" lon="7.5985933"><ele>609.0</ele><time>2026-04-25T11:09:24.704Z</time></trkpt><trkpt lat="45.3509367" lon="7.59857"><ele>609.0</ele><time>2026-04-25T11:09:25.704Z</time></trkpt><trkpt lat="45.3510183" lon="7.598495"><ele>609.0</ele><time>2026-04-25T11:09:26.704Z</time></trkpt><trkpt lat="45.3511167" lon="7.598345"><ele>609.0</ele><time>2026-04-25T11:09:27.704Z</time></trkpt><trkpt lat="45.3512367" lon="7.5981383"><ele>609.0</ele><time>2026-04-25T11:09:28.704Z</time></trkpt><trkpt lat="45.3513567" lon="7.5979433"><ele>611.6666666666666</ele><time>2026-04-25T11:09:29.704Z</time></trkpt><trkpt lat="45.351465" lon="7.5977783"><ele>614.3333333333333</ele><time>2026-04-25T11:09:30.704Z</time></trkpt><trkpt lat="45.3515833" lon="7.5976117"><ele>617.0</ele><time>2026-04-25T11:09:31.704Z</time></trkpt><trkpt lat="45.3516983" lon="7.5974517"><ele>617.0</ele><time>2026-04-25T11:09:32.704Z</time></trkpt><trkpt lat="45.3518" lon="7.5973133"><ele>617.0</ele><time>2026-04-25T11:09:33.704Z</time></trkpt><trkpt lat="45.3519" lon="7.5971867"><ele>617.0</ele><time>2026-04-25T11:09:34.704Z</time></trkpt><trkpt lat="45.352" lon="7.597065"><ele>617.0</ele><time>2026-04-25T11:09:35.704Z</time></trkpt><trkpt lat="45.3521" lon="7.5969467"><ele>617.0</ele><time>2026-04-25T11:09:36.704Z</time></trkpt><trkpt lat="45.35219" lon="7.5968417"><ele>617.0</ele><time>2026-04-25T11:09:37.704Z</time></trkpt><trkpt lat="45.3522833" lon="7.59675"><ele>617.0</ele><time>2026-04-25T11:09:38.704Z</time></trkpt><trkpt lat="45.3523783" lon="7.5966783"><ele>617.0</ele><time>2026-04-25T11:09:39.704Z</time></trkpt><trkpt lat="45.3524683" lon="7.596615"><ele>617.0</ele><time>2026-04-25T11:09:40.704Z</time></trkpt><trkpt lat="45.3525483" lon="7.5965583"><ele>617.0</ele><time>2026-04-25T11:09:41.704Z</time></trkpt><trkpt lat="45.3526283" lon="7.5964917"><ele>617.0</ele><time>2026-04-25T11:09:42.704Z</time></trkpt><trkpt lat="45.3527017" lon="7.59643"><ele>617.0</ele><time>2026-04-25T11:09:43.704Z</time></trkpt><trkpt lat="45.352775" lon="7.596365"><ele>617.0</ele><time>2026-04-25T11:09:44.704Z</time></trkpt><trkpt lat="45.35285" lon="7.596295"><ele>617.0</ele><time>2026-04-25T11:09:45.704Z</time></trkpt><trkpt lat="45.3529283" lon="7.5962317"><ele>617.0</ele><time>2026-04-25T11:09:46.705Z</time></trkpt><trkpt lat="45.3530117" lon="7.59619"><ele>617.1666666666666</ele><time>2026-04-25T11:09:47.704Z</time></trkpt><trkpt lat="45.3530917" lon="7.5961917"><ele>617.3333333333333</ele><time>2026-04-25T11:09:48.704Z</time></trkpt><trkpt lat="45.35317" lon="7.5962"><ele>617.5</ele><time>2026-04-25T11:09:49.704Z</time></trkpt><trkpt lat="45.35326" lon="7.5961717"><ele>617.6666666666666</ele><time>2026-04-25T11:09:50.704Z</time></trkpt><trkpt lat="45.353345" lon="7.5961283"><ele>617.8333333333334</ele><time>2026-04-25T11:09:51.704Z</time></trkpt><trkpt lat="45.353435" lon="7.596075"><ele>618.0</ele><time>2026-04-25T11:09:52.704Z</time></trkpt><trkpt lat="45.353525" lon="7.5960133"><ele>618.0</ele><time>2026-04-25T11:09:53.705Z</time></trkpt><trkpt lat="45.3536383" lon="7.5959533"><ele>618.0</ele><time>2026-04-25T11:09:54.704Z</time></trkpt><trkpt lat="45.3537567" lon="7.59589"><ele>618.0</ele><time>2026-04-25T11:09:55.704Z</time></trkpt><trkpt lat="45.35388" lon="7.5958233"><ele>618.0</ele><time>2026-04-25T11:09:56.704Z</time></trkpt><trkpt lat="45.3540133" lon="7.59574"><ele>619.5</ele><time>2026-04-25T11:09:57.704Z</time></trkpt><trkpt lat="45.3541433" lon="7.5956617"><ele>621.0</ele><time>2026-04-25T11:09:58.704Z</time></trkpt><trkpt lat="45.3542567" lon="7.5955517"><ele>622.5</ele><time>2026-04-25T11:09:59.704Z</time></trkpt><trkpt lat="45.3543483" lon="7.5953933"><ele>624.0</ele><time>2026-04-25T11:10:00.704Z</time></trkpt><trkpt lat="45.3544067" lon="7.595195"><ele>624.0</ele><time>2026-04-25T11:10:01.704Z</time></trkpt><trkpt lat="45.3544583" lon="7.5949867"><ele>624.0</ele><time>2026-04-25T11:10:02.704Z</time></trkpt><trkpt lat="45.3545167" lon="7.59481"><ele>624.0</ele><time>2026-04-25T11:10:03.704Z</time></trkpt><trkpt lat="45.3545817" lon="7.5946617"><ele>624.0</ele><time>2026-04-25T11:10:04.704Z</time></trkpt><trkpt lat="45.3546633" lon="7.5945633"><ele>625.75</ele><time>2026-04-25T11:10:05.704Z</time></trkpt><trkpt lat="45.354775" lon="7.594525"><ele>627.5</ele><time>2026-04-25T11:10:06.704Z</time></trkpt><trkpt lat="45.354935" lon="7.5945033"><ele>629.25</ele><time>2026-04-25T11:10:07.704Z</time></trkpt><trkpt lat="45.3551" lon="7.59444"><ele>631.0</ele><time>2026-04-25T11:10:08.704Z</time></trkpt><trkpt lat="45.35527" lon="7.5943767"><ele>631.0</ele><time>2026-04-25T11:10:09.704Z</time></trkpt><trkpt lat="45.35543" lon="7.59434"><ele>631.0</ele><time>2026-04-25T11:10:10.704Z</time></trkpt><trkpt lat="45.3555783" lon="7.5943267"><ele>631.0</ele><time>2026-04-25T11:10:11.704Z</time></trkpt><trkpt lat="45.355715" lon="7.5943317"><ele>631.0</ele><time>2026-04-25T11:10:12.704Z</time></trkpt><trkpt lat="45.3558417" lon="7.5943183"><ele>628.4</ele><time>2026-04-25T11:10:13.704Z</time></trkpt><trkpt lat="45.35596" lon="7.5942833"><ele>625.8</ele><time>2026-04-25T11:10:14.704Z</time></trkpt><trkpt lat="45.35607" lon="7.59427"><ele>623.1999999999999</ele><time>2026-04-25T11:10:15.704Z</time></trkpt><trkpt lat="45.356175" lon="7.5943067"><ele>620.6</ele><time>2026-04-25T11:10:16.704Z</time></trkpt><trkpt lat="45.3562567" lon="7.5944083"><ele>618.0</ele><time>2026-04-25T11:10:17.704Z</time></trkpt><trkpt lat="45.3563117" lon="7.5945767"><ele>615.5</ele><time>2026-04-25T11:10:18.705Z</time></trkpt><trkpt lat="45.35637" lon="7.5947483"><ele>613.0</ele><time>2026-04-25T11:10:19.704Z</time></trkpt><trkpt lat="45.3564567" lon="7.5949083"><ele>610.5</ele><time>2026-04-25T11:10:20.704Z</time></trkpt><trkpt lat="45.35656" lon="7.5950317"><ele>608.0</ele><time>2026-04-25T11:10:21.704Z</time></trkpt><trkpt lat="45.3566617" lon="7.595125"><ele>608.0</ele><time>2026-04-25T11:10:22.704Z</time></trkpt><trkpt lat="45.3567767" lon="7.595165"><ele>608.0</ele><time>2026-04-25T11:10:23.704Z</time></trkpt><trkpt lat="45.3568983" lon="7.5951467"><ele>608.0</ele><time>2026-04-25T11:10:24.704Z</time></trkpt><trkpt lat="45.35702" lon="7.59509"><ele>608.0</ele><time>2026-04-25T11:10:25.704Z</time></trkpt><trkpt lat="45.3571483" lon="7.5949767"><ele>606.0</ele><time>2026-04-25T11:10:26.703Z</time></trkpt><trkpt lat="45.357285" lon="7.5948317"><ele>604.0</ele><time>2026-04-25T11:10:27.703Z</time></trkpt><trkpt lat="45.35742" lon="7.5947117"><ele>602.0</ele><time>2026-04-25T11:10:28.703Z</time></trkpt><trkpt lat="45.3575533" lon="7.5946017"><ele>611.0</ele><time>2026-04-25T11:10:29.703Z</time></trkpt><trkpt lat="45.3576783" lon="7.5944967"><ele>620.0</ele><time>2026-04-25T11:10:30.703Z</time></trkpt><trkpt lat="45.357795" lon="7.5943567"><ele>629.0</ele><time>2026-04-25T11:10:31.703Z</time></trkpt><trkpt lat="45.3579033" lon="7.59419"><ele>629.0</ele><time>2026-04-25T11:10:32.703Z</time></trkpt><trkpt lat="45.35799" lon="7.5940133"><ele>629.0</ele><time>2026-04-25T11:10:33.703Z</time></trkpt><trkpt lat="45.3580667" lon="7.5938433"><ele>629.0</ele><time>2026-04-25T11:10:34.703Z</time></trkpt><trkpt lat="45.358125" lon="7.59368"><ele>629.0</ele><time>2026-04-25T11:10:35.703Z</time></trkpt><trkpt lat="45.3581683" lon="7.5935167"><ele>627.2</ele><time>2026-04-25T11:10:36.704Z</time></trkpt><trkpt lat="45.3582217" lon="7.5933817"><ele>625.4</ele><time>2026-04-25T11:10:37.703Z</time></trkpt><trkpt lat="45.3582833" lon="7.5933017"><ele>623.6</ele><time>2026-04-25T11:10:38.703Z</time></trkpt><trkpt lat="45.3583567" lon="7.5932633"><ele>621.8</ele><time>2026-04-25T11:10:39.703Z</time></trkpt><trkpt lat="45.35847" lon="7.5932633"><ele>620.0</ele><time>2026-04-25T11:10:40.703Z</time></trkpt><trkpt lat="45.358595" lon="7.5933033"><ele>620.0</ele><time>2026-04-25T11:10:41.703Z</time></trkpt><trkpt lat="45.3587333" lon="7.593385"><ele>620.0</ele><time>2026-04-25T11:10:42.703Z</time></trkpt><trkpt lat="45.358855" lon="7.5934833"><ele>620.0</ele><time>2026-04-25T11:10:43.703Z</time></trkpt><trkpt lat="45.3589267" lon="7.593595"><ele>620.0</ele><time>2026-04-25T11:10:44.703Z</time></trkpt><trkpt lat="45.35894" lon="7.5937583"><ele>618.0</ele><time>2026-04-25T11:10:45.703Z</time></trkpt><trkpt lat="45.3589483" lon="7.5939383"><ele>616.0</ele><time>2026-04-25T11:10:46.703Z</time></trkpt><trkpt lat="45.35896" lon="7.5940933"><ele>614.0</ele><time>2026-04-25T11:10:47.703Z</time></trkpt><trkpt lat="45.3590133" lon="7.594205"><ele>612.0</ele><time>2026-04-25T11:10:48.703Z</time></trkpt><trkpt lat="45.359095" lon="7.5942817"><ele>610.0</ele><time>2026-04-25T11:10:49.703Z</time></trkpt><trkpt lat="45.3592" lon="7.59431"><ele>610.0</ele><time>2026-04-25T11:10:50.703Z</time></trkpt><trkpt lat="45.35931" lon="7.5942883"><ele>610.0</ele><time>2026-04-25T11:10:51.703Z</time></trkpt><trkpt lat="45.359415" lon="7.59424"><ele>610.0</ele><time>2026-04-25T11:10:52.703Z</time></trkpt><trkpt lat="45.3595017" lon="7.5941583"><ele>610.0</ele><time>2026-04-25T11:10:53.703Z</time></trkpt><trkpt lat="45.3595667" lon="7.5940267"><ele>610.0</ele><time>2026-04-25T11:10:54.703Z</time></trkpt><trkpt lat="45.3596" lon="7.5938633"><ele>610.0</ele><time>2026-04-25T11:10:55.703Z</time></trkpt><trkpt lat="45.3596117" lon="7.5936917"><ele>610.0</ele><time>2026-04-25T11:10:56.703Z</time></trkpt><trkpt lat="45.3596083" lon="7.593535"><ele>610.0</ele><time>2026-04-25T11:10:57.703Z</time></trkpt><trkpt lat="45.35961" lon="7.5933917"><ele>610.0</ele><time>2026-04-25T11:10:58.703Z</time></trkpt><trkpt lat="45.3596383" lon="7.5932833"><ele>610.0</ele><time>2026-04-25T11:10:59.703Z</time></trkpt><trkpt lat="45.3596783" lon="7.5932117"><ele>610.2</ele><time>2026-04-25T11:11:00.703Z</time></trkpt><trkpt lat="45.35974" lon="7.5931933"><ele>610.4</ele><time>2026-04-25T11:11:01.703Z</time></trkpt><trkpt lat="45.3598217" lon="7.5932483"><ele>610.6</ele><time>2026-04-25T11:11:02.703Z</time></trkpt><trkpt lat="45.3599167" lon="7.59338"><ele>610.8</ele><time>2026-04-25T11:11:03.704Z</time></trkpt><trkpt lat="45.3599933" lon="7.5935567"><ele>611.0</ele><time>2026-04-25T11:11:04.703Z</time></trkpt><trkpt lat="45.36005" lon="7.5937717"><ele>611.0</ele><time>2026-04-25T11:11:05.703Z</time></trkpt><trkpt lat="45.36009" lon="7.5939883"><ele>611.0</ele><time>2026-04-25T11:11:06.703Z</time></trkpt><trkpt lat="45.3601267" lon="7.5941833"><ele>611.0</ele><time>2026-04-25T11:11:07.703Z</time></trkpt><trkpt lat="45.360175" lon="7.59433"><ele>611.0</ele><time>2026-04-25T11:11:08.703Z</time></trkpt><trkpt lat="45.36025" lon="7.5944417"><ele>611.0</ele><time>2026-04-25T11:11:09.703Z</time></trkpt><trkpt lat="45.36034" lon="7.5944983"><ele>611.0</ele><time>2026-04-25T11:11:10.703Z</time></trkpt><trkpt lat="45.3604533" lon="7.5944933"><ele>611.0</ele><time>2026-04-25T11:11:11.703Z</time></trkpt><trkpt lat="45.3605683" lon="7.5944383"><ele>611.0</ele><time>2026-04-25T11:11:12.704Z</time></trkpt><trkpt lat="45.360665" lon="7.594395"><ele>611.0</ele><time>2026-04-25T11:11:13.703Z</time></trkpt><trkpt lat="45.3607517" lon="7.5943867"><ele>613.6</ele><time>2026-04-25T11:11:14.703Z</time></trkpt><trkpt lat="45.3608267" lon="7.5944033"><ele>616.2</ele><time>2026-04-25T11:11:15.703Z</time></trkpt><trkpt lat="45.360865" lon="7.5945667"><ele>618.8</ele><time>2026-04-25T11:11:17.704Z</time></trkpt><trkpt lat="45.3608233" lon="7.5946817"><ele>621.4</ele><time>2026-04-25T11:11:18.703Z</time></trkpt><trkpt lat="45.36073" lon="7.5948233"><ele>624.0</ele><time>2026-04-25T11:11:19.703Z</time></trkpt><trkpt lat="45.3606133" lon="7.59499"><ele>617.5</ele><time>2026-04-25T11:11:20.703Z</time></trkpt><trkpt lat="45.3605167" lon="7.5951833"><ele>611.0</ele><time>2026-04-25T11:11:21.703Z</time></trkpt><trkpt lat="45.360455" lon="7.59537"><ele>604.5</ele><time>2026-04-25T11:11:22.703Z</time></trkpt><trkpt lat="45.3604083" lon="7.595515"><ele>598.0</ele><time>2026-04-25T11:11:23.703Z</time></trkpt><trkpt lat="45.3603667" lon="7.59561"><ele>598.0</ele><time>2026-04-25T11:11:24.703Z</time></trkpt><trkpt lat="45.360325" lon="7.5956867"><ele>598.0</ele><time>2026-04-25T11:11:25.703Z</time></trkpt><trkpt lat="45.3602467" lon="7.5957667"><ele>598.0</ele><time>2026-04-25T11:11:27.703Z</time></trkpt><trkpt lat="45.360195" lon="7.5958217"><ele>598.0</ele><time>2026-04-25T11:11:31.703Z</time></trkpt><trkpt lat="45.3602483" lon="7.5958733"><ele>598.0</ele><time>2026-04-25T11:11:35.703Z</time></trkpt><trkpt lat="45.360315" lon="7.5957733"><ele>598.0</ele><time>2026-04-25T11:11:37.703Z</time></trkpt><trkpt lat="45.3603583" lon="7.5956733"><ele>598.0</ele><time>2026-04-25T11:11:38.703Z</time></trkpt><trkpt lat="45.3604017" lon="7.5955533"><ele>598.0</ele><time>2026-04-25T11:11:39.703Z</time></trkpt><trkpt lat="45.3604383" lon="7.5954667"><ele>598.0</ele><time>2026-04-25T11:11:40.703Z</time></trkpt><trkpt lat="45.3605133" lon="7.5954033"><ele>598.0</ele><time>2026-04-25T11:11:42.703Z</time></trkpt><trkpt lat="45.360495" lon="7.5955567"><ele>598.0</ele><time>2026-04-25T11:11:45.703Z</time></trkpt><trkpt lat="45.3604383" lon="7.5956833"><ele>598.0</ele><time>2026-04-25T11:11:46.703Z</time></trkpt><trkpt lat="45.3603833" lon="7.5958517"><ele>598.0</ele><time>2026-04-25T11:11:47.703Z</time></trkpt><trkpt lat="45.3603267" lon="7.5960733"><ele>598.0</ele><time>2026-04-25T11:11:48.703Z</time></trkpt><trkpt lat="45.3602817" lon="7.596315"><ele>600.5</ele><time>2026-04-25T11:11:49.703Z</time></trkpt><trkpt lat="45.3602433" lon="7.5965267"><ele>603.0</ele><time>2026-04-25T11:11:50.703Z</time></trkpt><trkpt lat="45.3602283" lon="7.5967117"><ele>605.5</ele><time>2026-04-25T11:11:51.703Z</time></trkpt><trkpt lat="45.3602283" lon="7.5968617"><ele>608.0</ele><time>2026-04-25T11:11:52.703Z</time></trkpt><trkpt lat="45.3602567" lon="7.5969917"><ele>608.0</ele><time>2026-04-25T11:11:53.703Z</time></trkpt><trkpt lat="45.3602917" lon="7.5970767"><ele>608.0</ele><time>2026-04-25T11:11:54.703Z</time></trkpt><trkpt lat="45.3603883" lon="7.59715"><ele>608.0</ele><time>2026-04-25T11:11:56.703Z</time></trkpt><trkpt lat="45.360445" lon="7.5971083"><ele>608.0</ele><time>2026-04-25T11:11:57.703Z</time></trkpt><trkpt lat="45.3604867" lon="7.5970333"><ele>608.0</ele><time>2026-04-25T11:11:58.703Z</time></trkpt><trkpt lat="45.3605233" lon="7.5969217"><ele>608.0</ele><time>2026-04-25T11:11:59.703Z</time></trkpt><trkpt lat="45.36056" lon="7.596785"><ele>614.1666666666666</ele><time>2026-04-25T11:12:00.703Z</time></trkpt><trkpt lat="45.3606067" lon="7.5966517"><ele>620.3333333333333</ele><time>2026-04-25T11:12:01.703Z</time></trkpt><trkpt lat="45.3606517" lon="7.5965533"><ele>626.5</ele><time>2026-04-25T11:12:02.703Z</time></trkpt><trkpt lat="45.3606967" lon="7.59649"><ele>632.6666666666666</ele><time>2026-04-25T11:12:03.703Z</time></trkpt><trkpt lat="45.360775" lon="7.5964817"><ele>638.8333333333334</ele><time>2026-04-25T11:12:05.703Z</time></trkpt><trkpt lat="45.3607533" lon="7.59665"><ele>645.0</ele><time>2026-04-25T11:12:07.703Z</time></trkpt><trkpt lat="45.3607233" lon="7.5968017"><ele>645.0</ele><time>2026-04-25T11:12:08.703Z</time></trkpt><trkpt lat="45.36073" lon="7.5969333"><ele>645.0</ele><time>2026-04-25T11:12:09.703Z</time></trkpt><trkpt lat="45.3607683" lon="7.597035"><ele>645.0</ele><time>2026-04-25T11:12:10.703Z</time></trkpt><trkpt lat="45.3608217" lon="7.5970967"><ele>645.0</ele><time>2026-04-25T11:12:11.703Z</time></trkpt><trkpt lat="45.3609367" lon="7.5970033"><ele>645.0</ele><time>2026-04-25T11:12:13.703Z</time></trkpt><trkpt lat="45.3609933" lon="7.5968317"><ele>645.0</ele><time>2026-04-25T11:12:14.703Z</time></trkpt><trkpt lat="45.36107" lon="7.596615"><ele>645.0</ele><time>2026-04-25T11:12:15.703Z</time></trkpt><trkpt lat="45.361175" lon="7.59637"><ele>645.0</ele><time>2026-04-25T11:12:16.703Z</time></trkpt><trkpt lat="45.3613033" lon="7.5961133"><ele>653.3333333333334</ele><time>2026-04-25T11:12:17.703Z</time></trkpt><trkpt lat="45.3614217" lon="7.595865"><ele>661.6666666666667</ele><time>2026-04-25T11:12:18.703Z</time></trkpt><trkpt lat="45.361525" lon="7.5956433"><ele>670.0</ele><time>2026-04-25T11:12:19.703Z</time></trkpt><trkpt lat="45.3616233" lon="7.5954617"><ele>666.6</ele><time>2026-04-25T11:12:20.703Z</time></trkpt><trkpt lat="45.36172" lon="7.5953083"><ele>663.2</ele><time>2026-04-25T11:12:21.703Z</time></trkpt><trkpt lat="45.3618033" lon="7.595195"><ele>659.8</ele><time>2026-04-25T11:12:22.703Z</time></trkpt><trkpt lat="45.3618867" lon="7.5951467"><ele>656.4</ele><time>2026-04-25T11:12:23.703Z</time></trkpt><trkpt lat="45.3619817" lon="7.5951483"><ele>653.0</ele><time>2026-04-25T11:12:24.703Z</time></trkpt><trkpt lat="45.3620967" lon="7.5952183"><ele>657.0</ele><time>2026-04-25T11:12:25.703Z</time></trkpt><trkpt lat="45.3622367" lon="7.5952833"><ele>661.0</ele><time>2026-04-25T11:12:26.703Z</time></trkpt><trkpt lat="45.362375" lon="7.5953233"><ele>665.0</ele><time>2026-04-25T11:12:27.703Z</time></trkpt><trkpt lat="45.362505" lon="7.59533"><ele>669.0</ele><time>2026-04-25T11:12:28.703Z</time></trkpt><trkpt lat="45.3626083" lon="7.59527"><ele>669.0</ele><time>2026-04-25T11:12:29.704Z</time></trkpt><trkpt lat="45.362675" lon="7.5951583"><ele>669.0</ele><time>2026-04-25T11:12:30.703Z</time></trkpt><trkpt lat="45.3627117" lon="7.5950217"><ele>669.0</ele><time>2026-04-25T11:12:31.703Z</time></trkpt><trkpt lat="45.3627367" lon="7.5948917"><ele>669.0</ele><time>2026-04-25T11:12:32.703Z</time></trkpt><trkpt lat="45.3627867" lon="7.5947567"><ele>669.0</ele><time>2026-04-25T11:12:33.703Z</time></trkpt><trkpt lat="45.3628817" lon="7.594615"><ele>667.25</ele><time>2026-04-25T11:12:34.703Z</time></trkpt><trkpt lat="45.3629817" lon="7.5944867"><ele>665.5</ele><time>2026-04-25T11:12:35.703Z</time></trkpt><trkpt lat="45.36305" lon="7.5943517"><ele>663.75</ele><time>2026-04-25T11:12:36.703Z</time></trkpt><trkpt lat="45.36307" lon="7.5941833"><ele>662.0</ele><time>2026-04-25T11:12:37.703Z</time></trkpt><trkpt lat="45.3630417" lon="7.5940133"><ele>662.0</ele><time>2026-04-25T11:12:38.703Z</time></trkpt><trkpt lat="45.3630117" lon="7.5938733"><ele>662.0</ele><time>2026-04-25T11:12:39.703Z</time></trkpt><trkpt lat="45.3629667" lon="7.5937317"><ele>662.0</ele><time>2026-04-25T11:12:40.703Z</time></trkpt><trkpt lat="45.36293" lon="7.59359"><ele>662.0</ele><time>2026-04-25T11:12:41.703Z</time></trkpt><trkpt lat="45.3629267" lon="7.593445"><ele>662.0</ele><time>2026-04-25T11:12:42.703Z</time></trkpt><trkpt lat="45.3629683" lon="7.5932817"><ele>671.3333333333333</ele><time>2026-04-25T11:12:43.703Z</time></trkpt><trkpt lat="45.36305" lon="7.59311"><ele>680.6666666666666</ele><time>2026-04-25T11:12:44.703Z</time></trkpt><trkpt lat="45.3631617" lon="7.592935"><ele>690.0</ele><time>2026-04-25T11:12:45.703Z</time></trkpt><trkpt lat="45.3632683" lon="7.5927733"><ele>690.0</ele><time>2026-04-25T11:12:46.703Z</time></trkpt><trkpt lat="45.3633683" lon="7.5926417"><ele>690.0</ele><time>2026-04-25T11:12:47.703Z</time></trkpt><trkpt lat="45.3634933" lon="7.5925383"><ele>690.0</ele><time>2026-04-25T11:12:48.703Z</time></trkpt><trkpt lat="45.3636333" lon="7.5924567"><ele>690.0</ele><time>2026-04-25T11:12:49.703Z</time></trkpt><trkpt lat="45.363805" lon="7.59241"><ele>695.25</ele><time>2026-04-25T11:12:50.703Z</time></trkpt><trkpt lat="45.3639683" lon="7.5923733"><ele>700.5</ele><time>2026-04-25T11:12:51.703Z</time></trkpt><trkpt lat="45.3641183" lon="7.5923433"><ele>705.75</ele><time>2026-04-25T11:12:52.703Z</time></trkpt><trkpt lat="45.364245" lon="7.5923233"><ele>711.0</ele><time>2026-04-25T11:12:53.703Z</time></trkpt><trkpt lat="45.3643583" lon="7.5923317"><ele>711.0</ele><time>2026-04-25T11:12:54.703Z</time></trkpt><trkpt lat="45.3644467" lon="7.592385"><ele>711.0</ele><time>2026-04-25T11:12:55.703Z</time></trkpt><trkpt lat="45.3645117" lon="7.592475"><ele>711.0</ele><time>2026-04-25T11:12:56.703Z</time></trkpt><trkpt lat="45.3645383" lon="7.5925767"><ele>711.0</ele><time>2026-04-25T11:12:57.703Z</time></trkpt><trkpt lat="45.3645467" lon="7.59269"><ele>711.0</ele><time>2026-04-25T11:12:58.703Z</time></trkpt><trkpt lat="45.3645117" lon="7.5928033"><ele>711.0</ele><time>2026-04-25T11:12:59.703Z</time></trkpt><trkpt lat="45.3644383" lon="7.592905"><ele>714.0</ele><time>2026-04-25T11:13:00.703Z</time></trkpt><trkpt lat="45.36431" lon="7.5929867"><ele>717.0</ele><time>2026-04-25T11:13:01.703Z</time></trkpt><trkpt lat="45.3641717" lon="7.5930517"><ele>720.0</ele><time>2026-04-25T11:13:02.703Z</time></trkpt><trkpt lat="45.36405" lon="7.59309"><ele>723.0</ele><time>2026-04-25T11:13:03.703Z</time></trkpt><trkpt lat="45.3639767" lon="7.593135"><ele>723.0</ele><time>2026-04-25T11:13:04.703Z</time></trkpt><trkpt lat="45.3639317" lon="7.5932617"><ele>723.0</ele><time>2026-04-25T11:13:06.703Z</time></trkpt><trkpt lat="45.3640167" lon="7.59334"><ele>723.0</ele><time>2026-04-25T11:13:08.704Z</time></trkpt><trkpt lat="45.3641383" lon="7.593355"><ele>723.0</ele><time>2026-04-25T11:13:09.703Z</time></trkpt><trkpt lat="45.3643033" lon="7.59339"><ele>723.0</ele><time>2026-04-25T11:13:10.703Z</time></trkpt><trkpt lat="45.3644733" lon="7.5934167"><ele>723.0</ele><time>2026-04-25T11:13:11.703Z</time></trkpt><trkpt lat="45.364635" lon="7.5934183"><ele>723.0</ele><time>2026-04-25T11:13:12.703Z</time></trkpt><trkpt lat="45.364745" lon="7.5933717"><ele>723.0</ele><time>2026-04-25T11:13:13.703Z</time></trkpt><trkpt lat="45.36486" lon="7.5932867"><ele>727.25</ele><time>2026-04-25T11:13:14.703Z</time></trkpt><trkpt lat="45.3649717" lon="7.593225"><ele>731.5</ele><time>2026-04-25T11:13:15.703Z</time></trkpt><trkpt lat="45.3650833" lon="7.59314"><ele>735.75</ele><time>2026-04-25T11:13:16.703Z</time></trkpt><trkpt lat="45.3651683" lon="7.5930167"><ele>740.0</ele><time>2026-04-25T11:13:17.703Z</time></trkpt><trkpt lat="45.365235" lon="7.5928633"><ele>739.0</ele><time>2026-04-25T11:13:18.703Z</time></trkpt><trkpt lat="45.36527" lon="7.5926333"><ele>738.0</ele><time>2026-04-25T11:13:19.703Z</time></trkpt><trkpt lat="45.365275" lon="7.592355"><ele>737.0</ele><time>2026-04-25T11:13:20.703Z</time></trkpt><trkpt lat="45.3652983" lon="7.5921067"><ele>737.3333333333333</ele><time>2026-04-25T11:13:21.703Z</time></trkpt><trkpt lat="45.3653217" lon="7.5918917"><ele>737.6666666666666</ele><time>2026-04-25T11:13:22.703Z</time></trkpt><trkpt lat="45.365385" lon="7.591695"><ele>738.0</ele><time>2026-04-25T11:13:23.703Z</time></trkpt><trkpt lat="45.3654817" lon="7.5915167"><ele>745.0</ele><time>2026-04-25T11:13:24.703Z</time></trkpt><trkpt lat="45.3655833" lon="7.5913317"><ele>752.0</ele><time>2026-04-25T11:13:25.703Z</time></trkpt><trkpt lat="45.3656467" lon="7.591135"><ele>759.0</ele><time>2026-04-25T11:13:26.704Z</time></trkpt><trkpt lat="45.3656733" lon="7.5909717"><ele>766.0</ele><time>2026-04-25T11:13:27.703Z</time></trkpt><trkpt lat="45.3656783" lon="7.5908417"><ele>766.0</ele><time>2026-04-25T11:13:28.703Z</time></trkpt><trkpt lat="45.36566" lon="7.590735"><ele>766.0</ele><time>2026-04-25T11:13:29.703Z</time></trkpt><trkpt lat="45.3656183" lon="7.59066"><ele>766.0</ele><time>2026-04-25T11:13:30.703Z</time></trkpt><trkpt lat="45.3655483" lon="7.59061"><ele>766.0</ele><time>2026-04-25T11:13:31.703Z</time></trkpt><trkpt lat="45.365475" lon="7.590585"><ele>766.0</ele><time>2026-04-25T11:13:32.703Z</time></trkpt><trkpt lat="45.36537" lon="7.5905983"><ele>766.0</ele><time>2026-04-25T11:13:34.703Z</time></trkpt><trkpt lat="45.3652833" lon="7.5905683"><ele>766.0</ele><time>2026-04-25T11:13:36.703Z</time></trkpt><trkpt lat="45.3653317" lon="7.59049"><ele>766.0</ele><time>2026-04-25T11:13:39.703Z</time></trkpt><trkpt lat="45.3654167" lon="7.5904867"><ele>766.0</ele><time>2026-04-25T11:13:40.703Z</time></trkpt><trkpt lat="45.36554" lon="7.5904917"><ele>766.0</ele><time>2026-04-25T11:13:41.703Z</time></trkpt><trkpt lat="45.3656683" lon="7.5904767"><ele>766.0</ele><time>2026-04-25T11:13:42.703Z</time></trkpt><trkpt lat="45.36578" lon="7.5905067"><ele>766.0</ele><time>2026-04-25T11:13:43.703Z</time></trkpt><trkpt lat="45.3658633" lon="7.5905583"><ele>766.0</ele><time>2026-04-25T11:13:44.703Z</time></trkpt><trkpt lat="45.365915" lon="7.5906417"><ele>766.0</ele><time>2026-04-25T11:13:45.703Z</time></trkpt><trkpt lat="45.3659383" lon="7.590755"><ele>766.0</ele><time>2026-04-25T11:13:46.703Z</time></trkpt><trkpt lat="45.3659283" lon="7.5909167"><ele>766.0</ele><time>2026-04-25T11:13:47.703Z</time></trkpt><trkpt lat="45.3659183" lon="7.5910617"><ele>766.0</ele><time>2026-04-25T11:13:48.704Z</time></trkpt><trkpt lat="45.365955" lon="7.5911583"><ele>766.0</ele><time>2026-04-25T11:13:50.703Z</time></trkpt><trkpt lat="45.3660067" lon="7.5910067"><ele>766.0</ele><time>2026-04-25T11:13:52.703Z</time></trkpt><trkpt lat="45.3660467" lon="7.5908267"><ele>766.0</ele><time>2026-04-25T11:13:53.703Z</time></trkpt><trkpt lat="45.3661083" lon="7.590635"><ele>766.0</ele><time>2026-04-25T11:13:54.703Z</time></trkpt><trkpt lat="45.3661767" lon="7.5904933"><ele>766.0</ele><time>2026-04-25T11:13:55.703Z</time></trkpt><trkpt lat="45.3662167" lon="7.590375"><ele>766.0</ele><time>2026-04-25T11:13:56.703Z</time></trkpt><trkpt lat="45.3662283" lon="7.5902717"><ele>766.0</ele><time>2026-04-25T11:13:57.703Z</time></trkpt><trkpt lat="45.366215" lon="7.5901367"><ele>766.0</ele><time>2026-04-25T11:13:59.703Z</time></trkpt><trkpt lat="45.3662" lon="7.5900417"><ele>766.5999999999999</ele><time>2026-04-25T11:14:00.703Z</time></trkpt><trkpt lat="45.3661717" lon="7.58992"><ele>767.2</ele><time>2026-04-25T11:14:01.703Z</time></trkpt><trkpt lat="45.366135" lon="7.5897883"><ele>767.8</ele><time>2026-04-25T11:14:02.703Z</time></trkpt><trkpt lat="45.366105" lon="7.58964"><ele>768.4000000000001</ele><time>2026-04-25T11:14:03.703Z</time></trkpt><trkpt lat="45.3660783" lon="7.5894983"><ele>769.0</ele><time>2026-04-25T11:14:04.703Z</time></trkpt><trkpt lat="45.3660433" lon="7.5893417"><ele>770.0</ele><time>2026-04-25T11:14:05.703Z</time></trkpt><trkpt lat="45.36598" lon="7.5892017"><ele>771.0</ele><time>2026-04-25T11:14:06.703Z</time></trkpt><trkpt lat="45.3658917" lon="7.589065"><ele>772.0</ele><time>2026-04-25T11:14:07.703Z</time></trkpt><trkpt lat="45.365795" lon="7.5889167"><ele>773.0</ele><time>2026-04-25T11:14:08.703Z</time></trkpt><trkpt lat="45.36571" lon="7.588755"><ele>773.25</ele><time>2026-04-25T11:14:09.703Z</time></trkpt><trkpt lat="45.3656583" lon="7.58861"><ele>773.5</ele><time>2026-04-25T11:14:10.703Z</time></trkpt><trkpt lat="45.365645" lon="7.5884417"><ele>773.75</ele><time>2026-04-25T11:14:11.703Z</time></trkpt><trkpt lat="45.36567" lon="7.588285"><ele>774.0</ele><time>2026-04-25T11:14:12.703Z</time></trkpt><trkpt lat="45.3657533" lon="7.5881367"><ele>774.0</ele><time>2026-04-25T11:14:13.703Z</time></trkpt><trkpt lat="45.365855" lon="7.587995"><ele>774.0</ele><time>2026-04-25T11:14:14.703Z</time></trkpt><trkpt lat="45.3659483" lon="7.587845"><ele>774.0</ele><time>2026-04-25T11:14:15.704Z</time></trkpt><trkpt lat="45.36604" lon="7.5876783"><ele>774.0</ele><time>2026-04-25T11:14:16.703Z</time></trkpt><trkpt lat="45.36611" lon="7.5875"><ele>776.6666666666667</ele><time>2026-04-25T11:14:17.703Z</time></trkpt><trkpt lat="45.3661667" lon="7.5872883"><ele>779.3333333333334</ele><time>2026-04-25T11:14:18.703Z</time></trkpt><trkpt lat="45.366215" lon="7.5870633"><ele>782.0</ele><time>2026-04-25T11:14:19.703Z</time></trkpt><trkpt lat="45.3662583" lon="7.5868283"><ele>784.0</ele><time>2026-04-25T11:14:20.703Z</time></trkpt><trkpt lat="45.366305" lon="7.5865867"><ele>786.0</ele><time>2026-04-25T11:14:21.703Z</time></trkpt><trkpt lat="45.3663517" lon="7.5863467"><ele>788.0</ele><time>2026-04-25T11:14:22.703Z</time></trkpt><trkpt lat="45.366405" lon="7.5861033"><ele>775.3333333333334</ele><time>2026-04-25T11:14:23.703Z</time></trkpt><trkpt lat="45.3664517" lon="7.5858667"><ele>762.6666666666667</ele><time>2026-04-25T11:14:24.703Z</time></trkpt><trkpt lat="45.3664983" lon="7.5856233"><ele>750.0</ele><time>2026-04-25T11:14:25.703Z</time></trkpt><trkpt lat="45.3665417" lon="7.5853933"><ele>750.0</ele><time>2026-04-25T11:14:26.703Z</time></trkpt><trkpt lat="45.36656" lon="7.5851733"><ele>750.0</ele><time>2026-04-25T11:14:27.703Z</time></trkpt><trkpt lat="45.36655" lon="7.5849333"><ele>750.0</ele><time>2026-04-25T11:14:28.703Z</time></trkpt><trkpt lat="45.3665283" lon="7.58465"><ele>749.0</ele><time>2026-04-25T11:14:29.703Z</time></trkpt><trkpt lat="45.366525" lon="7.58438"><ele>748.0</ele><time>2026-04-25T11:14:30.703Z</time></trkpt><trkpt lat="45.3665167" lon="7.5841217"><ele>747.0</ele><time>2026-04-25T11:14:31.703Z</time></trkpt><trkpt lat="45.3665" lon="7.58387"><ele>746.25</ele><time>2026-04-25T11:14:32.703Z</time></trkpt><trkpt lat="45.3664767" lon="7.5836517"><ele>745.5</ele><time>2026-04-25T11:14:33.703Z</time></trkpt><trkpt lat="45.366475" lon="7.5834633"><ele>744.75</ele><time>2026-04-25T11:14:34.703Z</time></trkpt><trkpt lat="45.3665083" lon="7.5832767"><ele>744.0</ele><time>2026-04-25T11:14:35.703Z</time></trkpt><trkpt lat="45.3665783" lon="7.5830683"><ele>744.0</ele><time>2026-04-25T11:14:36.703Z</time></trkpt><trkpt lat="45.36666" lon="7.5828617"><ele>744.0</ele><time>2026-04-25T11:14:37.703Z</time></trkpt><trkpt lat="45.3667583" lon="7.5826667"><ele>744.0</ele><time>2026-04-25T11:14:38.703Z</time></trkpt><trkpt lat="45.36687" lon="7.5824917"><ele>745.0</ele><time>2026-04-25T11:14:39.703Z</time></trkpt><trkpt lat="45.3669883" lon="7.5823367"><ele>746.0</ele><time>2026-04-25T11:14:40.703Z</time></trkpt><trkpt lat="45.3671067" lon="7.5822067"><ele>747.0</ele><time>2026-04-25T11:14:41.703Z</time></trkpt><trkpt lat="45.36723" lon="7.5820983"><ele>743.3333333333334</ele><time>2026-04-25T11:14:42.703Z</time></trkpt><trkpt lat="45.367375" lon="7.582025"><ele>739.6666666666667</ele><time>2026-04-25T11:14:43.703Z</time></trkpt><trkpt lat="45.367545" lon="7.5819967"><ele>736.0</ele><time>2026-04-25T11:14:44.703Z</time></trkpt><trkpt lat="45.367735" lon="7.58202"><ele>732.6666666666667</ele><time>2026-04-25T11:14:45.703Z</time></trkpt><trkpt lat="45.3679283" lon="7.5820667"><ele>729.3333333333334</ele><time>2026-04-25T11:14:46.703Z</time></trkpt><trkpt lat="45.3681133" lon="7.5821083"><ele>726.0</ele><time>2026-04-25T11:14:47.703Z</time></trkpt><trkpt lat="45.3682933" lon="7.5821317"><ele>723.6666666666666</ele><time>2026-04-25T11:14:48.703Z</time></trkpt><trkpt lat="45.3684683" lon="7.582155"><ele>721.3333333333333</ele><time>2026-04-25T11:14:49.703Z</time></trkpt><trkpt lat="45.3686317" lon="7.58218"><ele>719.0</ele><time>2026-04-25T11:14:50.703Z</time></trkpt><trkpt lat="45.3687633" lon="7.582195"><ele>719.3333333333333</ele><time>2026-04-25T11:14:51.703Z</time></trkpt><trkpt lat="45.3688783" lon="7.58222"><ele>719.6666666666666</ele><time>2026-04-25T11:14:52.703Z</time></trkpt><trkpt lat="45.36896" lon="7.5822333"><ele>720.0</ele><time>2026-04-25T11:14:53.703Z</time></trkpt><trkpt lat="45.3690317" lon="7.58224"><ele>720.3333333333334</ele><time>2026-04-25T11:14:54.703Z</time></trkpt><trkpt lat="45.3691133" lon="7.58222"><ele>720.6666666666667</ele><time>2026-04-25T11:14:55.703Z</time></trkpt><trkpt lat="45.3691883" lon="7.5821567"><ele>721.0</ele><time>2026-04-25T11:14:56.703Z</time></trkpt><trkpt lat="45.36926" lon="7.5820367"><ele>721.4</ele><time>2026-04-25T11:14:57.703Z</time></trkpt><trkpt lat="45.3693367" lon="7.5818867"><ele>721.8</ele><time>2026-04-25T11:14:58.703Z</time></trkpt><trkpt lat="45.3694033" lon="7.58175"><ele>722.1999999999999</ele><time>2026-04-25T11:14:59.703Z</time></trkpt><trkpt lat="45.36946" lon="7.581665"><ele>722.5999999999999</ele><time>2026-04-25T11:15:00.703Z</time></trkpt><trkpt lat="45.369565" lon="7.581635"><ele>723.0</ele><time>2026-04-25T11:15:02.703Z</time></trkpt><trkpt lat="45.3696017" lon="7.58177"><ele>723.0</ele><time>2026-04-25T11:15:04.703Z</time></trkpt><trkpt lat="45.369585" lon="7.5819267"><ele>723.0</ele><time>2026-04-25T11:15:05.703Z</time></trkpt><trkpt lat="45.3695583" lon="7.5821167"><ele>723.0</ele><time>2026-04-25T11:15:06.703Z</time></trkpt><trkpt lat="45.3695417" lon="7.5823"><ele>723.0</ele><time>2026-04-25T11:15:07.703Z</time></trkpt><trkpt lat="45.3695467" lon="7.5824867"><ele>722.5</ele><time>2026-04-25T11:15:08.703Z</time></trkpt><trkpt lat="45.3695517" lon="7.5826733"><ele>722.0</ele><time>2026-04-25T11:15:09.703Z</time></trkpt><trkpt lat="45.3695683" lon="7.58287"><ele>721.5</ele><time>2026-04-25T11:15:10.703Z</time></trkpt><trkpt lat="45.3695817" lon="7.5830583"><ele>721.0</ele><time>2026-04-25T11:15:11.704Z</time></trkpt><trkpt lat="45.3695733" lon="7.5832467"><ele>720.75</ele><time>2026-04-25T11:15:12.703Z</time></trkpt><trkpt lat="45.369535" lon="7.58343"><ele>720.5</ele><time>2026-04-25T11:15:13.703Z</time></trkpt><trkpt lat="45.36948" lon="7.5836117"><ele>720.25</ele><time>2026-04-25T11:15:14.703Z</time></trkpt><trkpt lat="45.369435" lon="7.5838167"><ele>720.0</ele><time>2026-04-25T11:15:15.703Z</time></trkpt><trkpt lat="45.3694433" lon="7.5840183"><ele>718.75</ele><time>2026-04-25T11:15:16.703Z</time></trkpt><trkpt lat="45.369485" lon="7.5842133"><ele>717.5</ele><time>2026-04-25T11:15:17.703Z</time></trkpt><trkpt lat="45.369535" lon="7.58439"><ele>716.25</ele><time>2026-04-25T11:15:18.703Z</time></trkpt><trkpt lat="45.3695617" lon="7.584565"><ele>715.0</ele><time>2026-04-25T11:15:19.703Z</time></trkpt><trkpt lat="45.3695633" lon="7.5847467"><ele>713.2</ele><time>2026-04-25T11:15:20.703Z</time></trkpt><trkpt lat="45.369555" lon="7.58492"><ele>711.4</ele><time>2026-04-25T11:15:21.703Z</time></trkpt><trkpt lat="45.3695433" lon="7.5850733"><ele>709.5999999999999</ele><time>2026-04-25T11:15:22.703Z</time></trkpt><trkpt lat="45.3695233" lon="7.585205"><ele>707.8</ele><time>2026-04-25T11:15:23.703Z</time></trkpt><trkpt lat="45.3695167" lon="7.5853067"><ele>706.0</ele><time>2026-04-25T11:15:24.703Z</time></trkpt><trkpt lat="45.3695383" lon="7.5854233"><ele>706.0</ele><time>2026-04-25T11:15:26.703Z</time></trkpt><trkpt lat="45.369595" lon="7.5853467"><ele>706.0</ele><time>2026-04-25T11:15:28.703Z</time></trkpt><trkpt lat="45.3696267" lon="7.5852117"><ele>706.0</ele><time>2026-04-25T11:15:29.703Z</time></trkpt><trkpt lat="45.3696733" lon="7.58508"><ele>706.0</ele><time>2026-04-25T11:15:30.703Z</time></trkpt><trkpt lat="45.3697183" lon="7.584995"><ele>706.0</ele><time>2026-04-25T11:15:31.704Z</time></trkpt><trkpt lat="45.369775" lon="7.5849517"><ele>706.0</ele><time>2026-04-25T11:15:32.703Z</time></trkpt><trkpt lat="45.369885" lon="7.584985"><ele>703.25</ele><time>2026-04-25T11:15:34.703Z</time></trkpt><trkpt lat="45.3699233" lon="7.585155"><ele>700.5</ele><time>2026-04-25T11:15:36.703Z</time></trkpt><trkpt lat="45.3699183" lon="7.5853233"><ele>697.75</ele><time>2026-04-25T11:15:37.703Z</time></trkpt><trkpt lat="45.369915" lon="7.5855433"><ele>695.0</ele><time>2026-04-25T11:15:38.703Z</time></trkpt><trkpt lat="45.369895" lon="7.5857967"><ele>693.75</ele><time>2026-04-25T11:15:39.703Z</time></trkpt><trkpt lat="45.369885" lon="7.586025"><ele>692.5</ele><time>2026-04-25T11:15:40.704Z</time></trkpt><trkpt lat="45.36988" lon="7.5862333"><ele>691.25</ele><time>2026-04-25T11:15:41.703Z</time></trkpt><trkpt lat="45.3698767" lon="7.5864283"><ele>690.0</ele><time>2026-04-25T11:15:42.703Z</time></trkpt><trkpt lat="45.369875" lon="7.5866133"><ele>689.2</ele><time>2026-04-25T11:15:43.703Z</time></trkpt><trkpt lat="45.36986" lon="7.5867833"><ele>688.4</ele><time>2026-04-25T11:15:44.703Z</time></trkpt><trkpt lat="45.3698267" lon="7.5869333"><ele>687.5999999999999</ele><time>2026-04-25T11:15:45.703Z</time></trkpt><trkpt lat="45.3697833" lon="7.587085"><ele>686.8</ele><time>2026-04-25T11:15:46.703Z</time></trkpt><trkpt lat="45.369755" lon="7.5872183"><ele>686.0</ele><time>2026-04-25T11:15:47.703Z</time></trkpt><trkpt lat="45.369775" lon="7.58736"><ele>683.5</ele><time>2026-04-25T11:15:48.703Z</time></trkpt><trkpt lat="45.3698383" lon="7.5875117"><ele>681.0</ele><time>2026-04-25T11:15:49.703Z</time></trkpt><trkpt lat="45.369925" lon="7.5876667"><ele>678.5</ele><time>2026-04-25T11:15:50.703Z</time></trkpt><trkpt lat="45.3700317" lon="7.58783"><ele>676.0</ele><time>2026-04-25T11:15:51.703Z</time></trkpt><trkpt lat="45.3701133" lon="7.5880117"><ele>674.3333333333334</ele><time>2026-04-25T11:15:52.703Z</time></trkpt><trkpt lat="45.3701667" lon="7.58821"><ele>672.6666666666666</ele><time>2026-04-25T11:15:53.703Z</time></trkpt><trkpt lat="45.3702183" lon="7.5884167"><ele>671.0</ele><time>2026-04-25T11:15:54.703Z</time></trkpt><trkpt lat="45.3703033" lon="7.5886217"><ele>672.6666666666666</ele><time>2026-04-25T11:15:55.703Z</time></trkpt><trkpt lat="45.3704267" lon="7.588835"><ele>674.3333333333334</ele><time>2026-04-25T11:15:56.703Z</time></trkpt><trkpt lat="45.3705617" lon="7.589085"><ele>676.0</ele><time>2026-04-25T11:15:57.703Z</time></trkpt><trkpt lat="45.3706683" lon="7.5893283"><ele>673.75</ele><time>2026-04-25T11:15:58.703Z</time></trkpt><trkpt lat="45.3707467" lon="7.58954"><ele>671.5</ele><time>2026-04-25T11:15:59.703Z</time></trkpt><trkpt lat="45.3707917" lon="7.5897067"><ele>669.25</ele><time>2026-04-25T11:16:00.703Z</time></trkpt><trkpt lat="45.3708117" lon="7.58983"><ele>667.0</ele><time>2026-04-25T11:16:01.703Z</time></trkpt><trkpt lat="45.3708617" lon="7.5899267"><ele>667.0</ele><time>2026-04-25T11:16:02.703Z</time></trkpt><trkpt lat="45.37093" lon="7.5900183"><ele>667.0</ele><time>2026-04-25T11:16:03.703Z</time></trkpt><trkpt lat="45.3710133" lon="7.5900933"><ele>667.0</ele><time>2026-04-25T11:16:04.703Z</time></trkpt><trkpt lat="45.371075" lon="7.5902033"><ele>667.0</ele><time>2026-04-25T11:16:05.703Z</time></trkpt><trkpt lat="45.3711283" lon="7.590375"><ele>667.0</ele><time>2026-04-25T11:16:06.703Z</time></trkpt><trkpt lat="45.3711633" lon="7.5905967"><ele>665.6666666666667</ele><time>2026-04-25T11:16:07.703Z</time></trkpt><trkpt lat="45.37117" lon="7.5908583"><ele>664.3333333333334</ele><time>2026-04-25T11:16:08.703Z</time></trkpt><trkpt lat="45.3711383" lon="7.5911517"><ele>663.0</ele><time>2026-04-25T11:16:09.703Z</time></trkpt><trkpt lat="45.371085" lon="7.59144"><ele>662.6666666666666</ele><time>2026-04-25T11:16:10.703Z</time></trkpt><trkpt lat="45.3710467" lon="7.5916883"><ele>662.3333333333333</ele><time>2026-04-25T11:16:11.703Z</time></trkpt><trkpt lat="45.3710267" lon="7.5919167"><ele>662.0</ele><time>2026-04-25T11:16:12.703Z</time></trkpt><trkpt lat="45.3710283" lon="7.592155"><ele>662.0</ele><time>2026-04-25T11:16:13.703Z</time></trkpt><trkpt lat="45.3710233" lon="7.5923867"><ele>662.0</ele><time>2026-04-25T11:16:14.703Z</time></trkpt><trkpt lat="45.3710033" lon="7.5925917"><ele>662.0</ele><time>2026-04-25T11:16:15.703Z</time></trkpt><trkpt lat="45.370975" lon="7.5928017"><ele>661.25</ele><time>2026-04-25T11:16:16.703Z</time></trkpt><trkpt lat="45.3709333" lon="7.5930033"><ele>660.5</ele><time>2026-04-25T11:16:17.703Z</time></trkpt><trkpt lat="45.3709" lon="7.5931883"><ele>659.75</ele><time>2026-04-25T11:16:18.703Z</time></trkpt><trkpt lat="45.3708767" lon="7.5933283"><ele>659.0</ele><time>2026-04-25T11:16:19.704Z</time></trkpt><trkpt lat="45.370855" lon="7.5934217"><ele>659.0</ele><time>2026-04-25T11:16:20.703Z</time></trkpt><trkpt lat="45.3708317" lon="7.5935267"><ele>659.0</ele><time>2026-04-25T11:16:22.703Z</time></trkpt><trkpt lat="45.3708883" lon="7.5935767"><ele>659.0</ele><time>2026-04-25T11:16:25.703Z</time></trkpt><trkpt lat="45.3709417" lon="7.5934967"><ele>659.0</ele><time>2026-04-25T11:16:27.703Z</time></trkpt><trkpt lat="45.3709683" lon="7.5934117"><ele>659.0</ele><time>2026-04-25T11:16:28.703Z</time></trkpt><trkpt lat="45.37102" lon="7.59331"><ele>659.0</ele><time>2026-04-25T11:16:29.703Z</time></trkpt><trkpt lat="45.371075" lon="7.59316"><ele>659.0</ele><time>2026-04-25T11:16:30.703Z</time></trkpt><trkpt lat="45.3711367" lon="7.592985"><ele>659.0</ele><time>2026-04-25T11:16:31.703Z</time></trkpt><trkpt lat="45.3711967" lon="7.5928233"><ele>659.0</ele><time>2026-04-25T11:16:32.703Z</time></trkpt><trkpt lat="45.37124" lon="7.5926533"><ele>659.0</ele><time>2026-04-25T11:16:33.703Z</time></trkpt><trkpt lat="45.3712967" lon="7.5924933"><ele>663.5</ele><time>2026-04-25T11:16:34.703Z</time></trkpt><trkpt lat="45.3713617" lon="7.592345"><ele>668.0</ele><time>2026-04-25T11:16:35.703Z</time></trkpt><trkpt lat="45.3714233" lon="7.5922217"><ele>672.5</ele><time>2026-04-25T11:16:36.703Z</time></trkpt><trkpt lat="45.3714967" lon="7.5921"><ele>677.0</ele><time>2026-04-25T11:16:37.703Z</time></trkpt><trkpt lat="45.371565" lon="7.5919683"><ele>678.0</ele><time>2026-04-25T11:16:38.703Z</time></trkpt><trkpt lat="45.3716317" lon="7.5918383"><ele>679.0</ele><time>2026-04-25T11:16:39.703Z</time></trkpt><trkpt lat="45.3716917" lon="7.5917217"><ele>680.0</ele><time>2026-04-25T11:16:40.703Z</time></trkpt><trkpt lat="45.371745" lon="7.59161"><ele>681.0</ele><time>2026-04-25T11:16:41.703Z</time></trkpt><trkpt lat="45.3718033" lon="7.5914733"><ele>682.0</ele><time>2026-04-25T11:16:42.703Z</time></trkpt><trkpt lat="45.3718717" lon="7.5913033"><ele>683.5</ele><time>2026-04-25T11:16:43.703Z</time></trkpt><trkpt lat="45.371945" lon="7.59112"><ele>685.0</ele><time>2026-04-25T11:16:44.703Z</time></trkpt><trkpt lat="45.3720217" lon="7.590955"><ele>686.5</ele><time>2026-04-25T11:16:45.703Z</time></trkpt><trkpt lat="45.3720933" lon="7.59077"><ele>688.0</ele><time>2026-04-25T11:16:46.703Z</time></trkpt><trkpt lat="45.37216" lon="7.5906117"><ele>688.25</ele><time>2026-04-25T11:16:47.703Z</time></trkpt><trkpt lat="45.37223" lon="7.59047"><ele>688.5</ele><time>2026-04-25T11:16:48.703Z</time></trkpt><trkpt lat="45.3723" lon="7.5903117"><ele>688.75</ele><time>2026-04-25T11:16:49.703Z</time></trkpt><trkpt lat="45.372355" lon="7.5901483"><ele>689.0</ele><time>2026-04-25T11:16:50.703Z</time></trkpt><trkpt lat="45.3724017" lon="7.5899817"><ele>690.8000000000001</ele><time>2026-04-25T11:16:51.703Z</time></trkpt><trkpt lat="45.37243" lon="7.589835"><ele>692.6</ele><time>2026-04-25T11:16:52.703Z</time></trkpt><trkpt lat="45.37244" lon="7.5896917"><ele>694.4</ele><time>2026-04-25T11:16:53.703Z</time></trkpt><trkpt lat="45.3724383" lon="7.5895283"><ele>696.2</ele><time>2026-04-25T11:16:54.703Z</time></trkpt><trkpt lat="45.3724467" lon="7.5893517"><ele>698.0</ele><time>2026-04-25T11:16:55.703Z</time></trkpt><trkpt lat="45.3724783" lon="7.5891633"><ele>700.25</ele><time>2026-04-25T11:16:56.703Z</time></trkpt><trkpt lat="45.3725133" lon="7.5889533"><ele>702.5</ele><time>2026-04-25T11:16:57.704Z</time></trkpt><trkpt lat="45.3725283" lon="7.5887583"><ele>704.75</ele><time>2026-04-25T11:16:58.703Z</time></trkpt><trkpt lat="45.3725533" lon="7.5885867"><ele>707.0</ele><time>2026-04-25T11:16:59.703Z</time></trkpt><trkpt lat="45.3725967" lon="7.58843"><ele>709.25</ele><time>2026-04-25T11:17:00.703Z</time></trkpt><trkpt lat="45.3726617" lon="7.5882783"><ele>711.5</ele><time>2026-04-25T11:17:01.704Z</time></trkpt><trkpt lat="45.372735" lon="7.58813"><ele>713.75</ele><time>2026-04-25T11:17:02.703Z</time></trkpt><trkpt lat="45.3727967" lon="7.587995"><ele>716.0</ele><time>2026-04-25T11:17:03.703Z</time></trkpt><trkpt lat="45.372845" lon="7.5878883"><ele>716.4</ele><time>2026-04-25T11:17:04.703Z</time></trkpt><trkpt lat="45.3728867" lon="7.587805"><ele>716.8</ele><time>2026-04-25T11:17:05.703Z</time></trkpt><trkpt lat="45.37295" lon="7.5877267"><ele>717.1999999999999</ele><time>2026-04-25T11:17:07.703Z</time></trkpt><trkpt lat="45.373005" lon="7.5876233"><ele>717.5999999999999</ele><time>2026-04-25T11:17:11.703Z</time></trkpt><trkpt lat="45.372965" lon="7.5874433"><ele>718.0</ele><time>2026-04-25T11:17:13.703Z</time></trkpt><trkpt lat="45.3729133" lon="7.5873217"><ele>718.0</ele><time>2026-04-25T11:17:14.703Z</time></trkpt><trkpt lat="45.372865" lon="7.5871783"><ele>718.0</ele><time>2026-04-25T11:17:15.703Z</time></trkpt><trkpt lat="45.372835" lon="7.5870133"><ele>718.0</ele><time>2026-04-25T11:17:16.703Z</time></trkpt><trkpt lat="45.3728117" lon="7.586855"><ele>718.0</ele><time>2026-04-25T11:17:17.703Z</time></trkpt><trkpt lat="45.3727883" lon="7.586695"><ele>718.4</ele><time>2026-04-25T11:17:18.703Z</time></trkpt><trkpt lat="45.372775" lon="7.5865433"><ele>718.8</ele><time>2026-04-25T11:17:19.703Z</time></trkpt><trkpt lat="45.372765" lon="7.5863883"><ele>719.2</ele><time>2026-04-25T11:17:20.703Z</time></trkpt><trkpt lat="45.37276" lon="7.5862483"><ele>719.6</ele><time>2026-04-25T11:17:21.703Z</time></trkpt><trkpt lat="45.3727917" lon="7.5861133"><ele>720.0</ele><time>2026-04-25T11:17:22.703Z</time></trkpt><trkpt lat="45.3728667" lon="7.5859983"><ele>720.6666666666666</ele><time>2026-04-25T11:17:23.703Z</time></trkpt><trkpt lat="45.37295" lon="7.5858883"><ele>721.3333333333334</ele><time>2026-04-25T11:17:24.704Z</time></trkpt><trkpt lat="45.3730117" lon="7.5857933"><ele>722.0</ele><time>2026-04-25T11:17:25.703Z</time></trkpt><trkpt lat="45.3730483" lon="7.5856983"><ele>722.6666666666667</ele><time>2026-04-25T11:17:26.703Z</time></trkpt><trkpt lat="45.37304" lon="7.5856083"><ele>723.3333333333334</ele><time>2026-04-25T11:17:27.703Z</time></trkpt><trkpt lat="45.37299" lon="7.58552"><ele>724.0</ele><time>2026-04-25T11:17:28.703Z</time></trkpt><trkpt lat="45.3729283" lon="7.5854167"><ele>727.4000000000001</ele><time>2026-04-25T11:17:29.703Z</time></trkpt><trkpt lat="45.37289" lon="7.58529"><ele>730.8</ele><time>2026-04-25T11:17:30.703Z</time></trkpt><trkpt lat="45.3728683" lon="7.58517"><ele>734.2</ele><time>2026-04-25T11:17:31.703Z</time></trkpt><trkpt lat="45.3728383" lon="7.58507"><ele>737.5999999999999</ele><time>2026-04-25T11:17:32.703Z</time></trkpt><trkpt lat="45.3727317" lon="7.5849967"><ele>741.0</ele><time>2026-04-25T11:17:34.703Z</time></trkpt><trkpt lat="45.372645" lon="7.585015"><ele>741.0</ele><time>2026-04-25T11:17:35.703Z</time></trkpt><trkpt lat="45.372545" lon="7.5849867"><ele>741.0</ele><time>2026-04-25T11:17:36.703Z</time></trkpt><trkpt lat="45.3724267" lon="7.5849417"><ele>741.0</ele><time>2026-04-25T11:17:37.703Z</time></trkpt><trkpt lat="45.372285" lon="7.5848933"><ele>741.0</ele><time>2026-04-25T11:17:38.703Z</time></trkpt><trkpt lat="45.3721217" lon="7.5848567"><ele>739.75</ele><time>2026-04-25T11:17:39.703Z</time></trkpt><trkpt lat="45.3719583" lon="7.5848217"><ele>738.5</ele><time>2026-04-25T11:17:40.703Z</time></trkpt><trkpt lat="45.371815" lon="7.5847633"><ele>737.25</ele><time>2026-04-25T11:17:41.704Z</time></trkpt><trkpt lat="45.3716933" lon="7.5846867"><ele>736.0</ele><time>2026-04-25T11:17:42.703Z</time></trkpt><trkpt lat="45.3715983" lon="7.5846533"><ele>736.0</ele><time>2026-04-25T11:17:43.703Z</time></trkpt><trkpt lat="45.37153" lon="7.584625"><ele>736.0</ele><time>2026-04-25T11:17:44.703Z</time></trkpt><trkpt lat="45.3714433" lon="7.5845983"><ele>736.0</ele><time>2026-04-25T11:17:46.703Z</time></trkpt><trkpt lat="45.3713833" lon="7.5844967"><ele>736.0</ele><time>2026-04-25T11:17:48.703Z</time></trkpt><trkpt lat="45.3713617" lon="7.5843917"><ele>736.0</ele><time>2026-04-25T11:17:49.703Z</time></trkpt><trkpt lat="45.3713833" lon="7.5842917"><ele>736.0</ele><time>2026-04-25T11:17:50.703Z</time></trkpt><trkpt lat="45.3714433" lon="7.5841983"><ele>737.5999999999999</ele><time>2026-04-25T11:17:51.703Z</time></trkpt><trkpt lat="45.3715067" lon="7.584145"><ele>739.2</ele><time>2026-04-25T11:17:52.703Z</time></trkpt><trkpt lat="45.3715933" lon="7.5841383"><ele>740.8</ele><time>2026-04-25T11:17:59.703Z</time></trkpt><trkpt lat="45.3717167" lon="7.5842217"><ele>742.4000000000001</ele><time>2026-04-25T11:18:01.703Z</time></trkpt><trkpt lat="45.3718233" lon="7.5843"><ele>744.0</ele><time>2026-04-25T11:18:02.703Z</time></trkpt><trkpt lat="45.3719533" lon="7.5843617"><ele>744.0</ele><time>2026-04-25T11:18:03.703Z</time></trkpt><trkpt lat="45.3720867" lon="7.5843917"><ele>744.0</ele><time>2026-04-25T11:18:04.703Z</time></trkpt><trkpt lat="45.3722183" lon="7.584375"><ele>744.0</ele><time>2026-04-25T11:18:05.703Z</time></trkpt><trkpt lat="45.3723567" lon="7.5843417"><ele>744.0</ele><time>2026-04-25T11:18:06.703Z</time></trkpt><trkpt lat="45.3725017" lon="7.584315"><ele>746.8000000000001</ele><time>2026-04-25T11:18:07.703Z</time></trkpt><trkpt lat="45.3726367" lon="7.5843033"><ele>749.6</ele><time>2026-04-25T11:18:08.703Z</time></trkpt><trkpt lat="45.37276" lon="7.5843017"><ele>752.4</ele><time>2026-04-25T11:18:09.703Z</time></trkpt><trkpt lat="45.37286" lon="7.584285"><ele>755.2</ele><time>2026-04-25T11:18:10.703Z</time></trkpt><trkpt lat="45.3729317" lon="7.5842267"><ele>758.0</ele><time>2026-04-25T11:18:11.703Z</time></trkpt><trkpt lat="45.3729967" lon="7.5841383"><ele>759.5</ele><time>2026-04-25T11:18:12.702Z</time></trkpt><trkpt lat="45.3730417" lon="7.5840217"><ele>761.0</ele><time>2026-04-25T11:18:13.703Z</time></trkpt><trkpt lat="45.37307" lon="7.583915"><ele>762.5</ele><time>2026-04-25T11:18:14.702Z</time></trkpt><trkpt lat="45.3731083" lon="7.5838417"><ele>764.0</ele><time>2026-04-25T11:18:15.702Z</time></trkpt><trkpt lat="45.3732017" lon="7.5838417"><ele>765.5</ele><time>2026-04-25T11:18:17.702Z</time></trkpt><trkpt lat="45.3732783" lon="7.5838833"><ele>767.0</ele><time>2026-04-25T11:18:18.702Z</time></trkpt><trkpt lat="45.373355" lon="7.5839217"><ele>767.0</ele><time>2026-04-25T11:18:19.702Z</time></trkpt><trkpt lat="45.3734333" lon="7.5838617"><ele>767.0</ele><time>2026-04-25T11:18:21.702Z</time></trkpt><trkpt lat="45.373415" lon="7.5837717"><ele>767.0</ele><time>2026-04-25T11:18:22.702Z</time></trkpt><trkpt lat="45.373355" lon="7.5836483"><ele>767.0</ele><time>2026-04-25T11:18:23.702Z</time></trkpt><trkpt lat="45.373255" lon="7.5835133"><ele>767.0</ele><time>2026-04-25T11:18:24.702Z</time></trkpt><trkpt lat="45.3731583" lon="7.5834117"><ele>768.5</ele><time>2026-04-25T11:18:25.702Z</time></trkpt><trkpt lat="45.3730883" lon="7.5833317"><ele>770.0</ele><time>2026-04-25T11:18:26.702Z</time></trkpt><trkpt lat="45.373035" lon="7.5832017"><ele>771.5</ele><time>2026-04-25T11:18:28.702Z</time></trkpt><trkpt lat="45.3731733" lon="7.583105"><ele>773.0</ele><time>2026-04-25T11:18:30.702Z</time></trkpt><trkpt lat="45.3733167" lon="7.5830767"><ele>773.0</ele><time>2026-04-25T11:18:31.702Z</time></trkpt><trkpt lat="45.37348" lon="7.5830217"><ele>773.0</ele><time>2026-04-25T11:18:32.702Z</time></trkpt><trkpt lat="45.3736283" lon="7.582915"><ele>773.0</ele><time>2026-04-25T11:18:33.702Z</time></trkpt><trkpt lat="45.37375" lon="7.5828217"><ele>777.8</ele><time>2026-04-25T11:18:34.702Z</time></trkpt><trkpt lat="45.37386" lon="7.5827483"><ele>782.5999999999999</ele><time>2026-04-25T11:18:35.702Z</time></trkpt><trkpt lat="45.3739583" lon="7.5827267"><ele>787.4000000000001</ele><time>2026-04-25T11:18:36.702Z</time></trkpt><trkpt lat="45.3740567" lon="7.5827283"><ele>792.2</ele><time>2026-04-25T11:18:37.702Z</time></trkpt><trkpt lat="45.3741467" lon="7.58276"><ele>797.0</ele><time>2026-04-25T11:18:38.702Z</time></trkpt><trkpt lat="45.3742317" lon="7.5827967"><ele>797.0</ele><time>2026-04-25T11:18:39.702Z</time></trkpt><trkpt lat="45.374335" lon="7.582715"><ele>797.0</ele><time>2026-04-25T11:18:41.702Z</time></trkpt><trkpt lat="45.3743283" lon="7.5825083"><ele>797.0</ele><time>2026-04-25T11:18:43.702Z</time></trkpt><trkpt lat="45.37428" lon="7.5823833"><ele>797.0</ele><time>2026-04-25T11:18:44.702Z</time></trkpt><trkpt lat="45.3742267" lon="7.582275"><ele>797.0000000000001</ele><time>2026-04-25T11:18:45.702Z</time></trkpt><trkpt lat="45.374195" lon="7.5821883"><ele>797.0</ele><time>2026-04-25T11:18:46.702Z</time></trkpt><trkpt lat="45.3741967" lon="7.5820717"><ele>797.0</ele><time>2026-04-25T11:18:48.702Z</time></trkpt><trkpt lat="45.3742733" lon="7.582105"><ele>797.0</ele><time>2026-04-25T11:18:50.702Z</time></trkpt><trkpt lat="45.3743333" lon="7.582145"><ele>797.0000000000001</ele><time>2026-04-25T11:18:51.702Z</time></trkpt><trkpt lat="45.3744083" lon="7.582105"><ele>797.0</ele><time>2026-04-25T11:18:53.702Z</time></trkpt><trkpt lat="45.3743567" lon="7.5819583"><ele>798.6666666666667</ele><time>2026-04-25T11:18:55.702Z</time></trkpt><trkpt lat="45.374305" lon="7.581905"><ele>800.3333333333334</ele><time>2026-04-25T11:18:56.702Z</time></trkpt><trkpt lat="45.3742383" lon="7.581805"><ele>802.0</ele><time>2026-04-25T11:18:58.702Z</time></trkpt><trkpt lat="45.3742083" lon="7.5816633"><ele>803.6666666666667</ele><time>2026-04-25T11:19:00.702Z</time></trkpt><trkpt lat="45.3742667" lon="7.5815583"><ele>805.3333333333334</ele><time>2026-04-25T11:19:02.702Z</time></trkpt><trkpt lat="45.3743483" lon="7.5815567"><ele>807.0</ele><time>2026-04-25T11:19:03.702Z</time></trkpt><trkpt lat="45.374455" lon="7.5815583"><ele>807.0</ele><time>2026-04-25T11:19:04.702Z</time></trkpt><trkpt lat="45.3745567" lon="7.5815333"><ele>807.0</ele><time>2026-04-25T11:19:05.702Z</time></trkpt><trkpt lat="45.3746433" lon="7.58146"><ele>807.0</ele><time>2026-04-25T11:19:06.702Z</time></trkpt><trkpt lat="45.37472" lon="7.58134"><ele>807.0</ele><time>2026-04-25T11:19:07.702Z</time></trkpt><trkpt lat="45.3747967" lon="7.5811767"><ele>812.75</ele><time>2026-04-25T11:19:08.702Z</time></trkpt><trkpt lat="45.37487" lon="7.5809983"><ele>818.5</ele><time>2026-04-25T11:19:09.702Z</time></trkpt><trkpt lat="45.3749317" lon="7.5808233"><ele>824.25</ele><time>2026-04-25T11:19:10.702Z</time></trkpt><trkpt lat="45.37499" lon="7.5806717"><ele>830.0</ele><time>2026-04-25T11:19:11.702Z</time></trkpt><trkpt lat="45.3750383" lon="7.580535"><ele>830.0000000000001</ele><time>2026-04-25T11:19:12.702Z</time></trkpt><trkpt lat="45.3750767" lon="7.5803983"><ele>830.0</ele><time>2026-04-25T11:19:13.702Z</time></trkpt><trkpt lat="45.375105" lon="7.5802867"><ele>830.0</ele><time>2026-04-25T11:19:14.702Z</time></trkpt><trkpt lat="45.3751267" lon="7.580195"><ele>830.0</ele><time>2026-04-25T11:19:15.702Z</time></trkpt><trkpt lat="45.37516" lon="7.5801067"><ele>830.0000000000001</ele><time>2026-04-25T11:19:16.702Z</time></trkpt><trkpt lat="45.375215" lon="7.5800333"><ele>830.0</ele><time>2026-04-25T11:19:17.702Z</time></trkpt><trkpt lat="45.375295" lon="7.5799633"><ele>831.25</ele><time>2026-04-25T11:19:18.702Z</time></trkpt><trkpt lat="45.3753967" lon="7.5798817"><ele>832.5</ele><time>2026-04-25T11:19:19.702Z</time></trkpt><trkpt lat="45.3754967" lon="7.579785"><ele>833.75</ele><time>2026-04-25T11:19:20.702Z</time></trkpt><trkpt lat="45.3755817" lon="7.5797033"><ele>835.0</ele><time>2026-04-25T11:19:21.702Z</time></trkpt><trkpt lat="45.375675" lon="7.579615"><ele>837.25</ele><time>2026-04-25T11:19:22.702Z</time></trkpt><trkpt lat="45.3757867" lon="7.5795633"><ele>839.5</ele><time>2026-04-25T11:19:23.702Z</time></trkpt><trkpt lat="45.3758967" lon="7.5795433"><ele>841.75</ele><time>2026-04-25T11:19:24.702Z</time></trkpt><trkpt lat="45.376015" lon="7.5795333"><ele>844.0</ele><time>2026-04-25T11:19:25.702Z</time></trkpt><trkpt lat="45.3761317" lon="7.5795033"><ele>848.5</ele><time>2026-04-25T11:19:26.702Z</time></trkpt><trkpt lat="45.3762583" lon="7.5794183"><ele>853.0</ele><time>2026-04-25T11:19:27.702Z</time></trkpt><trkpt lat="45.3763967" lon="7.5793333"><ele>857.5</ele><time>2026-04-25T11:19:28.702Z</time></trkpt><trkpt lat="45.3765267" lon="7.579225"><ele>862.0</ele><time>2026-04-25T11:19:29.702Z</time></trkpt><trkpt lat="45.3766583" lon="7.5791333"><ele>863.25</ele><time>2026-04-25T11:19:30.702Z</time></trkpt><trkpt lat="45.3767883" lon="7.57907"><ele>864.5</ele><time>2026-04-25T11:19:31.702Z</time></trkpt><trkpt lat="45.376905" lon="7.579045"><ele>865.75</ele><time>2026-04-25T11:19:32.702Z</time></trkpt><trkpt lat="45.377015" lon="7.5789867"><ele>867.0</ele><time>2026-04-25T11:19:33.702Z</time></trkpt><trkpt lat="45.3771317" lon="7.5789"><ele>865.0</ele><time>2026-04-25T11:19:34.702Z</time></trkpt><trkpt lat="45.3772617" lon="7.57878"><ele>863.0</ele><time>2026-04-25T11:19:35.702Z</time></trkpt><trkpt lat="45.3773983" lon="7.5786767"><ele>861.0</ele><time>2026-04-25T11:19:36.702Z</time></trkpt><trkpt lat="45.3775367" lon="7.5786017"><ele>867.0</ele><time>2026-04-25T11:19:37.702Z</time></trkpt><trkpt lat="45.3776633" lon="7.578565"><ele>872.9999999999999</ele><time>2026-04-25T11:19:38.702Z</time></trkpt><trkpt lat="45.3777667" lon="7.5785567"><ele>878.9999999999999</ele><time>2026-04-25T11:19:39.702Z</time></trkpt><trkpt lat="45.3778517" lon="7.5785333"><ele>885.0</ele><time>2026-04-25T11:19:40.702Z</time></trkpt><trkpt lat="45.37792" lon="7.5785267"><ele>891.0</ele><time>2026-04-25T11:19:41.702Z</time></trkpt><trkpt lat="45.378005" lon="7.5785483"><ele>890.8</ele><time>2026-04-25T11:19:43.702Z</time></trkpt><trkpt lat="45.37809" lon="7.5785817"><ele>890.5999999999999</ele><time>2026-04-25T11:19:45.702Z</time></trkpt><trkpt lat="45.378195" lon="7.5785133"><ele>890.4</ele><time>2026-04-25T11:19:47.703Z</time></trkpt><trkpt lat="45.3782517" lon="7.57843"><ele>890.2</ele><time>2026-04-25T11:19:48.702Z</time></trkpt><trkpt lat="45.378315" lon="7.578355"><ele>890.0</ele><time>2026-04-25T11:19:49.702Z</time></trkpt><trkpt lat="45.3783983" lon="7.5782967"><ele>890.0</ele><time>2026-04-25T11:19:50.702Z</time></trkpt><trkpt lat="45.3785083" lon="7.5782683"><ele>890.0</ele><time>2026-04-25T11:19:51.702Z</time></trkpt><trkpt lat="45.3786317" lon="7.5782233"><ele>890.0</ele><time>2026-04-25T11:19:52.702Z</time></trkpt><trkpt lat="45.3787767" lon="7.5781533"><ele>890.0</ele><time>2026-04-25T11:19:53.702Z</time></trkpt><trkpt lat="45.3789117" lon="7.578065"><ele>890.5</ele><time>2026-04-25T11:19:54.702Z</time></trkpt><trkpt lat="45.37903" lon="7.5780233"><ele>891.0</ele><time>2026-04-25T11:19:55.702Z</time></trkpt><trkpt lat="45.3791567" lon="7.5780333"><ele>891.5</ele><time>2026-04-25T11:19:56.702Z</time></trkpt><trkpt lat="45.37929" lon="7.5780583"><ele>892.0</ele><time>2026-04-25T11:19:57.702Z</time></trkpt><trkpt lat="45.3793967" lon="7.578095"><ele>892.0</ele><time>2026-04-25T11:19:58.702Z</time></trkpt><trkpt lat="45.379505" lon="7.5780783"><ele>892.0</ele><time>2026-04-25T11:19:59.702Z</time></trkpt><trkpt lat="45.3796167" lon="7.5780317"><ele>892.0</ele><time>2026-04-25T11:20:00.702Z</time></trkpt><trkpt lat="45.3797333" lon="7.577955"><ele>892.0</ele><time>2026-04-25T11:20:01.702Z</time></trkpt><trkpt lat="45.3798433" lon="7.5778733"><ele>901.5</ele><time>2026-04-25T11:20:02.702Z</time></trkpt><trkpt lat="45.3799633" lon="7.5778017"><ele>911.0</ele><time>2026-04-25T11:20:03.702Z</time></trkpt><trkpt lat="45.3800817" lon="7.57775"><ele>920.5</ele><time>2026-04-25T11:20:04.702Z</time></trkpt><trkpt lat="45.380185" lon="7.5777083"><ele>930.0</ele><time>2026-04-25T11:20:05.702Z</time></trkpt><trkpt lat="45.3802883" lon="7.5776917"><ele>930.0</ele><time>2026-04-25T11:20:06.702Z</time></trkpt><trkpt lat="45.380385" lon="7.5777167"><ele>930.0</ele><time>2026-04-25T11:20:07.702Z</time></trkpt><trkpt lat="45.3804733" lon="7.5777683"><ele>930.0</ele><time>2026-04-25T11:20:08.702Z</time></trkpt><trkpt lat="45.38056" lon="7.5778017"><ele>930.0</ele><time>2026-04-25T11:20:09.702Z</time></trkpt><trkpt lat="45.3806433" lon="7.5778033"><ele>930.0</ele><time>2026-04-25T11:20:10.702Z</time></trkpt><trkpt lat="45.380715" lon="7.57778"><ele>930.0</ele><time>2026-04-25T11:20:11.702Z</time></trkpt><trkpt lat="45.38077" lon="7.5777267"><ele>929.8333333333334</ele><time>2026-04-25T11:20:12.702Z</time></trkpt><trkpt lat="45.3807717" lon="7.5775883"><ele>929.6666666666667</ele><time>2026-04-25T11:20:14.702Z</time></trkpt><trkpt lat="45.3807133" lon="7.5775417"><ele>929.5</ele><time>2026-04-25T11:20:15.702Z</time></trkpt><trkpt lat="45.3806333" lon="7.5775133"><ele>929.3333333333334</ele><time>2026-04-25T11:20:16.702Z</time></trkpt><trkpt lat="45.380575" lon="7.5774783"><ele>929.1666666666667</ele><time>2026-04-25T11:20:17.702Z</time></trkpt><trkpt lat="45.3805383" lon="7.5774"><ele>929.0</ele><time>2026-04-25T11:20:19.702Z</time></trkpt><trkpt lat="45.38063" lon="7.577365"><ele>929.0</ele><time>2026-04-25T11:20:21.702Z</time></trkpt><trkpt lat="45.3807033" lon="7.5773133"><ele>929.0</ele><time>2026-04-25T11:20:22.702Z</time></trkpt><trkpt lat="45.3808" lon="7.5772017"><ele>929.0</ele><time>2026-04-25T11:20:23.702Z</time></trkpt><trkpt lat="45.3809133" lon="7.5770117"><ele>929.0</ele><time>2026-04-25T11:20:24.702Z</time></trkpt><trkpt lat="45.3809917" lon="7.57678"><ele>936.6666666666667</ele><time>2026-04-25T11:20:25.702Z</time></trkpt><trkpt lat="45.3810383" lon="7.5765267"><ele>944.3333333333333</ele><time>2026-04-25T11:20:26.702Z</time></trkpt><trkpt lat="45.3810867" lon="7.5762867"><ele>952.0</ele><time>2026-04-25T11:20:27.702Z</time></trkpt><trkpt lat="45.381125" lon="7.5761"><ele>956.2</ele><time>2026-04-25T11:20:28.702Z</time></trkpt><trkpt lat="45.3811717" lon="7.575945"><ele>960.4000000000001</ele><time>2026-04-25T11:20:29.702Z</time></trkpt><trkpt lat="45.3812133" lon="7.5758233"><ele>964.5999999999999</ele><time>2026-04-25T11:20:30.702Z</time></trkpt><trkpt lat="45.3812517" lon="7.5757417"><ele>968.8</ele><time>2026-04-25T11:20:31.702Z</time></trkpt><trkpt lat="45.3812717" lon="7.5756233"><ele>973.0</ele><time>2026-04-25T11:20:33.702Z</time></trkpt><trkpt lat="45.3811867" lon="7.5755817"><ele>973.0</ele><time>2026-04-25T11:20:35.702Z</time></trkpt><trkpt lat="45.3811083" lon="7.5756167"><ele>973.0</ele><time>2026-04-25T11:20:36.702Z</time></trkpt><trkpt lat="45.3810117" lon="7.575695"><ele>973.0</ele><time>2026-04-25T11:20:37.702Z</time></trkpt><trkpt lat="45.3808817" lon="7.5758233"><ele>973.0</ele><time>2026-04-25T11:20:38.702Z</time></trkpt><trkpt lat="45.380775" lon="7.5759167"><ele>972.9999999999999</ele><time>2026-04-25T11:20:39.702Z</time></trkpt><trkpt lat="45.380685" lon="7.57598"><ele>973.0</ele><time>2026-04-25T11:20:40.702Z</time></trkpt><trkpt lat="45.3806017" lon="7.5760333"><ele>973.0</ele><time>2026-04-25T11:20:41.702Z</time></trkpt><trkpt lat="45.38054" lon="7.5760683"><ele>973.0</ele><time>2026-04-25T11:20:42.702Z</time></trkpt><trkpt lat="45.3804683" lon="7.5761167"><ele>972.9999999999999</ele><time>2026-04-25T11:20:44.702Z</time></trkpt><trkpt lat="45.3804033" lon="7.576105"><ele>973.0</ele><time>2026-04-25T11:20:46.702Z</time></trkpt><trkpt lat="45.3804367" lon="7.5759667"><ele>973.0</ele><time>2026-04-25T11:20:49.702Z</time></trkpt><trkpt lat="45.3805017" lon="7.5759017"><ele>973.0</ele><time>2026-04-25T11:20:50.702Z</time></trkpt><trkpt lat="45.3805717" lon="7.57582"><ele>973.0</ele><time>2026-04-25T11:20:51.702Z</time></trkpt><trkpt lat="45.3806467" lon="7.5757183"><ele>973.0</ele><time>2026-04-25T11:20:52.702Z</time></trkpt><trkpt lat="45.380715" lon="7.5756183"><ele>973.0</ele><time>2026-04-25T11:20:53.702Z</time></trkpt><trkpt lat="45.3807633" lon="7.575525"><ele>973.0</ele><time>2026-04-25T11:20:54.702Z</time></trkpt><trkpt lat="45.3808117" lon="7.5754383"><ele>973.0</ele><time>2026-04-25T11:20:55.703Z</time></trkpt><trkpt lat="45.38085" lon="7.575335"><ele>973.0</ele><time>2026-04-25T11:20:56.702Z</time></trkpt><trkpt lat="45.3808683" lon="7.57521"><ele>973.0</ele><time>2026-04-25T11:20:57.702Z</time></trkpt><trkpt lat="45.3808717" lon="7.5750633"><ele>973.0</ele><time>2026-04-25T11:20:58.702Z</time></trkpt><trkpt lat="45.3808933" lon="7.57492"><ele>975.5999999999999</ele><time>2026-04-25T11:20:59.702Z</time></trkpt><trkpt lat="45.3809283" lon="7.57476"><ele>978.1999999999999</ele><time>2026-04-25T11:21:00.702Z</time></trkpt><trkpt lat="45.3809717" lon="7.5746217"><ele>980.8</ele><time>2026-04-25T11:21:01.702Z</time></trkpt><trkpt lat="45.3810233" lon="7.574485"><ele>983.4</ele><time>2026-04-25T11:21:02.702Z</time></trkpt><trkpt lat="45.3810733" lon="7.5743483"><ele>986.0</ele><time>2026-04-25T11:21:03.702Z</time></trkpt><trkpt lat="45.3811183" lon="7.5742"><ele>989.0</ele><time>2026-04-25T11:21:04.702Z</time></trkpt><trkpt lat="45.3811667" lon="7.5740683"><ele>991.9999999999999</ele><time>2026-04-25T11:21:05.702Z</time></trkpt><trkpt lat="45.3812183" lon="7.5739667"><ele>994.9999999999999</ele><time>2026-04-25T11:21:06.702Z</time></trkpt><trkpt lat="45.38127" lon="7.5738817"><ele>998.0</ele><time>2026-04-25T11:21:07.702Z</time></trkpt><trkpt lat="45.3813183" lon="7.5738083"><ele>1001.0</ele><time>2026-04-25T11:21:08.702Z</time></trkpt><trkpt lat="45.3813917" lon="7.5736667"><ele>1001.0</ele><time>2026-04-25T11:21:10.702Z</time></trkpt><trkpt lat="45.3814267" lon="7.5735833"><ele>1000.9999999999999</ele><time>2026-04-25T11:21:11.702Z</time></trkpt><trkpt lat="45.3814817" lon="7.5734417"><ele>1000.9999999999999</ele><time>2026-04-25T11:21:13.702Z</time></trkpt><trkpt lat="45.3815533" lon="7.5733633"><ele>1001.0</ele><time>2026-04-25T11:21:15.702Z</time></trkpt><trkpt lat="45.3816417" lon="7.5732633"><ele>1001.0</ele><time>2026-04-25T11:21:17.702Z</time></trkpt><trkpt lat="45.3817167" lon="7.5731383"><ele>1001.0000000000001</ele><time>2026-04-25T11:21:19.702Z</time></trkpt><trkpt lat="45.3817967" lon="7.5730067"><ele>1001.0</ele><time>2026-04-25T11:21:21.702Z</time></trkpt><trkpt lat="45.381835" lon="7.572935"><ele>1001.0</ele><time>2026-04-25T11:21:22.702Z</time></trkpt><trkpt lat="45.3818817" lon="7.57287"><ele>1001.0</ele><time>2026-04-25T11:21:23.702Z</time></trkpt><trkpt lat="45.381935" lon="7.57282"><ele>1001.0000000000001</ele><time>2026-04-25T11:21:24.702Z</time></trkpt><trkpt lat="45.381995" lon="7.5727783"><ele>1001.0</ele><time>2026-04-25T11:21:25.702Z</time></trkpt><trkpt lat="45.38207" lon="7.5726583"><ele>1005.8</ele><time>2026-04-25T11:21:27.702Z</time></trkpt><trkpt lat="45.3820967" lon="7.572475"><ele>1010.5999999999999</ele><time>2026-04-25T11:21:29.703Z</time></trkpt><trkpt lat="45.382095" lon="7.5723567"><ele>1015.4</ele><time>2026-04-25T11:21:30.702Z</time></trkpt><trkpt lat="45.3820983" lon="7.5722267"><ele>1020.2</ele><time>2026-04-25T11:21:31.702Z</time></trkpt><trkpt lat="45.3821083" lon="7.5720883"><ele>1025.0</ele><time>2026-04-25T11:21:32.702Z</time></trkpt><trkpt lat="45.38212" lon="7.5719483"><ele>1024.5</ele><time>2026-04-25T11:21:33.702Z</time></trkpt><trkpt lat="45.3821233" lon="7.5718133"><ele>1024.0</ele><time>2026-04-25T11:21:34.702Z</time></trkpt><trkpt lat="45.3821267" lon="7.5716933"><ele>1023.5</ele><time>2026-04-25T11:21:35.702Z</time></trkpt><trkpt lat="45.3821433" lon="7.571595"><ele>1023.0</ele><time>2026-04-25T11:21:36.702Z</time></trkpt><trkpt lat="45.382205" lon="7.5714483"><ele>1022.5000000000001</ele><time>2026-04-25T11:21:38.702Z</time></trkpt><trkpt lat="45.3822367" lon="7.57135"><ele>1022.0</ele><time>2026-04-25T11:21:40.702Z</time></trkpt><trkpt lat="45.3821717" lon="7.571295"><ele>1027.2</ele><time>2026-04-25T11:21:43.702Z</time></trkpt><trkpt lat="45.3821033" lon="7.571365"><ele>1032.4</ele><time>2026-04-25T11:21:45.702Z</time></trkpt><trkpt lat="45.3820517" lon="7.5714617"><ele>1037.6</ele><time>2026-04-25T11:21:46.702Z</time></trkpt><trkpt lat="45.3819967" lon="7.5715733"><ele>1042.8</ele><time>2026-04-25T11:21:47.702Z</time></trkpt><trkpt lat="45.3819267" lon="7.5716817"><ele>1048.0</ele><time>2026-04-25T11:21:48.702Z</time></trkpt><trkpt lat="45.3818617" lon="7.57179"><ele>1048.0</ele><time>2026-04-25T11:21:49.702Z</time></trkpt><trkpt lat="45.38178" lon="7.5718867"><ele>1048.0</ele><time>2026-04-25T11:21:50.702Z</time></trkpt><trkpt lat="45.3816983" lon="7.5719717"><ele>1048.0</ele><time>2026-04-25T11:21:51.702Z</time></trkpt><trkpt lat="45.3816217" lon="7.5720433"><ele>1048.0</ele><time>2026-04-25T11:21:52.702Z</time></trkpt><trkpt lat="45.3815633" lon="7.572095"><ele>1048.0</ele><time>2026-04-25T11:21:53.703Z</time></trkpt><trkpt lat="45.3814483" lon="7.5721567"><ele>1048.3333333333333</ele><time>2026-04-25T11:21:55.702Z</time></trkpt><trkpt lat="45.38138" lon="7.57217"><ele>1048.6666666666665</ele><time>2026-04-25T11:21:56.702Z</time></trkpt><trkpt lat="45.3812967" lon="7.5721683"><ele>1049.0</ele><time>2026-04-25T11:21:57.702Z</time></trkpt><trkpt lat="45.38121" lon="7.572165"><ele>1049.3333333333333</ele><time>2026-04-25T11:21:58.702Z</time></trkpt><trkpt lat="45.381125" lon="7.5721733"><ele>1049.6666666666667</ele><time>2026-04-25T11:21:59.702Z</time></trkpt><trkpt lat="45.3810433" lon="7.572205"><ele>1050.0</ele><time>2026-04-25T11:22:00.702Z</time></trkpt><trkpt lat="45.3809667" lon="7.5722567"><ele>1050.0</ele><time>2026-04-25T11:22:01.702Z</time></trkpt><trkpt lat="45.3809017" lon="7.5723383"><ele>1050.0</ele><time>2026-04-25T11:22:02.702Z</time></trkpt><trkpt lat="45.3808283" lon="7.5724383"><ele>1050.0</ele><time>2026-04-25T11:22:03.702Z</time></trkpt><trkpt lat="45.3807617" lon="7.572545"><ele>1050.0</ele><time>2026-04-25T11:22:04.702Z</time></trkpt><trkpt lat="45.3807" lon="7.57265"><ele>1050.0</ele><time>2026-04-25T11:22:05.702Z</time></trkpt><trkpt lat="45.3806283" lon="7.5727583"><ele>1050.0</ele><time>2026-04-25T11:22:06.702Z</time></trkpt><trkpt lat="45.38055" lon="7.57285"><ele>1050.0</ele><time>2026-04-25T11:22:07.702Z</time></trkpt><trkpt lat="45.3804633" lon="7.5729233"><ele>1050.0</ele><time>2026-04-25T11:22:08.702Z</time></trkpt><trkpt lat="45.38035" lon="7.5729833"><ele>1050.0</ele><time>2026-04-25T11:22:09.702Z</time></trkpt><trkpt lat="45.38022" lon="7.5730517"><ele>1050.6</ele><time>2026-04-25T11:22:10.702Z</time></trkpt><trkpt lat="45.380105" lon="7.5731383"><ele>1051.2</ele><time>2026-04-25T11:22:11.702Z</time></trkpt><trkpt lat="45.3800083" lon="7.57322"><ele>1051.8</ele><time>2026-04-25T11:22:12.702Z</time></trkpt><trkpt lat="45.379915" lon="7.573305"><ele>1052.4</ele><time>2026-04-25T11:22:13.702Z</time></trkpt><trkpt lat="45.37983" lon="7.5733633"><ele>1053.0</ele><time>2026-04-25T11:22:14.702Z</time></trkpt><trkpt lat="45.379755" lon="7.5734183"><ele>1053.0</ele><time>2026-04-25T11:22:15.702Z</time></trkpt><trkpt lat="45.3797" lon="7.5734733"><ele>1053.0</ele><time>2026-04-25T11:22:16.702Z</time></trkpt><trkpt lat="45.3796233" lon="7.57349"><ele>1053.0</ele><time>2026-04-25T11:22:18.702Z</time></trkpt><trkpt lat="45.37965" lon="7.573365"><ele>1053.0</ele><time>2026-04-25T11:22:21.702Z</time></trkpt><trkpt lat="45.3797183" lon="7.5732167"><ele>1053.0</ele><time>2026-04-25T11:22:23.702Z</time></trkpt><trkpt lat="45.3797617" lon="7.573115"><ele>1053.0</ele><time>2026-04-25T11:22:24.702Z</time></trkpt><trkpt lat="45.379805" lon="7.57302"><ele>1053.0</ele><time>2026-04-25T11:22:25.702Z</time></trkpt><trkpt lat="45.379855" lon="7.5729267"><ele>1053.0</ele><time>2026-04-25T11:22:26.702Z</time></trkpt><trkpt lat="45.3799167" lon="7.57282"><ele>1053.0</ele><time>2026-04-25T11:22:27.702Z</time></trkpt><trkpt lat="45.3799817" lon="7.57272"><ele>1053.0</ele><time>2026-04-25T11:22:28.702Z</time></trkpt><trkpt lat="45.3800383" lon="7.5726383"><ele>1053.0</ele><time>2026-04-25T11:22:29.702Z</time></trkpt><trkpt lat="45.3800883" lon="7.5725517"><ele>1053.0</ele><time>2026-04-25T11:22:30.702Z</time></trkpt><trkpt lat="45.3801283" lon="7.5724517"><ele>1057.0</ele><time>2026-04-25T11:22:31.702Z</time></trkpt><trkpt lat="45.38017" lon="7.5723367"><ele>1061.0</ele><time>2026-04-25T11:22:32.702Z</time></trkpt><trkpt lat="45.3802017" lon="7.5722033"><ele>1065.0</ele><time>2026-04-25T11:22:33.702Z</time></trkpt><trkpt lat="45.3802267" lon="7.5720667"><ele>1069.0</ele><time>2026-04-25T11:22:34.703Z</time></trkpt><trkpt lat="45.3802383" lon="7.571915"><ele>1073.0</ele><time>2026-04-25T11:22:35.702Z</time></trkpt><trkpt lat="45.38024" lon="7.5717667"><ele>1075.8</ele><time>2026-04-25T11:22:36.703Z</time></trkpt><trkpt lat="45.38025" lon="7.5716383"><ele>1078.6</ele><time>2026-04-25T11:22:37.702Z</time></trkpt><trkpt lat="45.380275" lon="7.57148"><ele>1081.4</ele><time>2026-04-25T11:22:39.702Z</time></trkpt><trkpt lat="45.3802617" lon="7.5713833"><ele>1084.2</ele><time>2026-04-25T11:22:41.702Z</time></trkpt><trkpt lat="45.3801733" lon="7.5713717"><ele>1087.0</ele><time>2026-04-25T11:22:44.702Z</time></trkpt><trkpt lat="45.38008" lon="7.5714917"><ele>1087.0</ele><time>2026-04-25T11:22:46.702Z</time></trkpt><trkpt lat="45.3800133" lon="7.5716083"><ele>1087.0</ele><time>2026-04-25T11:22:47.702Z</time></trkpt><trkpt lat="45.3799583" lon="7.5717233"><ele>1087.0</ele><time>2026-04-25T11:22:48.702Z</time></trkpt><trkpt lat="45.3799" lon="7.5718283"><ele>1087.0</ele><time>2026-04-25T11:22:49.702Z</time></trkpt><trkpt lat="45.3798533" lon="7.571905"><ele>1087.0</ele><time>2026-04-25T11:22:50.702Z</time></trkpt><trkpt lat="45.3797667" lon="7.571935"><ele>1087.8</ele><time>2026-04-25T11:22:52.702Z</time></trkpt><trkpt lat="45.3796633" lon="7.57185"><ele>1088.6</ele><time>2026-04-25T11:22:54.702Z</time></trkpt><trkpt lat="45.3795933" lon="7.571775"><ele>1089.3999999999999</ele><time>2026-04-25T11:22:55.703Z</time></trkpt><trkpt lat="45.3795033" lon="7.571695"><ele>1090.2</ele><time>2026-04-25T11:22:56.702Z</time></trkpt><trkpt lat="45.37943" lon="7.571625"><ele>1091.0</ele><time>2026-04-25T11:22:57.702Z</time></trkpt><trkpt lat="45.3793717" lon="7.5715433"><ele>1091.0</ele><time>2026-04-25T11:22:58.702Z</time></trkpt><trkpt lat="45.3793283" lon="7.5714583"><ele>1091.0</ele><time>2026-04-25T11:22:59.702Z</time></trkpt><trkpt lat="45.3793083" lon="7.5713583"><ele>1091.0</ele><time>2026-04-25T11:23:00.702Z</time></trkpt><trkpt lat="45.3793033" lon="7.5712383"><ele>1091.0</ele><time>2026-04-25T11:23:01.702Z</time></trkpt><trkpt lat="45.3793183" lon="7.5711233"><ele>1091.0</ele><time>2026-04-25T11:23:02.702Z</time></trkpt><trkpt lat="45.3793467" lon="7.5710117"><ele>1091.0</ele><time>2026-04-25T11:23:03.702Z</time></trkpt><trkpt lat="45.37936" lon="7.5708917"><ele>1091.8333333333335</ele><time>2026-04-25T11:23:04.702Z</time></trkpt><trkpt lat="45.379365" lon="7.57076"><ele>1092.6666666666667</ele><time>2026-04-25T11:23:05.702Z</time></trkpt><trkpt lat="45.3793617" lon="7.5706467"><ele>1093.5</ele><time>2026-04-25T11:23:06.702Z</time></trkpt><trkpt lat="45.3793617" lon="7.57054"><ele>1094.3333333333333</ele><time>2026-04-25T11:23:07.702Z</time></trkpt><trkpt lat="45.379355" lon="7.57044"><ele>1095.1666666666665</ele><time>2026-04-25T11:23:08.702Z</time></trkpt><trkpt lat="45.37929" lon="7.570285"><ele>1096.0</ele><time>2026-04-25T11:23:10.702Z</time></trkpt><trkpt lat="45.3792283" lon="7.570215"><ele>1098.8</ele><time>2026-04-25T11:23:11.702Z</time></trkpt><trkpt lat="45.3791533" lon="7.570125"><ele>1101.6</ele><time>2026-04-25T11:23:12.702Z</time></trkpt><trkpt lat="45.3790783" lon="7.570025"><ele>1104.4</ele><time>2026-04-25T11:23:13.702Z</time></trkpt><trkpt lat="45.3790083" lon="7.569905"><ele>1107.2</ele><time>2026-04-25T11:23:14.702Z</time></trkpt><trkpt lat="45.3789467" lon="7.569775"><ele>1110.0</ele><time>2026-04-25T11:23:15.702Z</time></trkpt><trkpt lat="45.3788817" lon="7.5696433"><ele>1108.8333333333333</ele><time>2026-04-25T11:23:16.702Z</time></trkpt><trkpt lat="45.3788167" lon="7.56954"><ele>1107.6666666666667</ele><time>2026-04-25T11:23:17.702Z</time></trkpt><trkpt lat="45.37877" lon="7.5694433"><ele>1106.5</ele><time>2026-04-25T11:23:18.702Z</time></trkpt><trkpt lat="45.378735" lon="7.5692933"><ele>1105.3333333333335</ele><time>2026-04-25T11:23:20.702Z</time></trkpt><trkpt lat="45.3787433" lon="7.5692033"><ele>1104.1666666666667</ele><time>2026-04-25T11:23:21.702Z</time></trkpt><trkpt lat="45.378755" lon="7.5691017"><ele>1103.0</ele><time>2026-04-25T11:23:22.702Z</time></trkpt><trkpt lat="45.37877" lon="7.568995"><ele>1103.0</ele><time>2026-04-25T11:23:23.702Z</time></trkpt><trkpt lat="45.3787683" lon="7.5688833"><ele>1103.0</ele><time>2026-04-25T11:23:24.702Z</time></trkpt><trkpt lat="45.37874" lon="7.5687733"><ele>1103.0</ele><time>2026-04-25T11:23:25.702Z</time></trkpt><trkpt lat="45.3786917" lon="7.5686783"><ele>1103.0</ele><time>2026-04-25T11:23:26.702Z</time></trkpt><trkpt lat="45.3786267" lon="7.5686083"><ele>1103.0</ele><time>2026-04-25T11:23:27.702Z</time></trkpt><trkpt lat="45.3785517" lon="7.5685483"><ele>1103.0</ele><time>2026-04-25T11:23:28.702Z</time></trkpt><trkpt lat="45.378455" lon="7.5685083"><ele>1104.6666666666667</ele><time>2026-04-25T11:23:29.702Z</time></trkpt><trkpt lat="45.37837" lon="7.5684867"><ele>1106.3333333333335</ele><time>2026-04-25T11:23:30.702Z</time></trkpt><trkpt lat="45.3783" lon="7.5684583"><ele>1108.0</ele><time>2026-04-25T11:23:31.702Z</time></trkpt><trkpt lat="45.3782383" lon="7.568365"><ele>1109.6666666666667</ele><time>2026-04-25T11:23:33.702Z</time></trkpt><trkpt lat="45.37825" lon="7.568215"><ele>1111.3333333333333</ele><time>2026-04-25T11:23:35.702Z</time></trkpt><trkpt lat="45.3782833" lon="7.5681133"><ele>1113.0</ele><time>2026-04-25T11:23:36.702Z</time></trkpt><trkpt lat="45.3783317" lon="7.5679883"><ele>1113.0</ele><time>2026-04-25T11:23:37.702Z</time></trkpt><trkpt lat="45.3783783" lon="7.5678667"><ele>1113.0</ele><time>2026-04-25T11:23:38.702Z</time></trkpt><trkpt lat="45.378435" lon="7.567755"><ele>1113.0</ele><time>2026-04-25T11:23:39.702Z</time></trkpt><trkpt lat="45.378495" lon="7.5676517"><ele>1113.0</ele><time>2026-04-25T11:23:40.702Z</time></trkpt><trkpt lat="45.3785433" lon="7.5675483"><ele>1113.0</ele><time>2026-04-25T11:23:41.702Z</time></trkpt><trkpt lat="45.37858" lon="7.5674483"><ele>1112.0</ele><time>2026-04-25T11:23:42.702Z</time></trkpt><trkpt lat="45.3786283" lon="7.5673133"><ele>1111.0</ele><time>2026-04-25T11:23:44.702Z</time></trkpt><trkpt lat="45.3786933" lon="7.5672883"><ele>1110.0</ele><time>2026-04-25T11:23:47.702Z</time></trkpt><trkpt lat="45.3786417" lon="7.56742"><ele>1109.0</ele><time>2026-04-25T11:23:50.702Z</time></trkpt><trkpt lat="45.378595" lon="7.5675683"><ele>1108.0</ele><time>2026-04-25T11:23:52.702Z</time></trkpt><trkpt lat="45.378595" lon="7.5677433"><ele>1108.8333333333333</ele><time>2026-04-25T11:23:54.702Z</time></trkpt><trkpt lat="45.37863" lon="7.56787"><ele>1109.6666666666665</ele><time>2026-04-25T11:23:56.702Z</time></trkpt><trkpt lat="45.378725" lon="7.5679033"><ele>1110.5</ele><time>2026-04-25T11:23:58.702Z</time></trkpt><trkpt lat="45.378795" lon="7.5679117"><ele>1111.3333333333333</ele><time>2026-04-25T11:23:59.702Z</time></trkpt><trkpt lat="45.3788733" lon="7.5679167"><ele>1112.1666666666667</ele><time>2026-04-25T11:24:00.702Z</time></trkpt><trkpt lat="45.3789583" lon="7.5679167"><ele>1113.0</ele><time>2026-04-25T11:24:01.702Z</time></trkpt><trkpt lat="45.3790417" lon="7.5679067"><ele>1116.3333333333333</ele><time>2026-04-25T11:24:02.702Z</time></trkpt><trkpt lat="45.3791183" lon="7.567885"><ele>1119.6666666666667</ele><time>2026-04-25T11:24:03.702Z</time></trkpt><trkpt lat="45.3791883" lon="7.567885"><ele>1123.0</ele><time>2026-04-25T11:24:04.702Z</time></trkpt><trkpt lat="45.37926" lon="7.567905"><ele>1126.3333333333335</ele><time>2026-04-25T11:24:05.702Z</time></trkpt><trkpt lat="45.379335" lon="7.567935"><ele>1129.6666666666667</ele><time>2026-04-25T11:24:06.702Z</time></trkpt><trkpt lat="45.3794133" lon="7.567995"><ele>1133.0</ele><time>2026-04-25T11:24:07.703Z</time></trkpt><trkpt lat="45.3794917" lon="7.568065"><ele>1133.0</ele><time>2026-04-25T11:24:08.702Z</time></trkpt><trkpt lat="45.3795733" lon="7.568145"><ele>1133.0</ele><time>2026-04-25T11:24:09.702Z</time></trkpt><trkpt lat="45.3796567" lon="7.568215"><ele>1133.0</ele><time>2026-04-25T11:24:10.702Z</time></trkpt><trkpt lat="45.379745" lon="7.56828"><ele>1133.0</ele><time>2026-04-25T11:24:11.702Z</time></trkpt><trkpt lat="45.3798233" lon="7.5683367"><ele>1133.0</ele><time>2026-04-25T11:24:12.702Z</time></trkpt><trkpt lat="45.37991" lon="7.5683917"><ele>1134.6</ele><time>2026-04-25T11:24:13.702Z</time></trkpt><trkpt lat="45.3800033" lon="7.56846"><ele>1136.1999999999998</ele><time>2026-04-25T11:24:14.702Z</time></trkpt><trkpt lat="45.3800917" lon="7.5685217"><ele>1137.8</ele><time>2026-04-25T11:24:15.702Z</time></trkpt><trkpt lat="45.3801717" lon="7.5686017"><ele>1139.3999999999999</ele><time>2026-04-25T11:24:16.702Z</time></trkpt><trkpt lat="45.38025" lon="7.56866"><ele>1141.0</ele><time>2026-04-25T11:24:17.702Z</time></trkpt><trkpt lat="45.3803183" lon="7.5686983"><ele>1141.0</ele><time>2026-04-25T11:24:18.702Z</time></trkpt><trkpt lat="45.3803933" lon="7.5687183"><ele>1141.0</ele><time>2026-04-25T11:24:19.702Z</time></trkpt><trkpt lat="45.3804767" lon="7.5687033"><ele>1141.0</ele><time>2026-04-25T11:24:20.702Z</time></trkpt><trkpt lat="45.3805467" lon="7.5686717"><ele>1141.0</ele><time>2026-04-25T11:24:21.702Z</time></trkpt><trkpt lat="45.3806067" lon="7.5686183"><ele>1141.0</ele><time>2026-04-25T11:24:22.702Z</time></trkpt><trkpt lat="45.380665" lon="7.5685467"><ele>1141.0</ele><time>2026-04-25T11:24:23.702Z</time></trkpt><trkpt lat="45.380725" lon="7.5684517"><ele>1146.2</ele><time>2026-04-25T11:24:24.702Z</time></trkpt><trkpt lat="45.3807867" lon="7.5683383"><ele>1151.3999999999999</ele><time>2026-04-25T11:24:25.702Z</time></trkpt><trkpt lat="45.380855" lon="7.568235"><ele>1156.6</ele><time>2026-04-25T11:24:26.702Z</time></trkpt><trkpt lat="45.3809117" lon="7.5681267"><ele>1161.8</ele><time>2026-04-25T11:24:27.702Z</time></trkpt><trkpt lat="45.3809683" lon="7.5680017"><ele>1167.0</ele><time>2026-04-25T11:24:28.702Z</time></trkpt><trkpt lat="45.3810117" lon="7.567845"><ele>1171.25</ele><time>2026-04-25T11:24:29.702Z</time></trkpt><trkpt lat="45.381035" lon="7.567685"><ele>1175.5</ele><time>2026-04-25T11:24:30.702Z</time></trkpt><trkpt lat="45.3810483" lon="7.56753"><ele>1179.75</ele><time>2026-04-25T11:24:31.702Z</time></trkpt><trkpt lat="45.3810683" lon="7.5673667"><ele>1184.0</ele><time>2026-04-25T11:24:32.702Z</time></trkpt><trkpt lat="45.381095" lon="7.5671967"><ele>1185.6000000000001</ele><time>2026-04-25T11:24:33.702Z</time></trkpt><trkpt lat="45.3811333" lon="7.5670267"><ele>1187.2</ele><time>2026-04-25T11:24:34.702Z</time></trkpt><trkpt lat="45.38116" lon="7.56687"><ele>1188.8000000000002</ele><time>2026-04-25T11:24:35.702Z</time></trkpt><trkpt lat="45.3811867" lon="7.566745"><ele>1190.4</ele><time>2026-04-25T11:24:36.702Z</time></trkpt><trkpt lat="45.3812233" lon="7.5666133"><ele>1192.0</ele><time>2026-04-25T11:24:37.702Z</time></trkpt><trkpt lat="45.3812433" lon="7.5664867"><ele>1192.0</ele><time>2026-04-25T11:24:38.702Z</time></trkpt><trkpt lat="45.3812867" lon="7.5663817"><ele>1192.0</ele><time>2026-04-25T11:24:39.702Z</time></trkpt><trkpt lat="45.381325" lon="7.566305"><ele>1192.0</ele><time>2026-04-25T11:24:40.702Z</time></trkpt><trkpt lat="45.3813433" lon="7.5661917"><ele>1192.0</ele><time>2026-04-25T11:24:42.702Z</time></trkpt><trkpt lat="45.38127" lon="7.566145"><ele>1192.0</ele><time>2026-04-25T11:24:44.702Z</time></trkpt><trkpt lat="45.381205" lon="7.56619"><ele>1192.0</ele><time>2026-04-25T11:24:45.702Z</time></trkpt><trkpt lat="45.3811383" lon="7.5662717"><ele>1192.0</ele><time>2026-04-25T11:24:46.702Z</time></trkpt><trkpt lat="45.3810683" lon="7.5663817"><ele>1192.0</ele><time>2026-04-25T11:24:47.702Z</time></trkpt><trkpt lat="45.3810017" lon="7.5664767"><ele>1192.0</ele><time>2026-04-25T11:24:48.702Z</time></trkpt><trkpt lat="45.38095" lon="7.5665733"><ele>1192.0</ele><time>2026-04-25T11:24:49.702Z</time></trkpt><trkpt lat="45.380875" lon="7.5666767"><ele>1192.0</ele><time>2026-04-25T11:24:51.702Z</time></trkpt><trkpt lat="45.38081" lon="7.566675"><ele>1192.0</ele><time>2026-04-25T11:24:53.702Z</time></trkpt><trkpt lat="45.3807983" lon="7.5665817"><ele>1192.0</ele><time>2026-04-25T11:24:55.702Z</time></trkpt><trkpt lat="45.3808217" lon="7.5664"><ele>1192.0</ele><time>2026-04-25T11:24:57.703Z</time></trkpt><trkpt lat="45.3808267" lon="7.5662917"><ele>1192.0</ele><time>2026-04-25T11:24:58.702Z</time></trkpt><trkpt lat="45.3808233" lon="7.5661667"><ele>1192.0</ele><time>2026-04-25T11:24:59.702Z</time></trkpt><trkpt lat="45.380815" lon="7.5660417"><ele>1192.0</ele><time>2026-04-25T11:25:00.702Z</time></trkpt><trkpt lat="45.3808183" lon="7.565915"><ele>1193.6666666666665</ele><time>2026-04-25T11:25:01.703Z</time></trkpt><trkpt lat="45.380835" lon="7.5657917"><ele>1195.3333333333333</ele><time>2026-04-25T11:25:02.702Z</time></trkpt><trkpt lat="45.3808667" lon="7.5656833"><ele>1197.0</ele><time>2026-04-25T11:25:03.702Z</time></trkpt><trkpt lat="45.3809117" lon="7.5655917"><ele>1198.6666666666667</ele><time>2026-04-25T11:25:04.702Z</time></trkpt><trkpt lat="45.3809617" lon="7.5655167"><ele>1200.3333333333335</ele><time>2026-04-25T11:25:05.702Z</time></trkpt><trkpt lat="45.3810217" lon="7.5654783"><ele>1202.0</ele><time>2026-04-25T11:25:06.702Z</time></trkpt><trkpt lat="45.3810933" lon="7.5654683"><ele>1202.0</ele><time>2026-04-25T11:25:07.702Z</time></trkpt><trkpt lat="45.3811683" lon="7.5655"><ele>1202.0</ele><time>2026-04-25T11:25:08.702Z</time></trkpt><trkpt lat="45.3812617" lon="7.5655633"><ele>1202.0</ele><time>2026-04-25T11:25:09.702Z</time></trkpt><trkpt lat="45.38135" lon="7.5656267"><ele>1202.0</ele><time>2026-04-25T11:25:10.702Z</time></trkpt><trkpt lat="45.3814367" lon="7.56569"><ele>1202.0</ele><time>2026-04-25T11:25:11.702Z</time></trkpt><trkpt lat="45.3815383" lon="7.5657483"><ele>1204.4</ele><time>2026-04-25T11:25:12.702Z</time></trkpt><trkpt lat="45.3816383" lon="7.565805"><ele>1206.8000000000002</ele><time>2026-04-25T11:25:13.702Z</time></trkpt><trkpt lat="45.3817333" lon="7.565855"><ele>1209.2</ele><time>2026-04-25T11:25:14.702Z</time></trkpt><trkpt lat="45.3818283" lon="7.565925"><ele>1211.6000000000001</ele><time>2026-04-25T11:25:15.702Z</time></trkpt><trkpt lat="45.38191" lon="7.5660033"><ele>1214.0</ele><time>2026-04-25T11:25:16.702Z</time></trkpt><trkpt lat="45.3819917" lon="7.566075"><ele>1214.0</ele><time>2026-04-25T11:25:17.702Z</time></trkpt><trkpt lat="45.3820783" lon="7.5661217"><ele>1214.0</ele><time>2026-04-25T11:25:18.702Z</time></trkpt><trkpt lat="45.382155" lon="7.566145"><ele>1214.0</ele><time>2026-04-25T11:25:19.702Z</time></trkpt><trkpt lat="45.3822383" lon="7.5661383"><ele>1214.0</ele><time>2026-04-25T11:25:20.702Z</time></trkpt><trkpt lat="45.3823467" lon="7.5661167"><ele>1214.0</ele><time>2026-04-25T11:25:21.702Z</time></trkpt><trkpt lat="45.3824667" lon="7.56609"><ele>1215.0</ele><time>2026-04-25T11:25:22.702Z</time></trkpt><trkpt lat="45.3825967" lon="7.5660667"><ele>1216.0</ele><time>2026-04-25T11:25:23.702Z</time></trkpt><trkpt lat="45.38272" lon="7.5660367"><ele>1217.0</ele><time>2026-04-25T11:25:24.702Z</time></trkpt><trkpt lat="45.3828217" lon="7.5660067"><ele>1218.0</ele><time>2026-04-25T11:25:25.702Z</time></trkpt><trkpt lat="45.382905" lon="7.56596"><ele>1219.0</ele><time>2026-04-25T11:25:26.702Z</time></trkpt><trkpt lat="45.3829733" lon="7.5658967"><ele>1217.3333333333333</ele><time>2026-04-25T11:25:27.702Z</time></trkpt><trkpt lat="45.3830317" lon="7.565825"><ele>1215.6666666666665</ele><time>2026-04-25T11:25:28.702Z</time></trkpt><trkpt lat="45.3830833" lon="7.56575"><ele>1214.0</ele><time>2026-04-25T11:25:29.702Z</time></trkpt><trkpt lat="45.3831417" lon="7.56566"><ele>1212.3333333333333</ele><time>2026-04-25T11:25:30.702Z</time></trkpt><trkpt lat="45.3831967" lon="7.5655583"><ele>1210.6666666666667</ele><time>2026-04-25T11:25:31.702Z</time></trkpt><trkpt lat="45.3832467" lon="7.5654517"><ele>1209.0</ele><time>2026-04-25T11:25:32.702Z</time></trkpt><trkpt lat="45.3832933" lon="7.5653317"><ele>1214.2</ele><time>2026-04-25T11:25:33.702Z</time></trkpt><trkpt lat="45.3833417" lon="7.56521"><ele>1219.4</ele><time>2026-04-25T11:25:34.702Z</time></trkpt><trkpt lat="45.38338" lon="7.5650983"><ele>1224.6</ele><time>2026-04-25T11:25:35.702Z</time></trkpt><trkpt lat="45.3834333" lon="7.5650067"><ele>1229.8</ele><time>2026-04-25T11:25:36.702Z</time></trkpt><trkpt lat="45.3835017" lon="7.5649167"><ele>1235.0</ele><time>2026-04-25T11:25:37.702Z</time></trkpt><trkpt lat="45.3835883" lon="7.564825"><ele>1235.0</ele><time>2026-04-25T11:25:38.702Z</time></trkpt><trkpt lat="45.3836733" lon="7.56475"><ele>1235.0</ele><time>2026-04-25T11:25:39.702Z</time></trkpt><trkpt lat="45.3837683" lon="7.56468"><ele>1235.0</ele><time>2026-04-25T11:25:40.702Z</time></trkpt><trkpt lat="45.3838683" lon="7.5646167"><ele>1235.0</ele><time>2026-04-25T11:25:41.702Z</time></trkpt><trkpt lat="45.383965" lon="7.564535"><ele>1235.0</ele><time>2026-04-25T11:25:42.702Z</time></trkpt><trkpt lat="45.3840517" lon="7.5644483"><ele>1237.6</ele><time>2026-04-25T11:25:43.702Z</time></trkpt><trkpt lat="45.384135" lon="7.564355"><ele>1240.2</ele><time>2026-04-25T11:25:44.702Z</time></trkpt><trkpt lat="45.3842183" lon="7.5642717"><ele>1242.8</ele><time>2026-04-25T11:25:45.702Z</time></trkpt><trkpt lat="45.3843067" lon="7.5642117"><ele>1245.4</ele><time>2026-04-25T11:25:46.702Z</time></trkpt><trkpt lat="45.3843883" lon="7.56417"><ele>1248.0</ele><time>2026-04-25T11:25:47.702Z</time></trkpt><trkpt lat="45.38447" lon="7.564145"><ele>1248.0</ele><time>2026-04-25T11:25:48.702Z</time></trkpt><trkpt lat="45.384545" lon="7.5641233"><ele>1248.0</ele><time>2026-04-25T11:25:49.702Z</time></trkpt><trkpt lat="45.3846117" lon="7.5641083"><ele>1248.0</ele><time>2026-04-25T11:25:50.702Z</time></trkpt><trkpt lat="45.3847217" lon="7.5640417"><ele>1248.0</ele><time>2026-04-25T11:25:52.702Z</time></trkpt><trkpt lat="45.3847717" lon="7.5639783"><ele>1248.0</ele><time>2026-04-25T11:25:53.702Z</time></trkpt><trkpt lat="45.3848233" lon="7.563915"><ele>1248.0</ele><time>2026-04-25T11:25:54.702Z</time></trkpt><trkpt lat="45.3848867" lon="7.5638233"><ele>1248.0</ele><time>2026-04-25T11:25:56.702Z</time></trkpt><trkpt lat="45.38487" lon="7.5637333"><ele>1248.0</ele><time>2026-04-25T11:25:59.702Z</time></trkpt><trkpt lat="45.3847983" lon="7.563775"><ele>1248.0</ele><time>2026-04-25T11:26:01.702Z</time></trkpt><trkpt lat="45.38474" lon="7.5638283"><ele>1248.0</ele><time>2026-04-25T11:26:02.702Z</time></trkpt><trkpt lat="45.3846733" lon="7.5638633"><ele>1248.0</ele><time>2026-04-25T11:26:03.702Z</time></trkpt><trkpt lat="45.38456" lon="7.56389"><ele>1248.0</ele><time>2026-04-25T11:26:05.702Z</time></trkpt><trkpt lat="45.3844933" lon="7.5638967"><ele>1248.0</ele><time>2026-04-25T11:26:07.702Z</time></trkpt><trkpt lat="45.3844067" lon="7.5638667"><ele>1248.0</ele><time>2026-04-25T11:26:10.702Z</time></trkpt><trkpt lat="45.384285" lon="7.5638083"><ele>1248.0</ele><time>2026-04-25T11:26:12.702Z</time></trkpt><trkpt lat="45.3841867" lon="7.5637717"><ele>1248.0</ele><time>2026-04-25T11:26:13.702Z</time></trkpt><trkpt lat="45.38407" lon="7.5637317"><ele>1248.0</ele><time>2026-04-25T11:26:14.702Z</time></trkpt><trkpt lat="45.3839617" lon="7.5637133"><ele>1248.0</ele><time>2026-04-25T11:26:15.702Z</time></trkpt><trkpt lat="45.3838533" lon="7.563715"><ele>1248.0</ele><time>2026-04-25T11:26:16.702Z</time></trkpt><trkpt lat="45.3837533" lon="7.5637133"><ele>1248.0</ele><time>2026-04-25T11:26:17.702Z</time></trkpt><trkpt lat="45.3836683" lon="7.563705"><ele>1248.0</ele><time>2026-04-25T11:26:18.702Z</time></trkpt><trkpt lat="45.383595" lon="7.5637"><ele>1248.0</ele><time>2026-04-25T11:26:19.702Z</time></trkpt><trkpt lat="45.3835067" lon="7.5637017"><ele>1250.1666666666667</ele><time>2026-04-25T11:26:20.702Z</time></trkpt><trkpt lat="45.3834217" lon="7.5637117"><ele>1252.3333333333333</ele><time>2026-04-25T11:26:21.702Z</time></trkpt><trkpt lat="45.383345" lon="7.5637117"><ele>1254.5</ele><time>2026-04-25T11:26:22.702Z</time></trkpt><trkpt lat="45.3832467" lon="7.5636933"><ele>1256.6666666666665</ele><time>2026-04-25T11:26:24.702Z</time></trkpt><trkpt lat="45.38321" lon="7.5636017"><ele>1258.8333333333333</ele><time>2026-04-25T11:26:28.702Z</time></trkpt><trkpt lat="45.3832617" lon="7.5635417"><ele>1261.0</ele><time>2026-04-25T11:26:30.702Z</time></trkpt><trkpt lat="45.383365" lon="7.56352"><ele>1266.1999999999998</ele><time>2026-04-25T11:26:32.702Z</time></trkpt><trkpt lat="45.3834367" lon="7.5634933"><ele>1271.3999999999999</ele><time>2026-04-25T11:26:33.702Z</time></trkpt><trkpt lat="45.3835083" lon="7.56345"><ele>1276.6</ele><time>2026-04-25T11:26:34.702Z</time></trkpt><trkpt lat="45.3835833" lon="7.563375"><ele>1281.8</ele><time>2026-04-25T11:26:35.702Z</time></trkpt><trkpt lat="45.3836683" lon="7.563285"><ele>1287.0</ele><time>2026-04-25T11:26:36.702Z</time></trkpt><trkpt lat="45.383765" lon="7.5631983"><ele>1285.6</ele><time>2026-04-25T11:26:37.702Z</time></trkpt><trkpt lat="45.3838533" lon="7.5631217"><ele>1284.1999999999998</ele><time>2026-04-25T11:26:38.702Z</time></trkpt><trkpt lat="45.3839333" lon="7.563055"><ele>1282.8</ele><time>2026-04-25T11:26:39.702Z</time></trkpt><trkpt lat="45.384015" lon="7.5630033"><ele>1281.4</ele><time>2026-04-25T11:26:40.702Z</time></trkpt><trkpt lat="45.3841017" lon="7.562975"><ele>1280.0</ele><time>2026-04-25T11:26:41.702Z</time></trkpt><trkpt lat="45.3842" lon="7.5629583"><ele>1280.0</ele><time>2026-04-25T11:26:42.702Z</time></trkpt><trkpt lat="45.3843067" lon="7.5629467"><ele>1280.0</ele><time>2026-04-25T11:26:43.702Z</time></trkpt><trkpt lat="45.3844133" lon="7.56292"><ele>1280.0</ele><time>2026-04-25T11:26:44.702Z</time></trkpt><trkpt lat="45.3845217" lon="7.56289"><ele>1280.0</ele><time>2026-04-25T11:26:45.702Z</time></trkpt><trkpt lat="45.384615" lon="7.5628633"><ele>1280.0</ele><time>2026-04-25T11:26:46.702Z</time></trkpt><trkpt lat="45.384695" lon="7.5628267"><ele>1285.6666666666667</ele><time>2026-04-25T11:26:47.702Z</time></trkpt><trkpt lat="45.3847767" lon="7.5627867"><ele>1291.3333333333335</ele><time>2026-04-25T11:26:48.702Z</time></trkpt><trkpt lat="45.384845" lon="7.5627483"><ele>1297.0</ele><time>2026-04-25T11:26:49.702Z</time></trkpt><trkpt lat="45.3849083" lon="7.56274"><ele>1302.6666666666667</ele><time>2026-04-25T11:26:50.702Z</time></trkpt><trkpt lat="45.384975" lon="7.56275"><ele>1308.3333333333333</ele><time>2026-04-25T11:26:52.702Z</time></trkpt><trkpt lat="45.384935" lon="7.5626467"><ele>1314.0</ele><time>2026-04-25T11:26:56.702Z</time></trkpt><trkpt lat="45.384815" lon="7.5626317"><ele>1314.0</ele><time>2026-04-25T11:26:58.702Z</time></trkpt><trkpt lat="45.3847383" lon="7.5626217"><ele>1314.0</ele><time>2026-04-25T11:26:59.702Z</time></trkpt><trkpt lat="45.3846583" lon="7.5625883"><ele>1314.0</ele><time>2026-04-25T11:27:00.702Z</time></trkpt><trkpt lat="45.3845767" lon="7.5625467"><ele>1314.0</ele><time>2026-04-25T11:27:01.702Z</time></trkpt><trkpt lat="45.384495" lon="7.5624967"><ele>1314.0</ele><time>2026-04-25T11:27:02.702Z</time></trkpt><trkpt lat="45.38442" lon="7.5624483"><ele>1314.0</ele><time>2026-04-25T11:27:03.702Z</time></trkpt><trkpt lat="45.38434" lon="7.5623883"><ele>1313.5</ele><time>2026-04-25T11:27:04.702Z</time></trkpt><trkpt lat="45.384255" lon="7.56233"><ele>1313.0</ele><time>2026-04-25T11:27:05.702Z</time></trkpt><trkpt lat="45.3841683" lon="7.5622733"><ele>1312.5</ele><time>2026-04-25T11:27:06.702Z</time></trkpt><trkpt lat="45.384095" lon="7.56222"><ele>1312.0</ele><time>2026-04-25T11:27:07.702Z</time></trkpt><trkpt lat="45.3840267" lon="7.56217"><ele>1311.5</ele><time>2026-04-25T11:27:08.702Z</time></trkpt><trkpt lat="45.3839567" lon="7.5621317"><ele>1311.0</ele><time>2026-04-25T11:27:09.703Z</time></trkpt><trkpt lat="45.38388" lon="7.5620883"><ele>1310.8333333333333</ele><time>2026-04-25T11:27:10.702Z</time></trkpt><trkpt lat="45.3838133" lon="7.56205"><ele>1310.6666666666667</ele><time>2026-04-25T11:27:11.702Z</time></trkpt><trkpt lat="45.383755" lon="7.562005"><ele>1310.5</ele><time>2026-04-25T11:27:12.702Z</time></trkpt><trkpt lat="45.383695" lon="7.5619"><ele>1310.3333333333335</ele><time>2026-04-25T11:27:14.703Z</time></trkpt><trkpt lat="45.3836783" lon="7.5617667"><ele>1310.1666666666667</ele><time>2026-04-25T11:27:16.702Z</time></trkpt><trkpt lat="45.3837017" lon="7.56166"><ele>1310.0</ele><time>2026-04-25T11:27:18.702Z</time></trkpt><trkpt lat="45.3837733" lon="7.5615717"><ele>1311.1666666666667</ele><time>2026-04-25T11:27:20.703Z</time></trkpt><trkpt lat="45.383835" lon="7.5615467"><ele>1312.3333333333335</ele><time>2026-04-25T11:27:21.702Z</time></trkpt><trkpt lat="45.3839117" lon="7.5615083"><ele>1313.5</ele><time>2026-04-25T11:27:22.702Z</time></trkpt><trkpt lat="45.3839883" lon="7.5614667"><ele>1314.6666666666667</ele><time>2026-04-25T11:27:23.702Z</time></trkpt><trkpt lat="45.384065" lon="7.56141"><ele>1315.8333333333333</ele><time>2026-04-25T11:27:24.702Z</time></trkpt><trkpt lat="45.3841383" lon="7.56134"><ele>1317.0</ele><time>2026-04-25T11:27:25.702Z</time></trkpt><trkpt lat="45.3842017" lon="7.5612617"><ele>1319.5</ele><time>2026-04-25T11:27:26.702Z</time></trkpt><trkpt lat="45.3842667" lon="7.5611817"><ele>1322.0</ele><time>2026-04-25T11:27:27.702Z</time></trkpt><trkpt lat="45.384325" lon="7.5610933"><ele>1324.5</ele><time>2026-04-25T11:27:28.702Z</time></trkpt><trkpt lat="45.3843733" lon="7.5609967"><ele>1327.0</ele><time>2026-04-25T11:27:29.702Z</time></trkpt><trkpt lat="45.3844083" lon="7.560895"><ele>1329.5</ele><time>2026-04-25T11:27:30.702Z</time></trkpt><trkpt lat="45.3844467" lon="7.5607983"><ele>1332.0</ele><time>2026-04-25T11:27:31.702Z</time></trkpt><trkpt lat="45.3844883" lon="7.560725"><ele>1332.0</ele><time>2026-04-25T11:27:32.702Z</time></trkpt><trkpt lat="45.384555" lon="7.5606017"><ele>1332.0</ele><time>2026-04-25T11:27:34.702Z</time></trkpt><trkpt lat="45.384585" lon="7.56052"><ele>1332.0</ele><time>2026-04-25T11:27:46.702Z</time></trkpt><trkpt lat="45.3846183" lon="7.560385"><ele>1332.0</ele><time>2026-04-25T11:27:48.702Z</time></trkpt><trkpt lat="45.3846333" lon="7.56028"><ele>1332.0</ele><time>2026-04-25T11:27:49.702Z</time></trkpt><trkpt lat="45.3846533" lon="7.56017"><ele>1332.0</ele><time>2026-04-25T11:27:50.702Z</time></trkpt><trkpt lat="45.3846767" lon="7.5600783"><ele>1339.3999999999999</ele><time>2026-04-25T11:27:51.702Z</time></trkpt><trkpt lat="45.3847267" lon="7.5599333"><ele>1346.8</ele><time>2026-04-25T11:27:53.702Z</time></trkpt><trkpt lat="45.3848033" lon="7.5597767"><ele>1354.2</ele><time>2026-04-25T11:27:55.702Z</time></trkpt><trkpt lat="45.3848417" lon="7.559665"><ele>1361.6</ele><time>2026-04-25T11:27:56.702Z</time></trkpt><trkpt lat="45.3848667" lon="7.55954"><ele>1369.0</ele><time>2026-04-25T11:27:57.702Z</time></trkpt><trkpt lat="45.384885" lon="7.5594217"><ele>1370.1666666666665</ele><time>2026-04-25T11:27:58.702Z</time></trkpt><trkpt lat="45.38488" lon="7.5593083"><ele>1371.3333333333333</ele><time>2026-04-25T11:27:59.702Z</time></trkpt><trkpt lat="45.3848617" lon="7.559195"><ele>1372.5</ele><time>2026-04-25T11:28:00.702Z</time></trkpt><trkpt lat="45.3848367" lon="7.5591"><ele>1373.6666666666667</ele><time>2026-04-25T11:28:01.702Z</time></trkpt><trkpt lat="45.384805" lon="7.558995"><ele>1374.8333333333335</ele><time>2026-04-25T11:28:02.702Z</time></trkpt><trkpt lat="45.3847667" lon="7.5588933"><ele>1376.0</ele><time>2026-04-25T11:28:03.702Z</time></trkpt><trkpt lat="45.384735" lon="7.5587983"><ele>1376.0</ele><time>2026-04-25T11:28:04.702Z</time></trkpt><trkpt lat="45.3847083" lon="7.5586783"><ele>1376.0</ele><time>2026-04-25T11:28:06.702Z</time></trkpt><trkpt lat="45.38479" lon="7.5587017"><ele>1376.0</ele><time>2026-04-25T11:28:20.702Z</time></trkpt><trkpt lat="45.3848683" lon="7.5588667"><ele>1376.0</ele><time>2026-04-25T11:28:22.702Z</time></trkpt><trkpt lat="45.3849183" lon="7.5589483"><ele>1376.0</ele><time>2026-04-25T11:28:23.701Z</time></trkpt><trkpt lat="45.3849667" lon="7.55901"><ele>1376.0</ele><time>2026-04-25T11:28:24.701Z</time></trkpt><trkpt lat="45.3850667" lon="7.55911"><ele>1376.0</ele><time>2026-04-25T11:28:26.701Z</time></trkpt><trkpt lat="45.385135" lon="7.5591583"><ele>1376.0</ele><time>2026-04-25T11:28:27.701Z</time></trkpt><trkpt lat="45.3852217" lon="7.5592183"><ele>1376.0</ele><time>2026-04-25T11:28:28.701Z</time></trkpt><trkpt lat="45.385305" lon="7.55929"><ele>1376.0</ele><time>2026-04-25T11:28:29.701Z</time></trkpt><trkpt lat="45.3853733" lon="7.5593733"><ele>1376.0</ele><time>2026-04-25T11:28:30.701Z</time></trkpt><trkpt lat="45.385435" lon="7.5594833"><ele>1376.0</ele><time>2026-04-25T11:28:31.701Z</time></trkpt><trkpt lat="45.3854917" lon="7.5595767"><ele>1376.0</ele><time>2026-04-25T11:28:32.701Z</time></trkpt><trkpt lat="45.385535" lon="7.5596583"><ele>1376.0</ele><time>2026-04-25T11:28:33.701Z</time></trkpt><trkpt lat="45.3855517" lon="7.5597483"><ele>1376.0</ele><time>2026-04-25T11:28:34.701Z</time></trkpt><trkpt lat="45.3855483" lon="7.5598467"><ele>1376.0</ele><time>2026-04-25T11:28:35.701Z</time></trkpt><trkpt lat="45.385535" lon="7.5599517"><ele>1374.6</ele><time>2026-04-25T11:28:36.701Z</time></trkpt><trkpt lat="45.3855183" lon="7.5600483"><ele>1373.1999999999998</ele><time>2026-04-25T11:28:37.701Z</time></trkpt><trkpt lat="45.3854683" lon="7.5601917"><ele>1371.8000000000002</ele><time>2026-04-25T11:28:39.701Z</time></trkpt><trkpt lat="45.3854983" lon="7.560295"><ele>1370.4</ele><time>2026-04-25T11:28:42.701Z</time></trkpt><trkpt lat="45.38556" lon="7.5602583"><ele>1369.0</ele><time>2026-04-25T11:28:44.701Z</time></trkpt><trkpt lat="45.385645" lon="7.56012"><ele>1372.1666666666665</ele><time>2026-04-25T11:28:46.701Z</time></trkpt><trkpt lat="45.3857033" lon="7.56003"><ele>1375.3333333333333</ele><time>2026-04-25T11:28:47.701Z</time></trkpt><trkpt lat="45.3857617" lon="7.5599317"><ele>1378.5</ele><time>2026-04-25T11:28:48.701Z</time></trkpt><trkpt lat="45.3858183" lon="7.5598383"><ele>1381.6666666666667</ele><time>2026-04-25T11:28:49.701Z</time></trkpt><trkpt lat="45.38585" lon="7.5597417"><ele>1384.8333333333335</ele><time>2026-04-25T11:28:50.701Z</time></trkpt><trkpt lat="45.38586" lon="7.55965"><ele>1388.0</ele><time>2026-04-25T11:28:51.701Z</time></trkpt><trkpt lat="45.3858617" lon="7.5595533"><ele>1391.3333333333335</ele><time>2026-04-25T11:28:52.701Z</time></trkpt><trkpt lat="45.385855" lon="7.5594383"><ele>1394.6666666666667</ele><time>2026-04-25T11:28:53.701Z</time></trkpt><trkpt lat="45.38584" lon="7.5593283"><ele>1398.0</ele><time>2026-04-25T11:28:54.701Z</time></trkpt><trkpt lat="45.3858283" lon="7.559225"><ele>1401.3333333333333</ele><time>2026-04-25T11:28:55.701Z</time></trkpt><trkpt lat="45.3858033" lon="7.5591283"><ele>1404.6666666666665</ele><time>2026-04-25T11:28:56.701Z</time></trkpt><trkpt lat="45.3857633" lon="7.5590567"><ele>1408.0</ele><time>2026-04-25T11:28:57.701Z</time></trkpt><trkpt lat="45.3856933" lon="7.5589133"><ele>1408.0</ele><time>2026-04-25T11:28:59.701Z</time></trkpt><trkpt lat="45.3856583" lon="7.5588383"><ele>1408.0</ele><time>2026-04-25T11:29:00.701Z</time></trkpt><trkpt lat="45.3856233" lon="7.5587533"><ele>1408.0</ele><time>2026-04-25T11:29:01.701Z</time></trkpt><trkpt lat="45.3855933" lon="7.5586633"><ele>1408.0</ele><time>2026-04-25T11:29:02.701Z</time></trkpt><trkpt lat="45.3855533" lon="7.5585833"><ele>1408.0</ele><time>2026-04-25T11:29:03.701Z</time></trkpt><trkpt lat="45.3854867" lon="7.558445"><ele>1408.0</ele><time>2026-04-25T11:29:05.701Z</time></trkpt><trkpt lat="45.38546" lon="7.5583117"><ele>1410.6000000000001</ele><time>2026-04-25T11:29:07.701Z</time></trkpt><trkpt lat="45.3855117" lon="7.5581533"><ele>1413.2</ele><time>2026-04-25T11:29:09.701Z</time></trkpt><trkpt lat="45.3855467" lon="7.5580717"><ele>1415.8</ele><time>2026-04-25T11:29:10.701Z</time></trkpt><trkpt lat="45.38562" lon="7.5579283"><ele>1418.4</ele><time>2026-04-25T11:29:12.701Z</time></trkpt><trkpt lat="45.3857233" lon="7.557835"><ele>1421.0</ele><time>2026-04-25T11:29:14.701Z</time></trkpt><trkpt lat="45.38579" lon="7.5577933"><ele>1421.0</ele><time>2026-04-25T11:29:15.701Z</time></trkpt><trkpt lat="45.3858533" lon="7.5577533"><ele>1421.0</ele><time>2026-04-25T11:29:16.701Z</time></trkpt><trkpt lat="45.3859117" lon="7.5577067"><ele>1421.0</ele><time>2026-04-25T11:29:17.701Z</time></trkpt><trkpt lat="45.385965" lon="7.5576483"><ele>1421.0</ele><time>2026-04-25T11:29:18.701Z</time></trkpt><trkpt lat="45.3860167" lon="7.5575833"><ele>1421.0</ele><time>2026-04-25T11:29:19.701Z</time></trkpt><trkpt lat="45.38607" lon="7.5575017"><ele>1421.0</ele><time>2026-04-25T11:29:20.701Z</time></trkpt><trkpt lat="45.3861267" lon="7.55742"><ele>1421.0</ele><time>2026-04-25T11:29:21.701Z</time></trkpt><trkpt lat="45.38618" lon="7.5573433"><ele>1421.0</ele><time>2026-04-25T11:29:22.702Z</time></trkpt><trkpt lat="45.3862317" lon="7.5572683"><ele>1421.0</ele><time>2026-04-25T11:29:23.701Z</time></trkpt><trkpt lat="45.3862767" lon="7.5572"><ele>1421.0</ele><time>2026-04-25T11:29:24.701Z</time></trkpt><trkpt lat="45.3863233" lon="7.5571183"><ele>1421.0</ele><time>2026-04-25T11:29:25.701Z</time></trkpt><trkpt lat="45.3863717" lon="7.557025"><ele>1421.0</ele><time>2026-04-25T11:29:26.701Z</time></trkpt><trkpt lat="45.3864117" lon="7.5569283"><ele>1421.0</ele><time>2026-04-25T11:29:27.701Z</time></trkpt><trkpt lat="45.3864533" lon="7.55678"><ele>1428.0</ele><time>2026-04-25T11:29:29.701Z</time></trkpt><trkpt lat="45.3864817" lon="7.5565983"><ele>1435.0</ele><time>2026-04-25T11:29:31.701Z</time></trkpt><trkpt lat="45.3864917" lon="7.5564983"><ele>1442.0</ele><time>2026-04-25T11:29:32.701Z</time></trkpt><trkpt lat="45.3864883" lon="7.5563933"><ele>1449.0</ele><time>2026-04-25T11:29:33.701Z</time></trkpt><trkpt lat="45.3864667" lon="7.55629"><ele>1456.0</ele><time>2026-04-25T11:29:34.701Z</time></trkpt><trkpt lat="45.3864367" lon="7.55619"><ele>1463.0</ele><time>2026-04-25T11:29:35.701Z</time></trkpt><trkpt lat="45.3863983" lon="7.5560867"><ele>1465.0</ele><time>2026-04-25T11:29:36.701Z</time></trkpt><trkpt lat="45.3863567" lon="7.555995"><ele>1467.0</ele><time>2026-04-25T11:29:37.701Z</time></trkpt><trkpt lat="45.3863217" lon="7.5559183"><ele>1469.0</ele><time>2026-04-25T11:29:38.701Z</time></trkpt><trkpt lat="45.3862517" lon="7.55576"><ele>1471.0</ele><time>2026-04-25T11:29:40.701Z</time></trkpt><trkpt lat="45.38621" lon="7.5556783"><ele>1473.0</ele><time>2026-04-25T11:29:41.701Z</time></trkpt><trkpt lat="45.38617" lon="7.5556083"><ele>1475.0</ele><time>2026-04-25T11:29:42.701Z</time></trkpt><trkpt lat="45.3861233" lon="7.55553"><ele>1471.3333333333335</ele><time>2026-04-25T11:29:43.701Z</time></trkpt><trkpt lat="45.3860717" lon="7.5554317"><ele>1467.6666666666667</ele><time>2026-04-25T11:29:44.701Z</time></trkpt><trkpt lat="45.3860233" lon="7.5553433"><ele>1464.0</ele><time>2026-04-25T11:29:45.701Z</time></trkpt><trkpt lat="45.3859717" lon="7.5552667"><ele>1460.3333333333333</ele><time>2026-04-25T11:29:46.701Z</time></trkpt><trkpt lat="45.3859133" lon="7.5551417"><ele>1456.6666666666665</ele><time>2026-04-25T11:29:48.701Z</time></trkpt><trkpt lat="45.3858883" lon="7.5550467"><ele>1453.0</ele><time>2026-04-25T11:29:50.702Z</time></trkpt><trkpt lat="45.3858783" lon="7.5549283"><ele>1453.0</ele><time>2026-04-25T11:29:52.701Z</time></trkpt><trkpt lat="45.385915" lon="7.5547983"><ele>1453.0</ele><time>2026-04-25T11:29:54.702Z</time></trkpt><trkpt lat="45.3859683" lon="7.55466"><ele>1453.0</ele><time>2026-04-25T11:29:56.701Z</time></trkpt><trkpt lat="45.3859933" lon="7.5545183"><ele>1453.0</ele><time>2026-04-25T11:29:58.701Z</time></trkpt><trkpt lat="45.3859867" lon="7.55434"><ele>1453.0</ele><time>2026-04-25T11:30:00.701Z</time></trkpt><trkpt lat="45.3859733" lon="7.5542317"><ele>1456.0</ele><time>2026-04-25T11:30:01.701Z</time></trkpt><trkpt lat="45.38596" lon="7.5541283"><ele>1459.0</ele><time>2026-04-25T11:30:02.701Z</time></trkpt><trkpt lat="45.385935" lon="7.5540433"><ele>1462.0</ele><time>2026-04-25T11:30:03.701Z</time></trkpt><trkpt lat="45.3858467" lon="7.5538967"><ele>1465.0</ele><time>2026-04-25T11:30:05.701Z</time></trkpt><trkpt lat="45.3857833" lon="7.5538183"><ele>1468.0</ele><time>2026-04-25T11:30:06.701Z</time></trkpt><trkpt lat="45.385725" lon="7.553735"><ele>1471.0</ele><time>2026-04-25T11:30:07.701Z</time></trkpt><trkpt lat="45.3856733" lon="7.553665"><ele>1469.6666666666665</ele><time>2026-04-25T11:30:08.701Z</time></trkpt><trkpt lat="45.385615" lon="7.553595"><ele>1468.3333333333333</ele><time>2026-04-25T11:30:09.701Z</time></trkpt><trkpt lat="45.3855483" lon="7.5535333"><ele>1467.0</ele><time>2026-04-25T11:30:10.701Z</time></trkpt><trkpt lat="45.3854717" lon="7.55347"><ele>1465.6666666666667</ele><time>2026-04-25T11:30:11.701Z</time></trkpt><trkpt lat="45.3854033" lon="7.5534117"><ele>1464.3333333333335</ele><time>2026-04-25T11:30:12.701Z</time></trkpt><trkpt lat="45.3853333" lon="7.5533383"><ele>1463.0</ele><time>2026-04-25T11:30:13.702Z</time></trkpt><trkpt lat="45.3852517" lon="7.5532467"><ele>1463.0</ele><time>2026-04-25T11:30:14.701Z</time></trkpt><trkpt lat="45.3851767" lon="7.5531533"><ele>1463.0</ele><time>2026-04-25T11:30:15.701Z</time></trkpt><trkpt lat="45.385125" lon="7.55308"><ele>1463.0</ele><time>2026-04-25T11:30:16.701Z</time></trkpt><trkpt lat="45.3850783" lon="7.55301"><ele>1463.0</ele><time>2026-04-25T11:30:17.701Z</time></trkpt><trkpt lat="45.3850383" lon="7.5529183"><ele>1463.0</ele><time>2026-04-25T11:30:18.701Z</time></trkpt><trkpt lat="45.385005" lon="7.5528317"><ele>1463.0</ele><time>2026-04-25T11:30:19.701Z</time></trkpt><trkpt lat="45.3849483" lon="7.5527083"><ele>1463.0</ele><time>2026-04-25T11:30:21.701Z</time></trkpt><trkpt lat="45.38496" lon="7.5525983"><ele>1463.0</ele><time>2026-04-25T11:30:24.702Z</time></trkpt><trkpt lat="45.385015" lon="7.5526517"><ele>1463.0</ele><time>2026-04-25T11:30:26.701Z</time></trkpt><trkpt lat="45.38506" lon="7.5527567"><ele>1463.0</ele><time>2026-04-25T11:30:28.701Z</time></trkpt><trkpt lat="45.3851333" lon="7.552865"><ele>1463.0</ele><time>2026-04-25T11:30:30.701Z</time></trkpt><trkpt lat="45.385225" lon="7.5529517"><ele>1463.0</ele><time>2026-04-25T11:30:32.701Z</time></trkpt><trkpt lat="45.38533" lon="7.5530183"><ele>1463.0</ele><time>2026-04-25T11:30:34.701Z</time></trkpt><trkpt lat="45.38545" lon="7.5530733"><ele>1463.0</ele><time>2026-04-25T11:30:36.701Z</time></trkpt><trkpt lat="45.3855783" lon="7.553135"><ele>1463.0</ele><time>2026-04-25T11:30:38.701Z</time></trkpt><trkpt lat="45.385655" lon="7.553155"><ele>1463.0</ele><time>2026-04-25T11:30:39.702Z</time></trkpt><trkpt lat="45.385725" lon="7.5531817"><ele>1463.0</ele><time>2026-04-25T11:30:40.701Z</time></trkpt><trkpt lat="45.3858367" lon="7.5532517"><ele>1467.857142857143</ele><time>2026-04-25T11:30:42.701Z</time></trkpt><trkpt lat="45.3858983" lon="7.5532933"><ele>1472.7142857142858</ele><time>2026-04-25T11:30:43.701Z</time></trkpt><trkpt lat="45.3859667" lon="7.55335"><ele>1477.5714285714284</ele><time>2026-04-25T11:30:44.701Z</time></trkpt><trkpt lat="45.3860233" lon="7.553395"><ele>1482.4285714285716</ele><time>2026-04-25T11:30:45.701Z</time></trkpt><trkpt lat="45.3860883" lon="7.5534283"><ele>1487.2857142857142</ele><time>2026-04-25T11:30:46.701Z</time></trkpt><trkpt lat="45.38615" lon="7.553465"><ele>1492.142857142857</ele><time>2026-04-25T11:30:47.701Z</time></trkpt><trkpt lat="45.3862067" lon="7.5535117"><ele>1497.0</ele><time>2026-04-25T11:30:48.701Z</time></trkpt><trkpt lat="45.38626" lon="7.55356"><ele>1501.1999999999998</ele><time>2026-04-25T11:30:49.701Z</time></trkpt><trkpt lat="45.3863483" lon="7.55363"><ele>1505.4</ele><time>2026-04-25T11:30:51.702Z</time></trkpt><trkpt lat="45.3863933" lon="7.5537417"><ele>1509.6</ele><time>2026-04-25T11:30:53.701Z</time></trkpt><trkpt lat="45.38642" lon="7.5539167"><ele>1513.8000000000002</ele><time>2026-04-25T11:30:55.701Z</time></trkpt><trkpt lat="45.3864667" lon="7.5540783"><ele>1518.0</ele><time>2026-04-25T11:30:57.701Z</time></trkpt><trkpt lat="45.3865017" lon="7.5542383"><ele>1518.0</ele><time>2026-04-25T11:30:59.701Z</time></trkpt><trkpt lat="45.38653" lon="7.5543267"><ele>1518.0</ele><time>2026-04-25T11:31:00.701Z</time></trkpt><trkpt lat="45.3865633" lon="7.5544167"><ele>1518.0</ele><time>2026-04-25T11:31:01.701Z</time></trkpt><trkpt lat="45.3865967" lon="7.5545033"><ele>1518.0</ele><time>2026-04-25T11:31:02.701Z</time></trkpt><trkpt lat="45.3867183" lon="7.5546917"><ele>1518.0</ele><time>2026-04-25T11:31:05.701Z</time></trkpt><trkpt lat="45.3867983" lon="7.554755"><ele>1515.0</ele><time>2026-04-25T11:31:06.701Z</time></trkpt><trkpt lat="45.3868883" lon="7.55482"><ele>1512.0</ele><time>2026-04-25T11:31:07.701Z</time></trkpt><trkpt lat="45.3869683" lon="7.554905"><ele>1509.0</ele><time>2026-04-25T11:31:08.701Z</time></trkpt><trkpt lat="45.38703" lon="7.5549867"><ele>1506.0</ele><time>2026-04-25T11:31:09.701Z</time></trkpt><trkpt lat="45.387085" lon="7.55507"><ele>1503.0</ele><time>2026-04-25T11:31:10.701Z</time></trkpt><trkpt lat="45.3871333" lon="7.5551517"><ele>1500.0</ele><time>2026-04-25T11:31:11.701Z</time></trkpt><trkpt lat="45.3871717" lon="7.5552317"><ele>1504.4</ele><time>2026-04-25T11:31:12.701Z</time></trkpt><trkpt lat="45.3872083" lon="7.55535"><ele>1508.8</ele><time>2026-04-25T11:31:14.701Z</time></trkpt><trkpt lat="45.3873017" lon="7.55544"><ele>1513.1999999999998</ele><time>2026-04-25T11:31:16.701Z</time></trkpt><trkpt lat="45.3873583" lon="7.5554917"><ele>1517.6</ele><time>2026-04-25T11:31:17.701Z</time></trkpt><trkpt lat="45.3874417" lon="7.5556183"><ele>1522.0</ele><time>2026-04-25T11:31:19.701Z</time></trkpt><trkpt lat="45.387475" lon="7.55571"><ele>1522.0</ele><time>2026-04-25T11:31:20.701Z</time></trkpt><trkpt lat="45.3875083" lon="7.555815"><ele>1522.0</ele><time>2026-04-25T11:31:21.701Z</time></trkpt><trkpt lat="45.3875417" lon="7.5559233"><ele>1522.0</ele><time>2026-04-25T11:31:22.701Z</time></trkpt><trkpt lat="45.38756" lon="7.556035"><ele>1522.0</ele><time>2026-04-25T11:31:23.701Z</time></trkpt><trkpt lat="45.3875817" lon="7.55614"><ele>1522.0</ele><time>2026-04-25T11:31:24.701Z</time></trkpt><trkpt lat="45.38762" lon="7.5562567"><ele>1522.0</ele><time>2026-04-25T11:31:25.701Z</time></trkpt><trkpt lat="45.387685" lon="7.5563717"><ele>1525.75</ele><time>2026-04-25T11:31:26.701Z</time></trkpt><trkpt lat="45.387765" lon="7.5564833"><ele>1529.5</ele><time>2026-04-25T11:31:27.701Z</time></trkpt><trkpt lat="45.387855" lon="7.5566033"><ele>1533.25</ele><time>2026-04-25T11:31:28.701Z</time></trkpt><trkpt lat="45.3879483" lon="7.5567217"><ele>1537.0</ele><time>2026-04-25T11:31:29.701Z</time></trkpt><trkpt lat="45.38804" lon="7.55685"><ele>1537.0</ele><time>2026-04-25T11:31:30.701Z</time></trkpt><trkpt lat="45.38812" lon="7.556965"><ele>1537.0</ele><time>2026-04-25T11:31:31.701Z</time></trkpt><trkpt lat="45.3881833" lon="7.5570667"><ele>1537.0</ele><time>2026-04-25T11:31:32.701Z</time></trkpt><trkpt lat="45.3882517" lon="7.557135"><ele>1537.0</ele><time>2026-04-25T11:31:33.702Z</time></trkpt><trkpt lat="45.3883933" lon="7.5572083"><ele>1537.0</ele><time>2026-04-25T11:31:35.701Z</time></trkpt><trkpt lat="45.3884833" lon="7.557235"><ele>1536.0000000000002</ele><time>2026-04-25T11:31:36.701Z</time></trkpt><trkpt lat="45.3885683" lon="7.5572617"><ele>1535.0</ele><time>2026-04-25T11:31:37.702Z</time></trkpt><trkpt lat="45.3886467" lon="7.5572933"><ele>1534.0</ele><time>2026-04-25T11:31:38.701Z</time></trkpt><trkpt lat="45.38873" lon="7.5573283"><ele>1533.0</ele><time>2026-04-25T11:31:39.701Z</time></trkpt><trkpt lat="45.38882" lon="7.5573583"><ele>1532.0</ele><time>2026-04-25T11:31:40.701Z</time></trkpt><trkpt lat="45.3889133" lon="7.5573733"><ele>1531.0</ele><time>2026-04-25T11:31:41.701Z</time></trkpt><trkpt lat="45.38899" lon="7.5573917"><ele>1531.0</ele><time>2026-04-25T11:31:42.701Z</time></trkpt><trkpt lat="45.3890617" lon="7.5574283"><ele>1531.0</ele><time>2026-04-25T11:31:43.701Z</time></trkpt><trkpt lat="45.3891367" lon="7.55746"><ele>1531.0</ele><time>2026-04-25T11:31:44.701Z</time></trkpt><trkpt lat="45.3892133" lon="7.5574667"><ele>1531.0</ele><time>2026-04-25T11:31:45.701Z</time></trkpt><trkpt lat="45.3892867" lon="7.5574567"><ele>1531.0</ele><time>2026-04-25T11:31:46.701Z</time></trkpt><trkpt lat="45.38938" lon="7.5573767"><ele>1531.0</ele><time>2026-04-25T11:31:48.701Z</time></trkpt><trkpt lat="45.3894067" lon="7.55725"><ele>1531.0</ele><time>2026-04-25T11:31:50.701Z</time></trkpt><trkpt lat="45.3894067" lon="7.5571417"><ele>1531.0</ele><time>2026-04-25T11:31:52.701Z</time></trkpt><trkpt lat="45.38941" lon="7.5570217"><ele>1531.0</ele><time>2026-04-25T11:31:55.701Z</time></trkpt><trkpt lat="45.38948" lon="7.556965"><ele>1531.0</ele><time>2026-04-25T11:31:59.701Z</time></trkpt><trkpt lat="45.3895083" lon="7.556875"><ele>1531.0</ele><time>2026-04-25T11:32:02.701Z</time></trkpt><trkpt lat="45.3894333" lon="7.55684"><ele>1531.0</ele><time>2026-04-25T11:32:05.702Z</time></trkpt><trkpt lat="45.3893783" lon="7.5569333"><ele>1542.0</ele><time>2026-04-25T11:32:08.701Z</time></trkpt></trkseg><trkseg><trkpt lat="45.389355" lon="7.5570333"><ele>1540.1666666666667</ele><time>2026-04-25T12:22:15.699Z</time></trkpt><trkpt lat="45.3893833" lon="7.5571467"><ele>1538.3333333333333</ele><time>2026-04-25T12:22:18.699Z</time></trkpt><trkpt lat="45.3893933" lon="7.5572467"><ele>1536.5</ele><time>2026-04-25T12:22:21.699Z</time></trkpt><trkpt lat="45.3893667" lon="7.557355"><ele>1534.6666666666665</ele><time>2026-04-25T12:22:36.699Z</time></trkpt><trkpt lat="45.389305" lon="7.5574367"><ele>1532.8333333333333</ele><time>2026-04-25T12:22:39.699Z</time></trkpt><trkpt lat="45.3892367" lon="7.5574517"><ele>1531.0</ele><time>2026-04-25T12:22:43.699Z</time></trkpt><trkpt lat="45.389155" lon="7.55743"><ele>1531.0</ele><time>2026-04-25T12:22:47.699Z</time></trkpt><trkpt lat="45.389065" lon="7.5573967"><ele>1531.0</ele><time>2026-04-25T12:22:50.699Z</time></trkpt><trkpt lat="45.3889733" lon="7.5573617"><ele>1531.0</ele><time>2026-04-25T12:22:52.7Z</time></trkpt><trkpt lat="45.388865" lon="7.5573433"><ele>1531.0</ele><time>2026-04-25T12:22:54.699Z</time></trkpt><trkpt lat="45.3887783" lon="7.557315"><ele>1531.0</ele><time>2026-04-25T12:22:56.699Z</time></trkpt><trkpt lat="45.3886833" lon="7.5572783"><ele>1527.1999999999998</ele><time>2026-04-25T12:22:58.699Z</time></trkpt><trkpt lat="45.388585" lon="7.5572417"><ele>1523.3999999999999</ele><time>2026-04-25T12:23:00.699Z</time></trkpt><trkpt lat="45.3884933" lon="7.5572083"><ele>1519.6</ele><time>2026-04-25T12:23:02.699Z</time></trkpt><trkpt lat="45.3884067" lon="7.5571817"><ele>1515.8</ele><time>2026-04-25T12:23:04.699Z</time></trkpt><trkpt lat="45.3883233" lon="7.5571467"><ele>1512.0</ele><time>2026-04-25T12:23:06.699Z</time></trkpt><trkpt lat="45.3882317" lon="7.5571"><ele>1510.5</ele><time>2026-04-25T12:23:08.699Z</time></trkpt><trkpt lat="45.38814" lon="7.5569867"><ele>1509.0</ele><time>2026-04-25T12:23:10.699Z</time></trkpt><trkpt lat="45.3880883" lon="7.5569017"><ele>1507.5</ele><time>2026-04-25T12:23:11.699Z</time></trkpt><trkpt lat="45.388035" lon="7.55681"><ele>1506.0</ele><time>2026-04-25T12:23:12.699Z</time></trkpt><trkpt lat="45.3879833" lon="7.5567317"><ele>1504.5</ele><time>2026-04-25T12:23:13.699Z</time></trkpt><trkpt lat="45.38793" lon="7.5566667"><ele>1503.0</ele><time>2026-04-25T12:23:14.699Z</time></trkpt><trkpt lat="45.3878767" lon="7.5565883"><ele>1503.0</ele><time>2026-04-25T12:23:15.699Z</time></trkpt><trkpt lat="45.3878233" lon="7.556515"><ele>1503.0</ele><time>2026-04-25T12:23:16.699Z</time></trkpt><trkpt lat="45.38777" lon="7.5564433"><ele>1503.0</ele><time>2026-04-25T12:23:17.699Z</time></trkpt><trkpt lat="45.387715" lon="7.55636"><ele>1503.0</ele><time>2026-04-25T12:23:18.699Z</time></trkpt><trkpt lat="45.3876683" lon="7.556285"><ele>1503.0</ele><time>2026-04-25T12:23:19.7Z</time></trkpt><trkpt lat="45.3876217" lon="7.5562133"><ele>1503.0</ele><time>2026-04-25T12:23:20.699Z</time></trkpt><trkpt lat="45.3875833" lon="7.5561267"><ele>1503.0</ele><time>2026-04-25T12:23:21.699Z</time></trkpt><trkpt lat="45.3875483" lon="7.55603"><ele>1506.1666666666667</ele><time>2026-04-25T12:23:22.699Z</time></trkpt><trkpt lat="45.387525" lon="7.5559133"><ele>1509.3333333333333</ele><time>2026-04-25T12:23:23.699Z</time></trkpt><trkpt lat="45.3875067" lon="7.555815"><ele>1512.5</ele><time>2026-04-25T12:23:24.699Z</time></trkpt><trkpt lat="45.387485" lon="7.5557183"><ele>1515.6666666666665</ele><time>2026-04-25T12:23:25.699Z</time></trkpt><trkpt lat="45.3874217" lon="7.5555633"><ele>1518.8333333333333</ele><time>2026-04-25T12:23:27.699Z</time></trkpt><trkpt lat="45.3873817" lon="7.5554833"><ele>1522.0</ele><time>2026-04-25T12:23:28.699Z</time></trkpt><trkpt lat="45.3873117" lon="7.5554"><ele>1524.8333333333333</ele><time>2026-04-25T12:23:30.699Z</time></trkpt><trkpt lat="45.387245" lon="7.5553583"><ele>1527.6666666666665</ele><time>2026-04-25T12:23:32.699Z</time></trkpt><trkpt lat="45.3872" lon="7.5552817"><ele>1530.5</ele><time>2026-04-25T12:23:34.699Z</time></trkpt><trkpt lat="45.3871667" lon="7.5551767"><ele>1533.3333333333333</ele><time>2026-04-25T12:23:36.699Z</time></trkpt><trkpt lat="45.387125" lon="7.5550833"><ele>1536.1666666666667</ele><time>2026-04-25T12:23:38.699Z</time></trkpt><trkpt lat="45.387065" lon="7.555015"><ele>1539.0</ele><time>2026-04-25T12:23:40.699Z</time></trkpt><trkpt lat="45.3869783" lon="7.5548933"><ele>1534.8000000000002</ele><time>2026-04-25T12:23:42.699Z</time></trkpt><trkpt lat="45.3869317" lon="7.5548317"><ele>1530.6000000000001</ele><time>2026-04-25T12:23:43.699Z</time></trkpt><trkpt lat="45.3868433" lon="7.5547367"><ele>1526.4</ele><time>2026-04-25T12:23:45.699Z</time></trkpt><trkpt lat="45.3867517" lon="7.5546717"><ele>1522.2</ele><time>2026-04-25T12:23:47.699Z</time></trkpt><trkpt lat="45.38667" lon="7.5546033"><ele>1518.0</ele><time>2026-04-25T12:23:49.7Z</time></trkpt><trkpt lat="45.3866017" lon="7.554485"><ele>1518.0</ele><time>2026-04-25T12:23:51.699Z</time></trkpt><trkpt lat="45.3865417" lon="7.554335"><ele>1518.0</ele><time>2026-04-25T12:23:53.699Z</time></trkpt><trkpt lat="45.3864833" lon="7.5541967"><ele>1518.0</ele><time>2026-04-25T12:23:55.699Z</time></trkpt><trkpt lat="45.38645" lon="7.5540533"><ele>1518.0</ele><time>2026-04-25T12:23:57.7Z</time></trkpt><trkpt lat="45.38642" lon="7.55391"><ele>1518.0</ele><time>2026-04-25T12:23:59.699Z</time></trkpt><trkpt lat="45.3863967" lon="7.5537567"><ele>1521.0</ele><time>2026-04-25T12:24:01.699Z</time></trkpt><trkpt lat="45.3863767" lon="7.55362"><ele>1524.0</ele><time>2026-04-25T12:24:03.699Z</time></trkpt><trkpt lat="45.3863167" lon="7.5535283"><ele>1527.0</ele><time>2026-04-25T12:24:05.699Z</time></trkpt><trkpt lat="45.3862233" lon="7.553455"><ele>1530.0</ele><time>2026-04-25T12:24:07.699Z</time></trkpt><trkpt lat="45.3861683" lon="7.55341"><ele>1533.0</ele><time>2026-04-25T12:24:08.699Z</time></trkpt><trkpt lat="45.3860533" lon="7.5533483"><ele>1525.8000000000002</ele><time>2026-04-25T12:24:10.699Z</time></trkpt><trkpt lat="45.3859333" lon="7.5532683"><ele>1518.6</ele><time>2026-04-25T12:24:12.699Z</time></trkpt><trkpt lat="45.385865" lon="7.5532167"><ele>1511.4</ele><time>2026-04-25T12:24:13.699Z</time></trkpt><trkpt lat="45.3858067" lon="7.5531733"><ele>1504.1999999999998</ele><time>2026-04-25T12:24:14.699Z</time></trkpt><trkpt lat="45.3857" lon="7.5531183"><ele>1497.0</ele><time>2026-04-25T12:24:16.699Z</time></trkpt><trkpt lat="45.3855933" lon="7.5530867"><ele>1496.5</ele><time>2026-04-25T12:24:18.699Z</time></trkpt><trkpt lat="45.3854867" lon="7.5530267"><ele>1496.0</ele><time>2026-04-25T12:24:20.699Z</time></trkpt><trkpt lat="45.38537" lon="7.55297"><ele>1495.5</ele><time>2026-04-25T12:24:22.699Z</time></trkpt><trkpt lat="45.3852583" lon="7.5529167"><ele>1495.0</ele><time>2026-04-25T12:24:24.699Z</time></trkpt><trkpt lat="45.3851583" lon="7.5528467"><ele>1495.0</ele><time>2026-04-25T12:24:26.699Z</time></trkpt><trkpt lat="45.38508" lon="7.5527567"><ele>1495.0</ele><time>2026-04-25T12:24:28.699Z</time></trkpt><trkpt lat="45.3850267" lon="7.55267"><ele>1495.0</ele><time>2026-04-25T12:24:30.699Z</time></trkpt><trkpt lat="45.3849617" lon="7.552595"><ele>1495.0</ele><time>2026-04-25T12:24:33.699Z</time></trkpt><trkpt lat="45.38494" lon="7.552685"><ele>1495.0</ele><time>2026-04-25T12:24:36.699Z</time></trkpt><trkpt lat="45.3849983" lon="7.5527933"><ele>1495.0</ele><time>2026-04-25T12:24:38.699Z</time></trkpt><trkpt lat="45.3850633" lon="7.5529333"><ele>1488.6</ele><time>2026-04-25T12:24:40.699Z</time></trkpt><trkpt lat="45.385125" lon="7.5530817"><ele>1482.2</ele><time>2026-04-25T12:24:42.699Z</time></trkpt><trkpt lat="45.3851683" lon="7.5531517"><ele>1475.8000000000002</ele><time>2026-04-25T12:24:43.699Z</time></trkpt><trkpt lat="45.3852183" lon="7.5532117"><ele>1469.4</ele><time>2026-04-25T12:24:44.699Z</time></trkpt><trkpt lat="45.3853283" lon="7.5533367"><ele>1463.0</ele><time>2026-04-25T12:24:46.699Z</time></trkpt><trkpt lat="45.385385" lon="7.5534"><ele>1463.0</ele><time>2026-04-25T12:24:47.699Z</time></trkpt><trkpt lat="45.3854367" lon="7.5534567"><ele>1463.0</ele><time>2026-04-25T12:24:48.699Z</time></trkpt><trkpt lat="45.3854933" lon="7.5535033"><ele>1463.0</ele><time>2026-04-25T12:24:49.699Z</time></trkpt><trkpt lat="45.3855517" lon="7.5535433"><ele>1463.0</ele><time>2026-04-25T12:24:50.699Z</time></trkpt><trkpt lat="45.3856533" lon="7.5536483"><ele>1463.0</ele><time>2026-04-25T12:24:52.699Z</time></trkpt><trkpt lat="45.38574" lon="7.5537817"><ele>1463.0</ele><time>2026-04-25T12:24:54.699Z</time></trkpt><trkpt lat="45.3857933" lon="7.5538433"><ele>1464.142857142857</ele><time>2026-04-25T12:24:55.699Z</time></trkpt><trkpt lat="45.38585" lon="7.5539117"><ele>1465.2857142857142</ele><time>2026-04-25T12:24:56.699Z</time></trkpt><trkpt lat="45.385905" lon="7.5539917"><ele>1466.4285714285716</ele><time>2026-04-25T12:24:57.699Z</time></trkpt><trkpt lat="45.3859433" lon="7.5540717"><ele>1467.5714285714284</ele><time>2026-04-25T12:24:58.699Z</time></trkpt><trkpt lat="45.3859667" lon="7.5541617"><ele>1468.7142857142858</ele><time>2026-04-25T12:24:59.699Z</time></trkpt><trkpt lat="45.3859783" lon="7.554255"><ele>1469.857142857143</ele><time>2026-04-25T12:25:00.699Z</time></trkpt><trkpt lat="45.3859833" lon="7.5543567"><ele>1471.0</ele><time>2026-04-25T12:25:01.699Z</time></trkpt><trkpt lat="45.3859883" lon="7.5545067"><ele>1468.0</ele><time>2026-04-25T12:25:03.699Z</time></trkpt><trkpt lat="45.3859767" lon="7.5546467"><ele>1465.0</ele><time>2026-04-25T12:25:05.699Z</time></trkpt><trkpt lat="45.3859417" lon="7.554785"><ele>1462.0</ele><time>2026-04-25T12:25:07.699Z</time></trkpt><trkpt lat="45.3859" lon="7.5549033"><ele>1459.0</ele><time>2026-04-25T12:25:09.699Z</time></trkpt><trkpt lat="45.3858683" lon="7.5549983"><ele>1456.0</ele><time>2026-04-25T12:25:11.699Z</time></trkpt><trkpt lat="45.3858717" lon="7.5550967"><ele>1453.0</ele><time>2026-04-25T12:25:13.699Z</time></trkpt><trkpt lat="45.3859233" lon="7.5552317"><ele>1453.0000000000002</ele><time>2026-04-25T12:25:15.699Z</time></trkpt><trkpt lat="45.385965" lon="7.5553033"><ele>1453.0</ele><time>2026-04-25T12:25:16.699Z</time></trkpt><trkpt lat="45.3860083" lon="7.55537"><ele>1453.0</ele><time>2026-04-25T12:25:17.699Z</time></trkpt><trkpt lat="45.386055" lon="7.5554417"><ele>1453.0</ele><time>2026-04-25T12:25:18.699Z</time></trkpt><trkpt lat="45.3861" lon="7.5555167"><ele>1453.0</ele><time>2026-04-25T12:25:19.699Z</time></trkpt><trkpt lat="45.3861433" lon="7.5555917"><ele>1453.0000000000002</ele><time>2026-04-25T12:25:20.699Z</time></trkpt><trkpt lat="45.38622" lon="7.5557083"><ele>1453.0</ele><time>2026-04-25T12:25:22.699Z</time></trkpt><trkpt lat="45.3862817" lon="7.55584"><ele>1454.6666666666665</ele><time>2026-04-25T12:25:24.699Z</time></trkpt><trkpt lat="45.3863467" lon="7.5559733"><ele>1456.3333333333333</ele><time>2026-04-25T12:25:26.699Z</time></trkpt><trkpt lat="45.38638" lon="7.556055"><ele>1458.0</ele><time>2026-04-25T12:25:27.699Z</time></trkpt><trkpt lat="45.3864067" lon="7.55614"><ele>1459.6666666666667</ele><time>2026-04-25T12:25:28.699Z</time></trkpt><trkpt lat="45.386445" lon="7.5562967"><ele>1461.3333333333335</ele><time>2026-04-25T12:25:30.699Z</time></trkpt><trkpt lat="45.3864583" lon="7.5563883"><ele>1463.0</ele><time>2026-04-25T12:25:31.699Z</time></trkpt><trkpt lat="45.386465" lon="7.5564817"><ele>1463.0</ele><time>2026-04-25T12:25:32.699Z</time></trkpt><trkpt lat="45.3864633" lon="7.556575"><ele>1463.0</ele><time>2026-04-25T12:25:33.699Z</time></trkpt><trkpt lat="45.38645" lon="7.5566633"><ele>1463.0</ele><time>2026-04-25T12:25:34.699Z</time></trkpt><trkpt lat="45.3864183" lon="7.5568367"><ele>1463.0</ele><time>2026-04-25T12:25:36.699Z</time></trkpt><trkpt lat="45.3863767" lon="7.5569933"><ele>1463.0</ele><time>2026-04-25T12:25:38.699Z</time></trkpt><trkpt lat="45.38631" lon="7.5571183"><ele>1454.6000000000001</ele><time>2026-04-25T12:25:40.699Z</time></trkpt><trkpt lat="45.3862417" lon="7.5572433"><ele>1446.2</ele><time>2026-04-25T12:25:42.699Z</time></trkpt><trkpt lat="45.38618" lon="7.55734"><ele>1437.8</ele><time>2026-04-25T12:25:44.699Z</time></trkpt><trkpt lat="45.3861167" lon="7.55743"><ele>1429.4</ele><time>2026-04-25T12:25:46.699Z</time></trkpt><trkpt lat="45.386055" lon="7.557515"><ele>1421.0</ele><time>2026-04-25T12:25:48.699Z</time></trkpt><trkpt lat="45.3859883" lon="7.5575967"><ele>1421.0</ele><time>2026-04-25T12:25:50.699Z</time></trkpt><trkpt lat="45.3859033" lon="7.5576867"><ele>1421.0</ele><time>2026-04-25T12:25:52.699Z</time></trkpt><trkpt lat="45.3858017" lon="7.5577633"><ele>1421.0</ele><time>2026-04-25T12:25:54.699Z</time></trkpt><trkpt lat="45.3856967" lon="7.557825"><ele>1421.0</ele><time>2026-04-25T12:25:56.699Z</time></trkpt><trkpt lat="45.3856083" lon="7.5579133"><ele>1421.0</ele><time>2026-04-25T12:25:58.699Z</time></trkpt><trkpt lat="45.3855433" lon="7.5580333"><ele>1421.6</ele><time>2026-04-25T12:26:00.699Z</time></trkpt><trkpt lat="45.3854933" lon="7.5581517"><ele>1422.1999999999998</ele><time>2026-04-25T12:26:02.699Z</time></trkpt><trkpt lat="45.38546" lon="7.558255"><ele>1422.8000000000002</ele><time>2026-04-25T12:26:04.699Z</time></trkpt><trkpt lat="45.3854283" lon="7.5583717"><ele>1423.4</ele><time>2026-04-25T12:26:06.699Z</time></trkpt><trkpt lat="45.38545" lon="7.55849"><ele>1424.0</ele><time>2026-04-25T12:26:08.699Z</time></trkpt><trkpt lat="45.3855317" lon="7.55863"><ele>1424.0</ele><time>2026-04-25T12:26:10.699Z</time></trkpt><trkpt lat="45.3855767" lon="7.558695"><ele>1424.0</ele><time>2026-04-25T12:26:11.699Z</time></trkpt><trkpt lat="45.3856183" lon="7.558765"><ele>1424.0</ele><time>2026-04-25T12:26:12.699Z</time></trkpt><trkpt lat="45.385685" lon="7.5589117"><ele>1424.0</ele><time>2026-04-25T12:26:14.699Z</time></trkpt><trkpt lat="45.385755" lon="7.5590467"><ele>1424.0</ele><time>2026-04-25T12:26:16.699Z</time></trkpt><trkpt lat="45.3858183" lon="7.559185"><ele>1420.8000000000002</ele><time>2026-04-25T12:26:18.7Z</time></trkpt><trkpt lat="45.3858417" lon="7.5593567"><ele>1417.6000000000001</ele><time>2026-04-25T12:26:20.699Z</time></trkpt><trkpt lat="45.3858467" lon="7.5594467"><ele>1414.4</ele><time>2026-04-25T12:26:21.699Z</time></trkpt><trkpt lat="45.3858517" lon="7.5595367"><ele>1411.2</ele><time>2026-04-25T12:26:22.699Z</time></trkpt><trkpt lat="45.3858467" lon="7.5597083"><ele>1408.0</ele><time>2026-04-25T12:26:24.699Z</time></trkpt><trkpt lat="45.3858117" lon="7.5598733"><ele>1405.142857142857</ele><time>2026-04-25T12:26:26.699Z</time></trkpt><trkpt lat="45.3857733" lon="7.5599533"><ele>1402.2857142857142</ele><time>2026-04-25T12:26:27.699Z</time></trkpt><trkpt lat="45.385725" lon="7.5600283"><ele>1399.4285714285716</ele><time>2026-04-25T12:26:28.699Z</time></trkpt><trkpt lat="45.3856733" lon="7.5600983"><ele>1396.5714285714284</ele><time>2026-04-25T12:26:29.699Z</time></trkpt><trkpt lat="45.3856233" lon="7.560155"><ele>1393.7142857142856</ele><time>2026-04-25T12:26:30.699Z</time></trkpt><trkpt lat="45.3855483" lon="7.560235"><ele>1390.857142857143</ele><time>2026-04-25T12:26:32.699Z</time></trkpt><trkpt lat="45.3854717" lon="7.5602283"><ele>1388.0</ele><time>2026-04-25T12:26:35.699Z</time></trkpt><trkpt lat="45.38548" lon="7.560115"><ele>1388.0</ele><time>2026-04-25T12:26:37.699Z</time></trkpt><trkpt lat="45.38551" lon="7.5599883"><ele>1388.0</ele><time>2026-04-25T12:26:39.699Z</time></trkpt><trkpt lat="45.3855267" lon="7.5598133"><ele>1388.0</ele><time>2026-04-25T12:26:41.699Z</time></trkpt><trkpt lat="45.3855217" lon="7.5597167"><ele>1388.0</ele><time>2026-04-25T12:26:42.699Z</time></trkpt><trkpt lat="45.385495" lon="7.5595483"><ele>1388.0</ele><time>2026-04-25T12:26:44.699Z</time></trkpt><trkpt lat="45.3854567" lon="7.5594667"><ele>1386.0</ele><time>2026-04-25T12:26:45.699Z</time></trkpt><trkpt lat="45.3854067" lon="7.559395"><ele>1384.0</ele><time>2026-04-25T12:26:46.699Z</time></trkpt><trkpt lat="45.385355" lon="7.55932"><ele>1382.0</ele><time>2026-04-25T12:26:47.699Z</time></trkpt><trkpt lat="45.385295" lon="7.5592467"><ele>1380.0</ele><time>2026-04-25T12:26:48.699Z</time></trkpt><trkpt lat="45.38523" lon="7.5591817"><ele>1378.0</ele><time>2026-04-25T12:26:49.699Z</time></trkpt><trkpt lat="45.385155" lon="7.5591183"><ele>1376.0</ele><time>2026-04-25T12:26:50.699Z</time></trkpt><trkpt lat="45.3850767" lon="7.5590583"><ele>1376.0</ele><time>2026-04-25T12:26:51.699Z</time></trkpt><trkpt lat="45.38501" lon="7.5590017"><ele>1376.0</ele><time>2026-04-25T12:26:52.699Z</time></trkpt><trkpt lat="45.3849533" lon="7.5589383"><ele>1376.0</ele><time>2026-04-25T12:26:53.699Z</time></trkpt><trkpt lat="45.384905" lon="7.55887"><ele>1376.0</ele><time>2026-04-25T12:26:54.699Z</time></trkpt><trkpt lat="45.3848217" lon="7.5587417"><ele>1376.0</ele><time>2026-04-25T12:26:56.699Z</time></trkpt><trkpt lat="45.384785" lon="7.558635"><ele>1376.0</ele><time>2026-04-25T12:26:58.699Z</time></trkpt><trkpt lat="45.38471" lon="7.55864"><ele>1376.0</ele><time>2026-04-25T12:27:01.699Z</time></trkpt><trkpt lat="45.384705" lon="7.5587367"><ele>1376.0</ele><time>2026-04-25T12:27:03.699Z</time></trkpt><trkpt lat="45.3847567" lon="7.558885"><ele>1376.0</ele><time>2026-04-25T12:27:05.699Z</time></trkpt><trkpt lat="45.384785" lon="7.558975"><ele>1376.0</ele><time>2026-04-25T12:27:06.699Z</time></trkpt><trkpt lat="45.3848083" lon="7.5590683"><ele>1376.0</ele><time>2026-04-25T12:27:07.699Z</time></trkpt><trkpt lat="45.3848367" lon="7.5591483"><ele>1376.0</ele><time>2026-04-25T12:27:08.699Z</time></trkpt><trkpt lat="45.3848617" lon="7.5592317"><ele>1376.0</ele><time>2026-04-25T12:27:09.699Z</time></trkpt><trkpt lat="45.3848633" lon="7.5594233"><ele>1376.0</ele><time>2026-04-25T12:27:11.699Z</time></trkpt><trkpt lat="45.38484" lon="7.559535"><ele>1376.0</ele><time>2026-04-25T12:27:12.699Z</time></trkpt><trkpt lat="45.3848117" lon="7.55964"><ele>1376.0</ele><time>2026-04-25T12:27:13.699Z</time></trkpt><trkpt lat="45.3847833" lon="7.559735"><ele>1376.0</ele><time>2026-04-25T12:27:14.699Z</time></trkpt><trkpt lat="45.3847567" lon="7.5598217"><ele>1376.0</ele><time>2026-04-25T12:27:15.699Z</time></trkpt><trkpt lat="45.384705" lon="7.559975"><ele>1368.6666666666667</ele><time>2026-04-25T12:27:17.699Z</time></trkpt><trkpt lat="45.3846567" lon="7.560125"><ele>1361.3333333333335</ele><time>2026-04-25T12:27:19.699Z</time></trkpt><trkpt lat="45.3846333" lon="7.5602117"><ele>1354.0</ele><time>2026-04-25T12:27:20.699Z</time></trkpt><trkpt lat="45.38461" lon="7.5603033"><ele>1346.6666666666667</ele><time>2026-04-25T12:27:21.699Z</time></trkpt><trkpt lat="45.3845917" lon="7.560395"><ele>1339.3333333333333</ele><time>2026-04-25T12:27:22.699Z</time></trkpt><trkpt lat="45.3845717" lon="7.560495"><ele>1332.0</ele><time>2026-04-25T12:27:23.699Z</time></trkpt><trkpt lat="45.384535" lon="7.5606033"><ele>1332.0</ele><time>2026-04-25T12:27:24.699Z</time></trkpt><trkpt lat="45.38449" lon="7.5607083"><ele>1332.0</ele><time>2026-04-25T12:27:25.699Z</time></trkpt><trkpt lat="45.38444" lon="7.5608083"><ele>1332.0</ele><time>2026-04-25T12:27:26.699Z</time></trkpt><trkpt lat="45.38439" lon="7.5608967"><ele>1332.0</ele><time>2026-04-25T12:27:27.699Z</time></trkpt><trkpt lat="45.38434" lon="7.5609883"><ele>1332.0</ele><time>2026-04-25T12:27:28.699Z</time></trkpt><trkpt lat="45.3842917" lon="7.5610817"><ele>1332.0</ele><time>2026-04-25T12:27:29.699Z</time></trkpt><trkpt lat="45.3842367" lon="7.5611667"><ele>1331.857142857143</ele><time>2026-04-25T12:27:30.699Z</time></trkpt><trkpt lat="45.38419" lon="7.56125"><ele>1331.7142857142856</ele><time>2026-04-25T12:27:31.699Z</time></trkpt><trkpt lat="45.3841367" lon="7.5613117"><ele>1331.5714285714284</ele><time>2026-04-25T12:27:32.699Z</time></trkpt><trkpt lat="45.3840767" lon="7.56136"><ele>1331.4285714285716</ele><time>2026-04-25T12:27:33.699Z</time></trkpt><trkpt lat="45.3840117" lon="7.5613983"><ele>1331.2857142857142</ele><time>2026-04-25T12:27:34.699Z</time></trkpt><trkpt lat="45.38395" lon="7.56144"><ele>1331.142857142857</ele><time>2026-04-25T12:27:35.699Z</time></trkpt><trkpt lat="45.3838867" lon="7.561475"><ele>1331.0</ele><time>2026-04-25T12:27:36.699Z</time></trkpt><trkpt lat="45.38382" lon="7.561515"><ele>1328.6666666666667</ele><time>2026-04-25T12:27:37.699Z</time></trkpt><trkpt lat="45.38376" lon="7.5615483"><ele>1326.3333333333335</ele><time>2026-04-25T12:27:38.699Z</time></trkpt><trkpt lat="45.3836633" lon="7.5616267"><ele>1324.0</ele><time>2026-04-25T12:27:40.699Z</time></trkpt><trkpt lat="45.38364" lon="7.5617433"><ele>1321.6666666666667</ele><time>2026-04-25T12:27:42.699Z</time></trkpt><trkpt lat="45.3836533" lon="7.5618533"><ele>1319.3333333333333</ele><time>2026-04-25T12:27:44.699Z</time></trkpt><trkpt lat="45.3836783" lon="7.561955"><ele>1317.0</ele><time>2026-04-25T12:27:46.699Z</time></trkpt><trkpt lat="45.3837417" lon="7.5620367"><ele>1316.0</ele><time>2026-04-25T12:27:48.699Z</time></trkpt><trkpt lat="45.3838333" lon="7.5621"><ele>1315.0</ele><time>2026-04-25T12:27:50.699Z</time></trkpt><trkpt lat="45.3839533" lon="7.56216"><ele>1314.0</ele><time>2026-04-25T12:27:52.699Z</time></trkpt><trkpt lat="45.3840133" lon="7.5621983"><ele>1313.0</ele><time>2026-04-25T12:27:53.699Z</time></trkpt><trkpt lat="45.38408" lon="7.5622417"><ele>1312.0</ele><time>2026-04-25T12:27:54.699Z</time></trkpt><trkpt lat="45.38414" lon="7.562275"><ele>1311.0</ele><time>2026-04-25T12:27:55.699Z</time></trkpt><trkpt lat="45.3842467" lon="7.5623433"><ele>1311.0</ele><time>2026-04-25T12:27:57.7Z</time></trkpt><trkpt lat="45.3843633" lon="7.5624133"><ele>1311.0</ele><time>2026-04-25T12:27:59.699Z</time></trkpt><trkpt lat="45.38443" lon="7.5624533"><ele>1311.0</ele><time>2026-04-25T12:28:00.699Z</time></trkpt><trkpt lat="45.384495" lon="7.5624917"><ele>1311.0</ele><time>2026-04-25T12:28:01.699Z</time></trkpt><trkpt lat="45.38456" lon="7.56253"><ele>1311.0</ele><time>2026-04-25T12:28:02.699Z</time></trkpt><trkpt lat="45.3846233" lon="7.5625717"><ele>1311.0</ele><time>2026-04-25T12:28:03.699Z</time></trkpt><trkpt lat="45.3847383" lon="7.5625933"><ele>1311.6</ele><time>2026-04-25T12:28:05.699Z</time></trkpt><trkpt lat="45.3848383" lon="7.5626067"><ele>1312.1999999999998</ele><time>2026-04-25T12:28:07.699Z</time></trkpt><trkpt lat="45.3849233" lon="7.5625933"><ele>1312.8000000000002</ele><time>2026-04-25T12:28:09.699Z</time></trkpt><trkpt lat="45.3849733" lon="7.5626567"><ele>1313.4</ele><time>2026-04-25T12:28:12.699Z</time></trkpt><trkpt lat="45.3848817" lon="7.5627017"><ele>1314.0</ele><time>2026-04-25T12:28:16.699Z</time></trkpt><trkpt lat="45.3847683" lon="7.5627267"><ele>1314.0</ele><time>2026-04-25T12:28:18.699Z</time></trkpt><trkpt lat="45.3846983" lon="7.562755"><ele>1314.0</ele><time>2026-04-25T12:28:19.699Z</time></trkpt><trkpt lat="45.3846233" lon="7.5627833"><ele>1314.0</ele><time>2026-04-25T12:28:20.699Z</time></trkpt><trkpt lat="45.3845333" lon="7.5628167"><ele>1314.0</ele><time>2026-04-25T12:28:21.699Z</time></trkpt><trkpt lat="45.3844367" lon="7.5628417"><ele>1314.0</ele><time>2026-04-25T12:28:22.699Z</time></trkpt><trkpt lat="45.3843417" lon="7.5628733"><ele>1314.0</ele><time>2026-04-25T12:28:23.699Z</time></trkpt><trkpt lat="45.384245" lon="7.5628917"><ele>1309.5</ele><time>2026-04-25T12:28:24.699Z</time></trkpt><trkpt lat="45.38416" lon="7.56291"><ele>1305.0</ele><time>2026-04-25T12:28:25.699Z</time></trkpt><trkpt lat="45.3840767" lon="7.562915"><ele>1300.5</ele><time>2026-04-25T12:28:26.699Z</time></trkpt><trkpt lat="45.3839933" lon="7.562925"><ele>1296.0</ele><time>2026-04-25T12:28:27.699Z</time></trkpt><trkpt lat="45.383915" lon="7.562965"><ele>1291.5</ele><time>2026-04-25T12:28:28.699Z</time></trkpt><trkpt lat="45.383825" lon="7.56303"><ele>1287.0</ele><time>2026-04-25T12:28:29.699Z</time></trkpt><trkpt lat="45.3837483" lon="7.5631017"><ele>1287.0</ele><time>2026-04-25T12:28:30.699Z</time></trkpt><trkpt lat="45.383675" lon="7.5631667"><ele>1287.0</ele><time>2026-04-25T12:28:31.699Z</time></trkpt><trkpt lat="45.3836" lon="7.563235"><ele>1287.0</ele><time>2026-04-25T12:28:32.699Z</time></trkpt><trkpt lat="45.383535" lon="7.5632933"><ele>1287.0</ele><time>2026-04-25T12:28:33.699Z</time></trkpt><trkpt lat="45.38347" lon="7.5633433"><ele>1287.0</ele><time>2026-04-25T12:28:34.699Z</time></trkpt><trkpt lat="45.38341" lon="7.5633967"><ele>1287.0</ele><time>2026-04-25T12:28:35.699Z</time></trkpt><trkpt lat="45.3832983" lon="7.5634583"><ele>1287.0</ele><time>2026-04-25T12:28:37.699Z</time></trkpt><trkpt lat="45.3832083" lon="7.5634867"><ele>1287.0</ele><time>2026-04-25T12:28:39.699Z</time></trkpt><trkpt lat="45.383175" lon="7.5635917"><ele>1287.0</ele><time>2026-04-25T12:28:43.699Z</time></trkpt><trkpt lat="45.3832267" lon="7.5636467"><ele>1287.0</ele><time>2026-04-25T12:28:45.699Z</time></trkpt><trkpt lat="45.3833233" lon="7.5636633"><ele>1287.0</ele><time>2026-04-25T12:28:47.699Z</time></trkpt><trkpt lat="45.3834" lon="7.5636733"><ele>1287.0</ele><time>2026-04-25T12:28:48.699Z</time></trkpt><trkpt lat="45.3834833" lon="7.5636833"><ele>1287.0</ele><time>2026-04-25T12:28:49.699Z</time></trkpt><trkpt lat="45.3835733" lon="7.5636767"><ele>1287.0</ele><time>2026-04-25T12:28:50.699Z</time></trkpt><trkpt lat="45.3836617" lon="7.56366"><ele>1287.0</ele><time>2026-04-25T12:28:51.699Z</time></trkpt><trkpt lat="45.3837417" lon="7.56365"><ele>1287.0</ele><time>2026-04-25T12:28:52.699Z</time></trkpt><trkpt lat="45.3838233" lon="7.5636517"><ele>1287.0</ele><time>2026-04-25T12:28:53.699Z</time></trkpt><trkpt lat="45.3839117" lon="7.5636533"><ele>1287.0</ele><time>2026-04-25T12:28:54.699Z</time></trkpt><trkpt lat="45.3839933" lon="7.5636633"><ele>1286.0</ele><time>2026-04-25T12:28:55.699Z</time></trkpt><trkpt lat="45.3840667" lon="7.563675"><ele>1285.0</ele><time>2026-04-25T12:28:56.699Z</time></trkpt><trkpt lat="45.3841417" lon="7.563695"><ele>1284.0</ele><time>2026-04-25T12:28:57.699Z</time></trkpt><trkpt lat="45.3842117" lon="7.5637333"><ele>1283.0</ele><time>2026-04-25T12:28:58.699Z</time></trkpt><trkpt lat="45.3842783" lon="7.5637667"><ele>1282.0</ele><time>2026-04-25T12:28:59.699Z</time></trkpt><trkpt lat="45.384345" lon="7.5638067"><ele>1281.0</ele><time>2026-04-25T12:29:00.699Z</time></trkpt><trkpt lat="45.3844083" lon="7.5638267"><ele>1280.0</ele><time>2026-04-25T12:29:01.699Z</time></trkpt><trkpt lat="45.38448" lon="7.563835"><ele>1274.6666666666667</ele><time>2026-04-25T12:29:02.699Z</time></trkpt><trkpt lat="45.384555" lon="7.5638217"><ele>1269.3333333333335</ele><time>2026-04-25T12:29:03.699Z</time></trkpt><trkpt lat="45.3846217" lon="7.5638067"><ele>1264.0</ele><time>2026-04-25T12:29:04.699Z</time></trkpt><trkpt lat="45.384735" lon="7.5637567"><ele>1258.6666666666667</ele><time>2026-04-25T12:29:06.699Z</time></trkpt><trkpt lat="45.3848017" lon="7.5637033"><ele>1253.3333333333333</ele><time>2026-04-25T12:29:08.699Z</time></trkpt><trkpt lat="45.38487" lon="7.5637"><ele>1248.0</ele><time>2026-04-25T12:29:10.699Z</time></trkpt><trkpt lat="45.3848767" lon="7.56379"><ele>1248.0</ele><time>2026-04-25T12:29:13.699Z</time></trkpt><trkpt lat="45.3848" lon="7.5638567"><ele>1248.0</ele><time>2026-04-25T12:29:15.699Z</time></trkpt><trkpt lat="45.3847083" lon="7.563955"><ele>1248.0</ele><time>2026-04-25T12:29:17.699Z</time></trkpt><trkpt lat="45.384615" lon="7.564045"><ele>1248.0</ele><time>2026-04-25T12:29:19.699Z</time></trkpt><trkpt lat="45.3845083" lon="7.5640967"><ele>1248.0</ele><time>2026-04-25T12:29:21.699Z</time></trkpt><trkpt lat="45.3844017" lon="7.56412"><ele>1248.0</ele><time>2026-04-25T12:29:23.699Z</time></trkpt><trkpt lat="45.384285" lon="7.5641633"><ele>1248.0</ele><time>2026-04-25T12:29:25.699Z</time></trkpt><trkpt lat="45.3841767" lon="7.5642133"><ele>1248.0</ele><time>2026-04-25T12:29:27.699Z</time></trkpt><trkpt lat="45.3840717" lon="7.5642967"><ele>1248.0</ele><time>2026-04-25T12:29:29.699Z</time></trkpt><trkpt lat="45.384015" lon="7.5643533"><ele>1248.0</ele><time>2026-04-25T12:29:30.699Z</time></trkpt><trkpt lat="45.3839433" lon="7.5644183"><ele>1248.0</ele><time>2026-04-25T12:29:31.699Z</time></trkpt><trkpt lat="45.3838667" lon="7.56448"><ele>1248.0</ele><time>2026-04-25T12:29:32.699Z</time></trkpt><trkpt lat="45.3837933" lon="7.564545"><ele>1248.0</ele><time>2026-04-25T12:29:33.699Z</time></trkpt><trkpt lat="45.3837183" lon="7.564615"><ele>1248.0</ele><time>2026-04-25T12:29:34.699Z</time></trkpt><trkpt lat="45.38364" lon="7.564685"><ele>1248.0</ele><time>2026-04-25T12:29:35.699Z</time></trkpt><trkpt lat="45.3835617" lon="7.5647617"><ele>1245.8333333333333</ele><time>2026-04-25T12:29:36.699Z</time></trkpt><trkpt lat="45.3835" lon="7.5648383"><ele>1243.6666666666667</ele><time>2026-04-25T12:29:37.7Z</time></trkpt><trkpt lat="45.3834367" lon="7.5649233"><ele>1241.5</ele><time>2026-04-25T12:29:38.699Z</time></trkpt><trkpt lat="45.3833833" lon="7.56501"><ele>1239.3333333333335</ele><time>2026-04-25T12:29:39.699Z</time></trkpt><trkpt lat="45.38334" lon="7.5650867"><ele>1237.1666666666667</ele><time>2026-04-25T12:29:40.699Z</time></trkpt><trkpt lat="45.3833017" lon="7.565175"><ele>1235.0</ele><time>2026-04-25T12:29:41.699Z</time></trkpt><trkpt lat="45.38327" lon="7.5652633"><ele>1234.9999999999998</ele><time>2026-04-25T12:29:42.699Z</time></trkpt><trkpt lat="45.3832383" lon="7.5653517"><ele>1235.0</ele><time>2026-04-25T12:29:43.699Z</time></trkpt><trkpt lat="45.383205" lon="7.56545"><ele>1235.0</ele><time>2026-04-25T12:29:44.699Z</time></trkpt><trkpt lat="45.3831583" lon="7.56554"><ele>1235.0</ele><time>2026-04-25T12:29:45.699Z</time></trkpt><trkpt lat="45.38311" lon="7.565625"><ele>1235.0</ele><time>2026-04-25T12:29:46.699Z</time></trkpt><trkpt lat="45.3830633" lon="7.5656933"><ele>1234.9999999999998</ele><time>2026-04-25T12:29:47.699Z</time></trkpt><trkpt lat="45.38301" lon="7.565755"><ele>1235.0</ele><time>2026-04-25T12:29:48.699Z</time></trkpt><trkpt lat="45.382955" lon="7.56581"><ele>1231.8</ele><time>2026-04-25T12:29:49.699Z</time></trkpt><trkpt lat="45.3828933" lon="7.56586"><ele>1228.6</ele><time>2026-04-25T12:29:50.7Z</time></trkpt><trkpt lat="45.3828233" lon="7.5659167"><ele>1225.4</ele><time>2026-04-25T12:29:51.699Z</time></trkpt><trkpt lat="45.3827333" lon="7.56596"><ele>1222.2</ele><time>2026-04-25T12:29:52.699Z</time></trkpt><trkpt lat="45.3826217" lon="7.566005"><ele>1219.0</ele><time>2026-04-25T12:29:53.699Z</time></trkpt><trkpt lat="45.3824817" lon="7.56603"><ele>1219.0</ele><time>2026-04-25T12:29:54.699Z</time></trkpt><trkpt lat="45.3823533" lon="7.5660517"><ele>1219.0</ele><time>2026-04-25T12:29:55.699Z</time></trkpt><trkpt lat="45.3822483" lon="7.5660633"><ele>1219.0</ele><time>2026-04-25T12:29:56.699Z</time></trkpt><trkpt lat="45.38215" lon="7.5660717"><ele>1219.0</ele><time>2026-04-25T12:29:57.699Z</time></trkpt><trkpt lat="45.3820633" lon="7.5660617"><ele>1219.0</ele><time>2026-04-25T12:29:58.699Z</time></trkpt><trkpt lat="45.38198" lon="7.5660383"><ele>1218.0</ele><time>2026-04-25T12:29:59.699Z</time></trkpt><trkpt lat="45.381915" lon="7.565995"><ele>1217.0</ele><time>2026-04-25T12:30:00.699Z</time></trkpt><trkpt lat="45.38184" lon="7.5659233"><ele>1216.0</ele><time>2026-04-25T12:30:01.699Z</time></trkpt><trkpt lat="45.3817567" lon="7.5658483"><ele>1215.0</ele><time>2026-04-25T12:30:02.699Z</time></trkpt><trkpt lat="45.3816467" lon="7.56576"><ele>1214.0</ele><time>2026-04-25T12:30:03.699Z</time></trkpt><trkpt lat="45.38153" lon="7.565685"><ele>1214.0</ele><time>2026-04-25T12:30:04.699Z</time></trkpt><trkpt lat="45.381425" lon="7.565635"><ele>1214.0</ele><time>2026-04-25T12:30:05.699Z</time></trkpt><trkpt lat="45.38133" lon="7.56559"><ele>1214.0</ele><time>2026-04-25T12:30:06.699Z</time></trkpt><trkpt lat="45.3812417" lon="7.5655217"><ele>1214.0</ele><time>2026-04-25T12:30:07.699Z</time></trkpt><trkpt lat="45.3811667" lon="7.5654633"><ele>1214.0</ele><time>2026-04-25T12:30:08.699Z</time></trkpt><trkpt lat="45.38109" lon="7.5654317"><ele>1212.0</ele><time>2026-04-25T12:30:09.699Z</time></trkpt><trkpt lat="45.3810167" lon="7.5654167"><ele>1210.0</ele><time>2026-04-25T12:30:10.699Z</time></trkpt><trkpt lat="45.3809417" lon="7.56543"><ele>1208.0</ele><time>2026-04-25T12:30:11.699Z</time></trkpt><trkpt lat="45.38087" lon="7.565485"><ele>1206.0</ele><time>2026-04-25T12:30:12.699Z</time></trkpt><trkpt lat="45.3808167" lon="7.565565"><ele>1204.0</ele><time>2026-04-25T12:30:13.699Z</time></trkpt><trkpt lat="45.3807817" lon="7.5656833"><ele>1202.0</ele><time>2026-04-25T12:30:14.699Z</time></trkpt><trkpt lat="45.3807683" lon="7.5658217"><ele>1202.0</ele><time>2026-04-25T12:30:15.699Z</time></trkpt><trkpt lat="45.3807667" lon="7.5659717"><ele>1202.0</ele><time>2026-04-25T12:30:16.699Z</time></trkpt><trkpt lat="45.380775" lon="7.566105"><ele>1202.0</ele><time>2026-04-25T12:30:17.699Z</time></trkpt><trkpt lat="45.380785" lon="7.5662267"><ele>1202.0</ele><time>2026-04-25T12:30:18.699Z</time></trkpt><trkpt lat="45.380795" lon="7.5663367"><ele>1202.0</ele><time>2026-04-25T12:30:19.699Z</time></trkpt><trkpt lat="45.3807833" lon="7.5664883"><ele>1200.3333333333335</ele><time>2026-04-25T12:30:21.699Z</time></trkpt><trkpt lat="45.3807817" lon="7.5665917"><ele>1198.6666666666667</ele><time>2026-04-25T12:30:23.699Z</time></trkpt><trkpt lat="45.380825" lon="7.56668"><ele>1197.0</ele><time>2026-04-25T12:30:26.699Z</time></trkpt><trkpt lat="45.3808817" lon="7.5666367"><ele>1195.3333333333333</ele><time>2026-04-25T12:30:28.699Z</time></trkpt><trkpt lat="45.380965" lon="7.5664817"><ele>1193.6666666666665</ele><time>2026-04-25T12:30:30.699Z</time></trkpt><trkpt lat="45.38102" lon="7.5664033"><ele>1192.0</ele><time>2026-04-25T12:30:31.699Z</time></trkpt><trkpt lat="45.38108" lon="7.566335"><ele>1192.0</ele><time>2026-04-25T12:30:32.699Z</time></trkpt><trkpt lat="45.3811383" lon="7.566275"><ele>1192.0</ele><time>2026-04-25T12:30:33.699Z</time></trkpt><trkpt lat="45.3812183" lon="7.5661967"><ele>1192.0</ele><time>2026-04-25T12:30:35.699Z</time></trkpt><trkpt lat="45.381295" lon="7.566195"><ele>1192.0</ele><time>2026-04-25T12:30:37.699Z</time></trkpt><trkpt lat="45.3813333" lon="7.5662833"><ele>1192.0</ele><time>2026-04-25T12:30:39.699Z</time></trkpt><trkpt lat="45.38129" lon="7.566465"><ele>1192.0</ele><time>2026-04-25T12:30:41.699Z</time></trkpt><trkpt lat="45.3812467" lon="7.566575"><ele>1192.0</ele><time>2026-04-25T12:30:42.699Z</time></trkpt><trkpt lat="45.3812083" lon="7.5666817"><ele>1192.0</ele><time>2026-04-25T12:30:43.699Z</time></trkpt><trkpt lat="45.3811817" lon="7.5667917"><ele>1192.0</ele><time>2026-04-25T12:30:44.699Z</time></trkpt><trkpt lat="45.381155" lon="7.5668867"><ele>1192.0</ele><time>2026-04-25T12:30:45.699Z</time></trkpt><trkpt lat="45.381135" lon="7.5669783"><ele>1192.0</ele><time>2026-04-25T12:30:46.699Z</time></trkpt><trkpt lat="45.381115" lon="7.567065"><ele>1190.4</ele><time>2026-04-25T12:30:47.699Z</time></trkpt><trkpt lat="45.3810783" lon="7.5672117"><ele>1188.8000000000002</ele><time>2026-04-25T12:30:49.699Z</time></trkpt><trkpt lat="45.381045" lon="7.567345"><ele>1187.2</ele><time>2026-04-25T12:30:51.699Z</time></trkpt><trkpt lat="45.3810133" lon="7.567515"><ele>1185.6000000000001</ele><time>2026-04-25T12:30:53.699Z</time></trkpt><trkpt lat="45.3810033" lon="7.567625"><ele>1184.0</ele><time>2026-04-25T12:30:54.699Z</time></trkpt><trkpt lat="45.380985" lon="7.5677233"><ele>1184.0</ele><time>2026-04-25T12:30:55.699Z</time></trkpt><trkpt lat="45.3809717" lon="7.5678267"><ele>1184.0</ele><time>2026-04-25T12:30:56.699Z</time></trkpt><trkpt lat="45.3809483" lon="7.5679233"><ele>1184.0</ele><time>2026-04-25T12:30:57.699Z</time></trkpt><trkpt lat="45.3809233" lon="7.5680283"><ele>1184.0</ele><time>2026-04-25T12:30:58.699Z</time></trkpt><trkpt lat="45.3808867" lon="7.568115"><ele>1184.0</ele><time>2026-04-25T12:30:59.699Z</time></trkpt><trkpt lat="45.3808383" lon="7.5681883"><ele>1184.0</ele><time>2026-04-25T12:31:00.699Z</time></trkpt><trkpt lat="45.3807867" lon="7.5682667"><ele>1184.0</ele><time>2026-04-25T12:31:01.699Z</time></trkpt><trkpt lat="45.38073" lon="7.5683367"><ele>1181.1666666666667</ele><time>2026-04-25T12:31:02.699Z</time></trkpt><trkpt lat="45.38068" lon="7.5684117"><ele>1178.3333333333335</ele><time>2026-04-25T12:31:03.699Z</time></trkpt><trkpt lat="45.3806267" lon="7.56848"><ele>1175.5</ele><time>2026-04-25T12:31:04.699Z</time></trkpt><trkpt lat="45.380565" lon="7.5685333"><ele>1172.6666666666667</ele><time>2026-04-25T12:31:05.699Z</time></trkpt><trkpt lat="45.3805017" lon="7.5685967"><ele>1169.8333333333333</ele><time>2026-04-25T12:31:06.7Z</time></trkpt><trkpt lat="45.3804283" lon="7.568645"><ele>1167.0</ele><time>2026-04-25T12:31:07.699Z</time></trkpt><trkpt lat="45.3803417" lon="7.5686633"><ele>1166.0</ele><time>2026-04-25T12:31:08.699Z</time></trkpt><trkpt lat="45.3802667" lon="7.5686617"><ele>1165.0</ele><time>2026-04-25T12:31:09.699Z</time></trkpt><trkpt lat="45.3801883" lon="7.568625"><ele>1164.0</ele><time>2026-04-25T12:31:10.699Z</time></trkpt><trkpt lat="45.3801067" lon="7.56856"><ele>1163.0</ele><time>2026-04-25T12:31:11.7Z</time></trkpt><trkpt lat="45.380025" lon="7.5684783"><ele>1162.0</ele><time>2026-04-25T12:31:12.699Z</time></trkpt><trkpt lat="45.37995" lon="7.5684"><ele>1161.0</ele><time>2026-04-25T12:31:13.699Z</time></trkpt><trkpt lat="45.37987" lon="7.5683283"><ele>1161.0</ele><time>2026-04-25T12:31:14.699Z</time></trkpt><trkpt lat="45.3797917" lon="7.5682633"><ele>1161.0</ele><time>2026-04-25T12:31:15.699Z</time></trkpt><trkpt lat="45.3797183" lon="7.5682183"><ele>1161.0</ele><time>2026-04-25T12:31:16.7Z</time></trkpt><trkpt lat="45.379645" lon="7.56817"><ele>1161.0</ele><time>2026-04-25T12:31:17.699Z</time></trkpt><trkpt lat="45.37957" lon="7.568115"><ele>1161.0</ele><time>2026-04-25T12:31:18.7Z</time></trkpt><trkpt lat="45.3795083" lon="7.5680517"><ele>1161.0</ele><time>2026-04-25T12:31:19.699Z</time></trkpt><trkpt lat="45.3794483" lon="7.5679933"><ele>1157.8</ele><time>2026-04-25T12:31:20.699Z</time></trkpt><trkpt lat="45.3793867" lon="7.5679317"><ele>1154.6</ele><time>2026-04-25T12:31:21.699Z</time></trkpt><trkpt lat="45.3793233" lon="7.5678783"><ele>1151.4</ele><time>2026-04-25T12:31:22.699Z</time></trkpt><trkpt lat="45.37921" lon="7.5678083"><ele>1148.2</ele><time>2026-04-25T12:31:24.699Z</time></trkpt><trkpt lat="45.3790883" lon="7.56781"><ele>1145.0</ele><time>2026-04-25T12:31:26.699Z</time></trkpt><trkpt lat="45.379025" lon="7.5678317"><ele>1145.0</ele><time>2026-04-25T12:31:27.699Z</time></trkpt><trkpt lat="45.3789067" lon="7.5678567"><ele>1145.0</ele><time>2026-04-25T12:31:29.699Z</time></trkpt><trkpt lat="45.3788417" lon="7.5678467"><ele>1145.0</ele><time>2026-04-25T12:31:30.699Z</time></trkpt><trkpt lat="45.378775" lon="7.5678417"><ele>1145.0</ele><time>2026-04-25T12:31:31.699Z</time></trkpt><trkpt lat="45.37868" lon="7.5678283"><ele>1145.0</ele><time>2026-04-25T12:31:33.699Z</time></trkpt><trkpt lat="45.3786283" lon="7.5677767"><ele>1145.0</ele><time>2026-04-25T12:31:35.699Z</time></trkpt><trkpt lat="45.3785967" lon="7.5676567"><ele>1137.6</ele><time>2026-04-25T12:31:37.699Z</time></trkpt><trkpt lat="45.3786067" lon="7.567495"><ele>1130.2</ele><time>2026-04-25T12:31:39.699Z</time></trkpt><trkpt lat="45.3786417" lon="7.5673617"><ele>1122.8</ele><time>2026-04-25T12:31:41.699Z</time></trkpt><trkpt lat="45.3786767" lon="7.56726"><ele>1115.4</ele><time>2026-04-25T12:31:44.699Z</time></trkpt><trkpt lat="45.3786133" lon="7.5672883"><ele>1108.0</ele><time>2026-04-25T12:31:47.699Z</time></trkpt><trkpt lat="45.3785483" lon="7.567455"><ele>1108.0</ele><time>2026-04-25T12:31:49.699Z</time></trkpt><trkpt lat="45.3785167" lon="7.5675483"><ele>1108.0</ele><time>2026-04-25T12:31:50.699Z</time></trkpt><trkpt lat="45.37848" lon="7.56764"><ele>1108.0</ele><time>2026-04-25T12:31:51.699Z</time></trkpt><trkpt lat="45.3784417" lon="7.56773"><ele>1108.0</ele><time>2026-04-25T12:31:52.699Z</time></trkpt><trkpt lat="45.378395" lon="7.5678283"><ele>1108.0</ele><time>2026-04-25T12:31:53.699Z</time></trkpt><trkpt lat="45.37836" lon="7.5679217"><ele>1108.0</ele><time>2026-04-25T12:31:54.699Z</time></trkpt><trkpt lat="45.3783183" lon="7.5680133"><ele>1109.0</ele><time>2026-04-25T12:31:55.699Z</time></trkpt><trkpt lat="45.37829" lon="7.5681117"><ele>1110.0</ele><time>2026-04-25T12:31:56.699Z</time></trkpt><trkpt lat="45.378265" lon="7.568215"><ele>1111.0</ele><time>2026-04-25T12:31:57.699Z</time></trkpt><trkpt lat="45.3782383" lon="7.5683733"><ele>1112.0</ele><time>2026-04-25T12:31:59.699Z</time></trkpt><trkpt lat="45.3782883" lon="7.568475"><ele>1113.0</ele><time>2026-04-25T12:32:01.699Z</time></trkpt><trkpt lat="45.3784167" lon="7.568545"><ele>1113.0</ele><time>2026-04-25T12:32:03.699Z</time></trkpt><trkpt lat="45.3785067" lon="7.5685867"><ele>1113.0</ele><time>2026-04-25T12:32:04.699Z</time></trkpt><trkpt lat="45.3785867" lon="7.5686417"><ele>1113.0</ele><time>2026-04-25T12:32:05.699Z</time></trkpt><trkpt lat="45.378665" lon="7.56871"><ele>1113.0</ele><time>2026-04-25T12:32:06.699Z</time></trkpt><trkpt lat="45.3787067" lon="7.56881"><ele>1113.0</ele><time>2026-04-25T12:32:07.699Z</time></trkpt><trkpt lat="45.378735" lon="7.5689267"><ele>1113.0</ele><time>2026-04-25T12:32:08.699Z</time></trkpt><trkpt lat="45.3787417" lon="7.569065"><ele>1112.5</ele><time>2026-04-25T12:32:09.699Z</time></trkpt><trkpt lat="45.3787317" lon="7.5691967"><ele>1112.0</ele><time>2026-04-25T12:32:10.699Z</time></trkpt><trkpt lat="45.378735" lon="7.5693017"><ele>1111.5</ele><time>2026-04-25T12:32:11.699Z</time></trkpt><trkpt lat="45.3787417" lon="7.5693917"><ele>1111.0</ele><time>2026-04-25T12:32:12.699Z</time></trkpt><trkpt lat="45.3787817" lon="7.5694817"><ele>1110.5</ele><time>2026-04-25T12:32:13.699Z</time></trkpt><trkpt lat="45.378835" lon="7.5695833"><ele>1110.0</ele><time>2026-04-25T12:32:14.699Z</time></trkpt><trkpt lat="45.3788967" lon="7.5697033"><ele>1110.0</ele><time>2026-04-25T12:32:15.699Z</time></trkpt><trkpt lat="45.3789467" lon="7.56983"><ele>1110.0</ele><time>2026-04-25T12:32:16.699Z</time></trkpt><trkpt lat="45.3789967" lon="7.56994"><ele>1110.0</ele><time>2026-04-25T12:32:17.699Z</time></trkpt><trkpt lat="45.3790433" lon="7.570035"><ele>1110.0</ele><time>2026-04-25T12:32:18.699Z</time></trkpt><trkpt lat="45.3791017" lon="7.5701117"><ele>1110.0</ele><time>2026-04-25T12:32:19.7Z</time></trkpt><trkpt lat="45.379165" lon="7.5701867"><ele>1110.0</ele><time>2026-04-25T12:32:20.699Z</time></trkpt><trkpt lat="45.3792267" lon="7.5702517"><ele>1110.0</ele><time>2026-04-25T12:32:21.699Z</time></trkpt><trkpt lat="45.3792767" lon="7.57032"><ele>1110.0</ele><time>2026-04-25T12:32:22.699Z</time></trkpt><trkpt lat="45.3793367" lon="7.5704367"><ele>1110.0</ele><time>2026-04-25T12:32:24.699Z</time></trkpt><trkpt lat="45.3793583" lon="7.5705767"><ele>1110.0</ele><time>2026-04-25T12:32:26.699Z</time></trkpt><trkpt lat="45.37935" lon="7.5707233"><ele>1110.0</ele><time>2026-04-25T12:32:28.699Z</time></trkpt><trkpt lat="45.379345" lon="7.5709183"><ele>1107.6666666666667</ele><time>2026-04-25T12:32:30.699Z</time></trkpt><trkpt lat="45.3793433" lon="7.5710217"><ele>1105.3333333333333</ele><time>2026-04-25T12:32:31.699Z</time></trkpt><trkpt lat="45.3793233" lon="7.57112"><ele>1103.0</ele><time>2026-04-25T12:32:32.699Z</time></trkpt><trkpt lat="45.379305" lon="7.57122"><ele>1100.6666666666665</ele><time>2026-04-25T12:32:33.699Z</time></trkpt><trkpt lat="45.3792983" lon="7.5713133"><ele>1098.3333333333333</ele><time>2026-04-25T12:32:34.699Z</time></trkpt><trkpt lat="45.3793083" lon="7.57148"><ele>1096.0</ele><time>2026-04-25T12:32:36.699Z</time></trkpt><trkpt lat="45.37934" lon="7.5715583"><ele>1095.1666666666665</ele><time>2026-04-25T12:32:37.699Z</time></trkpt><trkpt lat="45.37939" lon="7.5716333"><ele>1094.3333333333333</ele><time>2026-04-25T12:32:38.699Z</time></trkpt><trkpt lat="45.379455" lon="7.5716967"><ele>1093.5</ele><time>2026-04-25T12:32:39.7Z</time></trkpt><trkpt lat="45.3795283" lon="7.5717483"><ele>1092.6666666666667</ele><time>2026-04-25T12:32:40.699Z</time></trkpt><trkpt lat="45.3795983" lon="7.5717967"><ele>1091.8333333333335</ele><time>2026-04-25T12:32:41.699Z</time></trkpt><trkpt lat="45.3796533" lon="7.5718417"><ele>1091.0</ele><time>2026-04-25T12:32:42.699Z</time></trkpt><trkpt lat="45.379745" lon="7.5719333"><ele>1090.3333333333335</ele><time>2026-04-25T12:32:44.699Z</time></trkpt><trkpt lat="45.37982" lon="7.5719417"><ele>1089.6666666666667</ele><time>2026-04-25T12:32:46.699Z</time></trkpt><trkpt lat="45.379885" lon="7.5718567"><ele>1089.0</ele><time>2026-04-25T12:32:48.699Z</time></trkpt><trkpt lat="45.37993" lon="7.571775"><ele>1088.3333333333333</ele><time>2026-04-25T12:32:49.699Z</time></trkpt><trkpt lat="45.3799767" lon="7.5716933"><ele>1087.6666666666665</ele><time>2026-04-25T12:32:50.699Z</time></trkpt><trkpt lat="45.3800233" lon="7.5716067"><ele>1087.0</ele><time>2026-04-25T12:32:51.699Z</time></trkpt><trkpt lat="45.3800583" lon="7.571525"><ele>1087.0</ele><time>2026-04-25T12:32:52.699Z</time></trkpt><trkpt lat="45.3801167" lon="7.57142"><ele>1087.0</ele><time>2026-04-25T12:32:54.699Z</time></trkpt><trkpt lat="45.3801883" lon="7.571415"><ele>1087.0</ele><time>2026-04-25T12:32:57.699Z</time></trkpt><trkpt lat="45.3802117" lon="7.5715333"><ele>1087.0</ele><time>2026-04-25T12:32:59.699Z</time></trkpt><trkpt lat="45.3802167" lon="7.571635"><ele>1087.0</ele><time>2026-04-25T12:33:00.699Z</time></trkpt><trkpt lat="45.38021" lon="7.5717717"><ele>1087.0</ele><time>2026-04-25T12:33:01.699Z</time></trkpt><trkpt lat="45.3802117" lon="7.5719117"><ele>1084.6666666666665</ele><time>2026-04-25T12:33:02.699Z</time></trkpt><trkpt lat="45.380205" lon="7.5720467"><ele>1082.3333333333333</ele><time>2026-04-25T12:33:03.699Z</time></trkpt><trkpt lat="45.3801967" lon="7.5721517"><ele>1080.0</ele><time>2026-04-25T12:33:04.699Z</time></trkpt><trkpt lat="45.3801767" lon="7.5722483"><ele>1077.6666666666667</ele><time>2026-04-25T12:33:05.699Z</time></trkpt><trkpt lat="45.3801517" lon="7.57234"><ele>1075.3333333333335</ele><time>2026-04-25T12:33:06.699Z</time></trkpt><trkpt lat="45.38013" lon="7.572435"><ele>1073.0</ele><time>2026-04-25T12:33:07.699Z</time></trkpt><trkpt lat="45.380095" lon="7.5725367"><ele>1073.0</ele><time>2026-04-25T12:33:08.699Z</time></trkpt><trkpt lat="45.3800483" lon="7.57262"><ele>1073.0</ele><time>2026-04-25T12:33:09.699Z</time></trkpt><trkpt lat="45.379995" lon="7.5726983"><ele>1073.0</ele><time>2026-04-25T12:33:10.699Z</time></trkpt><trkpt lat="45.3799383" lon="7.5727733"><ele>1073.0</ele><time>2026-04-25T12:33:11.699Z</time></trkpt><trkpt lat="45.379885" lon="7.5728383"><ele>1073.0</ele><time>2026-04-25T12:33:12.699Z</time></trkpt><trkpt lat="45.3798417" lon="7.5729233"><ele>1073.0</ele><time>2026-04-25T12:33:13.699Z</time></trkpt><trkpt lat="45.3797983" lon="7.5730117"><ele>1073.0</ele><time>2026-04-25T12:33:14.699Z</time></trkpt><trkpt lat="45.3797617" lon="7.5731017"><ele>1069.6666666666667</ele><time>2026-04-25T12:33:15.699Z</time></trkpt><trkpt lat="45.3796983" lon="7.5732283"><ele>1066.3333333333335</ele><time>2026-04-25T12:33:17.699Z</time></trkpt><trkpt lat="45.379655" lon="7.5733317"><ele>1063.0</ele><time>2026-04-25T12:33:19.699Z</time></trkpt><trkpt lat="45.37966" lon="7.5734367"><ele>1059.6666666666667</ele><time>2026-04-25T12:33:21.699Z</time></trkpt><trkpt lat="45.3797483" lon="7.5734517"><ele>1056.3333333333333</ele><time>2026-04-25T12:33:23.699Z</time></trkpt><trkpt lat="45.37981" lon="7.5734283"><ele>1053.0</ele><time>2026-04-25T12:33:24.699Z</time></trkpt><trkpt lat="45.3798883" lon="7.5733733"><ele>1053.0</ele><time>2026-04-25T12:33:25.699Z</time></trkpt><trkpt lat="45.379965" lon="7.573295"><ele>1053.0</ele><time>2026-04-25T12:33:26.699Z</time></trkpt><trkpt lat="45.3800433" lon="7.5732183"><ele>1053.0</ele><time>2026-04-25T12:33:27.699Z</time></trkpt><trkpt lat="45.3801217" lon="7.573135"><ele>1053.0</ele><time>2026-04-25T12:33:28.699Z</time></trkpt><trkpt lat="45.380205" lon="7.5730667"><ele>1053.0</ele><time>2026-04-25T12:33:29.699Z</time></trkpt><trkpt lat="45.38029" lon="7.5730167"><ele>1053.0</ele><time>2026-04-25T12:33:30.699Z</time></trkpt><trkpt lat="45.3803683" lon="7.572985"><ele>1053.0</ele><time>2026-04-25T12:33:31.699Z</time></trkpt><trkpt lat="45.3804483" lon="7.5729517"><ele>1053.0</ele><time>2026-04-25T12:33:32.699Z</time></trkpt><trkpt lat="45.380515" lon="7.5729067"><ele>1053.0</ele><time>2026-04-25T12:33:33.699Z</time></trkpt><trkpt lat="45.3805767" lon="7.57285"><ele>1053.0</ele><time>2026-04-25T12:33:34.699Z</time></trkpt><trkpt lat="45.38064" lon="7.57277"><ele>1053.0</ele><time>2026-04-25T12:33:35.699Z</time></trkpt><trkpt lat="45.3807083" lon="7.5726817"><ele>1052.5</ele><time>2026-04-25T12:33:36.699Z</time></trkpt><trkpt lat="45.3807683" lon="7.5725933"><ele>1052.0</ele><time>2026-04-25T12:33:37.699Z</time></trkpt><trkpt lat="45.380825" lon="7.5725017"><ele>1051.5</ele><time>2026-04-25T12:33:38.699Z</time></trkpt><trkpt lat="45.380885" lon="7.5724183"><ele>1051.0</ele><time>2026-04-25T12:33:39.699Z</time></trkpt><trkpt lat="45.3809417" lon="7.57234"><ele>1050.5</ele><time>2026-04-25T12:33:40.699Z</time></trkpt><trkpt lat="45.381" lon="7.5722717"><ele>1050.0</ele><time>2026-04-25T12:33:41.699Z</time></trkpt><trkpt lat="45.3810683" lon="7.572215"><ele>1050.0</ele><time>2026-04-25T12:33:42.699Z</time></trkpt><trkpt lat="45.381145" lon="7.57218"><ele>1050.0</ele><time>2026-04-25T12:33:43.699Z</time></trkpt><trkpt lat="45.3812183" lon="7.572165"><ele>1050.0</ele><time>2026-04-25T12:33:44.699Z</time></trkpt><trkpt lat="45.3812833" lon="7.5721667"><ele>1050.0</ele><time>2026-04-25T12:33:45.699Z</time></trkpt><trkpt lat="45.3813483" lon="7.5721783"><ele>1050.0</ele><time>2026-04-25T12:33:46.699Z</time></trkpt><trkpt lat="45.3814283" lon="7.57218"><ele>1050.0</ele><time>2026-04-25T12:33:47.699Z</time></trkpt><trkpt lat="45.381505" lon="7.572165"><ele>1050.0</ele><time>2026-04-25T12:33:48.699Z</time></trkpt><trkpt lat="45.381575" lon="7.5721183"><ele>1049.6666666666667</ele><time>2026-04-25T12:33:49.7Z</time></trkpt><trkpt lat="45.3816417" lon="7.5720483"><ele>1049.3333333333333</ele><time>2026-04-25T12:33:50.7Z</time></trkpt><trkpt lat="45.381715" lon="7.571975"><ele>1049.0</ele><time>2026-04-25T12:33:51.699Z</time></trkpt><trkpt lat="45.38178" lon="7.5718883"><ele>1048.6666666666665</ele><time>2026-04-25T12:33:52.699Z</time></trkpt><trkpt lat="45.3818333" lon="7.571795"><ele>1048.3333333333333</ele><time>2026-04-25T12:33:53.699Z</time></trkpt><trkpt lat="45.38189" lon="7.571705"><ele>1048.0</ele><time>2026-04-25T12:33:54.699Z</time></trkpt><trkpt lat="45.381935" lon="7.5716083"><ele>1048.0</ele><time>2026-04-25T12:33:55.699Z</time></trkpt><trkpt lat="45.381975" lon="7.5715283"><ele>1048.0</ele><time>2026-04-25T12:33:56.699Z</time></trkpt><trkpt lat="45.3820117" lon="7.571455"><ele>1048.0</ele><time>2026-04-25T12:33:57.699Z</time></trkpt><trkpt lat="45.3820667" lon="7.5713467"><ele>1048.0</ele><time>2026-04-25T12:33:59.699Z</time></trkpt><trkpt lat="45.3821317" lon="7.5713017"><ele>1048.0</ele><time>2026-04-25T12:34:01.699Z</time></trkpt><trkpt lat="45.3821967" lon="7.5713367"><ele>1048.0</ele><time>2026-04-25T12:34:03.699Z</time></trkpt><trkpt lat="45.3822133" lon="7.57143"><ele>1048.0</ele><time>2026-04-25T12:34:05.699Z</time></trkpt><trkpt lat="45.3821717" lon="7.5715767"><ele>1048.0</ele><time>2026-04-25T12:34:07.699Z</time></trkpt><trkpt lat="45.38215" lon="7.5716767"><ele>1048.0</ele><time>2026-04-25T12:34:08.699Z</time></trkpt><trkpt lat="45.3821383" lon="7.5718133"><ele>1048.0</ele><time>2026-04-25T12:34:09.699Z</time></trkpt><trkpt lat="45.3821317" lon="7.57196"><ele>1048.0</ele><time>2026-04-25T12:34:10.699Z</time></trkpt><trkpt lat="45.38212" lon="7.5721"><ele>1048.0</ele><time>2026-04-25T12:34:11.699Z</time></trkpt><trkpt lat="45.382105" lon="7.572215"><ele>1044.1666666666665</ele><time>2026-04-25T12:34:12.699Z</time></trkpt><trkpt lat="45.3820983" lon="7.5723417"><ele>1040.3333333333333</ele><time>2026-04-25T12:34:13.699Z</time></trkpt><trkpt lat="45.382095" lon="7.5724517"><ele>1036.5</ele><time>2026-04-25T12:34:14.699Z</time></trkpt><trkpt lat="45.3820867" lon="7.5725417"><ele>1032.6666666666667</ele><time>2026-04-25T12:34:15.7Z</time></trkpt><trkpt lat="45.3820533" lon="7.5727067"><ele>1028.8333333333335</ele><time>2026-04-25T12:34:17.699Z</time></trkpt><trkpt lat="45.38201" lon="7.5727733"><ele>1025.0</ele><time>2026-04-25T12:34:18.699Z</time></trkpt><trkpt lat="45.38196" lon="7.5728467"><ele>1020.2</ele><time>2026-04-25T12:34:19.699Z</time></trkpt><trkpt lat="45.3818867" lon="7.572935"><ele>1015.4</ele><time>2026-04-25T12:34:20.699Z</time></trkpt><trkpt lat="45.3818183" lon="7.5730467"><ele>1010.5999999999999</ele><time>2026-04-25T12:34:21.699Z</time></trkpt><trkpt lat="45.3817517" lon="7.57316"><ele>1005.8</ele><time>2026-04-25T12:34:22.699Z</time></trkpt><trkpt lat="45.3816867" lon="7.5732617"><ele>1001.0</ele><time>2026-04-25T12:34:23.699Z</time></trkpt><trkpt lat="45.3816233" lon="7.5733367"><ele>1001.0</ele><time>2026-04-25T12:34:24.699Z</time></trkpt><trkpt lat="45.381565" lon="7.5734017"><ele>1000.9999999999999</ele><time>2026-04-25T12:34:25.699Z</time></trkpt><trkpt lat="45.3814817" lon="7.5735433"><ele>1000.9999999999999</ele><time>2026-04-25T12:34:27.699Z</time></trkpt><trkpt lat="45.3814383" lon="7.5736533"><ele>1001.0</ele><time>2026-04-25T12:34:28.699Z</time></trkpt><trkpt lat="45.3813783" lon="7.5737667"><ele>1001.0</ele><time>2026-04-25T12:34:29.699Z</time></trkpt><trkpt lat="45.381315" lon="7.57389"><ele>1001.5999999999999</ele><time>2026-04-25T12:34:30.699Z</time></trkpt><trkpt lat="45.381255" lon="7.5739917"><ele>1002.1999999999999</ele><time>2026-04-25T12:34:31.699Z</time></trkpt><trkpt lat="45.38119" lon="7.5741"><ele>1002.8000000000001</ele><time>2026-04-25T12:34:32.699Z</time></trkpt><trkpt lat="45.3811283" lon="7.5742333"><ele>1003.4000000000001</ele><time>2026-04-25T12:34:33.699Z</time></trkpt><trkpt lat="45.3810833" lon="7.574375"><ele>1004.0</ele><time>2026-04-25T12:34:34.699Z</time></trkpt><trkpt lat="45.38104" lon="7.5745117"><ele>1000.4000000000001</ele><time>2026-04-25T12:34:35.699Z</time></trkpt><trkpt lat="45.3809917" lon="7.574625"><ele>996.8000000000001</ele><time>2026-04-25T12:34:36.699Z</time></trkpt><trkpt lat="45.3809467" lon="7.57475"><ele>993.1999999999999</ele><time>2026-04-25T12:34:37.699Z</time></trkpt><trkpt lat="45.3809183" lon="7.5748833"><ele>989.5999999999999</ele><time>2026-04-25T12:34:38.699Z</time></trkpt><trkpt lat="45.3808933" lon="7.575025"><ele>986.0</ele><time>2026-04-25T12:34:39.699Z</time></trkpt><trkpt lat="45.38088" lon="7.575165"><ele>986.0</ele><time>2026-04-25T12:34:40.699Z</time></trkpt><trkpt lat="45.3808683" lon="7.575285"><ele>985.9999999999999</ele><time>2026-04-25T12:34:41.699Z</time></trkpt><trkpt lat="45.3808417" lon="7.5754"><ele>985.9999999999999</ele><time>2026-04-25T12:34:42.699Z</time></trkpt><trkpt lat="45.3808083" lon="7.5755167"><ele>986.0</ele><time>2026-04-25T12:34:43.699Z</time></trkpt><trkpt lat="45.38076" lon="7.5756333"><ele>986.0</ele><time>2026-04-25T12:34:44.699Z</time></trkpt><trkpt lat="45.380695" lon="7.5757417"><ele>987.0000000000001</ele><time>2026-04-25T12:34:45.699Z</time></trkpt><trkpt lat="45.3806283" lon="7.57584"><ele>988.0</ele><time>2026-04-25T12:34:46.699Z</time></trkpt><trkpt lat="45.3805567" lon="7.5759167"><ele>989.0</ele><time>2026-04-25T12:34:47.699Z</time></trkpt><trkpt lat="45.3804983" lon="7.575965"><ele>990.0</ele><time>2026-04-25T12:34:48.699Z</time></trkpt><trkpt lat="45.380405" lon="7.576025"><ele>991.0000000000001</ele><time>2026-04-25T12:34:50.699Z</time></trkpt><trkpt lat="45.3804033" lon="7.5761217"><ele>992.0</ele><time>2026-04-25T12:34:53.699Z</time></trkpt><trkpt lat="45.3804733" lon="7.5761167"><ele>988.8333333333334</ele><time>2026-04-25T12:34:55.699Z</time></trkpt><trkpt lat="45.3805317" lon="7.576075"><ele>985.6666666666667</ele><time>2026-04-25T12:34:57.699Z</time></trkpt><trkpt lat="45.3806017" lon="7.5760683"><ele>982.5</ele><time>2026-04-25T12:35:20.698Z</time></trkpt><trkpt lat="45.3806817" lon="7.576005"><ele>979.3333333333333</ele><time>2026-04-25T12:35:22.698Z</time></trkpt><trkpt lat="45.3807383" lon="7.5759633"><ele>976.1666666666666</ele><time>2026-04-25T12:35:23.698Z</time></trkpt><trkpt lat="45.3808" lon="7.5759333"><ele>973.0</ele><time>2026-04-25T12:35:24.698Z</time></trkpt><trkpt lat="45.3809117" lon="7.5758533"><ele>972.9999999999999</ele><time>2026-04-25T12:35:26.698Z</time></trkpt><trkpt lat="45.3809717" lon="7.57579"><ele>973.0</ele><time>2026-04-25T12:35:27.699Z</time></trkpt><trkpt lat="45.3810317" lon="7.5757183"><ele>973.0</ele><time>2026-04-25T12:35:28.699Z</time></trkpt><trkpt lat="45.3810933" lon="7.5756567"><ele>973.0</ele><time>2026-04-25T12:35:29.698Z</time></trkpt><trkpt lat="45.38115" lon="7.5756133"><ele>972.9999999999999</ele><time>2026-04-25T12:35:30.698Z</time></trkpt><trkpt lat="45.3812383" lon="7.5756433"><ele>973.0</ele><time>2026-04-25T12:35:32.698Z</time></trkpt><trkpt lat="45.3812567" lon="7.5757933"><ele>973.0</ele><time>2026-04-25T12:35:34.698Z</time></trkpt><trkpt lat="45.3812267" lon="7.57593"><ele>973.0</ele><time>2026-04-25T12:35:35.698Z</time></trkpt><trkpt lat="45.3811667" lon="7.5761317"><ele>973.0</ele><time>2026-04-25T12:35:36.698Z</time></trkpt><trkpt lat="45.3811017" lon="7.5763667"><ele>973.0</ele><time>2026-04-25T12:35:37.698Z</time></trkpt><trkpt lat="45.3810533" lon="7.57656"><ele>967.75</ele><time>2026-04-25T12:35:38.698Z</time></trkpt><trkpt lat="45.381015" lon="7.5767217"><ele>962.5</ele><time>2026-04-25T12:35:39.698Z</time></trkpt><trkpt lat="45.3809733" lon="7.57687"><ele>957.25</ele><time>2026-04-25T12:35:40.698Z</time></trkpt><trkpt lat="45.3809167" lon="7.577005"><ele>952.0</ele><time>2026-04-25T12:35:41.698Z</time></trkpt><trkpt lat="45.38084" lon="7.5771233"><ele>947.6</ele><time>2026-04-25T12:35:42.698Z</time></trkpt><trkpt lat="45.3807467" lon="7.5772267"><ele>943.2</ele><time>2026-04-25T12:35:43.698Z</time></trkpt><trkpt lat="45.3806583" lon="7.5773"><ele>938.8</ele><time>2026-04-25T12:35:44.698Z</time></trkpt><trkpt lat="45.3805833" lon="7.57734"><ele>934.4</ele><time>2026-04-25T12:35:45.698Z</time></trkpt><trkpt lat="45.3804817" lon="7.57737"><ele>930.0</ele><time>2026-04-25T12:35:47.698Z</time></trkpt><trkpt lat="45.3804867" lon="7.577475"><ele>929.8</ele><time>2026-04-25T12:35:49.698Z</time></trkpt><trkpt lat="45.38057" lon="7.5775433"><ele>929.6</ele><time>2026-04-25T12:35:51.698Z</time></trkpt><trkpt lat="45.3806467" lon="7.5776017"><ele>929.4000000000001</ele><time>2026-04-25T12:35:53.698Z</time></trkpt><trkpt lat="45.3806733" lon="7.5777117"><ele>929.2</ele><time>2026-04-25T12:35:55.698Z</time></trkpt><trkpt lat="45.380595" lon="7.577815"><ele>929.0</ele><time>2026-04-25T12:35:57.698Z</time></trkpt><trkpt lat="45.3805167" lon="7.577805"><ele>929.25</ele><time>2026-04-25T12:35:58.698Z</time></trkpt><trkpt lat="45.38041" lon="7.5777667"><ele>929.5</ele><time>2026-04-25T12:35:59.698Z</time></trkpt><trkpt lat="45.380285" lon="7.577745"><ele>929.75</ele><time>2026-04-25T12:36:00.698Z</time></trkpt><trkpt lat="45.3801383" lon="7.5777567"><ele>930.0</ele><time>2026-04-25T12:36:01.698Z</time></trkpt><trkpt lat="45.3799983" lon="7.57778"><ele>930.0</ele><time>2026-04-25T12:36:02.698Z</time></trkpt><trkpt lat="45.37987" lon="7.5778267"><ele>930.0</ele><time>2026-04-25T12:36:03.698Z</time></trkpt><trkpt lat="45.3797533" lon="7.5778733"><ele>930.0</ele><time>2026-04-25T12:36:04.698Z</time></trkpt><trkpt lat="45.37964" lon="7.5779333"><ele>930.0</ele><time>2026-04-25T12:36:05.698Z</time></trkpt><trkpt lat="45.3795417" lon="7.57801"><ele>922.4</ele><time>2026-04-25T12:36:06.698Z</time></trkpt><trkpt lat="45.3794317" lon="7.5780617"><ele>914.8</ele><time>2026-04-25T12:36:07.698Z</time></trkpt><trkpt lat="45.37933" lon="7.5780833"><ele>907.2</ele><time>2026-04-25T12:36:08.698Z</time></trkpt><trkpt lat="45.3792267" lon="7.5780733"><ele>899.6</ele><time>2026-04-25T12:36:09.698Z</time></trkpt><trkpt lat="45.3791217" lon="7.5780483"><ele>892.0</ele><time>2026-04-25T12:36:10.698Z</time></trkpt><trkpt lat="45.3790167" lon="7.5780183"><ele>892.0</ele><time>2026-04-25T12:36:11.698Z</time></trkpt><trkpt lat="45.378905" lon="7.5780217"><ele>892.0</ele><time>2026-04-25T12:36:12.698Z</time></trkpt><trkpt lat="45.378795" lon="7.57807"><ele>892.0</ele><time>2026-04-25T12:36:13.698Z</time></trkpt><trkpt lat="45.3786933" lon="7.5781333"><ele>892.0</ele><time>2026-04-25T12:36:14.698Z</time></trkpt><trkpt lat="45.3785983" lon="7.5781733"><ele>892.0</ele><time>2026-04-25T12:36:15.699Z</time></trkpt><trkpt lat="45.3785017" lon="7.578215"><ele>891.6666666666666</ele><time>2026-04-25T12:36:16.698Z</time></trkpt><trkpt lat="45.3784183" lon="7.57824"><ele>891.3333333333333</ele><time>2026-04-25T12:36:17.698Z</time></trkpt><trkpt lat="45.3783417" lon="7.57826"><ele>891.0</ele><time>2026-04-25T12:36:18.698Z</time></trkpt><trkpt lat="45.3782783" lon="7.5782917"><ele>890.6666666666667</ele><time>2026-04-25T12:36:19.698Z</time></trkpt><trkpt lat="45.3782133" lon="7.5783417"><ele>890.3333333333334</ele><time>2026-04-25T12:36:20.698Z</time></trkpt><trkpt lat="45.37816" lon="7.5784"><ele>890.0</ele><time>2026-04-25T12:36:21.698Z</time></trkpt><trkpt lat="45.3780917" lon="7.5784933"><ele>890.2</ele><time>2026-04-25T12:36:23.698Z</time></trkpt><trkpt lat="45.3779933" lon="7.5784867"><ele>890.4</ele><time>2026-04-25T12:36:25.698Z</time></trkpt><trkpt lat="45.3779283" lon="7.578465"><ele>890.5999999999999</ele><time>2026-04-25T12:36:26.698Z</time></trkpt><trkpt lat="45.377835" lon="7.578475"><ele>890.8</ele><time>2026-04-25T12:36:27.698Z</time></trkpt><trkpt lat="45.3777267" lon="7.5785"><ele>891.0</ele><time>2026-04-25T12:36:28.698Z</time></trkpt><trkpt lat="45.3776167" lon="7.5785317"><ele>891.0</ele><time>2026-04-25T12:36:29.698Z</time></trkpt><trkpt lat="45.37751" lon="7.5785683"><ele>890.9999999999999</ele><time>2026-04-25T12:36:30.698Z</time></trkpt><trkpt lat="45.37741" lon="7.5786183"><ele>890.9999999999999</ele><time>2026-04-25T12:36:31.698Z</time></trkpt><trkpt lat="45.3773083" lon="7.5786883"><ele>891.0</ele><time>2026-04-25T12:36:32.698Z</time></trkpt><trkpt lat="45.3772117" lon="7.57877"><ele>891.0</ele><time>2026-04-25T12:36:33.698Z</time></trkpt><trkpt lat="45.3771133" lon="7.5788683"><ele>885.0</ele><time>2026-04-25T12:36:34.698Z</time></trkpt><trkpt lat="45.37701" lon="7.578965"><ele>879.0</ele><time>2026-04-25T12:36:35.698Z</time></trkpt><trkpt lat="45.3768883" lon="7.5790417"><ele>873.0</ele><time>2026-04-25T12:36:36.698Z</time></trkpt><trkpt lat="45.376745" lon="7.579095"><ele>867.0</ele><time>2026-04-25T12:36:37.698Z</time></trkpt><trkpt lat="45.376595" lon="7.5791467"><ele>867.0</ele><time>2026-04-25T12:36:38.698Z</time></trkpt><trkpt lat="45.3764467" lon="7.5792417"><ele>867.0</ele><time>2026-04-25T12:36:39.698Z</time></trkpt><trkpt lat="45.3763067" lon="7.5793433"><ele>867.0</ele><time>2026-04-25T12:36:40.698Z</time></trkpt><trkpt lat="45.3761883" lon="7.5794267"><ele>865.75</ele><time>2026-04-25T12:36:41.698Z</time></trkpt><trkpt lat="45.3760767" lon="7.5794833"><ele>864.5</ele><time>2026-04-25T12:36:42.698Z</time></trkpt><trkpt lat="45.3759617" lon="7.5795133"><ele>863.25</ele><time>2026-04-25T12:36:43.698Z</time></trkpt><trkpt lat="45.3758467" lon="7.5795433"><ele>862.0</ele><time>2026-04-25T12:36:44.698Z</time></trkpt><trkpt lat="45.3757317" lon="7.5795667"><ele>857.5</ele><time>2026-04-25T12:36:45.698Z</time></trkpt><trkpt lat="45.375625" lon="7.5796233"><ele>853.0</ele><time>2026-04-25T12:36:46.698Z</time></trkpt><trkpt lat="45.3755183" lon="7.5797067"><ele>848.5</ele><time>2026-04-25T12:36:47.698Z</time></trkpt><trkpt lat="45.3754183" lon="7.5798083"><ele>844.0</ele><time>2026-04-25T12:36:48.698Z</time></trkpt><trkpt lat="45.375325" lon="7.5799133"><ele>842.2</ele><time>2026-04-25T12:36:49.698Z</time></trkpt><trkpt lat="45.3752333" lon="7.58"><ele>840.4000000000001</ele><time>2026-04-25T12:36:50.699Z</time></trkpt><trkpt lat="45.3751517" lon="7.58007"><ele>838.6</ele><time>2026-04-25T12:36:51.698Z</time></trkpt><trkpt lat="45.3750833" lon="7.5801617"><ele>836.8</ele><time>2026-04-25T12:36:52.698Z</time></trkpt><trkpt lat="45.3750317" lon="7.58031"><ele>835.0</ele><time>2026-04-25T12:36:53.698Z</time></trkpt><trkpt lat="45.37499" lon="7.5804883"><ele>833.75</ele><time>2026-04-25T12:36:54.698Z</time></trkpt><trkpt lat="45.37494" lon="7.580655"><ele>832.5</ele><time>2026-04-25T12:36:55.698Z</time></trkpt><trkpt lat="45.374875" lon="7.5808233"><ele>831.25</ele><time>2026-04-25T12:36:56.698Z</time></trkpt><trkpt lat="45.3748117" lon="7.5809883"><ele>830.0</ele><time>2026-04-25T12:36:57.698Z</time></trkpt><trkpt lat="45.3747417" lon="7.5811467"><ele>825.4</ele><time>2026-04-25T12:36:58.698Z</time></trkpt><trkpt lat="45.3746767" lon="7.5812867"><ele>820.8</ele><time>2026-04-25T12:36:59.698Z</time></trkpt><trkpt lat="45.374605" lon="7.58139"><ele>816.2</ele><time>2026-04-25T12:37:00.698Z</time></trkpt><trkpt lat="45.3745317" lon="7.581475"><ele>811.6</ele><time>2026-04-25T12:37:01.698Z</time></trkpt><trkpt lat="45.374435" lon="7.58151"><ele>807.0</ele><time>2026-04-25T12:37:02.698Z</time></trkpt><trkpt lat="45.37434" lon="7.5815267"><ele>807.0</ele><time>2026-04-25T12:37:03.698Z</time></trkpt><trkpt lat="45.374255" lon="7.5815333"><ele>807.0</ele><time>2026-04-25T12:37:04.698Z</time></trkpt><trkpt lat="45.3741917" lon="7.58155"><ele>807.0</ele><time>2026-04-25T12:37:05.698Z</time></trkpt><trkpt lat="45.374155" lon="7.581695"><ele>807.0</ele><time>2026-04-25T12:37:07.698Z</time></trkpt><trkpt lat="45.3741967" lon="7.5817983"><ele>807.0</ele><time>2026-04-25T12:37:08.698Z</time></trkpt><trkpt lat="45.37427" lon="7.5818867"><ele>807.0</ele><time>2026-04-25T12:37:09.698Z</time></trkpt><trkpt lat="45.3743467" lon="7.58196"><ele>805.3333333333334</ele><time>2026-04-25T12:37:10.698Z</time></trkpt><trkpt lat="45.3743883" lon="7.58204"><ele>803.6666666666667</ele><time>2026-04-25T12:37:11.698Z</time></trkpt><trkpt lat="45.3743883" lon="7.5821317"><ele>802.0</ele><time>2026-04-25T12:37:13.698Z</time></trkpt><trkpt lat="45.374305" lon="7.5820967"><ele>800.3333333333334</ele><time>2026-04-25T12:37:15.698Z</time></trkpt><trkpt lat="45.3742033" lon="7.58208"><ele>798.6666666666667</ele><time>2026-04-25T12:37:17.698Z</time></trkpt><trkpt lat="45.3741483" lon="7.58216"><ele>797.0</ele><time>2026-04-25T12:37:19.699Z</time></trkpt><trkpt lat="45.3741683" lon="7.5823567"><ele>797.0000000000001</ele><time>2026-04-25T12:37:21.698Z</time></trkpt><trkpt lat="45.374205" lon="7.5824617"><ele>797.0</ele><time>2026-04-25T12:37:22.698Z</time></trkpt><trkpt lat="45.37424" lon="7.58256"><ele>797.0</ele><time>2026-04-25T12:37:23.698Z</time></trkpt><trkpt lat="45.3742567" lon="7.5826617"><ele>797.0</ele><time>2026-04-25T12:37:24.698Z</time></trkpt><trkpt lat="45.3742183" lon="7.5827867"><ele>797.0000000000001</ele><time>2026-04-25T12:37:26.698Z</time></trkpt><trkpt lat="45.3741" lon="7.58276"><ele>797.0</ele><time>2026-04-25T12:37:28.698Z</time></trkpt><trkpt lat="45.3740167" lon="7.582735"><ele>797.0</ele><time>2026-04-25T12:37:29.698Z</time></trkpt><trkpt lat="45.37392" lon="7.5827267"><ele>797.0</ele><time>2026-04-25T12:37:30.698Z</time></trkpt><trkpt lat="45.37383" lon="7.5827533"><ele>797.0</ele><time>2026-04-25T12:37:31.699Z</time></trkpt><trkpt lat="45.3737433" lon="7.5828083"><ele>797.0</ele><time>2026-04-25T12:37:32.698Z</time></trkpt><trkpt lat="45.373655" lon="7.5828733"><ele>797.0</ele><time>2026-04-25T12:37:33.698Z</time></trkpt><trkpt lat="45.3735733" lon="7.5829417"><ele>793.0000000000001</ele><time>2026-04-25T12:37:34.698Z</time></trkpt><trkpt lat="45.3734917" lon="7.58301"><ele>789.0</ele><time>2026-04-25T12:37:35.698Z</time></trkpt><trkpt lat="45.3734117" lon="7.583065"><ele>785.0</ele><time>2026-04-25T12:37:36.698Z</time></trkpt><trkpt lat="45.3733267" lon="7.58311"><ele>781.0</ele><time>2026-04-25T12:37:37.698Z</time></trkpt><trkpt lat="45.37324" lon="7.5831217"><ele>777.0000000000001</ele><time>2026-04-25T12:37:38.698Z</time></trkpt><trkpt lat="45.3731567" lon="7.5831317"><ele>773.0</ele><time>2026-04-25T12:37:39.698Z</time></trkpt><trkpt lat="45.3730883" lon="7.5831333"><ele>773.0</ele><time>2026-04-25T12:37:40.698Z</time></trkpt><trkpt lat="45.3729983" lon="7.5832083"><ele>773.0</ele><time>2026-04-25T12:37:42.698Z</time></trkpt><trkpt lat="45.3730483" lon="7.5833617"><ele>773.0</ele><time>2026-04-25T12:37:44.698Z</time></trkpt><trkpt lat="45.3731367" lon="7.583465"><ele>773.0</ele><time>2026-04-25T12:37:45.699Z</time></trkpt><trkpt lat="45.37324" lon="7.5835783"><ele>772.0000000000001</ele><time>2026-04-25T12:37:46.698Z</time></trkpt><trkpt lat="45.37332" lon="7.5836883"><ele>771.0</ele><time>2026-04-25T12:37:47.698Z</time></trkpt><trkpt lat="45.3733767" lon="7.5837733"><ele>770.0</ele><time>2026-04-25T12:37:48.698Z</time></trkpt><trkpt lat="45.3734033" lon="7.5839083"><ele>769.0</ele><time>2026-04-25T12:37:50.698Z</time></trkpt><trkpt lat="45.3733433" lon="7.58395"><ele>768.0</ele><time>2026-04-25T12:37:52.698Z</time></trkpt><trkpt lat="45.37328" lon="7.5839083"><ele>767.0</ele><time>2026-04-25T12:37:53.698Z</time></trkpt><trkpt lat="45.37319" lon="7.5838333"><ele>767.0</ele><time>2026-04-25T12:37:54.698Z</time></trkpt><trkpt lat="45.373115" lon="7.5837883"><ele>767.0</ele><time>2026-04-25T12:37:55.698Z</time></trkpt><trkpt lat="45.3730483" lon="7.5837867"><ele>767.0</ele><time>2026-04-25T12:37:56.698Z</time></trkpt><trkpt lat="45.3729867" lon="7.5838317"><ele>767.0</ele><time>2026-04-25T12:37:57.698Z</time></trkpt><trkpt lat="45.3729333" lon="7.5839183"><ele>767.0</ele><time>2026-04-25T12:37:58.698Z</time></trkpt><trkpt lat="45.3729" lon="7.5840467"><ele>767.0</ele><time>2026-04-25T12:37:59.698Z</time></trkpt><trkpt lat="45.372845" lon="7.5841567"><ele>764.75</ele><time>2026-04-25T12:38:00.698Z</time></trkpt><trkpt lat="45.3727617" lon="7.5842317"><ele>762.5</ele><time>2026-04-25T12:38:01.698Z</time></trkpt><trkpt lat="45.3726683" lon="7.5842667"><ele>760.25</ele><time>2026-04-25T12:38:02.698Z</time></trkpt><trkpt lat="45.3725483" lon="7.5842917"><ele>758.0</ele><time>2026-04-25T12:38:03.698Z</time></trkpt><trkpt lat="45.3724" lon="7.5843067"><ele>758.0</ele><time>2026-04-25T12:38:04.698Z</time></trkpt><trkpt lat="45.372275" lon="7.5843283"><ele>758.0</ele><time>2026-04-25T12:38:05.698Z</time></trkpt><trkpt lat="45.3721683" lon="7.5843383"><ele>758.0</ele><time>2026-04-25T12:38:06.698Z</time></trkpt><trkpt lat="45.3720617" lon="7.5843333"><ele>758.0</ele><time>2026-04-25T12:38:07.698Z</time></trkpt><trkpt lat="45.3719683" lon="7.584315"><ele>758.0</ele><time>2026-04-25T12:38:08.698Z</time></trkpt><trkpt lat="45.3718683" lon="7.5842833"><ele>755.6666666666666</ele><time>2026-04-25T12:38:09.698Z</time></trkpt><trkpt lat="45.3717783" lon="7.5842367"><ele>753.3333333333333</ele><time>2026-04-25T12:38:10.698Z</time></trkpt><trkpt lat="45.371695" lon="7.5841833"><ele>751.0</ele><time>2026-04-25T12:38:11.698Z</time></trkpt><trkpt lat="45.371635" lon="7.584125"><ele>748.6666666666666</ele><time>2026-04-25T12:38:12.698Z</time></trkpt><trkpt lat="45.37157" lon="7.5840867"><ele>746.3333333333334</ele><time>2026-04-25T12:38:13.698Z</time></trkpt><trkpt lat="45.3715017" lon="7.5841"><ele>744.0</ele><time>2026-04-25T12:38:14.698Z</time></trkpt><trkpt lat="45.3714317" lon="7.5841567"><ele>744.0</ele><time>2026-04-25T12:38:15.698Z</time></trkpt><trkpt lat="45.3713633" lon="7.5842533"><ele>744.0</ele><time>2026-04-25T12:38:16.698Z</time></trkpt><trkpt lat="45.3713383" lon="7.5843767"><ele>744.0</ele><time>2026-04-25T12:38:17.698Z</time></trkpt><trkpt lat="45.37136" lon="7.5845017"><ele>744.0</ele><time>2026-04-25T12:38:18.698Z</time></trkpt><trkpt lat="45.3713967" lon="7.584585"><ele>744.0</ele><time>2026-04-25T12:38:19.698Z</time></trkpt><trkpt lat="45.3714583" lon="7.5846533"><ele>744.0</ele><time>2026-04-25T12:38:20.698Z</time></trkpt><trkpt lat="45.3715567" lon="7.584715"><ele>742.0</ele><time>2026-04-25T12:38:21.698Z</time></trkpt><trkpt lat="45.37168" lon="7.5847783"><ele>740.0</ele><time>2026-04-25T12:38:22.698Z</time></trkpt><trkpt lat="45.37182" lon="7.5848333"><ele>738.0</ele><time>2026-04-25T12:38:23.698Z</time></trkpt><trkpt lat="45.371965" lon="7.584875"><ele>736.0</ele><time>2026-04-25T12:38:24.698Z</time></trkpt><trkpt lat="45.37211" lon="7.5849033"><ele>737.25</ele><time>2026-04-25T12:38:25.698Z</time></trkpt><trkpt lat="45.3722367" lon="7.58494"><ele>738.5</ele><time>2026-04-25T12:38:26.698Z</time></trkpt><trkpt lat="45.37235" lon="7.5849917"><ele>739.75</ele><time>2026-04-25T12:38:27.698Z</time></trkpt><trkpt lat="45.3724517" lon="7.585055"><ele>741.0</ele><time>2026-04-25T12:38:28.698Z</time></trkpt><trkpt lat="45.3725433" lon="7.5851117"><ele>741.0</ele><time>2026-04-25T12:38:29.698Z</time></trkpt><trkpt lat="45.3726233" lon="7.5851217"><ele>741.0</ele><time>2026-04-25T12:38:30.698Z</time></trkpt><trkpt lat="45.3726967" lon="7.5851183"><ele>741.0</ele><time>2026-04-25T12:38:31.698Z</time></trkpt><trkpt lat="45.3727667" lon="7.5850867"><ele>741.0</ele><time>2026-04-25T12:38:32.699Z</time></trkpt><trkpt lat="45.3728583" lon="7.5851633"><ele>741.0</ele><time>2026-04-25T12:38:34.698Z</time></trkpt><trkpt lat="45.37288" lon="7.5852783"><ele>741.0</ele><time>2026-04-25T12:38:35.698Z</time></trkpt><trkpt lat="45.3728967" lon="7.585435"><ele>738.1666666666666</ele><time>2026-04-25T12:38:36.698Z</time></trkpt><trkpt lat="45.3729333" lon="7.5855533"><ele>735.3333333333334</ele><time>2026-04-25T12:38:37.698Z</time></trkpt><trkpt lat="45.3729783" lon="7.5856417"><ele>732.5</ele><time>2026-04-25T12:38:38.698Z</time></trkpt><trkpt lat="45.3729933" lon="7.5857317"><ele>729.6666666666667</ele><time>2026-04-25T12:38:39.698Z</time></trkpt><trkpt lat="45.372975" lon="7.58582"><ele>726.8333333333334</ele><time>2026-04-25T12:38:40.698Z</time></trkpt><trkpt lat="45.3729417" lon="7.585935"><ele>724.0</ele><time>2026-04-25T12:38:41.698Z</time></trkpt><trkpt lat="45.3728717" lon="7.5860483"><ele>724.0</ele><time>2026-04-25T12:38:42.698Z</time></trkpt><trkpt lat="45.3728133" lon="7.5861667"><ele>724.0</ele><time>2026-04-25T12:38:43.698Z</time></trkpt><trkpt lat="45.372785" lon="7.5863233"><ele>724.0</ele><time>2026-04-25T12:38:44.698Z</time></trkpt><trkpt lat="45.372785" lon="7.5865283"><ele>724.0</ele><time>2026-04-25T12:38:45.698Z</time></trkpt><trkpt lat="45.372795" lon="7.5867433"><ele>723.2</ele><time>2026-04-25T12:38:46.698Z</time></trkpt><trkpt lat="45.372815" lon="7.58692"><ele>722.4000000000001</ele><time>2026-04-25T12:38:47.698Z</time></trkpt><trkpt lat="45.3728333" lon="7.5870583"><ele>721.6</ele><time>2026-04-25T12:38:48.698Z</time></trkpt><trkpt lat="45.3728467" lon="7.587195"><ele>720.8</ele><time>2026-04-25T12:38:49.698Z</time></trkpt><trkpt lat="45.3728833" lon="7.5873217"><ele>720.0</ele><time>2026-04-25T12:38:50.698Z</time></trkpt><trkpt lat="45.3729167" lon="7.587415"><ele>719.7142857142857</ele><time>2026-04-25T12:38:51.698Z</time></trkpt><trkpt lat="45.3729533" lon="7.5874967"><ele>719.4285714285714</ele><time>2026-04-25T12:38:52.698Z</time></trkpt><trkpt lat="45.3729767" lon="7.587585"><ele>719.1428571428571</ele><time>2026-04-25T12:38:53.698Z</time></trkpt><trkpt lat="45.3729733" lon="7.5876817"><ele>718.8571428571429</ele><time>2026-04-25T12:38:54.698Z</time></trkpt><trkpt lat="45.3729367" lon="7.5877583"><ele>718.5714285714287</ele><time>2026-04-25T12:38:55.698Z</time></trkpt><trkpt lat="45.37289" lon="7.58784"><ele>718.2857142857143</ele><time>2026-04-25T12:38:56.698Z</time></trkpt><trkpt lat="45.3728417" lon="7.5879383"><ele>718.0</ele><time>2026-04-25T12:38:57.698Z</time></trkpt><trkpt lat="45.3727833" lon="7.58806"><ele>717.5999999999999</ele><time>2026-04-25T12:38:58.698Z</time></trkpt><trkpt lat="45.3727233" lon="7.5881867"><ele>717.1999999999999</ele><time>2026-04-25T12:38:59.698Z</time></trkpt><trkpt lat="45.37266" lon="7.58832"><ele>716.8</ele><time>2026-04-25T12:39:00.698Z</time></trkpt><trkpt lat="45.3725967" lon="7.58845"><ele>716.4</ele><time>2026-04-25T12:39:01.698Z</time></trkpt><trkpt lat="45.3725467" lon="7.58859"><ele>716.0</ele><time>2026-04-25T12:39:02.698Z</time></trkpt><trkpt lat="45.372505" lon="7.5887617"><ele>713.75</ele><time>2026-04-25T12:39:03.698Z</time></trkpt><trkpt lat="45.3724717" lon="7.5889433"><ele>711.5</ele><time>2026-04-25T12:39:04.698Z</time></trkpt><trkpt lat="45.372445" lon="7.5891383"><ele>709.25</ele><time>2026-04-25T12:39:05.698Z</time></trkpt><trkpt lat="45.3724167" lon="7.58932"><ele>707.0</ele><time>2026-04-25T12:39:06.698Z</time></trkpt><trkpt lat="45.3724133" lon="7.5894983"><ele>704.75</ele><time>2026-04-25T12:39:07.698Z</time></trkpt><trkpt lat="45.37241" lon="7.5896783"><ele>702.5</ele><time>2026-04-25T12:39:08.698Z</time></trkpt><trkpt lat="45.372395" lon="7.5898433"><ele>700.25</ele><time>2026-04-25T12:39:09.698Z</time></trkpt><trkpt lat="45.3723617" lon="7.5899867"><ele>698.0</ele><time>2026-04-25T12:39:10.698Z</time></trkpt><trkpt lat="45.37232" lon="7.5901383"><ele>698.0</ele><time>2026-04-25T12:39:11.698Z</time></trkpt><trkpt lat="45.3722667" lon="7.5902867"><ele>698.0</ele><time>2026-04-25T12:39:12.698Z</time></trkpt><trkpt lat="45.3722133" lon="7.590425"><ele>698.0</ele><time>2026-04-25T12:39:13.698Z</time></trkpt><trkpt lat="45.3721583" lon="7.5905467"><ele>698.0</ele><time>2026-04-25T12:39:14.698Z</time></trkpt><trkpt lat="45.3721" lon="7.5906667"><ele>698.0</ele><time>2026-04-25T12:39:15.698Z</time></trkpt><trkpt lat="45.372035" lon="7.590785"><ele>695.5</ele><time>2026-04-25T12:39:16.698Z</time></trkpt><trkpt lat="45.3719767" lon="7.590905"><ele>693.0</ele><time>2026-04-25T12:39:17.698Z</time></trkpt><trkpt lat="45.3719217" lon="7.5910367"><ele>690.5</ele><time>2026-04-25T12:39:18.698Z</time></trkpt><trkpt lat="45.3718617" lon="7.591185"><ele>688.0</ele><time>2026-04-25T12:39:19.698Z</time></trkpt><trkpt lat="45.3718083" lon="7.5913467"><ele>686.5</ele><time>2026-04-25T12:39:20.698Z</time></trkpt><trkpt lat="45.37176" lon="7.5915117"><ele>685.0</ele><time>2026-04-25T12:39:21.698Z</time></trkpt><trkpt lat="45.3717" lon="7.591665"><ele>683.5</ele><time>2026-04-25T12:39:22.698Z</time></trkpt><trkpt lat="45.3716283" lon="7.5918183"><ele>682.0</ele><time>2026-04-25T12:39:23.698Z</time></trkpt><trkpt lat="45.3715533" lon="7.5919617"><ele>680.75</ele><time>2026-04-25T12:39:24.698Z</time></trkpt><trkpt lat="45.371465" lon="7.5920983"><ele>679.5</ele><time>2026-04-25T12:39:25.698Z</time></trkpt><trkpt lat="45.3713767" lon="7.5922417"><ele>678.25</ele><time>2026-04-25T12:39:26.698Z</time></trkpt><trkpt lat="45.3713067" lon="7.59239"><ele>677.0</ele><time>2026-04-25T12:39:27.698Z</time></trkpt><trkpt lat="45.3712367" lon="7.59254"><ele>673.25</ele><time>2026-04-25T12:39:28.698Z</time></trkpt><trkpt lat="45.37117" lon="7.592705"><ele>669.5</ele><time>2026-04-25T12:39:29.698Z</time></trkpt><trkpt lat="45.3711267" lon="7.5928717"><ele>665.75</ele><time>2026-04-25T12:39:30.698Z</time></trkpt><trkpt lat="45.37108" lon="7.5930317"><ele>662.0</ele><time>2026-04-25T12:39:31.698Z</time></trkpt><trkpt lat="45.3710183" lon="7.5931767"><ele>661.5</ele><time>2026-04-25T12:39:32.698Z</time></trkpt><trkpt lat="45.37096" lon="7.5933033"><ele>661.0</ele><time>2026-04-25T12:39:33.698Z</time></trkpt><trkpt lat="45.37092" lon="7.5934"><ele>660.5</ele><time>2026-04-25T12:39:34.698Z</time></trkpt><trkpt lat="45.370865" lon="7.5935033"><ele>660.0</ele><time>2026-04-25T12:39:36.698Z</time></trkpt><trkpt lat="45.37081" lon="7.5935917"><ele>659.5</ele><time>2026-04-25T12:39:39.698Z</time></trkpt><trkpt lat="45.3708367" lon="7.5936883"><ele>659.0</ele><time>2026-04-25T12:39:41.698Z</time></trkpt><trkpt lat="45.3709633" lon="7.593655"><ele>659.0</ele><time>2026-04-25T12:39:43.698Z</time></trkpt><trkpt lat="45.3710833" lon="7.5935583"><ele>659.0</ele><time>2026-04-25T12:39:44.699Z</time></trkpt><trkpt lat="45.37125" lon="7.5934133"><ele>659.0</ele><time>2026-04-25T12:39:45.699Z</time></trkpt><trkpt lat="45.37145" lon="7.593245"><ele>660.0</ele><time>2026-04-25T12:39:46.698Z</time></trkpt><trkpt lat="45.3716167" lon="7.593135"><ele>661.0</ele><time>2026-04-25T12:39:47.698Z</time></trkpt><trkpt lat="45.3717333" lon="7.5930633"><ele>662.0</ele><time>2026-04-25T12:39:48.698Z</time></trkpt><trkpt lat="45.3718133" lon="7.593005"><ele>663.0</ele><time>2026-04-25T12:39:49.698Z</time></trkpt><trkpt lat="45.3718833" lon="7.5929467"><ele>663.0</ele><time>2026-04-25T12:39:50.698Z</time></trkpt><trkpt lat="45.37195" lon="7.592895"><ele>663.0</ele><time>2026-04-25T12:39:51.698Z</time></trkpt><trkpt lat="45.372015" lon="7.5928467"><ele>663.0</ele><time>2026-04-25T12:39:52.698Z</time></trkpt><trkpt lat="45.37208" lon="7.5928017"><ele>663.0</ele><time>2026-04-25T12:39:53.698Z</time></trkpt><trkpt lat="45.3721517" lon="7.592765"><ele>663.0</ele><time>2026-04-25T12:39:54.698Z</time></trkpt><trkpt lat="45.3722383" lon="7.5927583"><ele>663.0</ele><time>2026-04-25T12:39:55.698Z</time></trkpt><trkpt lat="45.372325" lon="7.5927817"><ele>663.2</ele><time>2026-04-25T12:39:56.698Z</time></trkpt><trkpt lat="45.3724117" lon="7.59281"><ele>663.4</ele><time>2026-04-25T12:39:57.698Z</time></trkpt><trkpt lat="45.3725033" lon="7.5928533"><ele>663.6</ele><time>2026-04-25T12:39:58.698Z</time></trkpt><trkpt lat="45.372595" lon="7.5929133"><ele>663.8000000000001</ele><time>2026-04-25T12:39:59.698Z</time></trkpt><trkpt lat="45.37268" lon="7.592995"><ele>664.0</ele><time>2026-04-25T12:40:00.698Z</time></trkpt><trkpt lat="45.37277" lon="7.5931017"><ele>661.4000000000001</ele><time>2026-04-25T12:40:01.698Z</time></trkpt><trkpt lat="45.372825" lon="7.593225"><ele>658.8</ele><time>2026-04-25T12:40:02.698Z</time></trkpt><trkpt lat="45.3728767" lon="7.5933517"><ele>656.2</ele><time>2026-04-25T12:40:03.698Z</time></trkpt><trkpt lat="45.372935" lon="7.5934433"><ele>653.5999999999999</ele><time>2026-04-25T12:40:04.698Z</time></trkpt><trkpt lat="45.3729733" lon="7.5935483"><ele>651.0</ele><time>2026-04-25T12:40:05.698Z</time></trkpt><trkpt lat="45.3729983" lon="7.5936733"><ele>651.8</ele><time>2026-04-25T12:40:06.698Z</time></trkpt><trkpt lat="45.3729983" lon="7.5938"><ele>652.5999999999999</ele><time>2026-04-25T12:40:07.698Z</time></trkpt><trkpt lat="45.3729933" lon="7.5939183"><ele>653.4</ele><time>2026-04-25T12:40:08.698Z</time></trkpt><trkpt lat="45.3729983" lon="7.594045"><ele>654.2</ele><time>2026-04-25T12:40:09.698Z</time></trkpt><trkpt lat="45.3730283" lon="7.5941783"><ele>655.0</ele><time>2026-04-25T12:40:10.698Z</time></trkpt><trkpt lat="45.373085" lon="7.5943433"><ele>654.0</ele><time>2026-04-25T12:40:11.698Z</time></trkpt><trkpt lat="45.3731367" lon="7.5945283"><ele>653.0</ele><time>2026-04-25T12:40:12.698Z</time></trkpt><trkpt lat="45.373175" lon="7.594735"><ele>652.0</ele><time>2026-04-25T12:40:13.698Z</time></trkpt><trkpt lat="45.373155" lon="7.594965"><ele>652.0</ele><time>2026-04-25T12:40:14.698Z</time></trkpt><trkpt lat="45.3731433" lon="7.5951883"><ele>652.0</ele><time>2026-04-25T12:40:15.698Z</time></trkpt><trkpt lat="45.3731333" lon="7.595395"><ele>652.0</ele><time>2026-04-25T12:40:16.698Z</time></trkpt><trkpt lat="45.3731283" lon="7.59558"><ele>652.0</ele><time>2026-04-25T12:40:17.698Z</time></trkpt><trkpt lat="45.3731267" lon="7.59574"><ele>651.8333333333334</ele><time>2026-04-25T12:40:18.698Z</time></trkpt><trkpt lat="45.3731267" lon="7.5958733"><ele>651.6666666666667</ele><time>2026-04-25T12:40:19.698Z</time></trkpt><trkpt lat="45.3731417" lon="7.5959883"><ele>651.5</ele><time>2026-04-25T12:40:20.698Z</time></trkpt><trkpt lat="45.3731633" lon="7.5960833"><ele>651.3333333333334</ele><time>2026-04-25T12:40:21.698Z</time></trkpt><trkpt lat="45.3731933" lon="7.59618"><ele>651.1666666666666</ele><time>2026-04-25T12:40:23.698Z</time></trkpt><trkpt lat="45.3732117" lon="7.5963233"><ele>651.0</ele><time>2026-04-25T12:40:27.698Z</time></trkpt><trkpt lat="45.3732067" lon="7.5964217"><ele>650.5</ele><time>2026-04-25T12:40:28.698Z</time></trkpt><trkpt lat="45.3731783" lon="7.5965683"><ele>650.0</ele><time>2026-04-25T12:40:29.699Z</time></trkpt><trkpt lat="45.3731433" lon="7.596775"><ele>649.5</ele><time>2026-04-25T12:40:30.698Z</time></trkpt><trkpt lat="45.3731433" lon="7.5970283"><ele>649.0</ele><time>2026-04-25T12:40:31.698Z</time></trkpt><trkpt lat="45.3731683" lon="7.5972633"><ele>648.5</ele><time>2026-04-25T12:40:32.698Z</time></trkpt><trkpt lat="45.3731883" lon="7.5974683"><ele>648.0</ele><time>2026-04-25T12:40:33.699Z</time></trkpt><trkpt lat="45.373195" lon="7.59766"><ele>647.5</ele><time>2026-04-25T12:40:34.698Z</time></trkpt><trkpt lat="45.3731933" lon="7.5978417"><ele>647.0</ele><time>2026-04-25T12:40:35.698Z</time></trkpt><trkpt lat="45.373175" lon="7.5980183"><ele>645.25</ele><time>2026-04-25T12:40:36.698Z</time></trkpt><trkpt lat="45.3731417" lon="7.5981883"><ele>643.5</ele><time>2026-04-25T12:40:37.698Z</time></trkpt><trkpt lat="45.3731217" lon="7.5983767"><ele>641.75</ele><time>2026-04-25T12:40:38.698Z</time></trkpt><trkpt lat="45.3731067" lon="7.5985683"><ele>640.0</ele><time>2026-04-25T12:40:39.698Z</time></trkpt><trkpt lat="45.3731017" lon="7.59875"><ele>638.5</ele><time>2026-04-25T12:40:40.698Z</time></trkpt><trkpt lat="45.3731133" lon="7.59894"><ele>637.0</ele><time>2026-04-25T12:40:41.698Z</time></trkpt><trkpt lat="45.3731333" lon="7.5991317"><ele>635.5</ele><time>2026-04-25T12:40:42.698Z</time></trkpt><trkpt lat="45.3731333" lon="7.599315"><ele>634.0</ele><time>2026-04-25T12:40:43.698Z</time></trkpt><trkpt lat="45.373135" lon="7.5994933"><ele>633.4</ele><time>2026-04-25T12:40:44.699Z</time></trkpt><trkpt lat="45.3731283" lon="7.59966"><ele>632.8</ele><time>2026-04-25T12:40:45.698Z</time></trkpt><trkpt lat="45.3731133" lon="7.5998083"><ele>632.2</ele><time>2026-04-25T12:40:46.698Z</time></trkpt><trkpt lat="45.3730817" lon="7.5999217"><ele>631.6</ele><time>2026-04-25T12:40:47.698Z</time></trkpt><trkpt lat="45.373055" lon="7.6000133"><ele>631.0</ele><time>2026-04-25T12:40:48.698Z</time></trkpt><trkpt lat="45.373045" lon="7.6001367"><ele>631.0</ele><time>2026-04-25T12:40:50.698Z</time></trkpt><trkpt lat="45.3731217" lon="7.60014"><ele>631.0</ele><time>2026-04-25T12:40:53.698Z</time></trkpt><trkpt lat="45.3731717" lon="7.6000033"><ele>631.0</ele><time>2026-04-25T12:40:54.699Z</time></trkpt><trkpt lat="45.373225" lon="7.5997717"><ele>631.0</ele><time>2026-04-25T12:40:55.698Z</time></trkpt><trkpt lat="45.3733017" lon="7.5995"><ele>632.0</ele><time>2026-04-25T12:40:56.698Z</time></trkpt><trkpt lat="45.37338" lon="7.59926"><ele>633.0</ele><time>2026-04-25T12:40:57.698Z</time></trkpt><trkpt lat="45.37347" lon="7.59905"><ele>634.0</ele><time>2026-04-25T12:40:58.698Z</time></trkpt><trkpt lat="45.3735733" lon="7.5988633"><ele>634.0</ele><time>2026-04-25T12:40:59.698Z</time></trkpt><trkpt lat="45.373685" lon="7.59871"><ele>634.0</ele><time>2026-04-25T12:41:00.698Z</time></trkpt><trkpt lat="45.3737783" lon="7.598575"><ele>634.0</ele><time>2026-04-25T12:41:01.698Z</time></trkpt><trkpt lat="45.3738717" lon="7.598475"><ele>634.0</ele><time>2026-04-25T12:41:02.698Z</time></trkpt><trkpt lat="45.3739617" lon="7.598415"><ele>634.6</ele><time>2026-04-25T12:41:03.698Z</time></trkpt><trkpt lat="45.374055" lon="7.598425"><ele>635.2</ele><time>2026-04-25T12:41:04.698Z</time></trkpt><trkpt lat="45.3741217" lon="7.5984617"><ele>635.8000000000001</ele><time>2026-04-25T12:41:05.698Z</time></trkpt><trkpt lat="45.3741867" lon="7.5985483"><ele>636.4</ele><time>2026-04-25T12:41:06.698Z</time></trkpt><trkpt lat="45.374225" lon="7.59869"><ele>637.0</ele><time>2026-04-25T12:41:07.698Z</time></trkpt><trkpt lat="45.3742433" lon="7.5988917"><ele>633.6666666666667</ele><time>2026-04-25T12:41:08.698Z</time></trkpt><trkpt lat="45.3742333" lon="7.5991283"><ele>630.3333333333334</ele><time>2026-04-25T12:41:09.699Z</time></trkpt><trkpt lat="45.3741867" lon="7.5993517"><ele>627.0</ele><time>2026-04-25T12:41:10.698Z</time></trkpt><trkpt lat="45.3741767" lon="7.5995417"><ele>626.5</ele><time>2026-04-25T12:41:11.698Z</time></trkpt><trkpt lat="45.3741867" lon="7.5997333"><ele>626.0</ele><time>2026-04-25T12:41:12.698Z</time></trkpt><trkpt lat="45.3742117" lon="7.59992"><ele>625.5</ele><time>2026-04-25T12:41:13.698Z</time></trkpt><trkpt lat="45.374245" lon="7.6001033"><ele>625.0</ele><time>2026-04-25T12:41:14.698Z</time></trkpt><trkpt lat="45.3742817" lon="7.6002967"><ele>624.0</ele><time>2026-04-25T12:41:15.698Z</time></trkpt><trkpt lat="45.3742933" lon="7.6004733"><ele>623.0</ele><time>2026-04-25T12:41:16.698Z</time></trkpt><trkpt lat="45.3742783" lon="7.6006767"><ele>622.0</ele><time>2026-04-25T12:41:17.698Z</time></trkpt><trkpt lat="45.3742467" lon="7.6008883"><ele>621.0</ele><time>2026-04-25T12:41:18.698Z</time></trkpt><trkpt lat="45.3742467" lon="7.601125"><ele>619.0</ele><time>2026-04-25T12:41:19.698Z</time></trkpt><trkpt lat="45.374245" lon="7.6013583"><ele>617.0</ele><time>2026-04-25T12:41:20.698Z</time></trkpt><trkpt lat="45.3742617" lon="7.60158"><ele>615.0</ele><time>2026-04-25T12:41:21.698Z</time></trkpt><trkpt lat="45.3742717" lon="7.6018017"><ele>613.5</ele><time>2026-04-25T12:41:22.698Z</time></trkpt><trkpt lat="45.3743167" lon="7.6020217"><ele>612.0</ele><time>2026-04-25T12:41:23.698Z</time></trkpt><trkpt lat="45.3743617" lon="7.602215"><ele>610.5</ele><time>2026-04-25T12:41:24.698Z</time></trkpt><trkpt lat="45.3743917" lon="7.6024"><ele>609.0</ele><time>2026-04-25T12:41:25.698Z</time></trkpt><trkpt lat="45.3744333" lon="7.602585"><ele>609.0</ele><time>2026-04-25T12:41:26.698Z</time></trkpt><trkpt lat="45.37449" lon="7.6027583"><ele>609.0</ele><time>2026-04-25T12:41:27.698Z</time></trkpt><trkpt lat="45.3745617" lon="7.60293"><ele>609.0</ele><time>2026-04-25T12:41:28.698Z</time></trkpt><trkpt lat="45.3746417" lon="7.6031017"><ele>609.0</ele><time>2026-04-25T12:41:29.698Z</time></trkpt><trkpt lat="45.3747217" lon="7.603275"><ele>609.0</ele><time>2026-04-25T12:41:30.698Z</time></trkpt><trkpt lat="45.37479" lon="7.6034467"><ele>609.0</ele><time>2026-04-25T12:41:31.698Z</time></trkpt><trkpt lat="45.374855" lon="7.6036083"><ele>609.0</ele><time>2026-04-25T12:41:32.698Z</time></trkpt><trkpt lat="45.374915" lon="7.6037517"><ele>609.0</ele><time>2026-04-25T12:41:33.698Z</time></trkpt><trkpt lat="45.3749517" lon="7.6038633"><ele>607.6</ele><time>2026-04-25T12:41:34.698Z</time></trkpt><trkpt lat="45.3750517" lon="7.6039517"><ele>606.2</ele><time>2026-04-25T12:41:35.698Z</time></trkpt><trkpt lat="45.3751467" lon="7.603975"><ele>604.8000000000001</ele><time>2026-04-25T12:41:36.698Z</time></trkpt><trkpt lat="45.3752383" lon="7.6039483"><ele>603.4</ele><time>2026-04-25T12:41:37.698Z</time></trkpt><trkpt lat="45.37532" lon="7.6039"><ele>602.0</ele><time>2026-04-25T12:41:38.698Z</time></trkpt><trkpt lat="45.3753767" lon="7.603815"><ele>602.0</ele><time>2026-04-25T12:41:39.698Z</time></trkpt><trkpt lat="45.3754133" lon="7.6037017"><ele>602.0</ele><time>2026-04-25T12:41:40.698Z</time></trkpt><trkpt lat="45.3754317" lon="7.60359"><ele>602.0</ele><time>2026-04-25T12:41:41.698Z</time></trkpt><trkpt lat="45.3754883" lon="7.6035"><ele>602.0</ele><time>2026-04-25T12:41:43.698Z</time></trkpt><trkpt lat="45.37553" lon="7.60361"><ele>602.0</ele><time>2026-04-25T12:41:45.698Z</time></trkpt><trkpt lat="45.3755133" lon="7.603745"><ele>602.0</ele><time>2026-04-25T12:41:46.698Z</time></trkpt><trkpt lat="45.3754783" lon="7.6039383"><ele>602.0</ele><time>2026-04-25T12:41:47.698Z</time></trkpt><trkpt lat="45.3753917" lon="7.6041317"><ele>602.0</ele><time>2026-04-25T12:41:48.698Z</time></trkpt><trkpt lat="45.3752667" lon="7.604295"><ele>602.0</ele><time>2026-04-25T12:41:49.698Z</time></trkpt><trkpt lat="45.3751917" lon="7.6044733"><ele>600.5</ele><time>2026-04-25T12:41:50.698Z</time></trkpt><trkpt lat="45.3751233" lon="7.6046483"><ele>599.0</ele><time>2026-04-25T12:41:51.698Z</time></trkpt><trkpt lat="45.3750567" lon="7.604825"><ele>597.5</ele><time>2026-04-25T12:41:52.698Z</time></trkpt><trkpt lat="45.3750017" lon="7.6050283"><ele>596.0</ele><time>2026-04-25T12:41:53.698Z</time></trkpt><trkpt lat="45.37496" lon="7.60525"><ele>593.6666666666666</ele><time>2026-04-25T12:41:54.698Z</time></trkpt><trkpt lat="45.3749433" lon="7.60547"><ele>591.3333333333334</ele><time>2026-04-25T12:41:55.698Z</time></trkpt><trkpt lat="45.3749683" lon="7.6056883"><ele>589.0</ele><time>2026-04-25T12:41:56.698Z</time></trkpt><trkpt lat="45.3750317" lon="7.605915"><ele>585.3333333333334</ele><time>2026-04-25T12:41:57.698Z</time></trkpt><trkpt lat="45.3751333" lon="7.6061617"><ele>581.6666666666666</ele><time>2026-04-25T12:41:58.698Z</time></trkpt><trkpt lat="45.375255" lon="7.6064017"><ele>578.0</ele><time>2026-04-25T12:41:59.698Z</time></trkpt><trkpt lat="45.3753433" lon="7.60662"><ele>578.0</ele><time>2026-04-25T12:42:00.698Z</time></trkpt><trkpt lat="45.37541" lon="7.6068083"><ele>578.0</ele><time>2026-04-25T12:42:01.698Z</time></trkpt><trkpt lat="45.375475" lon="7.6069717"><ele>578.0</ele><time>2026-04-25T12:42:02.698Z</time></trkpt><trkpt lat="45.3755483" lon="7.6070967"><ele>578.0</ele><time>2026-04-25T12:42:03.698Z</time></trkpt><trkpt lat="45.3756417" lon="7.6071983"><ele>577.6</ele><time>2026-04-25T12:42:04.698Z</time></trkpt><trkpt lat="45.3757483" lon="7.6072767"><ele>577.1999999999999</ele><time>2026-04-25T12:42:05.698Z</time></trkpt><trkpt lat="45.3758567" lon="7.6073217"><ele>576.8</ele><time>2026-04-25T12:42:06.698Z</time></trkpt><trkpt lat="45.3759633" lon="7.60729"><ele>576.4</ele><time>2026-04-25T12:42:07.698Z</time></trkpt><trkpt lat="45.376045" lon="7.6072133"><ele>576.0</ele><time>2026-04-25T12:42:08.698Z</time></trkpt><trkpt lat="45.3760933" lon="7.60709"><ele>578.4</ele><time>2026-04-25T12:42:09.698Z</time></trkpt><trkpt lat="45.3761183" lon="7.6069567"><ele>580.8</ele><time>2026-04-25T12:42:10.698Z</time></trkpt><trkpt lat="45.3761367" lon="7.6068467"><ele>583.1999999999999</ele><time>2026-04-25T12:42:11.698Z</time></trkpt><trkpt lat="45.3762067" lon="7.6067317"><ele>585.6</ele><time>2026-04-25T12:42:13.698Z</time></trkpt><trkpt lat="45.3763267" lon="7.6068267"><ele>588.0</ele><time>2026-04-25T12:42:15.698Z</time></trkpt><trkpt lat="45.3763567" lon="7.60697"><ele>587.3333333333334</ele><time>2026-04-25T12:42:16.698Z</time></trkpt><trkpt lat="45.376355" lon="7.60719"><ele>586.6666666666667</ele><time>2026-04-25T12:42:17.698Z</time></trkpt><trkpt lat="45.3763433" lon="7.6074467"><ele>586.0</ele><time>2026-04-25T12:42:18.698Z</time></trkpt><trkpt lat="45.3763083" lon="7.6076583"><ele>582.25</ele><time>2026-04-25T12:42:19.698Z</time></trkpt><trkpt lat="45.376285" lon="7.607855"><ele>578.5</ele><time>2026-04-25T12:42:20.698Z</time></trkpt><trkpt lat="45.3762567" lon="7.6080117"><ele>574.75</ele><time>2026-04-25T12:42:21.698Z</time></trkpt><trkpt lat="45.3762717" lon="7.6081867"><ele>571.0</ele><time>2026-04-25T12:42:22.698Z</time></trkpt><trkpt lat="45.376325" lon="7.6083817"><ele>570.0</ele><time>2026-04-25T12:42:23.698Z</time></trkpt><trkpt lat="45.3763617" lon="7.6085917"><ele>569.0</ele><time>2026-04-25T12:42:24.698Z</time></trkpt><trkpt lat="45.376395" lon="7.608815"><ele>568.0</ele><time>2026-04-25T12:42:25.698Z</time></trkpt><trkpt lat="45.3764633" lon="7.60907"><ele>568.0</ele><time>2026-04-25T12:42:26.698Z</time></trkpt><trkpt lat="45.376535" lon="7.6093067"><ele>568.0</ele><time>2026-04-25T12:42:27.698Z</time></trkpt><trkpt lat="45.3766" lon="7.609535"><ele>568.0</ele><time>2026-04-25T12:42:28.698Z</time></trkpt><trkpt lat="45.3766367" lon="7.6097567"><ele>566.25</ele><time>2026-04-25T12:42:29.698Z</time></trkpt><trkpt lat="45.3766667" lon="7.6099717"><ele>564.5</ele><time>2026-04-25T12:42:30.698Z</time></trkpt><trkpt lat="45.3767167" lon="7.6101567"><ele>562.75</ele><time>2026-04-25T12:42:31.698Z</time></trkpt><trkpt lat="45.3767733" lon="7.61034"><ele>561.0</ele><time>2026-04-25T12:42:32.698Z</time></trkpt><trkpt lat="45.3768233" lon="7.610535"><ele>558.6666666666666</ele><time>2026-04-25T12:42:33.698Z</time></trkpt><trkpt lat="45.3768567" lon="7.610735"><ele>556.3333333333333</ele><time>2026-04-25T12:42:34.698Z</time></trkpt><trkpt lat="45.3768867" lon="7.6109483"><ele>554.0</ele><time>2026-04-25T12:42:35.698Z</time></trkpt><trkpt lat="45.37693" lon="7.6111617"><ele>554.0</ele><time>2026-04-25T12:42:36.698Z</time></trkpt><trkpt lat="45.3769633" lon="7.6113683"><ele>554.0</ele><time>2026-04-25T12:42:37.698Z</time></trkpt><trkpt lat="45.3769967" lon="7.6115733"><ele>554.0</ele><time>2026-04-25T12:42:38.698Z</time></trkpt><trkpt lat="45.377015" lon="7.6117883"><ele>554.0</ele><time>2026-04-25T12:42:39.698Z</time></trkpt><trkpt lat="45.3770217" lon="7.6120233"><ele>552.6666666666666</ele><time>2026-04-25T12:42:40.698Z</time></trkpt><trkpt lat="45.3770133" lon="7.61225"><ele>551.3333333333334</ele><time>2026-04-25T12:42:41.698Z</time></trkpt><trkpt lat="45.377015" lon="7.6124633"><ele>550.0</ele><time>2026-04-25T12:42:42.698Z</time></trkpt><trkpt lat="45.3770333" lon="7.61268"><ele>549.5</ele><time>2026-04-25T12:42:43.699Z</time></trkpt><trkpt lat="45.37708" lon="7.6128617"><ele>549.0</ele><time>2026-04-25T12:42:44.698Z</time></trkpt><trkpt lat="45.377165" lon="7.6130117"><ele>548.5</ele><time>2026-04-25T12:42:45.698Z</time></trkpt><trkpt lat="45.3772717" lon="7.613145"><ele>548.0</ele><time>2026-04-25T12:42:46.698Z</time></trkpt><trkpt lat="45.37738" lon="7.61326"><ele>548.0</ele><time>2026-04-25T12:42:47.698Z</time></trkpt><trkpt lat="45.3774733" lon="7.6133433"><ele>548.0</ele><time>2026-04-25T12:42:48.698Z</time></trkpt><trkpt lat="45.3775817" lon="7.613395"><ele>548.0</ele><time>2026-04-25T12:42:49.698Z</time></trkpt><trkpt lat="45.3777" lon="7.613405"><ele>548.0</ele><time>2026-04-25T12:42:50.698Z</time></trkpt><trkpt lat="45.3777967" lon="7.6134383"><ele>548.0</ele><time>2026-04-25T12:42:51.698Z</time></trkpt><trkpt lat="45.3778567" lon="7.6135283"><ele>548.0</ele><time>2026-04-25T12:42:52.698Z</time></trkpt><trkpt lat="45.37788" lon="7.6136417"><ele>548.0</ele><time>2026-04-25T12:42:53.698Z</time></trkpt><trkpt lat="45.3778633" lon="7.613805"><ele>548.0</ele><time>2026-04-25T12:42:54.698Z</time></trkpt><trkpt lat="45.3778117" lon="7.6140133"><ele>548.0</ele><time>2026-04-25T12:42:55.698Z</time></trkpt><trkpt lat="45.3777367" lon="7.6142317"><ele>546.6666666666666</ele><time>2026-04-25T12:42:56.698Z</time></trkpt><trkpt lat="45.3776817" lon="7.6144383"><ele>545.3333333333334</ele><time>2026-04-25T12:42:57.698Z</time></trkpt><trkpt lat="45.377665" lon="7.6146767"><ele>544.0</ele><time>2026-04-25T12:42:58.699Z</time></trkpt><trkpt lat="45.3776667" lon="7.6148867"><ele>543.75</ele><time>2026-04-25T12:42:59.698Z</time></trkpt><trkpt lat="45.3776783" lon="7.6150667"><ele>543.5</ele><time>2026-04-25T12:43:00.699Z</time></trkpt><trkpt lat="45.3777183" lon="7.6152383"><ele>543.25</ele><time>2026-04-25T12:43:01.698Z</time></trkpt><trkpt lat="45.377805" lon="7.61539"><ele>543.0</ele><time>2026-04-25T12:43:02.698Z</time></trkpt><trkpt lat="45.3779167" lon="7.61555"><ele>545.0</ele><time>2026-04-25T12:43:03.698Z</time></trkpt><trkpt lat="45.37804" lon="7.6157217"><ele>547.0</ele><time>2026-04-25T12:43:04.698Z</time></trkpt><trkpt lat="45.3781583" lon="7.6159067"><ele>549.0</ele><time>2026-04-25T12:43:05.698Z</time></trkpt><trkpt lat="45.37827" lon="7.61607"><ele>544.3333333333334</ele><time>2026-04-25T12:43:06.698Z</time></trkpt><trkpt lat="45.3783617" lon="7.6162467"><ele>539.6666666666667</ele><time>2026-04-25T12:43:07.698Z</time></trkpt><trkpt lat="45.3784233" lon="7.6164533"><ele>535.0</ele><time>2026-04-25T12:43:08.698Z</time></trkpt><trkpt lat="45.3784917" lon="7.6166683"><ele>535.0</ele><time>2026-04-25T12:43:09.698Z</time></trkpt><trkpt lat="45.37857" lon="7.616855"><ele>535.0</ele><time>2026-04-25T12:43:10.698Z</time></trkpt><trkpt lat="45.3786417" lon="7.6169817"><ele>535.0</ele><time>2026-04-25T12:43:11.698Z</time></trkpt><trkpt lat="45.3787233" lon="7.6170567"><ele>535.0</ele><time>2026-04-25T12:43:12.698Z</time></trkpt><trkpt lat="45.3788183" lon="7.6170967"><ele>536.2</ele><time>2026-04-25T12:43:13.698Z</time></trkpt><trkpt lat="45.37893" lon="7.61711"><ele>537.4</ele><time>2026-04-25T12:43:14.698Z</time></trkpt><trkpt lat="45.379025" lon="7.617165"><ele>538.6</ele><time>2026-04-25T12:43:15.698Z</time></trkpt><trkpt lat="45.37909" lon="7.61728"><ele>539.8</ele><time>2026-04-25T12:43:16.698Z</time></trkpt><trkpt lat="45.3791133" lon="7.6174317"><ele>541.0</ele><time>2026-04-25T12:43:17.698Z</time></trkpt><trkpt lat="45.3791117" lon="7.617615"><ele>538.6666666666667</ele><time>2026-04-25T12:43:18.698Z</time></trkpt><trkpt lat="45.3791417" lon="7.6178283"><ele>536.3333333333334</ele><time>2026-04-25T12:43:19.698Z</time></trkpt><trkpt lat="45.3792417" lon="7.61803"><ele>534.0</ele><time>2026-04-25T12:43:20.698Z</time></trkpt><trkpt lat="45.3793583" lon="7.618215"><ele>534.0</ele><time>2026-04-25T12:43:21.698Z</time></trkpt><trkpt lat="45.37947" lon="7.6183967"><ele>534.0</ele><time>2026-04-25T12:43:22.698Z</time></trkpt><trkpt lat="45.3795883" lon="7.6185617"><ele>534.0</ele><time>2026-04-25T12:43:23.698Z</time></trkpt><trkpt lat="45.3797333" lon="7.61869"><ele>535.5</ele><time>2026-04-25T12:43:24.698Z</time></trkpt><trkpt lat="45.3798567" lon="7.618775"><ele>537.0</ele><time>2026-04-25T12:43:25.698Z</time></trkpt><trkpt lat="45.37996" lon="7.6188933"><ele>538.5</ele><time>2026-04-25T12:43:26.698Z</time></trkpt><trkpt lat="45.3800567" lon="7.6190633"><ele>540.0</ele><time>2026-04-25T12:43:27.698Z</time></trkpt><trkpt lat="45.3801333" lon="7.61926"><ele>540.0</ele><time>2026-04-25T12:43:28.698Z</time></trkpt><trkpt lat="45.3801983" lon="7.6194767"><ele>540.0</ele><time>2026-04-25T12:43:29.698Z</time></trkpt><trkpt lat="45.38025" lon="7.6196633"><ele>540.0</ele><time>2026-04-25T12:43:30.698Z</time></trkpt><trkpt lat="45.3803283" lon="7.6198233"><ele>540.0</ele><time>2026-04-25T12:43:31.698Z</time></trkpt><trkpt lat="45.3804117" lon="7.6199583"><ele>539.2</ele><time>2026-04-25T12:43:32.698Z</time></trkpt><trkpt lat="45.38049" lon="7.6200667"><ele>538.4</ele><time>2026-04-25T12:43:33.698Z</time></trkpt><trkpt lat="45.3805667" lon="7.6201367"><ele>537.6</ele><time>2026-04-25T12:43:34.698Z</time></trkpt><trkpt lat="45.3806533" lon="7.6201567"><ele>536.8</ele><time>2026-04-25T12:43:35.698Z</time></trkpt><trkpt lat="45.3807533" lon="7.6201233"><ele>536.0</ele><time>2026-04-25T12:43:36.698Z</time></trkpt><trkpt lat="45.3808583" lon="7.620045"><ele>536.0</ele><time>2026-04-25T12:43:37.698Z</time></trkpt><trkpt lat="45.3809517" lon="7.61993"><ele>536.0</ele><time>2026-04-25T12:43:38.698Z</time></trkpt><trkpt lat="45.3810417" lon="7.61983"><ele>536.0</ele><time>2026-04-25T12:43:39.698Z</time></trkpt><trkpt lat="45.3811167" lon="7.6197483"><ele>536.0</ele><time>2026-04-25T12:43:40.698Z</time></trkpt><trkpt lat="45.3812" lon="7.619675"><ele>536.0</ele><time>2026-04-25T12:43:41.698Z</time></trkpt><trkpt lat="45.381285" lon="7.6196517"><ele>536.2</ele><time>2026-04-25T12:43:42.698Z</time></trkpt><trkpt lat="45.381355" lon="7.61967"><ele>536.4000000000001</ele><time>2026-04-25T12:43:43.698Z</time></trkpt><trkpt lat="45.38142" lon="7.6197283"><ele>536.6</ele><time>2026-04-25T12:43:44.698Z</time></trkpt><trkpt lat="45.381475" lon="7.6198567"><ele>536.8000000000001</ele><time>2026-04-25T12:43:45.698Z</time></trkpt><trkpt lat="45.38152" lon="7.62001"><ele>537.0</ele><time>2026-04-25T12:43:46.698Z</time></trkpt><trkpt lat="45.3815783" lon="7.62013"><ele>537.0</ele><time>2026-04-25T12:43:47.698Z</time></trkpt><trkpt lat="45.3816533" lon="7.6202283"><ele>537.0</ele><time>2026-04-25T12:43:48.698Z</time></trkpt><trkpt lat="45.381725" lon="7.62034"><ele>537.0</ele><time>2026-04-25T12:43:49.698Z</time></trkpt><trkpt lat="45.3817933" lon="7.6204667"><ele>537.0</ele><time>2026-04-25T12:43:50.698Z</time></trkpt><trkpt lat="45.381835" lon="7.6205833"><ele>537.0</ele><time>2026-04-25T12:43:51.699Z</time></trkpt><trkpt lat="45.3818733" lon="7.62067"><ele>536.1666666666666</ele><time>2026-04-25T12:43:52.698Z</time></trkpt><trkpt lat="45.3819083" lon="7.62078"><ele>535.3333333333334</ele><time>2026-04-25T12:43:54.698Z</time></trkpt><trkpt lat="45.381925" lon="7.6208967"><ele>534.5</ele><time>2026-04-25T12:44:21.698Z</time></trkpt><trkpt lat="45.3819583" lon="7.6210033"><ele>533.6666666666667</ele><time>2026-04-25T12:44:22.698Z</time></trkpt><trkpt lat="45.3819933" lon="7.6211333"><ele>532.8333333333334</ele><time>2026-04-25T12:44:23.698Z</time></trkpt><trkpt lat="45.3820133" lon="7.6212733"><ele>532.0</ele><time>2026-04-25T12:44:24.698Z</time></trkpt><trkpt lat="45.3820383" lon="7.6214317"><ele>531.3333333333334</ele><time>2026-04-25T12:44:25.698Z</time></trkpt><trkpt lat="45.382065" lon="7.6215983"><ele>530.6666666666666</ele><time>2026-04-25T12:44:26.698Z</time></trkpt><trkpt lat="45.3820833" lon="7.621775"><ele>530.0</ele><time>2026-04-25T12:44:27.698Z</time></trkpt><trkpt lat="45.3820117" lon="7.622155"><ele>528.3333333333333</ele><time>2026-04-25T12:44:29.698Z</time></trkpt><trkpt lat="45.3819733" lon="7.6224033"><ele>526.6666666666666</ele><time>2026-04-25T12:44:30.699Z</time></trkpt><trkpt lat="45.3819317" lon="7.6226733"><ele>525.0</ele><time>2026-04-25T12:44:31.698Z</time></trkpt><trkpt lat="45.3818833" lon="7.6229217"><ele>524.3333333333334</ele><time>2026-04-25T12:44:32.698Z</time></trkpt><trkpt lat="45.381845" lon="7.6231633"><ele>523.6666666666667</ele><time>2026-04-25T12:44:33.699Z</time></trkpt><trkpt lat="45.3818083" lon="7.6233667"><ele>523.0</ele><time>2026-04-25T12:44:34.698Z</time></trkpt><trkpt lat="45.3817817" lon="7.6235583"><ele>521.75</ele><time>2026-04-25T12:44:35.698Z</time></trkpt><trkpt lat="45.3817483" lon="7.62373"><ele>520.5</ele><time>2026-04-25T12:44:36.698Z</time></trkpt><trkpt lat="45.3816933" lon="7.6239017"><ele>519.25</ele><time>2026-04-25T12:44:37.698Z</time></trkpt><trkpt lat="45.38162" lon="7.6240617"><ele>518.0</ele><time>2026-04-25T12:44:38.698Z</time></trkpt><trkpt lat="45.3815233" lon="7.6242167"><ele>518.0</ele><time>2026-04-25T12:44:39.698Z</time></trkpt><trkpt lat="45.3814167" lon="7.6243383"><ele>518.0</ele><time>2026-04-25T12:44:40.699Z</time></trkpt><trkpt lat="45.3812967" lon="7.6244283"><ele>518.0</ele><time>2026-04-25T12:44:41.699Z</time></trkpt><trkpt lat="45.3811833" lon="7.6244867"><ele>518.0</ele><time>2026-04-25T12:44:42.698Z</time></trkpt><trkpt lat="45.38107" lon="7.6245133"><ele>517.6</ele><time>2026-04-25T12:44:43.698Z</time></trkpt><trkpt lat="45.380965" lon="7.6245183"><ele>517.1999999999999</ele><time>2026-04-25T12:44:44.698Z</time></trkpt><trkpt lat="45.38088" lon="7.6245"><ele>516.8</ele><time>2026-04-25T12:44:45.698Z</time></trkpt><trkpt lat="45.3808117" lon="7.624445"><ele>516.4</ele><time>2026-04-25T12:44:46.698Z</time></trkpt><trkpt lat="45.38076" lon="7.624375"><ele>516.0</ele><time>2026-04-25T12:44:47.699Z</time></trkpt><trkpt lat="45.380695" lon="7.6242333"><ele>516.0</ele><time>2026-04-25T12:44:49.698Z</time></trkpt><trkpt lat="45.3806183" lon="7.6241267"><ele>516.0</ele><time>2026-04-25T12:44:51.698Z</time></trkpt><trkpt lat="45.3805217" lon="7.62415"><ele>516.0</ele><time>2026-04-25T12:44:53.698Z</time></trkpt><trkpt lat="45.3805267" lon="7.62432"><ele>516.0</ele><time>2026-04-25T12:44:55.698Z</time></trkpt><trkpt lat="45.3805833" lon="7.6244133"><ele>516.0</ele><time>2026-04-25T12:44:56.698Z</time></trkpt><trkpt lat="45.38065" lon="7.624495"><ele>514.1428571428571</ele><time>2026-04-25T12:44:57.698Z</time></trkpt><trkpt lat="45.3807033" lon="7.624555"><ele>512.2857142857142</ele><time>2026-04-25T12:44:58.698Z</time></trkpt><trkpt lat="45.38074" lon="7.6246433"><ele>510.42857142857144</ele><time>2026-04-25T12:45:00.698Z</time></trkpt><trkpt lat="45.380795" lon="7.624745"><ele>508.57142857142856</ele><time>2026-04-25T12:50:54.697Z</time></trkpt><trkpt lat="45.380845" lon="7.6248083"><ele>506.7142857142858</ele><time>2026-04-25T12:50:55.697Z</time></trkpt><trkpt lat="45.3808983" lon="7.62487"><ele>504.8571428571429</ele><time>2026-04-25T12:50:56.697Z</time></trkpt><trkpt lat="45.38095" lon="7.62493"><ele>503.0</ele><time>2026-04-25T12:50:57.697Z</time></trkpt><trkpt lat="45.3810167" lon="7.6249933"><ele>503.0</ele><time>2026-04-25T12:50:58.697Z</time></trkpt><trkpt lat="45.3811067" lon="7.6250417"><ele>502.99999999999994</ele><time>2026-04-25T12:50:59.697Z</time></trkpt><trkpt lat="45.3812083" lon="7.6250717"><ele>502.99999999999994</ele><time>2026-04-25T12:51:00.697Z</time></trkpt><trkpt lat="45.38131" lon="7.62508"><ele>503.0</ele><time>2026-04-25T12:51:01.697Z</time></trkpt><trkpt lat="45.381405" lon="7.6250783"><ele>503.0</ele><time>2026-04-25T12:51:02.697Z</time></trkpt><trkpt lat="45.3815017" lon="7.62506"><ele>502.79999999999995</ele><time>2026-04-25T12:51:03.696Z</time></trkpt><trkpt lat="45.3815967" lon="7.6250117"><ele>502.59999999999997</ele><time>2026-04-25T12:51:04.696Z</time></trkpt><trkpt lat="45.3816833" lon="7.62493"><ele>502.40000000000003</ele><time>2026-04-25T12:51:05.697Z</time></trkpt><trkpt lat="45.3817633" lon="7.6248517"><ele>502.20000000000005</ele><time>2026-04-25T12:51:06.696Z</time></trkpt><trkpt lat="45.3818583" lon="7.6247717"><ele>502.0</ele><time>2026-04-25T12:51:07.697Z</time></trkpt><trkpt lat="45.3819567" lon="7.624695"><ele>502.00000000000006</ele><time>2026-04-25T12:51:08.696Z</time></trkpt><trkpt lat="45.3820517" lon="7.6246333"><ele>502.0</ele><time>2026-04-25T12:51:09.696Z</time></trkpt><trkpt lat="45.3821367" lon="7.6245783"><ele>502.0</ele><time>2026-04-25T12:51:10.696Z</time></trkpt><trkpt lat="45.3822133" lon="7.624505"><ele>502.0</ele><time>2026-04-25T12:51:11.696Z</time></trkpt><trkpt lat="45.3822783" lon="7.6244283"><ele>502.00000000000006</ele><time>2026-04-25T12:51:12.696Z</time></trkpt><trkpt lat="45.382325" lon="7.6243483"><ele>502.0</ele><time>2026-04-25T12:51:13.696Z</time></trkpt><trkpt lat="45.38236" lon="7.6242567"><ele>502.20000000000005</ele><time>2026-04-25T12:51:14.696Z</time></trkpt><trkpt lat="45.382425" lon="7.624165"><ele>502.40000000000003</ele><time>2026-04-25T12:51:16.696Z</time></trkpt><trkpt lat="45.3824517" lon="7.62426"><ele>502.59999999999997</ele><time>2026-04-25T12:51:18.696Z</time></trkpt><trkpt lat="45.3824167" lon="7.624375"><ele>502.79999999999995</ele><time>2026-04-25T12:51:19.696Z</time></trkpt><trkpt lat="45.3823433" lon="7.6245367"><ele>503.0</ele><time>2026-04-25T12:51:20.696Z</time></trkpt><trkpt lat="45.3822433" lon="7.6247217"><ele>502.66666666666663</ele><time>2026-04-25T12:51:21.696Z</time></trkpt><trkpt lat="45.3821433" lon="7.6249367"><ele>502.33333333333337</ele><time>2026-04-25T12:51:22.696Z</time></trkpt><trkpt lat="45.382055" lon="7.625115"><ele>502.0</ele><time>2026-04-25T12:51:23.696Z</time></trkpt><trkpt lat="45.3820033" lon="7.6252867"><ele>497.5</ele><time>2026-04-25T12:51:24.696Z</time></trkpt><trkpt lat="45.3819383" lon="7.625445"><ele>493.0</ele><time>2026-04-25T12:51:25.696Z</time></trkpt><trkpt lat="45.3818883" lon="7.625605"><ele>488.5</ele><time>2026-04-25T12:51:26.696Z</time></trkpt><trkpt lat="45.38183" lon="7.625755"><ele>484.0</ele><time>2026-04-25T12:51:27.696Z</time></trkpt><trkpt lat="45.3817517" lon="7.6258817"><ele>484.0</ele><time>2026-04-25T12:51:28.696Z</time></trkpt><trkpt lat="45.3816617" lon="7.6259967"><ele>484.0</ele><time>2026-04-25T12:51:29.697Z</time></trkpt><trkpt lat="45.3815567" lon="7.6260917"><ele>484.0</ele><time>2026-04-25T12:51:30.696Z</time></trkpt><trkpt lat="45.3814417" lon="7.626165"><ele>484.0</ele><time>2026-04-25T12:51:31.696Z</time></trkpt><trkpt lat="45.38132" lon="7.6262283"><ele>480.79999999999995</ele><time>2026-04-25T12:51:32.696Z</time></trkpt><trkpt lat="45.3812067" lon="7.62628"><ele>477.59999999999997</ele><time>2026-04-25T12:51:33.696Z</time></trkpt><trkpt lat="45.3810933" lon="7.6263517"><ele>474.4</ele><time>2026-04-25T12:51:34.696Z</time></trkpt><trkpt lat="45.38101" lon="7.6263917"><ele>471.2</ele><time>2026-04-25T12:51:35.696Z</time></trkpt><trkpt lat="45.3809467" lon="7.6264217"><ele>468.0</ele><time>2026-04-25T12:51:36.696Z</time></trkpt><trkpt lat="45.38088" lon="7.6265217"><ele>468.0</ele><time>2026-04-25T12:51:38.696Z</time></trkpt><trkpt lat="45.38095" lon="7.62664"><ele>468.0</ele><time>2026-04-25T12:51:40.696Z</time></trkpt><trkpt lat="45.3810433" lon="7.626655"><ele>468.0</ele><time>2026-04-25T12:51:41.696Z</time></trkpt><trkpt lat="45.3811717" lon="7.62662"><ele>468.0</ele><time>2026-04-25T12:51:42.696Z</time></trkpt><trkpt lat="45.3813317" lon="7.6265317"><ele>468.33333333333337</ele><time>2026-04-25T12:51:43.696Z</time></trkpt><trkpt lat="45.3815183" lon="7.6263983"><ele>468.6666666666667</ele><time>2026-04-25T12:51:44.697Z</time></trkpt><trkpt lat="45.38167" lon="7.62629"><ele>469.0</ele><time>2026-04-25T12:51:45.696Z</time></trkpt><trkpt lat="45.3817983" lon="7.6261967"><ele>469.0</ele><time>2026-04-25T12:51:46.696Z</time></trkpt><trkpt lat="45.3819" lon="7.626125"><ele>469.0</ele><time>2026-04-25T12:51:47.696Z</time></trkpt><trkpt lat="45.3820067" lon="7.6261017"><ele>469.0</ele><time>2026-04-25T12:51:48.696Z</time></trkpt><trkpt lat="45.382095" lon="7.6261417"><ele>469.0</ele><time>2026-04-25T12:51:49.696Z</time></trkpt><trkpt lat="45.3821567" lon="7.6262233"><ele>469.0</ele><time>2026-04-25T12:51:50.696Z</time></trkpt><trkpt lat="45.38219" lon="7.6263467"><ele>469.0</ele><time>2026-04-25T12:51:51.696Z</time></trkpt><trkpt lat="45.3822" lon="7.6264867"><ele>469.0</ele><time>2026-04-25T12:51:52.696Z</time></trkpt><trkpt lat="45.3821683" lon="7.6266717"><ele>469.0</ele><time>2026-04-25T12:51:53.696Z</time></trkpt><trkpt lat="45.3821" lon="7.6269033"><ele>469.0</ele><time>2026-04-25T12:51:54.696Z</time></trkpt><trkpt lat="45.3820633" lon="7.6270967"><ele>468.0</ele><time>2026-04-25T12:51:55.696Z</time></trkpt><trkpt lat="45.38201" lon="7.6272783"><ele>467.0</ele><time>2026-04-25T12:51:56.696Z</time></trkpt><trkpt lat="45.3819383" lon="7.6274533"><ele>466.0</ele><time>2026-04-25T12:51:57.696Z</time></trkpt><trkpt lat="45.381835" lon="7.62761"><ele>465.0</ele><time>2026-04-25T12:51:58.696Z</time></trkpt><trkpt lat="45.38174" lon="7.62775"><ele>464.5</ele><time>2026-04-25T12:51:59.696Z</time></trkpt><trkpt lat="45.3816567" lon="7.6278883"><ele>464.0</ele><time>2026-04-25T12:52:00.696Z</time></trkpt><trkpt lat="45.381585" lon="7.6280233"><ele>463.5</ele><time>2026-04-25T12:52:01.696Z</time></trkpt><trkpt lat="45.3815483" lon="7.6281617"><ele>463.0</ele><time>2026-04-25T12:52:02.696Z</time></trkpt><trkpt lat="45.3815417" lon="7.62832"><ele>463.0</ele><time>2026-04-25T12:52:03.696Z</time></trkpt><trkpt lat="45.381565" lon="7.628495"><ele>463.0</ele><time>2026-04-25T12:52:04.696Z</time></trkpt><trkpt lat="45.3816217" lon="7.6286833"><ele>463.0</ele><time>2026-04-25T12:52:05.696Z</time></trkpt><trkpt lat="45.3816767" lon="7.62888"><ele>463.0</ele><time>2026-04-25T12:52:06.696Z</time></trkpt><trkpt lat="45.3817233" lon="7.62907"><ele>462.5</ele><time>2026-04-25T12:52:07.696Z</time></trkpt><trkpt lat="45.381755" lon="7.6292683"><ele>462.0</ele><time>2026-04-25T12:52:08.696Z</time></trkpt><trkpt lat="45.3817967" lon="7.6294783"><ele>461.5</ele><time>2026-04-25T12:52:09.696Z</time></trkpt><trkpt lat="45.3818333" lon="7.6296817"><ele>461.0</ele><time>2026-04-25T12:52:10.696Z</time></trkpt><trkpt lat="45.3818433" lon="7.6298733"><ele>459.8</ele><time>2026-04-25T12:52:11.696Z</time></trkpt><trkpt lat="45.381845" lon="7.6300467"><ele>458.6</ele><time>2026-04-25T12:52:12.696Z</time></trkpt><trkpt lat="45.3818517" lon="7.63021"><ele>457.4</ele><time>2026-04-25T12:52:13.697Z</time></trkpt><trkpt lat="45.3818583" lon="7.6303433"><ele>456.2</ele><time>2026-04-25T12:52:14.696Z</time></trkpt><trkpt lat="45.3818633" lon="7.63045"><ele>455.0</ele><time>2026-04-25T12:52:15.696Z</time></trkpt><trkpt lat="45.381855" lon="7.6305783"><ele>454.0</ele><time>2026-04-25T12:52:17.696Z</time></trkpt><trkpt lat="45.3818617" lon="7.6306967"><ele>453.0</ele><time>2026-04-25T12:52:21.696Z</time></trkpt><trkpt lat="45.3818633" lon="7.630825"><ele>452.0</ele><time>2026-04-25T12:52:24.696Z</time></trkpt><trkpt lat="45.381895" lon="7.6309217"><ele>451.0</ele><time>2026-04-25T12:52:25.696Z</time></trkpt><trkpt lat="45.3819517" lon="7.6310517"><ele>450.0</ele><time>2026-04-25T12:52:26.696Z</time></trkpt><trkpt lat="45.38205" lon="7.63121"><ele>449.33333333333337</ele><time>2026-04-25T12:52:27.696Z</time></trkpt><trkpt lat="45.38219" lon="7.63142"><ele>448.6666666666667</ele><time>2026-04-25T12:52:28.696Z</time></trkpt><trkpt lat="45.3822917" lon="7.6316383"><ele>448.0</ele><time>2026-04-25T12:52:29.696Z</time></trkpt><trkpt lat="45.3823983" lon="7.6318467"><ele>447.0</ele><time>2026-04-25T12:52:30.696Z</time></trkpt><trkpt lat="45.3824783" lon="7.6320467"><ele>446.0</ele><time>2026-04-25T12:52:31.697Z</time></trkpt><trkpt lat="45.3825783" lon="7.6322383"><ele>445.0</ele><time>2026-04-25T12:52:32.696Z</time></trkpt><trkpt lat="45.3826683" lon="7.632435"><ele>445.0</ele><time>2026-04-25T12:52:33.696Z</time></trkpt><trkpt lat="45.382745" lon="7.632615"><ele>445.0</ele><time>2026-04-25T12:52:34.696Z</time></trkpt><trkpt lat="45.3828067" lon="7.6327833"><ele>445.0</ele><time>2026-04-25T12:52:35.696Z</time></trkpt><trkpt lat="45.3828667" lon="7.6329567"><ele>445.0</ele><time>2026-04-25T12:52:36.696Z</time></trkpt><trkpt lat="45.382925" lon="7.6331333"><ele>444.5</ele><time>2026-04-25T12:52:37.696Z</time></trkpt><trkpt lat="45.38297" lon="7.63332"><ele>444.0</ele><time>2026-04-25T12:52:38.696Z</time></trkpt><trkpt lat="45.3830117" lon="7.63352"><ele>443.5</ele><time>2026-04-25T12:52:39.696Z</time></trkpt><trkpt lat="45.38305" lon="7.6337217"><ele>443.0</ele><time>2026-04-25T12:52:40.696Z</time></trkpt><trkpt lat="45.3830933" lon="7.63392"><ele>442.75</ele><time>2026-04-25T12:52:41.696Z</time></trkpt><trkpt lat="45.3831483" lon="7.634115"><ele>442.5</ele><time>2026-04-25T12:52:42.696Z</time></trkpt><trkpt lat="45.3832217" lon="7.634295"><ele>442.25</ele><time>2026-04-25T12:52:43.696Z</time></trkpt><trkpt lat="45.3833283" lon="7.634455"><ele>442.0</ele><time>2026-04-25T12:52:44.696Z</time></trkpt><trkpt lat="45.38346" lon="7.63458"><ele>440.33333333333337</ele><time>2026-04-25T12:52:45.696Z</time></trkpt><trkpt lat="45.3836217" lon="7.6346733"><ele>438.66666666666663</ele><time>2026-04-25T12:52:46.696Z</time></trkpt><trkpt lat="45.3837783" lon="7.63475"><ele>437.0</ele><time>2026-04-25T12:52:47.696Z</time></trkpt><trkpt lat="45.3839333" lon="7.6348267"><ele>436.66666666666663</ele><time>2026-04-25T12:52:48.696Z</time></trkpt><trkpt lat="45.3840983" lon="7.6349617"><ele>436.33333333333337</ele><time>2026-04-25T12:52:49.696Z</time></trkpt><trkpt lat="45.3842333" lon="7.63512"><ele>436.0</ele><time>2026-04-25T12:52:50.696Z</time></trkpt><trkpt lat="45.3843683" lon="7.6352967"><ele>433.6666666666667</ele><time>2026-04-25T12:52:51.696Z</time></trkpt><trkpt lat="45.3845" lon="7.6354517"><ele>431.33333333333337</ele><time>2026-04-25T12:52:52.696Z</time></trkpt><trkpt lat="45.3846317" lon="7.635595"><ele>429.0</ele><time>2026-04-25T12:52:53.696Z</time></trkpt><trkpt lat="45.3847533" lon="7.6357367"><ele>430.33333333333337</ele><time>2026-04-25T12:52:54.696Z</time></trkpt><trkpt lat="45.3848717" lon="7.6358917"><ele>431.6666666666667</ele><time>2026-04-25T12:52:55.696Z</time></trkpt><trkpt lat="45.3849767" lon="7.6360483"><ele>433.0</ele><time>2026-04-25T12:52:56.696Z</time></trkpt><trkpt lat="45.3850567" lon="7.6362183"><ele>433.0</ele><time>2026-04-25T12:52:57.696Z</time></trkpt><trkpt lat="45.385125" lon="7.6363867"><ele>433.0</ele><time>2026-04-25T12:52:58.696Z</time></trkpt><trkpt lat="45.3851817" lon="7.63653"><ele>433.0</ele><time>2026-04-25T12:52:59.696Z</time></trkpt><trkpt lat="45.3852583" lon="7.636645"><ele>433.0</ele><time>2026-04-25T12:53:00.696Z</time></trkpt><trkpt lat="45.38536" lon="7.636725"><ele>433.0</ele><time>2026-04-25T12:53:01.696Z</time></trkpt><trkpt lat="45.3855067" lon="7.6367533"><ele>433.0</ele><time>2026-04-25T12:53:02.696Z</time></trkpt><trkpt lat="45.385685" lon="7.6367567"><ele>433.0</ele><time>2026-04-25T12:53:03.696Z</time></trkpt><trkpt lat="45.3858867" lon="7.6367733"><ele>434.33333333333337</ele><time>2026-04-25T12:53:04.696Z</time></trkpt><trkpt lat="45.38608" lon="7.63677"><ele>435.66666666666663</ele><time>2026-04-25T12:53:05.696Z</time></trkpt><trkpt lat="45.386265" lon="7.6367683"><ele>437.0</ele><time>2026-04-25T12:53:06.696Z</time></trkpt><trkpt lat="45.3864383" lon="7.63674"><ele>437.3333333333333</ele><time>2026-04-25T12:53:07.696Z</time></trkpt><trkpt lat="45.3865867" lon="7.6367117"><ele>437.66666666666663</ele><time>2026-04-25T12:53:08.696Z</time></trkpt><trkpt lat="45.3867383" lon="7.6366483"><ele>438.0</ele><time>2026-04-25T12:53:09.696Z</time></trkpt><trkpt lat="45.3868867" lon="7.6365983"><ele>438.0</ele><time>2026-04-25T12:53:10.696Z</time></trkpt><trkpt lat="45.387055" lon="7.6365733"><ele>438.0</ele><time>2026-04-25T12:53:11.696Z</time></trkpt><trkpt lat="45.38723" lon="7.6365933"><ele>438.0</ele><time>2026-04-25T12:53:12.696Z</time></trkpt><trkpt lat="45.3873983" lon="7.6366417"><ele>438.33333333333337</ele><time>2026-04-25T12:53:13.696Z</time></trkpt><trkpt lat="45.3875633" lon="7.6366933"><ele>438.6666666666667</ele><time>2026-04-25T12:53:14.696Z</time></trkpt><trkpt lat="45.3877217" lon="7.6367483"><ele>439.0</ele><time>2026-04-25T12:53:15.696Z</time></trkpt><trkpt lat="45.3878567" lon="7.6368217"><ele>439.0</ele><time>2026-04-25T12:53:16.696Z</time></trkpt><trkpt lat="45.3879883" lon="7.6368933"><ele>439.0</ele><time>2026-04-25T12:53:17.696Z</time></trkpt><trkpt lat="45.3881133" lon="7.6369967"><ele>439.0</ele><time>2026-04-25T12:53:18.696Z</time></trkpt><trkpt lat="45.3882433" lon="7.637135"><ele>439.0</ele><time>2026-04-25T12:53:19.696Z</time></trkpt><trkpt lat="45.3883733" lon="7.6373183"><ele>439.33333333333337</ele><time>2026-04-25T12:53:20.696Z</time></trkpt><trkpt lat="45.3885" lon="7.6375083"><ele>439.66666666666663</ele><time>2026-04-25T12:53:21.696Z</time></trkpt><trkpt lat="45.38862" lon="7.6376683"><ele>440.0</ele><time>2026-04-25T12:53:22.696Z</time></trkpt><trkpt lat="45.3887367" lon="7.63782"><ele>442.3333333333333</ele><time>2026-04-25T12:53:23.696Z</time></trkpt><trkpt lat="45.388855" lon="7.6379583"><ele>444.66666666666663</ele><time>2026-04-25T12:53:24.696Z</time></trkpt><trkpt lat="45.388975" lon="7.6381"><ele>447.0</ele><time>2026-04-25T12:53:25.696Z</time></trkpt><trkpt lat="45.38908" lon="7.6382433"><ele>447.0</ele><time>2026-04-25T12:53:26.696Z</time></trkpt><trkpt lat="45.3891733" lon="7.6384"><ele>447.0</ele><time>2026-04-25T12:53:27.696Z</time></trkpt><trkpt lat="45.3892883" lon="7.638585"><ele>447.0</ele><time>2026-04-25T12:53:28.696Z</time></trkpt><trkpt lat="45.3893967" lon="7.6387683"><ele>445.66666666666663</ele><time>2026-04-25T12:53:29.696Z</time></trkpt><trkpt lat="45.3894867" lon="7.63897"><ele>444.3333333333333</ele><time>2026-04-25T12:53:30.696Z</time></trkpt><trkpt lat="45.38958" lon="7.6391667"><ele>443.0</ele><time>2026-04-25T12:53:31.696Z</time></trkpt><trkpt lat="45.389675" lon="7.6393667"><ele>442.66666666666663</ele><time>2026-04-25T12:53:32.696Z</time></trkpt><trkpt lat="45.3897717" lon="7.6395617"><ele>442.33333333333337</ele><time>2026-04-25T12:53:33.697Z</time></trkpt><trkpt lat="45.3898833" lon="7.6397517"><ele>442.0</ele><time>2026-04-25T12:53:34.696Z</time></trkpt><trkpt lat="45.390025" lon="7.6399283"><ele>442.0</ele><time>2026-04-25T12:53:35.696Z</time></trkpt><trkpt lat="45.3901733" lon="7.6400867"><ele>442.0</ele><time>2026-04-25T12:53:36.696Z</time></trkpt><trkpt lat="45.3903133" lon="7.6402067"><ele>442.0</ele><time>2026-04-25T12:53:37.696Z</time></trkpt><trkpt lat="45.3904533" lon="7.6403183"><ele>441.5</ele><time>2026-04-25T12:53:38.696Z</time></trkpt><trkpt lat="45.3905833" lon="7.6404233"><ele>441.0</ele><time>2026-04-25T12:53:39.696Z</time></trkpt><trkpt lat="45.390705" lon="7.640525"><ele>440.5</ele><time>2026-04-25T12:53:40.696Z</time></trkpt><trkpt lat="45.3908283" lon="7.6406033"><ele>440.0</ele><time>2026-04-25T12:53:41.696Z</time></trkpt><trkpt lat="45.390935" lon="7.6407017"><ele>440.0</ele><time>2026-04-25T12:53:42.696Z</time></trkpt><trkpt lat="45.3910317" lon="7.6408167"><ele>440.0</ele><time>2026-04-25T12:53:43.696Z</time></trkpt><trkpt lat="45.3911033" lon="7.6409467"><ele>440.0</ele><time>2026-04-25T12:53:44.696Z</time></trkpt><trkpt lat="45.3911133" lon="7.6411117"><ele>440.0</ele><time>2026-04-25T12:53:45.696Z</time></trkpt><trkpt lat="45.39105" lon="7.6412867"><ele>439.25</ele><time>2026-04-25T12:53:46.696Z</time></trkpt><trkpt lat="45.390945" lon="7.641445"><ele>438.5</ele><time>2026-04-25T12:53:47.696Z</time></trkpt><trkpt lat="45.390835" lon="7.6415983"><ele>437.75</ele><time>2026-04-25T12:53:48.696Z</time></trkpt><trkpt lat="45.3907567" lon="7.6417283"><ele>437.0</ele><time>2026-04-25T12:53:49.696Z</time></trkpt><trkpt lat="45.3906917" lon="7.6418467"><ele>437.0</ele><time>2026-04-25T12:53:50.696Z</time></trkpt><trkpt lat="45.3906333" lon="7.6419533"><ele>437.00000000000006</ele><time>2026-04-25T12:53:51.696Z</time></trkpt><trkpt lat="45.3905717" lon="7.64206"><ele>437.00000000000006</ele><time>2026-04-25T12:53:52.696Z</time></trkpt><trkpt lat="45.3905117" lon="7.6421733"><ele>437.0</ele><time>2026-04-25T12:53:53.696Z</time></trkpt><trkpt lat="45.390455" lon="7.6423017"><ele>437.0</ele><time>2026-04-25T12:53:54.696Z</time></trkpt><trkpt lat="45.3904017" lon="7.6424383"><ele>437.40000000000003</ele><time>2026-04-25T12:53:55.696Z</time></trkpt><trkpt lat="45.390345" lon="7.6425667"><ele>437.80000000000007</ele><time>2026-04-25T12:53:56.696Z</time></trkpt><trkpt lat="45.3903" lon="7.64269"><ele>438.2</ele><time>2026-04-25T12:53:57.696Z</time></trkpt><trkpt lat="45.3902517" lon="7.64281"><ele>438.6</ele><time>2026-04-25T12:53:58.696Z</time></trkpt><trkpt lat="45.390205" lon="7.642925"><ele>439.0</ele><time>2026-04-25T12:53:59.696Z</time></trkpt><trkpt lat="45.3901583" lon="7.643035"><ele>437.79999999999995</ele><time>2026-04-25T12:54:00.696Z</time></trkpt><trkpt lat="45.3901133" lon="7.6431383"><ele>436.59999999999997</ele><time>2026-04-25T12:54:01.696Z</time></trkpt><trkpt lat="45.3900667" lon="7.6432533"><ele>435.4</ele><time>2026-04-25T12:54:02.696Z</time></trkpt><trkpt lat="45.3900067" lon="7.6433667"><ele>434.2</ele><time>2026-04-25T12:54:03.696Z</time></trkpt><trkpt lat="45.3899267" lon="7.6434767"><ele>433.0</ele><time>2026-04-25T12:54:04.696Z</time></trkpt><trkpt lat="45.389825" lon="7.6436017"><ele>431.5</ele><time>2026-04-25T12:54:05.696Z</time></trkpt><trkpt lat="45.3897117" lon="7.6437217"><ele>430.0</ele><time>2026-04-25T12:54:06.696Z</time></trkpt><trkpt lat="45.3896083" lon="7.64383"><ele>428.5</ele><time>2026-04-25T12:54:07.696Z</time></trkpt><trkpt lat="45.3895133" lon="7.643935"><ele>427.0</ele><time>2026-04-25T12:54:08.696Z</time></trkpt><trkpt lat="45.389425" lon="7.6440283"><ele>427.0</ele><time>2026-04-25T12:54:09.696Z</time></trkpt><trkpt lat="45.3893183" lon="7.6441233"><ele>427.0</ele><time>2026-04-25T12:54:10.696Z</time></trkpt><trkpt lat="45.389215" lon="7.64425"><ele>427.0</ele><time>2026-04-25T12:54:11.696Z</time></trkpt><trkpt lat="45.3890983" lon="7.64437"><ele>427.0</ele><time>2026-04-25T12:54:12.696Z</time></trkpt><trkpt lat="45.3889667" lon="7.6444917"><ele>425.6666666666667</ele><time>2026-04-25T12:54:13.696Z</time></trkpt><trkpt lat="45.3888183" lon="7.6446367"><ele>424.33333333333337</ele><time>2026-04-25T12:54:14.696Z</time></trkpt><trkpt lat="45.3886617" lon="7.6447867"><ele>423.0</ele><time>2026-04-25T12:54:15.696Z</time></trkpt><trkpt lat="45.3885217" lon="7.6449333"><ele>423.0</ele><time>2026-04-25T12:54:16.696Z</time></trkpt><trkpt lat="45.388385" lon="7.6450733"><ele>423.0</ele><time>2026-04-25T12:54:17.696Z</time></trkpt><trkpt lat="45.3882583" lon="7.6451933"><ele>423.0</ele><time>2026-04-25T12:54:18.696Z</time></trkpt><trkpt lat="45.3881417" lon="7.645305"><ele>422.5</ele><time>2026-04-25T12:54:19.696Z</time></trkpt><trkpt lat="45.3880233" lon="7.6454133"><ele>422.0</ele><time>2026-04-25T12:54:20.696Z</time></trkpt><trkpt lat="45.3879183" lon="7.6455233"><ele>421.5</ele><time>2026-04-25T12:54:21.696Z</time></trkpt><trkpt lat="45.387815" lon="7.6456317"><ele>421.0</ele><time>2026-04-25T12:54:22.696Z</time></trkpt><trkpt lat="45.3877067" lon="7.6457283"><ele>420.8</ele><time>2026-04-25T12:54:23.696Z</time></trkpt><trkpt lat="45.3876133" lon="7.6458183"><ele>420.6</ele><time>2026-04-25T12:54:24.697Z</time></trkpt><trkpt lat="45.3875317" lon="7.6458933"><ele>420.4</ele><time>2026-04-25T12:54:25.696Z</time></trkpt><trkpt lat="45.387455" lon="7.6459683"><ele>420.2</ele><time>2026-04-25T12:54:26.696Z</time></trkpt><trkpt lat="45.3874017" lon="7.6461067"><ele>420.0</ele><time>2026-04-25T12:54:28.696Z</time></trkpt><trkpt lat="45.387465" lon="7.6462233"><ele>419.6</ele><time>2026-04-25T12:54:30.696Z</time></trkpt><trkpt lat="45.3875317" lon="7.646235"><ele>419.2</ele><time>2026-04-25T12:54:31.696Z</time></trkpt><trkpt lat="45.3876183" lon="7.64626"><ele>418.79999999999995</ele><time>2026-04-25T12:54:32.696Z</time></trkpt><trkpt lat="45.3877233" lon="7.64632"><ele>418.4</ele><time>2026-04-25T12:54:33.696Z</time></trkpt><trkpt lat="45.3878433" lon="7.6464417"><ele>418.0</ele><time>2026-04-25T12:54:34.696Z</time></trkpt><trkpt lat="45.3880033" lon="7.646615"><ele>418.0</ele><time>2026-04-25T12:54:35.696Z</time></trkpt><trkpt lat="45.388175" lon="7.6468033"><ele>418.0</ele><time>2026-04-25T12:54:36.696Z</time></trkpt><trkpt lat="45.3883333" lon="7.646975"><ele>418.0</ele><time>2026-04-25T12:54:37.696Z</time></trkpt><trkpt lat="45.3884617" lon="7.6471217"><ele>418.0</ele><time>2026-04-25T12:54:38.696Z</time></trkpt><trkpt lat="45.3885817" lon="7.647255"><ele>418.0</ele><time>2026-04-25T12:54:39.697Z</time></trkpt><trkpt lat="45.38869" lon="7.64738"><ele>418.0</ele><time>2026-04-25T12:54:40.696Z</time></trkpt><trkpt lat="45.3888" lon="7.6474933"><ele>418.0</ele><time>2026-04-25T12:54:41.696Z</time></trkpt><trkpt lat="45.3888933" lon="7.647605"><ele>418.2</ele><time>2026-04-25T12:54:42.696Z</time></trkpt><trkpt lat="45.3889883" lon="7.6476967"><ele>418.4</ele><time>2026-04-25T12:54:43.696Z</time></trkpt><trkpt lat="45.389075" lon="7.64779"><ele>418.59999999999997</ele><time>2026-04-25T12:54:44.696Z</time></trkpt><trkpt lat="45.3891583" lon="7.6478833"><ele>418.79999999999995</ele><time>2026-04-25T12:54:45.696Z</time></trkpt><trkpt lat="45.3892433" lon="7.6479683"><ele>419.0</ele><time>2026-04-25T12:54:46.696Z</time></trkpt><trkpt lat="45.3893383" lon="7.6480617"><ele>419.0</ele><time>2026-04-25T12:54:47.696Z</time></trkpt><trkpt lat="45.3894333" lon="7.6481667"><ele>419.0</ele><time>2026-04-25T12:54:48.696Z</time></trkpt><trkpt lat="45.38953" lon="7.6482667"><ele>419.0</ele><time>2026-04-25T12:54:49.696Z</time></trkpt><trkpt lat="45.389625" lon="7.6483633"><ele>419.0</ele><time>2026-04-25T12:54:50.696Z</time></trkpt><trkpt lat="45.3897183" lon="7.648465"><ele>418.6</ele><time>2026-04-25T12:54:51.696Z</time></trkpt><trkpt lat="45.3897783" lon="7.64855"><ele>418.2</ele><time>2026-04-25T12:54:52.696Z</time></trkpt><trkpt lat="45.3898267" lon="7.6486083"><ele>417.8</ele><time>2026-04-25T12:54:53.695Z</time></trkpt><trkpt lat="45.3899017" lon="7.6487"><ele>417.40000000000003</ele><time>2026-04-25T12:54:55.695Z</time></trkpt><trkpt lat="45.38991" lon="7.6488117"><ele>417.0</ele><time>2026-04-25T12:54:57.695Z</time></trkpt><trkpt lat="45.3898483" lon="7.648965"><ele>417.25</ele><time>2026-04-25T12:54:59.695Z</time></trkpt><trkpt lat="45.3897733" lon="7.6490817"><ele>417.5</ele><time>2026-04-25T12:55:00.695Z</time></trkpt><trkpt lat="45.38968" lon="7.6492167"><ele>417.75</ele><time>2026-04-25T12:55:01.695Z</time></trkpt><trkpt lat="45.3895983" lon="7.6493317"><ele>418.0</ele><time>2026-04-25T12:55:02.696Z</time></trkpt><trkpt lat="45.3895133" lon="7.6494183"><ele>418.0</ele><time>2026-04-25T12:55:03.695Z</time></trkpt><trkpt lat="45.3894483" lon="7.6494883"><ele>418.0</ele><time>2026-04-25T12:55:04.695Z</time></trkpt><trkpt lat="45.38939" lon="7.6495383"><ele>418.0</ele><time>2026-04-25T12:55:05.695Z</time></trkpt><trkpt lat="45.3893" lon="7.649545"><ele>418.0</ele><time>2026-04-25T12:55:07.695Z</time></trkpt><trkpt lat="45.3891967" lon="7.6493867"><ele>418.0</ele><time>2026-04-25T12:55:09.695Z</time></trkpt><trkpt lat="45.3891267" lon="7.6493167"><ele>418.00000000000006</ele><time>2026-04-25T12:55:10.695Z</time></trkpt><trkpt lat="45.3890767" lon="7.6492283"><ele>418.0</ele><time>2026-04-25T12:55:11.695Z</time></trkpt><trkpt lat="45.3890217" lon="7.6491433"><ele>418.0</ele><time>2026-04-25T12:55:12.695Z</time></trkpt><trkpt lat="45.3889783" lon="7.649055"><ele>418.0</ele><time>2026-04-25T12:55:13.696Z</time></trkpt><trkpt lat="45.3889483" lon="7.6489683"><ele>418.00000000000006</ele><time>2026-04-25T12:55:14.695Z</time></trkpt><trkpt lat="45.3889" lon="7.648815"><ele>418.0</ele><time>2026-04-25T12:55:16.695Z</time></trkpt><trkpt lat="45.3888533" lon="7.6487117"><ele>417.75</ele><time>2026-04-25T12:55:18.695Z</time></trkpt><trkpt lat="45.3887367" lon="7.6487133"><ele>417.5</ele><time>2026-04-25T12:55:26.695Z</time></trkpt><trkpt lat="45.3886617" lon="7.6487967"><ele>417.25</ele><time>2026-04-25T12:55:27.695Z</time></trkpt><trkpt lat="45.38856" lon="7.6489333"><ele>417.0</ele><time>2026-04-25T12:55:28.695Z</time></trkpt><trkpt lat="45.388445" lon="7.6491"><ele>417.0</ele><time>2026-04-25T12:55:29.695Z</time></trkpt><trkpt lat="45.3883283" lon="7.6492783"><ele>417.0</ele><time>2026-04-25T12:55:30.695Z</time></trkpt><trkpt lat="45.3882433" lon="7.6494083"><ele>417.0</ele><time>2026-04-25T12:55:31.695Z</time></trkpt><trkpt lat="45.3881683" lon="7.6495217"><ele>417.0</ele><time>2026-04-25T12:55:32.695Z</time></trkpt><trkpt lat="45.38811" lon="7.6495967"><ele>416.8</ele><time>2026-04-25T12:55:33.695Z</time></trkpt><trkpt lat="45.3880283" lon="7.6496983"><ele>416.6</ele><time>2026-04-25T12:55:35.695Z</time></trkpt><trkpt lat="45.3880167" lon="7.6497917"><ele>416.40000000000003</ele><time>2026-04-25T12:55:37.695Z</time></trkpt><trkpt lat="45.3880633" lon="7.6499133"><ele>416.20000000000005</ele><time>2026-04-25T12:55:39.695Z</time></trkpt><trkpt lat="45.3881383" lon="7.650015"><ele>416.0</ele><time>2026-04-25T12:55:40.695Z</time></trkpt><trkpt lat="45.3882317" lon="7.6501283"><ele>416.0</ele><time>2026-04-25T12:55:41.695Z</time></trkpt><trkpt lat="45.3883167" lon="7.6502217"><ele>416.0</ele><time>2026-04-25T12:55:42.695Z</time></trkpt><trkpt lat="45.3884" lon="7.6503083"><ele>416.0</ele><time>2026-04-25T12:55:43.696Z</time></trkpt><trkpt lat="45.388465" lon="7.6503817"><ele>416.0</ele><time>2026-04-25T12:55:44.695Z</time></trkpt><trkpt lat="45.3885283" lon="7.6504417"><ele>416.0</ele><time>2026-04-25T12:55:45.695Z</time></trkpt><trkpt lat="45.388605" lon="7.6504883"><ele>416.0</ele><time>2026-04-25T12:55:47.695Z</time></trkpt><trkpt lat="45.3886783" lon="7.6504883"><ele>416.0</ele><time>2026-04-25T12:55:51.695Z</time></trkpt><trkpt lat="45.3887617" lon="7.6504867"><ele>416.0</ele><time>2026-04-25T12:55:53.695Z</time></trkpt><trkpt lat="45.38883" lon="7.6504417"><ele>416.0</ele><time>2026-04-25T12:55:54.695Z</time></trkpt><trkpt lat="45.388925" lon="7.6503667"><ele>416.0</ele><time>2026-04-25T12:55:55.695Z</time></trkpt><trkpt lat="45.3890283" lon="7.6502667"><ele>415.0</ele><time>2026-04-25T12:55:56.695Z</time></trkpt><trkpt lat="45.3891383" lon="7.6501283"><ele>414.0</ele><time>2026-04-25T12:55:57.695Z</time></trkpt><trkpt lat="45.3892433" lon="7.6500167"><ele>413.0</ele><time>2026-04-25T12:55:58.695Z</time></trkpt><trkpt lat="45.3893317" lon="7.6499733"><ele>412.0</ele><time>2026-04-25T12:55:59.695Z</time></trkpt><trkpt lat="45.389415" lon="7.6499917"><ele>412.0</ele><time>2026-04-25T12:56:00.695Z</time></trkpt><trkpt lat="45.3895117" lon="7.6500333"><ele>412.0</ele><time>2026-04-25T12:56:01.695Z</time></trkpt><trkpt lat="45.3896183" lon="7.6501417"><ele>412.0</ele><time>2026-04-25T12:56:02.695Z</time></trkpt><trkpt lat="45.3897317" lon="7.65033"><ele>412.0</ele><time>2026-04-25T12:56:03.695Z</time></trkpt><trkpt lat="45.3898383" lon="7.6504967"><ele>411.0</ele><time>2026-04-25T12:56:04.695Z</time></trkpt><trkpt lat="45.3899383" lon="7.6506183"><ele>410.0</ele><time>2026-04-25T12:56:05.695Z</time></trkpt><trkpt lat="45.3900317" lon="7.650715"><ele>409.0</ele><time>2026-04-25T12:56:06.695Z</time></trkpt><trkpt lat="45.39011" lon="7.65079"><ele>408.0</ele><time>2026-04-25T12:56:07.695Z</time></trkpt><trkpt lat="45.3901883" lon="7.6508667"><ele>407.0</ele><time>2026-04-25T12:56:08.695Z</time></trkpt><trkpt lat="45.3902633" lon="7.65093"><ele>407.0</ele><time>2026-04-25T12:56:09.695Z</time></trkpt><trkpt lat="45.3903317" lon="7.6509917"><ele>407.0</ele><time>2026-04-25T12:56:10.695Z</time></trkpt><trkpt lat="45.3903933" lon="7.65103"><ele>407.0</ele><time>2026-04-25T12:56:11.695Z</time></trkpt><trkpt lat="45.39048" lon="7.6510883"><ele>407.0</ele><time>2026-04-25T12:56:13.695Z</time></trkpt><trkpt lat="45.3905367" lon="7.6511317"><ele>407.0</ele><time>2026-04-25T12:56:16.695Z</time></trkpt><trkpt lat="45.3906667" lon="7.65128"><ele>407.25</ele><time>2026-04-25T12:56:31.695Z</time></trkpt><trkpt lat="45.3907433" lon="7.6513683"><ele>407.5</ele><time>2026-04-25T12:56:32.695Z</time></trkpt><trkpt lat="45.3908467" lon="7.65149"><ele>407.75</ele><time>2026-04-25T12:56:33.695Z</time></trkpt><trkpt lat="45.39099" lon="7.651655"><ele>408.0</ele><time>2026-04-25T12:56:34.695Z</time></trkpt><trkpt lat="45.3911267" lon="7.6518183"><ele>407.25</ele><time>2026-04-25T12:56:35.695Z</time></trkpt><trkpt lat="45.3912533" lon="7.6519733"><ele>406.5</ele><time>2026-04-25T12:56:36.695Z</time></trkpt><trkpt lat="45.3913767" lon="7.6520883"><ele>405.75</ele><time>2026-04-25T12:56:37.695Z</time></trkpt><trkpt lat="45.3914767" lon="7.652195"><ele>405.0</ele><time>2026-04-25T12:56:38.695Z</time></trkpt><trkpt lat="45.391555" lon="7.6522833"><ele>404.4</ele><time>2026-04-25T12:56:39.695Z</time></trkpt><trkpt lat="45.3916167" lon="7.6523583"><ele>403.8</ele><time>2026-04-25T12:56:40.695Z</time></trkpt><trkpt lat="45.3917" lon="7.6524683"><ele>403.20000000000005</ele><time>2026-04-25T12:56:42.695Z</time></trkpt><trkpt lat="45.3917433" lon="7.652545"><ele>402.6</ele><time>2026-04-25T12:56:44.695Z</time></trkpt><trkpt lat="45.391835" lon="7.6525417"><ele>402.0</ele><time>2026-04-25T12:56:48.695Z</time></trkpt><trkpt lat="45.3919533" lon="7.65241"><ele>402.0</ele><time>2026-04-25T12:56:50.695Z</time></trkpt><trkpt lat="45.39204" lon="7.652275"><ele>402.0</ele><time>2026-04-25T12:56:51.695Z</time></trkpt><trkpt lat="45.3921367" lon="7.6521483"><ele>402.0</ele><time>2026-04-25T12:56:52.695Z</time></trkpt><trkpt lat="45.392225" lon="7.6520283"><ele>402.0</ele><time>2026-04-25T12:56:53.695Z</time></trkpt><trkpt lat="45.3922883" lon="7.651895"><ele>402.0</ele><time>2026-04-25T12:56:54.695Z</time></trkpt><trkpt lat="45.39233" lon="7.6517833"><ele>402.0</ele><time>2026-04-25T12:56:55.695Z</time></trkpt><trkpt lat="45.3923717" lon="7.6516917"><ele>402.0</ele><time>2026-04-25T12:56:56.695Z</time></trkpt><trkpt lat="45.3924133" lon="7.6516183"><ele>402.0</ele><time>2026-04-25T12:56:57.695Z</time></trkpt><trkpt lat="45.3924883" lon="7.65152"><ele>402.0</ele><time>2026-04-25T12:56:59.695Z</time></trkpt><trkpt lat="45.3925617" lon="7.65151"><ele>402.0</ele><time>2026-04-25T12:57:01.695Z</time></trkpt><trkpt lat="45.39262" lon="7.6515633"><ele>402.0</ele><time>2026-04-25T12:57:02.695Z</time></trkpt><trkpt lat="45.3927033" lon="7.65166"><ele>402.0</ele><time>2026-04-25T12:57:03.695Z</time></trkpt><trkpt lat="45.39282" lon="7.6517933"><ele>402.0</ele><time>2026-04-25T12:57:04.695Z</time></trkpt><trkpt lat="45.3929483" lon="7.651965"><ele>402.0</ele><time>2026-04-25T12:57:05.696Z</time></trkpt><trkpt lat="45.3930833" lon="7.65211"><ele>398.66666666666663</ele><time>2026-04-25T12:57:06.695Z</time></trkpt><trkpt lat="45.393205" lon="7.65225"><ele>395.3333333333333</ele><time>2026-04-25T12:57:07.695Z</time></trkpt><trkpt lat="45.3933167" lon="7.6523717"><ele>392.0</ele><time>2026-04-25T12:57:08.695Z</time></trkpt><trkpt lat="45.3934467" lon="7.6524983"><ele>392.0</ele><time>2026-04-25T12:57:09.695Z</time></trkpt><trkpt lat="45.3935733" lon="7.652625"><ele>392.0</ele><time>2026-04-25T12:57:10.695Z</time></trkpt><trkpt lat="45.3936917" lon="7.6527417"><ele>392.0</ele><time>2026-04-25T12:57:11.695Z</time></trkpt><trkpt lat="45.3938083" lon="7.6528667"><ele>392.0</ele><time>2026-04-25T12:57:12.695Z</time></trkpt><trkpt lat="45.3939333" lon="7.6529983"><ele>389.3333333333333</ele><time>2026-04-25T12:57:13.695Z</time></trkpt><trkpt lat="45.394065" lon="7.6531317"><ele>386.66666666666663</ele><time>2026-04-25T12:57:14.695Z</time></trkpt><trkpt lat="45.3941917" lon="7.6532583"><ele>384.0</ele><time>2026-04-25T12:57:15.695Z</time></trkpt><trkpt lat="45.3943067" lon="7.65338"><ele>384.0</ele><time>2026-04-25T12:57:16.695Z</time></trkpt><trkpt lat="45.394415" lon="7.6534867"><ele>384.0</ele><time>2026-04-25T12:57:17.695Z</time></trkpt><trkpt lat="45.394525" lon="7.6536"><ele>384.0</ele><time>2026-04-25T12:57:18.695Z</time></trkpt><trkpt lat="45.3946383" lon="7.6537217"><ele>384.0</ele><time>2026-04-25T12:57:19.695Z</time></trkpt><trkpt lat="45.3947533" lon="7.6538433"><ele>382.25</ele><time>2026-04-25T12:57:20.695Z</time></trkpt><trkpt lat="45.3948583" lon="7.6539433"><ele>380.5</ele><time>2026-04-25T12:57:21.695Z</time></trkpt><trkpt lat="45.3949567" lon="7.6540467"><ele>378.75</ele><time>2026-04-25T12:57:22.695Z</time></trkpt><trkpt lat="45.3950567" lon="7.6541417"><ele>377.0</ele><time>2026-04-25T12:57:23.695Z</time></trkpt><trkpt lat="45.3951417" lon="7.6542433"><ele>377.0</ele><time>2026-04-25T12:57:24.695Z</time></trkpt><trkpt lat="45.39522" lon="7.6543367"><ele>377.0</ele><time>2026-04-25T12:57:25.695Z</time></trkpt><trkpt lat="45.3953067" lon="7.65443"><ele>377.0</ele><time>2026-04-25T12:57:26.695Z</time></trkpt><trkpt lat="45.3954033" lon="7.6545367"><ele>377.0</ele><time>2026-04-25T12:57:27.695Z</time></trkpt><trkpt lat="45.3955017" lon="7.6546483"><ele>378.20000000000005</ele><time>2026-04-25T12:57:28.695Z</time></trkpt><trkpt lat="45.3955917" lon="7.6547533"><ele>379.4</ele><time>2026-04-25T12:57:29.695Z</time></trkpt><trkpt lat="45.39568" lon="7.65484"><ele>380.6</ele><time>2026-04-25T12:57:30.695Z</time></trkpt><trkpt lat="45.39577" lon="7.6549367"><ele>381.79999999999995</ele><time>2026-04-25T12:57:31.695Z</time></trkpt><trkpt lat="45.3958517" lon="7.6550333"><ele>383.0</ele><time>2026-04-25T12:57:32.695Z</time></trkpt><trkpt lat="45.39594" lon="7.6551117"><ele>383.0</ele><time>2026-04-25T12:57:33.695Z</time></trkpt><trkpt lat="45.396025" lon="7.6551933"><ele>383.0</ele><time>2026-04-25T12:57:34.695Z</time></trkpt><trkpt lat="45.3961017" lon="7.655275"><ele>383.0</ele><time>2026-04-25T12:57:35.695Z</time></trkpt><trkpt lat="45.396175" lon="7.65535"><ele>383.0</ele><time>2026-04-25T12:57:36.695Z</time></trkpt><trkpt lat="45.3962467" lon="7.655425"><ele>383.0</ele><time>2026-04-25T12:57:37.695Z</time></trkpt><trkpt lat="45.3963" lon="7.6555317"><ele>383.0</ele><time>2026-04-25T12:57:38.695Z</time></trkpt><trkpt lat="45.3963317" lon="7.65568"><ele>383.0</ele><time>2026-04-25T12:57:39.695Z</time></trkpt><trkpt lat="45.3963433" lon="7.6558817"><ele>383.0</ele><time>2026-04-25T12:57:40.695Z</time></trkpt><trkpt lat="45.396325" lon="7.6561133"><ele>383.0</ele><time>2026-04-25T12:57:41.695Z</time></trkpt><trkpt lat="45.3962667" lon="7.6563883"><ele>382.33333333333337</ele><time>2026-04-25T12:57:42.695Z</time></trkpt><trkpt lat="45.3961933" lon="7.65667"><ele>381.6666666666667</ele><time>2026-04-25T12:57:43.695Z</time></trkpt><trkpt lat="45.3961417" lon="7.6569433"><ele>381.0</ele><time>2026-04-25T12:57:44.695Z</time></trkpt><trkpt lat="45.3960983" lon="7.6571933"><ele>380.6666666666667</ele><time>2026-04-25T12:57:45.695Z</time></trkpt><trkpt lat="45.39606" lon="7.6574333"><ele>380.33333333333337</ele><time>2026-04-25T12:57:46.695Z</time></trkpt><trkpt lat="45.3960133" lon="7.65765"><ele>380.0</ele><time>2026-04-25T12:57:47.695Z</time></trkpt><trkpt lat="45.395985" lon="7.65787"><ele>379.6666666666667</ele><time>2026-04-25T12:57:48.695Z</time></trkpt><trkpt lat="45.39595" lon="7.6580983"><ele>379.3333333333333</ele><time>2026-04-25T12:57:49.695Z</time></trkpt><trkpt lat="45.3959033" lon="7.6583267"><ele>379.0</ele><time>2026-04-25T12:57:50.695Z</time></trkpt><trkpt lat="45.3958583" lon="7.6585617"><ele>379.3333333333333</ele><time>2026-04-25T12:57:51.695Z</time></trkpt><trkpt lat="45.395805" lon="7.6587783"><ele>379.6666666666667</ele><time>2026-04-25T12:57:52.695Z</time></trkpt><trkpt lat="45.3957517" lon="7.65898"><ele>380.0</ele><time>2026-04-25T12:57:53.695Z</time></trkpt><trkpt lat="45.39571" lon="7.659175"><ele>380.0</ele><time>2026-04-25T12:57:54.695Z</time></trkpt><trkpt lat="45.395665" lon="7.6593617"><ele>380.0</ele><time>2026-04-25T12:57:55.695Z</time></trkpt><trkpt lat="45.39564" lon="7.6595317"><ele>380.0</ele><time>2026-04-25T12:57:56.695Z</time></trkpt><trkpt lat="45.3956067" lon="7.6596867"><ele>380.0</ele><time>2026-04-25T12:57:57.696Z</time></trkpt><trkpt lat="45.3955783" lon="7.6598367"><ele>379.8</ele><time>2026-04-25T12:57:58.695Z</time></trkpt><trkpt lat="45.395535" lon="7.6599917"><ele>379.6</ele><time>2026-04-25T12:57:59.695Z</time></trkpt><trkpt lat="45.39547" lon="7.6601233"><ele>379.4</ele><time>2026-04-25T12:58:00.695Z</time></trkpt><trkpt lat="45.3954017" lon="7.6602333"><ele>379.2</ele><time>2026-04-25T12:58:01.695Z</time></trkpt><trkpt lat="45.3953583" lon="7.6603517"><ele>379.0</ele><time>2026-04-25T12:58:02.695Z</time></trkpt><trkpt lat="45.3953483" lon="7.6604833"><ele>379.0</ele><time>2026-04-25T12:58:03.695Z</time></trkpt><trkpt lat="45.3953367" lon="7.6606267"><ele>379.0</ele><time>2026-04-25T12:58:04.695Z</time></trkpt><trkpt lat="45.3952917" lon="7.6607383"><ele>379.0</ele><time>2026-04-25T12:58:05.695Z</time></trkpt><trkpt lat="45.3952133" lon="7.660835"><ele>379.0</ele><time>2026-04-25T12:58:06.696Z</time></trkpt><trkpt lat="45.3950817" lon="7.6609417"><ele>379.0</ele><time>2026-04-25T12:58:07.695Z</time></trkpt><trkpt lat="45.39491" lon="7.6610467"><ele>381.3333333333333</ele><time>2026-04-25T12:58:08.695Z</time></trkpt><trkpt lat="45.3947283" lon="7.6611483"><ele>383.66666666666663</ele><time>2026-04-25T12:58:09.695Z</time></trkpt><trkpt lat="45.394575" lon="7.6612383"><ele>386.0</ele><time>2026-04-25T12:58:10.695Z</time></trkpt><trkpt lat="45.3944317" lon="7.6613367"><ele>386.0</ele><time>2026-04-25T12:58:11.695Z</time></trkpt><trkpt lat="45.3942933" lon="7.661435"><ele>386.0</ele><time>2026-04-25T12:58:12.695Z</time></trkpt><trkpt lat="45.3941433" lon="7.6615267"><ele>386.0</ele><time>2026-04-25T12:58:13.695Z</time></trkpt><trkpt lat="45.3940083" lon="7.6616367"><ele>386.0</ele><time>2026-04-25T12:58:14.696Z</time></trkpt><trkpt lat="45.39386" lon="7.66177"><ele>386.0</ele><time>2026-04-25T12:58:15.695Z</time></trkpt><trkpt lat="45.3937117" lon="7.6619183"><ele>386.0</ele><time>2026-04-25T12:58:16.695Z</time></trkpt><trkpt lat="45.39358" lon="7.6620617"><ele>384.0</ele><time>2026-04-25T12:58:17.695Z</time></trkpt><trkpt lat="45.39345" lon="7.6621933"><ele>382.0</ele><time>2026-04-25T12:58:18.695Z</time></trkpt><trkpt lat="45.3933283" lon="7.6623267"><ele>380.0</ele><time>2026-04-25T12:58:19.695Z</time></trkpt><trkpt lat="45.3932033" lon="7.6624617"><ele>380.0</ele><time>2026-04-25T12:58:20.696Z</time></trkpt><trkpt lat="45.3930883" lon="7.6626"><ele>380.0</ele><time>2026-04-25T12:58:21.695Z</time></trkpt><trkpt lat="45.3929733" lon="7.6627417"><ele>380.0</ele><time>2026-04-25T12:58:22.695Z</time></trkpt><trkpt lat="45.3928333" lon="7.6628817"><ele>378.6666666666667</ele><time>2026-04-25T12:58:23.695Z</time></trkpt><trkpt lat="45.3927" lon="7.6630267"><ele>377.3333333333333</ele><time>2026-04-25T12:58:24.695Z</time></trkpt><trkpt lat="45.3925717" lon="7.663165"><ele>376.0</ele><time>2026-04-25T12:58:25.696Z</time></trkpt><trkpt lat="45.3924567" lon="7.6633017"><ele>376.0</ele><time>2026-04-25T12:58:26.695Z</time></trkpt><trkpt lat="45.3923367" lon="7.6634567"><ele>376.0</ele><time>2026-04-25T12:58:27.695Z</time></trkpt><trkpt lat="45.392235" lon="7.663635"><ele>376.0</ele><time>2026-04-25T12:58:28.695Z</time></trkpt><trkpt lat="45.39215" lon="7.663835"><ele>374.0</ele><time>2026-04-25T12:58:29.695Z</time></trkpt><trkpt lat="45.3920683" lon="7.66406"><ele>372.0</ele><time>2026-04-25T12:58:30.695Z</time></trkpt><trkpt lat="45.3920267" lon="7.66428"><ele>370.0</ele><time>2026-04-25T12:58:31.695Z</time></trkpt><trkpt lat="45.3919783" lon="7.664495"><ele>370.0</ele><time>2026-04-25T12:58:32.695Z</time></trkpt><trkpt lat="45.3919383" lon="7.66472"><ele>370.0</ele><time>2026-04-25T12:58:33.695Z</time></trkpt><trkpt lat="45.391905" lon="7.6649583"><ele>370.0</ele><time>2026-04-25T12:58:34.695Z</time></trkpt><trkpt lat="45.39186" lon="7.66518"><ele>370.66666666666663</ele><time>2026-04-25T12:58:35.695Z</time></trkpt><trkpt lat="45.39181" lon="7.6653833"><ele>371.3333333333333</ele><time>2026-04-25T12:58:36.695Z</time></trkpt><trkpt lat="45.39175" lon="7.6655933"><ele>372.0</ele><time>2026-04-25T12:58:37.695Z</time></trkpt><trkpt lat="45.3916683" lon="7.665795"><ele>372.0</ele><time>2026-04-25T12:58:38.695Z</time></trkpt><trkpt lat="45.3915733" lon="7.6659883"><ele>372.0</ele><time>2026-04-25T12:58:39.695Z</time></trkpt><trkpt lat="45.3914867" lon="7.66618"><ele>372.0</ele><time>2026-04-25T12:58:40.695Z</time></trkpt><trkpt lat="45.391405" lon="7.66638"><ele>371.0</ele><time>2026-04-25T12:58:41.695Z</time></trkpt><trkpt lat="45.3913233" lon="7.666595"><ele>370.0</ele><time>2026-04-25T12:58:42.695Z</time></trkpt><trkpt lat="45.391245" lon="7.66683"><ele>369.0</ele><time>2026-04-25T12:58:43.695Z</time></trkpt><trkpt lat="45.3911483" lon="7.6670317"><ele>371.6666666666667</ele><time>2026-04-25T12:58:44.695Z</time></trkpt><trkpt lat="45.391035" lon="7.6672117"><ele>374.33333333333337</ele><time>2026-04-25T12:58:45.695Z</time></trkpt><trkpt lat="45.3909233" lon="7.6673933"><ele>377.0</ele><time>2026-04-25T12:58:46.695Z</time></trkpt><trkpt lat="45.3908033" lon="7.667575"><ele>377.0</ele><time>2026-04-25T12:58:47.695Z</time></trkpt><trkpt lat="45.3907033" lon="7.6677617"><ele>377.0</ele><time>2026-04-25T12:58:48.695Z</time></trkpt><trkpt lat="45.3905817" lon="7.6679567"><ele>377.0</ele><time>2026-04-25T12:58:49.695Z</time></trkpt><trkpt lat="45.3904633" lon="7.6681583"><ele>378.33333333333337</ele><time>2026-04-25T12:58:50.695Z</time></trkpt><trkpt lat="45.3903317" lon="7.6683483"><ele>379.6666666666667</ele><time>2026-04-25T12:58:51.695Z</time></trkpt><trkpt lat="45.3902133" lon="7.6685433"><ele>381.0</ele><time>2026-04-25T12:58:52.696Z</time></trkpt><trkpt lat="45.3900983" lon="7.6687383"><ele>381.0</ele><time>2026-04-25T12:58:53.695Z</time></trkpt><trkpt lat="45.389985" lon="7.6689383"><ele>381.0</ele><time>2026-04-25T12:58:54.695Z</time></trkpt><trkpt lat="45.3898733" lon="7.66915"><ele>381.0</ele><time>2026-04-25T12:58:55.695Z</time></trkpt><trkpt lat="45.3897433" lon="7.66939"><ele>376.0</ele><time>2026-04-25T12:58:56.695Z</time></trkpt><trkpt lat="45.3896217" lon="7.669635"><ele>371.0</ele><time>2026-04-25T12:58:57.695Z</time></trkpt><trkpt lat="45.3895033" lon="7.6698683"><ele>366.0</ele><time>2026-04-25T12:58:58.695Z</time></trkpt><trkpt lat="45.3894" lon="7.6700883"><ele>370.6666666666667</ele><time>2026-04-25T12:58:59.695Z</time></trkpt><trkpt lat="45.3892983" lon="7.6703083"><ele>375.33333333333337</ele><time>2026-04-25T12:59:00.696Z</time></trkpt><trkpt lat="45.3891867" lon="7.670535"><ele>380.0</ele><time>2026-04-25T12:59:01.695Z</time></trkpt><trkpt lat="45.3890733" lon="7.670755"><ele>380.0</ele><time>2026-04-25T12:59:02.695Z</time></trkpt><trkpt lat="45.388965" lon="7.670985"><ele>380.0</ele><time>2026-04-25T12:59:03.695Z</time></trkpt><trkpt lat="45.3888633" lon="7.6712233"><ele>380.0</ele><time>2026-04-25T12:59:04.695Z</time></trkpt><trkpt lat="45.38876" lon="7.67146"><ele>376.6666666666667</ele><time>2026-04-25T12:59:05.695Z</time></trkpt><trkpt lat="45.3886617" lon="7.6716983"><ele>373.3333333333333</ele><time>2026-04-25T12:59:06.695Z</time></trkpt><trkpt lat="45.3885683" lon="7.671935"><ele>370.0</ele><time>2026-04-25T12:59:07.695Z</time></trkpt><trkpt lat="45.3884733" lon="7.6721717"><ele>370.0</ele><time>2026-04-25T12:59:08.695Z</time></trkpt><trkpt lat="45.38838" lon="7.67241"><ele>370.0</ele><time>2026-04-25T12:59:09.695Z</time></trkpt><trkpt lat="45.3882883" lon="7.6726517"><ele>370.0</ele><time>2026-04-25T12:59:10.695Z</time></trkpt><trkpt lat="45.3881917" lon="7.67288"><ele>367.0</ele><time>2026-04-25T12:59:11.695Z</time></trkpt><trkpt lat="45.3881017" lon="7.67312"><ele>364.0</ele><time>2026-04-25T12:59:12.695Z</time></trkpt><trkpt lat="45.3879983" lon="7.6733633"><ele>361.0</ele><time>2026-04-25T12:59:13.695Z</time></trkpt><trkpt lat="45.3878933" lon="7.6735933"><ele>363.66666666666663</ele><time>2026-04-25T12:59:14.695Z</time></trkpt><trkpt lat="45.3877833" lon="7.67382"><ele>366.3333333333333</ele><time>2026-04-25T12:59:15.695Z</time></trkpt><trkpt lat="45.387675" lon="7.6740367"><ele>369.0</ele><time>2026-04-25T12:59:16.695Z</time></trkpt><trkpt lat="45.3875517" lon="7.6742617"><ele>369.6666666666667</ele><time>2026-04-25T12:59:17.695Z</time></trkpt><trkpt lat="45.38744" lon="7.6745067"><ele>370.33333333333337</ele><time>2026-04-25T12:59:18.695Z</time></trkpt><trkpt lat="45.3873333" lon="7.6747833"><ele>371.0</ele><time>2026-04-25T12:59:19.695Z</time></trkpt><trkpt lat="45.387225" lon="7.675085"><ele>368.5</ele><time>2026-04-25T12:59:20.695Z</time></trkpt><trkpt lat="45.3871283" lon="7.675395"><ele>366.0</ele><time>2026-04-25T12:59:21.695Z</time></trkpt><trkpt lat="45.387035" lon="7.675685"><ele>366.0</ele><time>2026-04-25T12:59:22.695Z</time></trkpt><trkpt lat="45.3869383" lon="7.6759633"><ele>366.0</ele><time>2026-04-25T12:59:23.694Z</time></trkpt><trkpt lat="45.386845" lon="7.67623"><ele>366.0</ele><time>2026-04-25T12:59:24.694Z</time></trkpt><trkpt lat="45.3867383" lon="7.6764967"><ele>365.6666666666667</ele><time>2026-04-25T12:59:25.694Z</time></trkpt><trkpt lat="45.386615" lon="7.6767417"><ele>365.33333333333337</ele><time>2026-04-25T12:59:26.694Z</time></trkpt><trkpt lat="45.3864833" lon="7.6769833"><ele>365.0</ele><time>2026-04-25T12:59:27.694Z</time></trkpt><trkpt lat="45.3863633" lon="7.6772233"><ele>362.6666666666667</ele><time>2026-04-25T12:59:28.694Z</time></trkpt><trkpt lat="45.3862517" lon="7.67747"><ele>360.3333333333333</ele><time>2026-04-25T12:59:29.694Z</time></trkpt><trkpt lat="45.3861417" lon="7.67771"><ele>358.0</ele><time>2026-04-25T12:59:30.694Z</time></trkpt><trkpt lat="45.38603" lon="7.6779517"><ele>357.66666666666663</ele><time>2026-04-25T12:59:31.694Z</time></trkpt><trkpt lat="45.385915" lon="7.6781933"><ele>357.3333333333333</ele><time>2026-04-25T12:59:32.694Z</time></trkpt><trkpt lat="45.3858017" lon="7.6784383"><ele>357.0</ele><time>2026-04-25T12:59:33.694Z</time></trkpt><trkpt lat="45.3856867" lon="7.6786867"><ele>357.0</ele><time>2026-04-25T12:59:34.694Z</time></trkpt><trkpt lat="45.3855733" lon="7.6789233"><ele>357.0</ele><time>2026-04-25T12:59:35.694Z</time></trkpt><trkpt lat="45.3854517" lon="7.6791633"><ele>357.0</ele><time>2026-04-25T12:59:36.695Z</time></trkpt><trkpt lat="45.385335" lon="7.6794"><ele>357.3333333333333</ele><time>2026-04-25T12:59:37.694Z</time></trkpt><trkpt lat="45.3852167" lon="7.6796383"><ele>357.66666666666663</ele><time>2026-04-25T12:59:38.694Z</time></trkpt><trkpt lat="45.3851" lon="7.6798917"><ele>358.0</ele><time>2026-04-25T12:59:39.694Z</time></trkpt><trkpt lat="45.3849867" lon="7.6801283"><ele>358.0</ele><time>2026-04-25T12:59:40.694Z</time></trkpt><trkpt lat="45.38487" lon="7.6803617"><ele>358.0</ele><time>2026-04-25T12:59:41.694Z</time></trkpt><trkpt lat="45.3847467" lon="7.6806"><ele>358.0</ele><time>2026-04-25T12:59:42.694Z</time></trkpt><trkpt lat="45.3846317" lon="7.68084"><ele>357.0</ele><time>2026-04-25T12:59:43.694Z</time></trkpt><trkpt lat="45.3845083" lon="7.681085"><ele>356.0</ele><time>2026-04-25T12:59:44.694Z</time></trkpt><trkpt lat="45.3843883" lon="7.6813467"><ele>355.0</ele><time>2026-04-25T12:59:45.694Z</time></trkpt><trkpt lat="45.3842667" lon="7.6816167"><ele>355.0</ele><time>2026-04-25T12:59:46.694Z</time></trkpt><trkpt lat="45.3841433" lon="7.6818883"><ele>355.0</ele><time>2026-04-25T12:59:47.694Z</time></trkpt><trkpt lat="45.384015" lon="7.682155"><ele>355.0</ele><time>2026-04-25T12:59:48.694Z</time></trkpt><trkpt lat="45.3838917" lon="7.682445"><ele>355.0</ele><time>2026-04-25T12:59:49.694Z</time></trkpt><trkpt lat="45.3837833" lon="7.6827667"><ele>354.0</ele><time>2026-04-25T12:59:50.694Z</time></trkpt><trkpt lat="45.3836733" lon="7.6831167"><ele>353.0</ele><time>2026-04-25T12:59:51.694Z</time></trkpt><trkpt lat="45.383585" lon="7.6834783"><ele>352.0</ele><time>2026-04-25T12:59:52.694Z</time></trkpt><trkpt lat="45.3835117" lon="7.683835"><ele>351.0</ele><time>2026-04-25T12:59:53.695Z</time></trkpt><trkpt lat="45.3834583" lon="7.6841867"><ele>351.0</ele><time>2026-04-25T12:59:54.694Z</time></trkpt><trkpt lat="45.38342" lon="7.684535"><ele>351.0</ele><time>2026-04-25T12:59:55.694Z</time></trkpt><trkpt lat="45.383395" lon="7.6848767"><ele>351.0</ele><time>2026-04-25T12:59:56.694Z</time></trkpt><trkpt lat="45.383375" lon="7.6852083"><ele>351.0</ele><time>2026-04-25T12:59:57.694Z</time></trkpt><trkpt lat="45.383365" lon="7.6855117"><ele>351.0</ele><time>2026-04-25T12:59:58.694Z</time></trkpt><trkpt lat="45.3833683" lon="7.6857617"><ele>351.20000000000005</ele><time>2026-04-25T12:59:59.694Z</time></trkpt><trkpt lat="45.3833783" lon="7.685945"><ele>351.40000000000003</ele><time>2026-04-25T13:00:00.694Z</time></trkpt><trkpt lat="45.3833783" lon="7.6860983"><ele>351.6</ele><time>2026-04-25T13:00:01.694Z</time></trkpt><trkpt lat="45.3833817" lon="7.6862383"><ele>351.8</ele><time>2026-04-25T13:00:02.694Z</time></trkpt><trkpt lat="45.3833867" lon="7.68638"><ele>352.0</ele><time>2026-04-25T13:00:03.694Z</time></trkpt><trkpt lat="45.3833833" lon="7.6865167"><ele>352.3333333333333</ele><time>2026-04-25T13:00:04.694Z</time></trkpt><trkpt lat="45.3833833" lon="7.6866367"><ele>352.66666666666663</ele><time>2026-04-25T13:00:05.694Z</time></trkpt><trkpt lat="45.3833867" lon="7.6867417"><ele>353.0</ele><time>2026-04-25T13:00:06.694Z</time></trkpt><trkpt lat="45.3833933" lon="7.6868367"><ele>353.3333333333333</ele><time>2026-04-25T13:00:07.694Z</time></trkpt><trkpt lat="45.3833917" lon="7.6869983"><ele>353.6666666666667</ele><time>2026-04-25T13:00:09.694Z</time></trkpt><trkpt lat="45.38339" lon="7.6871233"><ele>354.0</ele><time>2026-04-25T13:00:11.694Z</time></trkpt><trkpt lat="45.3834" lon="7.6872217"><ele>354.6</ele><time>2026-04-25T13:00:13.694Z</time></trkpt><trkpt lat="45.383405" lon="7.6873633"><ele>355.2</ele><time>2026-04-25T13:01:27.694Z</time></trkpt><trkpt lat="45.3834117" lon="7.687475"><ele>355.8</ele><time>2026-04-25T13:01:28.694Z</time></trkpt><trkpt lat="45.38342" lon="7.68761"><ele>356.40000000000003</ele><time>2026-04-25T13:01:29.694Z</time></trkpt><trkpt lat="45.3834267" lon="7.6877583"><ele>357.0</ele><time>2026-04-25T13:01:30.694Z</time></trkpt><trkpt lat="45.38343" lon="7.6879167"><ele>357.0</ele><time>2026-04-25T13:01:31.694Z</time></trkpt><trkpt lat="45.3834317" lon="7.6880733"><ele>357.0</ele><time>2026-04-25T13:01:32.694Z</time></trkpt><trkpt lat="45.3834383" lon="7.6882533"><ele>357.0</ele><time>2026-04-25T13:01:33.694Z</time></trkpt><trkpt lat="45.3834383" lon="7.6884483"><ele>357.0</ele><time>2026-04-25T13:01:34.694Z</time></trkpt><trkpt lat="45.3834283" lon="7.6886683"><ele>357.6666666666667</ele><time>2026-04-25T13:01:35.695Z</time></trkpt><trkpt lat="45.3834167" lon="7.6888967"><ele>358.33333333333337</ele><time>2026-04-25T13:01:36.694Z</time></trkpt><trkpt lat="45.383405" lon="7.6891083"><ele>359.0</ele><time>2026-04-25T13:01:37.694Z</time></trkpt><trkpt lat="45.3833983" lon="7.689325"><ele>358.6666666666667</ele><time>2026-04-25T13:01:38.694Z</time></trkpt><trkpt lat="45.3834033" lon="7.68956"><ele>358.3333333333333</ele><time>2026-04-25T13:01:39.694Z</time></trkpt><trkpt lat="45.38342" lon="7.6898117"><ele>358.0</ele><time>2026-04-25T13:01:40.694Z</time></trkpt><trkpt lat="45.3834433" lon="7.690075"><ele>357.66666666666663</ele><time>2026-04-25T13:01:41.694Z</time></trkpt><trkpt lat="45.3834717" lon="7.6903433"><ele>357.3333333333333</ele><time>2026-04-25T13:01:42.694Z</time></trkpt><trkpt lat="45.3835083" lon="7.6905967"><ele>357.0</ele><time>2026-04-25T13:01:43.694Z</time></trkpt><trkpt lat="45.38354" lon="7.6908433"><ele>357.0</ele><time>2026-04-25T13:01:44.694Z</time></trkpt><trkpt lat="45.38357" lon="7.6910767"><ele>357.0</ele><time>2026-04-25T13:01:45.694Z</time></trkpt><trkpt lat="45.3836067" lon="7.6913133"><ele>357.0</ele><time>2026-04-25T13:01:46.694Z</time></trkpt><trkpt lat="45.3836383" lon="7.6915533"><ele>356.6666666666667</ele><time>2026-04-25T13:01:47.694Z</time></trkpt><trkpt lat="45.3836733" lon="7.6917917"><ele>356.33333333333337</ele><time>2026-04-25T13:01:48.694Z</time></trkpt><trkpt lat="45.38371" lon="7.692035"><ele>356.0</ele><time>2026-04-25T13:01:49.694Z</time></trkpt><trkpt lat="45.38374" lon="7.6922783"><ele>355.33333333333337</ele><time>2026-04-25T13:01:50.694Z</time></trkpt><trkpt lat="45.3837667" lon="7.692535"><ele>354.6666666666667</ele><time>2026-04-25T13:01:51.694Z</time></trkpt><trkpt lat="45.3838" lon="7.692805"><ele>354.0</ele><time>2026-04-25T13:01:52.694Z</time></trkpt><trkpt lat="45.3838333" lon="7.6930633"><ele>354.3333333333333</ele><time>2026-04-25T13:01:53.695Z</time></trkpt><trkpt lat="45.3838683" lon="7.69331"><ele>354.66666666666663</ele><time>2026-04-25T13:01:54.694Z</time></trkpt><trkpt lat="45.3839067" lon="7.6935567"><ele>355.0</ele><time>2026-04-25T13:01:55.694Z</time></trkpt><trkpt lat="45.3839383" lon="7.6938067"><ele>355.0</ele><time>2026-04-25T13:01:56.694Z</time></trkpt><trkpt lat="45.3839717" lon="7.694065"><ele>355.0</ele><time>2026-04-25T13:01:57.694Z</time></trkpt><trkpt lat="45.38401" lon="7.6943267"><ele>355.0</ele><time>2026-04-25T13:01:58.694Z</time></trkpt><trkpt lat="45.384045" lon="7.69459"><ele>354.3333333333333</ele><time>2026-04-25T13:01:59.694Z</time></trkpt><trkpt lat="45.3840783" lon="7.6948567"><ele>353.6666666666667</ele><time>2026-04-25T13:02:00.694Z</time></trkpt><trkpt lat="45.384115" lon="7.695135"><ele>353.0</ele><time>2026-04-25T13:02:01.694Z</time></trkpt><trkpt lat="45.384145" lon="7.695415"><ele>353.0</ele><time>2026-04-25T13:02:02.694Z</time></trkpt><trkpt lat="45.3841567" lon="7.6957083"><ele>353.0</ele><time>2026-04-25T13:02:03.694Z</time></trkpt><trkpt lat="45.3841317" lon="7.6960117"><ele>353.0</ele><time>2026-04-25T13:02:04.694Z</time></trkpt><trkpt lat="45.3840733" lon="7.6962983"><ele>353.0</ele><time>2026-04-25T13:02:05.694Z</time></trkpt><trkpt lat="45.383985" lon="7.6965533"><ele>353.0</ele><time>2026-04-25T13:02:06.694Z</time></trkpt><trkpt lat="45.38389" lon="7.6967883"><ele>353.0</ele><time>2026-04-25T13:02:07.694Z</time></trkpt><trkpt lat="45.3837833" lon="7.6970083"><ele>353.0</ele><time>2026-04-25T13:02:08.694Z</time></trkpt><trkpt lat="45.38367" lon="7.6972167"><ele>353.0</ele><time>2026-04-25T13:02:09.694Z</time></trkpt><trkpt lat="45.3835567" lon="7.697425"><ele>353.0</ele><time>2026-04-25T13:02:10.694Z</time></trkpt><trkpt lat="45.3834483" lon="7.69765"><ele>352.33333333333337</ele><time>2026-04-25T13:02:11.694Z</time></trkpt><trkpt lat="45.3833517" lon="7.69786"><ele>351.6666666666667</ele><time>2026-04-25T13:02:12.694Z</time></trkpt><trkpt lat="45.3832583" lon="7.6980517"><ele>351.0</ele><time>2026-04-25T13:02:13.694Z</time></trkpt><trkpt lat="45.3831617" lon="7.6982517"><ele>351.0</ele><time>2026-04-25T13:02:14.694Z</time></trkpt><trkpt lat="45.3830633" lon="7.6984433"><ele>351.0</ele><time>2026-04-25T13:02:15.694Z</time></trkpt><trkpt lat="45.3829717" lon="7.69863"><ele>351.0</ele><time>2026-04-25T13:02:16.695Z</time></trkpt><trkpt lat="45.3828767" lon="7.6988233"><ele>351.0</ele><time>2026-04-25T13:02:17.694Z</time></trkpt><trkpt lat="45.3827833" lon="7.69902"><ele>351.0</ele><time>2026-04-25T13:02:18.694Z</time></trkpt><trkpt lat="45.38269" lon="7.699215"><ele>351.0</ele><time>2026-04-25T13:02:19.694Z</time></trkpt><trkpt lat="45.3826033" lon="7.6994083"><ele>350.6666666666667</ele><time>2026-04-25T13:02:20.694Z</time></trkpt><trkpt lat="45.38251" lon="7.6996133"><ele>350.33333333333337</ele><time>2026-04-25T13:02:21.694Z</time></trkpt><trkpt lat="45.38242" lon="7.699835"><ele>350.0</ele><time>2026-04-25T13:02:22.694Z</time></trkpt><trkpt lat="45.38234" lon="7.7000483"><ele>350.0</ele><time>2026-04-25T13:02:23.694Z</time></trkpt><trkpt lat="45.382265" lon="7.7002733"><ele>350.0</ele><time>2026-04-25T13:02:24.694Z</time></trkpt><trkpt lat="45.3821933" lon="7.7005017"><ele>350.0</ele><time>2026-04-25T13:02:25.694Z</time></trkpt><trkpt lat="45.3821133" lon="7.70071"><ele>350.33333333333337</ele><time>2026-04-25T13:02:26.694Z</time></trkpt><trkpt lat="45.3820367" lon="7.700905"><ele>350.6666666666667</ele><time>2026-04-25T13:02:27.694Z</time></trkpt><trkpt lat="45.381965" lon="7.701095"><ele>351.0</ele><time>2026-04-25T13:02:28.694Z</time></trkpt><trkpt lat="45.3818983" lon="7.7012833"><ele>350.5</ele><time>2026-04-25T13:02:29.694Z</time></trkpt><trkpt lat="45.38184" lon="7.7014783"><ele>350.0</ele><time>2026-04-25T13:02:30.694Z</time></trkpt><trkpt lat="45.381775" lon="7.7016617"><ele>349.5</ele><time>2026-04-25T13:02:31.694Z</time></trkpt><trkpt lat="45.3817017" lon="7.701825"><ele>349.0</ele><time>2026-04-25T13:02:32.694Z</time></trkpt><trkpt lat="45.3816417" lon="7.7019967"><ele>348.25</ele><time>2026-04-25T13:02:33.694Z</time></trkpt><trkpt lat="45.3815817" lon="7.70217"><ele>347.5</ele><time>2026-04-25T13:02:34.694Z</time></trkpt><trkpt lat="45.38154" lon="7.7023433"><ele>346.75</ele><time>2026-04-25T13:02:35.694Z</time></trkpt><trkpt lat="45.3814967" lon="7.7025283"><ele>346.0</ele><time>2026-04-25T13:02:36.694Z</time></trkpt><trkpt lat="45.3814567" lon="7.70272"><ele>346.0</ele><time>2026-04-25T13:02:37.694Z</time></trkpt><trkpt lat="45.38142" lon="7.7029133"><ele>346.0</ele><time>2026-04-25T13:02:38.694Z</time></trkpt><trkpt lat="45.3813917" lon="7.7031183"><ele>346.0</ele><time>2026-04-25T13:02:39.694Z</time></trkpt><trkpt lat="45.3813617" lon="7.703345"><ele>346.0</ele><time>2026-04-25T13:02:40.694Z</time></trkpt><trkpt lat="45.3813367" lon="7.7035567"><ele>345.75</ele><time>2026-04-25T13:02:41.694Z</time></trkpt><trkpt lat="45.3813167" lon="7.7037417"><ele>345.5</ele><time>2026-04-25T13:02:42.694Z</time></trkpt><trkpt lat="45.3812983" lon="7.7039383"><ele>345.25</ele><time>2026-04-25T13:02:43.694Z</time></trkpt><trkpt lat="45.3812883" lon="7.704125"><ele>345.0</ele><time>2026-04-25T13:02:44.694Z</time></trkpt><trkpt lat="45.3812717" lon="7.7042967"><ele>345.0</ele><time>2026-04-25T13:02:45.694Z</time></trkpt><trkpt lat="45.38125" lon="7.704485"><ele>345.0</ele><time>2026-04-25T13:02:46.694Z</time></trkpt><trkpt lat="45.381235" lon="7.7046833"><ele>345.0</ele><time>2026-04-25T13:02:47.694Z</time></trkpt><trkpt lat="45.3812183" lon="7.7048767"><ele>345.0</ele><time>2026-04-25T13:02:48.694Z</time></trkpt><trkpt lat="45.3811983" lon="7.705055"><ele>345.0</ele><time>2026-04-25T13:02:49.694Z</time></trkpt><trkpt lat="45.3811833" lon="7.705225"><ele>345.0</ele><time>2026-04-25T13:02:50.694Z</time></trkpt><trkpt lat="45.3811667" lon="7.7053933"><ele>345.0</ele><time>2026-04-25T13:02:51.694Z</time></trkpt><trkpt lat="45.3811583" lon="7.7055533"><ele>345.0</ele><time>2026-04-25T13:02:52.694Z</time></trkpt><trkpt lat="45.3811533" lon="7.7057183"><ele>345.25</ele><time>2026-04-25T13:02:53.694Z</time></trkpt><trkpt lat="45.3811567" lon="7.7058967"><ele>345.5</ele><time>2026-04-25T13:02:54.694Z</time></trkpt><trkpt lat="45.3811717" lon="7.7060717"><ele>345.75</ele><time>2026-04-25T13:02:55.694Z</time></trkpt><trkpt lat="45.381205" lon="7.7062467"><ele>346.0</ele><time>2026-04-25T13:02:56.694Z</time></trkpt><trkpt lat="45.381265" lon="7.7064083"><ele>345.66666666666663</ele><time>2026-04-25T13:02:57.694Z</time></trkpt><trkpt lat="45.38132" lon="7.70655"><ele>345.3333333333333</ele><time>2026-04-25T13:02:58.694Z</time></trkpt><trkpt lat="45.381365" lon="7.7066817"><ele>345.0</ele><time>2026-04-25T13:02:59.694Z</time></trkpt><trkpt lat="45.381405" lon="7.7067967"><ele>344.6666666666667</ele><time>2026-04-25T13:03:00.694Z</time></trkpt><trkpt lat="45.3814333" lon="7.7068783"><ele>344.33333333333337</ele><time>2026-04-25T13:03:01.694Z</time></trkpt><trkpt lat="45.3814733" lon="7.706975"><ele>344.0</ele><time>2026-04-25T13:03:03.694Z</time></trkpt><trkpt lat="45.38149" lon="7.7070667"><ele>343.79999999999995</ele><time>2026-04-25T13:03:07.694Z</time></trkpt><trkpt lat="45.3814867" lon="7.7072233"><ele>343.59999999999997</ele><time>2026-04-25T13:03:09.694Z</time></trkpt><trkpt lat="45.3815033" lon="7.7073417"><ele>343.4</ele><time>2026-04-25T13:03:10.694Z</time></trkpt><trkpt lat="45.3815583" lon="7.70746"><ele>343.2</ele><time>2026-04-25T13:03:11.694Z</time></trkpt><trkpt lat="45.38164" lon="7.7075633"><ele>343.0</ele><time>2026-04-25T13:03:12.694Z</time></trkpt><trkpt lat="45.3817317" lon="7.707665"><ele>343.16666666666663</ele><time>2026-04-25T13:03:13.694Z</time></trkpt><trkpt lat="45.3818017" lon="7.707765"><ele>343.3333333333333</ele><time>2026-04-25T13:03:14.694Z</time></trkpt><trkpt lat="45.38185" lon="7.7078533"><ele>343.5</ele><time>2026-04-25T13:03:15.694Z</time></trkpt><trkpt lat="45.381895" lon="7.707935"><ele>343.6666666666667</ele><time>2026-04-25T13:03:16.694Z</time></trkpt><trkpt lat="45.3819283" lon="7.7080267"><ele>343.83333333333337</ele><time>2026-04-25T13:03:17.694Z</time></trkpt><trkpt lat="45.3819483" lon="7.7081267"><ele>344.0</ele><time>2026-04-25T13:03:18.694Z</time></trkpt><trkpt lat="45.38198" lon="7.7082183"><ele>344.00000000000006</ele><time>2026-04-25T13:03:19.694Z</time></trkpt><trkpt lat="45.3820183" lon="7.7083133"><ele>344.0</ele><time>2026-04-25T13:03:20.694Z</time></trkpt><trkpt lat="45.3820617" lon="7.7084133"><ele>344.0</ele><time>2026-04-25T13:03:21.694Z</time></trkpt><trkpt lat="45.3821" lon="7.7085"><ele>344.0</ele><time>2026-04-25T13:03:22.694Z</time></trkpt><trkpt lat="45.382135" lon="7.70859"><ele>344.0</ele><time>2026-04-25T13:03:23.694Z</time></trkpt><trkpt lat="45.3821767" lon="7.7086733"><ele>344.00000000000006</ele><time>2026-04-25T13:03:24.694Z</time></trkpt><trkpt lat="45.3822083" lon="7.7087617"><ele>344.0</ele><time>2026-04-25T13:03:25.694Z</time></trkpt><trkpt lat="45.382225" lon="7.7089133"><ele>344.79999999999995</ele><time>2026-04-25T13:03:27.694Z</time></trkpt><trkpt lat="45.382235" lon="7.709045"><ele>345.59999999999997</ele><time>2026-04-25T13:03:29.694Z</time></trkpt><trkpt lat="45.3823133" lon="7.7091317"><ele>346.4</ele><time>2026-04-25T13:03:31.694Z</time></trkpt><trkpt lat="45.3824183" lon="7.7091967"><ele>347.2</ele><time>2026-04-25T13:03:33.694Z</time></trkpt><trkpt lat="45.3824883" lon="7.7092417"><ele>348.0</ele><time>2026-04-25T13:03:35.694Z</time></trkpt><trkpt lat="45.3825967" lon="7.7092767"><ele>348.0</ele><time>2026-04-25T13:03:37.694Z</time></trkpt><trkpt lat="45.38269" lon="7.7093533"><ele>348.0</ele><time>2026-04-25T13:03:39.694Z</time></trkpt><trkpt lat="45.38276" lon="7.70941"><ele>348.0</ele><time>2026-04-25T13:03:41.694Z</time></trkpt><trkpt lat="45.382845" lon="7.7095"><ele>348.0</ele><time>2026-04-25T13:03:43.694Z</time></trkpt><trkpt lat="45.38291" lon="7.70963"><ele>348.0</ele><time>2026-04-25T13:03:45.694Z</time></trkpt><trkpt lat="45.382955" lon="7.7097517"><ele>348.0</ele><time>2026-04-25T13:03:47.694Z</time></trkpt><trkpt lat="45.3829867" lon="7.7098567"><ele>348.0</ele><time>2026-04-25T13:03:49.694Z</time></trkpt><trkpt lat="45.3830083" lon="7.7099567"><ele>348.0</ele><time>2026-04-25T13:03:51.695Z</time></trkpt><trkpt lat="45.3830133" lon="7.7100517"><ele>348.0</ele><time>2026-04-25T13:03:53.694Z</time></trkpt><trkpt lat="45.3830133" lon="7.71016"><ele>348.0</ele><time>2026-04-25T13:03:55.694Z</time></trkpt><trkpt lat="45.3830183" lon="7.7102733"><ele>348.0</ele><time>2026-04-25T13:03:57.694Z</time></trkpt><trkpt lat="45.3830217" lon="7.7103733"><ele>348.0</ele><time>2026-04-25T13:03:59.694Z</time></trkpt><trkpt lat="45.3830067" lon="7.71047"><ele>347.6666666666667</ele><time>2026-04-25T13:04:01.694Z</time></trkpt><trkpt lat="45.3829933" lon="7.71058"><ele>347.3333333333333</ele><time>2026-04-25T13:04:04.694Z</time></trkpt><trkpt lat="45.3829933" lon="7.7107117"><ele>347.0</ele><time>2026-04-25T13:04:07.694Z</time></trkpt><trkpt lat="45.3829667" lon="7.7108283"><ele>346.66666666666663</ele><time>2026-04-25T13:04:09.694Z</time></trkpt><trkpt lat="45.382955" lon="7.71092"><ele>346.3333333333333</ele><time>2026-04-25T13:04:10.694Z</time></trkpt><trkpt lat="45.3829433" lon="7.7110217"><ele>346.0</ele><time>2026-04-25T13:04:11.695Z</time></trkpt><trkpt lat="45.3829333" lon="7.7111167"><ele>345.4</ele><time>2026-04-25T13:04:12.694Z</time></trkpt><trkpt lat="45.38293" lon="7.711265"><ele>344.8</ele><time>2026-04-25T13:04:14.694Z</time></trkpt><trkpt lat="45.3829367" lon="7.7114133"><ele>344.2</ele><time>2026-04-25T13:04:16.693Z</time></trkpt><trkpt lat="45.3829333" lon="7.711595"><ele>343.59999999999997</ele><time>2026-04-25T13:04:18.693Z</time></trkpt><trkpt lat="45.3829333" lon="7.7117"><ele>343.0</ele><time>2026-04-25T13:04:19.693Z</time></trkpt><trkpt lat="45.3829333" lon="7.711805"><ele>343.0</ele><time>2026-04-25T13:04:20.693Z</time></trkpt><trkpt lat="45.38293" lon="7.7118983"><ele>343.0</ele><time>2026-04-25T13:04:21.693Z</time></trkpt><trkpt lat="45.3829267" lon="7.7119967"><ele>343.0</ele><time>2026-04-25T13:04:22.693Z</time></trkpt><trkpt lat="45.3829283" lon="7.7120883"><ele>343.0</ele><time>2026-04-25T13:04:23.693Z</time></trkpt><trkpt lat="45.3829417" lon="7.712255"><ele>343.0</ele><time>2026-04-25T13:04:25.693Z</time></trkpt><trkpt lat="45.3829517" lon="7.7123983"><ele>343.0</ele><time>2026-04-25T13:04:27.693Z</time></trkpt><trkpt lat="45.38294" lon="7.7125467"><ele>343.0</ele><time>2026-04-25T13:04:29.693Z</time></trkpt><trkpt lat="45.3829433" lon="7.7126817"><ele>343.0</ele><time>2026-04-25T13:04:31.693Z</time></trkpt><trkpt lat="45.38294" lon="7.7127833"><ele>343.0</ele><time>2026-04-25T13:04:33.693Z</time></trkpt><trkpt lat="45.38291" lon="7.7129017"><ele>343.0</ele><time>2026-04-25T13:04:35.693Z</time></trkpt><trkpt lat="45.3828717" lon="7.71298"><ele>343.0</ele><time>2026-04-25T13:04:36.693Z</time></trkpt><trkpt lat="45.38284" lon="7.7130733"><ele>343.0</ele><time>2026-04-25T13:04:37.694Z</time></trkpt><trkpt lat="45.3828467" lon="7.7131867"><ele>343.0</ele><time>2026-04-25T13:04:38.693Z</time></trkpt><trkpt lat="45.3828667" lon="7.7132917"><ele>343.0</ele><time>2026-04-25T13:04:39.693Z</time></trkpt><trkpt lat="45.3828867" lon="7.71339"><ele>343.0</ele><time>2026-04-25T13:04:40.693Z</time></trkpt><trkpt lat="45.3829017" lon="7.7135033"><ele>343.0</ele><time>2026-04-25T13:04:41.693Z</time></trkpt><trkpt lat="45.3829067" lon="7.713615"><ele>343.0</ele><time>2026-04-25T13:04:42.693Z</time></trkpt><trkpt lat="45.3828983" lon="7.713725"><ele>343.0</ele><time>2026-04-25T13:04:43.693Z</time></trkpt><trkpt lat="45.3828933" lon="7.7138333"><ele>343.0</ele><time>2026-04-25T13:04:44.693Z</time></trkpt><trkpt lat="45.38289" lon="7.7139333"><ele>343.0</ele><time>2026-04-25T13:04:45.693Z</time></trkpt><trkpt lat="45.3828767" lon="7.7140367"><ele>343.0</ele><time>2026-04-25T13:04:46.693Z</time></trkpt><trkpt lat="45.3828733" lon="7.7141517"><ele>343.0</ele><time>2026-04-25T13:04:47.693Z</time></trkpt><trkpt lat="45.3828767" lon="7.7142883"><ele>343.0</ele><time>2026-04-25T13:04:48.693Z</time></trkpt><trkpt lat="45.382885" lon="7.7144183"><ele>343.0</ele><time>2026-04-25T13:04:49.693Z</time></trkpt><trkpt lat="45.3828883" lon="7.7145617"><ele>342.8333333333333</ele><time>2026-04-25T13:04:50.693Z</time></trkpt><trkpt lat="45.3828983" lon="7.7147"><ele>342.66666666666663</ele><time>2026-04-25T13:04:51.693Z</time></trkpt><trkpt lat="45.3829033" lon="7.71484"><ele>342.5</ele><time>2026-04-25T13:04:52.693Z</time></trkpt><trkpt lat="45.3829033" lon="7.7149633"><ele>342.3333333333333</ele><time>2026-04-25T13:04:53.693Z</time></trkpt><trkpt lat="45.38289" lon="7.71508"><ele>342.1666666666667</ele><time>2026-04-25T13:04:54.693Z</time></trkpt><trkpt lat="45.3828883" lon="7.7151833"><ele>342.0</ele><time>2026-04-25T13:04:55.693Z</time></trkpt><trkpt lat="45.3828817" lon="7.715285"><ele>341.99999999999994</ele><time>2026-04-25T13:04:56.693Z</time></trkpt><trkpt lat="45.3828733" lon="7.7153817"><ele>342.0</ele><time>2026-04-25T13:04:57.693Z</time></trkpt><trkpt lat="45.3828717" lon="7.7154867"><ele>342.0</ele><time>2026-04-25T13:04:58.693Z</time></trkpt><trkpt lat="45.3828733" lon="7.715595"><ele>342.0</ele><time>2026-04-25T13:04:59.693Z</time></trkpt><trkpt lat="45.3828733" lon="7.715695"><ele>342.0</ele><time>2026-04-25T13:05:00.693Z</time></trkpt><trkpt lat="45.3828733" lon="7.715795"><ele>341.99999999999994</ele><time>2026-04-25T13:05:01.693Z</time></trkpt><trkpt lat="45.3828717" lon="7.7158917"><ele>342.0</ele><time>2026-04-25T13:05:02.693Z</time></trkpt><trkpt lat="45.3828717" lon="7.715985"><ele>342.0</ele><time>2026-04-25T13:05:03.693Z</time></trkpt><trkpt lat="45.38286" lon="7.716155"><ele>342.0</ele><time>2026-04-25T13:05:05.693Z</time></trkpt><trkpt lat="45.3828583" lon="7.7163017"><ele>342.0</ele><time>2026-04-25T13:05:07.693Z</time></trkpt><trkpt lat="45.3828533" lon="7.71641"><ele>342.0</ele><time>2026-04-25T13:05:09.693Z</time></trkpt><trkpt lat="45.3828667" lon="7.7165167"><ele>342.0</ele><time>2026-04-25T13:05:13.693Z</time></trkpt><trkpt lat="45.382855" lon="7.7166667"><ele>342.0</ele><time>2026-04-25T13:05:17.693Z</time></trkpt><trkpt lat="45.3828583" lon="7.7168283"><ele>342.0</ele><time>2026-04-25T13:05:19.693Z</time></trkpt><trkpt lat="45.3828617" lon="7.7169617"><ele>342.0</ele><time>2026-04-25T13:05:21.693Z</time></trkpt><trkpt lat="45.3828483" lon="7.71712"><ele>342.0</ele><time>2026-04-25T13:05:23.693Z</time></trkpt><trkpt lat="45.3828467" lon="7.71727"><ele>342.0</ele><time>2026-04-25T13:05:25.693Z</time></trkpt><trkpt lat="45.382885" lon="7.71743"><ele>341.40000000000003</ele><time>2026-04-25T13:05:27.693Z</time></trkpt><trkpt lat="45.3830017" lon="7.7174917"><ele>340.8</ele><time>2026-04-25T13:05:29.693Z</time></trkpt><trkpt lat="45.3830817" lon="7.7174917"><ele>340.2</ele><time>2026-04-25T13:05:30.693Z</time></trkpt><trkpt lat="45.3831883" lon="7.7174717"><ele>339.6</ele><time>2026-04-25T13:05:31.693Z</time></trkpt><trkpt lat="45.383285" lon="7.7174583"><ele>339.0</ele><time>2026-04-25T13:05:32.693Z</time></trkpt><trkpt lat="45.3833783" lon="7.7174617"><ele>339.0</ele><time>2026-04-25T13:05:33.694Z</time></trkpt><trkpt lat="45.3834683" lon="7.71746"><ele>339.0</ele><time>2026-04-25T13:05:34.693Z</time></trkpt><trkpt lat="45.3835733" lon="7.717455"><ele>339.0</ele><time>2026-04-25T13:05:35.693Z</time></trkpt><trkpt lat="45.383675" lon="7.7174483"><ele>339.0</ele><time>2026-04-25T13:05:36.693Z</time></trkpt><trkpt lat="45.3837817" lon="7.7174433"><ele>339.0</ele><time>2026-04-25T13:05:37.693Z</time></trkpt><trkpt lat="45.3838983" lon="7.71744"><ele>339.25</ele><time>2026-04-25T13:05:38.693Z</time></trkpt><trkpt lat="45.38403" lon="7.7174433"><ele>339.5</ele><time>2026-04-25T13:05:39.693Z</time></trkpt><trkpt lat="45.38416" lon="7.71744"><ele>339.75</ele><time>2026-04-25T13:05:40.693Z</time></trkpt><trkpt lat="45.3842967" lon="7.717435"><ele>340.0</ele><time>2026-04-25T13:05:41.693Z</time></trkpt><trkpt lat="45.3844283" lon="7.7174233"><ele>340.0</ele><time>2026-04-25T13:05:42.693Z</time></trkpt><trkpt lat="45.3845517" lon="7.7174117"><ele>340.0</ele><time>2026-04-25T13:05:43.693Z</time></trkpt><trkpt lat="45.38467" lon="7.71739"><ele>340.0</ele><time>2026-04-25T13:05:44.693Z</time></trkpt><trkpt lat="45.3847717" lon="7.7173717"><ele>340.0</ele><time>2026-04-25T13:05:45.693Z</time></trkpt><trkpt lat="45.38487" lon="7.71736"><ele>340.0</ele><time>2026-04-25T13:05:46.693Z</time></trkpt><trkpt lat="45.3849533" lon="7.717325"><ele>340.5</ele><time>2026-04-25T13:05:47.693Z</time></trkpt><trkpt lat="45.3850333" lon="7.71729"><ele>341.0</ele><time>2026-04-25T13:05:48.693Z</time></trkpt><trkpt lat="45.3851483" lon="7.7172583"><ele>341.5</ele><time>2026-04-25T13:05:50.693Z</time></trkpt><trkpt lat="45.3852067" lon="7.7172233"><ele>342.0</ele><time>2026-04-25T13:05:51.693Z</time></trkpt><trkpt lat="45.3852733" lon="7.717195"><ele>342.5</ele><time>2026-04-25T13:05:52.693Z</time></trkpt><trkpt lat="45.3853783" lon="7.7171467"><ele>343.0</ele><time>2026-04-25T13:05:54.693Z</time></trkpt><trkpt lat="45.3854633" lon="7.7171517"><ele>343.0</ele><time>2026-04-25T13:05:56.693Z</time></trkpt><trkpt lat="45.38554" lon="7.7172267"><ele>343.0</ele><time>2026-04-25T13:05:58.693Z</time></trkpt><trkpt lat="45.3855883" lon="7.71742"><ele>343.0</ele><time>2026-04-25T13:06:00.693Z</time></trkpt><trkpt lat="45.3856067" lon="7.7175433"><ele>343.0</ele><time>2026-04-25T13:06:01.693Z</time></trkpt><trkpt lat="45.3856233" lon="7.7176517"><ele>343.0</ele><time>2026-04-25T13:06:02.693Z</time></trkpt><trkpt lat="45.38564" lon="7.7177483"><ele>343.0</ele><time>2026-04-25T13:06:03.693Z</time></trkpt><trkpt lat="45.385645" lon="7.717845"><ele>343.0</ele><time>2026-04-25T13:06:04.693Z</time></trkpt><trkpt lat="45.3856517" lon="7.7179533"><ele>343.0</ele><time>2026-04-25T13:06:05.693Z</time></trkpt><trkpt lat="45.3856617" lon="7.7180833"><ele>343.0</ele><time>2026-04-25T13:06:06.693Z</time></trkpt><trkpt lat="45.3856733" lon="7.718225"><ele>343.0</ele><time>2026-04-25T13:06:07.693Z</time></trkpt><trkpt lat="45.3856867" lon="7.71838"><ele>343.0</ele><time>2026-04-25T13:06:08.693Z</time></trkpt><trkpt lat="45.3856983" lon="7.7185467"><ele>342.25</ele><time>2026-04-25T13:06:09.693Z</time></trkpt><trkpt lat="45.3857117" lon="7.7187217"><ele>341.5</ele><time>2026-04-25T13:06:10.693Z</time></trkpt><trkpt lat="45.3857217" lon="7.718915"><ele>340.75</ele><time>2026-04-25T13:06:11.693Z</time></trkpt><trkpt lat="45.3857417" lon="7.719105"><ele>340.0</ele><time>2026-04-25T13:06:12.693Z</time></trkpt><trkpt lat="45.3857733" lon="7.7193"><ele>340.0</ele><time>2026-04-25T13:06:13.693Z</time></trkpt><trkpt lat="45.3857917" lon="7.7194817"><ele>340.0</ele><time>2026-04-25T13:06:14.693Z</time></trkpt><trkpt lat="45.3858033" lon="7.7196733"><ele>340.0</ele><time>2026-04-25T13:06:15.693Z</time></trkpt><trkpt lat="45.3858167" lon="7.7198617"><ele>340.0</ele><time>2026-04-25T13:06:16.693Z</time></trkpt><trkpt lat="45.3858383" lon="7.7200417"><ele>340.0</ele><time>2026-04-25T13:06:17.693Z</time></trkpt><trkpt lat="45.38585" lon="7.7202117"><ele>340.0</ele><time>2026-04-25T13:06:18.693Z</time></trkpt><trkpt lat="45.3858683" lon="7.7203683"><ele>340.0</ele><time>2026-04-25T13:06:19.693Z</time></trkpt><trkpt lat="45.385875" lon="7.720515"><ele>340.0</ele><time>2026-04-25T13:06:20.693Z</time></trkpt><trkpt lat="45.3858867" lon="7.720655"><ele>340.0</ele><time>2026-04-25T13:06:21.693Z</time></trkpt><trkpt lat="45.3858967" lon="7.720805"><ele>340.0</ele><time>2026-04-25T13:06:22.693Z</time></trkpt><trkpt lat="45.3859133" lon="7.7209767"><ele>340.0</ele><time>2026-04-25T13:06:23.693Z</time></trkpt><trkpt lat="45.3859533" lon="7.7211533"><ele>340.0</ele><time>2026-04-25T13:06:24.693Z</time></trkpt><trkpt lat="45.3859983" lon="7.7213317"><ele>340.0</ele><time>2026-04-25T13:06:25.693Z</time></trkpt><trkpt lat="45.38605" lon="7.7214767"><ele>339.75</ele><time>2026-04-25T13:06:26.693Z</time></trkpt><trkpt lat="45.3861283" lon="7.721615"><ele>339.5</ele><time>2026-04-25T13:06:27.693Z</time></trkpt><trkpt lat="45.38621" lon="7.7217517"><ele>339.25</ele><time>2026-04-25T13:06:28.693Z</time></trkpt><trkpt lat="45.386305" lon="7.721895"><ele>339.0</ele><time>2026-04-25T13:06:29.693Z</time></trkpt><trkpt lat="45.3864083" lon="7.7220267"><ele>339.0</ele><time>2026-04-25T13:06:30.693Z</time></trkpt><trkpt lat="45.3865033" lon="7.7221433"><ele>339.0</ele><time>2026-04-25T13:06:31.693Z</time></trkpt><trkpt lat="45.38659" lon="7.722265"><ele>339.0</ele><time>2026-04-25T13:06:32.693Z</time></trkpt><trkpt lat="45.38668" lon="7.72238"><ele>339.0</ele><time>2026-04-25T13:06:33.693Z</time></trkpt><trkpt lat="45.3867667" lon="7.7224933"><ele>339.0</ele><time>2026-04-25T13:06:34.693Z</time></trkpt><trkpt lat="45.3868517" lon="7.7225967"><ele>339.0</ele><time>2026-04-25T13:06:35.693Z</time></trkpt><trkpt lat="45.386935" lon="7.7226867"><ele>339.0</ele><time>2026-04-25T13:06:36.693Z</time></trkpt><trkpt lat="45.3870133" lon="7.7227767"><ele>339.0</ele><time>2026-04-25T13:06:37.693Z</time></trkpt><trkpt lat="45.3871067" lon="7.7228517"><ele>339.0</ele><time>2026-04-25T13:06:38.693Z</time></trkpt><trkpt lat="45.387205" lon="7.7229267"><ele>340.5</ele><time>2026-04-25T13:06:39.693Z</time></trkpt><trkpt lat="45.3873167" lon="7.723"><ele>342.0</ele><time>2026-04-25T13:06:40.693Z</time></trkpt><trkpt lat="45.3874183" lon="7.7230617"><ele>343.5</ele><time>2026-04-25T13:06:41.693Z</time></trkpt><trkpt lat="45.3875183" lon="7.7231433"><ele>345.0</ele><time>2026-04-25T13:06:42.693Z</time></trkpt><trkpt lat="45.387625" lon="7.72322"><ele>345.0</ele><time>2026-04-25T13:06:43.693Z</time></trkpt><trkpt lat="45.3877267" lon="7.723315"><ele>345.0</ele><time>2026-04-25T13:06:44.693Z</time></trkpt><trkpt lat="45.3878183" lon="7.7234167"><ele>345.0</ele><time>2026-04-25T13:06:45.693Z</time></trkpt><trkpt lat="45.387895" lon="7.7235317"><ele>345.0</ele><time>2026-04-25T13:06:46.693Z</time></trkpt><trkpt lat="45.3879717" lon="7.72366"><ele>343.5</ele><time>2026-04-25T13:06:47.693Z</time></trkpt><trkpt lat="45.3880417" lon="7.72379"><ele>342.0</ele><time>2026-04-25T13:06:48.693Z</time></trkpt><trkpt lat="45.3881167" lon="7.7239233"><ele>340.5</ele><time>2026-04-25T13:06:49.693Z</time></trkpt><trkpt lat="45.38818" lon="7.7240617"><ele>339.0</ele><time>2026-04-25T13:06:50.693Z</time></trkpt><trkpt lat="45.3882567" lon="7.7242067"><ele>339.0</ele><time>2026-04-25T13:06:51.693Z</time></trkpt><trkpt lat="45.3883317" lon="7.72435"><ele>339.0</ele><time>2026-04-25T13:06:52.693Z</time></trkpt><trkpt lat="45.38841" lon="7.7244917"><ele>339.0</ele><time>2026-04-25T13:06:53.693Z</time></trkpt><trkpt lat="45.38849" lon="7.7246317"><ele>339.0</ele><time>2026-04-25T13:06:54.693Z</time></trkpt><trkpt lat="45.3885583" lon="7.72477"><ele>339.25</ele><time>2026-04-25T13:06:55.693Z</time></trkpt><trkpt lat="45.3886267" lon="7.724905"><ele>339.5</ele><time>2026-04-25T13:06:56.693Z</time></trkpt><trkpt lat="45.3887017" lon="7.7250433"><ele>339.75</ele><time>2026-04-25T13:06:57.693Z</time></trkpt><trkpt lat="45.3887817" lon="7.725195"><ele>340.0</ele><time>2026-04-25T13:06:58.693Z</time></trkpt><trkpt lat="45.3888633" lon="7.7253517"><ele>340.0</ele><time>2026-04-25T13:06:59.693Z</time></trkpt><trkpt lat="45.3889483" lon="7.7254983"><ele>340.0</ele><time>2026-04-25T13:07:00.693Z</time></trkpt><trkpt lat="45.3890267" lon="7.7256417"><ele>340.0</ele><time>2026-04-25T13:07:01.694Z</time></trkpt><trkpt lat="45.38911" lon="7.7257917"><ele>340.0</ele><time>2026-04-25T13:07:02.693Z</time></trkpt><trkpt lat="45.3891933" lon="7.7259567"><ele>339.66666666666663</ele><time>2026-04-25T13:07:03.694Z</time></trkpt><trkpt lat="45.3892783" lon="7.7261317"><ele>339.3333333333333</ele><time>2026-04-25T13:07:04.693Z</time></trkpt><trkpt lat="45.3893833" lon="7.7263333"><ele>339.0</ele><time>2026-04-25T13:07:05.693Z</time></trkpt><trkpt lat="45.3895033" lon="7.7265583"><ele>339.0</ele><time>2026-04-25T13:07:06.693Z</time></trkpt><trkpt lat="45.3896383" lon="7.7268083"><ele>339.0</ele><time>2026-04-25T13:07:07.693Z</time></trkpt><trkpt lat="45.389775" lon="7.7270433"><ele>339.0</ele><time>2026-04-25T13:07:08.693Z</time></trkpt><trkpt lat="45.3899233" lon="7.72729"><ele>339.5</ele><time>2026-04-25T13:07:09.693Z</time></trkpt><trkpt lat="45.3900833" lon="7.7275667"><ele>340.0</ele><time>2026-04-25T13:07:10.693Z</time></trkpt><trkpt lat="45.3902483" lon="7.7278733"><ele>340.0</ele><time>2026-04-25T13:07:11.693Z</time></trkpt><trkpt lat="45.3904217" lon="7.7281933"><ele>340.0</ele><time>2026-04-25T13:07:12.693Z</time></trkpt><trkpt lat="45.3905767" lon="7.7285183"><ele>341.0</ele><time>2026-04-25T13:07:13.693Z</time></trkpt><trkpt lat="45.390725" lon="7.7288317"><ele>342.0</ele><time>2026-04-25T13:07:14.693Z</time></trkpt><trkpt lat="45.390865" lon="7.729115"><ele>342.0</ele><time>2026-04-25T13:07:15.693Z</time></trkpt><trkpt lat="45.3909967" lon="7.7293733"><ele>342.0</ele><time>2026-04-25T13:07:16.693Z</time></trkpt><trkpt lat="45.39113" lon="7.7296267"><ele>342.0</ele><time>2026-04-25T13:07:17.693Z</time></trkpt><trkpt lat="45.3912683" lon="7.7298783"><ele>341.6666666666667</ele><time>2026-04-25T13:07:18.693Z</time></trkpt><trkpt lat="45.3914117" lon="7.7301367"><ele>341.33333333333337</ele><time>2026-04-25T13:07:19.693Z</time></trkpt><trkpt lat="45.3915433" lon="7.7303833"><ele>341.0</ele><time>2026-04-25T13:07:20.693Z</time></trkpt><trkpt lat="45.3916683" lon="7.7306117"><ele>341.0</ele><time>2026-04-25T13:07:21.693Z</time></trkpt><trkpt lat="45.391795" lon="7.73083"><ele>341.0</ele><time>2026-04-25T13:07:22.693Z</time></trkpt><trkpt lat="45.39193" lon="7.7310233"><ele>341.0</ele><time>2026-04-25T13:07:23.693Z</time></trkpt><trkpt lat="45.392095" lon="7.7312083"><ele>342.0</ele><time>2026-04-25T13:07:24.693Z</time></trkpt><trkpt lat="45.3922667" lon="7.7313617"><ele>343.0</ele><time>2026-04-25T13:07:25.693Z</time></trkpt><trkpt lat="45.3924433" lon="7.7314983"><ele>344.0</ele><time>2026-04-25T13:07:26.693Z</time></trkpt><trkpt lat="45.3926067" lon="7.7316433"><ele>344.0</ele><time>2026-04-25T13:07:27.693Z</time></trkpt><trkpt lat="45.3927583" lon="7.731775"><ele>344.0</ele><time>2026-04-25T13:07:28.693Z</time></trkpt><trkpt lat="45.3929167" lon="7.73192"><ele>344.0</ele><time>2026-04-25T13:07:29.693Z</time></trkpt><trkpt lat="45.393065" lon="7.73206"><ele>344.6666666666667</ele><time>2026-04-25T13:07:30.693Z</time></trkpt><trkpt lat="45.393235" lon="7.7322133"><ele>345.3333333333333</ele><time>2026-04-25T13:07:31.693Z</time></trkpt><trkpt lat="45.393415" lon="7.73237"><ele>346.0</ele><time>2026-04-25T13:07:32.693Z</time></trkpt><trkpt lat="45.393585" lon="7.7325083"><ele>346.0</ele><time>2026-04-25T13:07:33.693Z</time></trkpt><trkpt lat="45.3937467" lon="7.7326433"><ele>346.0</ele><time>2026-04-25T13:07:34.693Z</time></trkpt><trkpt lat="45.3939017" lon="7.73278"><ele>346.0</ele><time>2026-04-25T13:07:35.693Z</time></trkpt><trkpt lat="45.3940633" lon="7.7329217"><ele>346.3333333333333</ele><time>2026-04-25T13:07:36.693Z</time></trkpt><trkpt lat="45.3942217" lon="7.733065"><ele>346.6666666666667</ele><time>2026-04-25T13:07:37.693Z</time></trkpt><trkpt lat="45.3943783" lon="7.7332067"><ele>347.0</ele><time>2026-04-25T13:07:38.693Z</time></trkpt><trkpt lat="45.3945467" lon="7.73335"><ele>348.0</ele><time>2026-04-25T13:07:39.693Z</time></trkpt><trkpt lat="45.3947083" lon="7.7334933"><ele>349.0</ele><time>2026-04-25T13:07:40.693Z</time></trkpt><trkpt lat="45.3948583" lon="7.7336383"><ele>350.0</ele><time>2026-04-25T13:07:41.693Z</time></trkpt><trkpt lat="45.3950083" lon="7.7337717"><ele>350.6666666666667</ele><time>2026-04-25T13:07:42.693Z</time></trkpt><trkpt lat="45.39515" lon="7.7338967"><ele>351.3333333333333</ele><time>2026-04-25T13:07:43.693Z</time></trkpt><trkpt lat="45.3952817" lon="7.7340117"><ele>352.0</ele><time>2026-04-25T13:07:44.693Z</time></trkpt><trkpt lat="45.3954033" lon="7.73413"><ele>351.66666666666663</ele><time>2026-04-25T13:07:45.693Z</time></trkpt><trkpt lat="45.395535" lon="7.734245"><ele>351.3333333333333</ele><time>2026-04-25T13:07:46.693Z</time></trkpt><trkpt lat="45.3956667" lon="7.734365"><ele>351.0</ele><time>2026-04-25T13:07:47.693Z</time></trkpt><trkpt lat="45.395795" lon="7.7344833"><ele>351.0</ele><time>2026-04-25T13:07:48.693Z</time></trkpt><trkpt lat="45.3959233" lon="7.734605"><ele>351.0</ele><time>2026-04-25T13:07:49.693Z</time></trkpt><trkpt lat="45.3960767" lon="7.73474"><ele>351.0</ele><time>2026-04-25T13:07:50.693Z</time></trkpt><trkpt lat="45.3962417" lon="7.7348867"><ele>351.0</ele><time>2026-04-25T13:07:51.693Z</time></trkpt><trkpt lat="45.3964033" lon="7.73504"><ele>351.0</ele><time>2026-04-25T13:07:52.693Z</time></trkpt><trkpt lat="45.3965733" lon="7.735195"><ele>351.0</ele><time>2026-04-25T13:07:53.693Z</time></trkpt><trkpt lat="45.396765" lon="7.7353667"><ele>351.0</ele><time>2026-04-25T13:07:54.693Z</time></trkpt><trkpt lat="45.3969633" lon="7.735545"><ele>351.0</ele><time>2026-04-25T13:07:55.693Z</time></trkpt><trkpt lat="45.397175" lon="7.7357267"><ele>353.0</ele><time>2026-04-25T13:07:56.693Z</time></trkpt><trkpt lat="45.3973833" lon="7.7359033"><ele>355.0</ele><time>2026-04-25T13:07:57.693Z</time></trkpt><trkpt lat="45.3975783" lon="7.73607"><ele>355.0</ele><time>2026-04-25T13:07:58.693Z</time></trkpt><trkpt lat="45.3977717" lon="7.7362483"><ele>355.0</ele><time>2026-04-25T13:07:59.693Z</time></trkpt><trkpt lat="45.397975" lon="7.73643"><ele>356.3333333333333</ele><time>2026-04-25T13:08:00.693Z</time></trkpt><trkpt lat="45.3981667" lon="7.7365967"><ele>357.6666666666667</ele><time>2026-04-25T13:08:01.693Z</time></trkpt><trkpt lat="45.3983517" lon="7.73676"><ele>359.0</ele><time>2026-04-25T13:08:02.693Z</time></trkpt><trkpt lat="45.3985233" lon="7.7369083"><ele>359.0</ele><time>2026-04-25T13:08:03.693Z</time></trkpt><trkpt lat="45.3986917" lon="7.7370567"><ele>359.0</ele><time>2026-04-25T13:08:04.693Z</time></trkpt><trkpt lat="45.3988617" lon="7.73722"><ele>359.0</ele><time>2026-04-25T13:08:05.693Z</time></trkpt><trkpt lat="45.399035" lon="7.7373867"><ele>360.0</ele><time>2026-04-25T13:08:06.693Z</time></trkpt><trkpt lat="45.399205" lon="7.737535"><ele>361.0</ele><time>2026-04-25T13:08:07.693Z</time></trkpt><trkpt lat="45.3993667" lon="7.73768"><ele>362.0</ele><time>2026-04-25T13:08:08.693Z</time></trkpt><trkpt lat="45.39952" lon="7.7378067"><ele>362.0</ele><time>2026-04-25T13:08:09.693Z</time></trkpt><trkpt lat="45.3996417" lon="7.737915"><ele>362.0</ele><time>2026-04-25T13:08:10.693Z</time></trkpt><trkpt lat="45.3997267" lon="7.7379933"><ele>362.0</ele><time>2026-04-25T13:08:11.693Z</time></trkpt><trkpt lat="45.3997883" lon="7.7380417"><ele>362.0</ele><time>2026-04-25T13:08:12.693Z</time></trkpt><trkpt lat="45.399855" lon="7.7380633"><ele>362.0</ele><time>2026-04-25T13:08:13.693Z</time></trkpt><trkpt lat="45.3999283" lon="7.73805"><ele>362.5</ele><time>2026-04-25T13:08:14.693Z</time></trkpt><trkpt lat="45.3999883" lon="7.7379883"><ele>363.0</ele><time>2026-04-25T13:08:15.693Z</time></trkpt><trkpt lat="45.4000467" lon="7.7378683"><ele>363.5</ele><time>2026-04-25T13:08:16.693Z</time></trkpt><trkpt lat="45.40009" lon="7.7376867"><ele>364.0</ele><time>2026-04-25T13:08:17.693Z</time></trkpt><trkpt lat="45.4001433" lon="7.737435"><ele>364.0</ele><time>2026-04-25T13:08:18.693Z</time></trkpt><trkpt lat="45.4002317" lon="7.7371867"><ele>364.0</ele><time>2026-04-25T13:08:19.693Z</time></trkpt><trkpt lat="45.40034" lon="7.73693"><ele>364.0</ele><time>2026-04-25T13:08:20.693Z</time></trkpt><trkpt lat="45.40045" lon="7.7366783"><ele>364.0</ele><time>2026-04-25T13:08:21.693Z</time></trkpt><trkpt lat="45.400555" lon="7.73644"><ele>364.0</ele><time>2026-04-25T13:08:22.693Z</time></trkpt><trkpt lat="45.4006533" lon="7.73622"><ele>364.0</ele><time>2026-04-25T13:08:23.693Z</time></trkpt><trkpt lat="45.4007367" lon="7.736025"><ele>364.0</ele><time>2026-04-25T13:08:24.693Z</time></trkpt><trkpt lat="45.4008183" lon="7.7358533"><ele>364.0</ele><time>2026-04-25T13:08:25.693Z</time></trkpt><trkpt lat="45.400915" lon="7.73571"><ele>364.0</ele><time>2026-04-25T13:08:26.693Z</time></trkpt><trkpt lat="45.40104" lon="7.7355983"><ele>364.0</ele><time>2026-04-25T13:08:27.693Z</time></trkpt><trkpt lat="45.4011933" lon="7.7354983"><ele>364.3333333333333</ele><time>2026-04-25T13:08:28.693Z</time></trkpt><trkpt lat="45.4013817" lon="7.7354133"><ele>364.6666666666667</ele><time>2026-04-25T13:08:29.693Z</time></trkpt><trkpt lat="45.4015767" lon="7.7353233"><ele>365.0</ele><time>2026-04-25T13:08:30.693Z</time></trkpt><trkpt lat="45.401775" lon="7.7352317"><ele>365.5</ele><time>2026-04-25T13:08:31.694Z</time></trkpt><trkpt lat="45.4019833" lon="7.7351067"><ele>366.0</ele><time>2026-04-25T13:08:32.693Z</time></trkpt><trkpt lat="45.402185" lon="7.7349567"><ele>366.0</ele><time>2026-04-25T13:08:33.693Z</time></trkpt><trkpt lat="45.4023667" lon="7.7347817"><ele>366.0</ele><time>2026-04-25T13:08:34.693Z</time></trkpt><trkpt lat="45.4025233" lon="7.7345983"><ele>366.0</ele><time>2026-04-25T13:08:35.693Z</time></trkpt><trkpt lat="45.402665" lon="7.73442"><ele>365.3333333333333</ele><time>2026-04-25T13:08:36.693Z</time></trkpt><trkpt lat="45.402815" lon="7.7342433"><ele>364.66666666666663</ele><time>2026-04-25T13:08:37.693Z</time></trkpt><trkpt lat="45.4029817" lon="7.7340733"><ele>364.0</ele><time>2026-04-25T13:08:38.693Z</time></trkpt><trkpt lat="45.4031617" lon="7.7339"><ele>364.66666666666663</ele><time>2026-04-25T13:08:39.693Z</time></trkpt><trkpt lat="45.403345" lon="7.7337383"><ele>365.3333333333333</ele><time>2026-04-25T13:08:40.693Z</time></trkpt><trkpt lat="45.4035233" lon="7.7335883"><ele>366.0</ele><time>2026-04-25T13:08:41.693Z</time></trkpt><trkpt lat="45.40369" lon="7.733445"><ele>367.0</ele><time>2026-04-25T13:08:42.693Z</time></trkpt><trkpt lat="45.4038417" lon="7.7333133"><ele>368.0</ele><time>2026-04-25T13:08:43.693Z</time></trkpt><trkpt lat="45.4039867" lon="7.73319"><ele>369.0</ele><time>2026-04-25T13:08:44.693Z</time></trkpt><trkpt lat="45.40412" lon="7.7330667"><ele>369.0</ele><time>2026-04-25T13:08:45.694Z</time></trkpt><trkpt lat="45.4042417" lon="7.7329567"><ele>369.0</ele><time>2026-04-25T13:08:46.693Z</time></trkpt><trkpt lat="45.4043667" lon="7.7328533"><ele>369.0</ele><time>2026-04-25T13:08:47.693Z</time></trkpt><trkpt lat="45.4044867" lon="7.7327533"><ele>369.0</ele><time>2026-04-25T13:08:48.693Z</time></trkpt><trkpt lat="45.4046083" lon="7.7326617"><ele>371.25</ele><time>2026-04-25T13:08:49.692Z</time></trkpt><trkpt lat="45.4047117" lon="7.7325583"><ele>373.5</ele><time>2026-04-25T13:08:50.692Z</time></trkpt><trkpt lat="45.4047717" lon="7.7324217"><ele>375.75</ele><time>2026-04-25T13:08:51.692Z</time></trkpt><trkpt lat="45.4047833" lon="7.7322317"><ele>378.0</ele><time>2026-04-25T13:08:52.692Z</time></trkpt><trkpt lat="45.40475" lon="7.732015"><ele>378.59999999999997</ele><time>2026-04-25T13:08:53.692Z</time></trkpt><trkpt lat="45.404705" lon="7.7318167"><ele>379.2</ele><time>2026-04-25T13:08:54.692Z</time></trkpt><trkpt lat="45.4046583" lon="7.7316483"><ele>379.8</ele><time>2026-04-25T13:08:55.692Z</time></trkpt><trkpt lat="45.4046283" lon="7.7315433"><ele>380.4</ele><time>2026-04-25T13:08:56.692Z</time></trkpt><trkpt lat="45.4046133" lon="7.7314217"><ele>381.0</ele><time>2026-04-25T13:08:58.692Z</time></trkpt><trkpt lat="45.4046833" lon="7.7313517"><ele>381.0</ele><time>2026-04-25T13:09:00.693Z</time></trkpt><trkpt lat="45.4048083" lon="7.7314517"><ele>381.0</ele><time>2026-04-25T13:09:02.692Z</time></trkpt><trkpt lat="45.4049183" lon="7.731575"><ele>381.0</ele><time>2026-04-25T13:09:03.692Z</time></trkpt><trkpt lat="45.4050483" lon="7.7317383"><ele>380.0</ele><time>2026-04-25T13:09:04.692Z</time></trkpt><trkpt lat="45.4052033" lon="7.7319483"><ele>379.0</ele><time>2026-04-25T13:09:05.692Z</time></trkpt><trkpt lat="45.4053667" lon="7.7321333"><ele>378.0</ele><time>2026-04-25T13:09:06.692Z</time></trkpt><trkpt lat="45.4055367" lon="7.7322867"><ele>382.33333333333337</ele><time>2026-04-25T13:09:07.692Z</time></trkpt><trkpt lat="45.4057" lon="7.7323983"><ele>386.6666666666667</ele><time>2026-04-25T13:09:08.692Z</time></trkpt><trkpt lat="45.4058633" lon="7.732485"><ele>391.0</ele><time>2026-04-25T13:09:09.692Z</time></trkpt><trkpt lat="45.4060267" lon="7.7325567"><ele>391.0</ele><time>2026-04-25T13:09:10.692Z</time></trkpt><trkpt lat="45.4062" lon="7.73259"><ele>391.0</ele><time>2026-04-25T13:09:11.692Z</time></trkpt><trkpt lat="45.4063667" lon="7.7325783"><ele>391.0</ele><time>2026-04-25T13:09:12.692Z</time></trkpt><trkpt lat="45.406515" lon="7.732515"><ele>393.5</ele><time>2026-04-25T13:09:13.692Z</time></trkpt><trkpt lat="45.4066617" lon="7.73248"><ele>396.0</ele><time>2026-04-25T13:09:14.692Z</time></trkpt><trkpt lat="45.4067883" lon="7.7324617"><ele>398.5</ele><time>2026-04-25T13:09:15.692Z</time></trkpt><trkpt lat="45.40691" lon="7.732455"><ele>401.0</ele><time>2026-04-25T13:09:16.692Z</time></trkpt><trkpt lat="45.4070133" lon="7.7324"><ele>401.0</ele><time>2026-04-25T13:09:17.692Z</time></trkpt><trkpt lat="45.4070933" lon="7.7323017"><ele>401.0</ele><time>2026-04-25T13:09:18.692Z</time></trkpt><trkpt lat="45.40714" lon="7.732145"><ele>401.0</ele><time>2026-04-25T13:09:19.692Z</time></trkpt><trkpt lat="45.4071917" lon="7.7319983"><ele>401.0</ele><time>2026-04-25T13:09:20.692Z</time></trkpt><trkpt lat="45.4072633" lon="7.731875"><ele>402.5</ele><time>2026-04-25T13:09:21.692Z</time></trkpt><trkpt lat="45.4073667" lon="7.7318033"><ele>404.0</ele><time>2026-04-25T13:09:22.692Z</time></trkpt><trkpt lat="45.4074917" lon="7.73177"><ele>405.5</ele><time>2026-04-25T13:09:23.692Z</time></trkpt><trkpt lat="45.407615" lon="7.73174"><ele>407.0</ele><time>2026-04-25T13:09:24.692Z</time></trkpt><trkpt lat="45.4077033" lon="7.7316283"><ele>407.0</ele><time>2026-04-25T13:09:25.692Z</time></trkpt><trkpt lat="45.40776" lon="7.7314667"><ele>407.0</ele><time>2026-04-25T13:09:26.692Z</time></trkpt><trkpt lat="45.4078233" lon="7.7312617"><ele>407.0</ele><time>2026-04-25T13:09:27.692Z</time></trkpt><trkpt lat="45.40792" lon="7.7310467"><ele>407.66666666666663</ele><time>2026-04-25T13:09:28.692Z</time></trkpt><trkpt lat="45.4080417" lon="7.73084"><ele>408.33333333333337</ele><time>2026-04-25T13:09:29.692Z</time></trkpt><trkpt lat="45.40819" lon="7.7306617"><ele>409.0</ele><time>2026-04-25T13:09:30.692Z</time></trkpt><trkpt lat="45.4083433" lon="7.7305367"><ele>409.0</ele><time>2026-04-25T13:09:31.692Z</time></trkpt><trkpt lat="45.4085267" lon="7.7304517"><ele>409.0</ele><time>2026-04-25T13:09:32.693Z</time></trkpt><trkpt lat="45.408725" lon="7.730405"><ele>409.0</ele><time>2026-04-25T13:09:33.692Z</time></trkpt><trkpt lat="45.40893" lon="7.730395"><ele>409.0</ele><time>2026-04-25T13:09:34.692Z</time></trkpt><trkpt lat="45.4091483" lon="7.7303933"><ele>409.0</ele><time>2026-04-25T13:09:35.692Z</time></trkpt><trkpt lat="45.40937" lon="7.7303983"><ele>409.0</ele><time>2026-04-25T13:09:36.692Z</time></trkpt><trkpt lat="45.4095917" lon="7.7303833"><ele>409.6666666666667</ele><time>2026-04-25T13:09:37.692Z</time></trkpt><trkpt lat="45.4098133" lon="7.730365"><ele>410.33333333333337</ele><time>2026-04-25T13:09:38.692Z</time></trkpt><trkpt lat="45.4100267" lon="7.7303467"><ele>411.0</ele><time>2026-04-25T13:09:39.692Z</time></trkpt><trkpt lat="45.41023" lon="7.7303083"><ele>411.0</ele><time>2026-04-25T13:09:40.692Z</time></trkpt><trkpt lat="45.4104283" lon="7.730255"><ele>411.0</ele><time>2026-04-25T13:09:41.692Z</time></trkpt><trkpt lat="45.4106333" lon="7.7302017"><ele>411.0</ele><time>2026-04-25T13:09:42.692Z</time></trkpt><trkpt lat="45.4108383" lon="7.7301617"><ele>411.66666666666663</ele><time>2026-04-25T13:09:43.692Z</time></trkpt><trkpt lat="45.4110533" lon="7.7301117"><ele>412.3333333333333</ele><time>2026-04-25T13:09:44.692Z</time></trkpt><trkpt lat="45.4112583" lon="7.7300767"><ele>413.0</ele><time>2026-04-25T13:09:45.692Z</time></trkpt><trkpt lat="45.411475" lon="7.7300567"><ele>414.3333333333333</ele><time>2026-04-25T13:09:46.692Z</time></trkpt><trkpt lat="45.4116783" lon="7.7300383"><ele>415.66666666666663</ele><time>2026-04-25T13:09:47.692Z</time></trkpt><trkpt lat="45.41187" lon="7.730015"><ele>417.0</ele><time>2026-04-25T13:09:48.692Z</time></trkpt><trkpt lat="45.4120633" lon="7.729995"><ele>419.0</ele><time>2026-04-25T13:09:49.692Z</time></trkpt><trkpt lat="45.412265" lon="7.7299633"><ele>421.0</ele><time>2026-04-25T13:09:50.693Z</time></trkpt><trkpt lat="45.412465" lon="7.72992"><ele>423.0</ele><time>2026-04-25T13:09:51.692Z</time></trkpt><trkpt lat="45.41265" lon="7.7299017"><ele>423.0</ele><time>2026-04-25T13:09:52.692Z</time></trkpt><trkpt lat="45.4128217" lon="7.7298683"><ele>423.0</ele><time>2026-04-25T13:09:53.692Z</time></trkpt><trkpt lat="45.412995" lon="7.7298467"><ele>423.0</ele><time>2026-04-25T13:09:54.692Z</time></trkpt><trkpt lat="45.4131767" lon="7.7298183"><ele>426.0</ele><time>2026-04-25T13:09:55.692Z</time></trkpt><trkpt lat="45.4133717" lon="7.7297783"><ele>429.0</ele><time>2026-04-25T13:09:56.692Z</time></trkpt><trkpt lat="45.4135617" lon="7.729745"><ele>432.0</ele><time>2026-04-25T13:09:57.692Z</time></trkpt><trkpt lat="45.4137333" lon="7.7296983"><ele>432.0</ele><time>2026-04-25T13:09:58.692Z</time></trkpt><trkpt lat="45.413905" lon="7.7296217"><ele>432.0</ele><time>2026-04-25T13:09:59.692Z</time></trkpt><trkpt lat="45.4140767" lon="7.729525"><ele>432.0</ele><time>2026-04-25T13:10:00.692Z</time></trkpt><trkpt lat="45.41426" lon="7.72942"><ele>430.0</ele><time>2026-04-25T13:10:01.692Z</time></trkpt><trkpt lat="45.414445" lon="7.7293033"><ele>428.0</ele><time>2026-04-25T13:10:02.692Z</time></trkpt><trkpt lat="45.4146133" lon="7.7291717"><ele>426.0</ele><time>2026-04-25T13:10:03.692Z</time></trkpt><trkpt lat="45.4147817" lon="7.7290267"><ele>426.0</ele><time>2026-04-25T13:10:04.692Z</time></trkpt><trkpt lat="45.41496" lon="7.72888"><ele>426.0</ele><time>2026-04-25T13:10:05.692Z</time></trkpt><trkpt lat="45.4151433" lon="7.7287367"><ele>426.0</ele><time>2026-04-25T13:10:06.692Z</time></trkpt><trkpt lat="45.4153367" lon="7.72861"><ele>426.0</ele><time>2026-04-25T13:10:07.692Z</time></trkpt><trkpt lat="45.4155317" lon="7.7284817"><ele>426.0</ele><time>2026-04-25T13:10:08.692Z</time></trkpt><trkpt lat="45.415735" lon="7.7283667"><ele>426.0</ele><time>2026-04-25T13:10:09.692Z</time></trkpt><trkpt lat="45.4159417" lon="7.7282667"><ele>426.0</ele><time>2026-04-25T13:10:10.692Z</time></trkpt><trkpt lat="45.4161583" lon="7.7281867"><ele>426.0</ele><time>2026-04-25T13:10:11.692Z</time></trkpt><trkpt lat="45.4163717" lon="7.7281117"><ele>426.0</ele><time>2026-04-25T13:10:12.692Z</time></trkpt><trkpt lat="45.416595" lon="7.72804"><ele>426.66666666666663</ele><time>2026-04-25T13:10:13.693Z</time></trkpt><trkpt lat="45.4168" lon="7.7279783"><ele>427.3333333333333</ele><time>2026-04-25T13:10:14.692Z</time></trkpt><trkpt lat="45.4170183" lon="7.7279217"><ele>428.0</ele><time>2026-04-25T13:10:15.692Z</time></trkpt><trkpt lat="45.417235" lon="7.72788"><ele>429.0</ele><time>2026-04-25T13:10:16.692Z</time></trkpt><trkpt lat="45.4174367" lon="7.727835"><ele>430.0</ele><time>2026-04-25T13:10:17.692Z</time></trkpt><trkpt lat="45.417635" lon="7.7277833"><ele>431.0</ele><time>2026-04-25T13:10:18.692Z</time></trkpt><trkpt lat="45.4178367" lon="7.7277183"><ele>431.3333333333333</ele><time>2026-04-25T13:10:19.692Z</time></trkpt><trkpt lat="45.4180533" lon="7.7276533"><ele>431.66666666666663</ele><time>2026-04-25T13:10:20.693Z</time></trkpt><trkpt lat="45.4182733" lon="7.72759"><ele>432.0</ele><time>2026-04-25T13:10:21.692Z</time></trkpt><trkpt lat="45.4184817" lon="7.7275417"><ele>432.0</ele><time>2026-04-25T13:10:22.692Z</time></trkpt><trkpt lat="45.4186583" lon="7.7274817"><ele>432.0</ele><time>2026-04-25T13:10:23.692Z</time></trkpt><trkpt lat="45.4188117" lon="7.727435"><ele>432.0</ele><time>2026-04-25T13:10:24.692Z</time></trkpt><trkpt lat="45.4189467" lon="7.7273833"><ele>434.0</ele><time>2026-04-25T13:10:25.692Z</time></trkpt><trkpt lat="45.419075" lon="7.7273467"><ele>436.0</ele><time>2026-04-25T13:10:26.692Z</time></trkpt><trkpt lat="45.419195" lon="7.7273167"><ele>438.0</ele><time>2026-04-25T13:10:27.692Z</time></trkpt><trkpt lat="45.41931" lon="7.7272817"><ele>440.0</ele><time>2026-04-25T13:10:28.692Z</time></trkpt><trkpt lat="45.419415" lon="7.7272583"><ele>439.99999999999994</ele><time>2026-04-25T13:10:29.692Z</time></trkpt><trkpt lat="45.4195217" lon="7.72724"><ele>440.0</ele><time>2026-04-25T13:10:30.692Z</time></trkpt><trkpt lat="45.4196133" lon="7.72722"><ele>440.0</ele><time>2026-04-25T13:10:31.692Z</time></trkpt><trkpt lat="45.4196833" lon="7.72722"><ele>440.0</ele><time>2026-04-25T13:10:32.692Z</time></trkpt><trkpt lat="45.4197733" lon="7.72724"><ele>439.99999999999994</ele><time>2026-04-25T13:10:34.692Z</time></trkpt><trkpt lat="45.4198467" lon="7.727245"><ele>440.0</ele><time>2026-04-25T13:10:37.692Z</time></trkpt><trkpt lat="45.4197233" lon="7.7272267"><ele>439.99999999999994</ele><time>2026-04-25T13:10:51.692Z</time></trkpt><trkpt lat="45.419625" lon="7.72722"><ele>440.0</ele><time>2026-04-25T13:10:52.692Z</time></trkpt><trkpt lat="45.4195217" lon="7.7272117"><ele>440.0</ele><time>2026-04-25T13:10:53.692Z</time></trkpt><trkpt lat="45.419435" lon="7.7272167"><ele>440.0</ele><time>2026-04-25T13:10:54.692Z</time></trkpt><trkpt lat="45.4193667" lon="7.727225"><ele>439.99999999999994</ele><time>2026-04-25T13:10:55.692Z</time></trkpt><trkpt lat="45.4193033" lon="7.727245"><ele>440.0</ele><time>2026-04-25T13:10:56.692Z</time></trkpt><trkpt lat="45.41923" lon="7.7273483"><ele>439.99999999999994</ele><time>2026-04-25T13:10:58.692Z</time></trkpt><trkpt lat="45.4192517" lon="7.7274783"><ele>440.0</ele><time>2026-04-25T13:11:00.692Z</time></trkpt><trkpt lat="45.419305" lon="7.72764"><ele>440.0</ele><time>2026-04-25T13:11:02.692Z</time></trkpt><trkpt lat="45.41933" lon="7.7277267"><ele>440.0</ele><time>2026-04-25T13:11:03.692Z</time></trkpt><trkpt lat="45.4193617" lon="7.72782"><ele>439.99999999999994</ele><time>2026-04-25T13:11:04.692Z</time></trkpt><trkpt lat="45.4193983" lon="7.7279233"><ele>440.0</ele><time>2026-04-25T13:11:05.692Z</time></trkpt><trkpt lat="45.4194367" lon="7.7280517"><ele>441.5</ele><time>2026-04-25T13:11:06.692Z</time></trkpt><trkpt lat="45.4194833" lon="7.7281933"><ele>443.0</ele><time>2026-04-25T13:11:07.692Z</time></trkpt><trkpt lat="45.41951" lon="7.7283533"><ele>444.5</ele><time>2026-04-25T13:11:08.692Z</time></trkpt><trkpt lat="45.4195283" lon="7.7285317"><ele>446.0</ele><time>2026-04-25T13:11:09.692Z</time></trkpt><trkpt lat="45.4195317" lon="7.7287217"><ele>447.5</ele><time>2026-04-25T13:11:10.692Z</time></trkpt><trkpt lat="45.4194933" lon="7.7289067"><ele>449.0</ele><time>2026-04-25T13:11:11.692Z</time></trkpt><trkpt lat="45.419445" lon="7.729075"><ele>450.5</ele><time>2026-04-25T13:11:12.692Z</time></trkpt><trkpt lat="45.4194083" lon="7.7292467"><ele>452.0</ele><time>2026-04-25T13:11:13.692Z</time></trkpt><trkpt lat="45.4193783" lon="7.7294167"><ele>452.20000000000005</ele><time>2026-04-25T13:11:14.692Z</time></trkpt><trkpt lat="45.4193567" lon="7.7295583"><ele>452.40000000000003</ele><time>2026-04-25T13:11:15.692Z</time></trkpt><trkpt lat="45.419335" lon="7.7296917"><ele>452.59999999999997</ele><time>2026-04-25T13:11:16.692Z</time></trkpt><trkpt lat="45.419305" lon="7.729835"><ele>452.79999999999995</ele><time>2026-04-25T13:11:17.692Z</time></trkpt><trkpt lat="45.419275" lon="7.7299983"><ele>453.0</ele><time>2026-04-25T13:11:18.692Z</time></trkpt><trkpt lat="45.4192417" lon="7.730175"><ele>454.25</ele><time>2026-04-25T13:11:19.692Z</time></trkpt><trkpt lat="45.419215" lon="7.7303533"><ele>455.5</ele><time>2026-04-25T13:11:20.692Z</time></trkpt><trkpt lat="45.4192017" lon="7.7305317"><ele>456.75</ele><time>2026-04-25T13:11:21.692Z</time></trkpt><trkpt lat="45.4191933" lon="7.7307267"><ele>458.0</ele><time>2026-04-25T13:11:22.692Z</time></trkpt><trkpt lat="45.4191933" lon="7.7308983"><ele>458.0</ele><time>2026-04-25T13:11:23.692Z</time></trkpt><trkpt lat="45.41919" lon="7.7310483"><ele>458.0</ele><time>2026-04-25T13:11:24.692Z</time></trkpt><trkpt lat="45.4191817" lon="7.7312017"><ele>458.0</ele><time>2026-04-25T13:11:25.692Z</time></trkpt><trkpt lat="45.4191467" lon="7.7313683"><ele>458.0</ele><time>2026-04-25T13:11:26.692Z</time></trkpt><trkpt lat="45.4191017" lon="7.7315267"><ele>460.0</ele><time>2026-04-25T13:11:27.692Z</time></trkpt><trkpt lat="45.41905" lon="7.7316683"><ele>461.99999999999994</ele><time>2026-04-25T13:11:28.692Z</time></trkpt><trkpt lat="45.4190067" lon="7.731795"><ele>463.99999999999994</ele><time>2026-04-25T13:11:29.692Z</time></trkpt><trkpt lat="45.4189867" lon="7.731905"><ele>466.0</ele><time>2026-04-25T13:11:30.693Z</time></trkpt><trkpt lat="45.41898" lon="7.731995"><ele>468.0</ele><time>2026-04-25T13:11:31.693Z</time></trkpt><trkpt lat="45.419025" lon="7.7321683"><ele>471.0</ele><time>2026-04-25T13:11:33.692Z</time></trkpt><trkpt lat="45.41907" lon="7.73227"><ele>474.0</ele><time>2026-04-25T13:11:34.692Z</time></trkpt><trkpt lat="45.4191217" lon="7.7324"><ele>477.0</ele><time>2026-04-25T13:11:35.692Z</time></trkpt><trkpt lat="45.419185" lon="7.7325683"><ele>480.0</ele><time>2026-04-25T13:11:36.693Z</time></trkpt><trkpt lat="45.419235" lon="7.732755"><ele>481.0</ele><time>2026-04-25T13:11:37.692Z</time></trkpt><trkpt lat="45.4192633" lon="7.7329283"><ele>482.0</ele><time>2026-04-25T13:11:38.692Z</time></trkpt><trkpt lat="45.41929" lon="7.73308"><ele>483.0</ele><time>2026-04-25T13:11:39.692Z</time></trkpt><trkpt lat="45.419315" lon="7.7332117"><ele>484.0</ele><time>2026-04-25T13:11:40.692Z</time></trkpt><trkpt lat="45.41933" lon="7.7333083"><ele>485.0</ele><time>2026-04-25T13:11:41.692Z</time></trkpt><trkpt lat="45.419365" lon="7.7333833"><ele>485.0</ele><time>2026-04-25T13:11:42.692Z</time></trkpt><trkpt lat="45.4194767" lon="7.7333733"><ele>485.0</ele><time>2026-04-25T13:11:44.692Z</time></trkpt><trkpt lat="45.41953" lon="7.7333183"><ele>485.0</ele><time>2026-04-25T13:11:45.692Z</time></trkpt><trkpt lat="45.41962" lon="7.73328"><ele>485.0</ele><time>2026-04-25T13:11:47.692Z</time></trkpt><trkpt lat="45.419665" lon="7.7333883"><ele>485.0</ele><time>2026-04-25T13:11:49.692Z</time></trkpt><trkpt lat="45.4196283" lon="7.7335633"><ele>484.3333333333333</ele><time>2026-04-25T13:11:51.692Z</time></trkpt><trkpt lat="45.4195767" lon="7.7336717"><ele>483.66666666666663</ele><time>2026-04-25T13:11:53.692Z</time></trkpt><trkpt lat="45.4195517" lon="7.7337783"><ele>483.0</ele><time>2026-04-25T13:11:57.692Z</time></trkpt><trkpt lat="45.4195283" lon="7.7338883"><ele>482.33333333333337</ele><time>2026-04-25T13:12:00.692Z</time></trkpt><trkpt lat="45.4195667" lon="7.7337933"><ele>481.6666666666667</ele><time>2026-04-25T13:12:23.692Z</time></trkpt><trkpt lat="45.4195983" lon="7.7336733"><ele>481.0</ele><time>2026-04-25T13:12:38.692Z</time></trkpt><trkpt lat="45.4196283" lon="7.7335617"><ele>481.0</ele><time>2026-04-25T13:12:39.692Z</time></trkpt><trkpt lat="45.4196533" lon="7.7334617"><ele>481.0</ele><time>2026-04-25T13:12:40.692Z</time></trkpt><trkpt lat="45.4196567" lon="7.7333217"><ele>481.0</ele><time>2026-04-25T13:12:42.692Z</time></trkpt><trkpt lat="45.4196467" lon="7.7331817"><ele>481.0</ele><time>2026-04-25T13:12:45.692Z</time></trkpt><trkpt lat="45.4197083" lon="7.7330283"><ele>481.0</ele><time>2026-04-25T13:12:47.692Z</time></trkpt><trkpt lat="45.4197583" lon="7.73294"><ele>481.00000000000006</ele><time>2026-04-25T13:12:48.692Z</time></trkpt><trkpt lat="45.4198017" lon="7.7328617"><ele>481.0</ele><time>2026-04-25T13:12:49.692Z</time></trkpt><trkpt lat="45.4198567" lon="7.7328117"><ele>481.0</ele><time>2026-04-25T13:12:50.692Z</time></trkpt><trkpt lat="45.41992" lon="7.7328167"><ele>481.0</ele><time>2026-04-25T13:12:51.692Z</time></trkpt><trkpt lat="45.420015" lon="7.7328483"><ele>481.00000000000006</ele><time>2026-04-25T13:12:52.692Z</time></trkpt><trkpt lat="45.4201283" lon="7.7329067"><ele>481.0</ele><time>2026-04-25T13:12:53.692Z</time></trkpt><trkpt lat="45.4202333" lon="7.7329667"><ele>481.0</ele><time>2026-04-25T13:12:54.692Z</time></trkpt><trkpt lat="45.4203433" lon="7.73303"><ele>481.0</ele><time>2026-04-25T13:12:55.692Z</time></trkpt><trkpt lat="45.4204467" lon="7.7330933"><ele>481.0</ele><time>2026-04-25T13:12:56.692Z</time></trkpt><trkpt lat="45.420535" lon="7.73313"><ele>481.0</ele><time>2026-04-25T13:12:57.692Z</time></trkpt><trkpt lat="45.42063" lon="7.7331433"><ele>481.0</ele><time>2026-04-25T13:12:58.692Z</time></trkpt><trkpt lat="45.4207367" lon="7.7331383"><ele>482.5</ele><time>2026-04-25T13:12:59.692Z</time></trkpt><trkpt lat="45.4208467" lon="7.7331333"><ele>484.0</ele><time>2026-04-25T13:13:00.692Z</time></trkpt><trkpt lat="45.4209567" lon="7.7331583"><ele>485.5</ele><time>2026-04-25T13:13:01.692Z</time></trkpt><trkpt lat="45.4210717" lon="7.7332167"><ele>487.0</ele><time>2026-04-25T13:13:02.692Z</time></trkpt><trkpt lat="45.4211833" lon="7.7333217"><ele>487.0</ele><time>2026-04-25T13:13:03.692Z</time></trkpt><trkpt lat="45.4212817" lon="7.7334517"><ele>487.0</ele><time>2026-04-25T13:13:04.692Z</time></trkpt><trkpt lat="45.4213767" lon="7.73359"><ele>487.0</ele><time>2026-04-25T13:13:05.692Z</time></trkpt><trkpt lat="45.421455" lon="7.733695"><ele>487.0</ele><time>2026-04-25T13:13:06.692Z</time></trkpt><trkpt lat="45.4215367" lon="7.7338"><ele>488.0</ele><time>2026-04-25T13:13:07.692Z</time></trkpt><trkpt lat="45.42161" lon="7.733875"><ele>489.00000000000006</ele><time>2026-04-25T13:13:08.692Z</time></trkpt><trkpt lat="45.42169" lon="7.73396"><ele>490.00000000000006</ele><time>2026-04-25T13:13:09.692Z</time></trkpt><trkpt lat="45.4217633" lon="7.7340117"><ele>491.0</ele><time>2026-04-25T13:13:10.692Z</time></trkpt><trkpt lat="45.4218467" lon="7.734065"><ele>492.0</ele><time>2026-04-25T13:13:11.692Z</time></trkpt><trkpt lat="45.42196" lon="7.734105"><ele>492.0</ele><time>2026-04-25T13:13:12.692Z</time></trkpt><trkpt lat="45.42208" lon="7.7341517"><ele>492.0</ele><time>2026-04-25T13:13:13.692Z</time></trkpt><trkpt lat="45.4222017" lon="7.7342067"><ele>492.0</ele><time>2026-04-25T13:13:14.692Z</time></trkpt><trkpt lat="45.4223117" lon="7.73425"><ele>492.0</ele><time>2026-04-25T13:13:15.692Z</time></trkpt><trkpt lat="45.422405" lon="7.73428"><ele>493.8</ele><time>2026-04-25T13:13:16.692Z</time></trkpt><trkpt lat="45.4224867" lon="7.7343033"><ele>495.6</ele><time>2026-04-25T13:13:17.692Z</time></trkpt><trkpt lat="45.4225583" lon="7.7343483"><ele>497.40000000000003</ele><time>2026-04-25T13:13:18.692Z</time></trkpt><trkpt lat="45.42262" lon="7.73442"><ele>499.20000000000005</ele><time>2026-04-25T13:13:19.692Z</time></trkpt><trkpt lat="45.4226833" lon="7.7345167"><ele>501.0</ele><time>2026-04-25T13:13:20.692Z</time></trkpt><trkpt lat="45.4227617" lon="7.734645"><ele>501.0</ele><time>2026-04-25T13:13:21.692Z</time></trkpt><trkpt lat="45.422845" lon="7.7348"><ele>501.0</ele><time>2026-04-25T13:13:22.692Z</time></trkpt><trkpt lat="45.4229217" lon="7.7349617"><ele>501.0</ele><time>2026-04-25T13:13:23.692Z</time></trkpt><trkpt lat="45.4230033" lon="7.7351017"><ele>501.0</ele><time>2026-04-25T13:13:24.692Z</time></trkpt><trkpt lat="45.4230783" lon="7.735215"><ele>502.4</ele><time>2026-04-25T13:13:25.692Z</time></trkpt><trkpt lat="45.4231583" lon="7.735305"><ele>503.8</ele><time>2026-04-25T13:13:26.692Z</time></trkpt><trkpt lat="45.42323" lon="7.7353833"><ele>505.19999999999993</ele><time>2026-04-25T13:13:27.692Z</time></trkpt><trkpt lat="45.42332" lon="7.7354617"><ele>506.59999999999997</ele><time>2026-04-25T13:13:28.692Z</time></trkpt><trkpt lat="45.4234283" lon="7.735505"><ele>508.0</ele><time>2026-04-25T13:13:29.692Z</time></trkpt><trkpt lat="45.423515" lon="7.73555"><ele>508.00000000000006</ele><time>2026-04-25T13:13:30.692Z</time></trkpt><trkpt lat="45.42359" lon="7.7355917"><ele>508.0</ele><time>2026-04-25T13:13:31.693Z</time></trkpt><trkpt lat="45.4236617" lon="7.7356017"><ele>508.0</ele><time>2026-04-25T13:13:32.692Z</time></trkpt><trkpt lat="45.4237267" lon="7.7355733"><ele>508.0</ele><time>2026-04-25T13:13:33.692Z</time></trkpt><trkpt lat="45.4237767" lon="7.7354933"><ele>508.00000000000006</ele><time>2026-04-25T13:13:34.692Z</time></trkpt><trkpt lat="45.423815" lon="7.7353817"><ele>508.0</ele><time>2026-04-25T13:13:35.692Z</time></trkpt><trkpt lat="45.4238367" lon="7.7352267"><ele>512.0</ele><time>2026-04-25T13:13:36.692Z</time></trkpt><trkpt lat="45.4238517" lon="7.73508"><ele>516.0</ele><time>2026-04-25T13:13:37.692Z</time></trkpt><trkpt lat="45.423895" lon="7.7349533"><ele>520.0</ele><time>2026-04-25T13:13:38.692Z</time></trkpt><trkpt lat="45.42396" lon="7.7348117"><ele>524.0</ele><time>2026-04-25T13:13:39.692Z</time></trkpt><trkpt lat="45.42403" lon="7.7346783"><ele>528.0</ele><time>2026-04-25T13:13:40.692Z</time></trkpt><trkpt lat="45.4240817" lon="7.73458"><ele>528.0</ele><time>2026-04-25T13:13:41.692Z</time></trkpt><trkpt lat="45.4241383" lon="7.734495"><ele>528.0</ele><time>2026-04-25T13:13:42.692Z</time></trkpt><trkpt lat="45.4242" lon="7.73442"><ele>528.0</ele><time>2026-04-25T13:13:43.692Z</time></trkpt><trkpt lat="45.42427" lon="7.7343817"><ele>528.0</ele><time>2026-04-25T13:13:44.692Z</time></trkpt><trkpt lat="45.4243383" lon="7.7343467"><ele>528.0</ele><time>2026-04-25T13:13:45.692Z</time></trkpt><trkpt lat="45.4244083" lon="7.734315"><ele>528.0</ele><time>2026-04-25T13:13:46.692Z</time></trkpt><trkpt lat="45.4244883" lon="7.7342583"><ele>528.5</ele><time>2026-04-25T13:13:47.691Z</time></trkpt><trkpt lat="45.4245633" lon="7.7341717"><ele>529.0</ele><time>2026-04-25T13:13:48.691Z</time></trkpt><trkpt lat="45.4246233" lon="7.7340883"><ele>529.5</ele><time>2026-04-25T13:13:49.691Z</time></trkpt><trkpt lat="45.424675" lon="7.73403"><ele>530.0</ele><time>2026-04-25T13:13:50.691Z</time></trkpt><trkpt lat="45.4247633" lon="7.7340117"><ele>530.5</ele><time>2026-04-25T13:13:52.691Z</time></trkpt><trkpt lat="45.4248067" lon="7.7341567"><ele>531.0</ele><time>2026-04-25T13:13:54.691Z</time></trkpt><trkpt lat="45.4248333" lon="7.7342467"><ele>532.8</ele><time>2026-04-25T13:13:55.691Z</time></trkpt><trkpt lat="45.424905" lon="7.734345"><ele>534.6</ele><time>2026-04-25T13:13:57.692Z</time></trkpt><trkpt lat="45.4249933" lon="7.7343333"><ele>536.4</ele><time>2026-04-25T13:13:59.691Z</time></trkpt><trkpt lat="45.4250867" lon="7.7342817"><ele>538.2</ele><time>2026-04-25T13:14:01.691Z</time></trkpt><trkpt lat="45.42521" lon="7.7343283"><ele>540.0</ele><time>2026-04-25T13:14:03.691Z</time></trkpt><trkpt lat="45.4252767" lon="7.7343617"><ele>540.0</ele><time>2026-04-25T13:14:04.692Z</time></trkpt><trkpt lat="45.42538" lon="7.7343033"><ele>540.0</ele><time>2026-04-25T13:14:06.691Z</time></trkpt><trkpt lat="45.4254233" lon="7.7341283"><ele>540.0</ele><time>2026-04-25T13:14:08.691Z</time></trkpt><trkpt lat="45.4254183" lon="7.7340117"><ele>540.0</ele><time>2026-04-25T13:14:09.691Z</time></trkpt><trkpt lat="45.4254033" lon="7.7338817"><ele>540.0</ele><time>2026-04-25T13:14:10.691Z</time></trkpt><trkpt lat="45.4253867" lon="7.7337583"><ele>540.0</ele><time>2026-04-25T13:14:11.691Z</time></trkpt><trkpt lat="45.42539" lon="7.7336467"><ele>540.0</ele><time>2026-04-25T13:14:12.691Z</time></trkpt><trkpt lat="45.4253817" lon="7.7335383"><ele>540.0</ele><time>2026-04-25T13:14:13.691Z</time></trkpt><trkpt lat="45.4253533" lon="7.73343"><ele>540.0</ele><time>2026-04-25T13:14:14.691Z</time></trkpt><trkpt lat="45.425325" lon="7.733335"><ele>540.0</ele><time>2026-04-25T13:14:15.691Z</time></trkpt><trkpt lat="45.4253233" lon="7.733175"><ele>540.0</ele><time>2026-04-25T13:14:17.691Z</time></trkpt><trkpt lat="45.4254083" lon="7.7330217"><ele>539.6666666666666</ele><time>2026-04-25T13:14:19.691Z</time></trkpt><trkpt lat="45.4254667" lon="7.7329567"><ele>539.3333333333334</ele><time>2026-04-25T13:14:20.691Z</time></trkpt><trkpt lat="45.42553" lon="7.7329033"><ele>539.0</ele><time>2026-04-25T13:14:21.691Z</time></trkpt><trkpt lat="45.4256" lon="7.73287"><ele>538.6666666666667</ele><time>2026-04-25T13:14:22.691Z</time></trkpt><trkpt lat="45.4257083" lon="7.732815"><ele>538.3333333333334</ele><time>2026-04-25T13:14:24.691Z</time></trkpt><trkpt lat="45.4257617" lon="7.73271"><ele>538.0</ele><time>2026-04-25T13:14:26.691Z</time></trkpt><trkpt lat="45.4257333" lon="7.73254"><ele>540.3333333333334</ele><time>2026-04-25T13:14:28.691Z</time></trkpt><trkpt lat="45.4257133" lon="7.7324467"><ele>542.6666666666667</ele><time>2026-04-25T13:14:29.691Z</time></trkpt><trkpt lat="45.4256933" lon="7.7323367"><ele>545.0</ele><time>2026-04-25T13:14:30.691Z</time></trkpt><trkpt lat="45.4256833" lon="7.7322067"><ele>547.3333333333334</ele><time>2026-04-25T13:14:31.691Z</time></trkpt><trkpt lat="45.4256717" lon="7.7320867"><ele>549.6666666666666</ele><time>2026-04-25T13:14:32.691Z</time></trkpt><trkpt lat="45.4256633" lon="7.7319733"><ele>552.0</ele><time>2026-04-25T13:14:33.691Z</time></trkpt><trkpt lat="45.425665" lon="7.7318517"><ele>552.0</ele><time>2026-04-25T13:14:34.691Z</time></trkpt><trkpt lat="45.4256817" lon="7.731745"><ele>552.0</ele><time>2026-04-25T13:14:35.691Z</time></trkpt><trkpt lat="45.42571" lon="7.73165"><ele>552.0</ele><time>2026-04-25T13:14:36.691Z</time></trkpt><trkpt lat="45.4257567" lon="7.7315717"><ele>552.0</ele><time>2026-04-25T13:14:37.691Z</time></trkpt><trkpt lat="45.4258183" lon="7.73152"><ele>552.0</ele><time>2026-04-25T13:14:38.691Z</time></trkpt><trkpt lat="45.4259017" lon="7.7314817"><ele>552.0</ele><time>2026-04-25T13:14:39.691Z</time></trkpt><trkpt lat="45.4259867" lon="7.7314567"><ele>552.0</ele><time>2026-04-25T13:14:40.691Z</time></trkpt><trkpt lat="45.4260733" lon="7.7314017"><ele>552.0</ele><time>2026-04-25T13:14:41.691Z</time></trkpt><trkpt lat="45.4261533" lon="7.7313383"><ele>552.0</ele><time>2026-04-25T13:14:42.691Z</time></trkpt><trkpt lat="45.426235" lon="7.7312683"><ele>552.0</ele><time>2026-04-25T13:14:43.691Z</time></trkpt><trkpt lat="45.426305" lon="7.7311867"><ele>552.0</ele><time>2026-04-25T13:14:44.692Z</time></trkpt><trkpt lat="45.4263667" lon="7.73113"><ele>552.0</ele><time>2026-04-25T13:14:45.691Z</time></trkpt><trkpt lat="45.4264267" lon="7.7310883"><ele>551.8333333333334</ele><time>2026-04-25T13:14:46.691Z</time></trkpt><trkpt lat="45.4265517" lon="7.73106"><ele>551.6666666666666</ele><time>2026-04-25T13:14:48.691Z</time></trkpt><trkpt lat="45.4266233" lon="7.73106"><ele>551.5</ele><time>2026-04-25T13:14:49.691Z</time></trkpt><trkpt lat="45.4267083" lon="7.73105"><ele>551.3333333333333</ele><time>2026-04-25T13:14:50.691Z</time></trkpt><trkpt lat="45.426785" lon="7.7310517"><ele>551.1666666666666</ele><time>2026-04-25T13:14:51.691Z</time></trkpt><trkpt lat="45.42686" lon="7.7310617"><ele>551.0</ele><time>2026-04-25T13:14:52.691Z</time></trkpt><trkpt lat="45.426925" lon="7.7310667"><ele>551.0</ele><time>2026-04-25T13:14:53.691Z</time></trkpt><trkpt lat="45.4270083" lon="7.7309967"><ele>551.0</ele><time>2026-04-25T13:14:55.691Z</time></trkpt><trkpt lat="45.4270017" lon="7.73081"><ele>551.0</ele><time>2026-04-25T13:14:57.691Z</time></trkpt><trkpt lat="45.42698" lon="7.73067"><ele>551.0</ele><time>2026-04-25T13:14:58.691Z</time></trkpt><trkpt lat="45.4269583" lon="7.73051"><ele>551.0</ele><time>2026-04-25T13:14:59.691Z</time></trkpt><trkpt lat="45.42695" lon="7.7303467"><ele>549.4</ele><time>2026-04-25T13:15:00.691Z</time></trkpt><trkpt lat="45.426945" lon="7.73021"><ele>547.8</ele><time>2026-04-25T13:15:01.691Z</time></trkpt><trkpt lat="45.4269567" lon="7.7300783"><ele>546.1999999999999</ele><time>2026-04-25T13:15:02.691Z</time></trkpt><trkpt lat="45.427" lon="7.7299367"><ele>544.6</ele><time>2026-04-25T13:15:03.691Z</time></trkpt><trkpt lat="45.4270483" lon="7.7297967"><ele>543.0</ele><time>2026-04-25T13:15:04.691Z</time></trkpt><trkpt lat="45.42709" lon="7.7296617"><ele>543.0</ele><time>2026-04-25T13:15:05.691Z</time></trkpt><trkpt lat="45.4271233" lon="7.7295267"><ele>543.0</ele><time>2026-04-25T13:15:06.691Z</time></trkpt><trkpt lat="45.4271383" lon="7.729405"><ele>543.0</ele><time>2026-04-25T13:15:07.691Z</time></trkpt><trkpt lat="45.4271583" lon="7.72928"><ele>543.0</ele><time>2026-04-25T13:15:08.691Z</time></trkpt><trkpt lat="45.427175" lon="7.7291817"><ele>543.0</ele><time>2026-04-25T13:15:09.692Z</time></trkpt><trkpt lat="45.4272333" lon="7.7290367"><ele>544.8333333333334</ele><time>2026-04-25T13:15:11.691Z</time></trkpt><trkpt lat="45.4272733" lon="7.728955"><ele>546.6666666666666</ele><time>2026-04-25T13:15:12.691Z</time></trkpt><trkpt lat="45.42731" lon="7.7288617"><ele>548.5</ele><time>2026-04-25T13:15:13.691Z</time></trkpt><trkpt lat="45.4273367" lon="7.7287267"><ele>550.3333333333333</ele><time>2026-04-25T13:15:15.691Z</time></trkpt><trkpt lat="45.427335" lon="7.7285933"><ele>552.1666666666666</ele><time>2026-04-25T13:15:18.691Z</time></trkpt><trkpt lat="45.4273183" lon="7.7284567"><ele>554.0</ele><time>2026-04-25T13:15:20.691Z</time></trkpt><trkpt lat="45.427345" lon="7.7283317"><ele>554.0</ele><time>2026-04-25T13:15:22.691Z</time></trkpt><trkpt lat="45.4273767" lon="7.7282517"><ele>554.0</ele><time>2026-04-25T13:15:23.691Z</time></trkpt><trkpt lat="45.4274267" lon="7.7281767"><ele>554.0</ele><time>2026-04-25T13:15:24.691Z</time></trkpt><trkpt lat="45.4274833" lon="7.728115"><ele>554.0</ele><time>2026-04-25T13:15:25.691Z</time></trkpt><trkpt lat="45.4275483" lon="7.7280767"><ele>554.0</ele><time>2026-04-25T13:15:26.691Z</time></trkpt><trkpt lat="45.42763" lon="7.7280433"><ele>554.0</ele><time>2026-04-25T13:15:27.691Z</time></trkpt><trkpt lat="45.4277283" lon="7.7280183"><ele>554.0</ele><time>2026-04-25T13:15:28.691Z</time></trkpt><trkpt lat="45.4278267" lon="7.7279867"><ele>554.0</ele><time>2026-04-25T13:15:29.691Z</time></trkpt><trkpt lat="45.427915" lon="7.7279417"><ele>554.0</ele><time>2026-04-25T13:15:30.691Z</time></trkpt><trkpt lat="45.427995" lon="7.7279"><ele>554.0</ele><time>2026-04-25T13:15:31.691Z</time></trkpt><trkpt lat="45.428065" lon="7.72787"><ele>554.0</ele><time>2026-04-25T13:15:32.691Z</time></trkpt><trkpt lat="45.4281267" lon="7.72785"><ele>554.0</ele><time>2026-04-25T13:15:33.691Z</time></trkpt><trkpt lat="45.4282267" lon="7.72784"><ele>554.1666666666666</ele><time>2026-04-25T13:15:35.691Z</time></trkpt><trkpt lat="45.4282883" lon="7.72786"><ele>554.3333333333333</ele><time>2026-04-25T13:15:36.691Z</time></trkpt><trkpt lat="45.4283567" lon="7.7278983"><ele>554.5</ele><time>2026-04-25T13:15:37.691Z</time></trkpt><trkpt lat="45.4284367" lon="7.7279483"><ele>554.6666666666666</ele><time>2026-04-25T13:15:38.691Z</time></trkpt><trkpt lat="45.42852" lon="7.72803"><ele>554.8333333333334</ele><time>2026-04-25T13:15:39.691Z</time></trkpt><trkpt lat="45.4286083" lon="7.72814"><ele>555.0</ele><time>2026-04-25T13:15:40.691Z</time></trkpt><trkpt lat="45.4286867" lon="7.7282617"><ele>555.0</ele><time>2026-04-25T13:15:41.691Z</time></trkpt><trkpt lat="45.4287617" lon="7.7283883"><ele>555.0</ele><time>2026-04-25T13:15:42.691Z</time></trkpt><trkpt lat="45.4288267" lon="7.7285017"><ele>555.0</ele><time>2026-04-25T13:15:43.691Z</time></trkpt><trkpt lat="45.4289" lon="7.7286033"><ele>555.0</ele><time>2026-04-25T13:15:44.691Z</time></trkpt><trkpt lat="45.4289517" lon="7.7287017"><ele>555.0</ele><time>2026-04-25T13:15:45.691Z</time></trkpt><trkpt lat="45.4290133" lon="7.72879"><ele>555.8333333333334</ele><time>2026-04-25T13:15:46.691Z</time></trkpt><trkpt lat="45.4290717" lon="7.728855"><ele>556.6666666666666</ele><time>2026-04-25T13:15:47.691Z</time></trkpt><trkpt lat="45.42914" lon="7.7288967"><ele>557.5</ele><time>2026-04-25T13:15:48.691Z</time></trkpt><trkpt lat="45.42922" lon="7.728915"><ele>558.3333333333333</ele><time>2026-04-25T13:15:49.691Z</time></trkpt><trkpt lat="45.4293" lon="7.7289283"><ele>559.1666666666666</ele><time>2026-04-25T13:15:50.691Z</time></trkpt><trkpt lat="45.4293667" lon="7.7289483"><ele>560.0</ele><time>2026-04-25T13:15:51.691Z</time></trkpt><trkpt lat="45.4294817" lon="7.72895"><ele>560.0</ele><time>2026-04-25T13:15:53.691Z</time></trkpt><trkpt lat="45.4295483" lon="7.7288967"><ele>560.0</ele><time>2026-04-25T13:15:55.691Z</time></trkpt><trkpt lat="45.4295033" lon="7.728755"><ele>560.0</ele><time>2026-04-25T13:16:10.691Z</time></trkpt><trkpt lat="45.4294183" lon="7.7286267"><ele>560.0</ele><time>2026-04-25T13:16:12.691Z</time></trkpt><trkpt lat="45.4293717" lon="7.7285267"><ele>560.0</ele><time>2026-04-25T13:16:13.691Z</time></trkpt><trkpt lat="45.4293" lon="7.7283667"><ele>555.75</ele><time>2026-04-25T13:16:14.691Z</time></trkpt><trkpt lat="45.4292233" lon="7.7282017"><ele>551.5</ele><time>2026-04-25T13:16:15.691Z</time></trkpt><trkpt lat="45.429155" lon="7.7280317"><ele>547.25</ele><time>2026-04-25T13:16:16.692Z</time></trkpt><trkpt lat="45.4291067" lon="7.7278683"><ele>543.0</ele><time>2026-04-25T13:16:17.691Z</time></trkpt><trkpt lat="45.429075" lon="7.7277333"><ele>543.1666666666666</ele><time>2026-04-25T13:16:18.691Z</time></trkpt><trkpt lat="45.429055" lon="7.7276217"><ele>543.3333333333334</ele><time>2026-04-25T13:16:19.691Z</time></trkpt><trkpt lat="45.4290433" lon="7.727515"><ele>543.5</ele><time>2026-04-25T13:16:20.691Z</time></trkpt><trkpt lat="45.42904" lon="7.7274133"><ele>543.6666666666667</ele><time>2026-04-25T13:16:21.691Z</time></trkpt><trkpt lat="45.42904" lon="7.727315"><ele>543.8333333333334</ele><time>2026-04-25T13:16:22.691Z</time></trkpt><trkpt lat="45.4290283" lon="7.7272183"><ele>544.0</ele><time>2026-04-25T13:16:23.691Z</time></trkpt><trkpt lat="45.4289867" lon="7.72709"><ele>544.0</ele><time>2026-04-25T13:16:25.691Z</time></trkpt><trkpt lat="45.4289333" lon="7.7269433"><ele>544.0</ele><time>2026-04-25T13:16:27.691Z</time></trkpt><trkpt lat="45.428915" lon="7.7267883"><ele>544.0</ele><time>2026-04-25T13:16:55.691Z</time></trkpt><trkpt lat="45.4289167" lon="7.7266633"><ele>544.0</ele><time>2026-04-25T13:16:57.691Z</time></trkpt><trkpt lat="45.4289817" lon="7.7266067"><ele>544.0</ele><time>2026-04-25T13:16:59.691Z</time></trkpt><trkpt lat="45.4290983" lon="7.7265517"><ele>544.1666666666667</ele><time>2026-04-25T13:17:01.691Z</time></trkpt><trkpt lat="45.4291667" lon="7.7265267"><ele>544.3333333333334</ele><time>2026-04-25T13:17:02.691Z</time></trkpt><trkpt lat="45.4292367" lon="7.726515"><ele>544.5</ele><time>2026-04-25T13:17:03.691Z</time></trkpt><trkpt lat="45.42933" lon="7.7265317"><ele>544.6666666666666</ele><time>2026-04-25T13:17:04.691Z</time></trkpt><trkpt lat="45.4294233" lon="7.7265517"><ele>544.8333333333333</ele><time>2026-04-25T13:17:05.691Z</time></trkpt><trkpt lat="45.4295417" lon="7.7265783"><ele>545.0</ele><time>2026-04-25T13:17:06.692Z</time></trkpt><trkpt lat="45.4296617" lon="7.726585"><ele>547.2</ele><time>2026-04-25T13:17:07.692Z</time></trkpt><trkpt lat="45.4297933" lon="7.7265783"><ele>549.4</ele><time>2026-04-25T13:17:08.691Z</time></trkpt><trkpt lat="45.4299217" lon="7.7265667"><ele>551.6</ele><time>2026-04-25T13:17:09.691Z</time></trkpt><trkpt lat="45.430025" lon="7.7265467"><ele>553.8</ele><time>2026-04-25T13:17:10.691Z</time></trkpt><trkpt lat="45.4300967" lon="7.7265217"><ele>556.0</ele><time>2026-04-25T13:17:11.691Z</time></trkpt><trkpt lat="45.4301883" lon="7.72643"><ele>556.0</ele><time>2026-04-25T13:17:13.691Z</time></trkpt><trkpt lat="45.4301633" lon="7.7262583"><ele>556.0</ele><time>2026-04-25T13:17:15.691Z</time></trkpt><trkpt lat="45.4301133" lon="7.726135"><ele>556.0</ele><time>2026-04-25T13:17:16.691Z</time></trkpt><trkpt lat="45.430065" lon="7.7260133"><ele>556.0</ele><time>2026-04-25T13:17:17.691Z</time></trkpt><trkpt lat="45.4300217" lon="7.7258917"><ele>556.0</ele><time>2026-04-25T13:17:18.691Z</time></trkpt><trkpt lat="45.4299883" lon="7.72578"><ele>555.8333333333334</ele><time>2026-04-25T13:17:19.691Z</time></trkpt><trkpt lat="45.4299683" lon="7.72567"><ele>555.6666666666667</ele><time>2026-04-25T13:17:20.691Z</time></trkpt><trkpt lat="45.4299683" lon="7.7255767"><ele>555.5</ele><time>2026-04-25T13:17:21.691Z</time></trkpt><trkpt lat="45.4299983" lon="7.7254917"><ele>555.3333333333334</ele><time>2026-04-25T13:17:22.691Z</time></trkpt><trkpt lat="45.4300433" lon="7.7253917"><ele>555.1666666666666</ele><time>2026-04-25T13:17:23.691Z</time></trkpt><trkpt lat="45.4300967" lon="7.7252833"><ele>555.0</ele><time>2026-04-25T13:17:24.692Z</time></trkpt><trkpt lat="45.4301367" lon="7.72513"><ele>554.4</ele><time>2026-04-25T13:17:25.691Z</time></trkpt><trkpt lat="45.43017" lon="7.72499"><ele>553.8</ele><time>2026-04-25T13:17:26.691Z</time></trkpt><trkpt lat="45.4302017" lon="7.72487"><ele>553.2</ele><time>2026-04-25T13:17:27.691Z</time></trkpt><trkpt lat="45.4302433" lon="7.7247517"><ele>552.6</ele><time>2026-04-25T13:17:28.691Z</time></trkpt><trkpt lat="45.4302933" lon="7.724625"><ele>552.0</ele><time>2026-04-25T13:17:29.691Z</time></trkpt><trkpt lat="45.43034" lon="7.7245033"><ele>552.0</ele><time>2026-04-25T13:17:30.691Z</time></trkpt><trkpt lat="45.4303883" lon="7.7243983"><ele>552.0</ele><time>2026-04-25T13:17:31.691Z</time></trkpt><trkpt lat="45.430425" lon="7.7243"><ele>552.0</ele><time>2026-04-25T13:17:32.691Z</time></trkpt><trkpt lat="45.4304517" lon="7.7241983"><ele>552.0</ele><time>2026-04-25T13:17:33.691Z</time></trkpt><trkpt lat="45.430475" lon="7.7240967"><ele>552.0</ele><time>2026-04-25T13:17:34.691Z</time></trkpt><trkpt lat="45.4304867" lon="7.724"><ele>552.0</ele><time>2026-04-25T13:17:35.691Z</time></trkpt><trkpt lat="45.4304883" lon="7.7238967"><ele>551.6</ele><time>2026-04-25T13:17:36.691Z</time></trkpt><trkpt lat="45.4304633" lon="7.7237833"><ele>551.2</ele><time>2026-04-25T13:17:37.691Z</time></trkpt><trkpt lat="45.4304183" lon="7.7236633"><ele>550.8</ele><time>2026-04-25T13:17:38.691Z</time></trkpt><trkpt lat="45.430355" lon="7.7235433"><ele>550.4</ele><time>2026-04-25T13:17:39.691Z</time></trkpt><trkpt lat="45.4302967" lon="7.7234267"><ele>550.0</ele><time>2026-04-25T13:17:40.691Z</time></trkpt><trkpt lat="45.4302567" lon="7.7233217"><ele>549.2</ele><time>2026-04-25T13:17:41.691Z</time></trkpt><trkpt lat="45.4302317" lon="7.7232267"><ele>548.4</ele><time>2026-04-25T13:17:42.691Z</time></trkpt><trkpt lat="45.4302533" lon="7.72306"><ele>547.6</ele><time>2026-04-25T13:17:44.691Z</time></trkpt><trkpt lat="45.4302883" lon="7.7229133"><ele>546.8</ele><time>2026-04-25T13:17:46.691Z</time></trkpt><trkpt lat="45.4303083" lon="7.7227483"><ele>546.0</ele><time>2026-04-25T13:17:48.691Z</time></trkpt><trkpt lat="45.4303183" lon="7.7226533"><ele>545.3333333333334</ele><time>2026-04-25T13:17:49.691Z</time></trkpt><trkpt lat="45.43034" lon="7.7225517"><ele>544.6666666666666</ele><time>2026-04-25T13:17:50.691Z</time></trkpt><trkpt lat="45.4303933" lon="7.7224417"><ele>544.0</ele><time>2026-04-25T13:17:51.691Z</time></trkpt><trkpt lat="45.4304533" lon="7.7223317"><ele>543.3333333333333</ele><time>2026-04-25T13:17:52.691Z</time></trkpt><trkpt lat="45.4305083" lon="7.7222283"><ele>542.6666666666666</ele><time>2026-04-25T13:17:53.691Z</time></trkpt><trkpt lat="45.4305517" lon="7.7221483"><ele>542.0</ele><time>2026-04-25T13:17:54.691Z</time></trkpt><trkpt lat="45.4305783" lon="7.722065"><ele>543.4</ele><time>2026-04-25T13:17:55.691Z</time></trkpt><trkpt lat="45.4306033" lon="7.7219617"><ele>544.8000000000001</ele><time>2026-04-25T13:17:56.691Z</time></trkpt><trkpt lat="45.4306033" lon="7.7218617"><ele>546.2</ele><time>2026-04-25T13:17:57.691Z</time></trkpt><trkpt lat="45.4305317" lon="7.7217533"><ele>547.6</ele><time>2026-04-25T13:17:59.691Z</time></trkpt><trkpt lat="45.4303933" lon="7.7217433"><ele>549.0</ele><time>2026-04-25T13:18:01.691Z</time></trkpt><trkpt lat="45.4302667" lon="7.7217617"><ele>549.0</ele><time>2026-04-25T13:18:02.691Z</time></trkpt><trkpt lat="45.4301717" lon="7.721765"><ele>549.0</ele><time>2026-04-25T13:18:03.691Z</time></trkpt><trkpt lat="45.4300733" lon="7.7217567"><ele>549.0</ele><time>2026-04-25T13:18:04.691Z</time></trkpt><trkpt lat="45.429985" lon="7.721745"><ele>549.0</ele><time>2026-04-25T13:18:05.691Z</time></trkpt><trkpt lat="45.4299117" lon="7.72172"><ele>549.0</ele><time>2026-04-25T13:18:06.691Z</time></trkpt><trkpt lat="45.4298367" lon="7.7216717"><ele>549.0</ele><time>2026-04-25T13:18:07.691Z</time></trkpt><trkpt lat="45.4297533" lon="7.7216183"><ele>549.0</ele><time>2026-04-25T13:18:08.691Z</time></trkpt><trkpt lat="45.429655" lon="7.721595"><ele>549.0</ele><time>2026-04-25T13:18:09.691Z</time></trkpt><trkpt lat="45.42956" lon="7.72157"><ele>549.0</ele><time>2026-04-25T13:18:10.691Z</time></trkpt><trkpt lat="45.4294883" lon="7.72154"><ele>549.0</ele><time>2026-04-25T13:18:11.691Z</time></trkpt><trkpt lat="45.4294067" lon="7.7215133"><ele>549.0</ele><time>2026-04-25T13:18:12.691Z</time></trkpt><trkpt lat="45.4293283" lon="7.72149"><ele>549.0</ele><time>2026-04-25T13:18:13.691Z</time></trkpt><trkpt lat="45.4292483" lon="7.7214583"><ele>549.0</ele><time>2026-04-25T13:18:14.691Z</time></trkpt><trkpt lat="45.4291817" lon="7.72142"><ele>549.0</ele><time>2026-04-25T13:18:15.691Z</time></trkpt><trkpt lat="45.429105" lon="7.72135"><ele>549.0</ele><time>2026-04-25T13:18:16.691Z</time></trkpt><trkpt lat="45.4290267" lon="7.7212617"><ele>549.0</ele><time>2026-04-25T13:18:17.691Z</time></trkpt><trkpt lat="45.4289383" lon="7.7211517"><ele>549.0</ele><time>2026-04-25T13:18:18.691Z</time></trkpt><trkpt lat="45.4288633" lon="7.7210317"><ele>549.0</ele><time>2026-04-25T13:18:19.691Z</time></trkpt><trkpt lat="45.4287867" lon="7.7209333"><ele>549.0</ele><time>2026-04-25T13:18:20.691Z</time></trkpt><trkpt lat="45.4287233" lon="7.72084"><ele>549.0</ele><time>2026-04-25T13:18:21.691Z</time></trkpt><trkpt lat="45.4286833" lon="7.720745"><ele>549.0</ele><time>2026-04-25T13:18:22.691Z</time></trkpt><trkpt lat="45.428645" lon="7.72058"><ele>549.0</ele><time>2026-04-25T13:18:24.691Z</time></trkpt><trkpt lat="45.4286217" lon="7.7204033"><ele>549.0</ele><time>2026-04-25T13:18:26.691Z</time></trkpt><trkpt lat="45.4286317" lon="7.7203033"><ele>549.0</ele><time>2026-04-25T13:18:27.691Z</time></trkpt><trkpt lat="45.428635" lon="7.7201733"><ele>549.0</ele><time>2026-04-25T13:18:29.692Z</time></trkpt><trkpt lat="45.4286267" lon="7.720075"><ele>549.0</ele><time>2026-04-25T13:18:32.691Z</time></trkpt><trkpt lat="45.4286883" lon="7.72005"><ele>549.0</ele><time>2026-04-25T13:18:35.691Z</time></trkpt><trkpt lat="45.42879" lon="7.7200567"><ele>549.0</ele><time>2026-04-25T13:18:37.691Z</time></trkpt><trkpt lat="45.4288633" lon="7.720065"><ele>551.0</ele><time>2026-04-25T13:18:38.691Z</time></trkpt><trkpt lat="45.428935" lon="7.7200733"><ele>553.0</ele><time>2026-04-25T13:18:39.691Z</time></trkpt><trkpt lat="45.4290717" lon="7.72012"><ele>555.0</ele><time>2026-04-25T13:18:41.691Z</time></trkpt><trkpt lat="45.429155" lon="7.7201883"><ele>557.0</ele><time>2026-04-25T13:18:42.691Z</time></trkpt><trkpt lat="45.429225" lon="7.7202567"><ele>559.0</ele><time>2026-04-25T13:18:43.691Z</time></trkpt><trkpt lat="45.429285" lon="7.7203267"><ele>559.0</ele><time>2026-04-25T13:18:44.691Z</time></trkpt><trkpt lat="45.4293467" lon="7.7203983"><ele>559.0</ele><time>2026-04-25T13:18:45.691Z</time></trkpt><trkpt lat="45.4294133" lon="7.720455"><ele>559.0</ele><time>2026-04-25T13:18:46.691Z</time></trkpt><trkpt lat="45.4295133" lon="7.72052"><ele>559.0</ele><time>2026-04-25T13:18:48.691Z</time></trkpt><trkpt lat="45.4296117" lon="7.7205383"><ele>559.0</ele><time>2026-04-25T13:18:50.691Z</time></trkpt><trkpt lat="45.42967" lon="7.7206117"><ele>559.0</ele><time>2026-04-25T13:18:52.691Z</time></trkpt><trkpt lat="45.4297383" lon="7.7206367"><ele>560.2</ele><time>2026-04-25T13:18:55.691Z</time></trkpt><trkpt lat="45.4298333" lon="7.7205633"><ele>561.4</ele><time>2026-04-25T13:18:57.691Z</time></trkpt><trkpt lat="45.4299" lon="7.7205"><ele>562.6</ele><time>2026-04-25T13:18:58.692Z</time></trkpt><trkpt lat="45.4299983" lon="7.7204467"><ele>563.8</ele><time>2026-04-25T13:18:59.691Z</time></trkpt><trkpt lat="45.4301317" lon="7.7203867"><ele>565.0</ele><time>2026-04-25T13:19:00.691Z</time></trkpt><trkpt lat="45.430305" lon="7.720315"><ele>565.0</ele><time>2026-04-25T13:19:01.691Z</time></trkpt><trkpt lat="45.4304633" lon="7.7202633"><ele>565.0</ele><time>2026-04-25T13:19:02.691Z</time></trkpt><trkpt lat="45.4306083" lon="7.7202367"><ele>565.0</ele><time>2026-04-25T13:19:03.691Z</time></trkpt><trkpt lat="45.43073" lon="7.720235"><ele>565.0</ele><time>2026-04-25T13:19:04.691Z</time></trkpt><trkpt lat="45.430855" lon="7.7202367"><ele>570.0</ele><time>2026-04-25T13:19:05.691Z</time></trkpt><trkpt lat="45.4309883" lon="7.7202267"><ele>575.0</ele><time>2026-04-25T13:19:06.691Z</time></trkpt><trkpt lat="45.43112" lon="7.7202183"><ele>580.0</ele><time>2026-04-25T13:19:07.691Z</time></trkpt><trkpt lat="45.4312233" lon="7.7202117"><ele>585.0</ele><time>2026-04-25T13:19:08.691Z</time></trkpt><trkpt lat="45.431315" lon="7.72024"><ele>585.0</ele><time>2026-04-25T13:19:09.691Z</time></trkpt><trkpt lat="45.4313867" lon="7.7202667"><ele>585.0</ele><time>2026-04-25T13:19:10.691Z</time></trkpt><trkpt lat="45.4315183" lon="7.7202467"><ele>585.0</ele><time>2026-04-25T13:19:12.691Z</time></trkpt><trkpt lat="45.4316033" lon="7.7201817"><ele>585.0</ele><time>2026-04-25T13:19:13.69Z</time></trkpt><trkpt lat="45.4316933" lon="7.720065"><ele>585.0</ele><time>2026-04-25T13:19:14.69Z</time></trkpt><trkpt lat="45.4317767" lon="7.71992"><ele>587.2</ele><time>2026-04-25T13:19:15.69Z</time></trkpt><trkpt lat="45.4318467" lon="7.71978"><ele>589.4</ele><time>2026-04-25T13:19:16.69Z</time></trkpt><trkpt lat="45.431895" lon="7.719675"><ele>591.6</ele><time>2026-04-25T13:19:17.69Z</time></trkpt><trkpt lat="45.4319367" lon="7.7195883"><ele>593.8</ele><time>2026-04-25T13:19:18.69Z</time></trkpt><trkpt lat="45.4320367" lon="7.71947"><ele>596.0</ele><time>2026-04-25T13:19:20.69Z</time></trkpt><trkpt lat="45.4321083" lon="7.7194117"><ele>596.6666666666666</ele><time>2026-04-25T13:19:21.69Z</time></trkpt><trkpt lat="45.4321967" lon="7.71935"><ele>597.3333333333333</ele><time>2026-04-25T13:19:22.69Z</time></trkpt><trkpt lat="45.4322733" lon="7.719305"><ele>598.0</ele><time>2026-04-25T13:19:23.69Z</time></trkpt><trkpt lat="45.4323583" lon="7.719275"><ele>598.6666666666666</ele><time>2026-04-25T13:19:24.69Z</time></trkpt><trkpt lat="45.4324467" lon="7.7192667"><ele>599.3333333333334</ele><time>2026-04-25T13:19:25.69Z</time></trkpt><trkpt lat="45.4325317" lon="7.719275"><ele>600.0</ele><time>2026-04-25T13:19:26.69Z</time></trkpt><trkpt lat="45.43263" lon="7.7193417"><ele>602.0</ele><time>2026-04-25T13:19:27.69Z</time></trkpt><trkpt lat="45.43272" lon="7.719445"><ele>604.0</ele><time>2026-04-25T13:19:28.69Z</time></trkpt><trkpt lat="45.43279" lon="7.719565"><ele>606.0</ele><time>2026-04-25T13:19:29.69Z</time></trkpt><trkpt lat="45.4328217" lon="7.7196917"><ele>608.0</ele><time>2026-04-25T13:19:30.69Z</time></trkpt><trkpt lat="45.432845" lon="7.7198017"><ele>610.0</ele><time>2026-04-25T13:19:31.69Z</time></trkpt><trkpt lat="45.4329133" lon="7.719925"><ele>610.2</ele><time>2026-04-25T13:19:33.69Z</time></trkpt><trkpt lat="45.4330267" lon="7.71991"><ele>610.4</ele><time>2026-04-25T13:19:35.69Z</time></trkpt><trkpt lat="45.4331083" lon="7.7198767"><ele>610.6</ele><time>2026-04-25T13:19:36.69Z</time></trkpt><trkpt lat="45.4331867" lon="7.7198517"><ele>610.8</ele><time>2026-04-25T13:19:37.69Z</time></trkpt><trkpt lat="45.4332783" lon="7.719845"><ele>611.0</ele><time>2026-04-25T13:19:38.69Z</time></trkpt><trkpt lat="45.4333617" lon="7.719855"><ele>611.0</ele><time>2026-04-25T13:19:39.69Z</time></trkpt><trkpt lat="45.4334367" lon="7.7198933"><ele>611.0</ele><time>2026-04-25T13:19:40.69Z</time></trkpt><trkpt lat="45.433505" lon="7.71997"><ele>611.0</ele><time>2026-04-25T13:19:41.69Z</time></trkpt><trkpt lat="45.4335783" lon="7.72007"><ele>611.0</ele><time>2026-04-25T13:19:42.69Z</time></trkpt><trkpt lat="45.4336417" lon="7.7201633"><ele>611.0</ele><time>2026-04-25T13:19:43.69Z</time></trkpt><trkpt lat="45.43368" lon="7.7202683"><ele>611.0</ele><time>2026-04-25T13:19:44.69Z</time></trkpt><trkpt lat="45.43371" lon="7.720375"><ele>614.1666666666666</ele><time>2026-04-25T13:19:45.69Z</time></trkpt><trkpt lat="45.4337217" lon="7.7205"><ele>617.3333333333333</ele><time>2026-04-25T13:19:46.69Z</time></trkpt><trkpt lat="45.4337183" lon="7.7206367"><ele>620.5</ele><time>2026-04-25T13:19:47.69Z</time></trkpt><trkpt lat="45.433725" lon="7.7207567"><ele>623.6666666666666</ele><time>2026-04-25T13:19:48.69Z</time></trkpt><trkpt lat="45.4337467" lon="7.72087"><ele>626.8333333333334</ele><time>2026-04-25T13:19:49.69Z</time></trkpt><trkpt lat="45.4338017" lon="7.72098"><ele>630.0</ele><time>2026-04-25T13:19:50.69Z</time></trkpt><trkpt lat="45.4338717" lon="7.7210967"><ele>631.25</ele><time>2026-04-25T13:19:51.69Z</time></trkpt><trkpt lat="45.43397" lon="7.7212333"><ele>632.5</ele><time>2026-04-25T13:19:52.69Z</time></trkpt><trkpt lat="45.434085" lon="7.72136"><ele>633.75</ele><time>2026-04-25T13:19:53.69Z</time></trkpt><trkpt lat="45.4342033" lon="7.721475"><ele>635.0</ele><time>2026-04-25T13:19:54.69Z</time></trkpt><trkpt lat="45.4343267" lon="7.721575"><ele>635.0</ele><time>2026-04-25T13:19:55.69Z</time></trkpt><trkpt lat="45.43443" lon="7.72166"><ele>635.0</ele><time>2026-04-25T13:19:56.69Z</time></trkpt><trkpt lat="45.4345183" lon="7.7217367"><ele>635.0</ele><time>2026-04-25T13:19:57.69Z</time></trkpt><trkpt lat="45.434605" lon="7.721815"><ele>635.0</ele><time>2026-04-25T13:19:58.69Z</time></trkpt><trkpt lat="45.4346933" lon="7.721895"><ele>635.0</ele><time>2026-04-25T13:19:59.69Z</time></trkpt><trkpt lat="45.4347633" lon="7.7219733"><ele>636.4</ele><time>2026-04-25T13:20:00.69Z</time></trkpt><trkpt lat="45.4348367" lon="7.7220717"><ele>637.8</ele><time>2026-04-25T13:20:01.691Z</time></trkpt><trkpt lat="45.43489" lon="7.7222083"><ele>639.2</ele><time>2026-04-25T13:20:02.69Z</time></trkpt><trkpt lat="45.43495" lon="7.7223533"><ele>640.6</ele><time>2026-04-25T13:20:03.69Z</time></trkpt><trkpt lat="45.4350083" lon="7.7224867"><ele>642.0</ele><time>2026-04-25T13:20:04.69Z</time></trkpt><trkpt lat="45.4350583" lon="7.72259"><ele>642.0</ele><time>2026-04-25T13:20:05.69Z</time></trkpt><trkpt lat="45.43511" lon="7.7226583"><ele>642.0</ele><time>2026-04-25T13:20:06.69Z</time></trkpt><trkpt lat="45.4351683" lon="7.7227083"><ele>642.0</ele><time>2026-04-25T13:20:07.69Z</time></trkpt><trkpt lat="45.4352333" lon="7.7227333"><ele>642.0</ele><time>2026-04-25T13:20:08.69Z</time></trkpt><trkpt lat="45.4353067" lon="7.7227433"><ele>642.0</ele><time>2026-04-25T13:20:09.69Z</time></trkpt><trkpt lat="45.4353833" lon="7.72278"><ele>642.0</ele><time>2026-04-25T13:20:10.69Z</time></trkpt><trkpt lat="45.4354683" lon="7.72284"><ele>643.2</ele><time>2026-04-25T13:20:11.69Z</time></trkpt><trkpt lat="45.43555" lon="7.72293"><ele>644.4000000000001</ele><time>2026-04-25T13:20:12.69Z</time></trkpt><trkpt lat="45.435625" lon="7.72304"><ele>645.5999999999999</ele><time>2026-04-25T13:20:13.69Z</time></trkpt><trkpt lat="45.43568" lon="7.72315"><ele>646.8</ele><time>2026-04-25T13:20:14.69Z</time></trkpt><trkpt lat="45.4357333" lon="7.7232333"><ele>648.0</ele><time>2026-04-25T13:20:15.69Z</time></trkpt><trkpt lat="45.435805" lon="7.7232667"><ele>648.0</ele><time>2026-04-25T13:20:17.69Z</time></trkpt><trkpt lat="45.43581" lon="7.723155"><ele>648.0</ele><time>2026-04-25T13:20:22.69Z</time></trkpt><trkpt lat="45.435855" lon="7.7232517"><ele>648.0</ele><time>2026-04-25T13:26:06.689Z</time></trkpt><trkpt lat="45.435935" lon="7.7232717"><ele>648.0</ele><time>2026-04-25T13:26:08.689Z</time></trkpt><trkpt lat="45.436025" lon="7.7232617"><ele>648.0</ele><time>2026-04-25T13:26:10.689Z</time></trkpt><trkpt lat="45.4361483" lon="7.7232817"><ele>648.0</ele><time>2026-04-25T13:26:12.689Z</time></trkpt><trkpt lat="45.4362133" lon="7.7232967"><ele>648.0</ele><time>2026-04-25T13:26:13.689Z</time></trkpt><trkpt lat="45.4363367" lon="7.723315"><ele>648.0</ele><time>2026-04-25T13:26:15.689Z</time></trkpt><trkpt lat="45.4364333" lon="7.723335"><ele>648.0</ele><time>2026-04-25T13:26:17.689Z</time></trkpt><trkpt lat="45.4365233" lon="7.72333"><ele>648.0</ele><time>2026-04-25T13:26:19.689Z</time></trkpt><trkpt lat="45.4366017" lon="7.7233133"><ele>649.25</ele><time>2026-04-25T13:26:21.689Z</time></trkpt><trkpt lat="45.4367" lon="7.7232883"><ele>650.5</ele><time>2026-04-25T13:26:23.689Z</time></trkpt><trkpt lat="45.43682" lon="7.7232317"><ele>651.75</ele><time>2026-04-25T13:26:25.69Z</time></trkpt><trkpt lat="45.436925" lon="7.72315"><ele>653.0</ele><time>2026-04-25T13:26:27.689Z</time></trkpt><trkpt lat="45.4370117" lon="7.7230633"><ele>653.0</ele><time>2026-04-25T13:26:29.689Z</time></trkpt><trkpt lat="45.4371017" lon="7.72301"><ele>653.0</ele><time>2026-04-25T13:26:31.689Z</time></trkpt><trkpt lat="45.4372083" lon="7.723025"><ele>653.0</ele><time>2026-04-25T13:26:33.689Z</time></trkpt><trkpt lat="45.4372767" lon="7.7230667"><ele>653.0</ele><time>2026-04-25T13:26:34.689Z</time></trkpt><trkpt lat="45.4373483" lon="7.723115"><ele>653.0</ele><time>2026-04-25T13:26:35.689Z</time></trkpt><trkpt lat="45.43741" lon="7.723165"><ele>653.0</ele><time>2026-04-25T13:26:36.689Z</time></trkpt><trkpt lat="45.437465" lon="7.7232383"><ele>654.6666666666666</ele><time>2026-04-25T13:26:37.689Z</time></trkpt><trkpt lat="45.4375183" lon="7.7233267"><ele>656.3333333333333</ele><time>2026-04-25T13:26:38.689Z</time></trkpt><trkpt lat="45.4375767" lon="7.7234083"><ele>658.0</ele><time>2026-04-25T13:26:39.689Z</time></trkpt><trkpt lat="45.437655" lon="7.7234717"><ele>659.6666666666666</ele><time>2026-04-25T13:26:40.689Z</time></trkpt><trkpt lat="45.43773" lon="7.72352"><ele>661.3333333333334</ele><time>2026-04-25T13:26:41.689Z</time></trkpt><trkpt lat="45.4378067" lon="7.7235383"><ele>663.0</ele><time>2026-04-25T13:26:42.689Z</time></trkpt><trkpt lat="45.437875" lon="7.7235333"><ele>663.0</ele><time>2026-04-25T13:26:43.689Z</time></trkpt><trkpt lat="45.437945" lon="7.7235167"><ele>663.0</ele><time>2026-04-25T13:26:44.689Z</time></trkpt><trkpt lat="45.4380167" lon="7.7234883"><ele>663.0</ele><time>2026-04-25T13:26:45.689Z</time></trkpt><trkpt lat="45.4380767" lon="7.723455"><ele>663.0</ele><time>2026-04-25T13:26:46.689Z</time></trkpt><trkpt lat="45.4381817" lon="7.7234317"><ele>663.0</ele><time>2026-04-25T13:26:48.689Z</time></trkpt><trkpt lat="45.43828" lon="7.7235183"><ele>663.0</ele><time>2026-04-25T13:26:50.689Z</time></trkpt><trkpt lat="45.4383933" lon="7.7236067"><ele>664.1428571428571</ele><time>2026-04-25T13:26:52.689Z</time></trkpt><trkpt lat="45.4384367" lon="7.7236733"><ele>665.2857142857142</ele><time>2026-04-25T13:26:53.689Z</time></trkpt><trkpt lat="45.43846" lon="7.7237633"><ele>666.4285714285713</ele><time>2026-04-25T13:26:54.689Z</time></trkpt><trkpt lat="45.438475" lon="7.7238683"><ele>667.5714285714286</ele><time>2026-04-25T13:26:55.689Z</time></trkpt><trkpt lat="45.4384683" lon="7.7239667"><ele>668.7142857142858</ele><time>2026-04-25T13:26:56.689Z</time></trkpt><trkpt lat="45.4384583" lon="7.7240917"><ele>669.8571428571428</ele><time>2026-04-25T13:26:57.689Z</time></trkpt><trkpt lat="45.43845" lon="7.72421"><ele>671.0</ele><time>2026-04-25T13:26:58.689Z</time></trkpt><trkpt lat="45.438475" lon="7.7243"><ele>671.0</ele><time>2026-04-25T13:26:59.689Z</time></trkpt><trkpt lat="45.43856" lon="7.7244283"><ele>671.0</ele><time>2026-04-25T13:27:01.689Z</time></trkpt><trkpt lat="45.43862" lon="7.72447"><ele>671.0</ele><time>2026-04-25T13:27:02.689Z</time></trkpt><trkpt lat="45.4386983" lon="7.7245117"><ele>671.0</ele><time>2026-04-25T13:27:03.689Z</time></trkpt><trkpt lat="45.438765" lon="7.7245467"><ele>671.0</ele><time>2026-04-25T13:27:04.689Z</time></trkpt><trkpt lat="45.4388333" lon="7.7245683"><ele>671.0</ele><time>2026-04-25T13:27:05.689Z</time></trkpt><trkpt lat="45.4389067" lon="7.7245633"><ele>671.0</ele><time>2026-04-25T13:27:06.689Z</time></trkpt><trkpt lat="45.43899" lon="7.7245467"><ele>671.0</ele><time>2026-04-25T13:27:07.689Z</time></trkpt><trkpt lat="45.4390667" lon="7.7245233"><ele>671.0</ele><time>2026-04-25T13:27:08.689Z</time></trkpt><trkpt lat="45.4391417" lon="7.7244833"><ele>671.0</ele><time>2026-04-25T13:27:09.689Z</time></trkpt><trkpt lat="45.4392167" lon="7.7244483"><ele>671.0</ele><time>2026-04-25T13:27:10.69Z</time></trkpt><trkpt lat="45.439295" lon="7.7244033"><ele>671.0</ele><time>2026-04-25T13:27:11.689Z</time></trkpt><trkpt lat="45.4393733" lon="7.7243867"><ele>671.0</ele><time>2026-04-25T13:27:12.689Z</time></trkpt><trkpt lat="45.4394483" lon="7.7243983"><ele>671.0</ele><time>2026-04-25T13:27:13.689Z</time></trkpt><trkpt lat="45.439555" lon="7.7244183"><ele>671.0</ele><time>2026-04-25T13:27:15.689Z</time></trkpt><trkpt lat="45.4395117" lon="7.7243017"><ele>671.0</ele><time>2026-04-25T13:27:19.689Z</time></trkpt><trkpt lat="45.4393833" lon="7.7242517"><ele>671.0</ele><time>2026-04-25T13:27:21.689Z</time></trkpt><trkpt lat="45.4392967" lon="7.724235"><ele>674.8</ele><time>2026-04-25T13:27:22.689Z</time></trkpt><trkpt lat="45.4392183" lon="7.7242267"><ele>678.5999999999999</ele><time>2026-04-25T13:27:23.689Z</time></trkpt><trkpt lat="45.4391383" lon="7.7242167"><ele>682.4</ele><time>2026-04-25T13:27:24.689Z</time></trkpt><trkpt lat="45.439075" lon="7.7242017"><ele>686.2</ele><time>2026-04-25T13:27:25.689Z</time></trkpt><trkpt lat="45.43897" lon="7.7241017"><ele>690.0</ele><time>2026-04-25T13:27:27.689Z</time></trkpt><trkpt lat="45.4389267" lon="7.7239167"><ele>690.0</ele><time>2026-04-25T13:27:29.689Z</time></trkpt><trkpt lat="45.4389283" lon="7.7238233"><ele>690.0</ele><time>2026-04-25T13:27:30.689Z</time></trkpt><trkpt lat="45.43895" lon="7.7237117"><ele>690.0</ele><time>2026-04-25T13:27:31.689Z</time></trkpt><trkpt lat="45.4389733" lon="7.7236"><ele>690.0</ele><time>2026-04-25T13:27:32.689Z</time></trkpt><trkpt lat="45.438995" lon="7.723465"><ele>690.0</ele><time>2026-04-25T13:27:33.689Z</time></trkpt><trkpt lat="45.4390033" lon="7.7233"><ele>690.0</ele><time>2026-04-25T13:27:34.689Z</time></trkpt><trkpt lat="45.4389933" lon="7.723165"><ele>692.0</ele><time>2026-04-25T13:27:35.689Z</time></trkpt><trkpt lat="45.4389817" lon="7.723045"><ele>694.0</ele><time>2026-04-25T13:27:36.689Z</time></trkpt><trkpt lat="45.4389767" lon="7.72295"><ele>696.0</ele><time>2026-04-25T13:27:37.689Z</time></trkpt><trkpt lat="45.4389833" lon="7.7228067"><ele>698.0</ele><time>2026-04-25T13:27:39.689Z</time></trkpt><trkpt lat="45.439025" lon="7.722685"><ele>700.0</ele><time>2026-04-25T13:27:41.689Z</time></trkpt><trkpt lat="45.4390967" lon="7.7226117"><ele>702.0</ele><time>2026-04-25T13:27:43.689Z</time></trkpt><trkpt lat="45.439155" lon="7.7226517"><ele>702.0</ele><time>2026-04-25T13:27:45.689Z</time></trkpt><trkpt lat="45.4391817" lon="7.722785"><ele>702.0</ele><time>2026-04-25T13:27:47.689Z</time></trkpt><trkpt lat="45.4392417" lon="7.7229467"><ele>702.0</ele><time>2026-04-25T13:27:49.689Z</time></trkpt><trkpt lat="45.4392767" lon="7.72305"><ele>702.0</ele><time>2026-04-25T13:27:50.689Z</time></trkpt><trkpt lat="45.4393067" lon="7.7231633"><ele>702.0</ele><time>2026-04-25T13:27:51.689Z</time></trkpt><trkpt lat="45.4393383" lon="7.7232717"><ele>702.0</ele><time>2026-04-25T13:27:52.689Z</time></trkpt><trkpt lat="45.43938" lon="7.72336"><ele>702.0</ele><time>2026-04-25T13:27:53.689Z</time></trkpt><trkpt lat="45.43948" lon="7.7234417"><ele>702.0</ele><time>2026-04-25T13:27:55.689Z</time></trkpt><trkpt lat="45.439595" lon="7.723425"><ele>702.0</ele><time>2026-04-25T13:27:57.689Z</time></trkpt><trkpt lat="45.4396533" lon="7.72338"><ele>702.0</ele><time>2026-04-25T13:27:58.689Z</time></trkpt><trkpt lat="45.4397117" lon="7.7233067"><ele>703.8</ele><time>2026-04-25T13:27:59.689Z</time></trkpt><trkpt lat="45.4397683" lon="7.7232267"><ele>705.6</ele><time>2026-04-25T13:28:00.689Z</time></trkpt><trkpt lat="45.4398333" lon="7.7231483"><ele>707.4</ele><time>2026-04-25T13:28:01.689Z</time></trkpt><trkpt lat="45.4399133" lon="7.7230783"><ele>709.1999999999999</ele><time>2026-04-25T13:28:02.689Z</time></trkpt><trkpt lat="45.43999" lon="7.7230017"><ele>711.0</ele><time>2026-04-25T13:28:03.689Z</time></trkpt><trkpt lat="45.44007" lon="7.7229183"><ele>711.0</ele><time>2026-04-25T13:28:04.689Z</time></trkpt><trkpt lat="45.4401333" lon="7.7228317"><ele>711.0</ele><time>2026-04-25T13:28:05.689Z</time></trkpt><trkpt lat="45.4401883" lon="7.72275"><ele>711.0</ele><time>2026-04-25T13:28:06.689Z</time></trkpt><trkpt lat="45.4402383" lon="7.722675"><ele>711.0</ele><time>2026-04-25T13:28:07.689Z</time></trkpt><trkpt lat="45.4403083" lon="7.722535"><ele>711.0</ele><time>2026-04-25T13:28:09.689Z</time></trkpt><trkpt lat="45.4403633" lon="7.722385"><ele>712.1666666666666</ele><time>2026-04-25T13:28:11.689Z</time></trkpt><trkpt lat="45.4403983" lon="7.7222483"><ele>713.3333333333334</ele><time>2026-04-25T13:28:13.69Z</time></trkpt><trkpt lat="45.440445" lon="7.7221517"><ele>714.5</ele><time>2026-04-25T13:28:16.689Z</time></trkpt><trkpt lat="45.440515" lon="7.7221267"><ele>715.6666666666667</ele><time>2026-04-25T13:28:18.689Z</time></trkpt><trkpt lat="45.4405883" lon="7.7221817"><ele>716.8333333333334</ele><time>2026-04-25T13:28:20.689Z</time></trkpt><trkpt lat="45.4406333" lon="7.7222883"><ele>718.0</ele><time>2026-04-25T13:28:22.689Z</time></trkpt><trkpt lat="45.4406783" lon="7.7224167"><ele>719.4</ele><time>2026-04-25T13:28:24.689Z</time></trkpt><trkpt lat="45.4407683" lon="7.722535"><ele>720.8</ele><time>2026-04-25T13:28:26.689Z</time></trkpt><trkpt lat="45.4408267" lon="7.7225917"><ele>722.2</ele><time>2026-04-25T13:28:27.69Z</time></trkpt><trkpt lat="45.4408817" lon="7.7226383"><ele>723.6</ele><time>2026-04-25T13:28:28.689Z</time></trkpt><trkpt lat="45.44101" lon="7.7227067"><ele>725.0</ele><time>2026-04-25T13:28:30.689Z</time></trkpt><trkpt lat="45.4410883" lon="7.72274"><ele>725.0</ele><time>2026-04-25T13:28:31.689Z</time></trkpt><trkpt lat="45.441155" lon="7.7227817"><ele>725.0</ele><time>2026-04-25T13:28:32.689Z</time></trkpt><trkpt lat="45.4412183" lon="7.72283"><ele>725.0</ele><time>2026-04-25T13:28:33.689Z</time></trkpt><trkpt lat="45.4412883" lon="7.7228467"><ele>725.0</ele><time>2026-04-25T13:28:34.689Z</time></trkpt><trkpt lat="45.4413583" lon="7.72286"><ele>725.0</ele><time>2026-04-25T13:28:35.689Z</time></trkpt><trkpt lat="45.4414233" lon="7.7228533"><ele>725.0</ele><time>2026-04-25T13:28:36.689Z</time></trkpt><trkpt lat="45.441525" lon="7.7228067"><ele>727.1666666666666</ele><time>2026-04-25T13:28:38.689Z</time></trkpt><trkpt lat="45.441595" lon="7.7228"><ele>729.3333333333333</ele><time>2026-04-25T13:28:40.689Z</time></trkpt><trkpt lat="45.4416617" lon="7.722845"><ele>731.5</ele><time>2026-04-25T13:28:42.689Z</time></trkpt><trkpt lat="45.441715" lon="7.72294"><ele>733.6666666666666</ele><time>2026-04-25T13:28:44.689Z</time></trkpt><trkpt lat="45.44178" lon="7.72303"><ele>735.8333333333334</ele><time>2026-04-25T13:28:46.689Z</time></trkpt><trkpt lat="45.441825" lon="7.72316"><ele>738.0</ele><time>2026-04-25T13:28:48.689Z</time></trkpt><trkpt lat="45.4418633" lon="7.7233017"><ele>738.0</ele><time>2026-04-25T13:28:50.69Z</time></trkpt><trkpt lat="45.4419067" lon="7.7233817"><ele>738.0</ele><time>2026-04-25T13:28:51.689Z</time></trkpt><trkpt lat="45.44196" lon="7.7234633"><ele>738.0</ele><time>2026-04-25T13:28:52.689Z</time></trkpt><trkpt lat="45.4420333" lon="7.7236017"><ele>738.0</ele><time>2026-04-25T13:28:54.689Z</time></trkpt><trkpt lat="45.4420617" lon="7.7237183"><ele>738.0</ele><time>2026-04-25T13:28:56.689Z</time></trkpt><trkpt lat="45.44207" lon="7.7238417"><ele>738.0</ele><time>2026-04-25T13:28:58.689Z</time></trkpt><trkpt lat="45.4420733" lon="7.7239367"><ele>737.2</ele><time>2026-04-25T13:29:00.689Z</time></trkpt><trkpt lat="45.4421167" lon="7.724035"><ele>736.4</ele><time>2026-04-25T13:29:03.689Z</time></trkpt><trkpt lat="45.442165" lon="7.7241467"><ele>735.6</ele><time>2026-04-25T13:29:06.689Z</time></trkpt><trkpt lat="45.44223" lon="7.72423"><ele>734.8000000000001</ele><time>2026-04-25T13:29:09.689Z</time></trkpt><trkpt lat="45.442305" lon="7.72431"><ele>734.0</ele><time>2026-04-25T13:29:12.689Z</time></trkpt><trkpt lat="45.442385" lon="7.7243867"><ele>735.0</ele><time>2026-04-25T13:29:14.689Z</time></trkpt><trkpt lat="45.4424667" lon="7.7244483"><ele>736.0</ele><time>2026-04-25T13:29:16.689Z</time></trkpt><trkpt lat="45.4425383" lon="7.7244783"><ele>737.0</ele><time>2026-04-25T13:29:18.689Z</time></trkpt><trkpt lat="45.44263" lon="7.7245017"><ele>738.0</ele><time>2026-04-25T13:29:20.69Z</time></trkpt><trkpt lat="45.44275" lon="7.7245283"><ele>739.0</ele><time>2026-04-25T13:29:22.689Z</time></trkpt><trkpt lat="45.4428517" lon="7.7245717"><ele>744.5</ele><time>2026-04-25T13:29:24.689Z</time></trkpt><trkpt lat="45.442965" lon="7.7246033"><ele>750.0</ele><time>2026-04-25T13:29:26.689Z</time></trkpt><trkpt lat="45.4430733" lon="7.7246583"><ele>755.5</ele><time>2026-04-25T13:29:28.689Z</time></trkpt><trkpt lat="45.4431667" lon="7.7247267"><ele>761.0</ele><time>2026-04-25T13:29:30.689Z</time></trkpt><trkpt lat="45.443255" lon="7.7248367"><ele>761.0</ele><time>2026-04-25T13:29:32.689Z</time></trkpt><trkpt lat="45.4433217" lon="7.7249233"><ele>761.0</ele><time>2026-04-25T13:29:34.689Z</time></trkpt><trkpt lat="45.443405" lon="7.7249983"><ele>761.0</ele><time>2026-04-25T13:29:36.689Z</time></trkpt><trkpt lat="45.443525" lon="7.7250183"><ele>761.0</ele><time>2026-04-25T13:29:38.689Z</time></trkpt><trkpt lat="45.44359" lon="7.7250067"><ele>761.0</ele><time>2026-04-25T13:29:39.69Z</time></trkpt><trkpt lat="45.4436583" lon="7.72497"><ele>761.0</ele><time>2026-04-25T13:29:40.689Z</time></trkpt><trkpt lat="45.4437333" lon="7.7249133"><ele>761.0</ele><time>2026-04-25T13:29:41.689Z</time></trkpt><trkpt lat="45.4437833" lon="7.72485"><ele>761.0</ele><time>2026-04-25T13:29:42.689Z</time></trkpt><trkpt lat="45.4438783" lon="7.7247317"><ele>761.0</ele><time>2026-04-25T13:29:44.689Z</time></trkpt><trkpt lat="45.4439383" lon="7.72467"><ele>761.0</ele><time>2026-04-25T13:29:45.689Z</time></trkpt><trkpt lat="45.444005" lon="7.7245983"><ele>761.0</ele><time>2026-04-25T13:29:46.689Z</time></trkpt><trkpt lat="45.4440683" lon="7.7245167"><ele>761.0</ele><time>2026-04-25T13:29:47.689Z</time></trkpt><trkpt lat="45.4441133" lon="7.724445"><ele>764.3333333333333</ele><time>2026-04-25T13:29:48.689Z</time></trkpt><trkpt lat="45.4441583" lon="7.7243817"><ele>767.6666666666666</ele><time>2026-04-25T13:29:49.689Z</time></trkpt><trkpt lat="45.4442183" lon="7.7243017"><ele>771.0</ele><time>2026-04-25T13:29:50.689Z</time></trkpt><trkpt lat="45.4442867" lon="7.7242183"><ele>774.3333333333333</ele><time>2026-04-25T13:29:51.689Z</time></trkpt><trkpt lat="45.4443433" lon="7.7241383"><ele>777.6666666666666</ele><time>2026-04-25T13:29:52.689Z</time></trkpt><trkpt lat="45.4443883" lon="7.7240617"><ele>781.0</ele><time>2026-04-25T13:29:53.69Z</time></trkpt><trkpt lat="45.4444267" lon="7.7239717"><ele>780.9999999999999</ele><time>2026-04-25T13:29:54.689Z</time></trkpt><trkpt lat="45.4444567" lon="7.7238867"><ele>781.0</ele><time>2026-04-25T13:29:55.689Z</time></trkpt><trkpt lat="45.44448" lon="7.72375"><ele>781.0</ele><time>2026-04-25T13:29:57.689Z</time></trkpt><trkpt lat="45.44449" lon="7.7236417"><ele>781.0</ele><time>2026-04-25T13:29:59.689Z</time></trkpt><trkpt lat="45.4445183" lon="7.7235533"><ele>780.9999999999999</ele><time>2026-04-25T13:30:01.689Z</time></trkpt><trkpt lat="45.4445917" lon="7.7234683"><ele>781.0</ele><time>2026-04-25T13:30:03.689Z</time></trkpt><trkpt lat="45.4446617" lon="7.7233917"><ele>781.0</ele><time>2026-04-25T13:30:05.689Z</time></trkpt><trkpt lat="45.44476" lon="7.72333"><ele>781.0</ele><time>2026-04-25T13:30:07.689Z</time></trkpt><trkpt lat="45.4448267" lon="7.723295"><ele>781.0</ele><time>2026-04-25T13:30:08.689Z</time></trkpt><trkpt lat="45.44488" lon="7.7232467"><ele>781.0</ele><time>2026-04-25T13:30:09.689Z</time></trkpt><trkpt lat="45.444955" lon="7.72313"><ele>781.0</ele><time>2026-04-25T13:30:11.689Z</time></trkpt><trkpt lat="45.44498" lon="7.7229833"><ele>781.0</ele><time>2026-04-25T13:30:35.689Z</time></trkpt><trkpt lat="45.4449867" lon="7.7228667"><ele>781.0</ele><time>2026-04-25T13:30:36.689Z</time></trkpt><trkpt lat="45.4449983" lon="7.7227117"><ele>781.0</ele><time>2026-04-25T13:30:37.689Z</time></trkpt><trkpt lat="45.4450117" lon="7.7225233"><ele>781.0</ele><time>2026-04-25T13:30:38.69Z</time></trkpt><trkpt lat="45.4450217" lon="7.722305"><ele>784.3333333333333</ele><time>2026-04-25T13:30:39.689Z</time></trkpt><trkpt lat="45.4450233" lon="7.72207"><ele>787.6666666666667</ele><time>2026-04-25T13:30:40.69Z</time></trkpt><trkpt lat="45.4450317" lon="7.7218433"><ele>791.0</ele><time>2026-04-25T13:30:41.689Z</time></trkpt><trkpt lat="45.44503" lon="7.7216183"><ele>793.3333333333334</ele><time>2026-04-25T13:30:42.689Z</time></trkpt><trkpt lat="45.4450417" lon="7.7213583"><ele>795.6666666666667</ele><time>2026-04-25T13:30:43.69Z</time></trkpt><trkpt lat="45.44507" lon="7.7210983"><ele>798.0</ele><time>2026-04-25T13:30:44.69Z</time></trkpt><trkpt lat="45.4451183" lon="7.720845"><ele>800.75</ele><time>2026-04-25T13:30:45.689Z</time></trkpt><trkpt lat="45.4451833" lon="7.72065"><ele>803.5</ele><time>2026-04-25T13:30:46.689Z</time></trkpt><trkpt lat="45.4452433" lon="7.7204833"><ele>806.25</ele><time>2026-04-25T13:30:47.689Z</time></trkpt><trkpt lat="45.4453033" lon="7.7203417"><ele>809.0</ele><time>2026-04-25T13:30:48.689Z</time></trkpt><trkpt lat="45.4453267" lon="7.7202267"><ele>809.0</ele><time>2026-04-25T13:30:49.689Z</time></trkpt><trkpt lat="45.4453133" lon="7.7201333"><ele>809.0</ele><time>2026-04-25T13:30:50.689Z</time></trkpt><trkpt lat="45.4452167" lon="7.7200767"><ele>809.0</ele><time>2026-04-25T13:30:52.689Z</time></trkpt><trkpt lat="45.44515" lon="7.72013"><ele>809.0</ele><time>2026-04-25T13:30:53.688Z</time></trkpt><trkpt lat="45.445075" lon="7.72026"><ele>809.0</ele><time>2026-04-25T13:30:54.688Z</time></trkpt><trkpt lat="45.4449767" lon="7.7204517"><ele>809.0</ele><time>2026-04-25T13:30:55.688Z</time></trkpt><trkpt lat="45.4448633" lon="7.72068"><ele>809.0</ele><time>2026-04-25T13:30:56.688Z</time></trkpt><trkpt lat="45.44474" lon="7.720885"><ele>809.0</ele><time>2026-04-25T13:30:57.688Z</time></trkpt><trkpt lat="45.4446133" lon="7.7210717"><ele>813.0</ele><time>2026-04-25T13:30:58.688Z</time></trkpt><trkpt lat="45.4444717" lon="7.72126"><ele>817.0</ele><time>2026-04-25T13:30:59.688Z</time></trkpt><trkpt lat="45.444345" lon="7.7214167"><ele>821.0</ele><time>2026-04-25T13:31:00.688Z</time></trkpt><trkpt lat="45.44422" lon="7.72155"><ele>821.0</ele><time>2026-04-25T13:31:01.688Z</time></trkpt><trkpt lat="45.4440817" lon="7.7216367"><ele>821.0</ele><time>2026-04-25T13:31:02.688Z</time></trkpt><trkpt lat="45.443925" lon="7.72167"><ele>821.0</ele><time>2026-04-25T13:31:03.688Z</time></trkpt><trkpt lat="45.4437883" lon="7.7216367"><ele>821.0</ele><time>2026-04-25T13:31:04.688Z</time></trkpt><trkpt lat="45.4436933" lon="7.7215433"><ele>820.5</ele><time>2026-04-25T13:31:05.688Z</time></trkpt><trkpt lat="45.4436317" lon="7.7213717"><ele>820.0</ele><time>2026-04-25T13:31:06.688Z</time></trkpt><trkpt lat="45.4436117" lon="7.7211517"><ele>819.5</ele><time>2026-04-25T13:31:07.688Z</time></trkpt><trkpt lat="45.4435733" lon="7.7209633"><ele>819.0</ele><time>2026-04-25T13:31:08.689Z</time></trkpt><trkpt lat="45.4435033" lon="7.7208017"><ele>819.0</ele><time>2026-04-25T13:31:09.688Z</time></trkpt><trkpt lat="45.4433883" lon="7.7206333"><ele>819.0</ele><time>2026-04-25T13:31:10.688Z</time></trkpt><trkpt lat="45.4432233" lon="7.7204567"><ele>819.0</ele><time>2026-04-25T13:31:11.688Z</time></trkpt><trkpt lat="45.44305" lon="7.7202867"><ele>819.6666666666667</ele><time>2026-04-25T13:31:12.688Z</time></trkpt><trkpt lat="45.4428667" lon="7.7201517"><ele>820.3333333333334</ele><time>2026-04-25T13:31:13.688Z</time></trkpt><trkpt lat="45.442685" lon="7.720065"><ele>821.0</ele><time>2026-04-25T13:31:14.688Z</time></trkpt><trkpt lat="45.4425183" lon="7.72007"><ele>821.0</ele><time>2026-04-25T13:31:15.688Z</time></trkpt><trkpt lat="45.4424083" lon="7.7200683"><ele>821.0</ele><time>2026-04-25T13:31:16.688Z</time></trkpt><trkpt lat="45.442315" lon="7.7199667"><ele>821.0</ele><time>2026-04-25T13:31:17.688Z</time></trkpt><trkpt lat="45.442265" lon="7.7198017"><ele>821.0</ele><time>2026-04-25T13:31:18.688Z</time></trkpt><trkpt lat="45.4422583" lon="7.7195733"><ele>823.6666666666667</ele><time>2026-04-25T13:31:19.688Z</time></trkpt><trkpt lat="45.4422683" lon="7.7193133"><ele>826.3333333333333</ele><time>2026-04-25T13:31:20.688Z</time></trkpt><trkpt lat="45.4422883" lon="7.7190717"><ele>829.0</ele><time>2026-04-25T13:31:21.688Z</time></trkpt><trkpt lat="45.442355" lon="7.718855"><ele>829.0</ele><time>2026-04-25T13:31:22.688Z</time></trkpt><trkpt lat="45.4424633" lon="7.7186517"><ele>829.0</ele><time>2026-04-25T13:31:23.688Z</time></trkpt><trkpt lat="45.4426017" lon="7.7184417"><ele>829.0</ele><time>2026-04-25T13:31:24.688Z</time></trkpt><trkpt lat="45.4427567" lon="7.7182517"><ele>826.25</ele><time>2026-04-25T13:31:25.688Z</time></trkpt><trkpt lat="45.4428933" lon="7.7181183"><ele>823.5</ele><time>2026-04-25T13:31:26.688Z</time></trkpt><trkpt lat="45.4430133" lon="7.7180033"><ele>820.75</ele><time>2026-04-25T13:31:27.688Z</time></trkpt><trkpt lat="45.4431033" lon="7.7178667"><ele>818.0</ele><time>2026-04-25T13:31:28.688Z</time></trkpt><trkpt lat="45.4431483" lon="7.71768"><ele>817.0</ele><time>2026-04-25T13:31:29.688Z</time></trkpt><trkpt lat="45.4431567" lon="7.717455"><ele>816.0</ele><time>2026-04-25T13:31:30.688Z</time></trkpt><trkpt lat="45.44308" lon="7.717155"><ele>815.0</ele><time>2026-04-25T13:31:31.688Z</time></trkpt><trkpt lat="45.4429517" lon="7.716845"><ele>815.0</ele><time>2026-04-25T13:31:32.688Z</time></trkpt><trkpt lat="45.442835" lon="7.7165683"><ele>815.0</ele><time>2026-04-25T13:31:33.688Z</time></trkpt><trkpt lat="45.4427283" lon="7.7163283"><ele>815.0</ele><time>2026-04-25T13:31:34.688Z</time></trkpt><trkpt lat="45.4426317" lon="7.716125"><ele>818.5</ele><time>2026-04-25T13:31:35.688Z</time></trkpt><trkpt lat="45.4425733" lon="7.7159333"><ele>822.0</ele><time>2026-04-25T13:31:36.688Z</time></trkpt><trkpt lat="45.4425483" lon="7.7157367"><ele>825.5</ele><time>2026-04-25T13:31:37.688Z</time></trkpt><trkpt lat="45.4425433" lon="7.7155233"><ele>829.0</ele><time>2026-04-25T13:31:38.688Z</time></trkpt><trkpt lat="45.4425567" lon="7.7152883"><ele>831.0</ele><time>2026-04-25T13:31:39.688Z</time></trkpt><trkpt lat="45.442605" lon="7.7150267"><ele>833.0</ele><time>2026-04-25T13:31:40.688Z</time></trkpt><trkpt lat="45.4426883" lon="7.7147483"><ele>835.0</ele><time>2026-04-25T13:31:41.688Z</time></trkpt><trkpt lat="45.4427667" lon="7.71448"><ele>834.6666666666666</ele><time>2026-04-25T13:31:42.688Z</time></trkpt><trkpt lat="45.4428233" lon="7.7142017"><ele>834.3333333333333</ele><time>2026-04-25T13:31:43.688Z</time></trkpt><trkpt lat="45.4428417" lon="7.7139467"><ele>834.0</ele><time>2026-04-25T13:31:44.688Z</time></trkpt><trkpt lat="45.4428217" lon="7.713655"><ele>837.5</ele><time>2026-04-25T13:31:45.688Z</time></trkpt><trkpt lat="45.4427467" lon="7.7133583"><ele>841.0</ele><time>2026-04-25T13:31:46.688Z</time></trkpt><trkpt lat="45.4426317" lon="7.7130733"><ele>841.0</ele><time>2026-04-25T13:31:47.688Z</time></trkpt><trkpt lat="45.4425233" lon="7.712855"><ele>841.0</ele><time>2026-04-25T13:31:48.688Z</time></trkpt><trkpt lat="45.4424383" lon="7.7126533"><ele>841.0</ele><time>2026-04-25T13:31:49.688Z</time></trkpt><trkpt lat="45.4424" lon="7.7124017"><ele>844.6666666666666</ele><time>2026-04-25T13:31:50.688Z</time></trkpt><trkpt lat="45.4423683" lon="7.7121233"><ele>848.3333333333333</ele><time>2026-04-25T13:31:51.688Z</time></trkpt><trkpt lat="45.44236" lon="7.71183"><ele>852.0</ele><time>2026-04-25T13:31:52.688Z</time></trkpt><trkpt lat="45.44233" lon="7.7115233"><ele>853.3333333333333</ele><time>2026-04-25T13:31:53.688Z</time></trkpt><trkpt lat="45.4422917" lon="7.711225"><ele>854.6666666666666</ele><time>2026-04-25T13:31:54.688Z</time></trkpt><trkpt lat="45.4422483" lon="7.7109833"><ele>856.0</ele><time>2026-04-25T13:31:55.688Z</time></trkpt><trkpt lat="45.4422233" lon="7.7107583"><ele>859.0</ele><time>2026-04-25T13:31:56.688Z</time></trkpt><trkpt lat="45.4422233" lon="7.7105467"><ele>862.0</ele><time>2026-04-25T13:31:57.689Z</time></trkpt><trkpt lat="45.4422417" lon="7.7103433"><ele>865.0</ele><time>2026-04-25T13:31:58.689Z</time></trkpt><trkpt lat="45.4422383" lon="7.7100883"><ele>867.3333333333333</ele><time>2026-04-25T13:31:59.689Z</time></trkpt><trkpt lat="45.442205" lon="7.709825"><ele>869.6666666666667</ele><time>2026-04-25T13:32:00.688Z</time></trkpt><trkpt lat="45.4421633" lon="7.7095467"><ele>872.0</ele><time>2026-04-25T13:32:01.688Z</time></trkpt><trkpt lat="45.44212" lon="7.709285"><ele>863.6666666666667</ele><time>2026-04-25T13:32:02.688Z</time></trkpt><trkpt lat="45.4420683" lon="7.7090517"><ele>855.3333333333333</ele><time>2026-04-25T13:32:03.689Z</time></trkpt><trkpt lat="45.4420017" lon="7.7088633"><ele>847.0</ele><time>2026-04-25T13:32:04.688Z</time></trkpt><trkpt lat="45.4419217" lon="7.7087"><ele>847.0</ele><time>2026-04-25T13:32:05.688Z</time></trkpt><trkpt lat="45.44181" lon="7.7085883"><ele>847.0</ele><time>2026-04-25T13:32:06.688Z</time></trkpt><trkpt lat="45.441695" lon="7.70851"><ele>847.0</ele><time>2026-04-25T13:32:07.688Z</time></trkpt><trkpt lat="45.4415183" lon="7.70851"><ele>847.0</ele><time>2026-04-25T13:32:08.688Z</time></trkpt><trkpt lat="45.4413683" lon="7.7084467"><ele>845.6666666666666</ele><time>2026-04-25T13:32:09.688Z</time></trkpt><trkpt lat="45.4412367" lon="7.708305"><ele>844.3333333333333</ele><time>2026-04-25T13:32:10.688Z</time></trkpt><trkpt lat="45.4410933" lon="7.7081517"><ele>843.0</ele><time>2026-04-25T13:32:11.688Z</time></trkpt><trkpt lat="45.4409533" lon="7.7080133"><ele>843.0</ele><time>2026-04-25T13:32:12.688Z</time></trkpt><trkpt lat="45.4408217" lon="7.7078917"><ele>843.0</ele><time>2026-04-25T13:32:13.688Z</time></trkpt><trkpt lat="45.4407033" lon="7.7077583"><ele>843.0</ele><time>2026-04-25T13:32:14.688Z</time></trkpt><trkpt lat="45.440605" lon="7.70759"><ele>838.0</ele><time>2026-04-25T13:32:15.688Z</time></trkpt><trkpt lat="45.4405217" lon="7.707385"><ele>833.0</ele><time>2026-04-25T13:32:16.688Z</time></trkpt><trkpt lat="45.4404733" lon="7.70715"><ele>828.0</ele><time>2026-04-25T13:32:17.688Z</time></trkpt><trkpt lat="45.4404633" lon="7.7069167"><ele>838.0</ele><time>2026-04-25T13:32:18.688Z</time></trkpt><trkpt lat="45.44047" lon="7.7066933"><ele>848.0</ele><time>2026-04-25T13:32:19.688Z</time></trkpt><trkpt lat="45.440495" lon="7.7064967"><ele>858.0</ele><time>2026-04-25T13:32:20.688Z</time></trkpt><trkpt lat="45.4405067" lon="7.7063083"><ele>868.0</ele><time>2026-04-25T13:32:21.688Z</time></trkpt><trkpt lat="45.4404833" lon="7.70616"><ele>863.4</ele><time>2026-04-25T13:32:22.689Z</time></trkpt><trkpt lat="45.440415" lon="7.7060367"><ele>858.8</ele><time>2026-04-25T13:32:23.688Z</time></trkpt><trkpt lat="45.4403233" lon="7.7059083"><ele>854.2</ele><time>2026-04-25T13:32:24.688Z</time></trkpt><trkpt lat="45.440255" lon="7.705815"><ele>849.6</ele><time>2026-04-25T13:32:25.688Z</time></trkpt><trkpt lat="45.4402" lon="7.7057617"><ele>845.0</ele><time>2026-04-25T13:32:26.688Z</time></trkpt><trkpt lat="45.440125" lon="7.7056867"><ele>845.0000000000001</ele><time>2026-04-25T13:32:28.688Z</time></trkpt><trkpt lat="45.4400833" lon="7.7055833"><ele>845.0</ele><time>2026-04-25T13:32:30.688Z</time></trkpt><trkpt lat="45.4400633" lon="7.705455"><ele>845.0</ele><time>2026-04-25T13:32:33.688Z</time></trkpt><trkpt lat="45.4400617" lon="7.70536"><ele>845.0</ele><time>2026-04-25T13:32:35.688Z</time></trkpt><trkpt lat="45.4400833" lon="7.7051983"><ele>845.0000000000001</ele><time>2026-04-25T13:32:38.688Z</time></trkpt><trkpt lat="45.4401067" lon="7.705085"><ele>845.0</ele><time>2026-04-25T13:32:39.688Z</time></trkpt><trkpt lat="45.4401367" lon="7.7049417"><ele>845.0</ele><time>2026-04-25T13:32:40.688Z</time></trkpt><trkpt lat="45.440155" lon="7.70484"><ele>845.0</ele><time>2026-04-25T13:32:41.688Z</time></trkpt><trkpt lat="45.4401383" lon="7.70475"><ele>845.0</ele><time>2026-04-25T13:32:44.688Z</time></trkpt><trkpt lat="45.44011" lon="7.7049117"><ele>845.0</ele><time>2026-04-25T13:32:48.688Z</time></trkpt><trkpt lat="45.440095" lon="7.7050283"><ele>845.0</ele><time>2026-04-25T13:32:49.688Z</time></trkpt><trkpt lat="45.440065" lon="7.7051867"><ele>845.0000000000001</ele><time>2026-04-25T13:32:50.688Z</time></trkpt><trkpt lat="45.4400433" lon="7.7053333"><ele>845.0</ele><time>2026-04-25T13:32:51.689Z</time></trkpt><trkpt lat="45.440035" lon="7.7054567"><ele>845.0</ele><time>2026-04-25T13:32:52.688Z</time></trkpt><trkpt lat="45.4400517" lon="7.7055567"><ele>845.0</ele><time>2026-04-25T13:32:53.688Z</time></trkpt><trkpt lat="45.44009" lon="7.7056433"><ele>845.0000000000001</ele><time>2026-04-25T13:32:54.688Z</time></trkpt><trkpt lat="45.4401517" lon="7.7057217"><ele>845.0</ele><time>2026-04-25T13:32:55.688Z</time></trkpt><trkpt lat="45.4402233" lon="7.7057767"><ele>845.0000000000001</ele><time>2026-04-25T13:32:56.688Z</time></trkpt><trkpt lat="45.4402933" lon="7.7058183"><ele>845.0</ele><time>2026-04-25T13:32:57.689Z</time></trkpt><trkpt lat="45.440365" lon="7.705865"><ele>845.0</ele><time>2026-04-25T13:32:58.688Z</time></trkpt><trkpt lat="45.4404267" lon="7.7058917"><ele>845.0</ele><time>2026-04-25T13:32:59.688Z</time></trkpt><trkpt lat="45.4405233" lon="7.7058867"><ele>845.0000000000001</ele><time>2026-04-25T13:33:01.688Z</time></trkpt><trkpt lat="45.4405967" lon="7.7058567"><ele>845.0</ele><time>2026-04-25T13:33:03.689Z</time></trkpt><trkpt lat="45.4406783" lon="7.705845"><ele>850.75</ele><time>2026-04-25T13:33:05.688Z</time></trkpt><trkpt lat="45.440805" lon="7.7059483"><ele>856.5</ele><time>2026-04-25T13:33:07.688Z</time></trkpt><trkpt lat="45.4408683" lon="7.706065"><ele>862.25</ele><time>2026-04-25T13:33:08.688Z</time></trkpt><trkpt lat="45.4409067" lon="7.706195"><ele>868.0</ele><time>2026-04-25T13:33:09.688Z</time></trkpt><trkpt lat="45.4409417" lon="7.7063333"><ele>868.0</ele><time>2026-04-25T13:33:10.688Z</time></trkpt><trkpt lat="45.4409633" lon="7.7064917"><ele>868.0</ele><time>2026-04-25T13:33:11.688Z</time></trkpt><trkpt lat="45.4409767" lon="7.7066383"><ele>868.0</ele><time>2026-04-25T13:33:12.688Z</time></trkpt><trkpt lat="45.4409817" lon="7.7067617"><ele>868.0</ele><time>2026-04-25T13:33:13.688Z</time></trkpt><trkpt lat="45.440995" lon="7.7068833"><ele>868.0</ele><time>2026-04-25T13:33:14.688Z</time></trkpt><trkpt lat="45.441035" lon="7.7070033"><ele>867.3333333333333</ele><time>2026-04-25T13:33:15.688Z</time></trkpt><trkpt lat="45.441075" lon="7.7071117"><ele>866.6666666666666</ele><time>2026-04-25T13:33:16.688Z</time></trkpt><trkpt lat="45.4411133" lon="7.7072"><ele>866.0</ele><time>2026-04-25T13:33:17.688Z</time></trkpt><trkpt lat="45.4411533" lon="7.7072767"><ele>865.3333333333333</ele><time>2026-04-25T13:33:18.688Z</time></trkpt><trkpt lat="45.4412017" lon="7.7073617"><ele>864.6666666666666</ele><time>2026-04-25T13:33:19.688Z</time></trkpt><trkpt lat="45.4412683" lon="7.7074683"><ele>864.0</ele><time>2026-04-25T13:33:20.688Z</time></trkpt><trkpt lat="45.4413383" lon="7.7075783"><ele>865.3333333333334</ele><time>2026-04-25T13:33:21.688Z</time></trkpt><trkpt lat="45.44142" lon="7.70766"><ele>866.6666666666667</ele><time>2026-04-25T13:33:22.688Z</time></trkpt><trkpt lat="45.4414983" lon="7.7077117"><ele>868.0</ele><time>2026-04-25T13:33:23.688Z</time></trkpt><trkpt lat="45.44159" lon="7.70774"><ele>869.3333333333334</ele><time>2026-04-25T13:33:24.688Z</time></trkpt><trkpt lat="45.44167" lon="7.7077617"><ele>870.6666666666667</ele><time>2026-04-25T13:33:25.688Z</time></trkpt><trkpt lat="45.4417517" lon="7.7077783"><ele>872.0</ele><time>2026-04-25T13:33:26.688Z</time></trkpt><trkpt lat="45.441835" lon="7.7077967"><ele>872.0000000000001</ele><time>2026-04-25T13:33:27.689Z</time></trkpt><trkpt lat="45.441925" lon="7.7078117"><ele>872.0</ele><time>2026-04-25T13:33:28.688Z</time></trkpt><trkpt lat="45.44201" lon="7.7078167"><ele>872.0</ele><time>2026-04-25T13:33:29.688Z</time></trkpt><trkpt lat="45.4420917" lon="7.7078317"><ele>872.0</ele><time>2026-04-25T13:33:30.688Z</time></trkpt><trkpt lat="45.4421683" lon="7.7078483"><ele>872.0000000000001</ele><time>2026-04-25T13:33:31.688Z</time></trkpt><trkpt lat="45.4422367" lon="7.7078633"><ele>872.0</ele><time>2026-04-25T13:33:32.688Z</time></trkpt><trkpt lat="45.442305" lon="7.7078733"><ele>876.8333333333334</ele><time>2026-04-25T13:33:33.688Z</time></trkpt><trkpt lat="45.44237" lon="7.7078883"><ele>881.6666666666667</ele><time>2026-04-25T13:33:34.688Z</time></trkpt><trkpt lat="45.4424317" lon="7.7079233"><ele>886.5</ele><time>2026-04-25T13:33:35.688Z</time></trkpt><trkpt lat="45.442495" lon="7.707995"><ele>891.3333333333333</ele><time>2026-04-25T13:33:36.689Z</time></trkpt><trkpt lat="45.4425717" lon="7.7080983"><ele>896.1666666666666</ele><time>2026-04-25T13:33:37.688Z</time></trkpt><trkpt lat="45.4426533" lon="7.7082367"><ele>901.0</ele><time>2026-04-25T13:33:38.688Z</time></trkpt><trkpt lat="45.4427217" lon="7.7083867"><ele>901.0</ele><time>2026-04-25T13:33:39.688Z</time></trkpt><trkpt lat="45.44278" lon="7.7085283"><ele>900.9999999999999</ele><time>2026-04-25T13:33:40.688Z</time></trkpt><trkpt lat="45.442825" lon="7.708665"><ele>900.9999999999999</ele><time>2026-04-25T13:33:41.688Z</time></trkpt><trkpt lat="45.4428633" lon="7.7087783"><ele>901.0</ele><time>2026-04-25T13:33:42.688Z</time></trkpt><trkpt lat="45.44291" lon="7.7088683"><ele>901.0</ele><time>2026-04-25T13:33:43.688Z</time></trkpt><trkpt lat="45.4429533" lon="7.7089517"><ele>902.0</ele><time>2026-04-25T13:33:44.688Z</time></trkpt><trkpt lat="45.4430133" lon="7.7090417"><ele>902.9999999999999</ele><time>2026-04-25T13:33:45.688Z</time></trkpt><trkpt lat="45.44309" lon="7.70914"><ele>903.9999999999999</ele><time>2026-04-25T13:33:46.688Z</time></trkpt><trkpt lat="45.443155" lon="7.709255"><ele>905.0</ele><time>2026-04-25T13:33:47.688Z</time></trkpt><trkpt lat="45.4432233" lon="7.709375"><ele>906.0</ele><time>2026-04-25T13:33:48.688Z</time></trkpt><trkpt lat="45.443295" lon="7.7094867"><ele>906.0</ele><time>2026-04-25T13:33:49.688Z</time></trkpt><trkpt lat="45.443365" lon="7.7095717"><ele>905.9999999999999</ele><time>2026-04-25T13:33:50.688Z</time></trkpt><trkpt lat="45.4434333" lon="7.7096717"><ele>905.9999999999999</ele><time>2026-04-25T13:33:51.688Z</time></trkpt><trkpt lat="45.4435017" lon="7.70979"><ele>906.0</ele><time>2026-04-25T13:33:52.688Z</time></trkpt><trkpt lat="45.443565" lon="7.7099267"><ele>906.0</ele><time>2026-04-25T13:33:53.688Z</time></trkpt><trkpt lat="45.44361" lon="7.7100417"><ele>906.0</ele><time>2026-04-25T13:33:54.688Z</time></trkpt><trkpt lat="45.443635" lon="7.7101433"><ele>906.0</ele><time>2026-04-25T13:33:55.688Z</time></trkpt><trkpt lat="45.4436517" lon="7.7102317"><ele>906.0</ele><time>2026-04-25T13:33:56.689Z</time></trkpt><trkpt lat="45.4437283" lon="7.710315"><ele>906.0</ele><time>2026-04-25T13:33:58.688Z</time></trkpt><trkpt lat="45.443805" lon="7.7102917"><ele>906.0</ele><time>2026-04-25T13:33:59.688Z</time></trkpt><trkpt lat="45.4439017" lon="7.71024"><ele>906.0</ele><time>2026-04-25T13:34:00.688Z</time></trkpt><trkpt lat="45.4439967" lon="7.71016"><ele>910.1666666666666</ele><time>2026-04-25T13:34:01.688Z</time></trkpt><trkpt lat="45.4440717" lon="7.7100867"><ele>914.3333333333333</ele><time>2026-04-25T13:34:02.688Z</time></trkpt><trkpt lat="45.4441317" lon="7.7100217"><ele>918.5</ele><time>2026-04-25T13:34:03.688Z</time></trkpt><trkpt lat="45.4441917" lon="7.7099533"><ele>922.6666666666666</ele><time>2026-04-25T13:34:04.688Z</time></trkpt><trkpt lat="45.4442617" lon="7.7098783"><ele>926.8333333333333</ele><time>2026-04-25T13:34:05.688Z</time></trkpt><trkpt lat="45.44433" lon="7.70978"><ele>931.0</ele><time>2026-04-25T13:34:06.688Z</time></trkpt><trkpt lat="45.4444" lon="7.709655"><ele>931.0</ele><time>2026-04-25T13:34:07.688Z</time></trkpt><trkpt lat="45.4444433" lon="7.7095217"><ele>930.9999999999999</ele><time>2026-04-25T13:34:08.688Z</time></trkpt><trkpt lat="45.444475" lon="7.709395"><ele>930.9999999999999</ele><time>2026-04-25T13:34:09.688Z</time></trkpt><trkpt lat="45.4445117" lon="7.7092683"><ele>931.0</ele><time>2026-04-25T13:34:10.689Z</time></trkpt><trkpt lat="45.44455" lon="7.7091483"><ele>931.0</ele><time>2026-04-25T13:34:11.688Z</time></trkpt><trkpt lat="45.4445717" lon="7.7090283"><ele>930.9999999999999</ele><time>2026-04-25T13:34:12.688Z</time></trkpt><trkpt lat="45.444595" lon="7.7089117"><ele>931.0</ele><time>2026-04-25T13:34:13.688Z</time></trkpt><trkpt lat="45.4446117" lon="7.7088183"><ele>931.0</ele><time>2026-04-25T13:34:14.688Z</time></trkpt><trkpt lat="45.444645" lon="7.70869"><ele>931.0</ele><time>2026-04-25T13:34:16.688Z</time></trkpt><trkpt lat="45.4446833" lon="7.70861"><ele>930.9999999999999</ele><time>2026-04-25T13:34:18.688Z</time></trkpt><trkpt lat="45.4447167" lon="7.7085133"><ele>931.0</ele><time>2026-04-25T13:34:20.688Z</time></trkpt><trkpt lat="45.4447367" lon="7.7084083"><ele>930.9999999999999</ele><time>2026-04-25T13:34:22.688Z</time></trkpt><trkpt lat="45.4447633" lon="7.7083033"><ele>931.0</ele><time>2026-04-25T13:34:24.688Z</time></trkpt><trkpt lat="45.44481" lon="7.70817"><ele>931.0</ele><time>2026-04-25T13:34:26.688Z</time></trkpt><trkpt lat="45.4448333" lon="7.7080817"><ele>931.0</ele><time>2026-04-25T13:34:27.688Z</time></trkpt><trkpt lat="45.4448683" lon="7.7079833"><ele>930.9999999999999</ele><time>2026-04-25T13:34:28.688Z</time></trkpt><trkpt lat="45.4449033" lon="7.70789"><ele>931.0</ele><time>2026-04-25T13:34:29.688Z</time></trkpt><trkpt lat="45.4449467" lon="7.7077967"><ele>932.1666666666666</ele><time>2026-04-25T13:34:30.688Z</time></trkpt><trkpt lat="45.4449917" lon="7.70771"><ele>933.3333333333333</ele><time>2026-04-25T13:34:31.688Z</time></trkpt><trkpt lat="45.4450267" lon="7.7076167"><ele>934.5</ele><time>2026-04-25T13:34:32.688Z</time></trkpt><trkpt lat="45.4450667" lon="7.7075217"><ele>935.6666666666667</ele><time>2026-04-25T13:34:33.688Z</time></trkpt><trkpt lat="45.445105" lon="7.707435"><ele>936.8333333333334</ele><time>2026-04-25T13:34:34.688Z</time></trkpt><trkpt lat="45.44515" lon="7.7073467"><ele>938.0</ele><time>2026-04-25T13:34:35.688Z</time></trkpt><trkpt lat="45.445205" lon="7.7072683"><ele>938.0000000000001</ele><time>2026-04-25T13:34:36.688Z</time></trkpt><trkpt lat="45.445275" lon="7.7072017"><ele>938.0</ele><time>2026-04-25T13:34:37.688Z</time></trkpt><trkpt lat="45.4453583" lon="7.7071467"><ele>938.0</ele><time>2026-04-25T13:34:38.688Z</time></trkpt><trkpt lat="45.44545" lon="7.7071033"><ele>938.0</ele><time>2026-04-25T13:34:39.688Z</time></trkpt><trkpt lat="45.4455333" lon="7.7070867"><ele>938.0000000000001</ele><time>2026-04-25T13:34:40.688Z</time></trkpt><trkpt lat="45.44561" lon="7.707085"><ele>938.0</ele><time>2026-04-25T13:34:41.688Z</time></trkpt><trkpt lat="45.44569" lon="7.7070783"><ele>936.8333333333334</ele><time>2026-04-25T13:34:42.688Z</time></trkpt><trkpt lat="45.4457667" lon="7.7070683"><ele>935.6666666666667</ele><time>2026-04-25T13:34:43.688Z</time></trkpt><trkpt lat="45.4458367" lon="7.7070483"><ele>934.5</ele><time>2026-04-25T13:34:44.688Z</time></trkpt><trkpt lat="45.4459317" lon="7.7069433"><ele>933.3333333333333</ele><time>2026-04-25T13:34:46.688Z</time></trkpt><trkpt lat="45.44598" lon="7.7068483"><ele>932.1666666666666</ele><time>2026-04-25T13:34:47.688Z</time></trkpt><trkpt lat="45.4460267" lon="7.70673"><ele>931.0</ele><time>2026-04-25T13:34:48.688Z</time></trkpt><trkpt lat="45.4460833" lon="7.7065783"><ele>934.5</ele><time>2026-04-25T13:34:49.688Z</time></trkpt><trkpt lat="45.4461483" lon="7.7064017"><ele>938.0</ele><time>2026-04-25T13:34:50.688Z</time></trkpt><trkpt lat="45.4462033" lon="7.7062383"><ele>941.5</ele><time>2026-04-25T13:34:51.688Z</time></trkpt><trkpt lat="45.4462633" lon="7.7060867"><ele>945.0</ele><time>2026-04-25T13:34:52.688Z</time></trkpt><trkpt lat="45.4463117" lon="7.7059567"><ele>945.0</ele><time>2026-04-25T13:34:53.688Z</time></trkpt><trkpt lat="45.44637" lon="7.7058367"><ele>945.0</ele><time>2026-04-25T13:34:54.688Z</time></trkpt><trkpt lat="45.4464167" lon="7.7057333"><ele>945.0</ele><time>2026-04-25T13:34:55.688Z</time></trkpt><trkpt lat="45.446465" lon="7.705645"><ele>945.0</ele><time>2026-04-25T13:34:56.688Z</time></trkpt><trkpt lat="45.44651" lon="7.70555"><ele>945.0</ele><time>2026-04-25T13:34:57.688Z</time></trkpt><trkpt lat="45.4465583" lon="7.7054583"><ele>945.0</ele><time>2026-04-25T13:34:58.688Z</time></trkpt><trkpt lat="45.4466067" lon="7.70538"><ele>945.0</ele><time>2026-04-25T13:34:59.688Z</time></trkpt><trkpt lat="45.4466517" lon="7.7053133"><ele>945.0</ele><time>2026-04-25T13:35:00.688Z</time></trkpt><trkpt lat="45.4467533" lon="7.70524"><ele>945.0</ele><time>2026-04-25T13:35:02.688Z</time></trkpt><trkpt lat="45.446835" lon="7.7052417"><ele>945.0</ele><time>2026-04-25T13:35:03.688Z</time></trkpt><trkpt lat="45.446925" lon="7.7052367"><ele>945.0</ele><time>2026-04-25T13:35:04.688Z</time></trkpt><trkpt lat="45.447005" lon="7.70522"><ele>945.0</ele><time>2026-04-25T13:35:05.688Z</time></trkpt><trkpt lat="45.44708" lon="7.7051817"><ele>945.8</ele><time>2026-04-25T13:35:06.688Z</time></trkpt><trkpt lat="45.4471533" lon="7.7051233"><ele>946.6</ele><time>2026-04-25T13:35:07.688Z</time></trkpt><trkpt lat="45.4472167" lon="7.70503"><ele>947.4000000000001</ele><time>2026-04-25T13:35:08.688Z</time></trkpt><trkpt lat="45.4472833" lon="7.7049167"><ele>948.2</ele><time>2026-04-25T13:35:09.688Z</time></trkpt><trkpt lat="45.447345" lon="7.704805"><ele>949.0</ele><time>2026-04-25T13:35:10.688Z</time></trkpt><trkpt lat="45.4473817" lon="7.704705"><ele>948.9999999999999</ele><time>2026-04-25T13:35:11.688Z</time></trkpt><trkpt lat="45.4474267" lon="7.7045567"><ele>949.0</ele><time>2026-04-25T13:35:13.688Z</time></trkpt><trkpt lat="45.4474717" lon="7.7044783"><ele>949.0</ele><time>2026-04-25T13:35:14.688Z</time></trkpt><trkpt lat="45.4475283" lon="7.7044083"><ele>949.0</ele><time>2026-04-25T13:35:15.688Z</time></trkpt><trkpt lat="45.4476167" lon="7.7043617"><ele>948.9999999999999</ele><time>2026-04-25T13:35:16.688Z</time></trkpt><trkpt lat="45.4477017" lon="7.70434"><ele>949.0</ele><time>2026-04-25T13:35:17.688Z</time></trkpt><trkpt lat="45.44778" lon="7.704345"><ele>949.8000000000001</ele><time>2026-04-25T13:35:18.688Z</time></trkpt><trkpt lat="45.4478933" lon="7.7043767"><ele>950.6000000000001</ele><time>2026-04-25T13:35:20.689Z</time></trkpt><trkpt lat="45.4479917" lon="7.70431"><ele>951.4</ele><time>2026-04-25T13:35:22.688Z</time></trkpt><trkpt lat="45.448045" lon="7.7042417"><ele>952.2</ele><time>2026-04-25T13:35:23.688Z</time></trkpt><trkpt lat="45.4480883" lon="7.7041433"><ele>953.0</ele><time>2026-04-25T13:35:24.688Z</time></trkpt><trkpt lat="45.44813" lon="7.7040533"><ele>953.0000000000001</ele><time>2026-04-25T13:35:25.688Z</time></trkpt><trkpt lat="45.4481733" lon="7.703975"><ele>953.0</ele><time>2026-04-25T13:35:26.688Z</time></trkpt><trkpt lat="45.4482467" lon="7.7038633"><ele>953.0</ele><time>2026-04-25T13:35:28.688Z</time></trkpt><trkpt lat="45.4483117" lon="7.7038467"><ele>953.0</ele><time>2026-04-25T13:35:30.688Z</time></trkpt><trkpt lat="45.448385" lon="7.7038467"><ele>953.0000000000001</ele><time>2026-04-25T13:35:32.688Z</time></trkpt><trkpt lat="45.4484617" lon="7.7038867"><ele>953.0</ele><time>2026-04-25T13:35:34.688Z</time></trkpt><trkpt lat="45.4485533" lon="7.7039983"><ele>953.0000000000001</ele><time>2026-04-25T13:35:36.688Z</time></trkpt><trkpt lat="45.4485933" lon="7.70408"><ele>953.0</ele><time>2026-04-25T13:35:37.688Z</time></trkpt><trkpt lat="45.4486367" lon="7.7041817"><ele>953.0</ele><time>2026-04-25T13:35:38.688Z</time></trkpt><trkpt lat="45.4486667" lon="7.7042783"><ele>953.0</ele><time>2026-04-25T13:35:39.688Z</time></trkpt><trkpt lat="45.4487033" lon="7.704355"><ele>953.0000000000001</ele><time>2026-04-25T13:35:40.688Z</time></trkpt><trkpt lat="45.4487733" lon="7.7044933"><ele>953.0</ele><time>2026-04-25T13:35:42.688Z</time></trkpt><trkpt lat="45.4488217" lon="7.7045667"><ele>953.8333333333334</ele><time>2026-04-25T13:35:43.688Z</time></trkpt><trkpt lat="45.44888" lon="7.7046583"><ele>954.6666666666667</ele><time>2026-04-25T13:35:44.688Z</time></trkpt><trkpt lat="45.4489433" lon="7.7047433"><ele>955.5</ele><time>2026-04-25T13:35:45.688Z</time></trkpt><trkpt lat="45.448995" lon="7.70481"><ele>956.3333333333333</ele><time>2026-04-25T13:35:46.688Z</time></trkpt><trkpt lat="45.4490733" lon="7.7049017"><ele>957.1666666666666</ele><time>2026-04-25T13:35:48.688Z</time></trkpt><trkpt lat="45.4491667" lon="7.7049517"><ele>958.0</ele><time>2026-04-25T13:35:50.688Z</time></trkpt><trkpt lat="45.4492717" lon="7.7050383"><ele>958.0</ele><time>2026-04-25T13:35:52.688Z</time></trkpt><trkpt lat="45.4493583" lon="7.70518"><ele>958.0</ele><time>2026-04-25T13:35:54.688Z</time></trkpt><trkpt lat="45.4494083" lon="7.7052667"><ele>958.0</ele><time>2026-04-25T13:35:55.688Z</time></trkpt><trkpt lat="45.44945" lon="7.7053367"><ele>958.0</ele><time>2026-04-25T13:35:56.688Z</time></trkpt><trkpt lat="45.44952" lon="7.7054517"><ele>958.0</ele><time>2026-04-25T13:35:58.688Z</time></trkpt><trkpt lat="45.4496117" lon="7.7055267"><ele>957.2</ele><time>2026-04-25T13:36:00.688Z</time></trkpt><trkpt lat="45.4497217" lon="7.70553"><ele>956.4</ele><time>2026-04-25T13:36:02.688Z</time></trkpt><trkpt lat="45.4498067" lon="7.7055133"><ele>955.6000000000001</ele><time>2026-04-25T13:36:04.688Z</time></trkpt><trkpt lat="45.44989" lon="7.70553"><ele>954.8000000000001</ele><time>2026-04-25T13:36:07.688Z</time></trkpt><trkpt lat="45.4499033" lon="7.705665"><ele>954.0</ele><time>2026-04-25T13:36:10.688Z</time></trkpt><trkpt lat="45.4499433" lon="7.7057967"><ele>954.0</ele><time>2026-04-25T13:36:12.688Z</time></trkpt><trkpt lat="45.44999" lon="7.7058683"><ele>954.0</ele><time>2026-04-25T13:36:13.688Z</time></trkpt><trkpt lat="45.4500383" lon="7.70594"><ele>954.0</ele><time>2026-04-25T13:36:14.688Z</time></trkpt><trkpt lat="45.450085" lon="7.7060133"><ele>954.0</ele><time>2026-04-25T13:36:15.688Z</time></trkpt><trkpt lat="45.4501333" lon="7.70616"><ele>954.0</ele><time>2026-04-25T13:36:17.688Z</time></trkpt><trkpt lat="45.4501433" lon="7.70626"><ele>954.0</ele><time>2026-04-25T13:36:18.688Z</time></trkpt><trkpt lat="45.450155" lon="7.7063583"><ele>954.8333333333334</ele><time>2026-04-25T13:36:19.688Z</time></trkpt><trkpt lat="45.4501883" lon="7.7064383"><ele>955.6666666666667</ele><time>2026-04-25T13:36:20.688Z</time></trkpt><trkpt lat="45.4502283" lon="7.7065167"><ele>956.5</ele><time>2026-04-25T13:36:21.688Z</time></trkpt><trkpt lat="45.4502833" lon="7.7066"><ele>957.3333333333334</ele><time>2026-04-25T13:36:22.688Z</time></trkpt><trkpt lat="45.450345" lon="7.7066833"><ele>958.1666666666667</ele><time>2026-04-25T13:36:23.688Z</time></trkpt><trkpt lat="45.4504117" lon="7.7067467"><ele>959.0</ele><time>2026-04-25T13:36:24.688Z</time></trkpt><trkpt lat="45.45048" lon="7.7067917"><ele>959.0</ele><time>2026-04-25T13:36:25.688Z</time></trkpt><trkpt lat="45.4505467" lon="7.7068117"><ele>959.0000000000001</ele><time>2026-04-25T13:36:26.688Z</time></trkpt><trkpt lat="45.4506167" lon="7.70681"><ele>959.0000000000001</ele><time>2026-04-25T13:36:27.688Z</time></trkpt><trkpt lat="45.4507333" lon="7.7068267"><ele>959.0</ele><time>2026-04-25T13:36:29.688Z</time></trkpt><trkpt lat="45.4508467" lon="7.70691"><ele>959.0</ele><time>2026-04-25T13:36:31.688Z</time></trkpt><trkpt lat="45.450905" lon="7.7069633"><ele>959.8333333333334</ele><time>2026-04-25T13:36:32.688Z</time></trkpt><trkpt lat="45.4509817" lon="7.707035"><ele>960.6666666666667</ele><time>2026-04-25T13:36:33.689Z</time></trkpt><trkpt lat="45.451055" lon="7.707115"><ele>961.5</ele><time>2026-04-25T13:36:34.688Z</time></trkpt><trkpt lat="45.4511283" lon="7.70719"><ele>962.3333333333333</ele><time>2026-04-25T13:36:35.688Z</time></trkpt><trkpt lat="45.4511967" lon="7.70726"><ele>963.1666666666666</ele><time>2026-04-25T13:36:36.688Z</time></trkpt><trkpt lat="45.45125" lon="7.7073217"><ele>964.0</ele><time>2026-04-25T13:36:37.688Z</time></trkpt><trkpt lat="45.451305" lon="7.7073967"><ele>963.9999999999999</ele><time>2026-04-25T13:36:38.688Z</time></trkpt><trkpt lat="45.4513383" lon="7.7074983"><ele>964.0</ele><time>2026-04-25T13:36:39.688Z</time></trkpt><trkpt lat="45.4513783" lon="7.7076083"><ele>964.0</ele><time>2026-04-25T13:36:40.688Z</time></trkpt><trkpt lat="45.4514267" lon="7.707715"><ele>964.0</ele><time>2026-04-25T13:36:41.688Z</time></trkpt><trkpt lat="45.45148" lon="7.7077883"><ele>963.9999999999999</ele><time>2026-04-25T13:36:42.688Z</time></trkpt><trkpt lat="45.451535" lon="7.7078517"><ele>964.0</ele><time>2026-04-25T13:36:43.688Z</time></trkpt><trkpt lat="45.451605" lon="7.707905"><ele>961.1666666666666</ele><time>2026-04-25T13:36:44.688Z</time></trkpt><trkpt lat="45.45169" lon="7.7079483"><ele>958.3333333333333</ele><time>2026-04-25T13:36:45.688Z</time></trkpt><trkpt lat="45.45177" lon="7.7079717"><ele>955.5</ele><time>2026-04-25T13:36:46.688Z</time></trkpt><trkpt lat="45.4518467" lon="7.70797"><ele>952.6666666666667</ele><time>2026-04-25T13:36:47.689Z</time></trkpt><trkpt lat="45.4519317" lon="7.7079483"><ele>949.8333333333334</ele><time>2026-04-25T13:36:48.688Z</time></trkpt><trkpt lat="45.4520117" lon="7.707915"><ele>947.0</ele><time>2026-04-25T13:36:49.688Z</time></trkpt><trkpt lat="45.452085" lon="7.7079"><ele>947.8571428571428</ele><time>2026-04-25T13:36:50.688Z</time></trkpt><trkpt lat="45.4521467" lon="7.7078783"><ele>948.7142857142856</ele><time>2026-04-25T13:36:51.688Z</time></trkpt><trkpt lat="45.45221" lon="7.7078567"><ele>949.5714285714286</ele><time>2026-04-25T13:36:52.689Z</time></trkpt><trkpt lat="45.45229" lon="7.7078767"><ele>950.4285714285713</ele><time>2026-04-25T13:36:54.688Z</time></trkpt><trkpt lat="45.4523483" lon="7.707955"><ele>951.2857142857142</ele><time>2026-04-25T13:36:56.688Z</time></trkpt><trkpt lat="45.4523633" lon="7.708055"><ele>952.1428571428571</ele><time>2026-04-25T13:36:57.688Z</time></trkpt><trkpt lat="45.4523733" lon="7.7081567"><ele>953.0</ele><time>2026-04-25T13:36:58.688Z</time></trkpt><trkpt lat="45.4523917" lon="7.7082517"><ele>953.0</ele><time>2026-04-25T13:36:59.688Z</time></trkpt><trkpt lat="45.4524867" lon="7.7083533"><ele>953.0</ele><time>2026-04-25T13:37:01.688Z</time></trkpt><trkpt lat="45.4526217" lon="7.7083467"><ele>953.0</ele><time>2026-04-25T13:37:03.688Z</time></trkpt><trkpt lat="45.4526917" lon="7.7083167"><ele>953.0</ele><time>2026-04-25T13:37:04.688Z</time></trkpt><trkpt lat="45.4527717" lon="7.7082717"><ele>953.0</ele><time>2026-04-25T13:37:05.688Z</time></trkpt><trkpt lat="45.4528583" lon="7.7082083"><ele>953.0000000000001</ele><time>2026-04-25T13:37:06.688Z</time></trkpt><trkpt lat="45.4529317" lon="7.7081633"><ele>953.0</ele><time>2026-04-25T13:37:07.688Z</time></trkpt><trkpt lat="45.452995" lon="7.7081433"><ele>953.0</ele><time>2026-04-25T13:37:08.688Z</time></trkpt><trkpt lat="45.4531067" lon="7.7081667"><ele>953.0</ele><time>2026-04-25T13:37:10.688Z</time></trkpt><trkpt lat="45.4531567" lon="7.708225"><ele>953.0000000000001</ele><time>2026-04-25T13:37:11.688Z</time></trkpt><trkpt lat="45.453205" lon="7.70833"><ele>953.0</ele><time>2026-04-25T13:37:12.688Z</time></trkpt><trkpt lat="45.4532633" lon="7.7084817"><ele>952.75</ele><time>2026-04-25T13:37:13.688Z</time></trkpt><trkpt lat="45.45332" lon="7.70865"><ele>952.5</ele><time>2026-04-25T13:37:14.688Z</time></trkpt><trkpt lat="45.4533583" lon="7.7088"><ele>952.25</ele><time>2026-04-25T13:37:15.688Z</time></trkpt><trkpt lat="45.453405" lon="7.70895"><ele>952.0</ele><time>2026-04-25T13:37:16.688Z</time></trkpt><trkpt lat="45.45345" lon="7.7090883"><ele>951.9999999999999</ele><time>2026-04-25T13:37:17.688Z</time></trkpt><trkpt lat="45.4534933" lon="7.7092117"><ele>952.0</ele><time>2026-04-25T13:37:18.688Z</time></trkpt><trkpt lat="45.453535" lon="7.70934"><ele>952.0</ele><time>2026-04-25T13:37:19.689Z</time></trkpt><trkpt lat="45.45357" lon="7.7094617"><ele>952.0</ele><time>2026-04-25T13:37:20.688Z</time></trkpt><trkpt lat="45.4536033" lon="7.7095767"><ele>951.9999999999999</ele><time>2026-04-25T13:37:21.688Z</time></trkpt><trkpt lat="45.4536367" lon="7.70967"><ele>952.0</ele><time>2026-04-25T13:37:22.688Z</time></trkpt><trkpt lat="45.4536833" lon="7.7097533"><ele>951.8571428571429</ele><time>2026-04-25T13:37:23.688Z</time></trkpt><trkpt lat="45.4537233" lon="7.70983"><ele>951.7142857142858</ele><time>2026-04-25T13:37:24.688Z</time></trkpt><trkpt lat="45.45378" lon="7.709885"><ele>951.5714285714286</ele><time>2026-04-25T13:37:25.688Z</time></trkpt><trkpt lat="45.4538383" lon="7.709935"><ele>951.4285714285714</ele><time>2026-04-25T13:37:26.688Z</time></trkpt><trkpt lat="45.4539033" lon="7.7099833"><ele>951.2857142857143</ele><time>2026-04-25T13:37:27.688Z</time></trkpt><trkpt lat="45.4539717" lon="7.7100483"><ele>951.1428571428571</ele><time>2026-04-25T13:37:28.688Z</time></trkpt><trkpt lat="45.4540417" lon="7.7101283"><ele>951.0</ele><time>2026-04-25T13:37:29.688Z</time></trkpt><trkpt lat="45.454095" lon="7.7102417"><ele>951.0</ele><time>2026-04-25T13:37:30.688Z</time></trkpt><trkpt lat="45.4541417" lon="7.7103717"><ele>950.9999999999999</ele><time>2026-04-25T13:37:31.688Z</time></trkpt><trkpt lat="45.4541867" lon="7.7104883"><ele>950.9999999999999</ele><time>2026-04-25T13:37:32.688Z</time></trkpt><trkpt lat="45.45423" lon="7.7106033"><ele>951.0</ele><time>2026-04-25T13:37:33.688Z</time></trkpt><trkpt lat="45.45427" lon="7.71068"><ele>951.0</ele><time>2026-04-25T13:37:34.688Z</time></trkpt><trkpt lat="45.4543117" lon="7.7108033"><ele>951.0</ele><time>2026-04-25T13:37:36.688Z</time></trkpt><trkpt lat="45.4542933" lon="7.7109483"><ele>951.0</ele><time>2026-04-25T13:37:39.688Z</time></trkpt><trkpt lat="45.45429" lon="7.711105"><ele>951.0</ele><time>2026-04-25T13:37:41.688Z</time></trkpt><trkpt lat="45.45433" lon="7.7112583"><ele>951.0</ele><time>2026-04-25T13:37:43.688Z</time></trkpt><trkpt lat="45.4544183" lon="7.71138"><ele>950.1666666666666</ele><time>2026-04-25T13:37:45.688Z</time></trkpt><trkpt lat="45.4545233" lon="7.71143"><ele>949.3333333333333</ele><time>2026-04-25T13:37:47.688Z</time></trkpt><trkpt lat="45.4546333" lon="7.711435"><ele>948.5</ele><time>2026-04-25T13:37:49.688Z</time></trkpt><trkpt lat="45.4547217" lon="7.7114083"><ele>947.6666666666666</ele><time>2026-04-25T13:37:51.688Z</time></trkpt><trkpt lat="45.4547817" lon="7.7113767"><ele>946.8333333333333</ele><time>2026-04-25T13:37:53.688Z</time></trkpt><trkpt lat="45.454835" lon="7.7113217"><ele>946.0</ele><time>2026-04-25T13:37:55.688Z</time></trkpt><trkpt lat="45.4548983" lon="7.711245"><ele>948.0</ele><time>2026-04-25T13:37:57.688Z</time></trkpt><trkpt lat="45.454965" lon="7.7112217"><ele>949.9999999999999</ele><time>2026-04-25T13:37:59.688Z</time></trkpt><trkpt lat="45.45504" lon="7.7112367"><ele>951.9999999999999</ele><time>2026-04-25T13:38:01.688Z</time></trkpt><trkpt lat="45.4551317" lon="7.71129"><ele>954.0</ele><time>2026-04-25T13:38:03.688Z</time></trkpt><trkpt lat="45.4552317" lon="7.7113833"><ele>956.0</ele><time>2026-04-25T13:38:05.688Z</time></trkpt><trkpt lat="45.4552967" lon="7.7114683"><ele>956.0</ele><time>2026-04-25T13:38:07.689Z</time></trkpt><trkpt lat="45.4553317" lon="7.7115817"><ele>955.9999999999999</ele><time>2026-04-25T13:38:10.688Z</time></trkpt><trkpt lat="45.455375" lon="7.71166"><ele>955.9999999999999</ele><time>2026-04-25T13:38:13.688Z</time></trkpt><trkpt lat="45.45548" lon="7.7117517"><ele>956.0</ele><time>2026-04-25T13:38:22.688Z</time></trkpt><trkpt lat="45.4555717" lon="7.711815"><ele>956.0</ele><time>2026-04-25T13:38:25.687Z</time></trkpt><trkpt lat="45.4556617" lon="7.7118417"><ele>955.8333333333334</ele><time>2026-04-25T13:38:27.687Z</time></trkpt><trkpt lat="45.455735" lon="7.7118467"><ele>955.6666666666667</ele><time>2026-04-25T13:38:29.687Z</time></trkpt><trkpt lat="45.4558283" lon="7.711865"><ele>955.5</ele><time>2026-04-25T13:38:33.687Z</time></trkpt><trkpt lat="45.4558983" lon="7.7118267"><ele>955.3333333333333</ele><time>2026-04-25T13:38:56.687Z</time></trkpt><trkpt lat="45.4559617" lon="7.7118217"><ele>955.1666666666666</ele><time>2026-04-25T13:39:07.687Z</time></trkpt><trkpt lat="45.4560133" lon="7.71192"><ele>955.0</ele><time>2026-04-25T13:39:10.687Z</time></trkpt><trkpt lat="45.4560183" lon="7.7120433"><ele>953.6666666666666</ele><time>2026-04-25T13:39:13.687Z</time></trkpt><trkpt lat="45.4559617" lon="7.71213"><ele>952.3333333333333</ele><time>2026-04-25T13:39:17.687Z</time></trkpt><trkpt lat="45.4559" lon="7.7121633"><ele>951.0</ele><time>2026-04-25T13:39:20.687Z</time></trkpt><trkpt lat="45.455845" lon="7.71221"><ele>949.6666666666667</ele><time>2026-04-25T13:39:23.687Z</time></trkpt><trkpt lat="45.45581" lon="7.7122967"><ele>948.3333333333334</ele><time>2026-04-25T13:39:26.687Z</time></trkpt><trkpt lat="45.4557917" lon="7.7124067"><ele>947.0</ele><time>2026-04-25T13:39:29.687Z</time></trkpt><trkpt lat="45.455775" lon="7.7125517"><ele>947.0</ele><time>2026-04-25T13:39:31.687Z</time></trkpt><trkpt lat="45.45576" lon="7.71267"><ele>947.0</ele><time>2026-04-25T13:39:32.687Z</time></trkpt><trkpt lat="45.455735" lon="7.7128033"><ele>947.0</ele><time>2026-04-25T13:39:33.687Z</time></trkpt><trkpt lat="45.455715" lon="7.7129533"><ele>947.0</ele><time>2026-04-25T13:39:34.687Z</time></trkpt><trkpt lat="45.4557067" lon="7.7131117"><ele>947.0</ele><time>2026-04-25T13:39:35.687Z</time></trkpt><trkpt lat="45.4557067" lon="7.7132733"><ele>946.2</ele><time>2026-04-25T13:39:36.687Z</time></trkpt><trkpt lat="45.4557183" lon="7.7134283"><ele>945.4000000000001</ele><time>2026-04-25T13:39:37.687Z</time></trkpt><trkpt lat="45.4557417" lon="7.71356"><ele>944.5999999999999</ele><time>2026-04-25T13:39:38.687Z</time></trkpt><trkpt lat="45.4557883" lon="7.7136917"><ele>943.8</ele><time>2026-04-25T13:39:39.687Z</time></trkpt><trkpt lat="45.4558533" lon="7.713815"><ele>943.0</ele><time>2026-04-25T13:39:40.687Z</time></trkpt><trkpt lat="45.4559167" lon="7.713925"><ele>942.6666666666666</ele><time>2026-04-25T13:39:41.687Z</time></trkpt><trkpt lat="45.4559717" lon="7.714025"><ele>942.3333333333333</ele><time>2026-04-25T13:39:42.687Z</time></trkpt><trkpt lat="45.4560133" lon="7.7141233"><ele>942.0</ele><time>2026-04-25T13:39:43.687Z</time></trkpt><trkpt lat="45.4560517" lon="7.714235"><ele>941.6666666666667</ele><time>2026-04-25T13:39:44.687Z</time></trkpt><trkpt lat="45.4560967" lon="7.7143417"><ele>941.3333333333334</ele><time>2026-04-25T13:39:45.687Z</time></trkpt><trkpt lat="45.45614" lon="7.7144417"><ele>941.0</ele><time>2026-04-25T13:39:46.687Z</time></trkpt><trkpt lat="45.45619" lon="7.7145367"><ele>940.0</ele><time>2026-04-25T13:39:47.687Z</time></trkpt><trkpt lat="45.4562333" lon="7.71462"><ele>938.9999999999999</ele><time>2026-04-25T13:39:48.687Z</time></trkpt><trkpt lat="45.4562783" lon="7.7146933"><ele>937.9999999999999</ele><time>2026-04-25T13:39:49.687Z</time></trkpt><trkpt lat="45.4563717" lon="7.7147433"><ele>937.0</ele><time>2026-04-25T13:39:51.687Z</time></trkpt><trkpt lat="45.45648" lon="7.7146933"><ele>936.0</ele><time>2026-04-25T13:39:53.687Z</time></trkpt><trkpt lat="45.4565733" lon="7.7146467"><ele>935.6666666666666</ele><time>2026-04-25T13:39:55.687Z</time></trkpt><trkpt lat="45.456675" lon="7.71463"><ele>935.3333333333333</ele><time>2026-04-25T13:39:57.687Z</time></trkpt><trkpt lat="45.4567583" lon="7.7145967"><ele>935.0</ele><time>2026-04-25T13:39:59.687Z</time></trkpt><trkpt lat="45.4568283" lon="7.71453"><ele>934.6666666666666</ele><time>2026-04-25T13:40:01.687Z</time></trkpt><trkpt lat="45.4569017" lon="7.7144933"><ele>934.3333333333333</ele><time>2026-04-25T13:40:03.687Z</time></trkpt><trkpt lat="45.4569633" lon="7.7145317"><ele>934.0</ele><time>2026-04-25T13:40:07.687Z</time></trkpt><trkpt lat="45.4570217" lon="7.714595"><ele>934.0</ele><time>2026-04-25T13:40:47.687Z</time></trkpt><trkpt lat="45.4570883" lon="7.7146767"><ele>934.0000000000001</ele><time>2026-04-25T13:40:50.687Z</time></trkpt><trkpt lat="45.4571433" lon="7.714735"><ele>934.0000000000001</ele><time>2026-04-25T13:40:52.687Z</time></trkpt><trkpt lat="45.4572217" lon="7.714805"><ele>934.0</ele><time>2026-04-25T13:40:54.687Z</time></trkpt><trkpt lat="45.457325" lon="7.714875"><ele>934.0</ele><time>2026-04-25T13:40:56.687Z</time></trkpt><trkpt lat="45.45739" lon="7.7149633"><ele>931.8000000000001</ele><time>2026-04-25T13:40:58.687Z</time></trkpt><trkpt lat="45.4574383" lon="7.7150833"><ele>929.6000000000001</ele><time>2026-04-25T13:41:00.687Z</time></trkpt><trkpt lat="45.4574933" lon="7.7152083"><ele>927.4</ele><time>2026-04-25T13:41:02.687Z</time></trkpt><trkpt lat="45.4575617" lon="7.7152367"><ele>925.2</ele><time>2026-04-25T13:41:04.687Z</time></trkpt><trkpt lat="45.457705" lon="7.7152"><ele>923.0</ele><time>2026-04-25T13:41:06.687Z</time></trkpt><trkpt lat="45.4578033" lon="7.7151917"><ele>923.0000000000001</ele><time>2026-04-25T13:41:07.687Z</time></trkpt><trkpt lat="45.4579033" lon="7.71519"><ele>923.0</ele><time>2026-04-25T13:41:08.687Z</time></trkpt><trkpt lat="45.4579883" lon="7.715205"><ele>923.0</ele><time>2026-04-25T13:41:09.687Z</time></trkpt><trkpt lat="45.4580667" lon="7.7152383"><ele>923.0</ele><time>2026-04-25T13:41:10.687Z</time></trkpt><trkpt lat="45.458135" lon="7.7152867"><ele>923.0000000000001</ele><time>2026-04-25T13:41:11.687Z</time></trkpt><trkpt lat="45.4581917" lon="7.7153617"><ele>923.0</ele><time>2026-04-25T13:41:12.687Z</time></trkpt><trkpt lat="45.45823" lon="7.7154767"><ele>921.0</ele><time>2026-04-25T13:41:13.687Z</time></trkpt><trkpt lat="45.4582467" lon="7.7155983"><ele>919.0</ele><time>2026-04-25T13:41:14.688Z</time></trkpt><trkpt lat="45.458255" lon="7.715715"><ele>917.0</ele><time>2026-04-25T13:41:15.687Z</time></trkpt><trkpt lat="45.4582283" lon="7.7158267"><ele>915.0</ele><time>2026-04-25T13:41:16.687Z</time></trkpt><trkpt lat="45.4581883" lon="7.7159633"><ele>913.0</ele><time>2026-04-25T13:41:17.687Z</time></trkpt><trkpt lat="45.458145" lon="7.7161117"><ele>911.75</ele><time>2026-04-25T13:41:18.688Z</time></trkpt><trkpt lat="45.458105" lon="7.7162817"><ele>910.5</ele><time>2026-04-25T13:41:19.687Z</time></trkpt><trkpt lat="45.4580717" lon="7.7164467"><ele>909.25</ele><time>2026-04-25T13:41:20.687Z</time></trkpt><trkpt lat="45.4580433" lon="7.7165917"><ele>908.0</ele><time>2026-04-25T13:41:21.688Z</time></trkpt><trkpt lat="45.458025" lon="7.7167367"><ele>908.0</ele><time>2026-04-25T13:41:22.687Z</time></trkpt><trkpt lat="45.4580267" lon="7.7168617"><ele>908.0</ele><time>2026-04-25T13:41:23.687Z</time></trkpt><trkpt lat="45.45805" lon="7.71698"><ele>908.0</ele><time>2026-04-25T13:41:24.687Z</time></trkpt><trkpt lat="45.458105" lon="7.7170983"><ele>908.0</ele><time>2026-04-25T13:41:25.687Z</time></trkpt><trkpt lat="45.45817" lon="7.7172083"><ele>908.0</ele><time>2026-04-25T13:41:26.687Z</time></trkpt><trkpt lat="45.4582317" lon="7.7173"><ele>907.6666666666667</ele><time>2026-04-25T13:41:27.687Z</time></trkpt><trkpt lat="45.4582617" lon="7.7173867"><ele>907.3333333333334</ele><time>2026-04-25T13:41:28.687Z</time></trkpt><trkpt lat="45.4582683" lon="7.7174767"><ele>907.0</ele><time>2026-04-25T13:41:29.687Z</time></trkpt><trkpt lat="45.4582583" lon="7.71759"><ele>906.6666666666667</ele><time>2026-04-25T13:41:30.687Z</time></trkpt><trkpt lat="45.4582333" lon="7.7177267"><ele>906.3333333333334</ele><time>2026-04-25T13:41:31.687Z</time></trkpt><trkpt lat="45.4581967" lon="7.7178683"><ele>906.0</ele><time>2026-04-25T13:41:32.687Z</time></trkpt><trkpt lat="45.458145" lon="7.7180067"><ele>904.1999999999999</ele><time>2026-04-25T13:41:33.687Z</time></trkpt><trkpt lat="45.4580983" lon="7.71813"><ele>902.3999999999999</ele><time>2026-04-25T13:41:34.687Z</time></trkpt><trkpt lat="45.45804" lon="7.7182417"><ele>900.6</ele><time>2026-04-25T13:41:35.687Z</time></trkpt><trkpt lat="45.4579883" lon="7.7183617"><ele>898.8</ele><time>2026-04-25T13:41:36.687Z</time></trkpt><trkpt lat="45.4579417" lon="7.7184667"><ele>897.0</ele><time>2026-04-25T13:41:37.687Z</time></trkpt><trkpt lat="45.4578933" lon="7.7185567"><ele>897.2857142857143</ele><time>2026-04-25T13:41:38.687Z</time></trkpt><trkpt lat="45.457835" lon="7.7186317"><ele>897.5714285714284</ele><time>2026-04-25T13:41:39.687Z</time></trkpt><trkpt lat="45.4577833" lon="7.7186917"><ele>897.8571428571428</ele><time>2026-04-25T13:41:40.687Z</time></trkpt><trkpt lat="45.45772" lon="7.7187367"><ele>898.1428571428571</ele><time>2026-04-25T13:41:41.687Z</time></trkpt><trkpt lat="45.4576533" lon="7.7187633"><ele>898.4285714285713</ele><time>2026-04-25T13:41:42.687Z</time></trkpt><trkpt lat="45.457575" lon="7.7187617"><ele>898.7142857142856</ele><time>2026-04-25T13:41:43.687Z</time></trkpt><trkpt lat="45.4574933" lon="7.7187533"><ele>898.9999999999999</ele><time>2026-04-25T13:41:44.687Z</time></trkpt><trkpt lat="45.4574083" lon="7.7187117"><ele>899.0000000000001</ele><time>2026-04-25T13:41:45.687Z</time></trkpt><trkpt lat="45.45733" lon="7.718685"><ele>899.0</ele><time>2026-04-25T13:41:46.687Z</time></trkpt><trkpt lat="45.4572583" lon="7.7186867"><ele>899.0</ele><time>2026-04-25T13:41:47.687Z</time></trkpt><trkpt lat="45.45719" lon="7.7187283"><ele>899.0</ele><time>2026-04-25T13:41:48.687Z</time></trkpt><trkpt lat="45.457125" lon="7.7188167"><ele>899.0000000000001</ele><time>2026-04-25T13:41:49.687Z</time></trkpt><trkpt lat="45.45706" lon="7.7189367"><ele>899.0</ele><time>2026-04-25T13:41:50.687Z</time></trkpt><trkpt lat="45.4569883" lon="7.7190683"><ele>901.25</ele><time>2026-04-25T13:41:51.687Z</time></trkpt><trkpt lat="45.4569133" lon="7.719185"><ele>903.5</ele><time>2026-04-25T13:41:52.687Z</time></trkpt><trkpt lat="45.456835" lon="7.7192933"><ele>905.75</ele><time>2026-04-25T13:41:53.687Z</time></trkpt><trkpt lat="45.45677" lon="7.71942"><ele>908.0</ele><time>2026-04-25T13:41:54.687Z</time></trkpt><trkpt lat="45.4567133" lon="7.71957"><ele>908.0</ele><time>2026-04-25T13:41:55.688Z</time></trkpt><trkpt lat="45.45666" lon="7.7197183"><ele>908.0</ele><time>2026-04-25T13:41:56.687Z</time></trkpt><trkpt lat="45.4566167" lon="7.7198383"><ele>908.0</ele><time>2026-04-25T13:41:57.687Z</time></trkpt><trkpt lat="45.4565717" lon="7.719945"><ele>908.0</ele><time>2026-04-25T13:41:58.687Z</time></trkpt><trkpt lat="45.4565233" lon="7.7200683"><ele>908.0</ele><time>2026-04-25T13:41:59.687Z</time></trkpt><trkpt lat="45.4564733" lon="7.7201867"><ele>906.2</ele><time>2026-04-25T13:42:00.687Z</time></trkpt><trkpt lat="45.4564117" lon="7.7203033"><ele>904.4</ele><time>2026-04-25T13:42:01.687Z</time></trkpt><trkpt lat="45.4563383" lon="7.7204017"><ele>902.6000000000001</ele><time>2026-04-25T13:42:02.687Z</time></trkpt><trkpt lat="45.4562467" lon="7.720475"><ele>900.8000000000001</ele><time>2026-04-25T13:42:03.687Z</time></trkpt><trkpt lat="45.456135" lon="7.7205383"><ele>899.0</ele><time>2026-04-25T13:42:04.687Z</time></trkpt><trkpt lat="45.4560233" lon="7.7205783"><ele>899.0</ele><time>2026-04-25T13:42:05.687Z</time></trkpt><trkpt lat="45.4559" lon="7.7205883"><ele>899.0</ele><time>2026-04-25T13:42:06.687Z</time></trkpt><trkpt lat="45.4557883" lon="7.720615"><ele>899.0</ele><time>2026-04-25T13:42:07.687Z</time></trkpt><trkpt lat="45.455675" lon="7.72067"><ele>899.0</ele><time>2026-04-25T13:42:08.687Z</time></trkpt><trkpt lat="45.4555633" lon="7.7207183"><ele>899.0</ele><time>2026-04-25T13:42:09.687Z</time></trkpt><trkpt lat="45.4554667" lon="7.7207683"><ele>899.0000000000001</ele><time>2026-04-25T13:42:10.687Z</time></trkpt><trkpt lat="45.45537" lon="7.7207967"><ele>899.0000000000001</ele><time>2026-04-25T13:42:11.687Z</time></trkpt><trkpt lat="45.4552617" lon="7.72082"><ele>899.0</ele><time>2026-04-25T13:42:12.687Z</time></trkpt><trkpt lat="45.4551483" lon="7.720835"><ele>899.0</ele><time>2026-04-25T13:42:13.687Z</time></trkpt><trkpt lat="45.4550367" lon="7.72086"><ele>900.2</ele><time>2026-04-25T13:42:14.687Z</time></trkpt><trkpt lat="45.4549317" lon="7.72088"><ele>901.4000000000001</ele><time>2026-04-25T13:42:15.687Z</time></trkpt><trkpt lat="45.4548267" lon="7.7208883"><ele>902.6</ele><time>2026-04-25T13:42:16.687Z</time></trkpt><trkpt lat="45.4547183" lon="7.720885"><ele>903.8</ele><time>2026-04-25T13:42:17.687Z</time></trkpt><trkpt lat="45.45462" lon="7.720875"><ele>905.0</ele><time>2026-04-25T13:42:18.687Z</time></trkpt><trkpt lat="45.4545367" lon="7.72085"><ele>902.5000000000001</ele><time>2026-04-25T13:42:19.687Z</time></trkpt><trkpt lat="45.45446" lon="7.7208167"><ele>900.0</ele><time>2026-04-25T13:42:20.687Z</time></trkpt><trkpt lat="45.4543967" lon="7.7207883"><ele>897.5</ele><time>2026-04-25T13:42:21.687Z</time></trkpt><trkpt lat="45.45431" lon="7.7206983"><ele>895.0</ele><time>2026-04-25T13:42:23.687Z</time></trkpt><trkpt lat="45.4542767" lon="7.7205983"><ele>892.5000000000001</ele><time>2026-04-25T13:42:24.687Z</time></trkpt><trkpt lat="45.45426" lon="7.7204817"><ele>890.0</ele><time>2026-04-25T13:42:25.687Z</time></trkpt><trkpt lat="45.4542483" lon="7.7203617"><ele>890.0000000000001</ele><time>2026-04-25T13:42:26.687Z</time></trkpt><trkpt lat="45.4542233" lon="7.720265"><ele>890.0</ele><time>2026-04-25T13:42:27.687Z</time></trkpt><trkpt lat="45.4541433" lon="7.7201667"><ele>890.0</ele><time>2026-04-25T13:42:29.687Z</time></trkpt><trkpt lat="45.4540683" lon="7.720145"><ele>890.0</ele><time>2026-04-25T13:42:30.687Z</time></trkpt><trkpt lat="45.4539817" lon="7.720125"><ele>890.0000000000001</ele><time>2026-04-25T13:42:31.687Z</time></trkpt><trkpt lat="45.45389" lon="7.7201017"><ele>890.0</ele><time>2026-04-25T13:42:32.687Z</time></trkpt><trkpt lat="45.4537983" lon="7.7200733"><ele>889.8</ele><time>2026-04-25T13:42:33.687Z</time></trkpt><trkpt lat="45.4537033" lon="7.7200183"><ele>889.6</ele><time>2026-04-25T13:42:34.687Z</time></trkpt><trkpt lat="45.4536233" lon="7.7199733"><ele>889.4000000000001</ele><time>2026-04-25T13:42:35.687Z</time></trkpt><trkpt lat="45.45355" lon="7.71993"><ele>889.2</ele><time>2026-04-25T13:42:36.687Z</time></trkpt><trkpt lat="45.4534517" lon="7.7198783"><ele>889.0</ele><time>2026-04-25T13:42:38.687Z</time></trkpt><trkpt lat="45.4533717" lon="7.7198467"><ele>888.9999999999999</ele><time>2026-04-25T13:42:40.687Z</time></trkpt><trkpt lat="45.4533067" lon="7.7198817"><ele>889.0</ele><time>2026-04-25T13:42:42.687Z</time></trkpt><trkpt lat="45.4532783" lon="7.7199833"><ele>889.0</ele><time>2026-04-25T13:42:44.687Z</time></trkpt><trkpt lat="45.4533167" lon="7.7201417"><ele>889.0</ele><time>2026-04-25T13:42:46.687Z</time></trkpt><trkpt lat="45.4533633" lon="7.720215"><ele>888.9999999999999</ele><time>2026-04-25T13:42:47.687Z</time></trkpt><trkpt lat="45.453415" lon="7.7202917"><ele>889.0</ele><time>2026-04-25T13:42:48.687Z</time></trkpt><trkpt lat="45.45347" lon="7.720375"><ele>885.0</ele><time>2026-04-25T13:42:49.687Z</time></trkpt><trkpt lat="45.45352" lon="7.7204533"><ele>881.0000000000001</ele><time>2026-04-25T13:42:50.687Z</time></trkpt><trkpt lat="45.453605" lon="7.7205783"><ele>877.0000000000001</ele><time>2026-04-25T13:42:52.687Z</time></trkpt><trkpt lat="45.4536783" lon="7.7206967"><ele>873.0</ele><time>2026-04-25T13:42:54.687Z</time></trkpt><trkpt lat="45.453665" lon="7.7208017"><ele>869.0</ele><time>2026-04-25T13:42:56.687Z</time></trkpt><trkpt lat="45.453585" lon="7.72096"><ele>869.0</ele><time>2026-04-25T13:42:58.687Z</time></trkpt><trkpt lat="45.453525" lon="7.7210467"><ele>869.0000000000001</ele><time>2026-04-25T13:42:59.687Z</time></trkpt><trkpt lat="45.4534683" lon="7.7211533"><ele>869.0000000000001</ele><time>2026-04-25T13:43:00.687Z</time></trkpt><trkpt lat="45.453405" lon="7.72125"><ele>869.0</ele><time>2026-04-25T13:43:01.687Z</time></trkpt><trkpt lat="45.453345" lon="7.72134"><ele>869.0</ele><time>2026-04-25T13:43:02.687Z</time></trkpt><trkpt lat="45.45328" lon="7.72144"><ele>868.8333333333334</ele><time>2026-04-25T13:43:03.687Z</time></trkpt><trkpt lat="45.45322" lon="7.72154"><ele>868.6666666666667</ele><time>2026-04-25T13:43:04.687Z</time></trkpt><trkpt lat="45.4531617" lon="7.72164"><ele>868.5</ele><time>2026-04-25T13:43:05.687Z</time></trkpt><trkpt lat="45.4531033" lon="7.72173"><ele>868.3333333333333</ele><time>2026-04-25T13:43:06.687Z</time></trkpt><trkpt lat="45.4530517" lon="7.7218267"><ele>868.1666666666666</ele><time>2026-04-25T13:43:07.687Z</time></trkpt><trkpt lat="45.4530167" lon="7.7219183"><ele>868.0</ele><time>2026-04-25T13:43:08.687Z</time></trkpt><trkpt lat="45.4529533" lon="7.7220533"><ele>862.5999999999999</ele><time>2026-04-25T13:43:10.687Z</time></trkpt><trkpt lat="45.452865" lon="7.7221417"><ele>857.1999999999999</ele><time>2026-04-25T13:43:12.688Z</time></trkpt><trkpt lat="45.4527933" lon="7.722155"><ele>851.8</ele><time>2026-04-25T13:43:14.687Z</time></trkpt><trkpt lat="45.4526917" lon="7.7220083"><ele>846.4</ele><time>2026-04-25T13:46:04.686Z</time></trkpt><trkpt lat="45.4526367" lon="7.722095"><ele>841.0</ele><time>2026-04-25T13:46:09.686Z</time></trkpt><trkpt lat="45.4525583" lon="7.7221017"><ele>840.9999999999999</ele><time>2026-04-25T13:46:13.686Z</time></trkpt><trkpt lat="45.4525367" lon="7.721995"><ele>841.0</ele><time>2026-04-25T13:46:16.686Z</time></trkpt><trkpt lat="45.4524967" lon="7.7219067"><ele>841.0</ele><time>2026-04-25T13:50:04.686Z</time></trkpt><trkpt lat="45.4524467" lon="7.7220067"><ele>841.0</ele><time>2026-04-25T13:50:06.686Z</time></trkpt><trkpt lat="45.4524033" lon="7.7220833"><ele>840.9999999999999</ele><time>2026-04-25T13:50:07.686Z</time></trkpt><trkpt lat="45.45236" lon="7.72218"><ele>841.0</ele><time>2026-04-25T13:50:08.686Z</time></trkpt><trkpt lat="45.45232" lon="7.7222733"><ele>840.9999999999999</ele><time>2026-04-25T13:50:09.686Z</time></trkpt><trkpt lat="45.45228" lon="7.7223783"><ele>841.0</ele><time>2026-04-25T13:50:10.686Z</time></trkpt><trkpt lat="45.45224" lon="7.72248"><ele>841.0</ele><time>2026-04-25T13:50:11.686Z</time></trkpt><trkpt lat="45.45222" lon="7.72257"><ele>841.0</ele><time>2026-04-25T13:50:12.686Z</time></trkpt><trkpt lat="45.4522317" lon="7.7226667"><ele>840.9999999999999</ele><time>2026-04-25T13:50:13.686Z</time></trkpt><trkpt lat="45.45228" lon="7.7227883"><ele>841.0</ele><time>2026-04-25T13:50:15.686Z</time></trkpt><trkpt lat="45.4523733" lon="7.7228733"><ele>838.4999999999999</ele><time>2026-04-25T13:50:17.686Z</time></trkpt><trkpt lat="45.4524117" lon="7.72295"><ele>836.0</ele><time>2026-04-25T13:50:18.686Z</time></trkpt><trkpt lat="45.4524333" lon="7.7230483"><ele>833.5</ele><time>2026-04-25T13:50:19.686Z</time></trkpt><trkpt lat="45.4524433" lon="7.7231633"><ele>831.0</ele><time>2026-04-25T13:50:20.686Z</time></trkpt><trkpt lat="45.45245" lon="7.7232783"><ele>828.4999999999999</ele><time>2026-04-25T13:50:21.686Z</time></trkpt><trkpt lat="45.452455" lon="7.723415"><ele>826.0</ele><time>2026-04-25T13:50:22.686Z</time></trkpt><trkpt lat="45.4524817" lon="7.723565"><ele>823.3333333333333</ele><time>2026-04-25T13:50:23.686Z</time></trkpt><trkpt lat="45.4524683" lon="7.7236733"><ele>820.6666666666666</ele><time>2026-04-25T13:50:24.686Z</time></trkpt><trkpt lat="45.4524517" lon="7.7237917"><ele>818.0</ele><time>2026-04-25T13:50:25.686Z</time></trkpt><trkpt lat="45.45245" lon="7.7239083"><ele>815.3333333333333</ele><time>2026-04-25T13:50:26.686Z</time></trkpt><trkpt lat="45.4524483" lon="7.7240133"><ele>812.6666666666666</ele><time>2026-04-25T13:50:27.686Z</time></trkpt><trkpt lat="45.4524733" lon="7.724145"><ele>810.0</ele><time>2026-04-25T13:50:28.686Z</time></trkpt><trkpt lat="45.4525317" lon="7.7242817"><ele>806.5</ele><time>2026-04-25T13:50:29.686Z</time></trkpt><trkpt lat="45.4526017" lon="7.7244167"><ele>803.0</ele><time>2026-04-25T13:50:30.686Z</time></trkpt><trkpt lat="45.4526717" lon="7.7245533"><ele>799.5</ele><time>2026-04-25T13:50:31.686Z</time></trkpt><trkpt lat="45.4527267" lon="7.7246883"><ele>796.0</ele><time>2026-04-25T13:50:32.686Z</time></trkpt><trkpt lat="45.45278" lon="7.7248217"><ele>795.9999999999999</ele><time>2026-04-25T13:50:33.686Z</time></trkpt><trkpt lat="45.452855" lon="7.724935"><ele>796.0</ele><time>2026-04-25T13:50:34.685Z</time></trkpt><trkpt lat="45.452935" lon="7.725025"><ele>796.0</ele><time>2026-04-25T13:50:35.685Z</time></trkpt><trkpt lat="45.45301" lon="7.7250967"><ele>796.0</ele><time>2026-04-25T13:50:36.685Z</time></trkpt><trkpt lat="45.4530683" lon="7.7251717"><ele>795.9999999999999</ele><time>2026-04-25T13:50:37.685Z</time></trkpt><trkpt lat="45.4531017" lon="7.7252533"><ele>796.0</ele><time>2026-04-25T13:50:38.685Z</time></trkpt><trkpt lat="45.453075" lon="7.7253933"><ele>792.5</ele><time>2026-04-25T13:50:40.685Z</time></trkpt><trkpt lat="45.4530083" lon="7.7254083"><ele>789.0</ele><time>2026-04-25T13:50:41.685Z</time></trkpt><trkpt lat="45.452895" lon="7.7253783"><ele>785.5</ele><time>2026-04-25T13:50:42.685Z</time></trkpt><trkpt lat="45.45274" lon="7.72533"><ele>782.0</ele><time>2026-04-25T13:50:43.685Z</time></trkpt><trkpt lat="45.452575" lon="7.725295"><ele>781.25</ele><time>2026-04-25T13:50:44.685Z</time></trkpt><trkpt lat="45.4524267" lon="7.72527"><ele>780.5</ele><time>2026-04-25T13:50:45.686Z</time></trkpt><trkpt lat="45.4523" lon="7.72524"><ele>779.75</ele><time>2026-04-25T13:50:46.685Z</time></trkpt><trkpt lat="45.45218" lon="7.7251833"><ele>779.0</ele><time>2026-04-25T13:50:47.685Z</time></trkpt><trkpt lat="45.4520617" lon="7.7251067"><ele>778.5</ele><time>2026-04-25T13:50:48.685Z</time></trkpt><trkpt lat="45.45194" lon="7.7250517"><ele>778.0</ele><time>2026-04-25T13:50:49.685Z</time></trkpt><trkpt lat="45.4518167" lon="7.7250333"><ele>777.5</ele><time>2026-04-25T13:50:50.685Z</time></trkpt><trkpt lat="45.4516933" lon="7.725045"><ele>777.0</ele><time>2026-04-25T13:50:51.685Z</time></trkpt><trkpt lat="45.4515783" lon="7.7250567"><ele>777.0</ele><time>2026-04-25T13:50:52.685Z</time></trkpt><trkpt lat="45.451485" lon="7.7250533"><ele>777.0</ele><time>2026-04-25T13:50:53.685Z</time></trkpt><trkpt lat="45.4514183" lon="7.7250333"><ele>777.0</ele><time>2026-04-25T13:50:54.685Z</time></trkpt><trkpt lat="45.4513183" lon="7.72502"><ele>777.0</ele><time>2026-04-25T13:50:56.685Z</time></trkpt><trkpt lat="45.4512917" lon="7.7251067"><ele>777.0</ele><time>2026-04-25T13:50:58.685Z</time></trkpt><trkpt lat="45.451375" lon="7.7252067"><ele>777.0</ele><time>2026-04-25T13:51:00.685Z</time></trkpt><trkpt lat="45.4514483" lon="7.7252467"><ele>774.4000000000001</ele><time>2026-04-25T13:51:01.685Z</time></trkpt><trkpt lat="45.4515567" lon="7.7253083"><ele>771.8000000000001</ele><time>2026-04-25T13:51:03.685Z</time></trkpt><trkpt lat="45.45164" lon="7.7253467"><ele>769.2</ele><time>2026-04-25T13:51:05.685Z</time></trkpt><trkpt lat="45.4517283" lon="7.7254633"><ele>766.6</ele><time>2026-04-25T13:51:07.685Z</time></trkpt><trkpt lat="45.451775" lon="7.7255583"><ele>764.0</ele><time>2026-04-25T13:51:08.685Z</time></trkpt><trkpt lat="45.451825" lon="7.72569"><ele>764.0</ele><time>2026-04-25T13:51:09.685Z</time></trkpt><trkpt lat="45.4518683" lon="7.7258083"><ele>764.0</ele><time>2026-04-25T13:51:10.685Z</time></trkpt><trkpt lat="45.4519267" lon="7.7259367"><ele>764.0</ele><time>2026-04-25T13:51:11.685Z</time></trkpt><trkpt lat="45.4520167" lon="7.7260583"><ele>764.0</ele><time>2026-04-25T13:51:12.685Z</time></trkpt><trkpt lat="45.4521033" lon="7.72616"><ele>764.0</ele><time>2026-04-25T13:51:13.685Z</time></trkpt><trkpt lat="45.4521917" lon="7.726225"><ele>765.0</ele><time>2026-04-25T13:51:14.685Z</time></trkpt><trkpt lat="45.4522533" lon="7.7263"><ele>766.0</ele><time>2026-04-25T13:51:15.685Z</time></trkpt><trkpt lat="45.4523083" lon="7.72639"><ele>767.0</ele><time>2026-04-25T13:51:16.685Z</time></trkpt><trkpt lat="45.4523433" lon="7.72649"><ele>768.0</ele><time>2026-04-25T13:51:17.685Z</time></trkpt><trkpt lat="45.4522983" lon="7.726675"><ele>769.0</ele><time>2026-04-25T13:51:19.685Z</time></trkpt><trkpt lat="45.45225" lon="7.7267833"><ele>766.9999999999999</ele><time>2026-04-25T13:51:20.685Z</time></trkpt><trkpt lat="45.4522233" lon="7.726895"><ele>765.0</ele><time>2026-04-25T13:51:21.685Z</time></trkpt><trkpt lat="45.45222" lon="7.7270117"><ele>763.0</ele><time>2026-04-25T13:51:22.686Z</time></trkpt><trkpt lat="45.452245" lon="7.7271217"><ele>761.0</ele><time>2026-04-25T13:51:23.686Z</time></trkpt><trkpt lat="45.4523017" lon="7.7272033"><ele>759.0</ele><time>2026-04-25T13:51:24.685Z</time></trkpt><trkpt lat="45.4523767" lon="7.7272833"><ele>757.0</ele><time>2026-04-25T13:51:25.685Z</time></trkpt><trkpt lat="45.4524683" lon="7.7273583"><ele>757.0</ele><time>2026-04-25T13:51:26.685Z</time></trkpt><trkpt lat="45.45257" lon="7.7274167"><ele>757.0</ele><time>2026-04-25T13:51:27.685Z</time></trkpt><trkpt lat="45.4526517" lon="7.7275033"><ele>757.0</ele><time>2026-04-25T13:51:28.685Z</time></trkpt><trkpt lat="45.4527" lon="7.7276267"><ele>757.0</ele><time>2026-04-25T13:51:29.685Z</time></trkpt><trkpt lat="45.4527133" lon="7.7277967"><ele>757.0</ele><time>2026-04-25T13:51:30.685Z</time></trkpt><trkpt lat="45.45273" lon="7.7279717"><ele>754.0</ele><time>2026-04-25T13:51:31.685Z</time></trkpt><trkpt lat="45.4527617" lon="7.728135"><ele>751.0</ele><time>2026-04-25T13:51:32.685Z</time></trkpt><trkpt lat="45.4528017" lon="7.7282667"><ele>748.0</ele><time>2026-04-25T13:51:33.685Z</time></trkpt><trkpt lat="45.45286" lon="7.7283633"><ele>745.0</ele><time>2026-04-25T13:51:34.685Z</time></trkpt><trkpt lat="45.4529417" lon="7.7284717"><ele>742.0</ele><time>2026-04-25T13:51:36.685Z</time></trkpt><trkpt lat="45.4528483" lon="7.7285"><ele>742.0</ele><time>2026-04-25T13:51:39.685Z</time></trkpt><trkpt lat="45.4527667" lon="7.7284217"><ele>742.0</ele><time>2026-04-25T13:51:40.685Z</time></trkpt><trkpt lat="45.4526667" lon="7.728305"><ele>742.0</ele><time>2026-04-25T13:51:41.685Z</time></trkpt><trkpt lat="45.4525883" lon="7.7281717"><ele>742.0</ele><time>2026-04-25T13:51:42.685Z</time></trkpt><trkpt lat="45.4525283" lon="7.728055"><ele>742.0</ele><time>2026-04-25T13:51:43.685Z</time></trkpt><trkpt lat="45.4524733" lon="7.727955"><ele>742.0</ele><time>2026-04-25T13:51:44.685Z</time></trkpt><trkpt lat="45.4524067" lon="7.727885"><ele>742.0</ele><time>2026-04-25T13:51:45.685Z</time></trkpt><trkpt lat="45.4523283" lon="7.727835"><ele>742.0</ele><time>2026-04-25T13:51:46.685Z</time></trkpt><trkpt lat="45.452245" lon="7.7278217"><ele>742.0</ele><time>2026-04-25T13:51:47.685Z</time></trkpt><trkpt lat="45.452145" lon="7.72784"><ele>742.0</ele><time>2026-04-25T13:51:48.685Z</time></trkpt><trkpt lat="45.4520567" lon="7.727865"><ele>742.0</ele><time>2026-04-25T13:51:49.685Z</time></trkpt><trkpt lat="45.45198" lon="7.72788"><ele>742.0</ele><time>2026-04-25T13:51:50.685Z</time></trkpt><trkpt lat="45.4519117" lon="7.7278917"><ele>742.0</ele><time>2026-04-25T13:51:51.685Z</time></trkpt><trkpt lat="45.451845" lon="7.7279533"><ele>742.0</ele><time>2026-04-25T13:51:53.685Z</time></trkpt><trkpt lat="45.4519317" lon="7.7280283"><ele>742.0</ele><time>2026-04-25T13:51:55.685Z</time></trkpt><trkpt lat="45.4520167" lon="7.7280433"><ele>742.0</ele><time>2026-04-25T13:51:56.685Z</time></trkpt><trkpt lat="45.4521317" lon="7.7280717"><ele>742.0</ele><time>2026-04-25T13:51:57.685Z</time></trkpt><trkpt lat="45.452225" lon="7.7281333"><ele>742.0</ele><time>2026-04-25T13:51:58.685Z</time></trkpt><trkpt lat="45.45229" lon="7.72824"><ele>742.0</ele><time>2026-04-25T13:51:59.685Z</time></trkpt><trkpt lat="45.4523383" lon="7.7283883"><ele>742.0</ele><time>2026-04-25T13:52:00.685Z</time></trkpt><trkpt lat="45.452395" lon="7.7285467"><ele>742.0</ele><time>2026-04-25T13:52:01.685Z</time></trkpt><trkpt lat="45.4524667" lon="7.7287117"><ele>738.0</ele><time>2026-04-25T13:52:02.685Z</time></trkpt><trkpt lat="45.45254" lon="7.7288617"><ele>734.0</ele><time>2026-04-25T13:52:03.685Z</time></trkpt><trkpt lat="45.45261" lon="7.7290217"><ele>730.0</ele><time>2026-04-25T13:52:04.685Z</time></trkpt><trkpt lat="45.45268" lon="7.7291783"><ele>726.0</ele><time>2026-04-25T13:52:05.685Z</time></trkpt><trkpt lat="45.4527533" lon="7.729295"><ele>726.0</ele><time>2026-04-25T13:52:06.685Z</time></trkpt><trkpt lat="45.45285" lon="7.7293883"><ele>726.0</ele><time>2026-04-25T13:52:07.685Z</time></trkpt><trkpt lat="45.45296" lon="7.729445"><ele>726.0</ele><time>2026-04-25T13:52:08.685Z</time></trkpt><trkpt lat="45.453085" lon="7.7294883"><ele>726.0</ele><time>2026-04-25T13:52:09.685Z</time></trkpt><trkpt lat="45.4532183" lon="7.7295367"><ele>722.0</ele><time>2026-04-25T13:52:10.685Z</time></trkpt><trkpt lat="45.4533417" lon="7.7295867"><ele>718.0</ele><time>2026-04-25T13:52:11.685Z</time></trkpt><trkpt lat="45.4534567" lon="7.72964"><ele>714.0</ele><time>2026-04-25T13:52:12.685Z</time></trkpt><trkpt lat="45.4535783" lon="7.729695"><ele>710.0</ele><time>2026-04-25T13:52:13.685Z</time></trkpt><trkpt lat="45.4536933" lon="7.7297767"><ele>710.0</ele><time>2026-04-25T13:52:14.685Z</time></trkpt><trkpt lat="45.453795" lon="7.729875"><ele>710.0</ele><time>2026-04-25T13:52:15.685Z</time></trkpt><trkpt lat="45.4538833" lon="7.7299833"><ele>710.0</ele><time>2026-04-25T13:52:16.685Z</time></trkpt><trkpt lat="45.4539483" lon="7.7301067"><ele>710.0</ele><time>2026-04-25T13:52:17.685Z</time></trkpt><trkpt lat="45.4539817" lon="7.7302333"><ele>710.0</ele><time>2026-04-25T13:52:18.685Z</time></trkpt><trkpt lat="45.4539867" lon="7.7303933"><ele>708.0</ele><time>2026-04-25T13:52:19.685Z</time></trkpt><trkpt lat="45.4539817" lon="7.7305533"><ele>706.0</ele><time>2026-04-25T13:52:20.685Z</time></trkpt><trkpt lat="45.4539733" lon="7.730715"><ele>704.0</ele><time>2026-04-25T13:52:21.685Z</time></trkpt><trkpt lat="45.453955" lon="7.7308633"><ele>702.0</ele><time>2026-04-25T13:52:22.685Z</time></trkpt><trkpt lat="45.45394" lon="7.7309683"><ele>700.0</ele><time>2026-04-25T13:52:23.685Z</time></trkpt><trkpt lat="45.4539617" lon="7.731105"><ele>697.8333333333334</ele><time>2026-04-25T13:52:25.685Z</time></trkpt><trkpt lat="45.4540483" lon="7.73111"><ele>695.6666666666667</ele><time>2026-04-25T13:52:27.685Z</time></trkpt><trkpt lat="45.4541" lon="7.7311683"><ele>693.5</ele><time>2026-04-25T13:52:30.685Z</time></trkpt><trkpt lat="45.4540283" lon="7.7312767"><ele>691.3333333333334</ele><time>2026-04-25T13:52:32.685Z</time></trkpt><trkpt lat="45.4539617" lon="7.73132"><ele>689.1666666666666</ele><time>2026-04-25T13:52:33.686Z</time></trkpt><trkpt lat="45.4538883" lon="7.7313383"><ele>687.0</ele><time>2026-04-25T13:52:34.685Z</time></trkpt><trkpt lat="45.4538167" lon="7.7313317"><ele>687.8</ele><time>2026-04-25T13:52:35.685Z</time></trkpt><trkpt lat="45.453735" lon="7.7312683"><ele>688.6</ele><time>2026-04-25T13:52:36.685Z</time></trkpt><trkpt lat="45.4536617" lon="7.7311633"><ele>689.4</ele><time>2026-04-25T13:52:37.685Z</time></trkpt><trkpt lat="45.4536067" lon="7.7310233"><ele>690.1999999999999</ele><time>2026-04-25T13:52:38.685Z</time></trkpt><trkpt lat="45.45353" lon="7.7309033"><ele>691.0</ele><time>2026-04-25T13:52:39.685Z</time></trkpt><trkpt lat="45.4534417" lon="7.7308267"><ele>691.0</ele><time>2026-04-25T13:52:40.685Z</time></trkpt><trkpt lat="45.4533467" lon="7.7307983"><ele>691.0</ele><time>2026-04-25T13:52:41.685Z</time></trkpt><trkpt lat="45.4532467" lon="7.7308067"><ele>691.0</ele><time>2026-04-25T13:52:42.686Z</time></trkpt><trkpt lat="45.453155" lon="7.7308567"><ele>691.0</ele><time>2026-04-25T13:52:43.685Z</time></trkpt><trkpt lat="45.45306" lon="7.7309583"><ele>691.0</ele><time>2026-04-25T13:52:44.685Z</time></trkpt><trkpt lat="45.4529533" lon="7.731055"><ele>685.25</ele><time>2026-04-25T13:52:45.685Z</time></trkpt><trkpt lat="45.4528483" lon="7.73113"><ele>679.5</ele><time>2026-04-25T13:52:46.685Z</time></trkpt><trkpt lat="45.4527333" lon="7.7312"><ele>673.75</ele><time>2026-04-25T13:52:47.685Z</time></trkpt><trkpt lat="45.4526283" lon="7.7312683"><ele>668.0</ele><time>2026-04-25T13:52:48.685Z</time></trkpt><trkpt lat="45.45253" lon="7.731315"><ele>668.0</ele><time>2026-04-25T13:52:49.685Z</time></trkpt><trkpt lat="45.4524217" lon="7.731345"><ele>668.0</ele><time>2026-04-25T13:52:50.685Z</time></trkpt><trkpt lat="45.4522917" lon="7.73133"><ele>668.0</ele><time>2026-04-25T13:52:51.685Z</time></trkpt><trkpt lat="45.452155" lon="7.7312917"><ele>668.0</ele><time>2026-04-25T13:52:52.685Z</time></trkpt><trkpt lat="45.4520167" lon="7.7312233"><ele>668.75</ele><time>2026-04-25T13:52:53.685Z</time></trkpt><trkpt lat="45.4519" lon="7.73113"><ele>669.5</ele><time>2026-04-25T13:52:54.685Z</time></trkpt><trkpt lat="45.4518033" lon="7.7310283"><ele>670.25</ele><time>2026-04-25T13:52:55.685Z</time></trkpt><trkpt lat="45.4517267" lon="7.7309117"><ele>671.0</ele><time>2026-04-25T13:52:56.685Z</time></trkpt><trkpt lat="45.4516583" lon="7.730815"><ele>671.0</ele><time>2026-04-25T13:52:57.685Z</time></trkpt><trkpt lat="45.4515917" lon="7.7307533"><ele>671.0</ele><time>2026-04-25T13:52:58.685Z</time></trkpt><trkpt lat="45.4514783" lon="7.7307783"><ele>671.0</ele><time>2026-04-25T13:53:00.685Z</time></trkpt><trkpt lat="45.4514433" lon="7.73086"><ele>671.0</ele><time>2026-04-25T13:53:01.685Z</time></trkpt><trkpt lat="45.4514367" lon="7.731005"><ele>671.0</ele><time>2026-04-25T13:53:03.685Z</time></trkpt><trkpt lat="45.4514517" lon="7.7311683"><ele>671.0</ele><time>2026-04-25T13:53:05.685Z</time></trkpt><trkpt lat="45.4514667" lon="7.7312817"><ele>671.0</ele><time>2026-04-25T13:53:06.685Z</time></trkpt><trkpt lat="45.451495" lon="7.731425"><ele>671.0</ele><time>2026-04-25T13:53:07.685Z</time></trkpt><trkpt lat="45.45153" lon="7.731615"><ele>671.0</ele><time>2026-04-25T13:53:08.685Z</time></trkpt><trkpt lat="45.451615" lon="7.7318317"><ele>677.6666666666666</ele><time>2026-04-25T13:53:09.685Z</time></trkpt><trkpt lat="45.451705" lon="7.732065"><ele>684.3333333333334</ele><time>2026-04-25T13:53:10.685Z</time></trkpt><trkpt lat="45.4518167" lon="7.7322883"><ele>691.0</ele><time>2026-04-25T13:53:11.685Z</time></trkpt><trkpt lat="45.4519283" lon="7.732475"><ele>691.0</ele><time>2026-04-25T13:53:12.685Z</time></trkpt><trkpt lat="45.4520433" lon="7.7326233"><ele>691.0</ele><time>2026-04-25T13:53:13.685Z</time></trkpt><trkpt lat="45.452155" lon="7.73275"><ele>691.0</ele><time>2026-04-25T13:53:14.685Z</time></trkpt><trkpt lat="45.4522317" lon="7.7328783"><ele>691.0</ele><time>2026-04-25T13:53:15.685Z</time></trkpt><trkpt lat="45.452265" lon="7.7330317"><ele>687.4</ele><time>2026-04-25T13:53:16.685Z</time></trkpt><trkpt lat="45.452275" lon="7.7331967"><ele>683.8</ele><time>2026-04-25T13:53:17.685Z</time></trkpt><trkpt lat="45.4522767" lon="7.7333583"><ele>680.1999999999999</ele><time>2026-04-25T13:53:18.685Z</time></trkpt><trkpt lat="45.4522667" lon="7.733505"><ele>676.5999999999999</ele><time>2026-04-25T13:53:19.685Z</time></trkpt><trkpt lat="45.4522467" lon="7.7336617"><ele>673.0</ele><time>2026-04-25T13:53:20.685Z</time></trkpt><trkpt lat="45.4522067" lon="7.733845"><ele>671.75</ele><time>2026-04-25T13:53:21.685Z</time></trkpt><trkpt lat="45.4521617" lon="7.734045"><ele>670.5</ele><time>2026-04-25T13:53:22.685Z</time></trkpt><trkpt lat="45.4521133" lon="7.734245"><ele>669.25</ele><time>2026-04-25T13:53:23.685Z</time></trkpt><trkpt lat="45.452065" lon="7.73443"><ele>668.0</ele><time>2026-04-25T13:53:24.685Z</time></trkpt><trkpt lat="45.4520083" lon="7.7345867"><ele>675.0</ele><time>2026-04-25T13:53:25.685Z</time></trkpt><trkpt lat="45.45192" lon="7.7347183"><ele>682.0</ele><time>2026-04-25T13:53:26.685Z</time></trkpt><trkpt lat="45.451825" lon="7.734835"><ele>689.0</ele><time>2026-04-25T13:53:27.685Z</time></trkpt><trkpt lat="45.4517233" lon="7.7349917"><ele>696.0</ele><time>2026-04-25T13:53:28.686Z</time></trkpt><trkpt lat="45.45164" lon="7.7351717"><ele>692.5</ele><time>2026-04-25T13:53:29.685Z</time></trkpt><trkpt lat="45.4515617" lon="7.7353467"><ele>689.0</ele><time>2026-04-25T13:53:30.685Z</time></trkpt><trkpt lat="45.4514967" lon="7.73549"><ele>685.5</ele><time>2026-04-25T13:53:31.685Z</time></trkpt><trkpt lat="45.451435" lon="7.73562"><ele>682.0</ele><time>2026-04-25T13:53:32.685Z</time></trkpt><trkpt lat="45.451355" lon="7.73573"><ele>686.0</ele><time>2026-04-25T13:53:33.685Z</time></trkpt><trkpt lat="45.45125" lon="7.7358117"><ele>690.0</ele><time>2026-04-25T13:53:34.685Z</time></trkpt><trkpt lat="45.4511317" lon="7.735875"><ele>694.0</ele><time>2026-04-25T13:53:35.685Z</time></trkpt><trkpt lat="45.451" lon="7.73592"><ele>698.0</ele><time>2026-04-25T13:53:36.685Z</time></trkpt><trkpt lat="45.450865" lon="7.7359417"><ele>698.0</ele><time>2026-04-25T13:53:37.685Z</time></trkpt><trkpt lat="45.4507383" lon="7.735985"><ele>698.0</ele><time>2026-04-25T13:53:38.685Z</time></trkpt><trkpt lat="45.4506183" lon="7.7360683"><ele>698.0</ele><time>2026-04-25T13:53:39.685Z</time></trkpt><trkpt lat="45.4505133" lon="7.736165"><ele>698.0</ele><time>2026-04-25T13:53:40.685Z</time></trkpt><trkpt lat="45.450435" lon="7.73628"><ele>694.4</ele><time>2026-04-25T13:53:41.685Z</time></trkpt><trkpt lat="45.4503733" lon="7.7364083"><ele>690.8</ele><time>2026-04-25T13:53:42.685Z</time></trkpt><trkpt lat="45.4503317" lon="7.7365633"><ele>687.2</ele><time>2026-04-25T13:53:43.685Z</time></trkpt><trkpt lat="45.4502917" lon="7.736695"><ele>683.6</ele><time>2026-04-25T13:53:44.686Z</time></trkpt><trkpt lat="45.4502383" lon="7.7368067"><ele>680.0</ele><time>2026-04-25T13:53:45.685Z</time></trkpt><trkpt lat="45.4501733" lon="7.7368967"><ele>680.0</ele><time>2026-04-25T13:53:46.685Z</time></trkpt><trkpt lat="45.4500883" lon="7.7369583"><ele>680.0</ele><time>2026-04-25T13:53:47.685Z</time></trkpt><trkpt lat="45.4499867" lon="7.73697"><ele>680.0</ele><time>2026-04-25T13:53:48.685Z</time></trkpt><trkpt lat="45.4498867" lon="7.7369433"><ele>680.0</ele><time>2026-04-25T13:53:49.685Z</time></trkpt><trkpt lat="45.4497867" lon="7.7369"><ele>680.0</ele><time>2026-04-25T13:53:50.685Z</time></trkpt><trkpt lat="45.4496933" lon="7.7368567"><ele>679.1666666666666</ele><time>2026-04-25T13:53:51.685Z</time></trkpt><trkpt lat="45.4496033" lon="7.7368033"><ele>678.3333333333333</ele><time>2026-04-25T13:53:52.685Z</time></trkpt><trkpt lat="45.4495217" lon="7.7367383"><ele>677.5</ele><time>2026-04-25T13:53:53.685Z</time></trkpt><trkpt lat="45.4494517" lon="7.73667"><ele>676.6666666666666</ele><time>2026-04-25T13:53:54.685Z</time></trkpt><trkpt lat="45.449395" lon="7.73662"><ele>675.8333333333334</ele><time>2026-04-25T13:53:55.685Z</time></trkpt><trkpt lat="45.449325" lon="7.7366017"><ele>675.0</ele><time>2026-04-25T13:53:56.685Z</time></trkpt><trkpt lat="45.44922" lon="7.7367033"><ele>675.0</ele><time>2026-04-25T13:53:58.685Z</time></trkpt><trkpt lat="45.4491833" lon="7.7368233"><ele>675.0</ele><time>2026-04-25T13:53:59.685Z</time></trkpt><trkpt lat="45.4491267" lon="7.736945"><ele>675.0</ele><time>2026-04-25T13:54:00.685Z</time></trkpt><trkpt lat="45.4490667" lon="7.7370417"><ele>675.0</ele><time>2026-04-25T13:54:01.685Z</time></trkpt><trkpt lat="45.4489933" lon="7.7370883"><ele>675.0</ele><time>2026-04-25T13:54:02.685Z</time></trkpt><trkpt lat="45.44891" lon="7.737125"><ele>675.1666666666666</ele><time>2026-04-25T13:54:03.685Z</time></trkpt><trkpt lat="45.4488217" lon="7.7371217"><ele>675.3333333333334</ele><time>2026-04-25T13:54:04.685Z</time></trkpt><trkpt lat="45.4487317" lon="7.7370933"><ele>675.5</ele><time>2026-04-25T13:54:05.685Z</time></trkpt><trkpt lat="45.44865" lon="7.7370733"><ele>675.6666666666667</ele><time>2026-04-25T13:54:06.685Z</time></trkpt><trkpt lat="45.448575" lon="7.7370883"><ele>675.8333333333334</ele><time>2026-04-25T13:54:07.685Z</time></trkpt><trkpt lat="45.4485217" lon="7.7371467"><ele>676.0</ele><time>2026-04-25T13:54:08.685Z</time></trkpt><trkpt lat="45.4485183" lon="7.7372433"><ele>676.0</ele><time>2026-04-25T13:54:09.685Z</time></trkpt><trkpt lat="45.44855" lon="7.7373683"><ele>676.0</ele><time>2026-04-25T13:54:10.686Z</time></trkpt><trkpt lat="45.448585" lon="7.737505"><ele>676.0</ele><time>2026-04-25T13:54:11.685Z</time></trkpt><trkpt lat="45.4486" lon="7.737665"><ele>676.0</ele><time>2026-04-25T13:54:12.685Z</time></trkpt><trkpt lat="45.4485817" lon="7.7378283"><ele>676.0</ele><time>2026-04-25T13:54:13.685Z</time></trkpt><trkpt lat="45.4485533" lon="7.7379967"><ele>675.25</ele><time>2026-04-25T13:54:14.685Z</time></trkpt><trkpt lat="45.448535" lon="7.7381567"><ele>674.5</ele><time>2026-04-25T13:54:15.685Z</time></trkpt><trkpt lat="45.4485333" lon="7.738345"><ele>673.75</ele><time>2026-04-25T13:54:16.685Z</time></trkpt><trkpt lat="45.4485417" lon="7.7385433"><ele>673.0</ele><time>2026-04-25T13:54:17.685Z</time></trkpt><trkpt lat="45.4485417" lon="7.73875"><ele>673.0</ele><time>2026-04-25T13:54:18.685Z</time></trkpt><trkpt lat="45.4485317" lon="7.7389583"><ele>673.0</ele><time>2026-04-25T13:54:19.685Z</time></trkpt><trkpt lat="45.4485167" lon="7.739155"><ele>673.0</ele><time>2026-04-25T13:54:20.685Z</time></trkpt><trkpt lat="45.448505" lon="7.739335"><ele>673.0</ele><time>2026-04-25T13:54:21.685Z</time></trkpt><trkpt lat="45.448485" lon="7.7394733"><ele>670.75</ele><time>2026-04-25T13:54:22.685Z</time></trkpt><trkpt lat="45.4484533" lon="7.7396117"><ele>668.5</ele><time>2026-04-25T13:54:23.685Z</time></trkpt><trkpt lat="45.4484083" lon="7.7397533"><ele>666.25</ele><time>2026-04-25T13:54:24.685Z</time></trkpt><trkpt lat="45.4483483" lon="7.7398917"><ele>664.0</ele><time>2026-04-25T13:54:25.685Z</time></trkpt><trkpt lat="45.44826" lon="7.7400167"><ele>664.0</ele><time>2026-04-25T13:54:26.685Z</time></trkpt><trkpt lat="45.44814" lon="7.740135"><ele>664.0</ele><time>2026-04-25T13:54:27.685Z</time></trkpt><trkpt lat="45.4480117" lon="7.740245"><ele>664.0</ele><time>2026-04-25T13:54:28.685Z</time></trkpt><trkpt lat="45.4478967" lon="7.7403283"><ele>664.0</ele><time>2026-04-25T13:54:29.685Z</time></trkpt><trkpt lat="45.4478" lon="7.740415"><ele>663.4000000000001</ele><time>2026-04-25T13:54:30.685Z</time></trkpt><trkpt lat="45.4477267" lon="7.7404667"><ele>662.8</ele><time>2026-04-25T13:54:31.685Z</time></trkpt><trkpt lat="45.44766" lon="7.7405317"><ele>662.2</ele><time>2026-04-25T13:54:33.685Z</time></trkpt><trkpt lat="45.4475733" lon="7.7406483"><ele>661.5999999999999</ele><time>2026-04-25T14:17:59.679Z</time></trkpt><trkpt lat="45.4475017" lon="7.740755"><ele>661.0</ele><time>2026-04-25T14:18:00.679Z</time></trkpt><trkpt lat="45.4474133" lon="7.7408833"><ele>661.0</ele><time>2026-04-25T14:18:01.679Z</time></trkpt><trkpt lat="45.44733" lon="7.74102"><ele>661.0</ele><time>2026-04-25T14:18:02.679Z</time></trkpt><trkpt lat="45.44723" lon="7.74117"><ele>661.0</ele><time>2026-04-25T14:18:03.679Z</time></trkpt><trkpt lat="45.4471233" lon="7.741315"><ele>661.0</ele><time>2026-04-25T14:18:04.679Z</time></trkpt><trkpt lat="45.4470133" lon="7.7414367"><ele>658.75</ele><time>2026-04-25T14:18:05.679Z</time></trkpt><trkpt lat="45.44691" lon="7.7415833"><ele>656.5</ele><time>2026-04-25T14:18:06.679Z</time></trkpt><trkpt lat="45.44682" lon="7.7417383"><ele>654.25</ele><time>2026-04-25T14:18:07.68Z</time></trkpt><trkpt lat="45.446735" lon="7.741905"><ele>652.0</ele><time>2026-04-25T14:18:08.679Z</time></trkpt><trkpt lat="45.4466383" lon="7.7420583"><ele>652.0</ele><time>2026-04-25T14:18:09.679Z</time></trkpt><trkpt lat="45.4465433" lon="7.7422117"><ele>652.0</ele><time>2026-04-25T14:18:10.679Z</time></trkpt><trkpt lat="45.446455" lon="7.74235"><ele>652.0</ele><time>2026-04-25T14:18:11.679Z</time></trkpt><trkpt lat="45.4463733" lon="7.7424867"><ele>652.0</ele><time>2026-04-25T14:18:12.679Z</time></trkpt><trkpt lat="45.4462983" lon="7.7426367"><ele>647.25</ele><time>2026-04-25T14:18:13.679Z</time></trkpt><trkpt lat="45.4462433" lon="7.7427917"><ele>642.5</ele><time>2026-04-25T14:18:14.679Z</time></trkpt><trkpt lat="45.4462083" lon="7.742955"><ele>637.75</ele><time>2026-04-25T14:18:15.679Z</time></trkpt><trkpt lat="45.4461867" lon="7.74313"><ele>633.0</ele><time>2026-04-25T14:18:16.679Z</time></trkpt><trkpt lat="45.4461833" lon="7.7433183"><ele>633.0</ele><time>2026-04-25T14:18:17.679Z</time></trkpt><trkpt lat="45.446225" lon="7.7434917"><ele>633.0</ele><time>2026-04-25T14:18:18.679Z</time></trkpt><trkpt lat="45.446295" lon="7.7436533"><ele>633.0</ele><time>2026-04-25T14:18:19.679Z</time></trkpt><trkpt lat="45.44639" lon="7.743795"><ele>633.0</ele><time>2026-04-25T14:18:20.679Z</time></trkpt><trkpt lat="45.446475" lon="7.74393"><ele>633.4</ele><time>2026-04-25T14:18:21.679Z</time></trkpt><trkpt lat="45.44654" lon="7.744045"><ele>633.8</ele><time>2026-04-25T14:18:22.679Z</time></trkpt><trkpt lat="45.44657" lon="7.7441333"><ele>634.2</ele><time>2026-04-25T14:18:23.679Z</time></trkpt><trkpt lat="45.446555" lon="7.7442767"><ele>634.6</ele><time>2026-04-25T14:18:25.679Z</time></trkpt><trkpt lat="45.4464433" lon="7.74421"><ele>635.0</ele><time>2026-04-25T14:18:27.679Z</time></trkpt><trkpt lat="45.4463517" lon="7.7441233"><ele>630.0</ele><time>2026-04-25T14:18:28.679Z</time></trkpt><trkpt lat="45.4462267" lon="7.744025"><ele>625.0</ele><time>2026-04-25T14:18:29.679Z</time></trkpt><trkpt lat="45.4460783" lon="7.7439517"><ele>620.0</ele><time>2026-04-25T14:18:30.679Z</time></trkpt><trkpt lat="45.4459183" lon="7.7439067"><ele>620.0</ele><time>2026-04-25T14:18:31.679Z</time></trkpt><trkpt lat="45.44577" lon="7.7438517"><ele>620.0</ele><time>2026-04-25T14:18:32.679Z</time></trkpt><trkpt lat="45.4456317" lon="7.7437567"><ele>620.0</ele><time>2026-04-25T14:18:33.679Z</time></trkpt><trkpt lat="45.4455267" lon="7.743625"><ele>620.0</ele><time>2026-04-25T14:18:34.679Z</time></trkpt><trkpt lat="45.4454633" lon="7.7434533"><ele>615.0</ele><time>2026-04-25T14:18:35.679Z</time></trkpt><trkpt lat="45.4454317" lon="7.74323"><ele>610.0</ele><time>2026-04-25T14:18:36.679Z</time></trkpt><trkpt lat="45.4453983" lon="7.7430233"><ele>605.0</ele><time>2026-04-25T14:18:37.679Z</time></trkpt><trkpt lat="45.4453733" lon="7.7428083"><ele>605.0</ele><time>2026-04-25T14:18:38.679Z</time></trkpt><trkpt lat="45.4453917" lon="7.74262"><ele>605.0</ele><time>2026-04-25T14:18:39.679Z</time></trkpt><trkpt lat="45.445435" lon="7.7424383"><ele>605.0</ele><time>2026-04-25T14:18:40.679Z</time></trkpt><trkpt lat="45.4454717" lon="7.7422983"><ele>605.0</ele><time>2026-04-25T14:18:41.679Z</time></trkpt><trkpt lat="45.4454783" lon="7.7421633"><ele>605.0</ele><time>2026-04-25T14:18:42.679Z</time></trkpt><trkpt lat="45.4454617" lon="7.74205"><ele>605.0</ele><time>2026-04-25T14:18:43.679Z</time></trkpt><trkpt lat="45.44542" lon="7.741955"><ele>605.0</ele><time>2026-04-25T14:18:44.679Z</time></trkpt><trkpt lat="45.445315" lon="7.741955"><ele>605.0</ele><time>2026-04-25T14:18:46.679Z</time></trkpt><trkpt lat="45.4452733" lon="7.7420417"><ele>605.0</ele><time>2026-04-25T14:18:47.679Z</time></trkpt><trkpt lat="45.44524" lon="7.7421783"><ele>605.0</ele><time>2026-04-25T14:18:48.68Z</time></trkpt><trkpt lat="45.4451967" lon="7.7423717"><ele>605.0</ele><time>2026-04-25T14:18:49.679Z</time></trkpt><trkpt lat="45.4451317" lon="7.74257"><ele>605.0</ele><time>2026-04-25T14:18:50.679Z</time></trkpt><trkpt lat="45.4450183" lon="7.7427717"><ele>605.0</ele><time>2026-04-25T14:18:51.68Z</time></trkpt><trkpt lat="45.4448883" lon="7.742985"><ele>605.0</ele><time>2026-04-25T14:18:52.678Z</time></trkpt><trkpt lat="45.4447583" lon="7.7431733"><ele>605.0</ele><time>2026-04-25T14:18:53.678Z</time></trkpt><trkpt lat="45.4446283" lon="7.7433567"><ele>605.0</ele><time>2026-04-25T14:18:54.678Z</time></trkpt><trkpt lat="45.44452" lon="7.74355"><ele>599.0</ele><time>2026-04-25T14:18:55.679Z</time></trkpt><trkpt lat="45.44445" lon="7.7437633"><ele>593.0</ele><time>2026-04-25T14:18:56.678Z</time></trkpt><trkpt lat="45.44438" lon="7.743965"><ele>587.0</ele><time>2026-04-25T14:18:57.678Z</time></trkpt><trkpt lat="45.44432" lon="7.744155"><ele>587.0</ele><time>2026-04-25T14:18:58.678Z</time></trkpt><trkpt lat="45.4442617" lon="7.74435"><ele>587.0</ele><time>2026-04-25T14:18:59.678Z</time></trkpt><trkpt lat="45.444235" lon="7.7445683"><ele>587.0</ele><time>2026-04-25T14:19:00.678Z</time></trkpt><trkpt lat="45.4442417" lon="7.7447817"><ele>584.3333333333333</ele><time>2026-04-25T14:19:01.678Z</time></trkpt><trkpt lat="45.4442883" lon="7.7450183"><ele>581.6666666666666</ele><time>2026-04-25T14:19:02.678Z</time></trkpt><trkpt lat="45.4443617" lon="7.7452517"><ele>579.0</ele><time>2026-04-25T14:19:03.678Z</time></trkpt><trkpt lat="45.44443" lon="7.74547"><ele>578.6666666666666</ele><time>2026-04-25T14:19:04.678Z</time></trkpt><trkpt lat="45.4444933" lon="7.7456967"><ele>578.3333333333333</ele><time>2026-04-25T14:19:05.678Z</time></trkpt><trkpt lat="45.4445433" lon="7.7459217"><ele>578.0</ele><time>2026-04-25T14:19:06.678Z</time></trkpt><trkpt lat="45.44459" lon="7.7461433"><ele>577.75</ele><time>2026-04-25T14:19:07.679Z</time></trkpt><trkpt lat="45.4446117" lon="7.7463667"><ele>577.5</ele><time>2026-04-25T14:19:08.678Z</time></trkpt><trkpt lat="45.4446183" lon="7.7465767"><ele>577.25</ele><time>2026-04-25T14:19:09.678Z</time></trkpt><trkpt lat="45.444625" lon="7.7467767"><ele>577.0</ele><time>2026-04-25T14:19:10.679Z</time></trkpt><trkpt lat="45.44469" lon="7.7469517"><ele>571.75</ele><time>2026-04-25T14:19:11.678Z</time></trkpt><trkpt lat="45.44478" lon="7.7471083"><ele>566.5</ele><time>2026-04-25T14:19:12.678Z</time></trkpt><trkpt lat="45.44487" lon="7.7472833"><ele>561.25</ele><time>2026-04-25T14:19:13.678Z</time></trkpt><trkpt lat="45.4449" lon="7.7475"><ele>556.0</ele><time>2026-04-25T14:19:14.678Z</time></trkpt><trkpt lat="45.4448883" lon="7.7477133"><ele>551.6666666666667</ele><time>2026-04-25T14:19:15.678Z</time></trkpt><trkpt lat="45.444865" lon="7.74794"><ele>547.3333333333334</ele><time>2026-04-25T14:19:16.678Z</time></trkpt><trkpt lat="45.4448633" lon="7.74817"><ele>543.0</ele><time>2026-04-25T14:19:17.678Z</time></trkpt><trkpt lat="45.4448967" lon="7.74841"><ele>537.6666666666666</ele><time>2026-04-25T14:19:18.678Z</time></trkpt><trkpt lat="45.444965" lon="7.7486367"><ele>532.3333333333333</ele><time>2026-04-25T14:19:19.678Z</time></trkpt><trkpt lat="45.4450517" lon="7.7488417"><ele>527.0</ele><time>2026-04-25T14:19:20.678Z</time></trkpt><trkpt lat="45.44515" lon="7.7490067"><ele>527.0</ele><time>2026-04-25T14:19:21.678Z</time></trkpt><trkpt lat="45.445265" lon="7.7491217"><ele>527.0</ele><time>2026-04-25T14:19:22.678Z</time></trkpt><trkpt lat="45.4454" lon="7.7492217"><ele>527.0</ele><time>2026-04-25T14:19:23.678Z</time></trkpt><trkpt lat="45.4455317" lon="7.7493183"><ele>527.0</ele><time>2026-04-25T14:19:24.678Z</time></trkpt><trkpt lat="45.4456567" lon="7.74943"><ele>522.5</ele><time>2026-04-25T14:19:25.678Z</time></trkpt><trkpt lat="45.4457717" lon="7.749545"><ele>518.0</ele><time>2026-04-25T14:19:26.678Z</time></trkpt><trkpt lat="45.4458817" lon="7.74965"><ele>513.5</ele><time>2026-04-25T14:19:27.678Z</time></trkpt><trkpt lat="45.4459983" lon="7.749725"><ele>509.0</ele><time>2026-04-25T14:19:28.678Z</time></trkpt><trkpt lat="45.4461317" lon="7.7497583"><ele>509.0</ele><time>2026-04-25T14:19:29.679Z</time></trkpt><trkpt lat="45.4462867" lon="7.7497717"><ele>509.0</ele><time>2026-04-25T14:19:30.678Z</time></trkpt><trkpt lat="45.4464517" lon="7.749835"><ele>509.0</ele><time>2026-04-25T14:19:31.678Z</time></trkpt><trkpt lat="45.446615" lon="7.74994"><ele>511.5</ele><time>2026-04-25T14:19:32.678Z</time></trkpt><trkpt lat="45.446755" lon="7.750055"><ele>514.0</ele><time>2026-04-25T14:19:33.678Z</time></trkpt><trkpt lat="45.4468883" lon="7.750125"><ele>516.5</ele><time>2026-04-25T14:19:34.678Z</time></trkpt><trkpt lat="45.4469967" lon="7.750175"><ele>519.0</ele><time>2026-04-25T14:19:35.678Z</time></trkpt><trkpt lat="45.4470867" lon="7.7502017"><ele>515.4</ele><time>2026-04-25T14:19:36.678Z</time></trkpt><trkpt lat="45.447155" lon="7.750215"><ele>511.79999999999995</ele><time>2026-04-25T14:19:37.678Z</time></trkpt><trkpt lat="45.4472" lon="7.75028"><ele>508.20000000000005</ele><time>2026-04-25T14:19:38.678Z</time></trkpt><trkpt lat="45.447155" lon="7.7504367"><ele>504.6</ele><time>2026-04-25T14:19:40.678Z</time></trkpt><trkpt lat="45.447045" lon="7.7505133"><ele>501.0</ele><time>2026-04-25T14:19:41.678Z</time></trkpt><trkpt lat="45.44688" lon="7.7506033"><ele>500.5</ele><time>2026-04-25T14:19:42.678Z</time></trkpt><trkpt lat="45.4466367" lon="7.75071"><ele>500.0</ele><time>2026-04-25T14:19:43.678Z</time></trkpt><trkpt lat="45.4463833" lon="7.75084"><ele>499.0</ele><time>2026-04-25T14:19:44.678Z</time></trkpt><trkpt lat="45.4461683" lon="7.750965"><ele>498.0</ele><time>2026-04-25T14:19:45.678Z</time></trkpt><trkpt lat="45.44599" lon="7.7510583"><ele>497.0</ele><time>2026-04-25T14:19:46.678Z</time></trkpt><trkpt lat="45.4458233" lon="7.751155"><ele>495.3333333333333</ele><time>2026-04-25T14:19:47.678Z</time></trkpt><trkpt lat="45.44567" lon="7.75126"><ele>493.66666666666663</ele><time>2026-04-25T14:19:48.678Z</time></trkpt><trkpt lat="45.44553" lon="7.7514167"><ele>492.0</ele><time>2026-04-25T14:19:49.678Z</time></trkpt><trkpt lat="45.4454083" lon="7.7516617"><ele>489.5</ele><time>2026-04-25T14:19:50.678Z</time></trkpt><trkpt lat="45.4453167" lon="7.7519717"><ele>487.0</ele><time>2026-04-25T14:19:51.678Z</time></trkpt><trkpt lat="45.4452283" lon="7.7523017"><ele>487.0</ele><time>2026-04-25T14:19:52.678Z</time></trkpt><trkpt lat="45.4451533" lon="7.7526367"><ele>487.0</ele><time>2026-04-25T14:19:53.678Z</time></trkpt><trkpt lat="45.4450717" lon="7.7529533"><ele>488.0</ele><time>2026-04-25T14:19:54.679Z</time></trkpt><trkpt lat="45.4449883" lon="7.7532533"><ele>489.0</ele><time>2026-04-25T14:19:55.678Z</time></trkpt><trkpt lat="45.444895" lon="7.7535217"><ele>490.0</ele><time>2026-04-25T14:19:56.678Z</time></trkpt><trkpt lat="45.44479" lon="7.7537333"><ele>490.6666666666667</ele><time>2026-04-25T14:19:57.678Z</time></trkpt><trkpt lat="45.4446517" lon="7.7538867"><ele>491.33333333333337</ele><time>2026-04-25T14:19:58.678Z</time></trkpt><trkpt lat="45.4445033" lon="7.7540067"><ele>492.0</ele><time>2026-04-25T14:19:59.678Z</time></trkpt><trkpt lat="45.44435" lon="7.7541233"><ele>492.0</ele><time>2026-04-25T14:20:00.678Z</time></trkpt><trkpt lat="45.4441833" lon="7.7542617"><ele>492.0</ele><time>2026-04-25T14:20:01.678Z</time></trkpt><trkpt lat="45.4440183" lon="7.7544"><ele>492.0</ele><time>2026-04-25T14:20:02.679Z</time></trkpt><trkpt lat="45.4438667" lon="7.7545317"><ele>489.33333333333337</ele><time>2026-04-25T14:20:03.678Z</time></trkpt><trkpt lat="45.4437183" lon="7.7546567"><ele>486.6666666666667</ele><time>2026-04-25T14:20:04.678Z</time></trkpt><trkpt lat="45.4435617" lon="7.754775"><ele>484.0</ele><time>2026-04-25T14:20:05.678Z</time></trkpt><trkpt lat="45.4434233" lon="7.7548917"><ele>484.0</ele><time>2026-04-25T14:20:06.678Z</time></trkpt><trkpt lat="45.4432867" lon="7.7550367"><ele>484.0</ele><time>2026-04-25T14:20:07.678Z</time></trkpt><trkpt lat="45.4431367" lon="7.75522"><ele>484.0</ele><time>2026-04-25T14:20:08.678Z</time></trkpt><trkpt lat="45.4429933" lon="7.75547"><ele>478.0</ele><time>2026-04-25T14:20:09.678Z</time></trkpt><trkpt lat="45.442855" lon="7.7557617"><ele>472.0</ele><time>2026-04-25T14:20:10.678Z</time></trkpt><trkpt lat="45.442725" lon="7.7560683"><ele>471.33333333333337</ele><time>2026-04-25T14:20:11.678Z</time></trkpt><trkpt lat="45.442605" lon="7.75635"><ele>470.66666666666663</ele><time>2026-04-25T14:20:12.678Z</time></trkpt><trkpt lat="45.4424933" lon="7.7566117"><ele>470.0</ele><time>2026-04-25T14:20:13.678Z</time></trkpt><trkpt lat="45.4423917" lon="7.7568417"><ele>469.0</ele><time>2026-04-25T14:20:14.678Z</time></trkpt><trkpt lat="45.442305" lon="7.7570333"><ele>468.0</ele><time>2026-04-25T14:20:15.678Z</time></trkpt><trkpt lat="45.4422433" lon="7.7571833"><ele>467.0</ele><time>2026-04-25T14:20:16.678Z</time></trkpt><trkpt lat="45.4422033" lon="7.757305"><ele>466.0</ele><time>2026-04-25T14:20:17.678Z</time></trkpt><trkpt lat="45.442185" lon="7.7574"><ele>465.0</ele><time>2026-04-25T14:20:18.678Z</time></trkpt><trkpt lat="45.4422383" lon="7.7575183"><ele>465.0</ele><time>2026-04-25T14:20:20.678Z</time></trkpt><trkpt lat="45.4423017" lon="7.7575083"><ele>465.0</ele><time>2026-04-25T14:20:22.679Z</time></trkpt><trkpt lat="45.442355" lon="7.7574017"><ele>465.0</ele><time>2026-04-25T14:20:34.678Z</time></trkpt><trkpt lat="45.4422917" lon="7.7573317"><ele>465.0</ele><time>2026-04-25T14:20:36.678Z</time></trkpt><trkpt lat="45.4421567" lon="7.7573983"><ele>465.0</ele><time>2026-04-25T14:20:38.678Z</time></trkpt><trkpt lat="45.4420867" lon="7.75751"><ele>468.0</ele><time>2026-04-25T14:20:39.678Z</time></trkpt><trkpt lat="45.4420083" lon="7.75769"><ele>471.0</ele><time>2026-04-25T14:20:40.679Z</time></trkpt><trkpt lat="45.4419167" lon="7.757925"><ele>474.0</ele><time>2026-04-25T14:20:41.678Z</time></trkpt><trkpt lat="45.4418233" lon="7.7581483"><ele>474.0</ele><time>2026-04-25T14:20:42.678Z</time></trkpt><trkpt lat="45.4417267" lon="7.75835"><ele>474.0</ele><time>2026-04-25T14:20:43.678Z</time></trkpt><trkpt lat="45.441625" lon="7.7585317"><ele>474.0</ele><time>2026-04-25T14:20:44.678Z</time></trkpt><trkpt lat="45.4415233" lon="7.75869"><ele>470.5</ele><time>2026-04-25T14:20:45.678Z</time></trkpt><trkpt lat="45.4414067" lon="7.7588283"><ele>467.0</ele><time>2026-04-25T14:20:46.678Z</time></trkpt><trkpt lat="45.4413017" lon="7.75894"><ele>463.5</ele><time>2026-04-25T14:20:47.678Z</time></trkpt><trkpt lat="45.44121" lon="7.7590717"><ele>460.0</ele><time>2026-04-25T14:20:48.678Z</time></trkpt><trkpt lat="45.4411517" lon="7.7592367"><ele>461.00000000000006</ele><time>2026-04-25T14:20:49.678Z</time></trkpt><trkpt lat="45.4411183" lon="7.759395"><ele>462.0</ele><time>2026-04-25T14:20:50.678Z</time></trkpt><trkpt lat="45.441095" lon="7.75953"><ele>463.0</ele><time>2026-04-25T14:20:51.678Z</time></trkpt><trkpt lat="45.441075" lon="7.7596217"><ele>464.0</ele><time>2026-04-25T14:20:52.678Z</time></trkpt><trkpt lat="45.4410433" lon="7.7597167"><ele>465.00000000000006</ele><time>2026-04-25T14:20:54.678Z</time></trkpt><trkpt lat="45.4410267" lon="7.75983"><ele>466.0</ele><time>2026-04-25T14:20:57.678Z</time></trkpt><trkpt lat="45.4410517" lon="7.7599217"><ele>466.0</ele><time>2026-04-25T14:20:58.678Z</time></trkpt><trkpt lat="45.4410917" lon="7.760025"><ele>466.0</ele><time>2026-04-25T14:20:59.678Z</time></trkpt><trkpt lat="45.4411533" lon="7.76015"><ele>466.0</ele><time>2026-04-25T14:21:00.678Z</time></trkpt><trkpt lat="45.4412167" lon="7.7602783"><ele>466.0</ele><time>2026-04-25T14:21:01.678Z</time></trkpt><trkpt lat="45.44128" lon="7.760415"><ele>466.0</ele><time>2026-04-25T14:21:02.678Z</time></trkpt><trkpt lat="45.4413517" lon="7.7605783"><ele>465.25</ele><time>2026-04-25T14:21:03.678Z</time></trkpt><trkpt lat="45.4414217" lon="7.7607433"><ele>464.5</ele><time>2026-04-25T14:21:04.678Z</time></trkpt><trkpt lat="45.441495" lon="7.7609083"><ele>463.75</ele><time>2026-04-25T14:21:05.678Z</time></trkpt><trkpt lat="45.441575" lon="7.7610733"><ele>463.0</ele><time>2026-04-25T14:21:06.678Z</time></trkpt><trkpt lat="45.4416483" lon="7.7612517"><ele>463.0</ele><time>2026-04-25T14:21:07.678Z</time></trkpt><trkpt lat="45.441725" lon="7.761415"><ele>463.0</ele><time>2026-04-25T14:21:08.678Z</time></trkpt><trkpt lat="45.4418" lon="7.7615817"><ele>463.0</ele><time>2026-04-25T14:21:09.678Z</time></trkpt><trkpt lat="45.44189" lon="7.7617633"><ele>463.0</ele><time>2026-04-25T14:21:10.678Z</time></trkpt><trkpt lat="45.4419717" lon="7.7619517"><ele>463.25</ele><time>2026-04-25T14:21:11.678Z</time></trkpt><trkpt lat="45.442045" lon="7.7621267"><ele>463.5</ele><time>2026-04-25T14:21:12.678Z</time></trkpt><trkpt lat="45.4421167" lon="7.76229"><ele>463.75</ele><time>2026-04-25T14:21:13.678Z</time></trkpt><trkpt lat="45.442185" lon="7.7624417"><ele>464.0</ele><time>2026-04-25T14:21:14.678Z</time></trkpt><trkpt lat="45.4422333" lon="7.7626067"><ele>464.5</ele><time>2026-04-25T14:21:15.678Z</time></trkpt><trkpt lat="45.442275" lon="7.7627517"><ele>465.0</ele><time>2026-04-25T14:21:16.678Z</time></trkpt><trkpt lat="45.44229" lon="7.76292"><ele>465.5</ele><time>2026-04-25T14:21:17.678Z</time></trkpt><trkpt lat="45.442265" lon="7.7631017"><ele>466.0</ele><time>2026-04-25T14:21:18.678Z</time></trkpt><trkpt lat="45.4422033" lon="7.7633083"><ele>465.33333333333337</ele><time>2026-04-25T14:21:19.678Z</time></trkpt><trkpt lat="45.442115" lon="7.7635083"><ele>464.66666666666663</ele><time>2026-04-25T14:21:20.678Z</time></trkpt><trkpt lat="45.4420333" lon="7.7637067"><ele>464.0</ele><time>2026-04-25T14:21:21.678Z</time></trkpt><trkpt lat="45.4419583" lon="7.7639067"><ele>464.0</ele><time>2026-04-25T14:21:22.678Z</time></trkpt><trkpt lat="45.4418917" lon="7.7641017"><ele>464.0</ele><time>2026-04-25T14:21:23.678Z</time></trkpt><trkpt lat="45.441835" lon="7.7643083"><ele>464.0</ele><time>2026-04-25T14:21:24.679Z</time></trkpt><trkpt lat="45.44177" lon="7.764515"><ele>464.0</ele><time>2026-04-25T14:21:25.678Z</time></trkpt><trkpt lat="45.441705" lon="7.7647317"><ele>464.0</ele><time>2026-04-25T14:21:26.679Z</time></trkpt><trkpt lat="45.44164" lon="7.7649333"><ele>464.0</ele><time>2026-04-25T14:21:27.678Z</time></trkpt><trkpt lat="45.4415867" lon="7.765115"><ele>464.6</ele><time>2026-04-25T14:21:28.678Z</time></trkpt><trkpt lat="45.44153" lon="7.76528"><ele>465.2</ele><time>2026-04-25T14:21:29.678Z</time></trkpt><trkpt lat="45.44148" lon="7.7654333"><ele>465.80000000000007</ele><time>2026-04-25T14:21:30.678Z</time></trkpt><trkpt lat="45.441445" lon="7.7655683"><ele>466.40000000000003</ele><time>2026-04-25T14:21:31.678Z</time></trkpt><trkpt lat="45.44141" lon="7.7656783"><ele>467.0</ele><time>2026-04-25T14:21:32.678Z</time></trkpt><trkpt lat="45.4413783" lon="7.76577"><ele>467.0</ele><time>2026-04-25T14:21:33.678Z</time></trkpt><trkpt lat="45.4413083" lon="7.7658983"><ele>467.00000000000006</ele><time>2026-04-25T14:21:35.678Z</time></trkpt><trkpt lat="45.4412567" lon="7.7659583"><ele>467.00000000000006</ele><time>2026-04-25T14:21:36.678Z</time></trkpt><trkpt lat="45.4412167" lon="7.766035"><ele>467.0</ele><time>2026-04-25T14:21:37.678Z</time></trkpt><trkpt lat="45.44123" lon="7.7662067"><ele>467.0</ele><time>2026-04-25T14:21:39.678Z</time></trkpt><trkpt lat="45.4412933" lon="7.7662883"><ele>468.25</ele><time>2026-04-25T14:21:40.678Z</time></trkpt><trkpt lat="45.44138" lon="7.7663783"><ele>469.5</ele><time>2026-04-25T14:21:41.678Z</time></trkpt><trkpt lat="45.4414717" lon="7.766505"><ele>470.75</ele><time>2026-04-25T14:21:42.678Z</time></trkpt><trkpt lat="45.44155" lon="7.76665"><ele>472.0</ele><time>2026-04-25T14:21:43.678Z</time></trkpt><trkpt lat="45.4416217" lon="7.7668117"><ele>473.5</ele><time>2026-04-25T14:21:44.678Z</time></trkpt><trkpt lat="45.4416883" lon="7.766975"><ele>475.0</ele><time>2026-04-25T14:21:45.678Z</time></trkpt><trkpt lat="45.4417583" lon="7.7671267"><ele>476.5</ele><time>2026-04-25T14:21:46.678Z</time></trkpt><trkpt lat="45.4418433" lon="7.76727"><ele>478.0</ele><time>2026-04-25T14:21:47.678Z</time></trkpt><trkpt lat="45.44194" lon="7.7674117"><ele>478.0</ele><time>2026-04-25T14:21:48.678Z</time></trkpt><trkpt lat="45.44205" lon="7.7675433"><ele>478.0</ele><time>2026-04-25T14:21:49.678Z</time></trkpt><trkpt lat="45.4421633" lon="7.76766"><ele>478.0</ele><time>2026-04-25T14:21:50.678Z</time></trkpt><trkpt lat="45.4422733" lon="7.76777"><ele>478.0</ele><time>2026-04-25T14:21:51.678Z</time></trkpt><trkpt lat="45.442395" lon="7.7678983"><ele>479.0</ele><time>2026-04-25T14:21:52.678Z</time></trkpt><trkpt lat="45.4425133" lon="7.768035"><ele>480.0</ele><time>2026-04-25T14:21:53.678Z</time></trkpt><trkpt lat="45.4426317" lon="7.768155"><ele>481.0</ele><time>2026-04-25T14:21:54.678Z</time></trkpt><trkpt lat="45.44274" lon="7.7682683"><ele>482.0</ele><time>2026-04-25T14:21:55.678Z</time></trkpt><trkpt lat="45.4428317" lon="7.76837"><ele>482.0</ele><time>2026-04-25T14:21:56.678Z</time></trkpt><trkpt lat="45.44292" lon="7.7684433"><ele>482.00000000000006</ele><time>2026-04-25T14:21:57.678Z</time></trkpt><trkpt lat="45.44302" lon="7.76846"><ele>482.00000000000006</ele><time>2026-04-25T14:21:58.678Z</time></trkpt><trkpt lat="45.4431183" lon="7.768425"><ele>482.0</ele><time>2026-04-25T14:21:59.678Z</time></trkpt><trkpt lat="45.4432183" lon="7.7683433"><ele>482.0</ele><time>2026-04-25T14:22:00.679Z</time></trkpt><trkpt lat="45.443325" lon="7.76823"><ele>483.5</ele><time>2026-04-25T14:22:01.678Z</time></trkpt><trkpt lat="45.4434367" lon="7.768135"><ele>485.0</ele><time>2026-04-25T14:22:02.678Z</time></trkpt><trkpt lat="45.44355" lon="7.768045"><ele>486.5</ele><time>2026-04-25T14:22:03.678Z</time></trkpt><trkpt lat="45.4436783" lon="7.7679533"><ele>488.0</ele><time>2026-04-25T14:22:04.678Z</time></trkpt><trkpt lat="45.4438117" lon="7.767835"><ele>490.0</ele><time>2026-04-25T14:22:05.678Z</time></trkpt><trkpt lat="45.443935" lon="7.7677083"><ele>492.0</ele><time>2026-04-25T14:22:06.678Z</time></trkpt><trkpt lat="45.4440417" lon="7.76755"><ele>494.0</ele><time>2026-04-25T14:22:07.678Z</time></trkpt><trkpt lat="45.4441517" lon="7.7673933"><ele>494.0</ele><time>2026-04-25T14:22:08.678Z</time></trkpt><trkpt lat="45.44427" lon="7.7672733"><ele>494.0</ele><time>2026-04-25T14:22:09.678Z</time></trkpt><trkpt lat="45.4444017" lon="7.7671683"><ele>494.0</ele><time>2026-04-25T14:22:10.678Z</time></trkpt><trkpt lat="45.4445617" lon="7.7670717"><ele>499.66666666666663</ele><time>2026-04-25T14:22:11.678Z</time></trkpt><trkpt lat="45.4447217" lon="7.767"><ele>505.33333333333337</ele><time>2026-04-25T14:22:12.678Z</time></trkpt><trkpt lat="45.4448817" lon="7.7669417"><ele>511.0</ele><time>2026-04-25T14:22:13.678Z</time></trkpt><trkpt lat="45.4450417" lon="7.7669083"><ele>511.0</ele><time>2026-04-25T14:22:14.678Z</time></trkpt><trkpt lat="45.445215" lon="7.7668717"><ele>511.0</ele><time>2026-04-25T14:22:15.678Z</time></trkpt><trkpt lat="45.445405" lon="7.7668"><ele>511.0</ele><time>2026-04-25T14:22:16.678Z</time></trkpt><trkpt lat="45.4456067" lon="7.7666983"><ele>512.0</ele><time>2026-04-25T14:22:17.678Z</time></trkpt><trkpt lat="45.4458117" lon="7.766565"><ele>513.0</ele><time>2026-04-25T14:22:18.678Z</time></trkpt><trkpt lat="45.446015" lon="7.766415"><ele>513.0</ele><time>2026-04-25T14:22:19.678Z</time></trkpt><trkpt lat="45.4462083" lon="7.7662367"><ele>513.0</ele><time>2026-04-25T14:22:20.678Z</time></trkpt><trkpt lat="45.4463933" lon="7.76605"><ele>514.3333333333334</ele><time>2026-04-25T14:22:21.679Z</time></trkpt><trkpt lat="45.446575" lon="7.7658883"><ele>515.6666666666667</ele><time>2026-04-25T14:22:22.678Z</time></trkpt><trkpt lat="45.4467683" lon="7.7657367"><ele>517.0</ele><time>2026-04-25T14:22:23.678Z</time></trkpt><trkpt lat="45.4469483" lon="7.7656083"><ele>517.0</ele><time>2026-04-25T14:22:24.678Z</time></trkpt><trkpt lat="45.447125" lon="7.7654767"><ele>517.0</ele><time>2026-04-25T14:22:25.678Z</time></trkpt><trkpt lat="45.447295" lon="7.76535"><ele>517.0</ele><time>2026-04-25T14:22:26.678Z</time></trkpt><trkpt lat="45.4474533" lon="7.765215"><ele>518.0</ele><time>2026-04-25T14:22:27.678Z</time></trkpt><trkpt lat="45.447605" lon="7.7650533"><ele>519.0</ele><time>2026-04-25T14:22:28.678Z</time></trkpt><trkpt lat="45.447735" lon="7.76484"><ele>520.0</ele><time>2026-04-25T14:22:29.678Z</time></trkpt><trkpt lat="45.447835" lon="7.7646067"><ele>520.0</ele><time>2026-04-25T14:22:30.678Z</time></trkpt><trkpt lat="45.4479133" lon="7.764385"><ele>520.0</ele><time>2026-04-25T14:22:31.678Z</time></trkpt><trkpt lat="45.4479717" lon="7.76416"><ele>520.0</ele><time>2026-04-25T14:22:32.678Z</time></trkpt><trkpt lat="45.448015" lon="7.76393"><ele>522.0</ele><time>2026-04-25T14:22:33.678Z</time></trkpt><trkpt lat="45.4480417" lon="7.7637133"><ele>524.0</ele><time>2026-04-25T14:22:34.678Z</time></trkpt><trkpt lat="45.4480467" lon="7.76351"><ele>526.0</ele><time>2026-04-25T14:22:35.678Z</time></trkpt><trkpt lat="45.448045" lon="7.763335"><ele>528.0</ele><time>2026-04-25T14:22:36.678Z</time></trkpt><trkpt lat="45.4480367" lon="7.76317"><ele>528.0</ele><time>2026-04-25T14:22:37.678Z</time></trkpt><trkpt lat="45.4480367" lon="7.7630267"><ele>528.0</ele><time>2026-04-25T14:22:38.678Z</time></trkpt><trkpt lat="45.4480767" lon="7.762925"><ele>528.0</ele><time>2026-04-25T14:22:39.678Z</time></trkpt><trkpt lat="45.44814" lon="7.762865"><ele>528.0</ele><time>2026-04-25T14:22:40.678Z</time></trkpt><trkpt lat="45.4482167" lon="7.7628617"><ele>528.0</ele><time>2026-04-25T14:22:41.678Z</time></trkpt><trkpt lat="45.4482933" lon="7.76292"><ele>528.0</ele><time>2026-04-25T14:22:42.678Z</time></trkpt><trkpt lat="45.4483733" lon="7.76306"><ele>528.0</ele><time>2026-04-25T14:22:43.678Z</time></trkpt><trkpt lat="45.4484517" lon="7.7632467"><ele>528.0</ele><time>2026-04-25T14:22:44.679Z</time></trkpt><trkpt lat="45.448525" lon="7.7634383"><ele>528.0</ele><time>2026-04-25T14:22:45.678Z</time></trkpt><trkpt lat="45.4485933" lon="7.7636083"><ele>528.0</ele><time>2026-04-25T14:22:46.678Z</time></trkpt><trkpt lat="45.44866" lon="7.763765"><ele>528.1999999999999</ele><time>2026-04-25T14:22:47.678Z</time></trkpt><trkpt lat="45.44873" lon="7.763915"><ele>528.4</ele><time>2026-04-25T14:22:48.678Z</time></trkpt><trkpt lat="45.448795" lon="7.764045"><ele>528.5999999999999</ele><time>2026-04-25T14:22:49.678Z</time></trkpt><trkpt lat="45.448855" lon="7.7641617"><ele>528.8</ele><time>2026-04-25T14:22:50.678Z</time></trkpt><trkpt lat="45.4489117" lon="7.764275"><ele>529.0</ele><time>2026-04-25T14:22:51.678Z</time></trkpt><trkpt lat="45.4489683" lon="7.7643933"><ele>531.6</ele><time>2026-04-25T14:22:52.678Z</time></trkpt><trkpt lat="45.4490267" lon="7.7645217"><ele>534.2</ele><time>2026-04-25T14:22:53.678Z</time></trkpt><trkpt lat="45.4490867" lon="7.7646467"><ele>536.8000000000001</ele><time>2026-04-25T14:22:54.678Z</time></trkpt><trkpt lat="45.4491467" lon="7.764785"><ele>539.4</ele><time>2026-04-25T14:22:55.678Z</time></trkpt><trkpt lat="45.4492117" lon="7.7649167"><ele>542.0</ele><time>2026-04-25T14:22:56.678Z</time></trkpt><trkpt lat="45.4492683" lon="7.7650567"><ele>542.0</ele><time>2026-04-25T14:22:57.678Z</time></trkpt><trkpt lat="45.4493333" lon="7.7651867"><ele>542.0</ele><time>2026-04-25T14:22:58.678Z</time></trkpt><trkpt lat="45.449395" lon="7.7653233"><ele>542.0</ele><time>2026-04-25T14:22:59.678Z</time></trkpt><trkpt lat="45.4494533" lon="7.7654533"><ele>542.0</ele><time>2026-04-25T14:23:00.678Z</time></trkpt><trkpt lat="45.4495217" lon="7.76558"><ele>542.0</ele><time>2026-04-25T14:23:01.678Z</time></trkpt><trkpt lat="45.4495933" lon="7.7657183"><ele>541.0</ele><time>2026-04-25T14:23:02.678Z</time></trkpt><trkpt lat="45.4496617" lon="7.7658633"><ele>540.0</ele><time>2026-04-25T14:23:03.678Z</time></trkpt><trkpt lat="45.4497333" lon="7.7660117"><ele>539.0</ele><time>2026-04-25T14:23:04.678Z</time></trkpt><trkpt lat="45.44981" lon="7.7661583"><ele>538.0</ele><time>2026-04-25T14:23:05.678Z</time></trkpt><trkpt lat="45.44989" lon="7.76632"><ele>541.25</ele><time>2026-04-25T14:23:06.678Z</time></trkpt><trkpt lat="45.44998" lon="7.76648"><ele>544.5</ele><time>2026-04-25T14:23:07.678Z</time></trkpt><trkpt lat="45.4500667" lon="7.7666417"><ele>547.75</ele><time>2026-04-25T14:23:08.678Z</time></trkpt><trkpt lat="45.4501467" lon="7.7668133"><ele>551.0</ele><time>2026-04-25T14:23:09.678Z</time></trkpt><trkpt lat="45.45024" lon="7.7670017"><ele>551.0</ele><time>2026-04-25T14:23:10.679Z</time></trkpt><trkpt lat="45.4503333" lon="7.7671783"><ele>551.0</ele><time>2026-04-25T14:23:11.678Z</time></trkpt><trkpt lat="45.45044" lon="7.76736"><ele>551.0</ele><time>2026-04-25T14:23:12.678Z</time></trkpt><trkpt lat="45.4505433" lon="7.76753"><ele>551.0</ele><time>2026-04-25T14:23:13.678Z</time></trkpt><trkpt lat="45.4506467" lon="7.7676933"><ele>551.0</ele><time>2026-04-25T14:23:14.678Z</time></trkpt><trkpt lat="45.4507383" lon="7.7678483"><ele>551.0</ele><time>2026-04-25T14:23:15.678Z</time></trkpt><trkpt lat="45.45082" lon="7.7679867"><ele>551.0</ele><time>2026-04-25T14:23:16.678Z</time></trkpt><trkpt lat="45.4509067" lon="7.7681267"><ele>553.75</ele><time>2026-04-25T14:23:17.678Z</time></trkpt><trkpt lat="45.4509833" lon="7.7682617"><ele>556.5</ele><time>2026-04-25T14:23:18.678Z</time></trkpt><trkpt lat="45.45106" lon="7.7683933"><ele>559.25</ele><time>2026-04-25T14:23:19.678Z</time></trkpt><trkpt lat="45.45112" lon="7.7685317"><ele>562.0</ele><time>2026-04-25T14:23:20.678Z</time></trkpt><trkpt lat="45.4511867" lon="7.768645"><ele>563.6666666666667</ele><time>2026-04-25T14:23:21.678Z</time></trkpt><trkpt lat="45.4512567" lon="7.7687283"><ele>565.3333333333334</ele><time>2026-04-25T14:23:22.679Z</time></trkpt><trkpt lat="45.4513383" lon="7.768785"><ele>567.0</ele><time>2026-04-25T14:23:23.678Z</time></trkpt><trkpt lat="45.4514317" lon="7.7688033"><ele>568.6666666666666</ele><time>2026-04-25T14:23:24.678Z</time></trkpt><trkpt lat="45.4515233" lon="7.7687967"><ele>570.3333333333333</ele><time>2026-04-25T14:23:25.678Z</time></trkpt><trkpt lat="45.4515983" lon="7.7687583"><ele>572.0</ele><time>2026-04-25T14:23:26.678Z</time></trkpt><trkpt lat="45.4516717" lon="7.7686917"><ele>572.0</ele><time>2026-04-25T14:23:27.678Z</time></trkpt><trkpt lat="45.4517283" lon="7.76858"><ele>572.0</ele><time>2026-04-25T14:23:28.678Z</time></trkpt><trkpt lat="45.451755" lon="7.7684283"><ele>572.0</ele><time>2026-04-25T14:23:29.678Z</time></trkpt><trkpt lat="45.4517467" lon="7.7682633"><ele>572.0</ele><time>2026-04-25T14:23:30.678Z</time></trkpt><trkpt lat="45.451695" lon="7.768095"><ele>570.2</ele><time>2026-04-25T14:23:31.678Z</time></trkpt><trkpt lat="45.4516317" lon="7.767945"><ele>568.4000000000001</ele><time>2026-04-25T14:23:32.678Z</time></trkpt><trkpt lat="45.4515833" lon="7.7678067"><ele>566.5999999999999</ele><time>2026-04-25T14:23:33.678Z</time></trkpt><trkpt lat="45.451555" lon="7.767685"><ele>564.8</ele><time>2026-04-25T14:23:34.678Z</time></trkpt><trkpt lat="45.45154" lon="7.7675683"><ele>563.0</ele><time>2026-04-25T14:23:35.679Z</time></trkpt><trkpt lat="45.4515533" lon="7.7674383"><ele>562.6</ele><time>2026-04-25T14:23:36.678Z</time></trkpt><trkpt lat="45.45159" lon="7.7673317"><ele>562.1999999999999</ele><time>2026-04-25T14:23:37.678Z</time></trkpt><trkpt lat="45.4516417" lon="7.767225"><ele>561.8</ele><time>2026-04-25T14:23:38.678Z</time></trkpt><trkpt lat="45.451705" lon="7.7671117"><ele>561.4</ele><time>2026-04-25T14:23:39.678Z</time></trkpt><trkpt lat="45.4517683" lon="7.767005"><ele>561.0</ele><time>2026-04-25T14:23:40.678Z</time></trkpt><trkpt lat="45.4518167" lon="7.7669133"><ele>561.5</ele><time>2026-04-25T14:23:41.679Z</time></trkpt><trkpt lat="45.4518583" lon="7.766835"><ele>562.0</ele><time>2026-04-25T14:23:42.678Z</time></trkpt><trkpt lat="45.45195" lon="7.7667267"><ele>562.5</ele><time>2026-04-25T14:23:44.678Z</time></trkpt><trkpt lat="45.4520133" lon="7.7667117"><ele>563.0</ele><time>2026-04-25T14:23:45.678Z</time></trkpt><trkpt lat="45.4520767" lon="7.766745"><ele>563.5</ele><time>2026-04-25T14:23:46.678Z</time></trkpt><trkpt lat="45.452135" lon="7.7668167"><ele>564.0</ele><time>2026-04-25T14:23:47.678Z</time></trkpt><trkpt lat="45.45219" lon="7.7668983"><ele>564.8333333333334</ele><time>2026-04-25T14:23:48.678Z</time></trkpt><trkpt lat="45.4522367" lon="7.7669967"><ele>565.6666666666666</ele><time>2026-04-25T14:23:49.678Z</time></trkpt><trkpt lat="45.452285" lon="7.7670883"><ele>566.5</ele><time>2026-04-25T14:23:50.678Z</time></trkpt><trkpt lat="45.4523317" lon="7.7671783"><ele>567.3333333333333</ele><time>2026-04-25T14:23:51.678Z</time></trkpt><trkpt lat="45.4523817" lon="7.7672583"><ele>568.1666666666666</ele><time>2026-04-25T14:23:52.678Z</time></trkpt><trkpt lat="45.45243" lon="7.767325"><ele>569.0</ele><time>2026-04-25T14:23:53.678Z</time></trkpt><trkpt lat="45.4525033" lon="7.7673883"><ele>569.0</ele><time>2026-04-25T14:23:54.678Z</time></trkpt><trkpt lat="45.4525917" lon="7.7674367"><ele>569.0</ele><time>2026-04-25T14:23:55.678Z</time></trkpt><trkpt lat="45.45269" lon="7.7674517"><ele>569.0</ele><time>2026-04-25T14:23:56.678Z</time></trkpt><trkpt lat="45.4528017" lon="7.7674533"><ele>569.0</ele><time>2026-04-25T14:23:57.678Z</time></trkpt><trkpt lat="45.452915" lon="7.76742"><ele>569.0</ele><time>2026-04-25T14:23:58.678Z</time></trkpt><trkpt lat="45.4530317" lon="7.7673683"><ele>567.75</ele><time>2026-04-25T14:23:59.678Z</time></trkpt><trkpt lat="45.453145" lon="7.7673067"><ele>566.5</ele><time>2026-04-25T14:24:00.678Z</time></trkpt><trkpt lat="45.4532533" lon="7.767245"><ele>565.25</ele><time>2026-04-25T14:24:01.678Z</time></trkpt><trkpt lat="45.4533617" lon="7.76718"><ele>564.0</ele><time>2026-04-25T14:24:02.678Z</time></trkpt><trkpt lat="45.4534717" lon="7.7671183"><ele>564.0</ele><time>2026-04-25T14:24:03.678Z</time></trkpt><trkpt lat="45.45359" lon="7.7670433"><ele>564.0</ele><time>2026-04-25T14:24:04.678Z</time></trkpt><trkpt lat="45.453705" lon="7.7669783"><ele>564.0</ele><time>2026-04-25T14:24:05.679Z</time></trkpt><trkpt lat="45.45382" lon="7.76691"><ele>564.0</ele><time>2026-04-25T14:24:06.678Z</time></trkpt><trkpt lat="45.4539317" lon="7.7668483"><ele>564.5</ele><time>2026-04-25T14:24:07.678Z</time></trkpt><trkpt lat="45.4540433" lon="7.7667983"><ele>565.0</ele><time>2026-04-25T14:24:08.678Z</time></trkpt><trkpt lat="45.454155" lon="7.7667617"><ele>565.5</ele><time>2026-04-25T14:24:09.678Z</time></trkpt><trkpt lat="45.454275" lon="7.7667167"><ele>566.0</ele><time>2026-04-25T14:24:10.677Z</time></trkpt><trkpt lat="45.4543983" lon="7.76668"><ele>566.0</ele><time>2026-04-25T14:24:11.677Z</time></trkpt><trkpt lat="45.454525" lon="7.7666283"><ele>566.0</ele><time>2026-04-25T14:24:12.677Z</time></trkpt><trkpt lat="45.454675" lon="7.7666067"><ele>566.0</ele><time>2026-04-25T14:24:13.677Z</time></trkpt><trkpt lat="45.4547867" lon="7.7665683"><ele>566.0</ele><time>2026-04-25T14:24:14.677Z</time></trkpt><trkpt lat="45.4548933" lon="7.7665383"><ele>566.2</ele><time>2026-04-25T14:24:15.677Z</time></trkpt><trkpt lat="45.4550033" lon="7.7665033"><ele>566.4000000000001</ele><time>2026-04-25T14:24:16.677Z</time></trkpt><trkpt lat="45.4551067" lon="7.7664583"><ele>566.6</ele><time>2026-04-25T14:24:17.677Z</time></trkpt><trkpt lat="45.4552083" lon="7.7664333"><ele>566.8000000000001</ele><time>2026-04-25T14:24:18.677Z</time></trkpt><trkpt lat="45.4553067" lon="7.7664333"><ele>567.0</ele><time>2026-04-25T14:24:19.677Z</time></trkpt><trkpt lat="45.4553933" lon="7.7664583"><ele>567.0</ele><time>2026-04-25T14:24:20.677Z</time></trkpt><trkpt lat="45.4554733" lon="7.7665217"><ele>567.0</ele><time>2026-04-25T14:24:21.677Z</time></trkpt><trkpt lat="45.4555417" lon="7.766595"><ele>567.0</ele><time>2026-04-25T14:24:22.678Z</time></trkpt><trkpt lat="45.4556083" lon="7.7666767"><ele>567.0</ele><time>2026-04-25T14:24:23.677Z</time></trkpt><trkpt lat="45.45568" lon="7.7667433"><ele>567.0</ele><time>2026-04-25T14:24:24.677Z</time></trkpt><trkpt lat="45.455765" lon="7.7667917"><ele>567.0</ele><time>2026-04-25T14:24:25.678Z</time></trkpt><trkpt lat="45.4558567" lon="7.766825"><ele>567.0</ele><time>2026-04-25T14:24:26.677Z</time></trkpt><trkpt lat="45.45597" lon="7.7668483"><ele>567.0</ele><time>2026-04-25T14:24:27.677Z</time></trkpt><trkpt lat="45.45608" lon="7.7668467"><ele>567.0</ele><time>2026-04-25T14:24:28.677Z</time></trkpt><trkpt lat="45.456185" lon="7.7668317"><ele>567.0</ele><time>2026-04-25T14:24:29.677Z</time></trkpt><trkpt lat="45.456285" lon="7.7667967"><ele>567.0</ele><time>2026-04-25T14:24:30.677Z</time></trkpt><trkpt lat="45.4563933" lon="7.766765"><ele>567.25</ele><time>2026-04-25T14:24:31.677Z</time></trkpt><trkpt lat="45.4565017" lon="7.7667533"><ele>567.5</ele><time>2026-04-25T14:24:32.677Z</time></trkpt><trkpt lat="45.4566167" lon="7.766755"><ele>567.75</ele><time>2026-04-25T14:24:33.677Z</time></trkpt><trkpt lat="45.4567283" lon="7.7667817"><ele>568.0</ele><time>2026-04-25T14:24:34.678Z</time></trkpt><trkpt lat="45.4568433" lon="7.766805"><ele>568.0</ele><time>2026-04-25T14:24:35.677Z</time></trkpt><trkpt lat="45.456955" lon="7.76682"><ele>568.0</ele><time>2026-04-25T14:24:36.677Z</time></trkpt><trkpt lat="45.4570733" lon="7.7668317"><ele>568.0</ele><time>2026-04-25T14:24:37.677Z</time></trkpt><trkpt lat="45.4571917" lon="7.76684"><ele>568.0</ele><time>2026-04-25T14:24:38.677Z</time></trkpt><trkpt lat="45.4573083" lon="7.7668617"><ele>570.5</ele><time>2026-04-25T14:24:39.677Z</time></trkpt><trkpt lat="45.457425" lon="7.7668933"><ele>573.0</ele><time>2026-04-25T14:24:40.677Z</time></trkpt><trkpt lat="45.457545" lon="7.7669217"><ele>575.5</ele><time>2026-04-25T14:24:41.677Z</time></trkpt><trkpt lat="45.45765" lon="7.7669667"><ele>578.0</ele><time>2026-04-25T14:24:42.677Z</time></trkpt><trkpt lat="45.4577717" lon="7.7670233"><ele>578.0</ele><time>2026-04-25T14:24:43.677Z</time></trkpt><trkpt lat="45.4578983" lon="7.76708"><ele>578.0</ele><time>2026-04-25T14:24:44.677Z</time></trkpt><trkpt lat="45.4580333" lon="7.76712"><ele>578.0</ele><time>2026-04-25T14:24:45.677Z</time></trkpt><trkpt lat="45.4581667" lon="7.7671317"><ele>578.0</ele><time>2026-04-25T14:24:46.677Z</time></trkpt><trkpt lat="45.4582967" lon="7.7671433"><ele>578.25</ele><time>2026-04-25T14:24:47.677Z</time></trkpt><trkpt lat="45.458435" lon="7.7671433"><ele>578.5</ele><time>2026-04-25T14:24:48.677Z</time></trkpt><trkpt lat="45.458565" lon="7.7671433"><ele>578.75</ele><time>2026-04-25T14:24:49.677Z</time></trkpt><trkpt lat="45.458685" lon="7.7671617"><ele>579.0</ele><time>2026-04-25T14:24:50.677Z</time></trkpt><trkpt lat="45.4587933" lon="7.7671717"><ele>579.0</ele><time>2026-04-25T14:24:51.677Z</time></trkpt><trkpt lat="45.4589" lon="7.76719"><ele>579.0</ele><time>2026-04-25T14:24:52.677Z</time></trkpt><trkpt lat="45.4589967" lon="7.7672167"><ele>579.0</ele><time>2026-04-25T14:24:53.677Z</time></trkpt><trkpt lat="45.4590933" lon="7.7672383"><ele>579.0</ele><time>2026-04-25T14:24:54.677Z</time></trkpt><trkpt lat="45.4591833" lon="7.7672633"><ele>579.0</ele><time>2026-04-25T14:24:55.677Z</time></trkpt><trkpt lat="45.45929" lon="7.767255"><ele>579.0</ele><time>2026-04-25T14:24:56.677Z</time></trkpt><trkpt lat="45.4594117" lon="7.767215"><ele>579.0</ele><time>2026-04-25T14:24:57.677Z</time></trkpt><trkpt lat="45.459545" lon="7.7671383"><ele>579.0</ele><time>2026-04-25T14:24:58.677Z</time></trkpt><trkpt lat="45.4596983" lon="7.7670483"><ele>579.0</ele><time>2026-04-25T14:24:59.677Z</time></trkpt><trkpt lat="45.4598533" lon="7.7669567"><ele>580.3333333333334</ele><time>2026-04-25T14:25:00.677Z</time></trkpt><trkpt lat="45.4600167" lon="7.7668633"><ele>581.6666666666667</ele><time>2026-04-25T14:25:01.677Z</time></trkpt><trkpt lat="45.46019" lon="7.7667633"><ele>583.0</ele><time>2026-04-25T14:25:02.677Z</time></trkpt><trkpt lat="45.4603683" lon="7.766665"><ele>585.0</ele><time>2026-04-25T14:25:03.677Z</time></trkpt><trkpt lat="45.4605367" lon="7.7665733"><ele>587.0</ele><time>2026-04-25T14:25:04.677Z</time></trkpt><trkpt lat="45.460715" lon="7.7664783"><ele>589.0</ele><time>2026-04-25T14:25:05.677Z</time></trkpt><trkpt lat="45.4608967" lon="7.7663733"><ele>589.0</ele><time>2026-04-25T14:25:06.677Z</time></trkpt><trkpt lat="45.4610983" lon="7.7662817"><ele>589.0</ele><time>2026-04-25T14:25:07.677Z</time></trkpt><trkpt lat="45.4613267" lon="7.76619"><ele>589.0</ele><time>2026-04-25T14:25:08.677Z</time></trkpt><trkpt lat="45.46155" lon="7.7661133"><ele>585.5</ele><time>2026-04-25T14:25:09.677Z</time></trkpt><trkpt lat="45.4617817" lon="7.7660417"><ele>582.0</ele><time>2026-04-25T14:25:10.677Z</time></trkpt><trkpt lat="45.4620117" lon="7.7659633"><ele>568.5</ele><time>2026-04-25T14:25:11.677Z</time></trkpt><trkpt lat="45.46224" lon="7.7659117"><ele>555.0</ele><time>2026-04-25T14:25:12.677Z</time></trkpt><trkpt lat="45.4624833" lon="7.765855"><ele>555.0</ele><time>2026-04-25T14:25:13.677Z</time></trkpt><trkpt lat="45.4627317" lon="7.7658017"><ele>555.0</ele><time>2026-04-25T14:25:14.677Z</time></trkpt><trkpt lat="45.4629733" lon="7.7657333"><ele>559.0</ele><time>2026-04-25T14:25:15.677Z</time></trkpt><trkpt lat="45.4632033" lon="7.765675"><ele>563.0</ele><time>2026-04-25T14:25:16.677Z</time></trkpt><trkpt lat="45.4634217" lon="7.7656167"><ele>563.0</ele><time>2026-04-25T14:25:17.677Z</time></trkpt><trkpt lat="45.4636267" lon="7.7655683"><ele>563.0</ele><time>2026-04-25T14:25:18.677Z</time></trkpt><trkpt lat="45.4638183" lon="7.7655167"><ele>563.0</ele><time>2026-04-25T14:25:19.677Z</time></trkpt><trkpt lat="45.4640083" lon="7.76546"><ele>568.0</ele><time>2026-04-25T14:25:20.677Z</time></trkpt><trkpt lat="45.4642017" lon="7.76542"><ele>573.0</ele><time>2026-04-25T14:25:21.677Z</time></trkpt><trkpt lat="45.4643933" lon="7.7653733"><ele>578.0</ele><time>2026-04-25T14:25:22.677Z</time></trkpt><trkpt lat="45.464565" lon="7.7653283"><ele>580.6666666666666</ele><time>2026-04-25T14:25:23.677Z</time></trkpt><trkpt lat="45.46472" lon="7.7652517"><ele>583.3333333333334</ele><time>2026-04-25T14:25:24.677Z</time></trkpt><trkpt lat="45.4648533" lon="7.765145"><ele>586.0</ele><time>2026-04-25T14:25:25.677Z</time></trkpt><trkpt lat="45.4649567" lon="7.7650083"><ele>587.5</ele><time>2026-04-25T14:25:26.677Z</time></trkpt><trkpt lat="45.465" lon="7.764845"><ele>589.0</ele><time>2026-04-25T14:25:27.677Z</time></trkpt><trkpt lat="45.4649917" lon="7.7646467"><ele>590.5</ele><time>2026-04-25T14:25:28.677Z</time></trkpt><trkpt lat="45.464955" lon="7.7644417"><ele>592.0</ele><time>2026-04-25T14:25:29.677Z</time></trkpt><trkpt lat="45.4648983" lon="7.76424"><ele>594.25</ele><time>2026-04-25T14:25:30.677Z</time></trkpt><trkpt lat="45.464815" lon="7.7640367"><ele>596.5</ele><time>2026-04-25T14:25:31.677Z</time></trkpt><trkpt lat="45.4647267" lon="7.7638633"><ele>598.75</ele><time>2026-04-25T14:25:32.677Z</time></trkpt><trkpt lat="45.464635" lon="7.7637283"><ele>601.0</ele><time>2026-04-25T14:25:33.677Z</time></trkpt><trkpt lat="45.464545" lon="7.7636"><ele>599.25</ele><time>2026-04-25T14:25:34.677Z</time></trkpt><trkpt lat="45.4644917" lon="7.7634417"><ele>597.5</ele><time>2026-04-25T14:25:35.677Z</time></trkpt><trkpt lat="45.4644583" lon="7.7632417"><ele>595.75</ele><time>2026-04-25T14:25:36.677Z</time></trkpt><trkpt lat="45.464435" lon="7.7630283"><ele>594.0</ele><time>2026-04-25T14:25:37.677Z</time></trkpt><trkpt lat="45.4644333" lon="7.762815"><ele>596.0</ele><time>2026-04-25T14:25:38.677Z</time></trkpt><trkpt lat="45.4644583" lon="7.7625717"><ele>598.0</ele><time>2026-04-25T14:25:39.677Z</time></trkpt><trkpt lat="45.464505" lon="7.7623033"><ele>600.0</ele><time>2026-04-25T14:25:40.678Z</time></trkpt><trkpt lat="45.46456" lon="7.7620217"><ele>600.3333333333334</ele><time>2026-04-25T14:25:41.677Z</time></trkpt><trkpt lat="45.46461" lon="7.761775"><ele>600.6666666666667</ele><time>2026-04-25T14:25:42.677Z</time></trkpt><trkpt lat="45.4646433" lon="7.761535"><ele>601.0</ele><time>2026-04-25T14:25:43.678Z</time></trkpt><trkpt lat="45.464655" lon="7.761305"><ele>604.0</ele><time>2026-04-25T14:25:44.677Z</time></trkpt><trkpt lat="45.4646233" lon="7.76108"><ele>607.0</ele><time>2026-04-25T14:25:45.677Z</time></trkpt><trkpt lat="45.4645667" lon="7.76088"><ele>610.0</ele><time>2026-04-25T14:25:46.677Z</time></trkpt><trkpt lat="45.4645067" lon="7.7607033"><ele>610.0</ele><time>2026-04-25T14:25:47.677Z</time></trkpt><trkpt lat="45.4644633" lon="7.7605683"><ele>610.0</ele><time>2026-04-25T14:25:48.677Z</time></trkpt><trkpt lat="45.4644633" lon="7.76046"><ele>610.0</ele><time>2026-04-25T14:25:49.677Z</time></trkpt><trkpt lat="45.464545" lon="7.76038"><ele>610.0</ele><time>2026-04-25T14:25:51.677Z</time></trkpt><trkpt lat="45.4646167" lon="7.76044"><ele>610.0</ele><time>2026-04-25T14:25:52.677Z</time></trkpt><trkpt lat="45.4647083" lon="7.7605633"><ele>613.3333333333334</ele><time>2026-04-25T14:25:53.677Z</time></trkpt><trkpt lat="45.4648117" lon="7.7607567"><ele>616.6666666666666</ele><time>2026-04-25T14:25:54.678Z</time></trkpt><trkpt lat="45.4649383" lon="7.76103"><ele>620.0</ele><time>2026-04-25T14:25:55.677Z</time></trkpt><trkpt lat="45.4650733" lon="7.7612833"><ele>620.0</ele><time>2026-04-25T14:25:56.677Z</time></trkpt><trkpt lat="45.4652133" lon="7.761465"><ele>620.0</ele><time>2026-04-25T14:25:57.677Z</time></trkpt><trkpt lat="45.465345" lon="7.76158"><ele>620.0</ele><time>2026-04-25T14:25:58.677Z</time></trkpt><trkpt lat="45.4654633" lon="7.761635"><ele>621.4</ele><time>2026-04-25T14:25:59.677Z</time></trkpt><trkpt lat="45.46556" lon="7.7616233"><ele>622.8</ele><time>2026-04-25T14:26:00.677Z</time></trkpt><trkpt lat="45.4656367" lon="7.7615717"><ele>624.2</ele><time>2026-04-25T14:26:01.677Z</time></trkpt><trkpt lat="45.4656917" lon="7.7614933"><ele>625.6</ele><time>2026-04-25T14:26:02.677Z</time></trkpt><trkpt lat="45.4657633" lon="7.7614067"><ele>627.0</ele><time>2026-04-25T14:26:03.677Z</time></trkpt><trkpt lat="45.4658533" lon="7.7613417"><ele>627.0</ele><time>2026-04-25T14:26:04.677Z</time></trkpt><trkpt lat="45.4659633" lon="7.7613017"><ele>627.0</ele><time>2026-04-25T14:26:05.677Z</time></trkpt><trkpt lat="45.4660933" lon="7.76129"><ele>627.0</ele><time>2026-04-25T14:26:06.678Z</time></trkpt><trkpt lat="45.4662433" lon="7.761305"><ele>627.0</ele><time>2026-04-25T14:26:07.677Z</time></trkpt><trkpt lat="45.4664117" lon="7.76133"><ele>629.0</ele><time>2026-04-25T14:26:08.677Z</time></trkpt><trkpt lat="45.4665683" lon="7.7613467"><ele>631.0</ele><time>2026-04-25T14:26:09.677Z</time></trkpt><trkpt lat="45.4667233" lon="7.7613717"><ele>633.0</ele><time>2026-04-25T14:26:10.677Z</time></trkpt><trkpt lat="45.4668917" lon="7.7613917"><ele>633.0</ele><time>2026-04-25T14:26:11.677Z</time></trkpt><trkpt lat="45.4670517" lon="7.7614017"><ele>633.0</ele><time>2026-04-25T14:26:12.677Z</time></trkpt><trkpt lat="45.4672033" lon="7.7614317"><ele>633.0</ele><time>2026-04-25T14:26:13.677Z</time></trkpt><trkpt lat="45.4673667" lon="7.7614583"><ele>635.0</ele><time>2026-04-25T14:26:14.677Z</time></trkpt><trkpt lat="45.467555" lon="7.7614833"><ele>637.0</ele><time>2026-04-25T14:26:15.677Z</time></trkpt><trkpt lat="45.4677517" lon="7.7615117"><ele>639.0</ele><time>2026-04-25T14:26:16.677Z</time></trkpt><trkpt lat="45.467945" lon="7.761535"><ele>641.0</ele><time>2026-04-25T14:26:17.677Z</time></trkpt><trkpt lat="45.4681283" lon="7.7615667"><ele>643.0</ele><time>2026-04-25T14:26:18.677Z</time></trkpt><trkpt lat="45.4683033" lon="7.761585"><ele>645.0</ele><time>2026-04-25T14:26:19.677Z</time></trkpt><trkpt lat="45.4684733" lon="7.7616017"><ele>645.0</ele><time>2026-04-25T14:26:20.677Z</time></trkpt><trkpt lat="45.4686383" lon="7.7616183"><ele>645.0</ele><time>2026-04-25T14:26:21.677Z</time></trkpt><trkpt lat="45.468805" lon="7.7616417"><ele>645.0</ele><time>2026-04-25T14:26:22.677Z</time></trkpt><trkpt lat="45.4689533" lon="7.7616617"><ele>645.0</ele><time>2026-04-25T14:26:23.677Z</time></trkpt><trkpt lat="45.4691" lon="7.7617017"><ele>645.0</ele><time>2026-04-25T14:26:24.677Z</time></trkpt><trkpt lat="45.4692467" lon="7.761785"><ele>645.0</ele><time>2026-04-25T14:26:25.677Z</time></trkpt><trkpt lat="45.4693833" lon="7.7619"><ele>645.0</ele><time>2026-04-25T14:26:26.677Z</time></trkpt><trkpt lat="45.4695017" lon="7.7620417"><ele>645.0</ele><time>2026-04-25T14:26:27.677Z</time></trkpt><trkpt lat="45.4696083" lon="7.762205"><ele>645.0</ele><time>2026-04-25T14:26:28.677Z</time></trkpt><trkpt lat="45.4697167" lon="7.762365"><ele>648.0</ele><time>2026-04-25T14:26:29.677Z</time></trkpt><trkpt lat="45.4698367" lon="7.7624983"><ele>651.0</ele><time>2026-04-25T14:26:30.677Z</time></trkpt><trkpt lat="45.4699633" lon="7.7626417"><ele>654.0</ele><time>2026-04-25T14:26:31.677Z</time></trkpt><trkpt lat="45.4701017" lon="7.76278"><ele>654.0</ele><time>2026-04-25T14:26:32.677Z</time></trkpt><trkpt lat="45.4702367" lon="7.7628933"><ele>654.0</ele><time>2026-04-25T14:26:33.678Z</time></trkpt><trkpt lat="45.470385" lon="7.7629967"><ele>654.0</ele><time>2026-04-25T14:26:34.677Z</time></trkpt><trkpt lat="45.4705367" lon="7.7630783"><ele>656.0</ele><time>2026-04-25T14:26:35.677Z</time></trkpt><trkpt lat="45.4706883" lon="7.7631533"><ele>658.0</ele><time>2026-04-25T14:26:36.677Z</time></trkpt><trkpt lat="45.4708467" lon="7.7632133"><ele>660.0</ele><time>2026-04-25T14:26:37.677Z</time></trkpt><trkpt lat="45.470995" lon="7.7632583"><ele>660.0</ele><time>2026-04-25T14:26:38.677Z</time></trkpt><trkpt lat="45.4711333" lon="7.7633"><ele>660.0</ele><time>2026-04-25T14:26:39.677Z</time></trkpt><trkpt lat="45.4712717" lon="7.76334"><ele>660.0</ele><time>2026-04-25T14:26:40.677Z</time></trkpt><trkpt lat="45.4714083" lon="7.7633933"><ele>660.0</ele><time>2026-04-25T14:26:41.677Z</time></trkpt><trkpt lat="45.471545" lon="7.7634633"><ele>661.8</ele><time>2026-04-25T14:26:42.677Z</time></trkpt><trkpt lat="45.4716617" lon="7.7635317"><ele>663.6</ele><time>2026-04-25T14:26:43.677Z</time></trkpt><trkpt lat="45.4717633" lon="7.7636067"><ele>665.4000000000001</ele><time>2026-04-25T14:26:44.677Z</time></trkpt><trkpt lat="45.4718333" lon="7.7636833"><ele>667.2</ele><time>2026-04-25T14:26:45.677Z</time></trkpt><trkpt lat="45.4719333" lon="7.7637667"><ele>669.0</ele><time>2026-04-25T14:26:47.677Z</time></trkpt><trkpt lat="45.4720133" lon="7.76368"><ele>669.0</ele><time>2026-04-25T14:26:49.677Z</time></trkpt><trkpt lat="45.47204" lon="7.7635867"><ele>669.0</ele><time>2026-04-25T14:26:50.677Z</time></trkpt><trkpt lat="45.4720633" lon="7.7635033"><ele>669.0</ele><time>2026-04-25T14:26:51.677Z</time></trkpt><trkpt lat="45.47213" lon="7.7634233"><ele>669.0</ele><time>2026-04-25T14:26:53.677Z</time></trkpt><trkpt lat="45.4722467" lon="7.7634983"><ele>669.0</ele><time>2026-04-25T14:26:55.677Z</time></trkpt><trkpt lat="45.4723217" lon="7.7635667"><ele>669.0</ele><time>2026-04-25T14:26:56.677Z</time></trkpt><trkpt lat="45.4724067" lon="7.7636517"><ele>669.0</ele><time>2026-04-25T14:26:57.677Z</time></trkpt><trkpt lat="45.47249" lon="7.7637383"><ele>669.0</ele><time>2026-04-25T14:26:58.677Z</time></trkpt><trkpt lat="45.4725783" lon="7.76378"><ele>669.0</ele><time>2026-04-25T14:26:59.677Z</time></trkpt><trkpt lat="45.4726833" lon="7.7637867"><ele>669.0</ele><time>2026-04-25T14:27:00.677Z</time></trkpt><trkpt lat="45.472795" lon="7.763795"><ele>669.0</ele><time>2026-04-25T14:27:01.677Z</time></trkpt><trkpt lat="45.4729083" lon="7.7638533"><ele>670.4000000000001</ele><time>2026-04-25T14:27:02.677Z</time></trkpt><trkpt lat="45.4730017" lon="7.7639533"><ele>671.8</ele><time>2026-04-25T14:27:03.677Z</time></trkpt><trkpt lat="45.473085" lon="7.7640517"><ele>673.2</ele><time>2026-04-25T14:27:04.677Z</time></trkpt><trkpt lat="45.4731683" lon="7.764135"><ele>674.5999999999999</ele><time>2026-04-25T14:27:05.677Z</time></trkpt><trkpt lat="45.4732533" lon="7.764245"><ele>676.0</ele><time>2026-04-25T14:27:06.677Z</time></trkpt><trkpt lat="45.47335" lon="7.7643783"><ele>676.0</ele><time>2026-04-25T14:27:07.677Z</time></trkpt><trkpt lat="45.4734583" lon="7.764505"><ele>676.0</ele><time>2026-04-25T14:27:08.677Z</time></trkpt><trkpt lat="45.473565" lon="7.7646117"><ele>676.0</ele><time>2026-04-25T14:27:09.677Z</time></trkpt><trkpt lat="45.47367" lon="7.7647217"><ele>676.0</ele><time>2026-04-25T14:27:10.677Z</time></trkpt><trkpt lat="45.4737617" lon="7.7648333"><ele>679.5999999999999</ele><time>2026-04-25T14:27:11.677Z</time></trkpt><trkpt lat="45.473855" lon="7.7649233"><ele>683.2</ele><time>2026-04-25T14:27:12.677Z</time></trkpt><trkpt lat="45.4739467" lon="7.7650033"><ele>686.8</ele><time>2026-04-25T14:27:13.677Z</time></trkpt><trkpt lat="45.47403" lon="7.7650767"><ele>690.4000000000001</ele><time>2026-04-25T14:27:14.677Z</time></trkpt><trkpt lat="45.4741083" lon="7.76513"><ele>694.0</ele><time>2026-04-25T14:27:15.678Z</time></trkpt><trkpt lat="45.4741917" lon="7.7651817"><ele>692.0</ele><time>2026-04-25T14:27:16.677Z</time></trkpt><trkpt lat="45.4742783" lon="7.7652217"><ele>690.0</ele><time>2026-04-25T14:27:17.677Z</time></trkpt><trkpt lat="45.4743783" lon="7.76527"><ele>688.0</ele><time>2026-04-25T14:27:18.677Z</time></trkpt><trkpt lat="45.4744717" lon="7.7653283"><ele>686.0</ele><time>2026-04-25T14:27:19.677Z</time></trkpt><trkpt lat="45.4745633" lon="7.7653967"><ele>684.0</ele><time>2026-04-25T14:27:20.677Z</time></trkpt><trkpt lat="45.474645" lon="7.7654967"><ele>688.8000000000001</ele><time>2026-04-25T14:27:21.677Z</time></trkpt><trkpt lat="45.4747183" lon="7.7655967"><ele>693.6</ele><time>2026-04-25T14:27:22.677Z</time></trkpt><trkpt lat="45.474765" lon="7.7657217"><ele>698.4</ele><time>2026-04-25T14:27:23.677Z</time></trkpt><trkpt lat="45.474785" lon="7.7658683"><ele>703.2</ele><time>2026-04-25T14:27:24.677Z</time></trkpt><trkpt lat="45.474805" lon="7.766025"><ele>708.0</ele><time>2026-04-25T14:27:25.677Z</time></trkpt><trkpt lat="45.47483" lon="7.7662033"><ele>708.0</ele><time>2026-04-25T14:27:26.677Z</time></trkpt><trkpt lat="45.4748733" lon="7.76637"><ele>708.0</ele><time>2026-04-25T14:27:27.677Z</time></trkpt><trkpt lat="45.474925" lon="7.766535"><ele>708.0</ele><time>2026-04-25T14:27:28.677Z</time></trkpt><trkpt lat="45.47498" lon="7.7666983"><ele>708.0</ele><time>2026-04-25T14:27:29.677Z</time></trkpt><trkpt lat="45.4750267" lon="7.7668483"><ele>705.25</ele><time>2026-04-25T14:27:30.677Z</time></trkpt><trkpt lat="45.4750883" lon="7.7670033"><ele>702.5</ele><time>2026-04-25T14:27:31.677Z</time></trkpt><trkpt lat="45.4751583" lon="7.767165"><ele>699.75</ele><time>2026-04-25T14:27:32.677Z</time></trkpt><trkpt lat="45.4752267" lon="7.7673283"><ele>697.0</ele><time>2026-04-25T14:27:33.677Z</time></trkpt><trkpt lat="45.4752983" lon="7.767485"><ele>697.0</ele><time>2026-04-25T14:27:34.677Z</time></trkpt><trkpt lat="45.475365" lon="7.767615"><ele>697.0</ele><time>2026-04-25T14:27:35.677Z</time></trkpt><trkpt lat="45.4754233" lon="7.7677467"><ele>697.0</ele><time>2026-04-25T14:27:36.677Z</time></trkpt><trkpt lat="45.475485" lon="7.7678633"><ele>697.0</ele><time>2026-04-25T14:27:37.677Z</time></trkpt><trkpt lat="45.47554" lon="7.7679783"><ele>697.0</ele><time>2026-04-25T14:27:38.678Z</time></trkpt><trkpt lat="45.4755817" lon="7.7680933"><ele>703.5</ele><time>2026-04-25T14:27:39.677Z</time></trkpt><trkpt lat="45.47561" lon="7.7682417"><ele>710.0</ele><time>2026-04-25T14:27:40.677Z</time></trkpt><trkpt lat="45.4756217" lon="7.7684067"><ele>716.5</ele><time>2026-04-25T14:27:41.677Z</time></trkpt><trkpt lat="45.47563" lon="7.768575"><ele>723.0</ele><time>2026-04-25T14:27:42.677Z</time></trkpt><trkpt lat="45.4756567" lon="7.76874"><ele>723.0</ele><time>2026-04-25T14:27:43.677Z</time></trkpt><trkpt lat="45.4757067" lon="7.768895"><ele>723.0</ele><time>2026-04-25T14:27:44.677Z</time></trkpt><trkpt lat="45.4757583" lon="7.7690017"><ele>723.0</ele><time>2026-04-25T14:27:45.677Z</time></trkpt><trkpt lat="45.4758133" lon="7.76913"><ele>723.0</ele><time>2026-04-25T14:27:46.677Z</time></trkpt><trkpt lat="45.4758533" lon="7.7692567"><ele>723.0</ele><time>2026-04-25T14:27:47.677Z</time></trkpt><trkpt lat="45.4758833" lon="7.7693767"><ele>724.8</ele><time>2026-04-25T14:27:48.677Z</time></trkpt><trkpt lat="45.4759067" lon="7.7695"><ele>726.5999999999999</ele><time>2026-04-25T14:27:49.677Z</time></trkpt><trkpt lat="45.4758883" lon="7.7696483"><ele>728.4000000000001</ele><time>2026-04-25T14:27:50.677Z</time></trkpt><trkpt lat="45.4758583" lon="7.7697983"><ele>730.2</ele><time>2026-04-25T14:27:51.677Z</time></trkpt><trkpt lat="45.475825" lon="7.7699583"><ele>732.0</ele><time>2026-04-25T14:27:52.677Z</time></trkpt><trkpt lat="45.4757933" lon="7.7701433"><ele>734.6666666666666</ele><time>2026-04-25T14:27:53.677Z</time></trkpt><trkpt lat="45.4757783" lon="7.7703483"><ele>737.3333333333333</ele><time>2026-04-25T14:27:54.677Z</time></trkpt><trkpt lat="45.4757567" lon="7.7705683"><ele>740.0</ele><time>2026-04-25T14:27:55.678Z</time></trkpt><trkpt lat="45.4757383" lon="7.77078"><ele>740.0</ele><time>2026-04-25T14:27:56.677Z</time></trkpt><trkpt lat="45.4757267" lon="7.7709967"><ele>740.0</ele><time>2026-04-25T14:27:57.677Z</time></trkpt><trkpt lat="45.4757017" lon="7.7711983"><ele>740.0</ele><time>2026-04-25T14:27:58.677Z</time></trkpt><trkpt lat="45.4756567" lon="7.7713633"><ele>740.0</ele><time>2026-04-25T14:27:59.677Z</time></trkpt><trkpt lat="45.475635" lon="7.7715483"><ele>742.0</ele><time>2026-04-25T14:28:00.677Z</time></trkpt><trkpt lat="45.4756233" lon="7.7717267"><ele>744.0</ele><time>2026-04-25T14:28:01.677Z</time></trkpt><trkpt lat="45.475645" lon="7.7718933"><ele>746.0</ele><time>2026-04-25T14:28:02.677Z</time></trkpt><trkpt lat="45.475645" lon="7.772055"><ele>748.0</ele><time>2026-04-25T14:28:03.677Z</time></trkpt><trkpt lat="45.4756217" lon="7.772215"><ele>750.4</ele><time>2026-04-25T14:28:04.677Z</time></trkpt><trkpt lat="45.4755817" lon="7.7723733"><ele>752.8</ele><time>2026-04-25T14:28:05.677Z</time></trkpt><trkpt lat="45.475545" lon="7.7725017"><ele>755.2</ele><time>2026-04-25T14:28:06.677Z</time></trkpt><trkpt lat="45.475515" lon="7.77261"><ele>757.6</ele><time>2026-04-25T14:28:07.677Z</time></trkpt><trkpt lat="45.475505" lon="7.7727517"><ele>760.0</ele><time>2026-04-25T14:28:09.677Z</time></trkpt><trkpt lat="45.475555" lon="7.7728133"><ele>760.0</ele><time>2026-04-25T14:28:11.677Z</time></trkpt><trkpt lat="45.47563" lon="7.7727417"><ele>760.0</ele><time>2026-04-25T14:28:13.677Z</time></trkpt><trkpt lat="45.4756767" lon="7.7725833"><ele>760.0</ele><time>2026-04-25T14:28:15.677Z</time></trkpt><trkpt lat="45.47571" lon="7.7724883"><ele>760.0</ele><time>2026-04-25T14:28:16.677Z</time></trkpt><trkpt lat="45.475775" lon="7.772365"><ele>760.0</ele><time>2026-04-25T14:28:17.677Z</time></trkpt><trkpt lat="45.47587" lon="7.77221"><ele>760.0</ele><time>2026-04-25T14:28:18.677Z</time></trkpt><trkpt lat="45.475965" lon="7.7720283"><ele>760.0</ele><time>2026-04-25T14:28:19.677Z</time></trkpt><trkpt lat="45.4760583" lon="7.7718167"><ele>760.0</ele><time>2026-04-25T14:28:20.677Z</time></trkpt><trkpt lat="45.4761467" lon="7.7715917"><ele>757.0</ele><time>2026-04-25T14:28:21.677Z</time></trkpt><trkpt lat="45.4762217" lon="7.771385"><ele>754.0</ele><time>2026-04-25T14:28:22.677Z</time></trkpt><trkpt lat="45.47628" lon="7.7712167"><ele>751.0</ele><time>2026-04-25T14:28:23.677Z</time></trkpt><trkpt lat="45.47634" lon="7.7710533"><ele>748.0</ele><time>2026-04-25T14:28:24.677Z</time></trkpt><trkpt lat="45.4763967" lon="7.7709067"><ele>757.25</ele><time>2026-04-25T14:28:25.677Z</time></trkpt><trkpt lat="45.4764433" lon="7.7707517"><ele>766.5</ele><time>2026-04-25T14:28:26.677Z</time></trkpt><trkpt lat="45.47648" lon="7.7705867"><ele>775.75</ele><time>2026-04-25T14:28:27.677Z</time></trkpt><trkpt lat="45.4765117" lon="7.7704017"><ele>785.0</ele><time>2026-04-25T14:28:28.677Z</time></trkpt><trkpt lat="45.4765383" lon="7.7702433"><ele>783.6</ele><time>2026-04-25T14:28:29.677Z</time></trkpt><trkpt lat="45.47656" lon="7.7700983"><ele>782.2</ele><time>2026-04-25T14:28:30.677Z</time></trkpt><trkpt lat="45.4765767" lon="7.7699717"><ele>780.8</ele><time>2026-04-25T14:28:31.677Z</time></trkpt><trkpt lat="45.4765933" lon="7.76983"><ele>779.4</ele><time>2026-04-25T14:28:32.677Z</time></trkpt><trkpt lat="45.476615" lon="7.7696617"><ele>778.0</ele><time>2026-04-25T14:28:33.677Z</time></trkpt><trkpt lat="45.476635" lon="7.7694833"><ele>776.5</ele><time>2026-04-25T14:28:34.677Z</time></trkpt><trkpt lat="45.47667" lon="7.7692883"><ele>775.0</ele><time>2026-04-25T14:28:35.677Z</time></trkpt><trkpt lat="45.47673" lon="7.76909"><ele>773.5</ele><time>2026-04-25T14:28:36.677Z</time></trkpt><trkpt lat="45.476795" lon="7.7689483"><ele>772.0</ele><time>2026-04-25T14:28:37.677Z</time></trkpt><trkpt lat="45.4768417" lon="7.7687933"><ele>772.0</ele><time>2026-04-25T14:28:38.677Z</time></trkpt><trkpt lat="45.4768883" lon="7.7686383"><ele>772.0</ele><time>2026-04-25T14:28:39.677Z</time></trkpt><trkpt lat="45.4769233" lon="7.7684867"><ele>772.0</ele><time>2026-04-25T14:28:40.677Z</time></trkpt><trkpt lat="45.4769333" lon="7.76831"><ele>772.0</ele><time>2026-04-25T14:28:41.677Z</time></trkpt><trkpt lat="45.4769117" lon="7.768105"><ele>769.6666666666666</ele><time>2026-04-25T14:28:42.677Z</time></trkpt><trkpt lat="45.476885" lon="7.767885"><ele>767.3333333333333</ele><time>2026-04-25T14:28:43.677Z</time></trkpt><trkpt lat="45.47686" lon="7.7676567"><ele>765.0</ele><time>2026-04-25T14:28:44.677Z</time></trkpt><trkpt lat="45.476845" lon="7.7674183"><ele>765.0</ele><time>2026-04-25T14:28:45.677Z</time></trkpt><trkpt lat="45.4768483" lon="7.7671883"><ele>765.0</ele><time>2026-04-25T14:28:46.677Z</time></trkpt><trkpt lat="45.476855" lon="7.7669717"><ele>765.0</ele><time>2026-04-25T14:28:47.677Z</time></trkpt><trkpt lat="45.47686" lon="7.7667633"><ele>767.3333333333333</ele><time>2026-04-25T14:28:48.677Z</time></trkpt><trkpt lat="45.4768417" lon="7.7665367"><ele>769.6666666666666</ele><time>2026-04-25T14:28:49.677Z</time></trkpt><trkpt lat="45.4768167" lon="7.7663033"><ele>772.0</ele><time>2026-04-25T14:28:50.677Z</time></trkpt><trkpt lat="45.4767667" lon="7.76608"><ele>774.25</ele><time>2026-04-25T14:28:51.677Z</time></trkpt><trkpt lat="45.47673" lon="7.76586"><ele>776.5</ele><time>2026-04-25T14:28:52.677Z</time></trkpt><trkpt lat="45.4766883" lon="7.7656683"><ele>778.75</ele><time>2026-04-25T14:28:53.677Z</time></trkpt><trkpt lat="45.47665" lon="7.7654967"><ele>781.0</ele><time>2026-04-25T14:28:54.677Z</time></trkpt><trkpt lat="45.4766467" lon="7.7653183"><ele>783.0</ele><time>2026-04-25T14:28:55.677Z</time></trkpt><trkpt lat="45.4766517" lon="7.765115"><ele>785.0</ele><time>2026-04-25T14:28:56.677Z</time></trkpt><trkpt lat="45.4766433" lon="7.7649383"><ele>787.0</ele><time>2026-04-25T14:28:57.677Z</time></trkpt><trkpt lat="45.476605" lon="7.7647517"><ele>789.0</ele><time>2026-04-25T14:28:58.677Z</time></trkpt><trkpt lat="45.47656" lon="7.7645717"><ele>789.0</ele><time>2026-04-25T14:28:59.677Z</time></trkpt><trkpt lat="45.476495" lon="7.764425"><ele>789.0</ele><time>2026-04-25T14:29:00.677Z</time></trkpt><trkpt lat="45.4764217" lon="7.76428"><ele>789.0</ele><time>2026-04-25T14:29:01.677Z</time></trkpt><trkpt lat="45.4763467" lon="7.7641267"><ele>789.0</ele><time>2026-04-25T14:29:02.677Z</time></trkpt><trkpt lat="45.476275" lon="7.763955"><ele>787.0</ele><time>2026-04-25T14:29:03.677Z</time></trkpt><trkpt lat="45.476215" lon="7.763775"><ele>785.0</ele><time>2026-04-25T14:29:04.677Z</time></trkpt><trkpt lat="45.4761533" lon="7.7636267"><ele>783.0</ele><time>2026-04-25T14:29:05.678Z</time></trkpt><trkpt lat="45.4761033" lon="7.7635067"><ele>781.0</ele><time>2026-04-25T14:29:06.677Z</time></trkpt><trkpt lat="45.47606" lon="7.7633867"><ele>780.9999999999999</ele><time>2026-04-25T14:29:07.677Z</time></trkpt><trkpt lat="45.4760433" lon="7.763265"><ele>781.0</ele><time>2026-04-25T14:29:08.677Z</time></trkpt><trkpt lat="45.4760517" lon="7.76317"><ele>781.0</ele><time>2026-04-25T14:29:09.677Z</time></trkpt><trkpt lat="45.4760917" lon="7.7630867"><ele>781.0</ele><time>2026-04-25T14:29:10.677Z</time></trkpt><trkpt lat="45.47616" lon="7.7629983"><ele>780.9999999999999</ele><time>2026-04-25T14:29:11.677Z</time></trkpt><trkpt lat="45.47626" lon="7.7629317"><ele>781.0</ele><time>2026-04-25T14:29:12.677Z</time></trkpt><trkpt lat="45.47635" lon="7.7628617"><ele>787.0</ele><time>2026-04-25T14:29:13.678Z</time></trkpt><trkpt lat="45.47641" lon="7.762775"><ele>793.0</ele><time>2026-04-25T14:29:14.677Z</time></trkpt><trkpt lat="45.4764417" lon="7.7626767"><ele>799.0</ele><time>2026-04-25T14:29:15.677Z</time></trkpt><trkpt lat="45.47644" lon="7.7625183"><ele>805.0</ele><time>2026-04-25T14:29:17.677Z</time></trkpt><trkpt lat="45.47637" lon="7.762395"><ele>811.0</ele><time>2026-04-25T14:29:19.677Z</time></trkpt><trkpt lat="45.47631" lon="7.7622333"><ele>811.3333333333333</ele><time>2026-04-25T14:29:21.677Z</time></trkpt><trkpt lat="45.4762917" lon="7.7620933"><ele>811.6666666666666</ele><time>2026-04-25T14:29:22.677Z</time></trkpt><trkpt lat="45.4762867" lon="7.761945"><ele>812.0</ele><time>2026-04-25T14:29:23.677Z</time></trkpt><trkpt lat="45.4763" lon="7.76181"><ele>812.3333333333333</ele><time>2026-04-25T14:29:24.677Z</time></trkpt><trkpt lat="45.476325" lon="7.7617083"><ele>812.6666666666666</ele><time>2026-04-25T14:29:25.677Z</time></trkpt><trkpt lat="45.4763633" lon="7.7616217"><ele>813.0</ele><time>2026-04-25T14:29:26.677Z</time></trkpt><trkpt lat="45.476415" lon="7.7615333"><ele>813.0</ele><time>2026-04-25T14:29:27.677Z</time></trkpt><trkpt lat="45.476465" lon="7.7614567"><ele>813.0</ele><time>2026-04-25T14:29:28.677Z</time></trkpt><trkpt lat="45.4765433" lon="7.7613683"><ele>813.0</ele><time>2026-04-25T14:29:30.677Z</time></trkpt><trkpt lat="45.4766067" lon="7.7613767"><ele>813.0</ele><time>2026-04-25T14:29:32.677Z</time></trkpt><trkpt lat="45.47661" lon="7.7614817"><ele>813.0</ele><time>2026-04-25T14:30:07.677Z</time></trkpt><trkpt lat="45.476565" lon="7.7616333"><ele>813.0</ele><time>2026-04-25T14:30:09.677Z</time></trkpt><trkpt lat="45.47657" lon="7.761725"><ele>813.0</ele><time>2026-04-25T14:30:10.678Z</time></trkpt><trkpt lat="45.4766033" lon="7.7618233"><ele>813.0</ele><time>2026-04-25T14:30:11.677Z</time></trkpt><trkpt lat="45.476655" lon="7.7619133"><ele>813.0</ele><time>2026-04-25T14:30:12.677Z</time></trkpt><trkpt lat="45.4767317" lon="7.762005"><ele>813.0</ele><time>2026-04-25T14:30:13.677Z</time></trkpt><trkpt lat="45.4767917" lon="7.76209"><ele>813.0</ele><time>2026-04-25T14:30:14.677Z</time></trkpt><trkpt lat="45.4768433" lon="7.7621867"><ele>813.0</ele><time>2026-04-25T14:30:15.677Z</time></trkpt><trkpt lat="45.4768817" lon="7.7623033"><ele>813.1666666666666</ele><time>2026-04-25T14:30:16.677Z</time></trkpt><trkpt lat="45.4769133" lon="7.76244"><ele>813.3333333333333</ele><time>2026-04-25T14:30:17.677Z</time></trkpt><trkpt lat="45.476935" lon="7.7625633"><ele>813.5</ele><time>2026-04-25T14:30:18.677Z</time></trkpt><trkpt lat="45.4769517" lon="7.76268"><ele>813.6666666666666</ele><time>2026-04-25T14:30:19.677Z</time></trkpt><trkpt lat="45.4769733" lon="7.7627983"><ele>813.8333333333333</ele><time>2026-04-25T14:30:20.677Z</time></trkpt><trkpt lat="45.476995" lon="7.7629167"><ele>814.0</ele><time>2026-04-25T14:30:21.678Z</time></trkpt><trkpt lat="45.4770183" lon="7.7630283"><ele>813.4999999999999</ele><time>2026-04-25T14:30:22.677Z</time></trkpt><trkpt lat="45.4770433" lon="7.7631283"><ele>813.0</ele><time>2026-04-25T14:30:23.677Z</time></trkpt><trkpt lat="45.477075" lon="7.763225"><ele>812.5</ele><time>2026-04-25T14:30:24.677Z</time></trkpt><trkpt lat="45.4771183" lon="7.7633317"><ele>812.0</ele><time>2026-04-25T14:30:25.677Z</time></trkpt><trkpt lat="45.47718" lon="7.7634283"><ele>811.4999999999999</ele><time>2026-04-25T14:30:26.677Z</time></trkpt><trkpt lat="45.4772517" lon="7.763525"><ele>811.0</ele><time>2026-04-25T14:30:27.677Z</time></trkpt><trkpt lat="45.4773183" lon="7.7636283"><ele>814.3333333333333</ele><time>2026-04-25T14:30:28.677Z</time></trkpt><trkpt lat="45.4773717" lon="7.7637133"><ele>817.6666666666666</ele><time>2026-04-25T14:30:29.677Z</time></trkpt><trkpt lat="45.4774183" lon="7.7637983"><ele>821.0</ele><time>2026-04-25T14:30:30.677Z</time></trkpt><trkpt lat="45.47747" lon="7.7638983"><ele>824.3333333333333</ele><time>2026-04-25T14:30:31.677Z</time></trkpt><trkpt lat="45.4775117" lon="7.763985"><ele>827.6666666666666</ele><time>2026-04-25T14:30:32.677Z</time></trkpt><trkpt lat="45.4775733" lon="7.764115"><ele>831.0</ele><time>2026-04-25T14:30:34.677Z</time></trkpt><trkpt lat="45.47761" lon="7.764285"><ele>830.5</ele><time>2026-04-25T14:30:36.677Z</time></trkpt><trkpt lat="45.4776367" lon="7.7644233"><ele>830.0</ele><time>2026-04-25T14:30:38.677Z</time></trkpt><trkpt lat="45.4776583" lon="7.7645433"><ele>829.5</ele><time>2026-04-25T14:30:40.677Z</time></trkpt><trkpt lat="45.4776933" lon="7.76463"><ele>829.0</ele><time>2026-04-25T14:30:42.677Z</time></trkpt><trkpt lat="45.4777633" lon="7.7646933"><ele>828.5</ele><time>2026-04-25T14:31:28.676Z</time></trkpt><trkpt lat="45.4778183" lon="7.76477"><ele>828.0</ele><time>2026-04-25T14:31:30.676Z</time></trkpt><trkpt lat="45.47779" lon="7.7646767"><ele>828.0</ele><time>2026-04-25T14:33:07.676Z</time></trkpt><trkpt lat="45.4777383" lon="7.7646"><ele>828.0</ele><time>2026-04-25T14:33:08.676Z</time></trkpt><trkpt lat="45.477685" lon="7.7645117"><ele>828.0</ele><time>2026-04-25T14:33:09.676Z</time></trkpt><trkpt lat="45.4776417" lon="7.76443"><ele>828.0</ele><time>2026-04-25T14:33:10.676Z</time></trkpt><trkpt lat="45.4775933" lon="7.7642783"><ele>828.0</ele><time>2026-04-25T14:33:12.676Z</time></trkpt><trkpt lat="45.47757" lon="7.7641817"><ele>828.0</ele><time>2026-04-25T14:33:13.676Z</time></trkpt><trkpt lat="45.4775383" lon="7.7640883"><ele>828.5999999999999</ele><time>2026-04-25T14:33:14.676Z</time></trkpt><trkpt lat="45.4774967" lon="7.7639817"><ele>829.1999999999999</ele><time>2026-04-25T14:33:15.676Z</time></trkpt><trkpt lat="45.4774533" lon="7.7638717"><ele>829.8</ele><time>2026-04-25T14:33:16.676Z</time></trkpt><trkpt lat="45.477395" lon="7.7637667"><ele>830.4</ele><time>2026-04-25T14:33:17.676Z</time></trkpt><trkpt lat="45.47734" lon="7.7636617"><ele>831.0</ele><time>2026-04-25T14:33:18.676Z</time></trkpt><trkpt lat="45.4772233" lon="7.7634767"><ele>832.3333333333334</ele><time>2026-04-25T14:33:20.676Z</time></trkpt><trkpt lat="45.4771683" lon="7.7633933"><ele>833.6666666666667</ele><time>2026-04-25T14:33:21.676Z</time></trkpt><trkpt lat="45.4771117" lon="7.7633117"><ele>835.0</ele><time>2026-04-25T14:33:22.676Z</time></trkpt><trkpt lat="45.4770667" lon="7.7632333"><ele>836.3333333333334</ele><time>2026-04-25T14:33:23.676Z</time></trkpt><trkpt lat="45.4770283" lon="7.7631433"><ele>837.6666666666667</ele><time>2026-04-25T14:33:24.676Z</time></trkpt><trkpt lat="45.4770033" lon="7.763035"><ele>839.0</ele><time>2026-04-25T14:33:25.676Z</time></trkpt><trkpt lat="45.47699" lon="7.7629217"><ele>834.0</ele><time>2026-04-25T14:33:26.676Z</time></trkpt><trkpt lat="45.4769767" lon="7.7627983"><ele>829.0</ele><time>2026-04-25T14:33:27.676Z</time></trkpt><trkpt lat="45.4769617" lon="7.762675"><ele>824.0</ele><time>2026-04-25T14:33:28.676Z</time></trkpt><trkpt lat="45.47694" lon="7.7625567"><ele>819.0</ele><time>2026-04-25T14:33:29.676Z</time></trkpt><trkpt lat="45.4769217" lon="7.7624283"><ele>814.0</ele><time>2026-04-25T14:33:30.676Z</time></trkpt><trkpt lat="45.4768967" lon="7.762295"><ele>813.9999999999999</ele><time>2026-04-25T14:33:31.676Z</time></trkpt><trkpt lat="45.4768633" lon="7.7621817"><ele>814.0</ele><time>2026-04-25T14:33:32.676Z</time></trkpt><trkpt lat="45.476815" lon="7.7620767"><ele>814.0</ele><time>2026-04-25T14:33:33.676Z</time></trkpt><trkpt lat="45.476765" lon="7.7619933"><ele>814.0</ele><time>2026-04-25T14:33:34.676Z</time></trkpt><trkpt lat="45.4767083" lon="7.7619183"><ele>813.9999999999999</ele><time>2026-04-25T14:33:35.676Z</time></trkpt><trkpt lat="45.4766467" lon="7.76186"><ele>814.0</ele><time>2026-04-25T14:33:36.677Z</time></trkpt><trkpt lat="45.476585" lon="7.7617233"><ele>813.8333333333333</ele><time>2026-04-25T14:33:38.676Z</time></trkpt><trkpt lat="45.4766117" lon="7.7615783"><ele>813.6666666666666</ele><time>2026-04-25T14:33:40.676Z</time></trkpt><trkpt lat="45.4766517" lon="7.761485"><ele>813.5</ele><time>2026-04-25T14:33:42.676Z</time></trkpt><trkpt lat="45.476645" lon="7.7613933"><ele>813.3333333333333</ele><time>2026-04-25T14:33:45.677Z</time></trkpt><trkpt lat="45.47662" lon="7.761505"><ele>813.1666666666666</ele><time>2026-04-25T14:38:06.675Z</time></trkpt><trkpt lat="45.4765967" lon="7.7615967"><ele>813.0</ele><time>2026-04-25T14:38:07.675Z</time></trkpt><trkpt lat="45.4765867" lon="7.7616967"><ele>813.0</ele><time>2026-04-25T14:38:08.675Z</time></trkpt><trkpt lat="45.4765967" lon="7.7617867"><ele>813.0</ele><time>2026-04-25T14:38:09.675Z</time></trkpt><trkpt lat="45.4766433" lon="7.7618567"><ele>813.0</ele><time>2026-04-25T14:38:10.675Z</time></trkpt><trkpt lat="45.476715" lon="7.76194"><ele>813.0</ele><time>2026-04-25T14:38:11.675Z</time></trkpt><trkpt lat="45.4767917" lon="7.76203"><ele>813.0</ele><time>2026-04-25T14:38:12.675Z</time></trkpt><trkpt lat="45.4768517" lon="7.7621283"><ele>813.0</ele><time>2026-04-25T14:38:13.675Z</time></trkpt><trkpt lat="45.4768983" lon="7.7622467"><ele>813.25</ele><time>2026-04-25T14:38:14.675Z</time></trkpt><trkpt lat="45.476935" lon="7.762405"><ele>813.5</ele><time>2026-04-25T14:38:15.675Z</time></trkpt><trkpt lat="45.4769583" lon="7.762575"><ele>813.75</ele><time>2026-04-25T14:38:16.675Z</time></trkpt><trkpt lat="45.4769833" lon="7.762765"><ele>814.0</ele><time>2026-04-25T14:38:17.675Z</time></trkpt><trkpt lat="45.47701" lon="7.762945"><ele>813.25</ele><time>2026-04-25T14:38:18.675Z</time></trkpt><trkpt lat="45.4770283" lon="7.763115"><ele>812.5</ele><time>2026-04-25T14:38:19.675Z</time></trkpt><trkpt lat="45.4770717" lon="7.7632633"><ele>811.75</ele><time>2026-04-25T14:38:20.675Z</time></trkpt><trkpt lat="45.4771383" lon="7.7633933"><ele>811.0</ele><time>2026-04-25T14:38:21.675Z</time></trkpt><trkpt lat="45.477225" lon="7.7635117"><ele>816.0</ele><time>2026-04-25T14:38:22.675Z</time></trkpt><trkpt lat="45.477315" lon="7.7636367"><ele>821.0</ele><time>2026-04-25T14:38:23.675Z</time></trkpt><trkpt lat="45.4773967" lon="7.7637567"><ele>826.0</ele><time>2026-04-25T14:38:24.675Z</time></trkpt><trkpt lat="45.4774667" lon="7.7638767"><ele>831.0</ele><time>2026-04-25T14:38:25.675Z</time></trkpt><trkpt lat="45.4775217" lon="7.764"><ele>831.0</ele><time>2026-04-25T14:38:26.675Z</time></trkpt><trkpt lat="45.4775683" lon="7.764145"><ele>831.0</ele><time>2026-04-25T14:38:27.675Z</time></trkpt><trkpt lat="45.4776" lon="7.7642817"><ele>831.0</ele><time>2026-04-25T14:38:28.675Z</time></trkpt><trkpt lat="45.4776283" lon="7.7644133"><ele>831.0</ele><time>2026-04-25T14:38:29.675Z</time></trkpt><trkpt lat="45.4776683" lon="7.7645333"><ele>831.0</ele><time>2026-04-25T14:38:30.675Z</time></trkpt><trkpt lat="45.4777267" lon="7.7646533"><ele>831.3333333333334</ele><time>2026-04-25T14:38:31.675Z</time></trkpt><trkpt lat="45.4777917" lon="7.764745"><ele>831.6666666666667</ele><time>2026-04-25T14:38:32.675Z</time></trkpt><trkpt lat="45.4778617" lon="7.76482"><ele>832.0</ele><time>2026-04-25T14:38:33.675Z</time></trkpt><trkpt lat="45.4779367" lon="7.76485"><ele>832.3333333333334</ele><time>2026-04-25T14:38:34.675Z</time></trkpt><trkpt lat="45.4780117" lon="7.76485"><ele>832.6666666666667</ele><time>2026-04-25T14:38:35.675Z</time></trkpt><trkpt lat="45.4780717" lon="7.7647967"><ele>833.0</ele><time>2026-04-25T14:38:36.675Z</time></trkpt><trkpt lat="45.4781167" lon="7.7647067"><ele>833.0</ele><time>2026-04-25T14:38:37.675Z</time></trkpt><trkpt lat="45.4781317" lon="7.7645633"><ele>833.0</ele><time>2026-04-25T14:38:38.675Z</time></trkpt><trkpt lat="45.4781117" lon="7.7643967"><ele>833.0</ele><time>2026-04-25T14:38:39.675Z</time></trkpt><trkpt lat="45.4780767" lon="7.76421"><ele>833.0</ele><time>2026-04-25T14:38:40.675Z</time></trkpt><trkpt lat="45.4780417" lon="7.7640233"><ele>836.0</ele><time>2026-04-25T14:38:41.675Z</time></trkpt><trkpt lat="45.47802" lon="7.7638017"><ele>839.0</ele><time>2026-04-25T14:38:42.675Z</time></trkpt><trkpt lat="45.478025" lon="7.7636067"><ele>842.0</ele><time>2026-04-25T14:38:43.675Z</time></trkpt><trkpt lat="45.478045" lon="7.76346"><ele>845.0</ele><time>2026-04-25T14:38:44.675Z</time></trkpt><trkpt lat="45.4780817" lon="7.763335"><ele>847.25</ele><time>2026-04-25T14:38:45.675Z</time></trkpt><trkpt lat="45.4781367" lon="7.7632017"><ele>849.5</ele><time>2026-04-25T14:38:46.675Z</time></trkpt><trkpt lat="45.4782067" lon="7.7630783"><ele>851.75</ele><time>2026-04-25T14:38:47.675Z</time></trkpt><trkpt lat="45.4782917" lon="7.7629567"><ele>854.0</ele><time>2026-04-25T14:38:48.675Z</time></trkpt><trkpt lat="45.478365" lon="7.7628133"><ele>855.0</ele><time>2026-04-25T14:38:49.675Z</time></trkpt><trkpt lat="45.4784167" lon="7.7626517"><ele>856.0</ele><time>2026-04-25T14:38:50.675Z</time></trkpt><trkpt lat="45.4784533" lon="7.7624783"><ele>857.0</ele><time>2026-04-25T14:38:51.675Z</time></trkpt><trkpt lat="45.4784667" lon="7.7623017"><ele>858.0</ele><time>2026-04-25T14:38:52.675Z</time></trkpt><trkpt lat="45.47847" lon="7.7621267"><ele>858.0</ele><time>2026-04-25T14:38:53.675Z</time></trkpt><trkpt lat="45.4784883" lon="7.7619633"><ele>858.0</ele><time>2026-04-25T14:38:54.675Z</time></trkpt><trkpt lat="45.4785217" lon="7.761805"><ele>858.0</ele><time>2026-04-25T14:38:55.675Z</time></trkpt><trkpt lat="45.4785633" lon="7.7616217"><ele>858.0</ele><time>2026-04-25T14:38:56.675Z</time></trkpt><trkpt lat="45.4786083" lon="7.7614467"><ele>858.5999999999999</ele><time>2026-04-25T14:38:57.675Z</time></trkpt><trkpt lat="45.4786483" lon="7.7612717"><ele>859.1999999999999</ele><time>2026-04-25T14:38:58.675Z</time></trkpt><trkpt lat="45.4786917" lon="7.76112"><ele>859.8</ele><time>2026-04-25T14:38:59.675Z</time></trkpt><trkpt lat="45.4787267" lon="7.7609867"><ele>860.4</ele><time>2026-04-25T14:39:00.675Z</time></trkpt><trkpt lat="45.4787667" lon="7.7608633"><ele>861.0</ele><time>2026-04-25T14:39:01.675Z</time></trkpt><trkpt lat="45.4788083" lon="7.76075"><ele>864.6666666666666</ele><time>2026-04-25T14:39:02.675Z</time></trkpt><trkpt lat="45.4788667" lon="7.760635"><ele>868.3333333333333</ele><time>2026-04-25T14:39:03.675Z</time></trkpt><trkpt lat="45.4789267" lon="7.7605183"><ele>872.0</ele><time>2026-04-25T14:39:04.675Z</time></trkpt><trkpt lat="45.4789883" lon="7.7604283"><ele>875.6666666666666</ele><time>2026-04-25T14:39:05.675Z</time></trkpt><trkpt lat="45.479045" lon="7.7603817"><ele>879.3333333333333</ele><time>2026-04-25T14:39:06.675Z</time></trkpt><trkpt lat="45.4791383" lon="7.7603633"><ele>883.0</ele><time>2026-04-25T14:39:08.675Z</time></trkpt><trkpt lat="45.47915" lon="7.7604733"><ele>882.9999999999999</ele><time>2026-04-25T14:39:10.675Z</time></trkpt><trkpt lat="45.4791283" lon="7.7605617"><ele>883.0</ele><time>2026-04-25T14:39:11.675Z</time></trkpt><trkpt lat="45.4791" lon="7.7606517"><ele>883.0</ele><time>2026-04-25T14:39:12.675Z</time></trkpt><trkpt lat="45.4791133" lon="7.7607583"><ele>883.0</ele><time>2026-04-25T14:39:14.675Z</time></trkpt><trkpt lat="45.479205" lon="7.7607367"><ele>882.9999999999999</ele><time>2026-04-25T14:39:17.675Z</time></trkpt><trkpt lat="45.4792433" lon="7.7605667"><ele>883.0</ele><time>2026-04-25T14:39:19.675Z</time></trkpt><trkpt lat="45.479265" lon="7.76046"><ele>883.0</ele><time>2026-04-25T14:39:20.675Z</time></trkpt><trkpt lat="45.47931" lon="7.76031"><ele>883.0</ele><time>2026-04-25T14:39:21.675Z</time></trkpt><trkpt lat="45.4793483" lon="7.76015"><ele>883.0</ele><time>2026-04-25T14:39:22.675Z</time></trkpt><trkpt lat="45.47939" lon="7.7600017"><ele>883.0</ele><time>2026-04-25T14:39:23.675Z</time></trkpt><trkpt lat="45.4794383" lon="7.75985"><ele>884.75</ele><time>2026-04-25T14:39:24.675Z</time></trkpt><trkpt lat="45.479495" lon="7.7596917"><ele>886.5</ele><time>2026-04-25T14:39:25.675Z</time></trkpt><trkpt lat="45.4795633" lon="7.7595233"><ele>888.25</ele><time>2026-04-25T14:39:26.676Z</time></trkpt><trkpt lat="45.4796333" lon="7.759375"><ele>890.0</ele><time>2026-04-25T14:39:27.675Z</time></trkpt><trkpt lat="45.479685" lon="7.7592567"><ele>894.4</ele><time>2026-04-25T14:39:28.676Z</time></trkpt><trkpt lat="45.4797267" lon="7.7591433"><ele>898.8</ele><time>2026-04-25T14:39:29.675Z</time></trkpt><trkpt lat="45.479745" lon="7.7590167"><ele>903.2</ele><time>2026-04-25T14:39:30.675Z</time></trkpt><trkpt lat="45.4797667" lon="7.758875"><ele>907.6</ele><time>2026-04-25T14:39:31.676Z</time></trkpt><trkpt lat="45.47979" lon="7.7587483"><ele>912.0</ele><time>2026-04-25T14:39:32.675Z</time></trkpt><trkpt lat="45.479815" lon="7.7586217"><ele>913.3333333333334</ele><time>2026-04-25T14:39:33.675Z</time></trkpt><trkpt lat="45.479855" lon="7.7585017"><ele>914.6666666666667</ele><time>2026-04-25T14:39:34.675Z</time></trkpt><trkpt lat="45.4798983" lon="7.7584017"><ele>916.0</ele><time>2026-04-25T14:39:35.675Z</time></trkpt><trkpt lat="45.4799317" lon="7.75831"><ele>917.3333333333334</ele><time>2026-04-25T14:39:36.675Z</time></trkpt><trkpt lat="45.4799583" lon="7.758225"><ele>918.6666666666667</ele><time>2026-04-25T14:39:37.675Z</time></trkpt><trkpt lat="45.47998" lon="7.7580567"><ele>920.0</ele><time>2026-04-25T14:39:39.675Z</time></trkpt><trkpt lat="45.47999" lon="7.75796"><ele>920.0000000000001</ele><time>2026-04-25T14:39:40.675Z</time></trkpt><trkpt lat="45.4799983" lon="7.7578633"><ele>920.0</ele><time>2026-04-25T14:39:41.675Z</time></trkpt><trkpt lat="45.4800117" lon="7.75777"><ele>920.0</ele><time>2026-04-25T14:39:42.675Z</time></trkpt><trkpt lat="45.4800167" lon="7.7576067"><ele>920.0</ele><time>2026-04-25T14:39:44.675Z</time></trkpt><trkpt lat="45.48005" lon="7.7574667"><ele>920.0000000000001</ele><time>2026-04-25T14:39:46.675Z</time></trkpt><trkpt lat="45.480135" lon="7.7575067"><ele>920.0</ele><time>2026-04-25T14:39:49.676Z</time></trkpt><trkpt lat="45.4801417" lon="7.7577167"><ele>920.0</ele><time>2026-04-25T14:39:51.675Z</time></trkpt><trkpt lat="45.4801367" lon="7.757865"><ele>920.0</ele><time>2026-04-25T14:39:52.675Z</time></trkpt><trkpt lat="45.48016" lon="7.75803"><ele>920.0</ele><time>2026-04-25T14:39:53.675Z</time></trkpt><trkpt lat="45.4801983" lon="7.75819"><ele>920.0</ele><time>2026-04-25T14:39:54.675Z</time></trkpt><trkpt lat="45.480245" lon="7.758335"><ele>920.0000000000001</ele><time>2026-04-25T14:39:55.676Z</time></trkpt><trkpt lat="45.48029" lon="7.758445"><ele>920.0</ele><time>2026-04-25T14:39:56.675Z</time></trkpt><trkpt lat="45.480335" lon="7.7585317"><ele>920.0</ele><time>2026-04-25T14:39:57.675Z</time></trkpt><trkpt lat="45.480415" lon="7.7585767"><ele>920.0</ele><time>2026-04-25T14:39:59.675Z</time></trkpt><trkpt lat="45.4804583" lon="7.7584983"><ele>920.0000000000001</ele><time>2026-04-25T14:40:01.675Z</time></trkpt><trkpt lat="45.48042" lon="7.75834"><ele>920.0</ele><time>2026-04-25T14:40:03.675Z</time></trkpt><trkpt lat="45.48039" lon="7.7582083"><ele>920.0</ele><time>2026-04-25T14:40:04.675Z</time></trkpt><trkpt lat="45.4803833" lon="7.7580683"><ele>920.0</ele><time>2026-04-25T14:40:05.675Z</time></trkpt><trkpt lat="45.4803983" lon="7.757915"><ele>920.0</ele><time>2026-04-25T14:40:06.675Z</time></trkpt><trkpt lat="45.4804317" lon="7.7577517"><ele>920.0</ele><time>2026-04-25T14:40:07.675Z</time></trkpt><trkpt lat="45.4804667" lon="7.75762"><ele>920.0</ele><time>2026-04-25T14:40:08.675Z</time></trkpt><trkpt lat="45.4805033" lon="7.7575067"><ele>924.4285714285713</ele><time>2026-04-25T14:40:09.675Z</time></trkpt><trkpt lat="45.4805533" lon="7.7574083"><ele>928.8571428571429</ele><time>2026-04-25T14:40:10.675Z</time></trkpt><trkpt lat="45.4806033" lon="7.7573367"><ele>933.2857142857142</ele><time>2026-04-25T14:40:11.675Z</time></trkpt><trkpt lat="45.4806617" lon="7.7572967"><ele>937.7142857142857</ele><time>2026-04-25T14:40:12.675Z</time></trkpt><trkpt lat="45.4807283" lon="7.75727"><ele>942.1428571428571</ele><time>2026-04-25T14:40:13.675Z</time></trkpt><trkpt lat="45.4807933" lon="7.7572183"><ele>946.5714285714286</ele><time>2026-04-25T14:40:14.675Z</time></trkpt><trkpt lat="45.48084" lon="7.7571517"><ele>951.0</ele><time>2026-04-25T14:40:15.675Z</time></trkpt><trkpt lat="45.480865" lon="7.7570633"><ele>951.0</ele><time>2026-04-25T14:40:16.675Z</time></trkpt><trkpt lat="45.4808933" lon="7.756915"><ele>950.9999999999999</ele><time>2026-04-25T14:40:18.675Z</time></trkpt><trkpt lat="45.4809917" lon="7.75692"><ele>950.9999999999999</ele><time>2026-04-25T14:40:21.675Z</time></trkpt><trkpt lat="45.4810633" lon="7.75705"><ele>951.0</ele><time>2026-04-25T14:40:23.675Z</time></trkpt><trkpt lat="45.481075" lon="7.7571417"><ele>951.0</ele><time>2026-04-25T14:40:24.676Z</time></trkpt><trkpt lat="45.4810717" lon="7.7572567"><ele>951.0</ele><time>2026-04-25T14:40:25.675Z</time></trkpt><trkpt lat="45.4810617" lon="7.757395"><ele>950.9999999999999</ele><time>2026-04-25T14:40:26.675Z</time></trkpt><trkpt lat="45.4810483" lon="7.75757"><ele>950.9999999999999</ele><time>2026-04-25T14:40:27.675Z</time></trkpt><trkpt lat="45.481045" lon="7.7577317"><ele>951.0</ele><time>2026-04-25T14:40:28.675Z</time></trkpt><trkpt lat="45.4810367" lon="7.75786"><ele>951.0</ele><time>2026-04-25T14:40:29.676Z</time></trkpt><trkpt lat="45.481025" lon="7.7579733"><ele>951.0</ele><time>2026-04-25T14:40:30.675Z</time></trkpt><trkpt lat="45.4810317" lon="7.7580767"><ele>951.0</ele><time>2026-04-25T14:40:31.675Z</time></trkpt><trkpt lat="45.4810567" lon="7.75816"><ele>951.0</ele><time>2026-04-25T14:40:32.675Z</time></trkpt><trkpt lat="45.481135" lon="7.758215"><ele>951.0</ele><time>2026-04-25T14:40:34.675Z</time></trkpt><trkpt lat="45.4812333" lon="7.7581117"><ele>951.0</ele><time>2026-04-25T14:40:36.675Z</time></trkpt><trkpt lat="45.4812717" lon="7.7580183"><ele>951.0</ele><time>2026-04-25T14:40:37.675Z</time></trkpt><trkpt lat="45.4813067" lon="7.7579317"><ele>953.8333333333334</ele><time>2026-04-25T14:40:38.675Z</time></trkpt><trkpt lat="45.4813417" lon="7.757845"><ele>956.6666666666667</ele><time>2026-04-25T14:40:39.675Z</time></trkpt><trkpt lat="45.4814217" lon="7.7577533"><ele>959.5</ele><time>2026-04-25T14:40:41.675Z</time></trkpt><trkpt lat="45.4815467" lon="7.7577333"><ele>962.3333333333334</ele><time>2026-04-25T14:40:43.675Z</time></trkpt><trkpt lat="45.4816217" lon="7.7577617"><ele>965.1666666666667</ele><time>2026-04-25T14:40:44.675Z</time></trkpt><trkpt lat="45.4816933" lon="7.757765"><ele>968.0</ele><time>2026-04-25T14:40:45.675Z</time></trkpt><trkpt lat="45.4817533" lon="7.7577333"><ele>968.8333333333334</ele><time>2026-04-25T14:40:46.675Z</time></trkpt><trkpt lat="45.4818217" lon="7.75768"><ele>969.6666666666667</ele><time>2026-04-25T14:40:47.675Z</time></trkpt><trkpt lat="45.4818817" lon="7.757605"><ele>970.5</ele><time>2026-04-25T14:40:48.675Z</time></trkpt><trkpt lat="45.481935" lon="7.7574983"><ele>971.3333333333333</ele><time>2026-04-25T14:40:49.675Z</time></trkpt><trkpt lat="45.4819683" lon="7.7573883"><ele>972.1666666666666</ele><time>2026-04-25T14:40:50.675Z</time></trkpt><trkpt lat="45.4819817" lon="7.7572717"><ele>973.0</ele><time>2026-04-25T14:40:51.675Z</time></trkpt><trkpt lat="45.4819883" lon="7.7571433"><ele>973.0</ele><time>2026-04-25T14:40:52.675Z</time></trkpt><trkpt lat="45.4819867" lon="7.7570067"><ele>973.0</ele><time>2026-04-25T14:40:53.675Z</time></trkpt><trkpt lat="45.4819933" lon="7.7568717"><ele>973.0</ele><time>2026-04-25T14:40:54.675Z</time></trkpt><trkpt lat="45.4820133" lon="7.7567383"><ele>973.0</ele><time>2026-04-25T14:40:55.675Z</time></trkpt><trkpt lat="45.4820483" lon="7.7566067"><ele>973.0</ele><time>2026-04-25T14:40:56.675Z</time></trkpt><trkpt lat="45.48209" lon="7.7564667"><ele>979.5</ele><time>2026-04-25T14:40:57.675Z</time></trkpt><trkpt lat="45.48214" lon="7.7563367"><ele>986.0</ele><time>2026-04-25T14:40:58.675Z</time></trkpt><trkpt lat="45.482205" lon="7.7562"><ele>992.5</ele><time>2026-04-25T14:40:59.675Z</time></trkpt><trkpt lat="45.48228" lon="7.7560467"><ele>999.0</ele><time>2026-04-25T14:41:00.675Z</time></trkpt><trkpt lat="45.4823533" lon="7.755885"><ele>999.0</ele><time>2026-04-25T14:41:01.675Z</time></trkpt><trkpt lat="45.4824133" lon="7.7557217"><ele>999.0</ele><time>2026-04-25T14:41:02.675Z</time></trkpt><trkpt lat="45.4824667" lon="7.7555833"><ele>999.0</ele><time>2026-04-25T14:41:03.675Z</time></trkpt><trkpt lat="45.482515" lon="7.7554567"><ele>999.0</ele><time>2026-04-25T14:41:04.675Z</time></trkpt><trkpt lat="45.4825683" lon="7.7553183"><ele>997.25</ele><time>2026-04-25T14:41:05.675Z</time></trkpt><trkpt lat="45.4826183" lon="7.7551767"><ele>995.5</ele><time>2026-04-25T14:41:06.675Z</time></trkpt><trkpt lat="45.48268" lon="7.7550217"><ele>993.75</ele><time>2026-04-25T14:41:07.675Z</time></trkpt><trkpt lat="45.4827267" lon="7.7548733"><ele>992.0</ele><time>2026-04-25T14:41:08.675Z</time></trkpt><trkpt lat="45.4827733" lon="7.7547317"><ele>992.0</ele><time>2026-04-25T14:41:09.675Z</time></trkpt><trkpt lat="45.4828117" lon="7.7546033"><ele>992.0</ele><time>2026-04-25T14:41:10.675Z</time></trkpt><trkpt lat="45.4828433" lon="7.7544667"><ele>992.0</ele><time>2026-04-25T14:41:11.676Z</time></trkpt><trkpt lat="45.4828717" lon="7.7543267"><ele>992.0</ele><time>2026-04-25T14:41:12.675Z</time></trkpt><trkpt lat="45.482905" lon="7.7542083"><ele>992.0</ele><time>2026-04-25T14:41:13.676Z</time></trkpt><trkpt lat="45.4829417" lon="7.7540817"><ele>997.6666666666667</ele><time>2026-04-25T14:41:14.675Z</time></trkpt><trkpt lat="45.4829767" lon="7.7539533"><ele>1003.3333333333334</ele><time>2026-04-25T14:41:15.675Z</time></trkpt><trkpt lat="45.4830167" lon="7.7538367"><ele>1009.0</ele><time>2026-04-25T14:41:16.675Z</time></trkpt><trkpt lat="45.48304" lon="7.7537217"><ele>1014.6666666666667</ele><time>2026-04-25T14:41:17.675Z</time></trkpt><trkpt lat="45.483055" lon="7.7536133"><ele>1020.3333333333334</ele><time>2026-04-25T14:41:18.675Z</time></trkpt><trkpt lat="45.483065" lon="7.7534883"><ele>1026.0</ele><time>2026-04-25T14:41:19.675Z</time></trkpt><trkpt lat="45.4830783" lon="7.753345"><ele>1026.0</ele><time>2026-04-25T14:41:20.675Z</time></trkpt><trkpt lat="45.4831083" lon="7.7532083"><ele>1026.0</ele><time>2026-04-25T14:41:21.675Z</time></trkpt><trkpt lat="45.48315" lon="7.753095"><ele>1026.0</ele><time>2026-04-25T14:41:22.675Z</time></trkpt><trkpt lat="45.4832017" lon="7.75301"><ele>1026.0</ele><time>2026-04-25T14:41:23.675Z</time></trkpt><trkpt lat="45.4832517" lon="7.7529267"><ele>1026.0</ele><time>2026-04-25T14:41:24.675Z</time></trkpt><trkpt lat="45.4832933" lon="7.75283"><ele>1026.0</ele><time>2026-04-25T14:41:25.675Z</time></trkpt><trkpt lat="45.483325" lon="7.7527267"><ele>1025.2</ele><time>2026-04-25T14:41:26.675Z</time></trkpt><trkpt lat="45.4833633" lon="7.7526"><ele>1024.3999999999999</ele><time>2026-04-25T14:41:27.675Z</time></trkpt><trkpt lat="45.4834033" lon="7.752465"><ele>1023.6</ele><time>2026-04-25T14:41:28.675Z</time></trkpt><trkpt lat="45.483445" lon="7.7523233"><ele>1022.8</ele><time>2026-04-25T14:41:29.675Z</time></trkpt><trkpt lat="45.4834883" lon="7.752185"><ele>1022.0</ele><time>2026-04-25T14:41:30.675Z</time></trkpt><trkpt lat="45.4835367" lon="7.7520617"><ele>1022.0</ele><time>2026-04-25T14:41:31.675Z</time></trkpt><trkpt lat="45.483585" lon="7.7519317"><ele>1022.0</ele><time>2026-04-25T14:41:32.675Z</time></trkpt><trkpt lat="45.4836317" lon="7.7518067"><ele>1022.0</ele><time>2026-04-25T14:41:33.675Z</time></trkpt><trkpt lat="45.483695" lon="7.75166"><ele>1022.0</ele><time>2026-04-25T14:41:34.675Z</time></trkpt><trkpt lat="45.4837667" lon="7.7515133"><ele>1022.0</ele><time>2026-04-25T14:41:35.675Z</time></trkpt><trkpt lat="45.4838217" lon="7.7513917"><ele>1024.8</ele><time>2026-04-25T14:41:36.675Z</time></trkpt><trkpt lat="45.4838733" lon="7.75127"><ele>1027.6</ele><time>2026-04-25T14:41:37.676Z</time></trkpt><trkpt lat="45.4839283" lon="7.7511483"><ele>1030.3999999999999</ele><time>2026-04-25T14:41:38.675Z</time></trkpt><trkpt lat="45.4839933" lon="7.7510417"><ele>1033.2</ele><time>2026-04-25T14:41:39.675Z</time></trkpt><trkpt lat="45.4840633" lon="7.75094"><ele>1036.0</ele><time>2026-04-25T14:41:40.675Z</time></trkpt><trkpt lat="45.4841367" lon="7.7508483"><ele>1036.0</ele><time>2026-04-25T14:41:41.675Z</time></trkpt><trkpt lat="45.484215" lon="7.750765"><ele>1036.0</ele><time>2026-04-25T14:41:42.675Z</time></trkpt><trkpt lat="45.484295" lon="7.7506917"><ele>1036.0</ele><time>2026-04-25T14:41:43.675Z</time></trkpt><trkpt lat="45.484365" lon="7.7506233"><ele>1036.0</ele><time>2026-04-25T14:41:44.675Z</time></trkpt><trkpt lat="45.4844233" lon="7.7505517"><ele>1036.0</ele><time>2026-04-25T14:41:45.675Z</time></trkpt><trkpt lat="45.4844717" lon="7.75047"><ele>1036.0</ele><time>2026-04-25T14:41:46.675Z</time></trkpt><trkpt lat="45.48452" lon="7.750385"><ele>1036.0</ele><time>2026-04-25T14:41:47.675Z</time></trkpt><trkpt lat="45.48458" lon="7.7503"><ele>1036.0</ele><time>2026-04-25T14:41:48.675Z</time></trkpt><trkpt lat="45.48465" lon="7.75022"><ele>1036.0</ele><time>2026-04-25T14:41:49.676Z</time></trkpt><trkpt lat="45.4847367" lon="7.750135"><ele>1036.0</ele><time>2026-04-25T14:41:50.675Z</time></trkpt><trkpt lat="45.4848267" lon="7.750045"><ele>1036.0</ele><time>2026-04-25T14:41:51.675Z</time></trkpt><trkpt lat="45.484905" lon="7.7499483"><ele>1039.75</ele><time>2026-04-25T14:41:52.675Z</time></trkpt><trkpt lat="45.4849783" lon="7.749835"><ele>1043.5</ele><time>2026-04-25T14:41:53.675Z</time></trkpt><trkpt lat="45.485045" lon="7.7496967"><ele>1047.25</ele><time>2026-04-25T14:41:54.675Z</time></trkpt><trkpt lat="45.4851083" lon="7.7495567"><ele>1051.0</ele><time>2026-04-25T14:41:55.675Z</time></trkpt><trkpt lat="45.4851667" lon="7.7494283"><ele>1050.6666666666665</ele><time>2026-04-25T14:41:56.675Z</time></trkpt><trkpt lat="45.4852133" lon="7.74931"><ele>1050.3333333333333</ele><time>2026-04-25T14:41:57.675Z</time></trkpt><trkpt lat="45.4852583" lon="7.7492117"><ele>1050.0</ele><time>2026-04-25T14:41:58.675Z</time></trkpt><trkpt lat="45.4853017" lon="7.7491233"><ele>1049.6666666666667</ele><time>2026-04-25T14:41:59.675Z</time></trkpt><trkpt lat="45.4853467" lon="7.7490517"><ele>1049.3333333333335</ele><time>2026-04-25T14:42:00.675Z</time></trkpt><trkpt lat="45.4854517" lon="7.74899"><ele>1049.0</ele><time>2026-04-25T14:42:02.675Z</time></trkpt><trkpt lat="45.4855167" lon="7.749"><ele>1051.1666666666667</ele><time>2026-04-25T14:42:03.675Z</time></trkpt><trkpt lat="45.4856117" lon="7.74909"><ele>1053.3333333333335</ele><time>2026-04-25T14:42:05.675Z</time></trkpt><trkpt lat="45.4856667" lon="7.749235"><ele>1055.5</ele><time>2026-04-25T14:42:07.676Z</time></trkpt><trkpt lat="45.4857117" lon="7.7493067"><ele>1057.6666666666667</ele><time>2026-04-25T14:42:08.675Z</time></trkpt><trkpt lat="45.4857683" lon="7.7493767"><ele>1059.8333333333333</ele><time>2026-04-25T14:42:09.675Z</time></trkpt><trkpt lat="45.48583" lon="7.749405"><ele>1062.0</ele><time>2026-04-25T14:42:10.675Z</time></trkpt><trkpt lat="45.4858933" lon="7.7494117"><ele>1062.0</ele><time>2026-04-25T14:42:11.675Z</time></trkpt><trkpt lat="45.485975" lon="7.7493333"><ele>1062.0</ele><time>2026-04-25T14:42:13.675Z</time></trkpt><trkpt lat="45.4860083" lon="7.74925"><ele>1062.0</ele><time>2026-04-25T14:42:14.675Z</time></trkpt><trkpt lat="45.48602" lon="7.749155"><ele>1062.0</ele><time>2026-04-25T14:42:15.675Z</time></trkpt><trkpt lat="45.48603" lon="7.7490383"><ele>1062.0</ele><time>2026-04-25T14:42:16.675Z</time></trkpt><trkpt lat="45.4860383" lon="7.748935"><ele>1062.0</ele><time>2026-04-25T14:42:17.675Z</time></trkpt><trkpt lat="45.486055" lon="7.748765"><ele>1062.0</ele><time>2026-04-25T14:42:19.674Z</time></trkpt><trkpt lat="45.48606" lon="7.748665"><ele>1062.0</ele><time>2026-04-25T14:42:22.674Z</time></trkpt><trkpt lat="45.4860717" lon="7.7485617"><ele>1062.0</ele><time>2026-04-25T14:42:30.674Z</time></trkpt><trkpt lat="45.48606" lon="7.748455"><ele>1062.0</ele><time>2026-04-25T14:42:33.674Z</time></trkpt><trkpt lat="45.486045" lon="7.748295"><ele>1062.0</ele><time>2026-04-25T14:42:35.675Z</time></trkpt><trkpt lat="45.4860517" lon="7.7481367"><ele>1062.0</ele><time>2026-04-25T14:42:37.674Z</time></trkpt><trkpt lat="45.48606" lon="7.74799"><ele>1062.8</ele><time>2026-04-25T14:42:39.674Z</time></trkpt><trkpt lat="45.4860717" lon="7.7477933"><ele>1063.6</ele><time>2026-04-25T14:42:41.674Z</time></trkpt><trkpt lat="45.4860817" lon="7.7476833"><ele>1064.3999999999999</ele><time>2026-04-25T14:42:42.674Z</time></trkpt><trkpt lat="45.486095" lon="7.7475467"><ele>1065.2</ele><time>2026-04-25T14:42:43.674Z</time></trkpt><trkpt lat="45.4861083" lon="7.7474133"><ele>1066.0</ele><time>2026-04-25T14:42:44.674Z</time></trkpt><trkpt lat="45.4861383" lon="7.74726"><ele>1066.2</ele><time>2026-04-25T14:42:45.674Z</time></trkpt><trkpt lat="45.4861783" lon="7.7471133"><ele>1066.3999999999999</ele><time>2026-04-25T14:42:46.674Z</time></trkpt><trkpt lat="45.4862317" lon="7.746965"><ele>1066.6</ele><time>2026-04-25T14:42:47.674Z</time></trkpt><trkpt lat="45.4862733" lon="7.7468217"><ele>1066.8</ele><time>2026-04-25T14:42:48.674Z</time></trkpt><trkpt lat="45.48632" lon="7.7466933"><ele>1067.0</ele><time>2026-04-25T14:42:49.674Z</time></trkpt><trkpt lat="45.4863783" lon="7.7465783"><ele>1067.0</ele><time>2026-04-25T14:42:50.674Z</time></trkpt><trkpt lat="45.4864517" lon="7.746485"><ele>1067.0</ele><time>2026-04-25T14:42:51.675Z</time></trkpt><trkpt lat="45.48653" lon="7.746415"><ele>1067.0</ele><time>2026-04-25T14:42:52.674Z</time></trkpt><trkpt lat="45.4866233" lon="7.746355"><ele>1067.0</ele><time>2026-04-25T14:42:53.674Z</time></trkpt><trkpt lat="45.4867233" lon="7.746295"><ele>1067.0</ele><time>2026-04-25T14:42:54.674Z</time></trkpt><trkpt lat="45.486815" lon="7.7462183"><ele>1067.0</ele><time>2026-04-25T14:42:55.674Z</time></trkpt><trkpt lat="45.4869117" lon="7.7461267"><ele>1067.0</ele><time>2026-04-25T14:42:56.674Z</time></trkpt><trkpt lat="45.4870033" lon="7.7460333"><ele>1067.0</ele><time>2026-04-25T14:42:57.674Z</time></trkpt><trkpt lat="45.4870917" lon="7.7459367"><ele>1067.0</ele><time>2026-04-25T14:42:58.674Z</time></trkpt><trkpt lat="45.48717" lon="7.7458333"><ele>1067.0</ele><time>2026-04-25T14:42:59.674Z</time></trkpt><trkpt lat="45.48725" lon="7.7457283"><ele>1066.2</ele><time>2026-04-25T14:43:00.674Z</time></trkpt><trkpt lat="45.48733" lon="7.7456333"><ele>1065.4</ele><time>2026-04-25T14:43:01.674Z</time></trkpt><trkpt lat="45.4874067" lon="7.7455483"><ele>1064.6</ele><time>2026-04-25T14:43:02.674Z</time></trkpt><trkpt lat="45.4874967" lon="7.74547"><ele>1063.8</ele><time>2026-04-25T14:43:03.674Z</time></trkpt><trkpt lat="45.48759" lon="7.7454233"><ele>1063.0</ele><time>2026-04-25T14:43:04.674Z</time></trkpt><trkpt lat="45.4876733" lon="7.745395"><ele>1063.0</ele><time>2026-04-25T14:43:05.674Z</time></trkpt><trkpt lat="45.4877617" lon="7.7453817"><ele>1063.0</ele><time>2026-04-25T14:43:06.674Z</time></trkpt><trkpt lat="45.4878567" lon="7.7453417"><ele>1063.0</ele><time>2026-04-25T14:43:07.674Z</time></trkpt><trkpt lat="45.4879417" lon="7.7452883"><ele>1063.0</ele><time>2026-04-25T14:43:08.674Z</time></trkpt><trkpt lat="45.4880133" lon="7.7452167"><ele>1063.0</ele><time>2026-04-25T14:43:09.674Z</time></trkpt><trkpt lat="45.4880733" lon="7.7451567"><ele>1063.0</ele><time>2026-04-25T14:43:10.674Z</time></trkpt><trkpt lat="45.48813" lon="7.7451067"><ele>1062.4</ele><time>2026-04-25T14:43:11.674Z</time></trkpt><trkpt lat="45.48819" lon="7.7450383"><ele>1061.8</ele><time>2026-04-25T14:43:12.674Z</time></trkpt><trkpt lat="45.4882533" lon="7.74495"><ele>1061.2</ele><time>2026-04-25T14:43:13.674Z</time></trkpt><trkpt lat="45.488305" lon="7.7448467"><ele>1060.6</ele><time>2026-04-25T14:43:14.674Z</time></trkpt><trkpt lat="45.48836" lon="7.74473"><ele>1060.0</ele><time>2026-04-25T14:43:15.674Z</time></trkpt><trkpt lat="45.48843" lon="7.744625"><ele>1060.0</ele><time>2026-04-25T14:43:16.674Z</time></trkpt><trkpt lat="45.488515" lon="7.7445317"><ele>1060.0</ele><time>2026-04-25T14:43:17.674Z</time></trkpt><trkpt lat="45.488605" lon="7.7444467"><ele>1060.0</ele><time>2026-04-25T14:43:18.674Z</time></trkpt><trkpt lat="45.4887033" lon="7.74438"><ele>1060.0</ele><time>2026-04-25T14:43:19.674Z</time></trkpt><trkpt lat="45.4888117" lon="7.7443083"><ele>1060.0</ele><time>2026-04-25T14:43:20.674Z</time></trkpt><trkpt lat="45.4889133" lon="7.7442517"><ele>1059.6666666666665</ele><time>2026-04-25T14:43:21.674Z</time></trkpt><trkpt lat="45.4889983" lon="7.744205"><ele>1059.3333333333333</ele><time>2026-04-25T14:43:22.674Z</time></trkpt><trkpt lat="45.4890683" lon="7.7441483"><ele>1059.0</ele><time>2026-04-25T14:43:23.674Z</time></trkpt><trkpt lat="45.4891333" lon="7.7440633"><ele>1058.6666666666667</ele><time>2026-04-25T14:43:24.674Z</time></trkpt><trkpt lat="45.489185" lon="7.7439633"><ele>1058.3333333333335</ele><time>2026-04-25T14:43:25.674Z</time></trkpt><trkpt lat="45.4892167" lon="7.7438467"><ele>1058.0</ele><time>2026-04-25T14:43:26.674Z</time></trkpt><trkpt lat="45.4892167" lon="7.7437317"><ele>1058.0</ele><time>2026-04-25T14:43:27.675Z</time></trkpt><trkpt lat="45.4891983" lon="7.7435967"><ele>1058.0</ele><time>2026-04-25T14:43:28.674Z</time></trkpt><trkpt lat="45.4891483" lon="7.74345"><ele>1058.0</ele><time>2026-04-25T14:43:29.674Z</time></trkpt><trkpt lat="45.4890933" lon="7.7432917"><ele>1058.0</ele><time>2026-04-25T14:43:30.674Z</time></trkpt><trkpt lat="45.4890467" lon="7.7431233"><ele>1058.2</ele><time>2026-04-25T14:43:31.674Z</time></trkpt><trkpt lat="45.489015" lon="7.74296"><ele>1058.4</ele><time>2026-04-25T14:43:32.674Z</time></trkpt><trkpt lat="45.4889883" lon="7.7428017"><ele>1058.6000000000001</ele><time>2026-04-25T14:43:33.674Z</time></trkpt><trkpt lat="45.4889683" lon="7.742655"><ele>1058.8</ele><time>2026-04-25T14:43:34.674Z</time></trkpt><trkpt lat="45.4889567" lon="7.74252"><ele>1059.0</ele><time>2026-04-25T14:43:35.674Z</time></trkpt><trkpt lat="45.4889467" lon="7.7423917"><ele>1059.0</ele><time>2026-04-25T14:43:36.674Z</time></trkpt><trkpt lat="45.48894" lon="7.7422667"><ele>1059.0</ele><time>2026-04-25T14:43:37.674Z</time></trkpt><trkpt lat="45.48893" lon="7.742135"><ele>1059.0</ele><time>2026-04-25T14:43:38.674Z</time></trkpt><trkpt lat="45.4889217" lon="7.742015"><ele>1059.0</ele><time>2026-04-25T14:43:39.674Z</time></trkpt><trkpt lat="45.488915" lon="7.741895"><ele>1059.0</ele><time>2026-04-25T14:43:40.674Z</time></trkpt><trkpt lat="45.48891" lon="7.7417667"><ele>1059.0</ele><time>2026-04-25T14:43:41.674Z</time></trkpt><trkpt lat="45.4888933" lon="7.7416367"><ele>1058.2</ele><time>2026-04-25T14:43:42.674Z</time></trkpt><trkpt lat="45.48887" lon="7.7415033"><ele>1057.4</ele><time>2026-04-25T14:43:43.674Z</time></trkpt><trkpt lat="45.4888467" lon="7.741365"><ele>1056.6</ele><time>2026-04-25T14:43:44.674Z</time></trkpt><trkpt lat="45.488815" lon="7.7412317"><ele>1055.8</ele><time>2026-04-25T14:43:45.674Z</time></trkpt><trkpt lat="45.4887833" lon="7.7411083"><ele>1055.0</ele><time>2026-04-25T14:43:46.674Z</time></trkpt><trkpt lat="45.4887583" lon="7.740975"><ele>1054.2</ele><time>2026-04-25T14:43:47.674Z</time></trkpt><trkpt lat="45.48875" lon="7.740845"><ele>1053.4</ele><time>2026-04-25T14:43:48.674Z</time></trkpt><trkpt lat="45.4887633" lon="7.7407033"><ele>1052.6</ele><time>2026-04-25T14:43:49.674Z</time></trkpt><trkpt lat="45.4887933" lon="7.7405517"><ele>1051.8</ele><time>2026-04-25T14:43:50.674Z</time></trkpt><trkpt lat="45.48883" lon="7.7403967"><ele>1051.0</ele><time>2026-04-25T14:43:51.674Z</time></trkpt><trkpt lat="45.4888617" lon="7.74024"><ele>1051.6666666666665</ele><time>2026-04-25T14:43:52.674Z</time></trkpt><trkpt lat="45.48888" lon="7.7400933"><ele>1052.3333333333333</ele><time>2026-04-25T14:43:53.674Z</time></trkpt><trkpt lat="45.4888833" lon="7.73997"><ele>1053.0</ele><time>2026-04-25T14:43:54.674Z</time></trkpt><trkpt lat="45.4888783" lon="7.739855"><ele>1053.6666666666667</ele><time>2026-04-25T14:43:55.674Z</time></trkpt><trkpt lat="45.4888717" lon="7.7397517"><ele>1054.3333333333335</ele><time>2026-04-25T14:43:56.674Z</time></trkpt><trkpt lat="45.488865" lon="7.7396383"><ele>1055.0</ele><time>2026-04-25T14:43:57.674Z</time></trkpt><trkpt lat="45.4888683" lon="7.739535"><ele>1055.0</ele><time>2026-04-25T14:43:58.674Z</time></trkpt><trkpt lat="45.488865" lon="7.7394217"><ele>1055.0</ele><time>2026-04-25T14:43:59.674Z</time></trkpt><trkpt lat="45.4888683" lon="7.7393117"><ele>1055.0</ele><time>2026-04-25T14:44:00.674Z</time></trkpt><trkpt lat="45.48886" lon="7.7392017"><ele>1055.0</ele><time>2026-04-25T14:44:01.674Z</time></trkpt><trkpt lat="45.4888617" lon="7.7390667"><ele>1055.0</ele><time>2026-04-25T14:44:02.674Z</time></trkpt><trkpt lat="45.488865" lon="7.73894"><ele>1055.0</ele><time>2026-04-25T14:44:03.674Z</time></trkpt><trkpt lat="45.488865" lon="7.7387883"><ele>1056.5</ele><time>2026-04-25T14:44:04.674Z</time></trkpt><trkpt lat="45.4888617" lon="7.7386267"><ele>1058.0</ele><time>2026-04-25T14:44:05.674Z</time></trkpt><trkpt lat="45.4888633" lon="7.7384667"><ele>1059.5</ele><time>2026-04-25T14:44:06.675Z</time></trkpt><trkpt lat="45.4888583" lon="7.7382967"><ele>1061.0</ele><time>2026-04-25T14:44:07.674Z</time></trkpt><trkpt lat="45.4888483" lon="7.73814"><ele>1061.6</ele><time>2026-04-25T14:44:08.674Z</time></trkpt><trkpt lat="45.4888383" lon="7.7379983"><ele>1062.1999999999998</ele><time>2026-04-25T14:44:09.674Z</time></trkpt><trkpt lat="45.488825" lon="7.7378533"><ele>1062.8000000000002</ele><time>2026-04-25T14:44:10.674Z</time></trkpt><trkpt lat="45.48881" lon="7.7377167"><ele>1063.4</ele><time>2026-04-25T14:44:11.674Z</time></trkpt><trkpt lat="45.488795" lon="7.7375733"><ele>1064.0</ele><time>2026-04-25T14:44:12.674Z</time></trkpt><trkpt lat="45.48878" lon="7.73745"><ele>1069.1666666666667</ele><time>2026-04-25T14:44:13.674Z</time></trkpt><trkpt lat="45.4887583" lon="7.7373133"><ele>1074.3333333333335</ele><time>2026-04-25T14:44:14.674Z</time></trkpt><trkpt lat="45.4887317" lon="7.737195"><ele>1079.5</ele><time>2026-04-25T14:44:15.674Z</time></trkpt><trkpt lat="45.4887033" lon="7.7370717"><ele>1084.6666666666667</ele><time>2026-04-25T14:44:16.675Z</time></trkpt><trkpt lat="45.4886717" lon="7.7369567"><ele>1089.8333333333333</ele><time>2026-04-25T14:44:17.674Z</time></trkpt><trkpt lat="45.4886317" lon="7.73685"><ele>1095.0</ele><time>2026-04-25T14:44:18.675Z</time></trkpt><trkpt lat="45.4885967" lon="7.73674"><ele>1095.5</ele><time>2026-04-25T14:44:19.674Z</time></trkpt><trkpt lat="45.48857" lon="7.7366167"><ele>1096.0</ele><time>2026-04-25T14:44:20.674Z</time></trkpt><trkpt lat="45.48853" lon="7.7364867"><ele>1096.5</ele><time>2026-04-25T14:44:21.674Z</time></trkpt><trkpt lat="45.4884967" lon="7.7363717"><ele>1097.0</ele><time>2026-04-25T14:44:22.674Z</time></trkpt><trkpt lat="45.48847" lon="7.7362583"><ele>1097.5</ele><time>2026-04-25T14:44:23.674Z</time></trkpt><trkpt lat="45.488445" lon="7.7361383"><ele>1098.0</ele><time>2026-04-25T14:44:24.674Z</time></trkpt><trkpt lat="45.4884233" lon="7.7360117"><ele>1098.0</ele><time>2026-04-25T14:44:25.674Z</time></trkpt><trkpt lat="45.488405" lon="7.7358717"><ele>1098.0</ele><time>2026-04-25T14:44:26.674Z</time></trkpt><trkpt lat="45.48838" lon="7.73574"><ele>1098.0</ele><time>2026-04-25T14:44:27.674Z</time></trkpt><trkpt lat="45.48836" lon="7.7356233"><ele>1098.0</ele><time>2026-04-25T14:44:28.674Z</time></trkpt><trkpt lat="45.4883417" lon="7.73552"><ele>1098.0</ele><time>2026-04-25T14:44:29.674Z</time></trkpt><trkpt lat="45.488325" lon="7.7354067"><ele>1098.0</ele><time>2026-04-25T14:44:30.674Z</time></trkpt><trkpt lat="45.4883" lon="7.7353033"><ele>1097.1666666666667</ele><time>2026-04-25T14:44:31.674Z</time></trkpt><trkpt lat="45.4882783" lon="7.735215"><ele>1096.3333333333333</ele><time>2026-04-25T14:44:32.674Z</time></trkpt><trkpt lat="45.4882483" lon="7.735085"><ele>1095.5</ele><time>2026-04-25T14:44:34.674Z</time></trkpt><trkpt lat="45.4882317" lon="7.7349517"><ele>1094.6666666666665</ele><time>2026-04-25T14:44:36.674Z</time></trkpt><trkpt lat="45.4882083" lon="7.73482"><ele>1093.8333333333333</ele><time>2026-04-25T14:44:38.674Z</time></trkpt><trkpt lat="45.4882083" lon="7.7346867"><ele>1093.0</ele><time>2026-04-25T14:44:40.674Z</time></trkpt><trkpt lat="45.4882233" lon="7.73451"><ele>1093.0</ele><time>2026-04-25T14:44:42.674Z</time></trkpt><trkpt lat="45.48824" lon="7.7343967"><ele>1093.0</ele><time>2026-04-25T14:44:43.674Z</time></trkpt><trkpt lat="45.4882667" lon="7.734265"><ele>1093.0</ele><time>2026-04-25T14:44:44.674Z</time></trkpt><trkpt lat="45.4883067" lon="7.73413"><ele>1093.0</ele><time>2026-04-25T14:44:45.674Z</time></trkpt><trkpt lat="45.4883533" lon="7.7339833"><ele>1093.0</ele><time>2026-04-25T14:44:46.674Z</time></trkpt><trkpt lat="45.48841" lon="7.7338617"><ele>1092.8333333333333</ele><time>2026-04-25T14:44:47.674Z</time></trkpt><trkpt lat="45.4884583" lon="7.733745"><ele>1092.6666666666665</ele><time>2026-04-25T14:44:48.674Z</time></trkpt><trkpt lat="45.48849" lon="7.7336433"><ele>1092.5</ele><time>2026-04-25T14:44:49.674Z</time></trkpt><trkpt lat="45.4885217" lon="7.73353"><ele>1092.3333333333333</ele><time>2026-04-25T14:44:50.674Z</time></trkpt><trkpt lat="45.4885517" lon="7.7334467"><ele>1092.1666666666667</ele><time>2026-04-25T14:44:51.674Z</time></trkpt><trkpt lat="45.4886333" lon="7.7334083"><ele>1092.0</ele><time>2026-04-25T14:44:53.674Z</time></trkpt><trkpt lat="45.48869" lon="7.73346"><ele>1092.0</ele><time>2026-04-25T14:44:54.674Z</time></trkpt><trkpt lat="45.4887517" lon="7.7335883"><ele>1092.0</ele><time>2026-04-25T14:44:55.674Z</time></trkpt><trkpt lat="45.488835" lon="7.73376"><ele>1092.0</ele><time>2026-04-25T14:44:56.674Z</time></trkpt><trkpt lat="45.4889433" lon="7.7339267"><ele>1092.0</ele><time>2026-04-25T14:44:57.674Z</time></trkpt><trkpt lat="45.4890583" lon="7.7340633"><ele>1088.0</ele><time>2026-04-25T14:44:58.674Z</time></trkpt><trkpt lat="45.4891733" lon="7.7341733"><ele>1084.0</ele><time>2026-04-25T14:44:59.674Z</time></trkpt><trkpt lat="45.4892717" lon="7.7342817"><ele>1080.0</ele><time>2026-04-25T14:45:00.674Z</time></trkpt><trkpt lat="45.4893683" lon="7.7343917"><ele>1076.0</ele><time>2026-04-25T14:45:01.674Z</time></trkpt><trkpt lat="45.4894617" lon="7.7344983"><ele>1076.0</ele><time>2026-04-25T14:45:02.674Z</time></trkpt><trkpt lat="45.48955" lon="7.73461"><ele>1076.0</ele><time>2026-04-25T14:45:03.674Z</time></trkpt><trkpt lat="45.489625" lon="7.7347383"><ele>1076.0</ele><time>2026-04-25T14:45:04.674Z</time></trkpt><trkpt lat="45.4896917" lon="7.7348733"><ele>1076.0</ele><time>2026-04-25T14:45:05.674Z</time></trkpt><trkpt lat="45.4897517" lon="7.7350117"><ele>1072.5</ele><time>2026-04-25T14:45:06.674Z</time></trkpt><trkpt lat="45.489805" lon="7.73514"><ele>1069.0</ele><time>2026-04-25T14:45:07.674Z</time></trkpt><trkpt lat="45.4898683" lon="7.7352483"><ele>1065.5</ele><time>2026-04-25T14:45:08.674Z</time></trkpt><trkpt lat="45.4899283" lon="7.7353083"><ele>1062.0</ele><time>2026-04-25T14:45:09.674Z</time></trkpt><trkpt lat="45.4900017" lon="7.73533"><ele>1058.5</ele><time>2026-04-25T14:45:10.674Z</time></trkpt><trkpt lat="45.490075" lon="7.7353033"><ele>1055.0</ele><time>2026-04-25T14:45:11.674Z</time></trkpt><trkpt lat="45.4901367" lon="7.7352433"><ele>1055.0</ele><time>2026-04-25T14:45:12.674Z</time></trkpt><trkpt lat="45.49019" lon="7.7351483"><ele>1055.0</ele><time>2026-04-25T14:45:13.674Z</time></trkpt><trkpt lat="45.4902317" lon="7.7350133"><ele>1055.0</ele><time>2026-04-25T14:45:14.674Z</time></trkpt><trkpt lat="45.4902633" lon="7.734825"><ele>1055.0</ele><time>2026-04-25T14:45:15.675Z</time></trkpt><trkpt lat="45.4902967" lon="7.7346133"><ele>1055.0</ele><time>2026-04-25T14:45:16.674Z</time></trkpt><trkpt lat="45.4903233" lon="7.7344117"><ele>1055.0</ele><time>2026-04-25T14:45:17.674Z</time></trkpt><trkpt lat="45.490345" lon="7.7342367"><ele>1055.0</ele><time>2026-04-25T14:45:18.674Z</time></trkpt><trkpt lat="45.4903533" lon="7.7340633"><ele>1055.0</ele><time>2026-04-25T14:45:19.674Z</time></trkpt><trkpt lat="45.490355" lon="7.73388"><ele>1054.6</ele><time>2026-04-25T14:45:20.674Z</time></trkpt><trkpt lat="45.490355" lon="7.7336967"><ele>1054.2</ele><time>2026-04-25T14:45:21.674Z</time></trkpt><trkpt lat="45.4903533" lon="7.7335267"><ele>1053.8</ele><time>2026-04-25T14:45:22.674Z</time></trkpt><trkpt lat="45.4903467" lon="7.733385"><ele>1053.4</ele><time>2026-04-25T14:45:23.674Z</time></trkpt><trkpt lat="45.4903383" lon="7.73328"><ele>1053.0</ele><time>2026-04-25T14:45:24.674Z</time></trkpt><trkpt lat="45.490355" lon="7.733155"><ele>1046.5</ele><time>2026-04-25T14:45:26.674Z</time></trkpt><trkpt lat="45.49044" lon="7.7332"><ele>1040.0</ele><time>2026-04-25T14:45:28.674Z</time></trkpt><trkpt lat="45.49051" lon="7.73331"><ele>1033.5</ele><time>2026-04-25T14:45:29.674Z</time></trkpt><trkpt lat="45.4906017" lon="7.73348"><ele>1027.0</ele><time>2026-04-25T14:45:30.674Z</time></trkpt><trkpt lat="45.4907" lon="7.7336767"><ele>1027.0</ele><time>2026-04-25T14:45:31.674Z</time></trkpt><trkpt lat="45.490775" lon="7.733855"><ele>1027.0</ele><time>2026-04-25T14:45:32.674Z</time></trkpt><trkpt lat="45.4908467" lon="7.73402"><ele>1027.0</ele><time>2026-04-25T14:45:33.674Z</time></trkpt><trkpt lat="45.4909217" lon="7.73418"><ele>1027.0</ele><time>2026-04-25T14:45:34.674Z</time></trkpt><trkpt lat="45.49099" lon="7.7343417"><ele>1027.6</ele><time>2026-04-25T14:45:35.675Z</time></trkpt><trkpt lat="45.491065" lon="7.7344817"><ele>1028.2</ele><time>2026-04-25T14:45:36.674Z</time></trkpt><trkpt lat="45.4911367" lon="7.7346067"><ele>1028.8</ele><time>2026-04-25T14:45:37.674Z</time></trkpt><trkpt lat="45.4911917" lon="7.7347167"><ele>1029.4</ele><time>2026-04-25T14:45:38.674Z</time></trkpt><trkpt lat="45.491225" lon="7.7348183"><ele>1030.0</ele><time>2026-04-25T14:45:39.674Z</time></trkpt><trkpt lat="45.4912833" lon="7.7349367"><ele>1023.5</ele><time>2026-04-25T14:45:41.674Z</time></trkpt><trkpt lat="45.491385" lon="7.7348867"><ele>1017.0</ele><time>2026-04-25T14:45:43.674Z</time></trkpt><trkpt lat="45.4914383" lon="7.73479"><ele>1010.5</ele><time>2026-04-25T14:45:44.674Z</time></trkpt><trkpt lat="45.4915033" lon="7.73464"><ele>1004.0</ele><time>2026-04-25T14:45:45.674Z</time></trkpt><trkpt lat="45.4915667" lon="7.73446"><ele>1004.5</ele><time>2026-04-25T14:45:46.674Z</time></trkpt><trkpt lat="45.4916283" lon="7.7343017"><ele>1005.0</ele><time>2026-04-25T14:45:47.674Z</time></trkpt><trkpt lat="45.4916783" lon="7.7341583"><ele>1005.5</ele><time>2026-04-25T14:45:48.674Z</time></trkpt><trkpt lat="45.49172" lon="7.7340117"><ele>1006.0</ele><time>2026-04-25T14:45:49.674Z</time></trkpt><trkpt lat="45.49174" lon="7.7338717"><ele>1006.0</ele><time>2026-04-25T14:45:50.674Z</time></trkpt><trkpt lat="45.4917433" lon="7.7337317"><ele>1005.9999999999999</ele><time>2026-04-25T14:45:51.674Z</time></trkpt><trkpt lat="45.491735" lon="7.7335917"><ele>1005.9999999999999</ele><time>2026-04-25T14:45:52.674Z</time></trkpt><trkpt lat="45.4917217" lon="7.73347"><ele>1006.0</ele><time>2026-04-25T14:45:53.674Z</time></trkpt><trkpt lat="45.4917117" lon="7.733375"><ele>1006.0</ele><time>2026-04-25T14:45:54.675Z</time></trkpt><trkpt lat="45.49171" lon="7.7332133"><ele>1004.8</ele><time>2026-04-25T14:45:56.674Z</time></trkpt><trkpt lat="45.4918067" lon="7.7332017"><ele>1003.5999999999999</ele><time>2026-04-25T14:45:59.674Z</time></trkpt><trkpt lat="45.4918683" lon="7.73328"><ele>1002.4</ele><time>2026-04-25T14:46:00.674Z</time></trkpt><trkpt lat="45.491955" lon="7.73341"><ele>1001.2</ele><time>2026-04-25T14:46:01.674Z</time></trkpt><trkpt lat="45.4920583" lon="7.7335433"><ele>1000.0</ele><time>2026-04-25T14:46:02.674Z</time></trkpt><trkpt lat="45.4921617" lon="7.7336517"><ele>996.4</ele><time>2026-04-25T14:46:03.674Z</time></trkpt><trkpt lat="45.4922583" lon="7.733725"><ele>992.8</ele><time>2026-04-25T14:46:04.674Z</time></trkpt><trkpt lat="45.492355" lon="7.7337717"><ele>989.2</ele><time>2026-04-25T14:46:05.674Z</time></trkpt><trkpt lat="45.4924433" lon="7.7338"><ele>985.6</ele><time>2026-04-25T14:46:06.674Z</time></trkpt><trkpt lat="45.492535" lon="7.7338367"><ele>982.0</ele><time>2026-04-25T14:46:07.674Z</time></trkpt><trkpt lat="45.4926233" lon="7.7339017"><ele>982.0</ele><time>2026-04-25T14:46:08.674Z</time></trkpt><trkpt lat="45.4927" lon="7.734015"><ele>982.0</ele><time>2026-04-25T14:46:09.674Z</time></trkpt><trkpt lat="45.492755" lon="7.7341533"><ele>982.0</ele><time>2026-04-25T14:46:10.674Z</time></trkpt><trkpt lat="45.49279" lon="7.7343217"><ele>982.0</ele><time>2026-04-25T14:46:11.674Z</time></trkpt><trkpt lat="45.4927933" lon="7.7345183"><ele>981.75</ele><time>2026-04-25T14:46:12.674Z</time></trkpt><trkpt lat="45.49279" lon="7.734715"><ele>981.5</ele><time>2026-04-25T14:46:13.674Z</time></trkpt><trkpt lat="45.492785" lon="7.73491"><ele>981.25</ele><time>2026-04-25T14:46:14.674Z</time></trkpt><trkpt lat="45.4927833" lon="7.7351083"><ele>981.0</ele><time>2026-04-25T14:46:15.674Z</time></trkpt><trkpt lat="45.492785" lon="7.7353017"><ele>979.8</ele><time>2026-04-25T14:46:16.675Z</time></trkpt><trkpt lat="45.492785" lon="7.7354717"><ele>978.5999999999999</ele><time>2026-04-25T14:46:17.674Z</time></trkpt><trkpt lat="45.492785" lon="7.7356267"><ele>977.4</ele><time>2026-04-25T14:46:18.675Z</time></trkpt><trkpt lat="45.4927833" lon="7.735755"><ele>976.2</ele><time>2026-04-25T14:46:19.674Z</time></trkpt><trkpt lat="45.4927733" lon="7.7358483"><ele>975.0</ele><time>2026-04-25T14:46:20.674Z</time></trkpt><trkpt lat="45.492815" lon="7.7359667"><ele>967.75</ele><time>2026-04-25T14:46:22.674Z</time></trkpt><trkpt lat="45.4929233" lon="7.73587"><ele>960.5</ele><time>2026-04-25T14:46:24.674Z</time></trkpt><trkpt lat="45.4929933" lon="7.7357417"><ele>953.25</ele><time>2026-04-25T14:46:25.674Z</time></trkpt><trkpt lat="45.49307" lon="7.7355867"><ele>946.0</ele><time>2026-04-25T14:46:26.674Z</time></trkpt><trkpt lat="45.4931433" lon="7.7354417"><ele>946.0</ele><time>2026-04-25T14:46:27.674Z</time></trkpt><trkpt lat="45.493195" lon="7.7353217"><ele>945.9999999999999</ele><time>2026-04-25T14:46:28.674Z</time></trkpt><trkpt lat="45.493245" lon="7.7352367"><ele>945.9999999999999</ele><time>2026-04-25T14:46:29.675Z</time></trkpt><trkpt lat="45.49333" lon="7.7351867"><ele>946.0</ele><time>2026-04-25T14:46:31.674Z</time></trkpt><trkpt lat="45.49337" lon="7.735325"><ele>946.0</ele><time>2026-04-25T14:46:33.675Z</time></trkpt><trkpt lat="45.4933733" lon="7.7354667"><ele>946.0</ele><time>2026-04-25T14:46:34.674Z</time></trkpt><trkpt lat="45.4933617" lon="7.7356667"><ele>946.0</ele><time>2026-04-25T14:46:35.674Z</time></trkpt><trkpt lat="45.493335" lon="7.7359067"><ele>946.0</ele><time>2026-04-25T14:46:36.674Z</time></trkpt><trkpt lat="45.49329" lon="7.7361467"><ele>943.0</ele><time>2026-04-25T14:46:37.674Z</time></trkpt><trkpt lat="45.493255" lon="7.7363567"><ele>940.0</ele><time>2026-04-25T14:46:38.674Z</time></trkpt><trkpt lat="45.493205" lon="7.7365117"><ele>937.0</ele><time>2026-04-25T14:46:39.674Z</time></trkpt><trkpt lat="45.4931367" lon="7.73665"><ele>934.0</ele><time>2026-04-25T14:46:40.674Z</time></trkpt><trkpt lat="45.4930783" lon="7.7367967"><ele>932.0</ele><time>2026-04-25T14:46:41.674Z</time></trkpt><trkpt lat="45.4930417" lon="7.736945"><ele>930.0</ele><time>2026-04-25T14:46:42.674Z</time></trkpt><trkpt lat="45.4930517" lon="7.7371017"><ele>928.0</ele><time>2026-04-25T14:46:43.674Z</time></trkpt><trkpt lat="45.4930933" lon="7.737255"><ele>926.0</ele><time>2026-04-25T14:46:44.674Z</time></trkpt><trkpt lat="45.493155" lon="7.7374117"><ele>926.0</ele><time>2026-04-25T14:46:45.674Z</time></trkpt><trkpt lat="45.4932017" lon="7.73757"><ele>926.0</ele><time>2026-04-25T14:46:46.674Z</time></trkpt><trkpt lat="45.49324" lon="7.7377317"><ele>926.0</ele><time>2026-04-25T14:46:47.674Z</time></trkpt><trkpt lat="45.49327" lon="7.737925"><ele>926.0</ele><time>2026-04-25T14:46:48.674Z</time></trkpt><trkpt lat="45.4932967" lon="7.738135"><ele>924.3333333333334</ele><time>2026-04-25T14:46:49.674Z</time></trkpt><trkpt lat="45.4933183" lon="7.7383583"><ele>922.6666666666667</ele><time>2026-04-25T14:46:50.674Z</time></trkpt><trkpt lat="45.4933167" lon="7.7385783"><ele>921.0</ele><time>2026-04-25T14:46:51.674Z</time></trkpt><trkpt lat="45.4933" lon="7.73878"><ele>917.75</ele><time>2026-04-25T14:46:52.674Z</time></trkpt><trkpt lat="45.4932733" lon="7.73897"><ele>914.5</ele><time>2026-04-25T14:46:53.674Z</time></trkpt><trkpt lat="45.4932333" lon="7.739165"><ele>911.25</ele><time>2026-04-25T14:46:54.674Z</time></trkpt><trkpt lat="45.4931733" lon="7.73935"><ele>908.0</ele><time>2026-04-25T14:46:55.674Z</time></trkpt><trkpt lat="45.493085" lon="7.7395433"><ele>903.3333333333334</ele><time>2026-04-25T14:46:56.674Z</time></trkpt><trkpt lat="45.4929967" lon="7.7397333"><ele>898.6666666666667</ele><time>2026-04-25T14:46:57.674Z</time></trkpt><trkpt lat="45.4929483" lon="7.7399567"><ele>894.0</ele><time>2026-04-25T14:46:58.674Z</time></trkpt><trkpt lat="45.49291" lon="7.7401567"><ele>901.0</ele><time>2026-04-25T14:46:59.674Z</time></trkpt><trkpt lat="45.4928683" lon="7.740355"><ele>908.0</ele><time>2026-04-25T14:47:00.674Z</time></trkpt><trkpt lat="45.4928317" lon="7.74053"><ele>915.0</ele><time>2026-04-25T14:47:01.674Z</time></trkpt><trkpt lat="45.4928067" lon="7.7406933"><ele>922.0</ele><time>2026-04-25T14:47:02.674Z</time></trkpt><trkpt lat="45.4928067" lon="7.7408633"><ele>922.0</ele><time>2026-04-25T14:47:03.675Z</time></trkpt><trkpt lat="45.4928367" lon="7.741045"><ele>922.0</ele><time>2026-04-25T14:47:04.674Z</time></trkpt><trkpt lat="45.4928817" lon="7.7412083"><ele>922.0</ele><time>2026-04-25T14:47:05.674Z</time></trkpt><trkpt lat="45.4929267" lon="7.7413583"><ele>922.0</ele><time>2026-04-25T14:47:06.674Z</time></trkpt><trkpt lat="45.4930033" lon="7.7415067"><ele>917.25</ele><time>2026-04-25T14:47:07.674Z</time></trkpt><trkpt lat="45.493105" lon="7.74167"><ele>912.5</ele><time>2026-04-25T14:47:08.674Z</time></trkpt><trkpt lat="45.4932183" lon="7.74181"><ele>907.75</ele><time>2026-04-25T14:47:09.674Z</time></trkpt><trkpt lat="45.4933217" lon="7.741945"><ele>903.0</ele><time>2026-04-25T14:47:10.674Z</time></trkpt><trkpt lat="45.4934167" lon="7.74209"><ele>903.0</ele><time>2026-04-25T14:47:11.674Z</time></trkpt><trkpt lat="45.493515" lon="7.7422417"><ele>903.0</ele><time>2026-04-25T14:47:12.674Z</time></trkpt><trkpt lat="45.493605" lon="7.7423983"><ele>903.0</ele><time>2026-04-25T14:47:13.674Z</time></trkpt><trkpt lat="45.49369" lon="7.74254"><ele>903.0</ele><time>2026-04-25T14:47:14.674Z</time></trkpt><trkpt lat="45.4937917" lon="7.74267"><ele>896.75</ele><time>2026-04-25T14:47:15.674Z</time></trkpt><trkpt lat="45.4938983" lon="7.7427917"><ele>890.5</ele><time>2026-04-25T14:47:16.674Z</time></trkpt><trkpt lat="45.4940167" lon="7.7429033"><ele>884.25</ele><time>2026-04-25T14:47:17.674Z</time></trkpt><trkpt lat="45.4941383" lon="7.7430033"><ele>878.0</ele><time>2026-04-25T14:47:18.674Z</time></trkpt><trkpt lat="45.4942383" lon="7.7431217"><ele>878.0</ele><time>2026-04-25T14:47:19.674Z</time></trkpt><trkpt lat="45.4943283" lon="7.7432283"><ele>878.0</ele><time>2026-04-25T14:47:20.674Z</time></trkpt><trkpt lat="45.494415" lon="7.7433283"><ele>878.0</ele><time>2026-04-25T14:47:21.674Z</time></trkpt><trkpt lat="45.494495" lon="7.7434167"><ele>878.0</ele><time>2026-04-25T14:47:22.674Z</time></trkpt><trkpt lat="45.4945883" lon="7.7434633"><ele>878.0</ele><time>2026-04-25T14:47:23.674Z</time></trkpt><trkpt lat="45.49469" lon="7.7434867"><ele>872.8</ele><time>2026-04-25T14:47:24.674Z</time></trkpt><trkpt lat="45.4947917" lon="7.743515"><ele>867.5999999999999</ele><time>2026-04-25T14:47:25.674Z</time></trkpt><trkpt lat="45.4948967" lon="7.7435467"><ele>862.4000000000001</ele><time>2026-04-25T14:47:26.674Z</time></trkpt><trkpt lat="45.4950067" lon="7.743595"><ele>857.2</ele><time>2026-04-25T14:47:27.674Z</time></trkpt><trkpt lat="45.4951" lon="7.7436367"><ele>852.0</ele><time>2026-04-25T14:47:28.674Z</time></trkpt><trkpt lat="45.4951733" lon="7.74368"><ele>851.5714285714286</ele><time>2026-04-25T14:47:29.674Z</time></trkpt><trkpt lat="45.495225" lon="7.7437467"><ele>851.1428571428571</ele><time>2026-04-25T14:47:30.674Z</time></trkpt><trkpt lat="45.4952417" lon="7.7438333"><ele>850.7142857142858</ele><time>2026-04-25T14:47:31.674Z</time></trkpt><trkpt lat="45.4952267" lon="7.7439217"><ele>850.2857142857142</ele><time>2026-04-25T14:47:32.674Z</time></trkpt><trkpt lat="45.4951717" lon="7.7439883"><ele>849.8571428571429</ele><time>2026-04-25T14:47:33.674Z</time></trkpt><trkpt lat="45.4951067" lon="7.74402"><ele>849.4285714285714</ele><time>2026-04-25T14:47:34.674Z</time></trkpt><trkpt lat="45.49503" lon="7.7440583"><ele>849.0</ele><time>2026-04-25T14:47:35.674Z</time></trkpt><trkpt lat="45.4949733" lon="7.7441083"><ele>849.0</ele><time>2026-04-25T14:47:36.674Z</time></trkpt><trkpt lat="45.49493" lon="7.7442667"><ele>849.0</ele><time>2026-04-25T14:47:38.674Z</time></trkpt><trkpt lat="45.4949583" lon="7.7443517"><ele>849.0</ele><time>2026-04-25T14:47:39.675Z</time></trkpt><trkpt lat="45.4950183" lon="7.7444517"><ele>849.0</ele><time>2026-04-25T14:47:40.674Z</time></trkpt><trkpt lat="45.4951167" lon="7.744565"><ele>849.0</ele><time>2026-04-25T14:47:41.674Z</time></trkpt><trkpt lat="45.495245" lon="7.744685"><ele>845.0</ele><time>2026-04-25T14:47:42.674Z</time></trkpt><trkpt lat="45.495395" lon="7.7448033"><ele>841.0</ele><time>2026-04-25T14:47:43.674Z</time></trkpt><trkpt lat="45.49551" lon="7.7449367"><ele>837.0</ele><time>2026-04-25T14:47:44.674Z</time></trkpt><trkpt lat="45.4955833" lon="7.745055"><ele>833.0</ele><time>2026-04-25T14:47:45.674Z</time></trkpt><trkpt lat="45.4956417" lon="7.7451567"><ele>832.0</ele><time>2026-04-25T14:47:46.674Z</time></trkpt><trkpt lat="45.4957283" lon="7.7452633"><ele>831.0</ele><time>2026-04-25T14:47:48.674Z</time></trkpt><trkpt lat="45.4958367" lon="7.7452283"><ele>830.0</ele><time>2026-04-25T14:47:50.674Z</time></trkpt><trkpt lat="45.4959017" lon="7.74512"><ele>829.0</ele><time>2026-04-25T14:47:51.674Z</time></trkpt><trkpt lat="45.495965" lon="7.744955"><ele>829.0</ele><time>2026-04-25T14:47:52.674Z</time></trkpt><trkpt lat="45.4960383" lon="7.7447583"><ele>829.0</ele><time>2026-04-25T14:47:53.674Z</time></trkpt><trkpt lat="45.49611" lon="7.7445583"><ele>829.0</ele><time>2026-04-25T14:47:54.674Z</time></trkpt><trkpt lat="45.4961717" lon="7.7443583"><ele>830.5</ele><time>2026-04-25T14:47:55.674Z</time></trkpt><trkpt lat="45.4962267" lon="7.7441533"><ele>832.0</ele><time>2026-04-25T14:47:56.674Z</time></trkpt><trkpt lat="45.4962767" lon="7.7439583"><ele>833.5</ele><time>2026-04-25T14:47:57.675Z</time></trkpt><trkpt lat="45.4963283" lon="7.74377"><ele>835.0</ele><time>2026-04-25T14:47:58.674Z</time></trkpt><trkpt lat="45.4963867" lon="7.7436167"><ele>828.0</ele><time>2026-04-25T14:47:59.674Z</time></trkpt><trkpt lat="45.49645" lon="7.7434883"><ele>821.0</ele><time>2026-04-25T14:48:00.674Z</time></trkpt><trkpt lat="45.496515" lon="7.74337"><ele>814.0</ele><time>2026-04-25T14:48:01.674Z</time></trkpt><trkpt lat="45.4965517" lon="7.7432567"><ele>807.0</ele><time>2026-04-25T14:48:02.674Z</time></trkpt><trkpt lat="45.496565" lon="7.7431233"><ele>800.0</ele><time>2026-04-25T14:48:03.674Z</time></trkpt><trkpt lat="45.496565" lon="7.7429683"><ele>800.0</ele><time>2026-04-25T14:48:04.674Z</time></trkpt><trkpt lat="45.4965533" lon="7.7428067"><ele>800.0</ele><time>2026-04-25T14:48:05.674Z</time></trkpt><trkpt lat="45.496535" lon="7.74264"><ele>800.0</ele><time>2026-04-25T14:48:06.674Z</time></trkpt><trkpt lat="45.496495" lon="7.7424633"><ele>800.0</ele><time>2026-04-25T14:48:07.674Z</time></trkpt><trkpt lat="45.4964417" lon="7.7422983"><ele>800.5</ele><time>2026-04-25T14:48:08.674Z</time></trkpt><trkpt lat="45.49638" lon="7.74214"><ele>801.0</ele><time>2026-04-25T14:48:09.674Z</time></trkpt><trkpt lat="45.4963017" lon="7.7420117"><ele>801.5</ele><time>2026-04-25T14:48:10.674Z</time></trkpt><trkpt lat="45.4962133" lon="7.7419033"><ele>802.0</ele><time>2026-04-25T14:48:11.674Z</time></trkpt><trkpt lat="45.4961317" lon="7.741795"><ele>801.9999999999999</ele><time>2026-04-25T14:48:12.674Z</time></trkpt><trkpt lat="45.4960783" lon="7.7417083"><ele>802.0</ele><time>2026-04-25T14:48:13.674Z</time></trkpt><trkpt lat="45.4960433" lon="7.74161"><ele>802.0</ele><time>2026-04-25T14:48:14.674Z</time></trkpt><trkpt lat="45.49605" lon="7.7415033"><ele>802.0</ele><time>2026-04-25T14:48:15.674Z</time></trkpt><trkpt lat="45.4960983" lon="7.7414217"><ele>801.9999999999999</ele><time>2026-04-25T14:48:16.674Z</time></trkpt><trkpt lat="45.4962017" lon="7.7413317"><ele>802.0</ele><time>2026-04-25T14:48:17.674Z</time></trkpt><trkpt lat="45.49636" lon="7.7412117"><ele>796.6666666666666</ele><time>2026-04-25T14:48:18.674Z</time></trkpt><trkpt lat="45.4965283" lon="7.7410683"><ele>791.3333333333333</ele><time>2026-04-25T14:48:19.674Z</time></trkpt><trkpt lat="45.4966733" lon="7.7409383"><ele>786.0</ele><time>2026-04-25T14:48:20.674Z</time></trkpt><trkpt lat="45.4967783" lon="7.7408117"><ele>786.0</ele><time>2026-04-25T14:48:21.674Z</time></trkpt><trkpt lat="45.4968667" lon="7.740715"><ele>786.0</ele><time>2026-04-25T14:48:22.674Z</time></trkpt><trkpt lat="45.49695" lon="7.7406717"><ele>786.0</ele><time>2026-04-25T14:48:23.674Z</time></trkpt><trkpt lat="45.4970283" lon="7.74068"><ele>786.0</ele><time>2026-04-25T14:48:24.674Z</time></trkpt><trkpt lat="45.4970983" lon="7.740735"><ele>786.0</ele><time>2026-04-25T14:48:25.674Z</time></trkpt><trkpt lat="45.4971533" lon="7.740855"><ele>782.0</ele><time>2026-04-25T14:48:26.674Z</time></trkpt><trkpt lat="45.4972117" lon="7.7410167"><ele>778.0</ele><time>2026-04-25T14:48:27.674Z</time></trkpt><trkpt lat="45.497285" lon="7.7411217"><ele>774.0</ele><time>2026-04-25T14:48:28.674Z</time></trkpt><trkpt lat="45.4973967" lon="7.7411433"><ele>770.0</ele><time>2026-04-25T14:48:29.674Z</time></trkpt><trkpt lat="45.4975233" lon="7.7410983"><ele>770.0</ele><time>2026-04-25T14:48:30.674Z</time></trkpt><trkpt lat="45.4976467" lon="7.7410067"><ele>770.0</ele><time>2026-04-25T14:48:31.674Z</time></trkpt><trkpt lat="45.49775" lon="7.7409133"><ele>770.0</ele><time>2026-04-25T14:48:32.674Z</time></trkpt><trkpt lat="45.4978667" lon="7.7408183"><ele>770.0</ele><time>2026-04-25T14:48:33.674Z</time></trkpt><trkpt lat="45.49799" lon="7.7407283"><ele>767.75</ele><time>2026-04-25T14:48:34.674Z</time></trkpt><trkpt lat="45.4981017" lon="7.7406467"><ele>765.5</ele><time>2026-04-25T14:48:35.674Z</time></trkpt><trkpt lat="45.4982067" lon="7.7405717"><ele>763.25</ele><time>2026-04-25T14:48:36.674Z</time></trkpt><trkpt lat="45.498305" lon="7.7405067"><ele>761.0</ele><time>2026-04-25T14:48:37.674Z</time></trkpt><trkpt lat="45.4984" lon="7.740435"><ele>761.0</ele><time>2026-04-25T14:48:38.674Z</time></trkpt><trkpt lat="45.4984967" lon="7.7403617"><ele>761.0</ele><time>2026-04-25T14:48:39.674Z</time></trkpt><trkpt lat="45.4985833" lon="7.7402917"><ele>761.0</ele><time>2026-04-25T14:48:40.674Z</time></trkpt><trkpt lat="45.49867" lon="7.7402567"><ele>761.0</ele><time>2026-04-25T14:48:41.674Z</time></trkpt><trkpt lat="45.4987667" lon="7.74027"><ele>761.0</ele><time>2026-04-25T14:48:42.674Z</time></trkpt><trkpt lat="45.4988517" lon="7.74033"><ele>759.3333333333333</ele><time>2026-04-25T14:48:43.674Z</time></trkpt><trkpt lat="45.4989283" lon="7.7404067"><ele>757.6666666666666</ele><time>2026-04-25T14:48:44.674Z</time></trkpt><trkpt lat="45.4989867" lon="7.7404833"><ele>756.0</ele><time>2026-04-25T14:48:45.674Z</time></trkpt><trkpt lat="45.49904" lon="7.7405367"><ele>754.3333333333334</ele><time>2026-04-25T14:48:46.674Z</time></trkpt><trkpt lat="45.4991017" lon="7.7406783"><ele>752.6666666666667</ele><time>2026-04-25T14:48:48.674Z</time></trkpt><trkpt lat="45.4991183" lon="7.74079"><ele>751.0</ele><time>2026-04-25T14:48:49.674Z</time></trkpt><trkpt lat="45.4991367" lon="7.7409383"><ele>749.75</ele><time>2026-04-25T14:48:50.674Z</time></trkpt><trkpt lat="45.4991517" lon="7.7411033"><ele>748.5</ele><time>2026-04-25T14:48:51.674Z</time></trkpt><trkpt lat="45.499185" lon="7.741265"><ele>747.25</ele><time>2026-04-25T14:48:52.674Z</time></trkpt><trkpt lat="45.4992167" lon="7.7414217"><ele>746.0</ele><time>2026-04-25T14:48:53.674Z</time></trkpt><trkpt lat="45.499235" lon="7.74157"><ele>746.0</ele><time>2026-04-25T14:48:54.674Z</time></trkpt><trkpt lat="45.499225" lon="7.7417133"><ele>746.0</ele><time>2026-04-25T14:48:55.674Z</time></trkpt><trkpt lat="45.4991783" lon="7.741835"><ele>746.0</ele><time>2026-04-25T14:48:56.674Z</time></trkpt><trkpt lat="45.4991217" lon="7.74194"><ele>746.0</ele><time>2026-04-25T14:48:57.674Z</time></trkpt><trkpt lat="45.4990483" lon="7.742035"><ele>746.0</ele><time>2026-04-25T14:48:58.674Z</time></trkpt><trkpt lat="45.498985" lon="7.7421433"><ele>746.5999999999999</ele><time>2026-04-25T14:48:59.674Z</time></trkpt><trkpt lat="45.4989167" lon="7.7422567"><ele>747.2</ele><time>2026-04-25T14:49:00.674Z</time></trkpt><trkpt lat="45.4988533" lon="7.7423767"><ele>747.8</ele><time>2026-04-25T14:49:01.674Z</time></trkpt><trkpt lat="45.4988" lon="7.7424967"><ele>748.4000000000001</ele><time>2026-04-25T14:49:02.674Z</time></trkpt><trkpt lat="45.4987483" lon="7.7426167"><ele>749.0</ele><time>2026-04-25T14:49:03.674Z</time></trkpt><trkpt lat="45.49871" lon="7.7427367"><ele>749.0</ele><time>2026-04-25T14:49:04.674Z</time></trkpt><trkpt lat="45.4986867" lon="7.7428533"><ele>749.0</ele><time>2026-04-25T14:49:05.674Z</time></trkpt><trkpt lat="45.498685" lon="7.7429867"><ele>749.0</ele><time>2026-04-25T14:49:06.674Z</time></trkpt><trkpt lat="45.498715" lon="7.74312"><ele>749.0</ele><time>2026-04-25T14:49:07.674Z</time></trkpt><trkpt lat="45.49879" lon="7.7432383"><ele>749.0</ele><time>2026-04-25T14:49:08.674Z</time></trkpt><trkpt lat="45.4988983" lon="7.74333"><ele>743.75</ele><time>2026-04-25T14:49:09.674Z</time></trkpt><trkpt lat="45.499015" lon="7.7434133"><ele>738.5</ele><time>2026-04-25T14:49:10.674Z</time></trkpt><trkpt lat="45.4991217" lon="7.7435017"><ele>733.25</ele><time>2026-04-25T14:49:11.674Z</time></trkpt><trkpt lat="45.4992183" lon="7.7435917"><ele>728.0</ele><time>2026-04-25T14:49:12.674Z</time></trkpt><trkpt lat="45.4993117" lon="7.7436817"><ele>726.4</ele><time>2026-04-25T14:49:13.674Z</time></trkpt><trkpt lat="45.4994133" lon="7.7437733"><ele>724.8</ele><time>2026-04-25T14:49:14.674Z</time></trkpt><trkpt lat="45.4994983" lon="7.743875"><ele>723.2</ele><time>2026-04-25T14:49:15.674Z</time></trkpt><trkpt lat="45.49956" lon="7.743975"><ele>721.6</ele><time>2026-04-25T14:49:16.674Z</time></trkpt><trkpt lat="45.4996367" lon="7.7440567"><ele>720.0</ele><time>2026-04-25T14:49:17.674Z</time></trkpt><trkpt lat="45.4996833" lon="7.744155"><ele>719.6666666666666</ele><time>2026-04-25T14:49:18.674Z</time></trkpt><trkpt lat="45.49971" lon="7.74426"><ele>719.3333333333334</ele><time>2026-04-25T14:49:19.674Z</time></trkpt><trkpt lat="45.4997017" lon="7.74436"><ele>719.0</ele><time>2026-04-25T14:49:20.674Z</time></trkpt><trkpt lat="45.49965" lon="7.74444"><ele>718.6666666666667</ele><time>2026-04-25T14:49:21.674Z</time></trkpt><trkpt lat="45.4995867" lon="7.7445017"><ele>718.3333333333334</ele><time>2026-04-25T14:49:22.674Z</time></trkpt><trkpt lat="45.4995133" lon="7.7445517"><ele>718.0</ele><time>2026-04-25T14:49:23.674Z</time></trkpt><trkpt lat="45.4994367" lon="7.7446017"><ele>717.2</ele><time>2026-04-25T14:49:24.674Z</time></trkpt><trkpt lat="45.4993483" lon="7.7446583"><ele>716.4</ele><time>2026-04-25T14:49:25.674Z</time></trkpt><trkpt lat="45.49926" lon="7.7447467"><ele>715.6</ele><time>2026-04-25T14:49:26.674Z</time></trkpt><trkpt lat="45.49918" lon="7.7448533"><ele>714.8000000000001</ele><time>2026-04-25T14:49:27.674Z</time></trkpt><trkpt lat="45.4991133" lon="7.7449733"><ele>714.0</ele><time>2026-04-25T14:49:28.674Z</time></trkpt><trkpt lat="45.4990583" lon="7.7450883"><ele>714.0</ele><time>2026-04-25T14:49:29.674Z</time></trkpt><trkpt lat="45.4990017" lon="7.7452067"><ele>714.0</ele><time>2026-04-25T14:49:30.675Z</time></trkpt><trkpt lat="45.498945" lon="7.7453217"><ele>714.0</ele><time>2026-04-25T14:49:31.674Z</time></trkpt><trkpt lat="45.4988917" lon="7.745425"><ele>714.0</ele><time>2026-04-25T14:49:32.674Z</time></trkpt><trkpt lat="45.4988383" lon="7.7455267"><ele>714.0</ele><time>2026-04-25T14:49:33.674Z</time></trkpt><trkpt lat="45.4987967" lon="7.7456083"><ele>714.0</ele><time>2026-04-25T14:49:34.674Z</time></trkpt><trkpt lat="45.49875" lon="7.74574"><ele>713.0</ele><time>2026-04-25T14:49:36.674Z</time></trkpt><trkpt lat="45.498755" lon="7.7458333"><ele>712.0</ele><time>2026-04-25T14:49:37.674Z</time></trkpt><trkpt lat="45.4987717" lon="7.7459383"><ele>711.0</ele><time>2026-04-25T14:49:38.674Z</time></trkpt><trkpt lat="45.49877" lon="7.74606"><ele>710.0</ele><time>2026-04-25T14:49:39.674Z</time></trkpt><trkpt lat="45.4987467" lon="7.7461983"><ele>709.0</ele><time>2026-04-25T14:49:40.674Z</time></trkpt><trkpt lat="45.498705" lon="7.746345"><ele>708.0</ele><time>2026-04-25T14:49:41.674Z</time></trkpt><trkpt lat="45.49866" lon="7.7465033"><ele>707.25</ele><time>2026-04-25T14:49:42.675Z</time></trkpt><trkpt lat="45.4986067" lon="7.7466533"><ele>706.5</ele><time>2026-04-25T14:49:43.674Z</time></trkpt><trkpt lat="45.4985583" lon="7.746815"><ele>705.75</ele><time>2026-04-25T14:49:44.674Z</time></trkpt><trkpt lat="45.4985067" lon="7.746995"><ele>705.0</ele><time>2026-04-25T14:49:45.674Z</time></trkpt><trkpt lat="45.4984483" lon="7.7471783"><ele>704.5</ele><time>2026-04-25T14:49:46.674Z</time></trkpt><trkpt lat="45.498395" lon="7.7473617"><ele>704.0</ele><time>2026-04-25T14:49:47.674Z</time></trkpt><trkpt lat="45.4983417" lon="7.7475317"><ele>703.5</ele><time>2026-04-25T14:49:48.674Z</time></trkpt><trkpt lat="45.4982933" lon="7.7476983"><ele>703.0</ele><time>2026-04-25T14:49:49.674Z</time></trkpt><trkpt lat="45.49824" lon="7.7478667"><ele>701.5</ele><time>2026-04-25T14:49:50.674Z</time></trkpt><trkpt lat="45.49819" lon="7.7480617"><ele>700.0</ele><time>2026-04-25T14:49:51.674Z</time></trkpt><trkpt lat="45.4981483" lon="7.7482633"><ele>698.5</ele><time>2026-04-25T14:49:52.674Z</time></trkpt><trkpt lat="45.4981083" lon="7.74845"><ele>697.0</ele><time>2026-04-25T14:49:53.674Z</time></trkpt><trkpt lat="45.4980633" lon="7.74862"><ele>696.5</ele><time>2026-04-25T14:49:54.674Z</time></trkpt><trkpt lat="45.49802" lon="7.7487833"><ele>696.0</ele><time>2026-04-25T14:49:55.675Z</time></trkpt><trkpt lat="45.4979533" lon="7.7489383"><ele>695.5</ele><time>2026-04-25T14:49:56.674Z</time></trkpt><trkpt lat="45.4978917" lon="7.7491267"><ele>695.0</ele><time>2026-04-25T14:49:57.674Z</time></trkpt><trkpt lat="45.4978367" lon="7.7493383"><ele>699.6666666666666</ele><time>2026-04-25T14:49:58.674Z</time></trkpt><trkpt lat="45.49781" lon="7.7495767"><ele>704.3333333333334</ele><time>2026-04-25T14:49:59.674Z</time></trkpt><trkpt lat="45.4977967" lon="7.7498017"><ele>709.0</ele><time>2026-04-25T14:50:00.674Z</time></trkpt><trkpt lat="45.49779" lon="7.7500183"><ele>707.0</ele><time>2026-04-25T14:50:01.674Z</time></trkpt><trkpt lat="45.497785" lon="7.7502217"><ele>705.0</ele><time>2026-04-25T14:50:02.674Z</time></trkpt><trkpt lat="45.497785" lon="7.7504083"><ele>703.0</ele><time>2026-04-25T14:50:03.674Z</time></trkpt><trkpt lat="45.4977933" lon="7.750585"><ele>701.0</ele><time>2026-04-25T14:50:04.675Z</time></trkpt><trkpt lat="45.4977917" lon="7.7507517"><ele>701.0</ele><time>2026-04-25T14:50:05.674Z</time></trkpt><trkpt lat="45.497785" lon="7.7509117"><ele>701.0</ele><time>2026-04-25T14:50:06.674Z</time></trkpt><trkpt lat="45.4977767" lon="7.751055"><ele>701.0</ele><time>2026-04-25T14:50:07.674Z</time></trkpt><trkpt lat="45.4977483" lon="7.7511967"><ele>701.0</ele><time>2026-04-25T14:50:08.674Z</time></trkpt><trkpt lat="45.497685" lon="7.7513383"><ele>701.0</ele><time>2026-04-25T14:50:09.674Z</time></trkpt><trkpt lat="45.497595" lon="7.7514717"><ele>697.75</ele><time>2026-04-25T14:50:10.674Z</time></trkpt><trkpt lat="45.49751" lon="7.7515867"><ele>694.5</ele><time>2026-04-25T14:50:11.674Z</time></trkpt><trkpt lat="45.4974217" lon="7.7516767"><ele>691.25</ele><time>2026-04-25T14:50:12.674Z</time></trkpt><trkpt lat="45.4973333" lon="7.7517733"><ele>688.0</ele><time>2026-04-25T14:50:13.674Z</time></trkpt><trkpt lat="45.4972317" lon="7.7518733"><ele>687.0</ele><time>2026-04-25T14:50:14.675Z</time></trkpt><trkpt lat="45.4971167" lon="7.7519833"><ele>686.0</ele><time>2026-04-25T14:50:15.674Z</time></trkpt><trkpt lat="45.4969983" lon="7.752105"><ele>685.0</ele><time>2026-04-25T14:50:16.674Z</time></trkpt><trkpt lat="45.49686" lon="7.7522417"><ele>685.0</ele><time>2026-04-25T14:50:17.674Z</time></trkpt><trkpt lat="45.4967133" lon="7.75238"><ele>685.0</ele><time>2026-04-25T14:50:18.674Z</time></trkpt><trkpt lat="45.4965767" lon="7.7525083"><ele>685.0</ele><time>2026-04-25T14:50:19.674Z</time></trkpt><trkpt lat="45.496445" lon="7.752635"><ele>683.6666666666667</ele><time>2026-04-25T14:50:20.674Z</time></trkpt><trkpt lat="45.4963083" lon="7.7527683"><ele>682.3333333333334</ele><time>2026-04-25T14:50:21.674Z</time></trkpt><trkpt lat="45.4961633" lon="7.752915"><ele>681.0</ele><time>2026-04-25T14:50:22.674Z</time></trkpt><trkpt lat="45.4960167" lon="7.7530617"><ele>681.0</ele><time>2026-04-25T14:50:23.674Z</time></trkpt><trkpt lat="45.49588" lon="7.7532017"><ele>681.0</ele><time>2026-04-25T14:50:24.674Z</time></trkpt><trkpt lat="45.495745" lon="7.7533333"><ele>681.0</ele><time>2026-04-25T14:50:25.674Z</time></trkpt><trkpt lat="45.49561" lon="7.753475"><ele>682.0</ele><time>2026-04-25T14:50:26.674Z</time></trkpt><trkpt lat="45.4954733" lon="7.7536083"><ele>683.0</ele><time>2026-04-25T14:50:27.674Z</time></trkpt><trkpt lat="45.4953517" lon="7.7537267"><ele>684.0</ele><time>2026-04-25T14:50:28.674Z</time></trkpt><trkpt lat="45.4952283" lon="7.753835"><ele>684.0</ele><time>2026-04-25T14:50:29.674Z</time></trkpt><trkpt lat="45.4951167" lon="7.7539217"><ele>684.0</ele><time>2026-04-25T14:50:30.674Z</time></trkpt><trkpt lat="45.4950167" lon="7.7540183"><ele>684.0</ele><time>2026-04-25T14:50:31.674Z</time></trkpt><trkpt lat="45.4949283" lon="7.7541433"><ele>684.0</ele><time>2026-04-25T14:50:32.674Z</time></trkpt><trkpt lat="45.494845" lon="7.7542817"><ele>683.5</ele><time>2026-04-25T14:50:33.674Z</time></trkpt><trkpt lat="45.4947717" lon="7.75442"><ele>683.0</ele><time>2026-04-25T14:50:34.674Z</time></trkpt><trkpt lat="45.49471" lon="7.75457"><ele>682.5</ele><time>2026-04-25T14:50:35.674Z</time></trkpt><trkpt lat="45.4946483" lon="7.75472"><ele>682.0</ele><time>2026-04-25T14:50:36.674Z</time></trkpt><trkpt lat="45.4946033" lon="7.754875"><ele>685.5</ele><time>2026-04-25T14:50:37.674Z</time></trkpt><trkpt lat="45.4945583" lon="7.75505"><ele>689.0</ele><time>2026-04-25T14:50:38.674Z</time></trkpt><trkpt lat="45.4945083" lon="7.7552267"><ele>692.5</ele><time>2026-04-25T14:50:39.674Z</time></trkpt><trkpt lat="45.49446" lon="7.7554117"><ele>696.0</ele><time>2026-04-25T14:50:40.674Z</time></trkpt><trkpt lat="45.4944167" lon="7.7556017"><ele>696.0</ele><time>2026-04-25T14:50:41.674Z</time></trkpt><trkpt lat="45.4943733" lon="7.7557917"><ele>696.0</ele><time>2026-04-25T14:50:42.674Z</time></trkpt><trkpt lat="45.4943233" lon="7.75598"><ele>696.0</ele><time>2026-04-25T14:50:43.674Z</time></trkpt><trkpt lat="45.4942767" lon="7.7562033"><ele>696.0</ele><time>2026-04-25T14:50:44.674Z</time></trkpt><trkpt lat="45.494225" lon="7.7564383"><ele>692.6666666666666</ele><time>2026-04-25T14:50:45.674Z</time></trkpt><trkpt lat="45.4941433" lon="7.7566883"><ele>689.3333333333333</ele><time>2026-04-25T14:50:46.674Z</time></trkpt><trkpt lat="45.4940767" lon="7.7569483"><ele>686.0</ele><time>2026-04-25T14:50:47.674Z</time></trkpt><trkpt lat="45.494005" lon="7.7571983"><ele>683.3333333333333</ele><time>2026-04-25T14:50:48.674Z</time></trkpt><trkpt lat="45.4939417" lon="7.7574283"><ele>680.6666666666666</ele><time>2026-04-25T14:50:49.674Z</time></trkpt><trkpt lat="45.49388" lon="7.75766"><ele>678.0</ele><time>2026-04-25T14:50:50.674Z</time></trkpt><trkpt lat="45.4938167" lon="7.75789"><ele>683.0</ele><time>2026-04-25T14:50:51.674Z</time></trkpt><trkpt lat="45.4937467" lon="7.75811"><ele>688.0</ele><time>2026-04-25T14:50:52.674Z</time></trkpt><trkpt lat="45.4936617" lon="7.758315"><ele>693.0</ele><time>2026-04-25T14:50:53.674Z</time></trkpt><trkpt lat="45.493555" lon="7.75849"><ele>688.5</ele><time>2026-04-25T14:50:54.674Z</time></trkpt><trkpt lat="45.4934433" lon="7.75865"><ele>684.0</ele><time>2026-04-25T14:50:55.674Z</time></trkpt><trkpt lat="45.4933417" lon="7.7587967"><ele>679.5</ele><time>2026-04-25T14:50:56.674Z</time></trkpt><trkpt lat="45.4932333" lon="7.7589317"><ele>675.0</ele><time>2026-04-25T14:50:57.674Z</time></trkpt><trkpt lat="45.4931233" lon="7.75906"><ele>675.0</ele><time>2026-04-25T14:50:58.674Z</time></trkpt><trkpt lat="45.4930167" lon="7.7591967"><ele>675.0</ele><time>2026-04-25T14:50:59.674Z</time></trkpt><trkpt lat="45.49291" lon="7.759355"><ele>675.0</ele><time>2026-04-25T14:51:00.673Z</time></trkpt><trkpt lat="45.4928183" lon="7.7595183"><ele>675.0</ele><time>2026-04-25T14:51:01.673Z</time></trkpt><trkpt lat="45.4927383" lon="7.7596783"><ele>675.5</ele><time>2026-04-25T14:51:02.673Z</time></trkpt><trkpt lat="45.492655" lon="7.7598383"><ele>676.0</ele><time>2026-04-25T14:51:03.673Z</time></trkpt><trkpt lat="45.4925717" lon="7.7599733"><ele>676.5</ele><time>2026-04-25T14:51:04.673Z</time></trkpt><trkpt lat="45.4924783" lon="7.7600933"><ele>677.0</ele><time>2026-04-25T14:51:05.673Z</time></trkpt><trkpt lat="45.492385" lon="7.7602"><ele>676.25</ele><time>2026-04-25T14:51:06.673Z</time></trkpt><trkpt lat="45.4922867" lon="7.7602967"><ele>675.5</ele><time>2026-04-25T14:51:07.673Z</time></trkpt><trkpt lat="45.4921833" lon="7.7603883"><ele>674.75</ele><time>2026-04-25T14:51:08.673Z</time></trkpt><trkpt lat="45.4920733" lon="7.760475"><ele>674.0</ele><time>2026-04-25T14:51:09.673Z</time></trkpt><trkpt lat="45.4919683" lon="7.76056"><ele>674.0</ele><time>2026-04-25T14:51:10.673Z</time></trkpt><trkpt lat="45.4918517" lon="7.76061"><ele>674.0</ele><time>2026-04-25T14:51:11.673Z</time></trkpt><trkpt lat="45.4917433" lon="7.7606533"><ele>674.0</ele><time>2026-04-25T14:51:12.673Z</time></trkpt><trkpt lat="45.4916533" lon="7.76071"><ele>674.0</ele><time>2026-04-25T14:51:13.673Z</time></trkpt><trkpt lat="45.491575" lon="7.7607867"><ele>674.0</ele><time>2026-04-25T14:51:14.673Z</time></trkpt><trkpt lat="45.4915" lon="7.7608933"><ele>674.0</ele><time>2026-04-25T14:51:15.673Z</time></trkpt><trkpt lat="45.4914267" lon="7.7610183"><ele>674.0</ele><time>2026-04-25T14:51:16.673Z</time></trkpt><trkpt lat="45.491355" lon="7.76114"><ele>674.0</ele><time>2026-04-25T14:51:17.674Z</time></trkpt><trkpt lat="45.4912867" lon="7.761235"><ele>674.0</ele><time>2026-04-25T14:51:18.673Z</time></trkpt><trkpt lat="45.49121" lon="7.76131"><ele>674.0</ele><time>2026-04-25T14:51:19.673Z</time></trkpt><trkpt lat="45.4911333" lon="7.7613683"><ele>672.8333333333333</ele><time>2026-04-25T14:51:20.673Z</time></trkpt><trkpt lat="45.4910533" lon="7.7614233"><ele>671.6666666666666</ele><time>2026-04-25T14:51:21.673Z</time></trkpt><trkpt lat="45.4909833" lon="7.76148"><ele>670.5</ele><time>2026-04-25T14:51:22.673Z</time></trkpt><trkpt lat="45.4909283" lon="7.76154"><ele>669.3333333333334</ele><time>2026-04-25T14:51:23.673Z</time></trkpt><trkpt lat="45.4908817" lon="7.761605"><ele>668.1666666666667</ele><time>2026-04-25T14:51:24.673Z</time></trkpt><trkpt lat="45.4908567" lon="7.7617683"><ele>667.0</ele><time>2026-04-25T14:51:26.673Z</time></trkpt><trkpt lat="45.49088" lon="7.7619183"><ele>666.2</ele><time>2026-04-25T14:51:28.673Z</time></trkpt><trkpt lat="45.4908767" lon="7.7620283"><ele>665.4000000000001</ele><time>2026-04-25T14:51:30.673Z</time></trkpt><trkpt lat="45.490825" lon="7.7621217"><ele>664.5999999999999</ele><time>2026-04-25T14:51:32.673Z</time></trkpt><trkpt lat="45.4907367" lon="7.7622617"><ele>663.8</ele><time>2026-04-25T14:51:34.673Z</time></trkpt><trkpt lat="45.4906917" lon="7.7623433"><ele>663.0</ele><time>2026-04-25T14:51:35.673Z</time></trkpt><trkpt lat="45.4906467" lon="7.7624867"><ele>663.0</ele><time>2026-04-25T14:51:37.673Z</time></trkpt><trkpt lat="45.4906267" lon="7.7626417"><ele>663.0</ele><time>2026-04-25T14:51:39.673Z</time></trkpt><trkpt lat="45.49065" lon="7.76277"><ele>663.0</ele><time>2026-04-25T14:51:41.673Z</time></trkpt><trkpt lat="45.490715" lon="7.762915"><ele>663.0</ele><time>2026-04-25T14:51:43.673Z</time></trkpt><trkpt lat="45.4907583" lon="7.7629867"><ele>663.0</ele><time>2026-04-25T14:51:44.673Z</time></trkpt><trkpt lat="45.490805" lon="7.7630617"><ele>662.5999999999999</ele><time>2026-04-25T14:51:45.673Z</time></trkpt><trkpt lat="45.4908983" lon="7.7631433"><ele>662.1999999999999</ele><time>2026-04-25T14:51:47.673Z</time></trkpt><trkpt lat="45.4909217" lon="7.7632583"><ele>661.8</ele><time>2026-04-25T14:51:49.673Z</time></trkpt><trkpt lat="45.49087" lon="7.763435"><ele>661.4</ele><time>2026-04-25T14:51:51.673Z</time></trkpt><trkpt lat="45.49083" lon="7.7635367"><ele>661.0</ele><time>2026-04-25T14:51:52.673Z</time></trkpt><trkpt lat="45.49078" lon="7.763655"><ele>659.8</ele><time>2026-04-25T14:51:53.673Z</time></trkpt><trkpt lat="45.4907283" lon="7.7637767"><ele>658.5999999999999</ele><time>2026-04-25T14:51:54.673Z</time></trkpt><trkpt lat="45.4906883" lon="7.7638883"><ele>657.4</ele><time>2026-04-25T14:51:55.673Z</time></trkpt><trkpt lat="45.4906517" lon="7.7640133"><ele>656.2</ele><time>2026-04-25T14:51:56.673Z</time></trkpt><trkpt lat="45.4906167" lon="7.76414"><ele>655.0</ele><time>2026-04-25T14:51:57.673Z</time></trkpt><trkpt lat="45.4905633" lon="7.7642433"><ele>655.0</ele><time>2026-04-25T14:51:58.673Z</time></trkpt><trkpt lat="45.4905117" lon="7.7643317"><ele>655.0</ele><time>2026-04-25T14:51:59.673Z</time></trkpt><trkpt lat="45.4904683" lon="7.7644233"><ele>655.0</ele><time>2026-04-25T14:52:00.673Z</time></trkpt><trkpt lat="45.49043" lon="7.7645167"><ele>655.0</ele><time>2026-04-25T14:52:01.673Z</time></trkpt><trkpt lat="45.4903867" lon="7.7646083"><ele>655.0</ele><time>2026-04-25T14:52:02.673Z</time></trkpt><trkpt lat="45.4903467" lon="7.7647083"><ele>655.0</ele><time>2026-04-25T14:52:03.673Z</time></trkpt><trkpt lat="45.490305" lon="7.7647817"><ele>654.6</ele><time>2026-04-25T14:52:04.673Z</time></trkpt><trkpt lat="45.490255" lon="7.76484"><ele>654.2</ele><time>2026-04-25T14:52:05.673Z</time></trkpt><trkpt lat="45.49018" lon="7.76492"><ele>653.8</ele><time>2026-04-25T14:52:07.673Z</time></trkpt><trkpt lat="45.4901667" lon="7.76505"><ele>653.4</ele><time>2026-04-25T14:52:10.673Z</time></trkpt><trkpt lat="45.4902017" lon="7.7652167"><ele>653.0</ele><time>2026-04-25T14:52:12.673Z</time></trkpt><trkpt lat="45.4901733" lon="7.7653317"><ele>652.5</ele><time>2026-04-25T14:52:13.673Z</time></trkpt><trkpt lat="45.4901167" lon="7.7654617"><ele>652.0</ele><time>2026-04-25T14:52:14.673Z</time></trkpt><trkpt lat="45.4900183" lon="7.7656183"><ele>651.5</ele><time>2026-04-25T14:52:15.673Z</time></trkpt><trkpt lat="45.4899133" lon="7.76577"><ele>651.0</ele><time>2026-04-25T14:52:16.673Z</time></trkpt><trkpt lat="45.4898017" lon="7.7659367"><ele>650.0</ele><time>2026-04-25T14:52:17.673Z</time></trkpt><trkpt lat="45.4897017" lon="7.7660883"><ele>649.0</ele><time>2026-04-25T14:52:18.673Z</time></trkpt><trkpt lat="45.4896" lon="7.7662317"><ele>648.0</ele><time>2026-04-25T14:52:19.673Z</time></trkpt><trkpt lat="45.4894983" lon="7.7663533"><ele>647.0</ele><time>2026-04-25T14:52:20.673Z</time></trkpt><trkpt lat="45.489405" lon="7.7665233"><ele>647.0</ele><time>2026-04-25T14:52:21.673Z</time></trkpt><trkpt lat="45.4893167" lon="7.7667167"><ele>647.0</ele><time>2026-04-25T14:52:22.673Z</time></trkpt><trkpt lat="45.48925" lon="7.7669183"><ele>647.0</ele><time>2026-04-25T14:52:23.673Z</time></trkpt><trkpt lat="45.48921" lon="7.7671417"><ele>645.6666666666666</ele><time>2026-04-25T14:52:24.673Z</time></trkpt><trkpt lat="45.489175" lon="7.76736"><ele>644.3333333333334</ele><time>2026-04-25T14:52:25.673Z</time></trkpt><trkpt lat="45.4891133" lon="7.7675633"><ele>643.0</ele><time>2026-04-25T14:52:26.674Z</time></trkpt><trkpt lat="45.4890167" lon="7.7677433"><ele>642.3333333333334</ele><time>2026-04-25T14:52:27.673Z</time></trkpt><trkpt lat="45.4889017" lon="7.767905"><ele>641.6666666666666</ele><time>2026-04-25T14:52:28.673Z</time></trkpt><trkpt lat="45.4887867" lon="7.7680683"><ele>641.0</ele><time>2026-04-25T14:52:29.673Z</time></trkpt><trkpt lat="45.488675" lon="7.7682417"><ele>642.0</ele><time>2026-04-25T14:52:30.673Z</time></trkpt><trkpt lat="45.4885683" lon="7.7684467"><ele>643.0</ele><time>2026-04-25T14:52:31.673Z</time></trkpt><trkpt lat="45.48847" lon="7.7686467"><ele>644.0</ele><time>2026-04-25T14:52:32.673Z</time></trkpt><trkpt lat="45.4883867" lon="7.7688567"><ele>644.0</ele><time>2026-04-25T14:52:33.674Z</time></trkpt><trkpt lat="45.4883033" lon="7.7690867"><ele>644.0</ele><time>2026-04-25T14:52:34.673Z</time></trkpt><trkpt lat="45.4882333" lon="7.7693433"><ele>644.0</ele><time>2026-04-25T14:52:35.673Z</time></trkpt><trkpt lat="45.4881617" lon="7.7695883"><ele>641.6666666666666</ele><time>2026-04-25T14:52:36.673Z</time></trkpt><trkpt lat="45.4880667" lon="7.7698033"><ele>639.3333333333334</ele><time>2026-04-25T14:52:37.673Z</time></trkpt><trkpt lat="45.4879717" lon="7.7700017"><ele>637.0</ele><time>2026-04-25T14:52:38.673Z</time></trkpt><trkpt lat="45.487855" lon="7.7702067"><ele>636.6666666666667</ele><time>2026-04-25T14:52:39.673Z</time></trkpt><trkpt lat="45.48772" lon="7.770415"><ele>636.3333333333334</ele><time>2026-04-25T14:52:40.673Z</time></trkpt><trkpt lat="45.4875817" lon="7.770635"><ele>636.0</ele><time>2026-04-25T14:52:41.673Z</time></trkpt><trkpt lat="45.4874417" lon="7.770855"><ele>635.0</ele><time>2026-04-25T14:52:42.673Z</time></trkpt><trkpt lat="45.4873033" lon="7.771065"><ele>634.0</ele><time>2026-04-25T14:52:43.673Z</time></trkpt><trkpt lat="45.4871667" lon="7.7712683"><ele>633.0</ele><time>2026-04-25T14:52:44.673Z</time></trkpt><trkpt lat="45.4870317" lon="7.77145"><ele>632.6666666666666</ele><time>2026-04-25T14:52:45.673Z</time></trkpt><trkpt lat="45.4868883" lon="7.7716017"><ele>632.3333333333333</ele><time>2026-04-25T14:52:46.673Z</time></trkpt><trkpt lat="45.4867433" lon="7.7717283"><ele>632.0</ele><time>2026-04-25T14:52:47.673Z</time></trkpt><trkpt lat="45.486595" lon="7.7718483"><ele>632.0</ele><time>2026-04-25T14:52:48.673Z</time></trkpt><trkpt lat="45.4864783" lon="7.771975"><ele>632.0</ele><time>2026-04-25T14:52:49.673Z</time></trkpt><trkpt lat="45.4863767" lon="7.7721383"><ele>632.0</ele><time>2026-04-25T14:52:50.673Z</time></trkpt><trkpt lat="45.4863117" lon="7.7723483"><ele>632.0</ele><time>2026-04-25T14:52:51.673Z</time></trkpt><trkpt lat="45.486275" lon="7.772575"><ele>632.0</ele><time>2026-04-25T14:52:52.673Z</time></trkpt><trkpt lat="45.4862383" lon="7.7727867"><ele>632.0</ele><time>2026-04-25T14:52:53.673Z</time></trkpt><trkpt lat="45.4861817" lon="7.7729733"><ele>630.6666666666666</ele><time>2026-04-25T14:52:54.673Z</time></trkpt><trkpt lat="45.4860817" lon="7.773155"><ele>629.3333333333334</ele><time>2026-04-25T14:52:55.673Z</time></trkpt><trkpt lat="45.4859533" lon="7.7732983"><ele>628.0</ele><time>2026-04-25T14:52:56.673Z</time></trkpt><trkpt lat="45.4857917" lon="7.7733983"><ele>628.0</ele><time>2026-04-25T14:52:57.674Z</time></trkpt><trkpt lat="45.4856333" lon="7.7734767"><ele>628.0</ele><time>2026-04-25T14:52:58.673Z</time></trkpt><trkpt lat="45.4854933" lon="7.7735733"><ele>628.0</ele><time>2026-04-25T14:52:59.673Z</time></trkpt><trkpt lat="45.4853783" lon="7.77372"><ele>627.3333333333334</ele><time>2026-04-25T14:53:00.673Z</time></trkpt><trkpt lat="45.485275" lon="7.7738783"><ele>626.6666666666666</ele><time>2026-04-25T14:53:01.673Z</time></trkpt><trkpt lat="45.485155" lon="7.7740033"><ele>626.0</ele><time>2026-04-25T14:53:02.673Z</time></trkpt><trkpt lat="45.4849883" lon="7.7741233"><ele>626.0</ele><time>2026-04-25T14:53:03.673Z</time></trkpt><trkpt lat="45.4848" lon="7.7742183"><ele>626.0</ele><time>2026-04-25T14:53:04.673Z</time></trkpt><trkpt lat="45.484645" lon="7.7743183"><ele>626.0</ele><time>2026-04-25T14:53:05.673Z</time></trkpt><trkpt lat="45.4844667" lon="7.77439"><ele>625.6666666666666</ele><time>2026-04-25T14:53:06.673Z</time></trkpt><trkpt lat="45.4843" lon="7.7744283"><ele>625.3333333333334</ele><time>2026-04-25T14:53:07.673Z</time></trkpt><trkpt lat="45.4841233" lon="7.7744117"><ele>625.0</ele><time>2026-04-25T14:53:08.673Z</time></trkpt><trkpt lat="45.483945" lon="7.7743467"><ele>625.0</ele><time>2026-04-25T14:53:09.673Z</time></trkpt><trkpt lat="45.4837733" lon="7.7742633"><ele>625.0</ele><time>2026-04-25T14:53:10.673Z</time></trkpt><trkpt lat="45.48361" lon="7.7741833"><ele>625.0</ele><time>2026-04-25T14:53:11.673Z</time></trkpt><trkpt lat="45.4834533" lon="7.7741233"><ele>624.5</ele><time>2026-04-25T14:53:12.673Z</time></trkpt><trkpt lat="45.48331" lon="7.774105"><ele>624.0</ele><time>2026-04-25T14:53:13.673Z</time></trkpt><trkpt lat="45.4831733" lon="7.7741717"><ele>623.5</ele><time>2026-04-25T14:53:14.673Z</time></trkpt><trkpt lat="45.4830417" lon="7.77429"><ele>623.0</ele><time>2026-04-25T14:53:15.673Z</time></trkpt><trkpt lat="45.4829233" lon="7.77445"><ele>621.6666666666666</ele><time>2026-04-25T14:53:16.674Z</time></trkpt><trkpt lat="45.4827967" lon="7.7746"><ele>620.3333333333334</ele><time>2026-04-25T14:53:17.673Z</time></trkpt><trkpt lat="45.4826467" lon="7.774735"><ele>619.0</ele><time>2026-04-25T14:53:18.673Z</time></trkpt><trkpt lat="45.4824767" lon="7.7748367"><ele>619.0</ele><time>2026-04-25T14:53:19.673Z</time></trkpt><trkpt lat="45.4823033" lon="7.7749167"><ele>619.0</ele><time>2026-04-25T14:53:20.673Z</time></trkpt><trkpt lat="45.482125" lon="7.77499"><ele>619.0</ele><time>2026-04-25T14:53:21.673Z</time></trkpt><trkpt lat="45.48195" lon="7.77508"><ele>618.6666666666667</ele><time>2026-04-25T14:53:22.673Z</time></trkpt><trkpt lat="45.481785" lon="7.7751817"><ele>618.3333333333334</ele><time>2026-04-25T14:53:23.673Z</time></trkpt><trkpt lat="45.481625" lon="7.7753"><ele>618.0</ele><time>2026-04-25T14:53:24.673Z</time></trkpt><trkpt lat="45.4814833" lon="7.7754067"><ele>618.0</ele><time>2026-04-25T14:53:25.673Z</time></trkpt><trkpt lat="45.48133" lon="7.7755217"><ele>618.0</ele><time>2026-04-25T14:53:26.673Z</time></trkpt><trkpt lat="45.4811833" lon="7.7756167"><ele>618.0</ele><time>2026-04-25T14:53:27.673Z</time></trkpt><trkpt lat="45.4810317" lon="7.775725"><ele>618.0</ele><time>2026-04-25T14:53:28.673Z</time></trkpt><trkpt lat="45.48088" lon="7.7758417"><ele>618.0</ele><time>2026-04-25T14:53:29.673Z</time></trkpt><trkpt lat="45.4807217" lon="7.7759767"><ele>618.0</ele><time>2026-04-25T14:53:30.673Z</time></trkpt><trkpt lat="45.4805717" lon="7.7761467"><ele>617.6666666666666</ele><time>2026-04-25T14:53:31.673Z</time></trkpt><trkpt lat="45.48044" lon="7.7763117"><ele>617.3333333333333</ele><time>2026-04-25T14:53:32.674Z</time></trkpt><trkpt lat="45.4803167" lon="7.7764617"><ele>617.0</ele><time>2026-04-25T14:53:33.673Z</time></trkpt><trkpt lat="45.4801867" lon="7.776605"><ele>617.0</ele><time>2026-04-25T14:53:34.673Z</time></trkpt><trkpt lat="45.480035" lon="7.77669"><ele>617.0</ele><time>2026-04-25T14:53:35.673Z</time></trkpt><trkpt lat="45.4798917" lon="7.776705"><ele>617.0</ele><time>2026-04-25T14:53:36.673Z</time></trkpt><trkpt lat="45.4797333" lon="7.7766617"><ele>620.25</ele><time>2026-04-25T14:53:37.673Z</time></trkpt><trkpt lat="45.4795867" lon="7.7766133"><ele>623.5</ele><time>2026-04-25T14:53:38.673Z</time></trkpt><trkpt lat="45.47945" lon="7.7766083"><ele>626.75</ele><time>2026-04-25T14:53:39.673Z</time></trkpt><trkpt lat="45.47933" lon="7.776645"><ele>630.0</ele><time>2026-04-25T14:53:40.673Z</time></trkpt><trkpt lat="45.4792217" lon="7.7766983"><ele>630.0</ele><time>2026-04-25T14:53:41.673Z</time></trkpt><trkpt lat="45.4791433" lon="7.7767717"><ele>630.0</ele><time>2026-04-25T14:53:42.673Z</time></trkpt><trkpt lat="45.4790733" lon="7.7768817"><ele>630.0</ele><time>2026-04-25T14:53:43.673Z</time></trkpt><trkpt lat="45.4789983" lon="7.7770133"><ele>630.0</ele><time>2026-04-25T14:53:44.673Z</time></trkpt><trkpt lat="45.4788917" lon="7.777165"><ele>629.0</ele><time>2026-04-25T14:53:45.673Z</time></trkpt><trkpt lat="45.4787733" lon="7.7773267"><ele>628.0</ele><time>2026-04-25T14:53:46.673Z</time></trkpt><trkpt lat="45.4786367" lon="7.777535"><ele>627.0</ele><time>2026-04-25T14:53:47.673Z</time></trkpt><trkpt lat="45.4785067" lon="7.7777517"><ele>627.0</ele><time>2026-04-25T14:53:48.673Z</time></trkpt><trkpt lat="45.4783833" lon="7.7779683"><ele>627.0</ele><time>2026-04-25T14:53:49.673Z</time></trkpt><trkpt lat="45.4782783" lon="7.7781633"><ele>627.0</ele><time>2026-04-25T14:53:50.673Z</time></trkpt><trkpt lat="45.478165" lon="7.7783383"><ele>627.0</ele><time>2026-04-25T14:53:51.673Z</time></trkpt><trkpt lat="45.478055" lon="7.778495"><ele>627.0</ele><time>2026-04-25T14:53:52.673Z</time></trkpt><trkpt lat="45.4779333" lon="7.7786367"><ele>627.0</ele><time>2026-04-25T14:53:53.673Z</time></trkpt><trkpt lat="45.4778167" lon="7.778765"><ele>626.75</ele><time>2026-04-25T14:53:54.673Z</time></trkpt><trkpt lat="45.4777167" lon="7.778895"><ele>626.5</ele><time>2026-04-25T14:53:55.673Z</time></trkpt><trkpt lat="45.4776433" lon="7.7790467"><ele>626.25</ele><time>2026-04-25T14:53:56.673Z</time></trkpt><trkpt lat="45.477565" lon="7.779195"><ele>626.0</ele><time>2026-04-25T14:53:57.673Z</time></trkpt><trkpt lat="45.47748" lon="7.7793533"><ele>626.0</ele><time>2026-04-25T14:53:58.673Z</time></trkpt><trkpt lat="45.4773933" lon="7.7795067"><ele>626.0</ele><time>2026-04-25T14:53:59.673Z</time></trkpt><trkpt lat="45.4773017" lon="7.779635"><ele>626.0</ele><time>2026-04-25T14:54:00.673Z</time></trkpt><trkpt lat="45.47722" lon="7.7797633"><ele>626.0</ele><time>2026-04-25T14:54:01.673Z</time></trkpt><trkpt lat="45.4771517" lon="7.7798933"><ele>625.0</ele><time>2026-04-25T14:54:02.673Z</time></trkpt><trkpt lat="45.4770533" lon="7.779995"><ele>624.0</ele><time>2026-04-25T14:54:03.673Z</time></trkpt><trkpt lat="45.476955" lon="7.780085"><ele>623.0</ele><time>2026-04-25T14:54:04.673Z</time></trkpt><trkpt lat="45.4768633" lon="7.780175"><ele>622.0</ele><time>2026-04-25T14:54:05.673Z</time></trkpt><trkpt lat="45.4767783" lon="7.7802533"><ele>622.0</ele><time>2026-04-25T14:54:06.673Z</time></trkpt><trkpt lat="45.4766633" lon="7.780305"><ele>622.0</ele><time>2026-04-25T14:54:07.673Z</time></trkpt><trkpt lat="45.4765367" lon="7.780315"><ele>622.0</ele><time>2026-04-25T14:54:08.673Z</time></trkpt><trkpt lat="45.4764067" lon="7.7802833"><ele>622.0</ele><time>2026-04-25T14:54:09.673Z</time></trkpt><trkpt lat="45.476275" lon="7.78021"><ele>622.25</ele><time>2026-04-25T14:54:10.673Z</time></trkpt><trkpt lat="45.4761567" lon="7.780105"><ele>622.5</ele><time>2026-04-25T14:54:11.673Z</time></trkpt><trkpt lat="45.476055" lon="7.7799567"><ele>622.75</ele><time>2026-04-25T14:54:12.673Z</time></trkpt><trkpt lat="45.4759767" lon="7.77978"><ele>623.0</ele><time>2026-04-25T14:54:13.673Z</time></trkpt><trkpt lat="45.4759183" lon="7.779565"><ele>632.3333333333333</ele><time>2026-04-25T14:54:14.673Z</time></trkpt><trkpt lat="45.47586" lon="7.779335"><ele>641.6666666666666</ele><time>2026-04-25T14:54:15.674Z</time></trkpt><trkpt lat="45.4757917" lon="7.7790933"><ele>651.0</ele><time>2026-04-25T14:54:16.673Z</time></trkpt><trkpt lat="45.47572" lon="7.7788683"><ele>651.0</ele><time>2026-04-25T14:54:17.673Z</time></trkpt><trkpt lat="45.4756467" lon="7.7786433"><ele>651.0</ele><time>2026-04-25T14:54:18.673Z</time></trkpt><trkpt lat="45.4755783" lon="7.778445"><ele>651.0</ele><time>2026-04-25T14:54:19.673Z</time></trkpt><trkpt lat="45.4755017" lon="7.7782767"><ele>647.6666666666666</ele><time>2026-04-25T14:54:20.673Z</time></trkpt><trkpt lat="45.4754167" lon="7.7780967"><ele>644.3333333333333</ele><time>2026-04-25T14:54:21.673Z</time></trkpt><trkpt lat="45.4753167" lon="7.7779083"><ele>641.0</ele><time>2026-04-25T14:54:22.673Z</time></trkpt><trkpt lat="45.475205" lon="7.77771"><ele>647.3333333333333</ele><time>2026-04-25T14:54:23.673Z</time></trkpt><trkpt lat="45.47509" lon="7.77751"><ele>653.6666666666666</ele><time>2026-04-25T14:54:24.673Z</time></trkpt><trkpt lat="45.4749783" lon="7.7773183"><ele>660.0</ele><time>2026-04-25T14:54:25.673Z</time></trkpt><trkpt lat="45.4748683" lon="7.7771183"><ele>660.0</ele><time>2026-04-25T14:54:26.673Z</time></trkpt><trkpt lat="45.4747633" lon="7.7769267"><ele>660.0</ele><time>2026-04-25T14:54:27.674Z</time></trkpt><trkpt lat="45.4746533" lon="7.776755"><ele>660.0</ele><time>2026-04-25T14:54:28.673Z</time></trkpt><trkpt lat="45.4745183" lon="7.7766017"><ele>655.0</ele><time>2026-04-25T14:54:29.673Z</time></trkpt><trkpt lat="45.4744083" lon="7.77646"><ele>650.0</ele><time>2026-04-25T14:54:30.673Z</time></trkpt><trkpt lat="45.4742833" lon="7.7763383"><ele>645.0</ele><time>2026-04-25T14:54:31.673Z</time></trkpt><trkpt lat="45.4741617" lon="7.776205"><ele>645.0</ele><time>2026-04-25T14:54:32.673Z</time></trkpt><trkpt lat="45.47405" lon="7.77605"><ele>645.0</ele><time>2026-04-25T14:54:33.673Z</time></trkpt><trkpt lat="45.4739517" lon="7.7758983"><ele>645.0</ele><time>2026-04-25T14:54:34.673Z</time></trkpt><trkpt lat="45.473865" lon="7.7757417"><ele>645.0</ele><time>2026-04-25T14:54:35.673Z</time></trkpt><trkpt lat="45.473805" lon="7.775565"><ele>641.0</ele><time>2026-04-25T14:54:36.673Z</time></trkpt><trkpt lat="45.4737633" lon="7.7753517"><ele>637.0</ele><time>2026-04-25T14:54:37.673Z</time></trkpt><trkpt lat="45.473735" lon="7.77509"><ele>633.0</ele><time>2026-04-25T14:54:38.673Z</time></trkpt><trkpt lat="45.4737067" lon="7.77482"><ele>633.0</ele><time>2026-04-25T14:54:39.673Z</time></trkpt><trkpt lat="45.4736867" lon="7.77455"><ele>633.0</ele><time>2026-04-25T14:54:40.673Z</time></trkpt><trkpt lat="45.4736617" lon="7.7742833"><ele>633.0</ele><time>2026-04-25T14:54:41.673Z</time></trkpt><trkpt lat="45.473635" lon="7.774035"><ele>635.3333333333334</ele><time>2026-04-25T14:54:42.674Z</time></trkpt><trkpt lat="45.4735983" lon="7.77377"><ele>637.6666666666667</ele><time>2026-04-25T14:54:43.673Z</time></trkpt><trkpt lat="45.4735517" lon="7.7735033"><ele>640.0</ele><time>2026-04-25T14:54:44.673Z</time></trkpt><trkpt lat="45.47352" lon="7.7732667"><ele>641.6666666666667</ele><time>2026-04-25T14:54:45.673Z</time></trkpt><trkpt lat="45.4735183" lon="7.7729983"><ele>643.3333333333334</ele><time>2026-04-25T14:54:46.673Z</time></trkpt><trkpt lat="45.4735317" lon="7.7727417"><ele>645.0</ele><time>2026-04-25T14:54:47.673Z</time></trkpt><trkpt lat="45.4735617" lon="7.7725033"><ele>648.0</ele><time>2026-04-25T14:54:48.673Z</time></trkpt><trkpt lat="45.4735983" lon="7.7722733"><ele>651.0</ele><time>2026-04-25T14:54:49.673Z</time></trkpt><trkpt lat="45.47363" lon="7.77207"><ele>654.0</ele><time>2026-04-25T14:54:50.673Z</time></trkpt><trkpt lat="45.47364" lon="7.7718483"><ele>658.0</ele><time>2026-04-25T14:54:51.673Z</time></trkpt><trkpt lat="45.4736367" lon="7.77162"><ele>662.0</ele><time>2026-04-25T14:54:52.673Z</time></trkpt><trkpt lat="45.4736517" lon="7.7713983"><ele>666.0</ele><time>2026-04-25T14:54:53.673Z</time></trkpt><trkpt lat="45.4736783" lon="7.7711567"><ele>667.5</ele><time>2026-04-25T14:54:54.673Z</time></trkpt><trkpt lat="45.4736817" lon="7.7709417"><ele>669.0</ele><time>2026-04-25T14:54:55.673Z</time></trkpt><trkpt lat="45.4736617" lon="7.7707483"><ele>670.5</ele><time>2026-04-25T14:54:56.673Z</time></trkpt><trkpt lat="45.473625" lon="7.7705417"><ele>672.0</ele><time>2026-04-25T14:54:57.673Z</time></trkpt><trkpt lat="45.4735617" lon="7.7703283"><ele>672.75</ele><time>2026-04-25T14:54:58.673Z</time></trkpt><trkpt lat="45.4735033" lon="7.7701333"><ele>673.5</ele><time>2026-04-25T14:54:59.673Z</time></trkpt><trkpt lat="45.4734433" lon="7.7699467"><ele>674.25</ele><time>2026-04-25T14:55:00.673Z</time></trkpt><trkpt lat="45.47338" lon="7.7697683"><ele>675.0</ele><time>2026-04-25T14:55:01.673Z</time></trkpt><trkpt lat="45.4733017" lon="7.7695917"><ele>675.0</ele><time>2026-04-25T14:55:02.673Z</time></trkpt><trkpt lat="45.4732033" lon="7.7694033"><ele>675.0</ele><time>2026-04-25T14:55:03.673Z</time></trkpt><trkpt lat="45.4730883" lon="7.7691817"><ele>675.0</ele><time>2026-04-25T14:55:04.673Z</time></trkpt><trkpt lat="45.4729783" lon="7.768915"><ele>676.0</ele><time>2026-04-25T14:55:05.673Z</time></trkpt><trkpt lat="45.472875" lon="7.7686333"><ele>677.0</ele><time>2026-04-25T14:55:06.673Z</time></trkpt><trkpt lat="45.472775" lon="7.7683733"><ele>678.0</ele><time>2026-04-25T14:55:07.673Z</time></trkpt><trkpt lat="45.4727017" lon="7.768125"><ele>678.0</ele><time>2026-04-25T14:55:08.673Z</time></trkpt><trkpt lat="45.4726517" lon="7.7678783"><ele>678.0</ele><time>2026-04-25T14:55:09.673Z</time></trkpt><trkpt lat="45.472635" lon="7.7676383"><ele>678.0</ele><time>2026-04-25T14:55:10.674Z</time></trkpt><trkpt lat="45.4726267" lon="7.7673967"><ele>676.6666666666666</ele><time>2026-04-25T14:55:11.673Z</time></trkpt><trkpt lat="45.4726267" lon="7.767165"><ele>675.3333333333333</ele><time>2026-04-25T14:55:12.673Z</time></trkpt><trkpt lat="45.47264" lon="7.76695"><ele>674.0</ele><time>2026-04-25T14:55:13.673Z</time></trkpt><trkpt lat="45.472665" lon="7.7667467"><ele>673.25</ele><time>2026-04-25T14:55:14.673Z</time></trkpt><trkpt lat="45.4726667" lon="7.7665867"><ele>672.5</ele><time>2026-04-25T14:55:15.674Z</time></trkpt><trkpt lat="45.47263" lon="7.76641"><ele>671.75</ele><time>2026-04-25T14:55:16.673Z</time></trkpt><trkpt lat="45.4725533" lon="7.76623"><ele>671.0</ele><time>2026-04-25T14:55:17.673Z</time></trkpt><trkpt lat="45.4724567" lon="7.7660433"><ele>670.6666666666666</ele><time>2026-04-25T14:55:18.673Z</time></trkpt><trkpt lat="45.4723633" lon="7.7658567"><ele>670.3333333333334</ele><time>2026-04-25T14:55:19.673Z</time></trkpt><trkpt lat="45.4722933" lon="7.7656667"><ele>670.0</ele><time>2026-04-25T14:55:20.673Z</time></trkpt><trkpt lat="45.47225" lon="7.765455"><ele>670.0</ele><time>2026-04-25T14:55:21.673Z</time></trkpt><trkpt lat="45.4721967" lon="7.765225"><ele>670.0</ele><time>2026-04-25T14:55:22.673Z</time></trkpt><trkpt lat="45.4721833" lon="7.7649867"><ele>670.0</ele><time>2026-04-25T14:55:23.673Z</time></trkpt><trkpt lat="45.4721633" lon="7.764745"><ele>669.6666666666667</ele><time>2026-04-25T14:55:24.673Z</time></trkpt><trkpt lat="45.4721467" lon="7.7645183"><ele>669.3333333333334</ele><time>2026-04-25T14:55:25.673Z</time></trkpt><trkpt lat="45.4721083" lon="7.76431"><ele>669.0</ele><time>2026-04-25T14:55:26.673Z</time></trkpt><trkpt lat="45.4720583" lon="7.7641117"><ele>669.0</ele><time>2026-04-25T14:55:27.673Z</time></trkpt><trkpt lat="45.4719833" lon="7.7639233"><ele>669.0</ele><time>2026-04-25T14:55:28.673Z</time></trkpt><trkpt lat="45.4719" lon="7.7637483"><ele>669.0</ele><time>2026-04-25T14:55:29.673Z</time></trkpt><trkpt lat="45.471795" lon="7.763605"><ele>669.0</ele><time>2026-04-25T14:55:30.673Z</time></trkpt><trkpt lat="45.47166" lon="7.7634817"><ele>668.6666666666666</ele><time>2026-04-25T14:55:31.673Z</time></trkpt><trkpt lat="45.47149" lon="7.763375"><ele>668.3333333333333</ele><time>2026-04-25T14:55:32.673Z</time></trkpt><trkpt lat="45.4712917" lon="7.7632883"><ele>668.0</ele><time>2026-04-25T14:55:33.673Z</time></trkpt><trkpt lat="45.47108" lon="7.7632117"><ele>665.3333333333333</ele><time>2026-04-25T14:55:34.673Z</time></trkpt><trkpt lat="45.470865" lon="7.7631533"><ele>662.6666666666666</ele><time>2026-04-25T14:55:35.673Z</time></trkpt><trkpt lat="45.470655" lon="7.7630967"><ele>660.0</ele><time>2026-04-25T14:55:36.673Z</time></trkpt><trkpt lat="45.4704533" lon="7.7630233"><ele>659.0</ele><time>2026-04-25T14:55:37.673Z</time></trkpt><trkpt lat="45.47027" lon="7.7629167"><ele>658.0</ele><time>2026-04-25T14:55:38.673Z</time></trkpt><trkpt lat="45.4700933" lon="7.7627667"><ele>657.0</ele><time>2026-04-25T14:55:39.673Z</time></trkpt><trkpt lat="45.4699217" lon="7.7625933"><ele>657.0</ele><time>2026-04-25T14:55:40.673Z</time></trkpt><trkpt lat="45.4697633" lon="7.762415"><ele>657.0</ele><time>2026-04-25T14:55:41.673Z</time></trkpt><trkpt lat="45.469615" lon="7.76222"><ele>657.0</ele><time>2026-04-25T14:55:42.673Z</time></trkpt><trkpt lat="45.4694783" lon="7.76202"><ele>654.3333333333334</ele><time>2026-04-25T14:55:43.673Z</time></trkpt><trkpt lat="45.469345" lon="7.76186"><ele>651.6666666666667</ele><time>2026-04-25T14:55:44.674Z</time></trkpt><trkpt lat="45.4691983" lon="7.76174"><ele>649.0</ele><time>2026-04-25T14:55:45.673Z</time></trkpt><trkpt lat="45.4690283" lon="7.7616433"><ele>649.0</ele><time>2026-04-25T14:55:46.673Z</time></trkpt><trkpt lat="45.46883" lon="7.7615833"><ele>649.0</ele><time>2026-04-25T14:55:47.673Z</time></trkpt><trkpt lat="45.468615" lon="7.7615517"><ele>649.0</ele><time>2026-04-25T14:55:48.673Z</time></trkpt><trkpt lat="45.4683617" lon="7.76152"><ele>647.0</ele><time>2026-04-25T14:55:49.673Z</time></trkpt><trkpt lat="45.4681233" lon="7.761495"><ele>645.0</ele><time>2026-04-25T14:55:50.673Z</time></trkpt><trkpt lat="45.4678867" lon="7.7614633"><ele>643.0</ele><time>2026-04-25T14:55:51.673Z</time></trkpt><trkpt lat="45.467665" lon="7.7614383"><ele>641.0</ele><time>2026-04-25T14:55:52.673Z</time></trkpt><trkpt lat="45.4674533" lon="7.76141"><ele>639.0</ele><time>2026-04-25T14:55:53.673Z</time></trkpt><trkpt lat="45.4672533" lon="7.7613817"><ele>637.0</ele><time>2026-04-25T14:55:54.673Z</time></trkpt><trkpt lat="45.467065" lon="7.761355"><ele>635.0</ele><time>2026-04-25T14:55:55.673Z</time></trkpt><trkpt lat="45.46689" lon="7.7613383"><ele>633.0</ele><time>2026-04-25T14:55:56.673Z</time></trkpt><trkpt lat="45.4667233" lon="7.7613167"><ele>633.0</ele><time>2026-04-25T14:55:57.673Z</time></trkpt><trkpt lat="45.4665617" lon="7.7613067"><ele>633.0</ele><time>2026-04-25T14:55:58.673Z</time></trkpt><trkpt lat="45.4664183" lon="7.7612983"><ele>633.0</ele><time>2026-04-25T14:55:59.673Z</time></trkpt><trkpt lat="45.4662883" lon="7.76129"><ele>633.0</ele><time>2026-04-25T14:56:00.673Z</time></trkpt><trkpt lat="45.46618" lon="7.7612833"><ele>632.0</ele><time>2026-04-25T14:56:01.673Z</time></trkpt><trkpt lat="45.4660883" lon="7.76126"><ele>631.0</ele><time>2026-04-25T14:56:02.673Z</time></trkpt><trkpt lat="45.4660067" lon="7.761245"><ele>630.0</ele><time>2026-04-25T14:56:03.673Z</time></trkpt><trkpt lat="45.465935" lon="7.7612233"><ele>629.0</ele><time>2026-04-25T14:56:04.673Z</time></trkpt><trkpt lat="45.4658417" lon="7.7612133"><ele>628.0</ele><time>2026-04-25T14:56:06.673Z</time></trkpt><trkpt lat="45.4657617" lon="7.7612117"><ele>627.0</ele><time>2026-04-25T14:56:13.673Z</time></trkpt><trkpt lat="45.4656817" lon="7.76132"><ele>627.0</ele><time>2026-04-25T14:56:15.673Z</time></trkpt><trkpt lat="45.4656417" lon="7.7614217"><ele>627.0</ele><time>2026-04-25T14:56:16.673Z</time></trkpt><trkpt lat="45.46558" lon="7.7615267"><ele>627.0</ele><time>2026-04-25T14:56:17.674Z</time></trkpt><trkpt lat="45.465505" lon="7.7616083"><ele>627.0</ele><time>2026-04-25T14:56:18.673Z</time></trkpt><trkpt lat="45.4654233" lon="7.7616367"><ele>627.0</ele><time>2026-04-25T14:56:19.673Z</time></trkpt><trkpt lat="45.4653267" lon="7.7616133"><ele>626.5</ele><time>2026-04-25T14:56:20.673Z</time></trkpt><trkpt lat="45.4652233" lon="7.7615433"><ele>626.0</ele><time>2026-04-25T14:56:21.673Z</time></trkpt><trkpt lat="45.4651133" lon="7.761425"><ele>625.5</ele><time>2026-04-25T14:56:22.673Z</time></trkpt><trkpt lat="45.465" lon="7.761225"><ele>625.0</ele><time>2026-04-25T14:56:23.673Z</time></trkpt><trkpt lat="45.4649017" lon="7.7609933"><ele>625.0</ele><time>2026-04-25T14:56:24.673Z</time></trkpt><trkpt lat="45.4648067" lon="7.7607983"><ele>625.0</ele><time>2026-04-25T14:56:25.673Z</time></trkpt><trkpt lat="45.4647333" lon="7.76064"><ele>625.0</ele><time>2026-04-25T14:56:26.673Z</time></trkpt><trkpt lat="45.4646767" lon="7.7605067"><ele>625.0</ele><time>2026-04-25T14:56:27.673Z</time></trkpt><trkpt lat="45.4646117" lon="7.7604083"><ele>622.5</ele><time>2026-04-25T14:56:28.673Z</time></trkpt><trkpt lat="45.4645367" lon="7.7603483"><ele>620.0</ele><time>2026-04-25T14:56:29.673Z</time></trkpt><trkpt lat="45.4644733" lon="7.7603533"><ele>617.5</ele><time>2026-04-25T14:56:30.673Z</time></trkpt><trkpt lat="45.464415" lon="7.7604117"><ele>615.0</ele><time>2026-04-25T14:56:31.673Z</time></trkpt><trkpt lat="45.4643967" lon="7.7605383"><ele>612.5</ele><time>2026-04-25T14:56:32.673Z</time></trkpt><trkpt lat="45.464425" lon="7.7607067"><ele>610.0</ele><time>2026-04-25T14:56:33.673Z</time></trkpt><trkpt lat="45.464495" lon="7.7609417"><ele>607.0</ele><time>2026-04-25T14:56:34.673Z</time></trkpt><trkpt lat="45.464575" lon="7.7612217"><ele>604.0</ele><time>2026-04-25T14:56:35.673Z</time></trkpt><trkpt lat="45.46461" lon="7.7614817"><ele>601.0</ele><time>2026-04-25T14:56:36.673Z</time></trkpt><trkpt lat="45.4646133" lon="7.7617267"><ele>600.6666666666667</ele><time>2026-04-25T14:56:37.674Z</time></trkpt><trkpt lat="45.4645767" lon="7.7619783"><ele>600.3333333333334</ele><time>2026-04-25T14:56:38.673Z</time></trkpt><trkpt lat="45.46452" lon="7.7622267"><ele>600.0</ele><time>2026-04-25T14:56:39.673Z</time></trkpt><trkpt lat="45.4644683" lon="7.7624683"><ele>598.0</ele><time>2026-04-25T14:56:40.673Z</time></trkpt><trkpt lat="45.464425" lon="7.7627017"><ele>596.0</ele><time>2026-04-25T14:56:41.673Z</time></trkpt><trkpt lat="45.4644" lon="7.7629483"><ele>594.0</ele><time>2026-04-25T14:56:42.673Z</time></trkpt><trkpt lat="45.4644167" lon="7.7631717"><ele>594.0</ele><time>2026-04-25T14:56:43.673Z</time></trkpt><trkpt lat="45.46445" lon="7.7633767"><ele>594.0</ele><time>2026-04-25T14:56:44.673Z</time></trkpt><trkpt lat="45.4644783" lon="7.7635533"><ele>594.0</ele><time>2026-04-25T14:56:45.673Z</time></trkpt><trkpt lat="45.4645433" lon="7.7637117"><ele>594.0</ele><time>2026-04-25T14:56:46.673Z</time></trkpt><trkpt lat="45.4646333" lon="7.7638583"><ele>593.5</ele><time>2026-04-25T14:56:47.673Z</time></trkpt><trkpt lat="45.464725" lon="7.764"><ele>593.0</ele><time>2026-04-25T14:56:48.673Z</time></trkpt><trkpt lat="45.4648183" lon="7.76417"><ele>592.5</ele><time>2026-04-25T14:56:49.673Z</time></trkpt><trkpt lat="45.4649033" lon="7.764335"><ele>592.0</ele><time>2026-04-25T14:56:50.673Z</time></trkpt><trkpt lat="45.4649583" lon="7.7645067"><ele>592.0</ele><time>2026-04-25T14:56:51.673Z</time></trkpt><trkpt lat="45.46498" lon="7.7646717"><ele>592.0</ele><time>2026-04-25T14:56:52.673Z</time></trkpt><trkpt lat="45.464985" lon="7.7648183"><ele>592.0</ele><time>2026-04-25T14:56:53.673Z</time></trkpt><trkpt lat="45.4649583" lon="7.76494"><ele>592.0</ele><time>2026-04-25T14:56:54.673Z</time></trkpt><trkpt lat="45.4649017" lon="7.76505"><ele>592.0</ele><time>2026-04-25T14:56:55.674Z</time></trkpt><trkpt lat="45.4648333" lon="7.76513"><ele>592.0</ele><time>2026-04-25T14:56:56.673Z</time></trkpt><trkpt lat="45.464755" lon="7.7651917"><ele>592.0</ele><time>2026-04-25T14:56:57.673Z</time></trkpt><trkpt lat="45.4646633" lon="7.7652467"><ele>592.0</ele><time>2026-04-25T14:56:58.673Z</time></trkpt><trkpt lat="45.4645733" lon="7.7652867"><ele>592.0</ele><time>2026-04-25T14:56:59.673Z</time></trkpt><trkpt lat="45.4644717" lon="7.7653417"><ele>592.0</ele><time>2026-04-25T14:57:00.673Z</time></trkpt><trkpt lat="45.464325" lon="7.7654033"><ele>587.3333333333334</ele><time>2026-04-25T14:57:01.673Z</time></trkpt><trkpt lat="45.46415" lon="7.7654633"><ele>582.6666666666666</ele><time>2026-04-25T14:57:02.673Z</time></trkpt><trkpt lat="45.463955" lon="7.765485"><ele>578.0</ele><time>2026-04-25T14:57:03.673Z</time></trkpt><trkpt lat="45.4637417" lon="7.7655133"><ele>570.5</ele><time>2026-04-25T14:57:04.673Z</time></trkpt><trkpt lat="45.4635117" lon="7.765565"><ele>563.0</ele><time>2026-04-25T14:57:05.673Z</time></trkpt><trkpt lat="45.4632567" lon="7.76562"><ele>563.0</ele><time>2026-04-25T14:57:06.673Z</time></trkpt><trkpt lat="45.4630033" lon="7.765685"><ele>563.0</ele><time>2026-04-25T14:57:07.673Z</time></trkpt><trkpt lat="45.4627533" lon="7.765755"><ele>559.0</ele><time>2026-04-25T14:57:08.673Z</time></trkpt><trkpt lat="45.4625033" lon="7.7658217"><ele>555.0</ele><time>2026-04-25T14:57:09.673Z</time></trkpt><trkpt lat="45.4622533" lon="7.7658883"><ele>565.0</ele><time>2026-04-25T14:57:10.673Z</time></trkpt><trkpt lat="45.462005" lon="7.7659533"><ele>575.0</ele><time>2026-04-25T14:57:11.673Z</time></trkpt><trkpt lat="45.46177" lon="7.7660167"><ele>578.5</ele><time>2026-04-25T14:57:12.673Z</time></trkpt><trkpt lat="45.4615317" lon="7.76606"><ele>582.0</ele><time>2026-04-25T14:57:13.673Z</time></trkpt><trkpt lat="45.4613017" lon="7.7661383"><ele>585.5</ele><time>2026-04-25T14:57:14.673Z</time></trkpt><trkpt lat="45.4610733" lon="7.76623"><ele>589.0</ele><time>2026-04-25T14:57:15.673Z</time></trkpt><trkpt lat="45.4608717" lon="7.766335"><ele>589.0</ele><time>2026-04-25T14:57:16.673Z</time></trkpt><trkpt lat="45.4606733" lon="7.7664383"><ele>589.0</ele><time>2026-04-25T14:57:17.673Z</time></trkpt><trkpt lat="45.4604967" lon="7.76654"><ele>589.0</ele><time>2026-04-25T14:57:18.673Z</time></trkpt><trkpt lat="45.4603367" lon="7.76663"><ele>588.0</ele><time>2026-04-25T14:57:19.673Z</time></trkpt><trkpt lat="45.4601533" lon="7.766725"><ele>587.0</ele><time>2026-04-25T14:57:20.673Z</time></trkpt><trkpt lat="45.4599783" lon="7.7668183"><ele>586.0</ele><time>2026-04-25T14:57:21.674Z</time></trkpt><trkpt lat="45.4598117" lon="7.7669067"><ele>585.25</ele><time>2026-04-25T14:57:22.673Z</time></trkpt><trkpt lat="45.4596683" lon="7.7670017"><ele>584.5</ele><time>2026-04-25T14:57:23.673Z</time></trkpt><trkpt lat="45.4595433" lon="7.7670583"><ele>583.75</ele><time>2026-04-25T14:57:24.673Z</time></trkpt><trkpt lat="45.459435" lon="7.7671083"><ele>583.0</ele><time>2026-04-25T14:57:25.673Z</time></trkpt><trkpt lat="45.4593483" lon="7.7671633"><ele>582.1999999999999</ele><time>2026-04-25T14:57:26.673Z</time></trkpt><trkpt lat="45.4592683" lon="7.7672083"><ele>581.4</ele><time>2026-04-25T14:57:27.673Z</time></trkpt><trkpt lat="45.4591967" lon="7.7672333"><ele>580.5999999999999</ele><time>2026-04-25T14:57:28.673Z</time></trkpt><trkpt lat="45.459125" lon="7.7672433"><ele>579.8</ele><time>2026-04-25T14:57:29.674Z</time></trkpt><trkpt lat="45.4590317" lon="7.76722"><ele>579.0</ele><time>2026-04-25T14:57:30.673Z</time></trkpt><trkpt lat="45.4589033" lon="7.7671883"><ele>578.0</ele><time>2026-04-25T14:57:31.673Z</time></trkpt><trkpt lat="45.45875" lon="7.7671467"><ele>577.0</ele><time>2026-04-25T14:57:32.673Z</time></trkpt><trkpt lat="45.4585733" lon="7.7671267"><ele>576.0</ele><time>2026-04-25T14:57:33.673Z</time></trkpt><trkpt lat="45.458385" lon="7.76712"><ele>576.0</ele><time>2026-04-25T14:57:34.673Z</time></trkpt><trkpt lat="45.4582" lon="7.7671017"><ele>576.0</ele><time>2026-04-25T14:57:35.673Z</time></trkpt><trkpt lat="45.4580017" lon="7.7670783"><ele>576.0</ele><time>2026-04-25T14:57:36.673Z</time></trkpt><trkpt lat="45.457805" lon="7.76702"><ele>576.6666666666666</ele><time>2026-04-25T14:57:37.673Z</time></trkpt><trkpt lat="45.4576183" lon="7.76694"><ele>577.3333333333333</ele><time>2026-04-25T14:57:38.674Z</time></trkpt><trkpt lat="45.4574233" lon="7.7668617"><ele>578.0</ele><time>2026-04-25T14:57:39.673Z</time></trkpt><trkpt lat="45.45723" lon="7.7668167"><ele>574.6666666666666</ele><time>2026-04-25T14:57:40.673Z</time></trkpt><trkpt lat="45.4570433" lon="7.7668017"><ele>571.3333333333334</ele><time>2026-04-25T14:57:41.673Z</time></trkpt><trkpt lat="45.4568667" lon="7.7667767"><ele>568.0</ele><time>2026-04-25T14:57:42.673Z</time></trkpt><trkpt lat="45.4566817" lon="7.766735"><ele>568.0</ele><time>2026-04-25T14:57:43.673Z</time></trkpt><trkpt lat="45.4565017" lon="7.7667217"><ele>568.0</ele><time>2026-04-25T14:57:44.673Z</time></trkpt><trkpt lat="45.456315" lon="7.766745"><ele>568.0</ele><time>2026-04-25T14:57:45.673Z</time></trkpt><trkpt lat="45.4561417" lon="7.766795"><ele>567.6666666666667</ele><time>2026-04-25T14:57:46.673Z</time></trkpt><trkpt lat="45.4559683" lon="7.76682"><ele>567.3333333333334</ele><time>2026-04-25T14:57:47.673Z</time></trkpt><trkpt lat="45.4557933" lon="7.7667717"><ele>567.0</ele><time>2026-04-25T14:57:48.673Z</time></trkpt><trkpt lat="45.4556283" lon="7.7666833"><ele>567.0</ele><time>2026-04-25T14:57:49.673Z</time></trkpt><trkpt lat="45.45549" lon="7.7665483"><ele>567.0</ele><time>2026-04-25T14:57:50.673Z</time></trkpt><trkpt lat="45.4553683" lon="7.7664217"><ele>567.0</ele><time>2026-04-25T14:57:51.673Z</time></trkpt><trkpt lat="45.455235" lon="7.766375"><ele>567.0</ele><time>2026-04-25T14:57:52.673Z</time></trkpt><trkpt lat="45.45509" lon="7.766395"><ele>567.0</ele><time>2026-04-25T14:57:53.673Z</time></trkpt><trkpt lat="45.454945" lon="7.7664633"><ele>567.0</ele><time>2026-04-25T14:57:54.673Z</time></trkpt><trkpt lat="45.4547983" lon="7.76652"><ele>567.0</ele><time>2026-04-25T14:57:55.673Z</time></trkpt><trkpt lat="45.4546467" lon="7.7665683"><ele>567.0</ele><time>2026-04-25T14:57:56.673Z</time></trkpt><trkpt lat="45.4544967" lon="7.766605"><ele>567.0</ele><time>2026-04-25T14:57:57.673Z</time></trkpt><trkpt lat="45.4543567" lon="7.7666517"><ele>566.75</ele><time>2026-04-25T14:57:58.673Z</time></trkpt><trkpt lat="45.4542233" lon="7.7667033"><ele>566.5</ele><time>2026-04-25T14:57:59.673Z</time></trkpt><trkpt lat="45.4540933" lon="7.7667567"><ele>566.25</ele><time>2026-04-25T14:58:00.673Z</time></trkpt><trkpt lat="45.4539683" lon="7.766815"><ele>566.0</ele><time>2026-04-25T14:58:01.673Z</time></trkpt><trkpt lat="45.4538517" lon="7.766875"><ele>565.5</ele><time>2026-04-25T14:58:02.673Z</time></trkpt><trkpt lat="45.4537367" lon="7.7669333"><ele>565.0</ele><time>2026-04-25T14:58:03.673Z</time></trkpt><trkpt lat="45.4536267" lon="7.7670017"><ele>564.5</ele><time>2026-04-25T14:58:04.673Z</time></trkpt><trkpt lat="45.4535083" lon="7.76706"><ele>564.0</ele><time>2026-04-25T14:58:05.673Z</time></trkpt><trkpt lat="45.4533883" lon="7.7671167"><ele>564.0</ele><time>2026-04-25T14:58:06.673Z</time></trkpt><trkpt lat="45.45327" lon="7.7671817"><ele>564.0</ele><time>2026-04-25T14:58:07.673Z</time></trkpt><trkpt lat="45.4531617" lon="7.7672483"><ele>564.0</ele><time>2026-04-25T14:58:08.673Z</time></trkpt><trkpt lat="45.45307" lon="7.7672967"><ele>564.0</ele><time>2026-04-25T14:58:09.673Z</time></trkpt><trkpt lat="45.4529733" lon="7.7673483"><ele>564.0</ele><time>2026-04-25T14:58:10.673Z</time></trkpt><trkpt lat="45.4528933" lon="7.767385"><ele>564.8333333333334</ele><time>2026-04-25T14:58:11.673Z</time></trkpt><trkpt lat="45.4528133" lon="7.7674083"><ele>565.6666666666666</ele><time>2026-04-25T14:58:12.673Z</time></trkpt><trkpt lat="45.4527467" lon="7.7674233"><ele>566.5</ele><time>2026-04-25T14:58:13.673Z</time></trkpt><trkpt lat="45.45268" lon="7.7674233"><ele>567.3333333333333</ele><time>2026-04-25T14:58:14.673Z</time></trkpt><trkpt lat="45.4525467" lon="7.7673767"><ele>568.1666666666666</ele><time>2026-04-25T14:58:16.673Z</time></trkpt><trkpt lat="45.4524717" lon="7.767315"><ele>569.0</ele><time>2026-04-25T14:58:17.673Z</time></trkpt><trkpt lat="45.4523983" lon="7.7672417"><ele>569.0</ele><time>2026-04-25T14:58:18.673Z</time></trkpt><trkpt lat="45.45233" lon="7.7671483"><ele>569.0</ele><time>2026-04-25T14:58:19.673Z</time></trkpt><trkpt lat="45.4522767" lon="7.7670517"><ele>569.0</ele><time>2026-04-25T14:58:20.673Z</time></trkpt><trkpt lat="45.4522267" lon="7.7669567"><ele>569.0</ele><time>2026-04-25T14:58:21.673Z</time></trkpt><trkpt lat="45.4521767" lon="7.766875"><ele>569.0</ele><time>2026-04-25T14:58:22.673Z</time></trkpt><trkpt lat="45.4521267" lon="7.7667967"><ele>569.0</ele><time>2026-04-25T14:58:23.673Z</time></trkpt><trkpt lat="45.4520733" lon="7.76673"><ele>567.6666666666666</ele><time>2026-04-25T14:58:24.673Z</time></trkpt><trkpt lat="45.4520133" lon="7.7666983"><ele>566.3333333333333</ele><time>2026-04-25T14:58:25.673Z</time></trkpt><trkpt lat="45.4519467" lon="7.7667083"><ele>565.0</ele><time>2026-04-25T14:58:26.673Z</time></trkpt><trkpt lat="45.45188" lon="7.7667567"><ele>563.6666666666666</ele><time>2026-04-25T14:58:27.673Z</time></trkpt><trkpt lat="45.4518183" lon="7.7668417"><ele>562.3333333333334</ele><time>2026-04-25T14:58:28.673Z</time></trkpt><trkpt lat="45.45176" lon="7.7669667"><ele>561.0</ele><time>2026-04-25T14:58:29.673Z</time></trkpt><trkpt lat="45.4517017" lon="7.7670983"><ele>561.0</ele><time>2026-04-25T14:58:30.673Z</time></trkpt><trkpt lat="45.45165" lon="7.767225"><ele>561.0</ele><time>2026-04-25T14:58:31.673Z</time></trkpt><trkpt lat="45.4515967" lon="7.7673217"><ele>561.0</ele><time>2026-04-25T14:58:32.673Z</time></trkpt><trkpt lat="45.451555" lon="7.76742"><ele>561.0</ele><time>2026-04-25T14:58:33.673Z</time></trkpt><trkpt lat="45.4515183" lon="7.767545"><ele>561.0</ele><time>2026-04-25T14:58:34.673Z</time></trkpt><trkpt lat="45.45152" lon="7.7676917"><ele>561.4</ele><time>2026-04-25T14:58:35.673Z</time></trkpt><trkpt lat="45.4515433" lon="7.7678333"><ele>561.8</ele><time>2026-04-25T14:58:36.673Z</time></trkpt><trkpt lat="45.4515883" lon="7.7679783"><ele>562.1999999999999</ele><time>2026-04-25T14:58:37.673Z</time></trkpt><trkpt lat="45.45163" lon="7.7681183"><ele>562.6</ele><time>2026-04-25T14:58:38.673Z</time></trkpt><trkpt lat="45.4516617" lon="7.7682617"><ele>563.0</ele><time>2026-04-25T14:58:39.673Z</time></trkpt><trkpt lat="45.4516633" lon="7.768405"><ele>564.8</ele><time>2026-04-25T14:58:40.673Z</time></trkpt><trkpt lat="45.4516417" lon="7.768545"><ele>566.5999999999999</ele><time>2026-04-25T14:58:41.673Z</time></trkpt><trkpt lat="45.4515833" lon="7.7686467"><ele>568.4000000000001</ele><time>2026-04-25T14:58:42.673Z</time></trkpt><trkpt lat="45.4515083" lon="7.7687283"><ele>570.2</ele><time>2026-04-25T14:58:43.673Z</time></trkpt><trkpt lat="45.451425" lon="7.7687583"><ele>572.0</ele><time>2026-04-25T14:58:44.673Z</time></trkpt><trkpt lat="45.45134" lon="7.7687417"><ele>572.0</ele><time>2026-04-25T14:58:45.673Z</time></trkpt><trkpt lat="45.4512533" lon="7.7686733"><ele>572.0</ele><time>2026-04-25T14:58:46.673Z</time></trkpt><trkpt lat="45.4511717" lon="7.7685683"><ele>572.0</ele><time>2026-04-25T14:58:47.673Z</time></trkpt><trkpt lat="45.4511" lon="7.768435"><ele>572.0</ele><time>2026-04-25T14:58:48.673Z</time></trkpt><trkpt lat="45.4510333" lon="7.7682733"><ele>569.5</ele><time>2026-04-25T14:58:49.674Z</time></trkpt><trkpt lat="45.4509633" lon="7.7681367"><ele>567.0</ele><time>2026-04-25T14:58:50.673Z</time></trkpt><trkpt lat="45.450885" lon="7.7680083"><ele>564.5</ele><time>2026-04-25T14:58:51.673Z</time></trkpt><trkpt lat="45.4507883" lon="7.76786"><ele>562.0</ele><time>2026-04-25T14:58:52.673Z</time></trkpt><trkpt lat="45.450695" lon="7.7677233"><ele>560.75</ele><time>2026-04-25T14:58:53.673Z</time></trkpt><trkpt lat="45.4506" lon="7.767565"><ele>559.5</ele><time>2026-04-25T14:58:54.673Z</time></trkpt><trkpt lat="45.45051" lon="7.7674033"><ele>558.25</ele><time>2026-04-25T14:58:55.673Z</time></trkpt><trkpt lat="45.45042" lon="7.7672433"><ele>557.0</ele><time>2026-04-25T14:58:56.673Z</time></trkpt><trkpt lat="45.4503267" lon="7.7670867"><ele>557.0</ele><time>2026-04-25T14:58:57.673Z</time></trkpt><trkpt lat="45.4502333" lon="7.76692"><ele>557.0</ele><time>2026-04-25T14:58:58.673Z</time></trkpt><trkpt lat="45.45015" lon="7.7667633"><ele>557.0</ele><time>2026-04-25T14:58:59.673Z</time></trkpt><trkpt lat="45.4500667" lon="7.766605"><ele>557.0</ele><time>2026-04-25T14:59:00.673Z</time></trkpt><trkpt lat="45.4499867" lon="7.766455"><ele>555.5</ele><time>2026-04-25T14:59:01.673Z</time></trkpt><trkpt lat="45.4498983" lon="7.7662917"><ele>554.0</ele><time>2026-04-25T14:59:02.673Z</time></trkpt><trkpt lat="45.449815" lon="7.7661317"><ele>552.5</ele><time>2026-04-25T14:59:03.673Z</time></trkpt><trkpt lat="45.449735" lon="7.7659733"><ele>551.0</ele><time>2026-04-25T14:59:04.673Z</time></trkpt><trkpt lat="45.4496633" lon="7.76583"><ele>550.5</ele><time>2026-04-25T14:59:05.673Z</time></trkpt><trkpt lat="45.4496017" lon="7.7656867"><ele>550.0</ele><time>2026-04-25T14:59:06.673Z</time></trkpt><trkpt lat="45.4495333" lon="7.7655483"><ele>549.5</ele><time>2026-04-25T14:59:07.673Z</time></trkpt><trkpt lat="45.4494633" lon="7.7654117"><ele>549.0</ele><time>2026-04-25T14:59:08.673Z</time></trkpt><trkpt lat="45.4494017" lon="7.7652767"><ele>547.6</ele><time>2026-04-25T14:59:09.673Z</time></trkpt><trkpt lat="45.4493433" lon="7.7651517"><ele>546.2</ele><time>2026-04-25T14:59:10.673Z</time></trkpt><trkpt lat="45.44929" lon="7.7650333"><ele>544.8000000000001</ele><time>2026-04-25T14:59:11.673Z</time></trkpt><trkpt lat="45.44924" lon="7.7649167"><ele>543.4</ele><time>2026-04-25T14:59:12.673Z</time></trkpt><trkpt lat="45.44919" lon="7.764805"><ele>542.0</ele><time>2026-04-25T14:59:13.673Z</time></trkpt><trkpt lat="45.44913" lon="7.7646867"><ele>542.0</ele><time>2026-04-25T14:59:14.673Z</time></trkpt><trkpt lat="45.449075" lon="7.7645733"><ele>542.0</ele><time>2026-04-25T14:59:15.673Z</time></trkpt><trkpt lat="45.4490217" lon="7.764455"><ele>542.0</ele><time>2026-04-25T14:59:16.673Z</time></trkpt><trkpt lat="45.44897" lon="7.7643483"><ele>542.0</ele><time>2026-04-25T14:59:17.673Z</time></trkpt><trkpt lat="45.4489267" lon="7.7642417"><ele>542.0</ele><time>2026-04-25T14:59:18.673Z</time></trkpt><trkpt lat="45.4488767" lon="7.76414"><ele>540.5</ele><time>2026-04-25T14:59:19.673Z</time></trkpt><trkpt lat="45.44883" lon="7.7640483"><ele>539.0</ele><time>2026-04-25T14:59:20.673Z</time></trkpt><trkpt lat="45.44878" lon="7.763965"><ele>537.5</ele><time>2026-04-25T14:59:21.673Z</time></trkpt><trkpt lat="45.4487383" lon="7.76387"><ele>536.0</ele><time>2026-04-25T14:59:22.674Z</time></trkpt><trkpt lat="45.4487033" lon="7.7637883"><ele>534.5</ele><time>2026-04-25T14:59:23.673Z</time></trkpt><trkpt lat="45.4486483" lon="7.7636883"><ele>533.0</ele><time>2026-04-25T14:59:24.673Z</time></trkpt><trkpt lat="45.44858" lon="7.7635517"><ele>531.75</ele><time>2026-04-25T14:59:25.673Z</time></trkpt><trkpt lat="45.4485033" lon="7.7633933"><ele>530.5</ele><time>2026-04-25T14:59:26.673Z</time></trkpt><trkpt lat="45.4484283" lon="7.7632317"><ele>529.25</ele><time>2026-04-25T14:59:27.673Z</time></trkpt><trkpt lat="45.448355" lon="7.76308"><ele>528.0</ele><time>2026-04-25T14:59:28.673Z</time></trkpt><trkpt lat="45.4482817" lon="7.762955"><ele>528.0</ele><time>2026-04-25T14:59:29.673Z</time></trkpt><trkpt lat="45.4482067" lon="7.7628667"><ele>528.0</ele><time>2026-04-25T14:59:30.673Z</time></trkpt><trkpt lat="45.44813" lon="7.76283"><ele>528.0</ele><time>2026-04-25T14:59:31.673Z</time></trkpt><trkpt lat="45.4480517" lon="7.7628433"><ele>528.0</ele><time>2026-04-25T14:59:32.673Z</time></trkpt><trkpt lat="45.4479783" lon="7.7629083"><ele>528.0</ele><time>2026-04-25T14:59:33.673Z</time></trkpt><trkpt lat="45.4479317" lon="7.7630283"><ele>528.0</ele><time>2026-04-25T14:59:34.673Z</time></trkpt><trkpt lat="45.44793" lon="7.7632"><ele>529.6666666666666</ele><time>2026-04-25T14:59:35.673Z</time></trkpt><trkpt lat="45.4479517" lon="7.7634083"><ele>531.3333333333333</ele><time>2026-04-25T14:59:36.673Z</time></trkpt><trkpt lat="45.44797" lon="7.7636583"><ele>533.0</ele><time>2026-04-25T14:59:37.673Z</time></trkpt><trkpt lat="45.4479683" lon="7.7638817"><ele>529.75</ele><time>2026-04-25T14:59:38.673Z</time></trkpt><trkpt lat="45.44794" lon="7.7640933"><ele>526.5</ele><time>2026-04-25T14:59:39.673Z</time></trkpt><trkpt lat="45.4478867" lon="7.7642917"><ele>523.25</ele><time>2026-04-25T14:59:40.673Z</time></trkpt><trkpt lat="45.4478383" lon="7.764475"><ele>520.0</ele><time>2026-04-25T14:59:41.673Z</time></trkpt><trkpt lat="45.4477817" lon="7.7646667"><ele>520.0</ele><time>2026-04-25T14:59:42.673Z</time></trkpt><trkpt lat="45.4477067" lon="7.7648383"><ele>520.0</ele><time>2026-04-25T14:59:43.673Z</time></trkpt><trkpt lat="45.4476033" lon="7.7650217"><ele>520.0</ele><time>2026-04-25T14:59:44.673Z</time></trkpt><trkpt lat="45.4474717" lon="7.76519"><ele>519.0</ele><time>2026-04-25T14:59:45.673Z</time></trkpt><trkpt lat="45.4473" lon="7.7653383"><ele>518.0</ele><time>2026-04-25T14:59:46.673Z</time></trkpt><trkpt lat="45.44712" lon="7.7654533"><ele>517.0</ele><time>2026-04-25T14:59:47.674Z</time></trkpt><trkpt lat="45.446945" lon="7.76556"><ele>517.0</ele><time>2026-04-25T14:59:48.673Z</time></trkpt><trkpt lat="45.4467917" lon="7.7656833"><ele>517.0</ele><time>2026-04-25T14:59:49.673Z</time></trkpt><trkpt lat="45.4466483" lon="7.7658"><ele>517.0</ele><time>2026-04-25T14:59:50.673Z</time></trkpt><trkpt lat="45.4465083" lon="7.7659133"><ele>517.0</ele><time>2026-04-25T14:59:51.673Z</time></trkpt><trkpt lat="45.446375" lon="7.7660267"><ele>517.0</ele><time>2026-04-25T14:59:52.673Z</time></trkpt><trkpt lat="45.4462583" lon="7.7661433"><ele>517.0</ele><time>2026-04-25T14:59:53.673Z</time></trkpt><trkpt lat="45.4461367" lon="7.7662617"><ele>517.0</ele><time>2026-04-25T14:59:54.673Z</time></trkpt><trkpt lat="45.4460083" lon="7.76639"><ele>516.0</ele><time>2026-04-25T14:59:55.673Z</time></trkpt><trkpt lat="45.4458767" lon="7.7665067"><ele>515.0</ele><time>2026-04-25T14:59:56.673Z</time></trkpt><trkpt lat="45.4457433" lon="7.7665917"><ele>514.0</ele><time>2026-04-25T14:59:57.673Z</time></trkpt><trkpt lat="45.44561" lon="7.7666633"><ele>513.0</ele><time>2026-04-25T14:59:58.673Z</time></trkpt><trkpt lat="45.4454817" lon="7.7667283"><ele>512.5</ele><time>2026-04-25T14:59:59.673Z</time></trkpt><trkpt lat="45.4453567" lon="7.7667867"><ele>512.0</ele><time>2026-04-25T15:00:00.673Z</time></trkpt><trkpt lat="45.44524" lon="7.76684"><ele>511.5</ele><time>2026-04-25T15:00:01.673Z</time></trkpt><trkpt lat="45.44512" lon="7.766885"><ele>511.0</ele><time>2026-04-25T15:00:02.673Z</time></trkpt><trkpt lat="45.445" lon="7.7669133"><ele>511.0</ele><time>2026-04-25T15:00:03.673Z</time></trkpt><trkpt lat="45.44488" lon="7.7669217"><ele>511.0</ele><time>2026-04-25T15:00:04.673Z</time></trkpt><trkpt lat="45.4447617" lon="7.7669433"><ele>511.0</ele><time>2026-04-25T15:00:05.673Z</time></trkpt><trkpt lat="45.4446517" lon="7.76698"><ele>511.0</ele><time>2026-04-25T15:00:06.673Z</time></trkpt><trkpt lat="45.444545" lon="7.7670317"><ele>506.75</ele><time>2026-04-25T15:00:07.673Z</time></trkpt><trkpt lat="45.4444417" lon="7.7670917"><ele>502.5</ele><time>2026-04-25T15:00:08.673Z</time></trkpt><trkpt lat="45.4443417" lon="7.767155"><ele>498.25</ele><time>2026-04-25T15:00:09.673Z</time></trkpt><trkpt lat="45.4442433" lon="7.767225"><ele>494.0</ele><time>2026-04-25T15:00:10.673Z</time></trkpt><trkpt lat="45.4441217" lon="7.7673067"><ele>494.0</ele><time>2026-04-25T15:00:11.672Z</time></trkpt><trkpt lat="45.44404" lon="7.7674083"><ele>494.0</ele><time>2026-04-25T15:00:12.672Z</time></trkpt><trkpt lat="45.4439583" lon="7.7675067"><ele>494.0</ele><time>2026-04-25T15:00:13.672Z</time></trkpt><trkpt lat="45.44388" lon="7.7675983"><ele>494.0</ele><time>2026-04-25T15:00:14.672Z</time></trkpt><trkpt lat="45.443805" lon="7.7677117"><ele>494.0</ele><time>2026-04-25T15:00:15.672Z</time></trkpt><trkpt lat="45.44372" lon="7.7678317"><ele>492.79999999999995</ele><time>2026-04-25T15:00:16.672Z</time></trkpt><trkpt lat="45.4436283" lon="7.76792"><ele>491.59999999999997</ele><time>2026-04-25T15:00:17.672Z</time></trkpt><trkpt lat="45.443545" lon="7.7679983"><ele>490.4</ele><time>2026-04-25T15:00:18.672Z</time></trkpt><trkpt lat="45.4434483" lon="7.7680617"><ele>489.2</ele><time>2026-04-25T15:00:19.672Z</time></trkpt><trkpt lat="45.4433633" lon="7.7681317"><ele>488.0</ele><time>2026-04-25T15:00:20.673Z</time></trkpt><trkpt lat="45.4432833" lon="7.7681983"><ele>487.99999999999994</ele><time>2026-04-25T15:00:21.672Z</time></trkpt><trkpt lat="45.4431983" lon="7.7682617"><ele>488.0</ele><time>2026-04-25T15:00:22.672Z</time></trkpt><trkpt lat="45.4431217" lon="7.7683183"><ele>488.0</ele><time>2026-04-25T15:00:23.672Z</time></trkpt><trkpt lat="45.4430483" lon="7.7683783"><ele>488.0</ele><time>2026-04-25T15:00:24.672Z</time></trkpt><trkpt lat="45.4429717" lon="7.7684133"><ele>487.99999999999994</ele><time>2026-04-25T15:00:25.672Z</time></trkpt><trkpt lat="45.4428833" lon="7.768415"><ele>488.0</ele><time>2026-04-25T15:00:26.672Z</time></trkpt><trkpt lat="45.4427983" lon="7.7683533"><ele>486.5</ele><time>2026-04-25T15:00:27.672Z</time></trkpt><trkpt lat="45.442715" lon="7.7682483"><ele>485.0</ele><time>2026-04-25T15:00:28.672Z</time></trkpt><trkpt lat="45.4426233" lon="7.7681267"><ele>483.5</ele><time>2026-04-25T15:00:29.672Z</time></trkpt><trkpt lat="45.4425383" lon="7.7680167"><ele>482.0</ele><time>2026-04-25T15:00:30.672Z</time></trkpt><trkpt lat="45.442455" lon="7.767925"><ele>481.99999999999994</ele><time>2026-04-25T15:00:31.672Z</time></trkpt><trkpt lat="45.4423767" lon="7.7678467"><ele>482.0</ele><time>2026-04-25T15:00:32.672Z</time></trkpt><trkpt lat="45.4423067" lon="7.76777"><ele>482.0</ele><time>2026-04-25T15:00:33.672Z</time></trkpt><trkpt lat="45.442245" lon="7.7677117"><ele>482.0</ele><time>2026-04-25T15:00:34.672Z</time></trkpt><trkpt lat="45.442185" lon="7.767655"><ele>481.99999999999994</ele><time>2026-04-25T15:00:35.672Z</time></trkpt><trkpt lat="45.44211" lon="7.7675583"><ele>482.0</ele><time>2026-04-25T15:00:37.672Z</time></trkpt><trkpt lat="45.4420417" lon="7.76747"><ele>481.3333333333333</ele><time>2026-04-25T15:00:39.672Z</time></trkpt><trkpt lat="45.44197" lon="7.7673683"><ele>480.66666666666663</ele><time>2026-04-25T15:00:41.672Z</time></trkpt><trkpt lat="45.441925" lon="7.7673033"><ele>480.0</ele><time>2026-04-25T15:00:42.673Z</time></trkpt><trkpt lat="45.4418733" lon="7.7672183"><ele>479.33333333333337</ele><time>2026-04-25T15:00:43.672Z</time></trkpt><trkpt lat="45.4418133" lon="7.7671317"><ele>478.6666666666667</ele><time>2026-04-25T15:00:44.672Z</time></trkpt><trkpt lat="45.44177" lon="7.7670533"><ele>478.0</ele><time>2026-04-25T15:00:45.672Z</time></trkpt><trkpt lat="45.4417367" lon="7.76697"><ele>478.0</ele><time>2026-04-25T15:00:46.672Z</time></trkpt><trkpt lat="45.4416533" lon="7.7668833"><ele>477.99999999999994</ele><time>2026-04-25T15:00:48.672Z</time></trkpt><trkpt lat="45.4416033" lon="7.7669733"><ele>477.99999999999994</ele><time>2026-04-25T15:00:51.672Z</time></trkpt><trkpt lat="45.4416767" lon="7.767145"><ele>478.0</ele><time>2026-04-25T15:00:53.672Z</time></trkpt><trkpt lat="45.4417567" lon="7.767235"><ele>478.0</ele><time>2026-04-25T15:00:54.672Z</time></trkpt><trkpt lat="45.441855" lon="7.7673433"><ele>478.0</ele><time>2026-04-25T15:00:55.672Z</time></trkpt><trkpt lat="45.441945" lon="7.7674533"><ele>478.0</ele><time>2026-04-25T15:00:56.672Z</time></trkpt><trkpt lat="45.4420217" lon="7.7675367"><ele>478.0</ele><time>2026-04-25T15:00:57.672Z</time></trkpt><trkpt lat="45.44208" lon="7.7676033"><ele>478.0</ele><time>2026-04-25T15:00:58.672Z</time></trkpt><trkpt lat="45.4421417" lon="7.767705"><ele>482.0</ele><time>2026-04-25T15:01:00.672Z</time></trkpt></trkseg><trkseg><trkpt lat="45.4422067" lon="7.7675317"><ele>480.5</ele><time>2026-04-25T15:47:22.017Z</time></trkpt><trkpt lat="45.44225" lon="7.7681367"><ele>482.0</ele><time>2026-04-25T15:47:26.706Z</time></trkpt><trkpt lat="45.4422333" lon="7.7680183"><ele>482.0</ele><time>2026-04-25T15:47:29.706Z</time></trkpt><trkpt lat="45.4422067" lon="7.7679283"><ele>482.00000000000006</ele><time>2026-04-25T15:47:33.706Z</time></trkpt><trkpt lat="45.44219" lon="7.7678417"><ele>482.00000000000006</ele><time>2026-04-25T15:47:42.706Z</time></trkpt><trkpt lat="45.4421633" lon="7.7676683"><ele>482.0</ele><time>2026-04-25T15:48:24.706Z</time></trkpt><trkpt lat="45.4421767" lon="7.7675683"><ele>482.0</ele><time>2026-04-25T15:48:33.706Z</time></trkpt><trkpt lat="45.4420683" lon="7.767465"><ele>481.3333333333333</ele><time>2026-04-25T15:48:36.706Z</time></trkpt><trkpt lat="45.4420067" lon="7.76741"><ele>480.66666666666663</ele><time>2026-04-25T15:48:37.706Z</time></trkpt><trkpt lat="45.4419483" lon="7.7673483"><ele>480.0</ele><time>2026-04-25T15:48:38.706Z</time></trkpt><trkpt lat="45.441905" lon="7.76728"><ele>479.33333333333337</ele><time>2026-04-25T15:48:39.706Z</time></trkpt><trkpt lat="45.4418567" lon="7.7671967"><ele>478.6666666666667</ele><time>2026-04-25T15:48:40.706Z</time></trkpt><trkpt lat="45.4418017" lon="7.767095"><ele>478.0</ele><time>2026-04-25T15:48:41.706Z</time></trkpt><trkpt lat="45.441685" lon="7.7668633"><ele>477.00000000000006</ele><time>2026-04-25T15:48:43.706Z</time></trkpt><trkpt lat="45.4416317" lon="7.7667533"><ele>476.0</ele><time>2026-04-25T15:48:44.706Z</time></trkpt><trkpt lat="45.4415833" lon="7.7666383"><ele>475.0</ele><time>2026-04-25T15:48:45.706Z</time></trkpt><trkpt lat="45.441545" lon="7.7665283"><ele>474.0</ele><time>2026-04-25T15:48:46.706Z</time></trkpt><trkpt lat="45.4415033" lon="7.7664217"><ele>473.00000000000006</ele><time>2026-04-25T15:48:47.706Z</time></trkpt><trkpt lat="45.4414617" lon="7.7663267"><ele>472.0</ele><time>2026-04-25T15:48:48.706Z</time></trkpt><trkpt lat="45.4414267" lon="7.7662333"><ele>472.00000000000006</ele><time>2026-04-25T15:48:49.706Z</time></trkpt><trkpt lat="45.4414" lon="7.76615"><ele>472.0</ele><time>2026-04-25T15:48:50.706Z</time></trkpt><trkpt lat="45.4413867" lon="7.76605"><ele>472.0</ele><time>2026-04-25T15:48:51.706Z</time></trkpt><trkpt lat="45.4413867" lon="7.765935"><ele>472.0</ele><time>2026-04-25T15:48:52.706Z</time></trkpt><trkpt lat="45.4413967" lon="7.7657933"><ele>472.00000000000006</ele><time>2026-04-25T15:48:53.706Z</time></trkpt><trkpt lat="45.44143" lon="7.7656317"><ele>472.0</ele><time>2026-04-25T15:48:54.706Z</time></trkpt><trkpt lat="45.4414883" lon="7.7654583"><ele>470.75</ele><time>2026-04-25T15:48:55.706Z</time></trkpt><trkpt lat="45.4415533" lon="7.7652767"><ele>469.5</ele><time>2026-04-25T15:48:56.706Z</time></trkpt><trkpt lat="45.4416117" lon="7.76509"><ele>468.25</ele><time>2026-04-25T15:48:57.706Z</time></trkpt><trkpt lat="45.4416683" lon="7.7649117"><ele>467.0</ele><time>2026-04-25T15:48:58.706Z</time></trkpt><trkpt lat="45.4417217" lon="7.76473"><ele>466.25</ele><time>2026-04-25T15:48:59.706Z</time></trkpt><trkpt lat="45.4417783" lon="7.764545"><ele>465.5</ele><time>2026-04-25T15:49:00.706Z</time></trkpt><trkpt lat="45.4418267" lon="7.7643717"><ele>464.75</ele><time>2026-04-25T15:49:01.706Z</time></trkpt><trkpt lat="45.441875" lon="7.7641833"><ele>464.0</ele><time>2026-04-25T15:49:02.706Z</time></trkpt><trkpt lat="45.4419367" lon="7.764015"><ele>464.0</ele><time>2026-04-25T15:49:03.706Z</time></trkpt><trkpt lat="45.4419917" lon="7.7638367"><ele>464.0</ele><time>2026-04-25T15:49:04.706Z</time></trkpt><trkpt lat="45.4420433" lon="7.763675"><ele>464.0</ele><time>2026-04-25T15:49:05.706Z</time></trkpt><trkpt lat="45.44209" lon="7.76352"><ele>464.0</ele><time>2026-04-25T15:49:06.706Z</time></trkpt><trkpt lat="45.44214" lon="7.7633517"><ele>464.5</ele><time>2026-04-25T15:49:07.706Z</time></trkpt><trkpt lat="45.4421917" lon="7.7631983"><ele>465.0</ele><time>2026-04-25T15:49:08.706Z</time></trkpt><trkpt lat="45.4422317" lon="7.763045"><ele>465.5</ele><time>2026-04-25T15:49:09.706Z</time></trkpt><trkpt lat="45.442265" lon="7.7628817"><ele>466.0</ele><time>2026-04-25T15:49:10.706Z</time></trkpt><trkpt lat="45.4422783" lon="7.7627183"><ele>465.6666666666667</ele><time>2026-04-25T15:49:11.706Z</time></trkpt><trkpt lat="45.442255" lon="7.762535"><ele>465.33333333333337</ele><time>2026-04-25T15:49:12.706Z</time></trkpt><trkpt lat="45.44217" lon="7.762355"><ele>465.0</ele><time>2026-04-25T15:49:13.706Z</time></trkpt><trkpt lat="45.4420717" lon="7.76216"><ele>464.66666666666663</ele><time>2026-04-25T15:49:14.706Z</time></trkpt><trkpt lat="45.4419717" lon="7.761945"><ele>464.3333333333333</ele><time>2026-04-25T15:49:15.706Z</time></trkpt><trkpt lat="45.4418833" lon="7.761735"><ele>464.0</ele><time>2026-04-25T15:49:16.706Z</time></trkpt><trkpt lat="45.4417983" lon="7.7615417"><ele>463.66666666666663</ele><time>2026-04-25T15:49:17.706Z</time></trkpt><trkpt lat="45.4417067" lon="7.761325"><ele>463.33333333333337</ele><time>2026-04-25T15:49:18.706Z</time></trkpt><trkpt lat="45.4416233" lon="7.7611183"><ele>463.0</ele><time>2026-04-25T15:49:19.706Z</time></trkpt><trkpt lat="45.44154" lon="7.76091"><ele>461.75</ele><time>2026-04-25T15:49:20.706Z</time></trkpt><trkpt lat="45.441455" lon="7.7607333"><ele>460.5</ele><time>2026-04-25T15:49:21.706Z</time></trkpt><trkpt lat="45.4413867" lon="7.7605667"><ele>459.25</ele><time>2026-04-25T15:49:22.706Z</time></trkpt><trkpt lat="45.4413217" lon="7.7604167"><ele>458.0</ele><time>2026-04-25T15:49:23.707Z</time></trkpt><trkpt lat="45.44125" lon="7.760265"><ele>459.59999999999997</ele><time>2026-04-25T15:49:24.706Z</time></trkpt><trkpt lat="45.4411867" lon="7.7601283"><ele>461.19999999999993</ele><time>2026-04-25T15:49:25.706Z</time></trkpt><trkpt lat="45.4411433" lon="7.7600217"><ele>462.8</ele><time>2026-04-25T15:49:26.706Z</time></trkpt><trkpt lat="45.4410783" lon="7.7598933"><ele>464.4</ele><time>2026-04-25T15:49:28.706Z</time></trkpt><trkpt lat="45.441" lon="7.7598267"><ele>466.0</ele><time>2026-04-25T15:49:30.706Z</time></trkpt><trkpt lat="45.4408617" lon="7.759885"><ele>466.0</ele><time>2026-04-25T15:49:32.706Z</time></trkpt><trkpt lat="45.440765" lon="7.7599817"><ele>466.0</ele><time>2026-04-25T15:49:33.706Z</time></trkpt><trkpt lat="45.4406533" lon="7.7600967"><ele>466.0</ele><time>2026-04-25T15:49:34.706Z</time></trkpt><trkpt lat="45.44055" lon="7.7602167"><ele>466.0</ele><time>2026-04-25T15:49:35.706Z</time></trkpt><trkpt lat="45.44044" lon="7.7603433"><ele>464.33333333333337</ele><time>2026-04-25T15:49:36.706Z</time></trkpt><trkpt lat="45.44032" lon="7.7604633"><ele>462.66666666666663</ele><time>2026-04-25T15:49:37.706Z</time></trkpt><trkpt lat="45.4401883" lon="7.76056"><ele>461.0</ele><time>2026-04-25T15:49:38.706Z</time></trkpt><trkpt lat="45.4400417" lon="7.7606567"><ele>461.0</ele><time>2026-04-25T15:49:39.706Z</time></trkpt><trkpt lat="45.439895" lon="7.7607417"><ele>461.0</ele><time>2026-04-25T15:49:40.706Z</time></trkpt><trkpt lat="45.4397567" lon="7.7608517"><ele>461.0</ele><time>2026-04-25T15:49:41.706Z</time></trkpt><trkpt lat="45.439635" lon="7.7609933"><ele>463.66666666666663</ele><time>2026-04-25T15:49:42.706Z</time></trkpt><trkpt lat="45.4395317" lon="7.761175"><ele>466.33333333333337</ele><time>2026-04-25T15:49:43.706Z</time></trkpt><trkpt lat="45.4394367" lon="7.76134"><ele>469.0</ele><time>2026-04-25T15:49:44.706Z</time></trkpt><trkpt lat="45.43932" lon="7.7614517"><ele>469.0</ele><time>2026-04-25T15:49:45.706Z</time></trkpt><trkpt lat="45.439175" lon="7.76156"><ele>469.0</ele><time>2026-04-25T15:49:46.706Z</time></trkpt><trkpt lat="45.43902" lon="7.76167"><ele>469.0</ele><time>2026-04-25T15:49:47.706Z</time></trkpt><trkpt lat="45.4388667" lon="7.7618033"><ele>465.0</ele><time>2026-04-25T15:49:48.706Z</time></trkpt><trkpt lat="45.4387317" lon="7.76192"><ele>461.0</ele><time>2026-04-25T15:49:49.706Z</time></trkpt><trkpt lat="45.438605" lon="7.7620133"><ele>457.0</ele><time>2026-04-25T15:49:50.706Z</time></trkpt><trkpt lat="45.4384667" lon="7.76206"><ele>453.0</ele><time>2026-04-25T15:49:51.706Z</time></trkpt><trkpt lat="45.4383017" lon="7.7620817"><ele>453.0</ele><time>2026-04-25T15:49:52.706Z</time></trkpt><trkpt lat="45.4381283" lon="7.7620883"><ele>453.0</ele><time>2026-04-25T15:49:53.706Z</time></trkpt><trkpt lat="45.4379633" lon="7.7621067"><ele>453.0</ele><time>2026-04-25T15:49:54.706Z</time></trkpt><trkpt lat="45.437805" lon="7.7621717"><ele>454.66666666666663</ele><time>2026-04-25T15:49:55.706Z</time></trkpt><trkpt lat="45.4376567" lon="7.7622483"><ele>456.3333333333333</ele><time>2026-04-25T15:49:56.706Z</time></trkpt><trkpt lat="45.437495" lon="7.762305"><ele>458.0</ele><time>2026-04-25T15:49:57.706Z</time></trkpt><trkpt lat="45.43733" lon="7.7623233"><ele>458.0</ele><time>2026-04-25T15:49:58.706Z</time></trkpt><trkpt lat="45.437145" lon="7.762315"><ele>458.0</ele><time>2026-04-25T15:49:59.706Z</time></trkpt><trkpt lat="45.4369517" lon="7.76225"><ele>458.0</ele><time>2026-04-25T15:50:00.706Z</time></trkpt><trkpt lat="45.4367417" lon="7.7621967"><ele>457.0</ele><time>2026-04-25T15:50:01.706Z</time></trkpt><trkpt lat="45.4365233" lon="7.762155"><ele>456.0</ele><time>2026-04-25T15:50:02.706Z</time></trkpt><trkpt lat="45.436315" lon="7.7621117"><ele>455.0</ele><time>2026-04-25T15:50:03.706Z</time></trkpt><trkpt lat="45.436115" lon="7.7620567"><ele>453.66666666666663</ele><time>2026-04-25T15:50:04.706Z</time></trkpt><trkpt lat="45.4359233" lon="7.7619817"><ele>452.33333333333337</ele><time>2026-04-25T15:50:05.706Z</time></trkpt><trkpt lat="45.4357433" lon="7.76189"><ele>451.0</ele><time>2026-04-25T15:50:06.706Z</time></trkpt><trkpt lat="45.4355633" lon="7.7617467"><ele>452.6666666666667</ele><time>2026-04-25T15:50:07.706Z</time></trkpt><trkpt lat="45.4353883" lon="7.7615917"><ele>454.33333333333337</ele><time>2026-04-25T15:50:08.706Z</time></trkpt><trkpt lat="45.4352183" lon="7.761415"><ele>456.0</ele><time>2026-04-25T15:50:09.705Z</time></trkpt><trkpt lat="45.4350433" lon="7.7612283"><ele>456.0</ele><time>2026-04-25T15:50:10.705Z</time></trkpt><trkpt lat="45.4348733" lon="7.761055"><ele>456.0</ele><time>2026-04-25T15:50:11.705Z</time></trkpt><trkpt lat="45.4347183" lon="7.76089"><ele>456.0</ele><time>2026-04-25T15:50:12.705Z</time></trkpt><trkpt lat="45.4345733" lon="7.7607183"><ele>456.33333333333337</ele><time>2026-04-25T15:50:13.705Z</time></trkpt><trkpt lat="45.4344217" lon="7.7605467"><ele>456.6666666666667</ele><time>2026-04-25T15:50:14.705Z</time></trkpt><trkpt lat="45.43426" lon="7.7603883"><ele>457.0</ele><time>2026-04-25T15:50:15.705Z</time></trkpt><trkpt lat="45.4341" lon="7.7602567"><ele>461.0</ele><time>2026-04-25T15:50:16.705Z</time></trkpt><trkpt lat="45.4339233" lon="7.7601483"><ele>465.0</ele><time>2026-04-25T15:50:17.705Z</time></trkpt><trkpt lat="45.433735" lon="7.7600633"><ele>469.0</ele><time>2026-04-25T15:50:18.705Z</time></trkpt><trkpt lat="45.4335417" lon="7.760035"><ele>469.0</ele><time>2026-04-25T15:50:19.705Z</time></trkpt><trkpt lat="45.43335" lon="7.7600033"><ele>469.0</ele><time>2026-04-25T15:50:20.705Z</time></trkpt><trkpt lat="45.4331683" lon="7.759965"><ele>469.0</ele><time>2026-04-25T15:50:21.705Z</time></trkpt><trkpt lat="45.433" lon="7.7599067"><ele>469.0</ele><time>2026-04-25T15:50:22.705Z</time></trkpt><trkpt lat="45.432835" lon="7.7598683"><ele>469.0</ele><time>2026-04-25T15:50:23.705Z</time></trkpt><trkpt lat="45.4326817" lon="7.7598333"><ele>469.0</ele><time>2026-04-25T15:50:24.705Z</time></trkpt><trkpt lat="45.4325367" lon="7.7598133"><ele>469.0</ele><time>2026-04-25T15:50:25.705Z</time></trkpt><trkpt lat="45.432405" lon="7.759795"><ele>469.0</ele><time>2026-04-25T15:50:26.705Z</time></trkpt><trkpt lat="45.4322733" lon="7.7597733"><ele>469.0</ele><time>2026-04-25T15:50:27.705Z</time></trkpt><trkpt lat="45.4321467" lon="7.7597483"><ele>469.0</ele><time>2026-04-25T15:50:28.705Z</time></trkpt><trkpt lat="45.4320067" lon="7.7597117"><ele>468.25</ele><time>2026-04-25T15:50:29.705Z</time></trkpt><trkpt lat="45.4318633" lon="7.7596717"><ele>467.5</ele><time>2026-04-25T15:50:30.705Z</time></trkpt><trkpt lat="45.4317217" lon="7.7596133"><ele>466.75</ele><time>2026-04-25T15:50:31.705Z</time></trkpt><trkpt lat="45.4315817" lon="7.7595333"><ele>466.0</ele><time>2026-04-25T15:50:32.705Z</time></trkpt><trkpt lat="45.43144" lon="7.7594367"><ele>467.33333333333337</ele><time>2026-04-25T15:50:33.705Z</time></trkpt><trkpt lat="45.4312917" lon="7.759325"><ele>468.66666666666663</ele><time>2026-04-25T15:50:34.705Z</time></trkpt><trkpt lat="45.4311433" lon="7.7592117"><ele>470.0</ele><time>2026-04-25T15:50:35.705Z</time></trkpt><trkpt lat="45.4310083" lon="7.7591033"><ele>470.0</ele><time>2026-04-25T15:50:36.705Z</time></trkpt><trkpt lat="45.4308883" lon="7.7590117"><ele>470.0</ele><time>2026-04-25T15:50:37.705Z</time></trkpt><trkpt lat="45.4307733" lon="7.7589183"><ele>470.0</ele><time>2026-04-25T15:50:38.705Z</time></trkpt><trkpt lat="45.43068" lon="7.7588067"><ele>470.0</ele><time>2026-04-25T15:50:39.705Z</time></trkpt><trkpt lat="45.4305917" lon="7.7587"><ele>470.0</ele><time>2026-04-25T15:50:40.705Z</time></trkpt><trkpt lat="45.4305517" lon="7.7586283"><ele>470.0</ele><time>2026-04-25T15:50:41.705Z</time></trkpt><trkpt lat="45.43051" lon="7.75849"><ele>470.0</ele><time>2026-04-25T15:50:48.706Z</time></trkpt><trkpt lat="45.4304533" lon="7.7583867"><ele>470.0</ele><time>2026-04-25T15:50:49.705Z</time></trkpt><trkpt lat="45.4303917" lon="7.758265"><ele>470.0</ele><time>2026-04-25T15:50:50.705Z</time></trkpt><trkpt lat="45.4303267" lon="7.7581317"><ele>470.25</ele><time>2026-04-25T15:50:51.705Z</time></trkpt><trkpt lat="45.4302617" lon="7.757985"><ele>470.5</ele><time>2026-04-25T15:50:52.705Z</time></trkpt><trkpt lat="45.430195" lon="7.7578283"><ele>470.75</ele><time>2026-04-25T15:50:53.705Z</time></trkpt><trkpt lat="45.4301167" lon="7.757665"><ele>471.0</ele><time>2026-04-25T15:50:54.705Z</time></trkpt><trkpt lat="45.4300383" lon="7.7575017"><ele>471.0</ele><time>2026-04-25T15:50:55.705Z</time></trkpt><trkpt lat="45.4299517" lon="7.757315"><ele>471.0</ele><time>2026-04-25T15:50:56.705Z</time></trkpt><trkpt lat="45.4298683" lon="7.7571133"><ele>471.0</ele><time>2026-04-25T15:50:57.705Z</time></trkpt><trkpt lat="45.4297983" lon="7.756895"><ele>472.66666666666663</ele><time>2026-04-25T15:50:58.705Z</time></trkpt><trkpt lat="45.42975" lon="7.7566717"><ele>474.3333333333333</ele><time>2026-04-25T15:50:59.705Z</time></trkpt><trkpt lat="45.4297067" lon="7.7564467"><ele>476.0</ele><time>2026-04-25T15:51:00.705Z</time></trkpt><trkpt lat="45.4296633" lon="7.7562233"><ele>472.66666666666663</ele><time>2026-04-25T15:51:01.705Z</time></trkpt><trkpt lat="45.4296183" lon="7.7559983"><ele>469.33333333333337</ele><time>2026-04-25T15:51:02.705Z</time></trkpt><trkpt lat="45.4295767" lon="7.7557783"><ele>466.0</ele><time>2026-04-25T15:51:03.705Z</time></trkpt><trkpt lat="45.429515" lon="7.7555717"><ele>466.0</ele><time>2026-04-25T15:51:04.705Z</time></trkpt><trkpt lat="45.429435" lon="7.75538"><ele>466.0</ele><time>2026-04-25T15:51:05.705Z</time></trkpt><trkpt lat="45.4293517" lon="7.7552117"><ele>466.0</ele><time>2026-04-25T15:51:06.705Z</time></trkpt><trkpt lat="45.429275" lon="7.755055"><ele>466.0</ele><time>2026-04-25T15:51:07.705Z</time></trkpt><trkpt lat="45.4291867" lon="7.7549167"><ele>468.0</ele><time>2026-04-25T15:51:08.705Z</time></trkpt><trkpt lat="45.4290783" lon="7.7547617"><ele>470.0</ele><time>2026-04-25T15:51:09.705Z</time></trkpt><trkpt lat="45.428945" lon="7.75463"><ele>472.0</ele><time>2026-04-25T15:51:10.705Z</time></trkpt><trkpt lat="45.4287933" lon="7.7544983"><ele>470.33333333333337</ele><time>2026-04-25T15:51:11.706Z</time></trkpt><trkpt lat="45.4286267" lon="7.754375"><ele>468.66666666666663</ele><time>2026-04-25T15:51:12.705Z</time></trkpt><trkpt lat="45.4284733" lon="7.7542383"><ele>467.0</ele><time>2026-04-25T15:51:13.705Z</time></trkpt><trkpt lat="45.4283383" lon="7.75408"><ele>467.0</ele><time>2026-04-25T15:51:14.705Z</time></trkpt><trkpt lat="45.4282067" lon="7.7539067"><ele>467.0</ele><time>2026-04-25T15:51:15.705Z</time></trkpt><trkpt lat="45.428065" lon="7.7537367"><ele>467.0</ele><time>2026-04-25T15:51:16.705Z</time></trkpt><trkpt lat="45.4279133" lon="7.7535733"><ele>465.66666666666663</ele><time>2026-04-25T15:51:17.705Z</time></trkpt><trkpt lat="45.4277433" lon="7.753435"><ele>464.33333333333337</ele><time>2026-04-25T15:51:18.705Z</time></trkpt><trkpt lat="45.4275467" lon="7.7533267"><ele>463.0</ele><time>2026-04-25T15:51:19.705Z</time></trkpt><trkpt lat="45.427355" lon="7.7532183"><ele>463.0</ele><time>2026-04-25T15:51:20.705Z</time></trkpt><trkpt lat="45.4271733" lon="7.7531317"><ele>463.0</ele><time>2026-04-25T15:51:21.705Z</time></trkpt><trkpt lat="45.4269917" lon="7.7530617"><ele>463.0</ele><time>2026-04-25T15:51:22.705Z</time></trkpt><trkpt lat="45.4268267" lon="7.75301"><ele>460.6666666666667</ele><time>2026-04-25T15:51:23.706Z</time></trkpt><trkpt lat="45.426675" lon="7.7529933"><ele>458.33333333333337</ele><time>2026-04-25T15:51:24.705Z</time></trkpt><trkpt lat="45.4265283" lon="7.7530467"><ele>456.0</ele><time>2026-04-25T15:51:25.705Z</time></trkpt><trkpt lat="45.42638" lon="7.7531533"><ele>458.33333333333337</ele><time>2026-04-25T15:51:26.705Z</time></trkpt><trkpt lat="45.4262233" lon="7.7532683"><ele>460.6666666666667</ele><time>2026-04-25T15:51:27.705Z</time></trkpt><trkpt lat="45.4260733" lon="7.7533867"><ele>463.0</ele><time>2026-04-25T15:51:28.705Z</time></trkpt><trkpt lat="45.4259283" lon="7.753505"><ele>459.6666666666667</ele><time>2026-04-25T15:51:29.705Z</time></trkpt><trkpt lat="45.4257883" lon="7.7536533"><ele>456.33333333333337</ele><time>2026-04-25T15:51:30.705Z</time></trkpt><trkpt lat="45.4256733" lon="7.7538183"><ele>453.0</ele><time>2026-04-25T15:51:31.705Z</time></trkpt><trkpt lat="45.42559" lon="7.7540117"><ele>453.0</ele><time>2026-04-25T15:51:32.705Z</time></trkpt><trkpt lat="45.425505" lon="7.7541983"><ele>453.0</ele><time>2026-04-25T15:51:33.705Z</time></trkpt><trkpt lat="45.4253917" lon="7.754375"><ele>453.0</ele><time>2026-04-25T15:51:34.705Z</time></trkpt><trkpt lat="45.425265" lon="7.7545167"><ele>450.66666666666663</ele><time>2026-04-25T15:51:35.705Z</time></trkpt><trkpt lat="45.4251317" lon="7.75463"><ele>448.3333333333333</ele><time>2026-04-25T15:51:36.706Z</time></trkpt><trkpt lat="45.4249817" lon="7.7547083"><ele>446.0</ele><time>2026-04-25T15:51:37.705Z</time></trkpt><trkpt lat="45.4248067" lon="7.7547133"><ele>442.3333333333333</ele><time>2026-04-25T15:51:38.705Z</time></trkpt><trkpt lat="45.4246267" lon="7.754665"><ele>438.66666666666663</ele><time>2026-04-25T15:51:39.705Z</time></trkpt><trkpt lat="45.424445" lon="7.7545817"><ele>435.0</ele><time>2026-04-25T15:51:40.705Z</time></trkpt><trkpt lat="45.4242533" lon="7.7544967"><ele>435.0</ele><time>2026-04-25T15:51:41.705Z</time></trkpt><trkpt lat="45.4240717" lon="7.7544217"><ele>435.0</ele><time>2026-04-25T15:51:42.705Z</time></trkpt><trkpt lat="45.4239083" lon="7.754355"><ele>435.0</ele><time>2026-04-25T15:51:43.705Z</time></trkpt><trkpt lat="45.4237733" lon="7.7542767"><ele>430.75</ele><time>2026-04-25T15:51:44.705Z</time></trkpt><trkpt lat="45.4236667" lon="7.7541617"><ele>426.5</ele><time>2026-04-25T15:51:45.705Z</time></trkpt><trkpt lat="45.4236017" lon="7.753995"><ele>422.25</ele><time>2026-04-25T15:51:46.705Z</time></trkpt><trkpt lat="45.423575" lon="7.753775"><ele>418.0</ele><time>2026-04-25T15:51:47.705Z</time></trkpt><trkpt lat="45.4235583" lon="7.7535167"><ele>430.6666666666667</ele><time>2026-04-25T15:51:48.705Z</time></trkpt><trkpt lat="45.42353" lon="7.7532633"><ele>443.33333333333337</ele><time>2026-04-25T15:51:49.705Z</time></trkpt><trkpt lat="45.4234583" lon="7.75306"><ele>456.0</ele><time>2026-04-25T15:51:50.705Z</time></trkpt><trkpt lat="45.423355" lon="7.7529167"><ele>456.0</ele><time>2026-04-25T15:51:51.705Z</time></trkpt><trkpt lat="45.423225" lon="7.752835"><ele>456.0</ele><time>2026-04-25T15:51:52.705Z</time></trkpt><trkpt lat="45.4230817" lon="7.75284"><ele>456.0</ele><time>2026-04-25T15:51:53.705Z</time></trkpt><trkpt lat="45.422915" lon="7.7528633"><ele>446.33333333333337</ele><time>2026-04-25T15:51:54.705Z</time></trkpt><trkpt lat="45.4227233" lon="7.7528783"><ele>436.6666666666667</ele><time>2026-04-25T15:51:55.705Z</time></trkpt><trkpt lat="45.4225083" lon="7.7528633"><ele>427.0</ele><time>2026-04-25T15:51:56.705Z</time></trkpt><trkpt lat="45.42229" lon="7.7528267"><ele>422.6666666666667</ele><time>2026-04-25T15:51:57.705Z</time></trkpt><trkpt lat="45.4220683" lon="7.7527783"><ele>418.33333333333337</ele><time>2026-04-25T15:51:58.705Z</time></trkpt><trkpt lat="45.4218583" lon="7.752715"><ele>414.0</ele><time>2026-04-25T15:51:59.705Z</time></trkpt><trkpt lat="45.42166" lon="7.7526517"><ele>419.66666666666663</ele><time>2026-04-25T15:52:00.705Z</time></trkpt><trkpt lat="45.4214867" lon="7.7525967"><ele>425.3333333333333</ele><time>2026-04-25T15:52:01.705Z</time></trkpt><trkpt lat="45.421335" lon="7.75255"><ele>431.0</ele><time>2026-04-25T15:52:02.705Z</time></trkpt><trkpt lat="45.42121" lon="7.7524783"><ele>431.0</ele><time>2026-04-25T15:52:03.705Z</time></trkpt><trkpt lat="45.4210933" lon="7.7523567"><ele>431.0</ele><time>2026-04-25T15:52:04.705Z</time></trkpt><trkpt lat="45.421005" lon="7.7521717"><ele>431.0</ele><time>2026-04-25T15:52:05.705Z</time></trkpt><trkpt lat="45.4209167" lon="7.7519567"><ele>435.3333333333333</ele><time>2026-04-25T15:52:06.705Z</time></trkpt><trkpt lat="45.4208" lon="7.75176"><ele>439.66666666666663</ele><time>2026-04-25T15:52:07.706Z</time></trkpt><trkpt lat="45.4206467" lon="7.751605"><ele>444.0</ele><time>2026-04-25T15:52:08.705Z</time></trkpt><trkpt lat="45.420495" lon="7.7515033"><ele>438.33333333333337</ele><time>2026-04-25T15:52:09.705Z</time></trkpt><trkpt lat="45.420345" lon="7.751385"><ele>432.6666666666667</ele><time>2026-04-25T15:52:10.705Z</time></trkpt><trkpt lat="45.42023" lon="7.75124"><ele>427.0</ele><time>2026-04-25T15:52:11.705Z</time></trkpt><trkpt lat="45.42013" lon="7.751085"><ele>428.6</ele><time>2026-04-25T15:52:12.705Z</time></trkpt><trkpt lat="45.42004" lon="7.7509433"><ele>430.20000000000005</ele><time>2026-04-25T15:52:13.706Z</time></trkpt><trkpt lat="45.4199667" lon="7.7508217"><ele>431.8</ele><time>2026-04-25T15:52:14.705Z</time></trkpt><trkpt lat="45.419905" lon="7.7507317"><ele>433.4</ele><time>2026-04-25T15:52:15.705Z</time></trkpt><trkpt lat="45.4198533" lon="7.7506617"><ele>435.0</ele><time>2026-04-25T15:52:16.705Z</time></trkpt><trkpt lat="45.4198117" lon="7.7505883"><ele>435.0</ele><time>2026-04-25T15:52:17.705Z</time></trkpt><trkpt lat="45.4197583" lon="7.7504883"><ele>435.0</ele><time>2026-04-25T15:52:19.705Z</time></trkpt><trkpt lat="45.4198033" lon="7.7506083"><ele>435.0</ele><time>2026-04-25T15:52:26.705Z</time></trkpt><trkpt lat="45.4198683" lon="7.7507133"><ele>435.0</ele><time>2026-04-25T15:52:27.706Z</time></trkpt><trkpt lat="45.4199367" lon="7.7508467"><ele>435.0</ele><time>2026-04-25T15:52:28.705Z</time></trkpt><trkpt lat="45.42" lon="7.75096"><ele>433.4</ele><time>2026-04-25T15:52:29.705Z</time></trkpt><trkpt lat="45.4200433" lon="7.7510467"><ele>431.8</ele><time>2026-04-25T15:52:30.705Z</time></trkpt><trkpt lat="45.4200767" lon="7.7511833"><ele>430.20000000000005</ele><time>2026-04-25T15:52:32.705Z</time></trkpt><trkpt lat="45.4200583" lon="7.7512917"><ele>428.6</ele><time>2026-04-25T15:52:34.705Z</time></trkpt><trkpt lat="45.4199567" lon="7.75142"><ele>427.0</ele><time>2026-04-25T15:52:36.705Z</time></trkpt><trkpt lat="45.4198967" lon="7.75148"><ele>427.0</ele><time>2026-04-25T15:52:37.705Z</time></trkpt><trkpt lat="45.419825" lon="7.751555"><ele>427.00000000000006</ele><time>2026-04-25T15:52:38.705Z</time></trkpt><trkpt lat="45.419755" lon="7.75161"><ele>427.00000000000006</ele><time>2026-04-25T15:52:39.705Z</time></trkpt><trkpt lat="45.41968" lon="7.7516383"><ele>427.0</ele><time>2026-04-25T15:52:40.705Z</time></trkpt><trkpt lat="45.4195783" lon="7.751635"><ele>427.0</ele><time>2026-04-25T15:52:41.705Z</time></trkpt><trkpt lat="45.4194633" lon="7.751605"><ele>424.0</ele><time>2026-04-25T15:52:42.705Z</time></trkpt><trkpt lat="45.41935" lon="7.75157"><ele>421.00000000000006</ele><time>2026-04-25T15:52:43.705Z</time></trkpt><trkpt lat="45.419255" lon="7.7515433"><ele>418.0</ele><time>2026-04-25T15:52:44.706Z</time></trkpt><trkpt lat="45.4191733" lon="7.751505"><ele>415.0</ele><time>2026-04-25T15:52:45.705Z</time></trkpt><trkpt lat="45.4190933" lon="7.7514283"><ele>412.0</ele><time>2026-04-25T15:52:46.705Z</time></trkpt><trkpt lat="45.4190167" lon="7.751335"><ele>412.0</ele><time>2026-04-25T15:52:47.705Z</time></trkpt><trkpt lat="45.4189433" lon="7.7512267"><ele>412.0</ele><time>2026-04-25T15:52:48.705Z</time></trkpt><trkpt lat="45.4188733" lon="7.7511433"><ele>412.0</ele><time>2026-04-25T15:52:49.705Z</time></trkpt><trkpt lat="45.418805" lon="7.7510767"><ele>412.0</ele><time>2026-04-25T15:52:50.705Z</time></trkpt><trkpt lat="45.4187183" lon="7.7510367"><ele>412.0</ele><time>2026-04-25T15:52:51.705Z</time></trkpt><trkpt lat="45.4186033" lon="7.75102"><ele>413.75</ele><time>2026-04-25T15:52:52.705Z</time></trkpt><trkpt lat="45.4184833" lon="7.7509933"><ele>415.5</ele><time>2026-04-25T15:52:53.705Z</time></trkpt><trkpt lat="45.4183633" lon="7.7509767"><ele>417.25</ele><time>2026-04-25T15:52:54.705Z</time></trkpt><trkpt lat="45.4182483" lon="7.7509567"><ele>419.0</ele><time>2026-04-25T15:52:55.705Z</time></trkpt><trkpt lat="45.4181417" lon="7.7509383"><ele>419.0</ele><time>2026-04-25T15:52:56.705Z</time></trkpt><trkpt lat="45.4180417" lon="7.750925"><ele>419.0</ele><time>2026-04-25T15:52:57.705Z</time></trkpt><trkpt lat="45.4179433" lon="7.7509217"><ele>419.0</ele><time>2026-04-25T15:52:58.705Z</time></trkpt><trkpt lat="45.4178467" lon="7.75092"><ele>419.0</ele><time>2026-04-25T15:52:59.705Z</time></trkpt><trkpt lat="45.417745" lon="7.7509317"><ele>419.0</ele><time>2026-04-25T15:53:00.705Z</time></trkpt><trkpt lat="45.4176567" lon="7.750955"><ele>418.66666666666663</ele><time>2026-04-25T15:53:01.705Z</time></trkpt><trkpt lat="45.4175767" lon="7.7509717"><ele>418.3333333333333</ele><time>2026-04-25T15:53:02.705Z</time></trkpt><trkpt lat="45.417495" lon="7.750995"><ele>418.0</ele><time>2026-04-25T15:53:03.705Z</time></trkpt><trkpt lat="45.4174133" lon="7.7510167"><ele>417.66666666666663</ele><time>2026-04-25T15:53:04.705Z</time></trkpt><trkpt lat="45.417325" lon="7.7510417"><ele>417.3333333333333</ele><time>2026-04-25T15:53:05.706Z</time></trkpt><trkpt lat="45.4172317" lon="7.75108"><ele>417.0</ele><time>2026-04-25T15:53:06.705Z</time></trkpt><trkpt lat="45.4171433" lon="7.7511333"><ele>416.6</ele><time>2026-04-25T15:53:07.705Z</time></trkpt><trkpt lat="45.41705" lon="7.7512"><ele>416.20000000000005</ele><time>2026-04-25T15:53:08.705Z</time></trkpt><trkpt lat="45.4169533" lon="7.75127"><ele>415.8</ele><time>2026-04-25T15:53:09.705Z</time></trkpt><trkpt lat="45.4168533" lon="7.7513417"><ele>415.4</ele><time>2026-04-25T15:53:10.705Z</time></trkpt><trkpt lat="45.4167617" lon="7.7514117"><ele>415.0</ele><time>2026-04-25T15:53:11.705Z</time></trkpt><trkpt lat="45.4166733" lon="7.7514767"><ele>415.0</ele><time>2026-04-25T15:53:12.705Z</time></trkpt><trkpt lat="45.4165983" lon="7.751525"><ele>415.0</ele><time>2026-04-25T15:53:13.705Z</time></trkpt><trkpt lat="45.416535" lon="7.7515683"><ele>415.0</ele><time>2026-04-25T15:53:14.705Z</time></trkpt><trkpt lat="45.4164283" lon="7.7516283"><ele>415.0</ele><time>2026-04-25T15:53:16.705Z</time></trkpt><trkpt lat="45.4163417" lon="7.7517117"><ele>415.0</ele><time>2026-04-25T15:53:18.705Z</time></trkpt><trkpt lat="45.4162533" lon="7.75179"><ele>413.50000000000006</ele><time>2026-04-25T15:53:20.705Z</time></trkpt><trkpt lat="45.4161333" lon="7.7518133"><ele>412.0</ele><time>2026-04-25T15:53:22.705Z</time></trkpt><trkpt lat="45.4160667" lon="7.7517867"><ele>410.5</ele><time>2026-04-25T15:53:23.705Z</time></trkpt><trkpt lat="45.415995" lon="7.75173"><ele>409.0</ele><time>2026-04-25T15:53:24.706Z</time></trkpt><trkpt lat="45.4159317" lon="7.7516617"><ele>407.50000000000006</ele><time>2026-04-25T15:53:25.705Z</time></trkpt><trkpt lat="45.4158733" lon="7.7515967"><ele>406.0</ele><time>2026-04-25T15:53:26.705Z</time></trkpt><trkpt lat="45.4158067" lon="7.7515483"><ele>406.0</ele><time>2026-04-25T15:53:27.705Z</time></trkpt><trkpt lat="45.4157217" lon="7.75152"><ele>406.0</ele><time>2026-04-25T15:53:28.706Z</time></trkpt><trkpt lat="45.4156217" lon="7.7515"><ele>406.0</ele><time>2026-04-25T15:53:29.705Z</time></trkpt><trkpt lat="45.4155217" lon="7.75149"><ele>406.0</ele><time>2026-04-25T15:53:30.705Z</time></trkpt><trkpt lat="45.4154233" lon="7.75149"><ele>406.0</ele><time>2026-04-25T15:53:31.705Z</time></trkpt><trkpt lat="45.4153367" lon="7.7514967"><ele>406.0</ele><time>2026-04-25T15:53:32.705Z</time></trkpt><trkpt lat="45.4152567" lon="7.7515217"><ele>406.0</ele><time>2026-04-25T15:53:33.705Z</time></trkpt><trkpt lat="45.4151867" lon="7.7515483"><ele>406.0</ele><time>2026-04-25T15:53:34.705Z</time></trkpt><trkpt lat="45.4151183" lon="7.75158"><ele>406.0</ele><time>2026-04-25T15:53:35.706Z</time></trkpt><trkpt lat="45.415055" lon="7.7515917"><ele>406.0</ele><time>2026-04-25T15:53:36.705Z</time></trkpt><trkpt lat="45.4149883" lon="7.7515783"><ele>406.0</ele><time>2026-04-25T15:53:37.705Z</time></trkpt><trkpt lat="45.4149167" lon="7.751555"><ele>406.0</ele><time>2026-04-25T15:53:38.705Z</time></trkpt><trkpt lat="45.41484" lon="7.7515133"><ele>406.00000000000006</ele><time>2026-04-25T15:53:39.705Z</time></trkpt><trkpt lat="45.4147667" lon="7.75147"><ele>406.0</ele><time>2026-04-25T15:53:40.705Z</time></trkpt><trkpt lat="45.4146983" lon="7.7514067"><ele>406.0</ele><time>2026-04-25T15:53:41.705Z</time></trkpt><trkpt lat="45.4146317" lon="7.7513333"><ele>406.0</ele><time>2026-04-25T15:53:42.705Z</time></trkpt><trkpt lat="45.4145717" lon="7.7512567"><ele>406.00000000000006</ele><time>2026-04-25T15:53:43.705Z</time></trkpt><trkpt lat="45.4145067" lon="7.75116"><ele>406.0</ele><time>2026-04-25T15:53:44.705Z</time></trkpt><trkpt lat="45.4144583" lon="7.7510733"><ele>406.1666666666667</ele><time>2026-04-25T15:53:45.705Z</time></trkpt><trkpt lat="45.414405" lon="7.7509983"><ele>406.33333333333337</ele><time>2026-04-25T15:53:46.705Z</time></trkpt><trkpt lat="45.4143383" lon="7.7509317"><ele>406.5</ele><time>2026-04-25T15:53:47.705Z</time></trkpt><trkpt lat="45.414275" lon="7.75086"><ele>406.66666666666663</ele><time>2026-04-25T15:53:48.705Z</time></trkpt><trkpt lat="45.4142233" lon="7.7508033"><ele>406.8333333333333</ele><time>2026-04-25T15:53:49.705Z</time></trkpt><trkpt lat="45.4141267" lon="7.7507117"><ele>407.0</ele><time>2026-04-25T15:53:51.705Z</time></trkpt><trkpt lat="45.4140267" lon="7.7507017"><ele>406.99999999999994</ele><time>2026-04-25T15:53:53.705Z</time></trkpt><trkpt lat="45.41396" lon="7.75071"><ele>407.0</ele><time>2026-04-25T15:53:54.705Z</time></trkpt><trkpt lat="45.4138917" lon="7.7507083"><ele>407.0</ele><time>2026-04-25T15:53:55.705Z</time></trkpt><trkpt lat="45.4138117" lon="7.7506967"><ele>407.0</ele><time>2026-04-25T15:53:56.705Z</time></trkpt><trkpt lat="45.413735" lon="7.75067"><ele>406.99999999999994</ele><time>2026-04-25T15:53:57.705Z</time></trkpt><trkpt lat="45.41366" lon="7.7506283"><ele>407.0</ele><time>2026-04-25T15:53:58.705Z</time></trkpt><trkpt lat="45.4135783" lon="7.7505683"><ele>406.66666666666663</ele><time>2026-04-25T15:53:59.705Z</time></trkpt><trkpt lat="45.4135067" lon="7.7505017"><ele>406.3333333333333</ele><time>2026-04-25T15:54:00.705Z</time></trkpt><trkpt lat="45.4134533" lon="7.750435"><ele>406.0</ele><time>2026-04-25T15:54:01.705Z</time></trkpt><trkpt lat="45.4134033" lon="7.7503567"><ele>405.66666666666663</ele><time>2026-04-25T15:54:02.705Z</time></trkpt><trkpt lat="45.4133417" lon="7.75028"><ele>405.3333333333333</ele><time>2026-04-25T15:54:03.705Z</time></trkpt><trkpt lat="45.4132733" lon="7.7502067"><ele>405.0</ele><time>2026-04-25T15:54:04.705Z</time></trkpt><trkpt lat="45.4132017" lon="7.75015"><ele>405.0</ele><time>2026-04-25T15:54:05.705Z</time></trkpt><trkpt lat="45.4130983" lon="7.75012"><ele>405.0</ele><time>2026-04-25T15:54:07.705Z</time></trkpt><trkpt lat="45.4130167" lon="7.7502467"><ele>405.0</ele><time>2026-04-25T15:54:09.705Z</time></trkpt><trkpt lat="45.4129867" lon="7.7503717"><ele>405.0</ele><time>2026-04-25T15:54:10.705Z</time></trkpt><trkpt lat="45.4129867" lon="7.7504933"><ele>405.0</ele><time>2026-04-25T15:54:11.705Z</time></trkpt><trkpt lat="45.413015" lon="7.75062"><ele>402.4</ele><time>2026-04-25T15:54:12.705Z</time></trkpt><trkpt lat="45.4130817" lon="7.75074"><ele>399.8</ele><time>2026-04-25T15:54:13.705Z</time></trkpt><trkpt lat="45.4131683" lon="7.7508233"><ele>397.20000000000005</ele><time>2026-04-25T15:54:14.705Z</time></trkpt><trkpt lat="45.413245" lon="7.75087"><ele>394.6</ele><time>2026-04-25T15:54:15.705Z</time></trkpt><trkpt lat="45.4133417" lon="7.7509183"><ele>392.0</ele><time>2026-04-25T15:54:17.705Z</time></trkpt><trkpt lat="45.413275" lon="7.75088"><ele>391.99999999999994</ele><time>2026-04-25T15:54:41.705Z</time></trkpt><trkpt lat="45.4131917" lon="7.7508167"><ele>392.0</ele><time>2026-04-25T15:54:42.705Z</time></trkpt><trkpt lat="45.4131133" lon="7.7507283"><ele>392.0</ele><time>2026-04-25T15:54:43.705Z</time></trkpt><trkpt lat="45.41306" lon="7.75064"><ele>392.0</ele><time>2026-04-25T15:54:44.705Z</time></trkpt><trkpt lat="45.4130267" lon="7.7505367"><ele>391.99999999999994</ele><time>2026-04-25T15:54:45.706Z</time></trkpt><trkpt lat="45.4130167" lon="7.75043"><ele>392.0</ele><time>2026-04-25T15:54:46.705Z</time></trkpt><trkpt lat="45.4130367" lon="7.750315"><ele>392.8333333333333</ele><time>2026-04-25T15:54:47.705Z</time></trkpt><trkpt lat="45.413075" lon="7.7501733"><ele>393.66666666666663</ele><time>2026-04-25T15:54:49.705Z</time></trkpt><trkpt lat="45.4130733" lon="7.75007"><ele>394.5</ele><time>2026-04-25T15:54:51.705Z</time></trkpt><trkpt lat="45.4130183" lon="7.7500083"><ele>395.33333333333337</ele><time>2026-04-25T15:54:53.706Z</time></trkpt><trkpt lat="45.4129183" lon="7.7500267"><ele>396.1666666666667</ele><time>2026-04-25T15:54:55.705Z</time></trkpt><trkpt lat="45.412855" lon="7.7500433"><ele>397.0</ele><time>2026-04-25T15:54:56.705Z</time></trkpt><trkpt lat="45.41274" lon="7.750065"><ele>397.0</ele><time>2026-04-25T15:54:58.705Z</time></trkpt><trkpt lat="45.412625" lon="7.7500917"><ele>397.0</ele><time>2026-04-25T15:55:00.705Z</time></trkpt><trkpt lat="45.4125067" lon="7.7501433"><ele>397.0</ele><time>2026-04-25T15:55:02.705Z</time></trkpt><trkpt lat="45.4124367" lon="7.750185"><ele>397.0</ele><time>2026-04-25T15:55:03.704Z</time></trkpt><trkpt lat="45.4123633" lon="7.7502333"><ele>397.0</ele><time>2026-04-25T15:55:04.704Z</time></trkpt><trkpt lat="45.4122867" lon="7.7502883"><ele>396.6666666666667</ele><time>2026-04-25T15:55:05.704Z</time></trkpt><trkpt lat="45.4122133" lon="7.7503367"><ele>396.33333333333337</ele><time>2026-04-25T15:55:06.704Z</time></trkpt><trkpt lat="45.4121467" lon="7.7503917"><ele>396.0</ele><time>2026-04-25T15:55:07.705Z</time></trkpt><trkpt lat="45.412085" lon="7.75045"><ele>395.66666666666663</ele><time>2026-04-25T15:55:08.704Z</time></trkpt><trkpt lat="45.41202" lon="7.750515"><ele>395.3333333333333</ele><time>2026-04-25T15:55:09.704Z</time></trkpt><trkpt lat="45.4119517" lon="7.7505783"><ele>395.0</ele><time>2026-04-25T15:55:10.704Z</time></trkpt><trkpt lat="45.4118683" lon="7.7506417"><ele>394.99999999999994</ele><time>2026-04-25T15:55:11.704Z</time></trkpt><trkpt lat="45.4118" lon="7.7506983"><ele>395.0</ele><time>2026-04-25T15:55:12.704Z</time></trkpt><trkpt lat="45.41173" lon="7.7507617"><ele>395.0</ele><time>2026-04-25T15:55:13.704Z</time></trkpt><trkpt lat="45.4116617" lon="7.7508217"><ele>395.0</ele><time>2026-04-25T15:55:14.704Z</time></trkpt><trkpt lat="45.4116" lon="7.7508817"><ele>394.99999999999994</ele><time>2026-04-25T15:55:15.704Z</time></trkpt><trkpt lat="45.4115333" lon="7.7509733"><ele>395.0</ele><time>2026-04-25T15:55:16.704Z</time></trkpt><trkpt lat="45.4114717" lon="7.75106"><ele>395.49999999999994</ele><time>2026-04-25T15:55:17.704Z</time></trkpt><trkpt lat="45.4114217" lon="7.75115"><ele>396.0</ele><time>2026-04-25T15:55:18.704Z</time></trkpt><trkpt lat="45.41137" lon="7.75125"><ele>396.5</ele><time>2026-04-25T15:55:19.704Z</time></trkpt><trkpt lat="45.4113217" lon="7.75135"><ele>397.0</ele><time>2026-04-25T15:55:20.704Z</time></trkpt><trkpt lat="45.4112733" lon="7.7514383"><ele>397.49999999999994</ele><time>2026-04-25T15:55:21.704Z</time></trkpt><trkpt lat="45.4112267" lon="7.7515133"><ele>398.0</ele><time>2026-04-25T15:55:22.704Z</time></trkpt><trkpt lat="45.4111767" lon="7.7515917"><ele>397.99999999999994</ele><time>2026-04-25T15:55:23.704Z</time></trkpt><trkpt lat="45.411125" lon="7.751665"><ele>398.0</ele><time>2026-04-25T15:55:24.705Z</time></trkpt><trkpt lat="45.4110767" lon="7.7517283"><ele>398.0</ele><time>2026-04-25T15:55:25.704Z</time></trkpt><trkpt lat="45.4109733" lon="7.7518483"><ele>398.0</ele><time>2026-04-25T15:55:27.704Z</time></trkpt><trkpt lat="45.4109233" lon="7.7519117"><ele>397.99999999999994</ele><time>2026-04-25T15:55:28.704Z</time></trkpt><trkpt lat="45.41085" lon="7.7519617"><ele>398.0</ele><time>2026-04-25T15:55:30.704Z</time></trkpt><trkpt lat="45.4107667" lon="7.751975"><ele>397.0</ele><time>2026-04-25T15:55:32.704Z</time></trkpt><trkpt lat="45.410655" lon="7.751955"><ele>396.0</ele><time>2026-04-25T15:55:34.704Z</time></trkpt><trkpt lat="45.410585" lon="7.7519367"><ele>395.0</ele><time>2026-04-25T15:55:35.704Z</time></trkpt><trkpt lat="45.4105167" lon="7.7519167"><ele>394.0</ele><time>2026-04-25T15:55:36.704Z</time></trkpt><trkpt lat="45.4104083" lon="7.7518983"><ele>393.0</ele><time>2026-04-25T15:55:38.704Z</time></trkpt><trkpt lat="45.4103283" lon="7.7519667"><ele>393.0</ele><time>2026-04-25T15:55:41.704Z</time></trkpt><trkpt lat="45.4102683" lon="7.7520367"><ele>393.0</ele><time>2026-04-25T15:55:43.704Z</time></trkpt><trkpt lat="45.4102133" lon="7.7520867"><ele>393.0</ele><time>2026-04-25T15:55:45.704Z</time></trkpt><trkpt lat="45.4101383" lon="7.7521233"><ele>393.0</ele><time>2026-04-25T15:55:47.704Z</time></trkpt><trkpt lat="45.4100283" lon="7.7521533"><ele>393.0</ele><time>2026-04-25T15:55:49.704Z</time></trkpt><trkpt lat="45.4099167" lon="7.75215"><ele>393.0</ele><time>2026-04-25T15:55:51.704Z</time></trkpt><trkpt lat="45.40984" lon="7.7521183"><ele>393.0</ele><time>2026-04-25T15:55:53.704Z</time></trkpt><trkpt lat="45.40977" lon="7.752165"><ele>393.0</ele><time>2026-04-25T15:55:56.704Z</time></trkpt><trkpt lat="45.4097417" lon="7.75232"><ele>393.0</ele><time>2026-04-25T15:55:58.704Z</time></trkpt><trkpt lat="45.4097317" lon="7.752455"><ele>393.0</ele><time>2026-04-25T15:55:59.704Z</time></trkpt><trkpt lat="45.4097317" lon="7.7526217"><ele>393.0</ele><time>2026-04-25T15:56:00.704Z</time></trkpt><trkpt lat="45.4097333" lon="7.752795"><ele>390.79999999999995</ele><time>2026-04-25T15:56:01.704Z</time></trkpt><trkpt lat="45.4097433" lon="7.7529333"><ele>388.6</ele><time>2026-04-25T15:56:02.704Z</time></trkpt><trkpt lat="45.4097533" lon="7.75303"><ele>386.4</ele><time>2026-04-25T15:56:03.704Z</time></trkpt><trkpt lat="45.4097767" lon="7.753115"><ele>384.20000000000005</ele><time>2026-04-25T15:56:07.704Z</time></trkpt><trkpt lat="45.409855" lon="7.7532483"><ele>382.0</ele><time>2026-04-25T15:56:10.704Z</time></trkpt><trkpt lat="45.4099217" lon="7.7533567"><ele>382.0</ele><time>2026-04-25T15:56:12.704Z</time></trkpt><trkpt lat="45.4099367" lon="7.7534683"><ele>382.0</ele><time>2026-04-25T15:56:15.704Z</time></trkpt><trkpt lat="45.4099" lon="7.753305"><ele>382.0</ele><time>2026-04-25T15:56:23.704Z</time></trkpt><trkpt lat="45.4098367" lon="7.75319"><ele>382.0</ele><time>2026-04-25T15:56:24.704Z</time></trkpt><trkpt lat="45.4097817" lon="7.7530667"><ele>382.0</ele><time>2026-04-25T15:56:25.704Z</time></trkpt><trkpt lat="45.4097533" lon="7.752925"><ele>382.0</ele><time>2026-04-25T15:56:26.705Z</time></trkpt><trkpt lat="45.4097367" lon="7.7527867"><ele>382.0</ele><time>2026-04-25T15:56:27.704Z</time></trkpt><trkpt lat="45.4097283" lon="7.7526567"><ele>382.0</ele><time>2026-04-25T15:56:28.704Z</time></trkpt><trkpt lat="45.4097167" lon="7.7525283"><ele>382.0</ele><time>2026-04-25T15:56:29.704Z</time></trkpt><trkpt lat="45.4097083" lon="7.75241"><ele>382.0</ele><time>2026-04-25T15:56:30.704Z</time></trkpt><trkpt lat="45.4097117" lon="7.7522817"><ele>383.8333333333333</ele><time>2026-04-25T15:56:32.704Z</time></trkpt><trkpt lat="45.4096133" lon="7.75228"><ele>385.66666666666663</ele><time>2026-04-25T15:56:36.704Z</time></trkpt><trkpt lat="45.4095533" lon="7.7523233"><ele>387.5</ele><time>2026-04-25T15:56:37.705Z</time></trkpt><trkpt lat="45.4094867" lon="7.752365"><ele>389.3333333333333</ele><time>2026-04-25T15:56:38.705Z</time></trkpt><trkpt lat="45.4094117" lon="7.7524017"><ele>391.1666666666667</ele><time>2026-04-25T15:56:39.704Z</time></trkpt><trkpt lat="45.4093483" lon="7.7524433"><ele>393.0</ele><time>2026-04-25T15:56:40.704Z</time></trkpt><trkpt lat="45.40928" lon="7.752495"><ele>393.0</ele><time>2026-04-25T15:56:41.704Z</time></trkpt><trkpt lat="45.4092133" lon="7.7525467"><ele>393.0</ele><time>2026-04-25T15:56:42.704Z</time></trkpt><trkpt lat="45.4091567" lon="7.7525983"><ele>393.0</ele><time>2026-04-25T15:56:43.704Z</time></trkpt><trkpt lat="45.4091033" lon="7.7526483"><ele>393.0</ele><time>2026-04-25T15:56:44.704Z</time></trkpt><trkpt lat="45.4089867" lon="7.7527167"><ele>393.0</ele><time>2026-04-25T15:56:46.704Z</time></trkpt><trkpt lat="45.4089217" lon="7.7527417"><ele>393.0</ele><time>2026-04-25T15:56:47.704Z</time></trkpt><trkpt lat="45.4088467" lon="7.7527517"><ele>392.79999999999995</ele><time>2026-04-25T15:56:48.704Z</time></trkpt><trkpt lat="45.4087633" lon="7.7527667"><ele>392.6</ele><time>2026-04-25T15:56:49.704Z</time></trkpt><trkpt lat="45.4086867" lon="7.7527783"><ele>392.4</ele><time>2026-04-25T15:56:50.704Z</time></trkpt><trkpt lat="45.4085683" lon="7.7528083"><ele>392.20000000000005</ele><time>2026-04-25T15:56:52.704Z</time></trkpt><trkpt lat="45.4084467" lon="7.7528533"><ele>392.0</ele><time>2026-04-25T15:56:54.704Z</time></trkpt><trkpt lat="45.4083717" lon="7.752885"><ele>391.99999999999994</ele><time>2026-04-25T15:56:55.704Z</time></trkpt><trkpt lat="45.4083017" lon="7.7529083"><ele>392.0</ele><time>2026-04-25T15:56:56.704Z</time></trkpt><trkpt lat="45.4082367" lon="7.7529267"><ele>392.0</ele><time>2026-04-25T15:56:57.704Z</time></trkpt><trkpt lat="45.4081267" lon="7.7529183"><ele>392.0</ele><time>2026-04-25T15:56:59.704Z</time></trkpt><trkpt lat="45.4080517" lon="7.7528917"><ele>391.99999999999994</ele><time>2026-04-25T15:57:00.704Z</time></trkpt><trkpt lat="45.4079717" lon="7.752855"><ele>392.0</ele><time>2026-04-25T15:57:01.704Z</time></trkpt><trkpt lat="45.4078917" lon="7.7528133"><ele>392.66666666666663</ele><time>2026-04-25T15:57:02.704Z</time></trkpt><trkpt lat="45.4078183" lon="7.75278"><ele>393.3333333333333</ele><time>2026-04-25T15:57:03.704Z</time></trkpt><trkpt lat="45.40774" lon="7.75274"><ele>394.0</ele><time>2026-04-25T15:57:04.704Z</time></trkpt><trkpt lat="45.40768" lon="7.7527117"><ele>394.66666666666663</ele><time>2026-04-25T15:57:05.704Z</time></trkpt><trkpt lat="45.4075567" lon="7.7527483"><ele>395.3333333333333</ele><time>2026-04-25T15:57:07.704Z</time></trkpt><trkpt lat="45.40749" lon="7.7527667"><ele>396.0</ele><time>2026-04-25T15:57:08.704Z</time></trkpt><trkpt lat="45.40737" lon="7.7528083"><ele>396.0</ele><time>2026-04-25T15:57:10.704Z</time></trkpt><trkpt lat="45.4072967" lon="7.7528567"><ele>396.0</ele><time>2026-04-25T15:57:12.704Z</time></trkpt><trkpt lat="45.40725" lon="7.7529367"><ele>396.0</ele><time>2026-04-25T15:57:14.704Z</time></trkpt><trkpt lat="45.407195" lon="7.753105"><ele>396.0</ele><time>2026-04-25T15:57:21.704Z</time></trkpt><trkpt lat="45.40718" lon="7.7532433"><ele>396.0</ele><time>2026-04-25T15:57:22.704Z</time></trkpt><trkpt lat="45.407155" lon="7.753405"><ele>397.75</ele><time>2026-04-25T15:57:23.704Z</time></trkpt><trkpt lat="45.4071267" lon="7.7535767"><ele>399.5</ele><time>2026-04-25T15:57:24.704Z</time></trkpt><trkpt lat="45.4070867" lon="7.7537483"><ele>401.25</ele><time>2026-04-25T15:57:25.704Z</time></trkpt><trkpt lat="45.407045" lon="7.75392"><ele>403.0</ele><time>2026-04-25T15:57:26.704Z</time></trkpt><trkpt lat="45.406995" lon="7.754095"><ele>403.0</ele><time>2026-04-25T15:57:27.704Z</time></trkpt><trkpt lat="45.40695" lon="7.7542833"><ele>403.0</ele><time>2026-04-25T15:57:28.704Z</time></trkpt><trkpt lat="45.4068983" lon="7.754475"><ele>403.0</ele><time>2026-04-25T15:57:29.704Z</time></trkpt><trkpt lat="45.4068533" lon="7.7546733"><ele>403.0</ele><time>2026-04-25T15:57:30.704Z</time></trkpt><trkpt lat="45.4068017" lon="7.7548683"><ele>403.25</ele><time>2026-04-25T15:57:31.704Z</time></trkpt><trkpt lat="45.40676" lon="7.755065"><ele>403.5</ele><time>2026-04-25T15:57:32.704Z</time></trkpt><trkpt lat="45.4067183" lon="7.7552517"><ele>403.75</ele><time>2026-04-25T15:57:33.704Z</time></trkpt><trkpt lat="45.406675" lon="7.7554367"><ele>404.0</ele><time>2026-04-25T15:57:34.704Z</time></trkpt><trkpt lat="45.406635" lon="7.755605"><ele>403.99999999999994</ele><time>2026-04-25T15:57:35.704Z</time></trkpt><trkpt lat="45.4066" lon="7.75576"><ele>404.0</ele><time>2026-04-25T15:57:36.704Z</time></trkpt><trkpt lat="45.406575" lon="7.75589"><ele>404.0</ele><time>2026-04-25T15:57:37.704Z</time></trkpt><trkpt lat="45.40655" lon="7.7559817"><ele>404.0</ele><time>2026-04-25T15:57:38.704Z</time></trkpt><trkpt lat="45.4064683" lon="7.7559983"><ele>403.99999999999994</ele><time>2026-04-25T15:57:41.704Z</time></trkpt><trkpt lat="45.4063867" lon="7.7560117"><ele>404.0</ele><time>2026-04-25T15:57:48.704Z</time></trkpt><trkpt lat="45.4063067" lon="7.7559817"><ele>406.6</ele><time>2026-04-25T15:57:51.704Z</time></trkpt><trkpt lat="45.40623" lon="7.7559767"><ele>409.2</ele><time>2026-04-25T15:57:53.704Z</time></trkpt><trkpt lat="45.406125" lon="7.7559917"><ele>411.8</ele><time>2026-04-25T15:57:55.704Z</time></trkpt><trkpt lat="45.40603" lon="7.7560117"><ele>414.40000000000003</ele><time>2026-04-25T15:57:57.704Z</time></trkpt><trkpt lat="45.4059033" lon="7.75607"><ele>417.0</ele><time>2026-04-25T15:57:59.704Z</time></trkpt><trkpt lat="45.405835" lon="7.75611"><ele>417.0</ele><time>2026-04-25T15:58:00.704Z</time></trkpt><trkpt lat="45.4057483" lon="7.7561717"><ele>417.0</ele><time>2026-04-25T15:58:01.704Z</time></trkpt><trkpt lat="45.4056667" lon="7.7562267"><ele>417.0</ele><time>2026-04-25T15:58:02.704Z</time></trkpt><trkpt lat="45.405595" lon="7.7562783"><ele>417.0</ele><time>2026-04-25T15:58:03.704Z</time></trkpt><trkpt lat="45.405535" lon="7.7563233"><ele>417.0</ele><time>2026-04-25T15:58:04.704Z</time></trkpt><trkpt lat="45.405465" lon="7.756375"><ele>417.0</ele><time>2026-04-25T15:58:05.704Z</time></trkpt><trkpt lat="45.40539" lon="7.756425"><ele>417.8</ele><time>2026-04-25T15:58:06.704Z</time></trkpt><trkpt lat="45.4052967" lon="7.7564633"><ele>418.6</ele><time>2026-04-25T15:58:07.704Z</time></trkpt><trkpt lat="45.405175" lon="7.756485"><ele>419.40000000000003</ele><time>2026-04-25T15:58:08.705Z</time></trkpt><trkpt lat="45.4050767" lon="7.756525"><ele>420.20000000000005</ele><time>2026-04-25T15:58:09.704Z</time></trkpt><trkpt lat="45.404975" lon="7.7565517"><ele>421.0</ele><time>2026-04-25T15:58:10.704Z</time></trkpt><trkpt lat="45.4048733" lon="7.7565833"><ele>421.0</ele><time>2026-04-25T15:58:11.704Z</time></trkpt><trkpt lat="45.4047667" lon="7.7566167"><ele>421.0</ele><time>2026-04-25T15:58:12.704Z</time></trkpt><trkpt lat="45.4046733" lon="7.75666"><ele>421.0</ele><time>2026-04-25T15:58:13.704Z</time></trkpt><trkpt lat="45.4045883" lon="7.7567067"><ele>421.0</ele><time>2026-04-25T15:58:14.704Z</time></trkpt><trkpt lat="45.40451" lon="7.7567433"><ele>421.0</ele><time>2026-04-25T15:58:15.704Z</time></trkpt><trkpt lat="45.4044367" lon="7.7567667"><ele>420.1666666666667</ele><time>2026-04-25T15:58:16.704Z</time></trkpt><trkpt lat="45.4043567" lon="7.756785"><ele>419.33333333333337</ele><time>2026-04-25T15:58:17.704Z</time></trkpt><trkpt lat="45.404275" lon="7.7567933"><ele>418.5</ele><time>2026-04-25T15:58:18.704Z</time></trkpt><trkpt lat="45.4041967" lon="7.7567983"><ele>417.66666666666663</ele><time>2026-04-25T15:58:19.704Z</time></trkpt><trkpt lat="45.40413" lon="7.7567883"><ele>416.8333333333333</ele><time>2026-04-25T15:58:20.705Z</time></trkpt><trkpt lat="45.4040117" lon="7.756715"><ele>416.0</ele><time>2026-04-25T15:58:22.704Z</time></trkpt><trkpt lat="45.4039367" lon="7.756645"><ele>416.0</ele><time>2026-04-25T15:58:23.704Z</time></trkpt><trkpt lat="45.4038667" lon="7.7565417"><ele>416.0</ele><time>2026-04-25T15:58:24.704Z</time></trkpt><trkpt lat="45.40379" lon="7.75644"><ele>416.0</ele><time>2026-04-25T15:58:25.704Z</time></trkpt><trkpt lat="45.4037233" lon="7.7563583"><ele>416.0</ele><time>2026-04-25T15:58:26.704Z</time></trkpt><trkpt lat="45.4036533" lon="7.7562933"><ele>416.0</ele><time>2026-04-25T15:58:27.704Z</time></trkpt><trkpt lat="45.40359" lon="7.7562383"><ele>416.49999999999994</ele><time>2026-04-25T15:58:28.704Z</time></trkpt><trkpt lat="45.4035267" lon="7.7562133"><ele>417.0</ele><time>2026-04-25T15:58:29.704Z</time></trkpt><trkpt lat="45.4034167" lon="7.756235"><ele>417.5</ele><time>2026-04-25T15:58:31.704Z</time></trkpt><trkpt lat="45.4033483" lon="7.7562583"><ele>418.0</ele><time>2026-04-25T15:58:32.704Z</time></trkpt><trkpt lat="45.4032783" lon="7.7562867"><ele>418.49999999999994</ele><time>2026-04-25T15:58:33.704Z</time></trkpt><trkpt lat="45.403215" lon="7.7563133"><ele>419.0</ele><time>2026-04-25T15:58:34.704Z</time></trkpt><trkpt lat="45.4030967" lon="7.7563417"><ele>418.79999999999995</ele><time>2026-04-25T15:58:36.704Z</time></trkpt><trkpt lat="45.4029733" lon="7.75634"><ele>418.59999999999997</ele><time>2026-04-25T15:58:38.704Z</time></trkpt><trkpt lat="45.4028917" lon="7.75632"><ele>418.4</ele><time>2026-04-25T15:58:39.704Z</time></trkpt><trkpt lat="45.4028" lon="7.7563017"><ele>418.2</ele><time>2026-04-25T15:58:40.704Z</time></trkpt><trkpt lat="45.4027083" lon="7.756275"><ele>418.0</ele><time>2026-04-25T15:58:41.704Z</time></trkpt><trkpt lat="45.4026233" lon="7.7562517"><ele>418.0</ele><time>2026-04-25T15:58:42.704Z</time></trkpt><trkpt lat="45.4025317" lon="7.75622"><ele>418.0</ele><time>2026-04-25T15:58:43.704Z</time></trkpt><trkpt lat="45.40243" lon="7.7561683"><ele>418.0</ele><time>2026-04-25T15:58:44.704Z</time></trkpt><trkpt lat="45.4023" lon="7.7560967"><ele>418.0</ele><time>2026-04-25T15:58:45.705Z</time></trkpt><trkpt lat="45.4021633" lon="7.756025"><ele>415.25</ele><time>2026-04-25T15:58:46.704Z</time></trkpt><trkpt lat="45.4020217" lon="7.7559467"><ele>412.5</ele><time>2026-04-25T15:58:47.704Z</time></trkpt><trkpt lat="45.4018983" lon="7.755875"><ele>409.75</ele><time>2026-04-25T15:58:48.704Z</time></trkpt><trkpt lat="45.40178" lon="7.7557967"><ele>407.0</ele><time>2026-04-25T15:58:49.704Z</time></trkpt><trkpt lat="45.401665" lon="7.7557317"><ele>407.0</ele><time>2026-04-25T15:58:50.704Z</time></trkpt><trkpt lat="45.4015517" lon="7.7556733"><ele>407.0</ele><time>2026-04-25T15:58:51.704Z</time></trkpt><trkpt lat="45.401435" lon="7.755605"><ele>407.0</ele><time>2026-04-25T15:58:52.704Z</time></trkpt><trkpt lat="45.401315" lon="7.7555033"><ele>407.0</ele><time>2026-04-25T15:58:53.704Z</time></trkpt><trkpt lat="45.40121" lon="7.75544"><ele>407.6</ele><time>2026-04-25T15:58:54.704Z</time></trkpt><trkpt lat="45.4011283" lon="7.75537"><ele>408.20000000000005</ele><time>2026-04-25T15:58:55.704Z</time></trkpt><trkpt lat="45.4010517" lon="7.7552917"><ele>408.8</ele><time>2026-04-25T15:58:56.704Z</time></trkpt><trkpt lat="45.4009717" lon="7.75522"><ele>409.4</ele><time>2026-04-25T15:58:57.704Z</time></trkpt><trkpt lat="45.400885" lon="7.75518"><ele>410.0</ele><time>2026-04-25T15:58:58.704Z</time></trkpt><trkpt lat="45.4008067" lon="7.7551567"><ele>408.0</ele><time>2026-04-25T15:58:59.704Z</time></trkpt><trkpt lat="45.40073" lon="7.7551517"><ele>406.0</ele><time>2026-04-25T15:59:00.704Z</time></trkpt><trkpt lat="45.4006067" lon="7.755165"><ele>404.0</ele><time>2026-04-25T15:59:02.704Z</time></trkpt><trkpt lat="45.4004883" lon="7.75521"><ele>402.0</ele><time>2026-04-25T15:59:04.704Z</time></trkpt><trkpt lat="45.40042" lon="7.75523"><ele>400.0</ele><time>2026-04-25T15:59:05.704Z</time></trkpt><trkpt lat="45.4003433" lon="7.75525"><ele>400.00000000000006</ele><time>2026-04-25T15:59:06.705Z</time></trkpt><trkpt lat="45.40026" lon="7.7552667"><ele>400.0</ele><time>2026-04-25T15:59:07.704Z</time></trkpt><trkpt lat="45.400175" lon="7.7552733"><ele>400.0</ele><time>2026-04-25T15:59:08.704Z</time></trkpt><trkpt lat="45.4000883" lon="7.7552817"><ele>400.0</ele><time>2026-04-25T15:59:09.704Z</time></trkpt><trkpt lat="45.40001" lon="7.7553083"><ele>400.00000000000006</ele><time>2026-04-25T15:59:10.704Z</time></trkpt><trkpt lat="45.3999233" lon="7.7553283"><ele>400.0</ele><time>2026-04-25T15:59:11.704Z</time></trkpt><trkpt lat="45.3998317" lon="7.7553467"><ele>400.0</ele><time>2026-04-25T15:59:12.704Z</time></trkpt><trkpt lat="45.3997283" lon="7.755365"><ele>400.0</ele><time>2026-04-25T15:59:13.704Z</time></trkpt><trkpt lat="45.39963" lon="7.755385"><ele>400.0</ele><time>2026-04-25T15:59:14.704Z</time></trkpt><trkpt lat="45.3995183" lon="7.75541"><ele>400.0</ele><time>2026-04-25T15:59:15.704Z</time></trkpt><trkpt lat="45.399405" lon="7.7554383"><ele>400.0</ele><time>2026-04-25T15:59:16.704Z</time></trkpt><trkpt lat="45.399275" lon="7.7554783"><ele>399.6</ele><time>2026-04-25T15:59:17.704Z</time></trkpt><trkpt lat="45.399155" lon="7.755515"><ele>399.2</ele><time>2026-04-25T15:59:18.704Z</time></trkpt><trkpt lat="45.39905" lon="7.75554"><ele>398.79999999999995</ele><time>2026-04-25T15:59:19.704Z</time></trkpt><trkpt lat="45.3989483" lon="7.755565"><ele>398.4</ele><time>2026-04-25T15:59:20.704Z</time></trkpt><trkpt lat="45.39884" lon="7.755595"><ele>398.0</ele><time>2026-04-25T15:59:21.705Z</time></trkpt><trkpt lat="45.39872" lon="7.7555883"><ele>399.2</ele><time>2026-04-25T15:59:22.704Z</time></trkpt><trkpt lat="45.3986033" lon="7.7555683"><ele>400.4</ele><time>2026-04-25T15:59:23.704Z</time></trkpt><trkpt lat="45.3985067" lon="7.7555367"><ele>401.59999999999997</ele><time>2026-04-25T15:59:24.704Z</time></trkpt><trkpt lat="45.39841" lon="7.7555017"><ele>402.79999999999995</ele><time>2026-04-25T15:59:25.704Z</time></trkpt><trkpt lat="45.398305" lon="7.7554617"><ele>404.0</ele><time>2026-04-25T15:59:26.703Z</time></trkpt><trkpt lat="45.3981917" lon="7.7554"><ele>404.0</ele><time>2026-04-25T15:59:27.704Z</time></trkpt><trkpt lat="45.39807" lon="7.7553383"><ele>404.0</ele><time>2026-04-25T15:59:28.704Z</time></trkpt><trkpt lat="45.3979433" lon="7.755285"><ele>404.0</ele><time>2026-04-25T15:59:29.705Z</time></trkpt><trkpt lat="45.3978117" lon="7.755225"><ele>404.0</ele><time>2026-04-25T15:59:30.704Z</time></trkpt><trkpt lat="45.3976967" lon="7.75519"><ele>403.4</ele><time>2026-04-25T15:59:31.704Z</time></trkpt><trkpt lat="45.397605" lon="7.7551783"><ele>402.79999999999995</ele><time>2026-04-25T15:59:32.704Z</time></trkpt><trkpt lat="45.3975133" lon="7.755225"><ele>402.20000000000005</ele><time>2026-04-25T15:59:34.704Z</time></trkpt><trkpt lat="45.3974233" lon="7.7553283"><ele>401.6</ele><time>2026-04-25T15:59:36.704Z</time></trkpt><trkpt lat="45.3973567" lon="7.7554117"><ele>401.0</ele><time>2026-04-25T15:59:37.704Z</time></trkpt><trkpt lat="45.39728" lon="7.7554917"><ele>401.0</ele><time>2026-04-25T15:59:38.704Z</time></trkpt><trkpt lat="45.39719" lon="7.7555583"><ele>401.0</ele><time>2026-04-25T15:59:39.704Z</time></trkpt><trkpt lat="45.3971" lon="7.7556333"><ele>401.0</ele><time>2026-04-25T15:59:40.704Z</time></trkpt><trkpt lat="45.3970083" lon="7.75569"><ele>401.0</ele><time>2026-04-25T15:59:41.704Z</time></trkpt><trkpt lat="45.3969317" lon="7.7557483"><ele>401.0</ele><time>2026-04-25T15:59:42.704Z</time></trkpt><trkpt lat="45.396855" lon="7.7558083"><ele>400.16666666666663</ele><time>2026-04-25T15:59:43.705Z</time></trkpt><trkpt lat="45.396785" lon="7.7558667"><ele>399.3333333333333</ele><time>2026-04-25T15:59:44.704Z</time></trkpt><trkpt lat="45.396705" lon="7.75592"><ele>398.5</ele><time>2026-04-25T15:59:45.704Z</time></trkpt><trkpt lat="45.396645" lon="7.75599"><ele>397.66666666666663</ele><time>2026-04-25T15:59:46.704Z</time></trkpt><trkpt lat="45.3965867" lon="7.7560883"><ele>396.8333333333333</ele><time>2026-04-25T15:59:47.704Z</time></trkpt><trkpt lat="45.3965467" lon="7.7561967"><ele>396.0</ele><time>2026-04-25T15:59:48.704Z</time></trkpt><trkpt lat="45.3965233" lon="7.75632"><ele>396.0</ele><time>2026-04-25T15:59:49.704Z</time></trkpt><trkpt lat="45.3964983" lon="7.75647"><ele>396.0</ele><time>2026-04-25T15:59:50.704Z</time></trkpt><trkpt lat="45.3964883" lon="7.7566617"><ele>396.0</ele><time>2026-04-25T15:59:51.704Z</time></trkpt><trkpt lat="45.3964783" lon="7.756855"><ele>396.0</ele><time>2026-04-25T15:59:52.704Z</time></trkpt><trkpt lat="45.3964667" lon="7.757015"><ele>396.0</ele><time>2026-04-25T15:59:53.704Z</time></trkpt><trkpt lat="45.39646" lon="7.7571583"><ele>396.0</ele><time>2026-04-25T15:59:54.704Z</time></trkpt><trkpt lat="45.396455" lon="7.7572767"><ele>396.0</ele><time>2026-04-25T15:59:55.704Z</time></trkpt><trkpt lat="45.3964517" lon="7.7573867"><ele>396.0</ele><time>2026-04-25T15:59:56.704Z</time></trkpt><trkpt lat="45.3964383" lon="7.75749"><ele>396.0</ele><time>2026-04-25T15:59:57.704Z</time></trkpt><trkpt lat="45.3964067" lon="7.75759"><ele>396.0</ele><time>2026-04-25T15:59:58.705Z</time></trkpt><trkpt lat="45.396365" lon="7.7576967"><ele>395.0</ele><time>2026-04-25T15:59:59.704Z</time></trkpt><trkpt lat="45.396325" lon="7.757805"><ele>394.0</ele><time>2026-04-25T16:00:00.704Z</time></trkpt><trkpt lat="45.3962883" lon="7.7579183"><ele>393.0</ele><time>2026-04-25T16:00:01.704Z</time></trkpt><trkpt lat="45.3962583" lon="7.7580283"><ele>392.0</ele><time>2026-04-25T16:00:02.704Z</time></trkpt><trkpt lat="45.3962233" lon="7.7581533"><ele>391.0</ele><time>2026-04-25T16:00:03.704Z</time></trkpt><trkpt lat="45.3962033" lon="7.7582733"><ele>390.0</ele><time>2026-04-25T16:00:04.704Z</time></trkpt><trkpt lat="45.3962017" lon="7.758395"><ele>390.0</ele><time>2026-04-25T16:00:05.704Z</time></trkpt><trkpt lat="45.3962033" lon="7.75851"><ele>390.0</ele><time>2026-04-25T16:00:06.704Z</time></trkpt><trkpt lat="45.3962" lon="7.75861"><ele>390.0</ele><time>2026-04-25T16:00:07.704Z</time></trkpt><trkpt lat="45.39615" lon="7.7587583"><ele>390.0</ele><time>2026-04-25T16:00:09.704Z</time></trkpt><trkpt lat="45.3960367" lon="7.7588283"><ele>390.0</ele><time>2026-04-25T16:00:11.704Z</time></trkpt><trkpt lat="45.395925" lon="7.7588283"><ele>390.0</ele><time>2026-04-25T16:00:12.704Z</time></trkpt><trkpt lat="45.3958117" lon="7.7588317"><ele>390.0</ele><time>2026-04-25T16:00:13.704Z</time></trkpt><trkpt lat="45.3957017" lon="7.7588283"><ele>390.0</ele><time>2026-04-25T16:00:14.704Z</time></trkpt><trkpt lat="45.3955933" lon="7.758845"><ele>390.0</ele><time>2026-04-25T16:00:15.704Z</time></trkpt><trkpt lat="45.3954767" lon="7.7588717"><ele>390.1666666666667</ele><time>2026-04-25T16:00:16.704Z</time></trkpt><trkpt lat="45.3953683" lon="7.7589217"><ele>390.33333333333337</ele><time>2026-04-25T16:00:17.704Z</time></trkpt><trkpt lat="45.3952683" lon="7.7589783"><ele>390.5</ele><time>2026-04-25T16:00:18.704Z</time></trkpt><trkpt lat="45.3951917" lon="7.75903"><ele>390.6666666666667</ele><time>2026-04-25T16:00:19.704Z</time></trkpt><trkpt lat="45.3951317" lon="7.7590933"><ele>390.83333333333337</ele><time>2026-04-25T16:00:21.704Z</time></trkpt><trkpt lat="45.3951683" lon="7.759175"><ele>391.0</ele><time>2026-04-25T16:00:26.704Z</time></trkpt><trkpt lat="45.3952083" lon="7.7592783"><ele>391.4</ele><time>2026-04-25T16:00:27.704Z</time></trkpt><trkpt lat="45.3952383" lon="7.759425"><ele>391.8</ele><time>2026-04-25T16:00:28.704Z</time></trkpt><trkpt lat="45.3952633" lon="7.75958"><ele>392.2</ele><time>2026-04-25T16:00:29.704Z</time></trkpt><trkpt lat="45.395285" lon="7.7597267"><ele>392.59999999999997</ele><time>2026-04-25T16:00:30.704Z</time></trkpt><trkpt lat="45.39531" lon="7.7598567"><ele>393.0</ele><time>2026-04-25T16:00:31.704Z</time></trkpt><trkpt lat="45.395325" lon="7.7599683"><ele>393.0</ele><time>2026-04-25T16:00:32.704Z</time></trkpt><trkpt lat="45.395345" lon="7.760075"><ele>393.0</ele><time>2026-04-25T16:00:33.704Z</time></trkpt><trkpt lat="45.3953633" lon="7.7601717"><ele>393.0</ele><time>2026-04-25T16:00:34.704Z</time></trkpt><trkpt lat="45.3953783" lon="7.76034"><ele>393.0</ele><time>2026-04-25T16:00:36.704Z</time></trkpt><trkpt lat="45.3953817" lon="7.76043"><ele>393.0</ele><time>2026-04-25T16:00:37.705Z</time></trkpt><trkpt lat="45.39538" lon="7.76053"><ele>393.0</ele><time>2026-04-25T16:00:38.704Z</time></trkpt><trkpt lat="45.39539" lon="7.76065"><ele>393.59999999999997</ele><time>2026-04-25T16:00:39.704Z</time></trkpt><trkpt lat="45.3954067" lon="7.76079"><ele>394.2</ele><time>2026-04-25T16:00:40.704Z</time></trkpt><trkpt lat="45.3954233" lon="7.76094"><ele>394.8</ele><time>2026-04-25T16:00:41.704Z</time></trkpt><trkpt lat="45.3954333" lon="7.7610783"><ele>395.4</ele><time>2026-04-25T16:00:42.704Z</time></trkpt><trkpt lat="45.3954333" lon="7.7611783"><ele>396.0</ele><time>2026-04-25T16:00:43.704Z</time></trkpt><trkpt lat="45.3954283" lon="7.761345"><ele>396.6666666666667</ele><time>2026-04-25T16:00:45.704Z</time></trkpt><trkpt lat="45.3953717" lon="7.761485"><ele>397.33333333333337</ele><time>2026-04-25T16:00:47.704Z</time></trkpt><trkpt lat="45.3952767" lon="7.76157"><ele>398.0</ele><time>2026-04-25T16:00:49.704Z</time></trkpt><trkpt lat="45.3952267" lon="7.7616267"><ele>398.6666666666667</ele><time>2026-04-25T16:00:50.704Z</time></trkpt><trkpt lat="45.3951733" lon="7.7616767"><ele>399.33333333333337</ele><time>2026-04-25T16:00:51.704Z</time></trkpt><trkpt lat="45.3951233" lon="7.761755"><ele>400.0</ele><time>2026-04-25T16:00:52.704Z</time></trkpt><trkpt lat="45.39507" lon="7.7618317"><ele>400.6666666666667</ele><time>2026-04-25T16:00:53.704Z</time></trkpt><trkpt lat="45.3950083" lon="7.7618883"><ele>401.33333333333337</ele><time>2026-04-25T16:00:54.704Z</time></trkpt><trkpt lat="45.394945" lon="7.76193"><ele>402.0</ele><time>2026-04-25T16:00:55.704Z</time></trkpt><trkpt lat="45.3948317" lon="7.7620133"><ele>402.66666666666663</ele><time>2026-04-25T16:00:57.704Z</time></trkpt><trkpt lat="45.39476" lon="7.7620417"><ele>403.3333333333333</ele><time>2026-04-25T16:00:58.704Z</time></trkpt><trkpt lat="45.394695" lon="7.7620617"><ele>404.0</ele><time>2026-04-25T16:00:59.704Z</time></trkpt><trkpt lat="45.3946117" lon="7.7620233"><ele>404.49999999999994</ele><time>2026-04-25T16:01:01.704Z</time></trkpt><trkpt lat="45.3945517" lon="7.7619283"><ele>405.0</ele><time>2026-04-25T16:01:03.703Z</time></trkpt><trkpt lat="45.3944383" lon="7.7618917"><ele>405.5</ele><time>2026-04-25T16:01:05.703Z</time></trkpt><trkpt lat="45.394365" lon="7.7618883"><ele>406.0</ele><time>2026-04-25T16:01:06.703Z</time></trkpt><trkpt lat="45.3943" lon="7.7618883"><ele>406.49999999999994</ele><time>2026-04-25T16:01:07.704Z</time></trkpt><trkpt lat="45.39421" lon="7.761885"><ele>407.0</ele><time>2026-04-25T16:01:09.703Z</time></trkpt><trkpt lat="45.3941733" lon="7.76196"><ele>407.0</ele><time>2026-04-25T16:01:11.704Z</time></trkpt><trkpt lat="45.3941267" lon="7.762085"><ele>407.0</ele><time>2026-04-25T16:01:13.703Z</time></trkpt><trkpt lat="45.3940883" lon="7.762185"><ele>407.0</ele><time>2026-04-25T16:01:14.703Z</time></trkpt><trkpt lat="45.394025" lon="7.762285"><ele>407.0</ele><time>2026-04-25T16:01:15.703Z</time></trkpt><trkpt lat="45.393945" lon="7.7624133"><ele>407.0</ele><time>2026-04-25T16:01:16.703Z</time></trkpt><trkpt lat="45.3938617" lon="7.7625517"><ele>408.75</ele><time>2026-04-25T16:01:17.703Z</time></trkpt><trkpt lat="45.3937817" lon="7.7627017"><ele>410.5</ele><time>2026-04-25T16:01:18.703Z</time></trkpt><trkpt lat="45.3936983" lon="7.7628367"><ele>412.25</ele><time>2026-04-25T16:01:19.703Z</time></trkpt><trkpt lat="45.39362" lon="7.7629767"><ele>414.0</ele><time>2026-04-25T16:01:20.703Z</time></trkpt><trkpt lat="45.3935417" lon="7.7631017"><ele>414.0</ele><time>2026-04-25T16:01:21.703Z</time></trkpt><trkpt lat="45.3934717" lon="7.7632133"><ele>414.0</ele><time>2026-04-25T16:01:22.703Z</time></trkpt><trkpt lat="45.3934067" lon="7.7633133"><ele>414.0</ele><time>2026-04-25T16:01:23.703Z</time></trkpt><trkpt lat="45.39335" lon="7.7634033"><ele>414.0</ele><time>2026-04-25T16:01:24.703Z</time></trkpt><trkpt lat="45.393295" lon="7.7634783"><ele>414.0</ele><time>2026-04-25T16:01:25.703Z</time></trkpt><trkpt lat="45.39323" lon="7.763535"><ele>414.0</ele><time>2026-04-25T16:01:26.703Z</time></trkpt><trkpt lat="45.393155" lon="7.76359"><ele>414.0</ele><time>2026-04-25T16:01:27.703Z</time></trkpt><trkpt lat="45.3930833" lon="7.7636267"><ele>414.0</ele><time>2026-04-25T16:01:28.703Z</time></trkpt><trkpt lat="45.39302" lon="7.7636583"><ele>414.0</ele><time>2026-04-25T16:01:29.703Z</time></trkpt><trkpt lat="45.3929317" lon="7.76373"><ele>414.0</ele><time>2026-04-25T16:01:31.703Z</time></trkpt><trkpt lat="45.392885" lon="7.763815"><ele>414.0</ele><time>2026-04-25T16:01:32.703Z</time></trkpt><trkpt lat="45.3928483" lon="7.76395"><ele>414.0</ele><time>2026-04-25T16:01:33.703Z</time></trkpt><trkpt lat="45.3928083" lon="7.7641067"><ele>413.6</ele><time>2026-04-25T16:01:34.703Z</time></trkpt><trkpt lat="45.3927517" lon="7.7642417"><ele>413.2</ele><time>2026-04-25T16:01:35.703Z</time></trkpt><trkpt lat="45.3926833" lon="7.7643283"><ele>412.8</ele><time>2026-04-25T16:01:36.703Z</time></trkpt><trkpt lat="45.3926083" lon="7.7643617"><ele>412.40000000000003</ele><time>2026-04-25T16:01:37.703Z</time></trkpt><trkpt lat="45.3925067" lon="7.7643633"><ele>412.0</ele><time>2026-04-25T16:01:38.703Z</time></trkpt><trkpt lat="45.3923883" lon="7.76435"><ele>412.0</ele><time>2026-04-25T16:01:39.703Z</time></trkpt><trkpt lat="45.39227" lon="7.7643417"><ele>412.0</ele><time>2026-04-25T16:01:40.703Z</time></trkpt><trkpt lat="45.392165" lon="7.764325"><ele>412.0</ele><time>2026-04-25T16:01:41.703Z</time></trkpt><trkpt lat="45.3920617" lon="7.764315"><ele>412.0</ele><time>2026-04-25T16:01:42.703Z</time></trkpt><trkpt lat="45.3919683" lon="7.7643033"><ele>412.0</ele><time>2026-04-25T16:01:43.703Z</time></trkpt><trkpt lat="45.3918833" lon="7.76428"><ele>411.50000000000006</ele><time>2026-04-25T16:01:44.703Z</time></trkpt><trkpt lat="45.3918" lon="7.764265"><ele>411.0</ele><time>2026-04-25T16:01:45.703Z</time></trkpt><trkpt lat="45.39172" lon="7.7642583"><ele>410.5</ele><time>2026-04-25T16:01:46.703Z</time></trkpt><trkpt lat="45.3916433" lon="7.7642633"><ele>410.0</ele><time>2026-04-25T16:01:47.703Z</time></trkpt><trkpt lat="45.3915733" lon="7.7642767"><ele>409.50000000000006</ele><time>2026-04-25T16:01:48.703Z</time></trkpt><trkpt lat="45.3914917" lon="7.7642967"><ele>409.0</ele><time>2026-04-25T16:01:49.703Z</time></trkpt><trkpt lat="45.39141" lon="7.76432"><ele>408.6</ele><time>2026-04-25T16:01:50.703Z</time></trkpt><trkpt lat="45.3913167" lon="7.7643567"><ele>408.2</ele><time>2026-04-25T16:01:51.703Z</time></trkpt><trkpt lat="45.3912217" lon="7.764385"><ele>407.8</ele><time>2026-04-25T16:01:52.703Z</time></trkpt><trkpt lat="45.39113" lon="7.7644183"><ele>407.40000000000003</ele><time>2026-04-25T16:01:53.703Z</time></trkpt><trkpt lat="45.3910317" lon="7.7644633"><ele>407.0</ele><time>2026-04-25T16:01:54.703Z</time></trkpt><trkpt lat="45.3909367" lon="7.7645017"><ele>406.66666666666663</ele><time>2026-04-25T16:01:55.703Z</time></trkpt><trkpt lat="45.3908517" lon="7.7645367"><ele>406.3333333333333</ele><time>2026-04-25T16:01:56.703Z</time></trkpt><trkpt lat="45.3907633" lon="7.76455"><ele>406.0</ele><time>2026-04-25T16:01:57.703Z</time></trkpt><trkpt lat="45.3906767" lon="7.764565"><ele>405.66666666666663</ele><time>2026-04-25T16:01:58.703Z</time></trkpt><trkpt lat="45.3905983" lon="7.7645583"><ele>405.3333333333333</ele><time>2026-04-25T16:01:59.703Z</time></trkpt><trkpt lat="45.39053" lon="7.7645283"><ele>405.0</ele><time>2026-04-25T16:02:00.703Z</time></trkpt><trkpt lat="45.390445" lon="7.76445"><ele>405.0</ele><time>2026-04-25T16:02:01.703Z</time></trkpt><trkpt lat="45.390385" lon="7.7643717"><ele>405.0</ele><time>2026-04-25T16:02:02.703Z</time></trkpt><trkpt lat="45.3903283" lon="7.764255"><ele>405.0</ele><time>2026-04-25T16:02:03.703Z</time></trkpt><trkpt lat="45.39029" lon="7.7641083"><ele>405.0</ele><time>2026-04-25T16:02:04.703Z</time></trkpt><trkpt lat="45.39026" lon="7.7639583"><ele>405.0</ele><time>2026-04-25T16:02:05.703Z</time></trkpt><trkpt lat="45.3902383" lon="7.763825"><ele>405.0</ele><time>2026-04-25T16:02:06.703Z</time></trkpt><trkpt lat="45.39023" lon="7.7637217"><ele>405.0</ele><time>2026-04-25T16:02:07.703Z</time></trkpt><trkpt lat="45.3901883" lon="7.7635617"><ele>405.0</ele><time>2026-04-25T16:02:09.703Z</time></trkpt><trkpt lat="45.3901333" lon="7.76348"><ele>405.0</ele><time>2026-04-25T16:02:10.703Z</time></trkpt><trkpt lat="45.3900683" lon="7.7633917"><ele>405.0</ele><time>2026-04-25T16:02:11.703Z</time></trkpt><trkpt lat="45.3899983" lon="7.7633083"><ele>405.0</ele><time>2026-04-25T16:02:12.703Z</time></trkpt><trkpt lat="45.3899217" lon="7.76324"><ele>405.0</ele><time>2026-04-25T16:02:13.703Z</time></trkpt><trkpt lat="45.38984" lon="7.7632333"><ele>405.0</ele><time>2026-04-25T16:02:14.703Z</time></trkpt><trkpt lat="45.38977" lon="7.7632533"><ele>405.0</ele><time>2026-04-25T16:02:15.703Z</time></trkpt><trkpt lat="45.3896917" lon="7.7632867"><ele>405.0</ele><time>2026-04-25T16:02:17.703Z</time></trkpt><trkpt lat="45.3896383" lon="7.763335"><ele>405.0</ele><time>2026-04-25T16:02:19.703Z</time></trkpt><trkpt lat="45.389535" lon="7.7634383"><ele>405.4285714285714</ele><time>2026-04-25T16:02:21.703Z</time></trkpt><trkpt lat="45.3894883" lon="7.763505"><ele>405.85714285714283</ele><time>2026-04-25T16:02:22.703Z</time></trkpt><trkpt lat="45.3894433" lon="7.7635833"><ele>406.2857142857143</ele><time>2026-04-25T16:02:23.703Z</time></trkpt><trkpt lat="45.3894" lon="7.763655"><ele>406.71428571428567</ele><time>2026-04-25T16:02:24.703Z</time></trkpt><trkpt lat="45.38936" lon="7.7637267"><ele>407.14285714285717</ele><time>2026-04-25T16:02:25.703Z</time></trkpt><trkpt lat="45.3893067" lon="7.7637833"><ele>407.57142857142856</ele><time>2026-04-25T16:02:26.703Z</time></trkpt><trkpt lat="45.3892533" lon="7.7638383"><ele>408.0</ele><time>2026-04-25T16:02:27.703Z</time></trkpt><trkpt lat="45.389155" lon="7.7639517"><ele>407.0</ele><time>2026-04-25T16:02:29.703Z</time></trkpt><trkpt lat="45.38908" lon="7.7640617"><ele>406.0</ele><time>2026-04-25T16:02:31.703Z</time></trkpt><trkpt lat="45.3890333" lon="7.764225"><ele>405.0</ele><time>2026-04-25T16:02:33.703Z</time></trkpt><trkpt lat="45.3890283" lon="7.7643333"><ele>404.0</ele><time>2026-04-25T16:02:34.703Z</time></trkpt><trkpt lat="45.3890317" lon="7.764445"><ele>403.0</ele><time>2026-04-25T16:02:35.703Z</time></trkpt><trkpt lat="45.3890483" lon="7.7645783"><ele>403.00000000000006</ele><time>2026-04-25T16:02:36.703Z</time></trkpt><trkpt lat="45.3890783" lon="7.7647033"><ele>403.0</ele><time>2026-04-25T16:02:37.703Z</time></trkpt><trkpt lat="45.3891067" lon="7.7648317"><ele>403.0</ele><time>2026-04-25T16:02:38.703Z</time></trkpt><trkpt lat="45.3891317" lon="7.7649517"><ele>403.0</ele><time>2026-04-25T16:02:39.703Z</time></trkpt><trkpt lat="45.3891483" lon="7.765065"><ele>403.00000000000006</ele><time>2026-04-25T16:02:40.703Z</time></trkpt><trkpt lat="45.3891667" lon="7.7651767"><ele>403.0</ele><time>2026-04-25T16:02:41.703Z</time></trkpt><trkpt lat="45.3891733" lon="7.7653017"><ele>403.33333333333337</ele><time>2026-04-25T16:02:42.703Z</time></trkpt><trkpt lat="45.389165" lon="7.76542"><ele>403.6666666666667</ele><time>2026-04-25T16:02:43.703Z</time></trkpt><trkpt lat="45.3891517" lon="7.7655517"><ele>404.0</ele><time>2026-04-25T16:02:44.703Z</time></trkpt><trkpt lat="45.3891217" lon="7.76568"><ele>404.33333333333337</ele><time>2026-04-25T16:02:45.703Z</time></trkpt><trkpt lat="45.3890817" lon="7.76579"><ele>404.6666666666667</ele><time>2026-04-25T16:02:46.703Z</time></trkpt><trkpt lat="45.3890333" lon="7.7658867"><ele>405.0</ele><time>2026-04-25T16:02:47.703Z</time></trkpt><trkpt lat="45.3889783" lon="7.7659917"><ele>405.5</ele><time>2026-04-25T16:02:48.703Z</time></trkpt><trkpt lat="45.388925" lon="7.7660817"><ele>406.0</ele><time>2026-04-25T16:02:49.703Z</time></trkpt><trkpt lat="45.38887" lon="7.7661783"><ele>406.5</ele><time>2026-04-25T16:02:50.703Z</time></trkpt><trkpt lat="45.38882" lon="7.7662783"><ele>407.0</ele><time>2026-04-25T16:02:51.703Z</time></trkpt><trkpt lat="45.3887783" lon="7.7663783"><ele>407.5</ele><time>2026-04-25T16:02:52.703Z</time></trkpt><trkpt lat="45.3887417" lon="7.76648"><ele>408.0</ele><time>2026-04-25T16:02:53.703Z</time></trkpt><trkpt lat="45.38871" lon="7.7665867"><ele>409.8333333333333</ele><time>2026-04-25T16:02:54.703Z</time></trkpt><trkpt lat="45.388685" lon="7.7666883"><ele>411.66666666666663</ele><time>2026-04-25T16:02:55.703Z</time></trkpt><trkpt lat="45.3886517" lon="7.7667783"><ele>413.5</ele><time>2026-04-25T16:02:56.703Z</time></trkpt><trkpt lat="45.388585" lon="7.76694"><ele>415.3333333333333</ele><time>2026-04-25T16:02:58.703Z</time></trkpt><trkpt lat="45.3885483" lon="7.7670267"><ele>417.16666666666663</ele><time>2026-04-25T16:02:59.703Z</time></trkpt><trkpt lat="45.388505" lon="7.7671383"><ele>419.0</ele><time>2026-04-25T16:03:00.703Z</time></trkpt><trkpt lat="45.3884717" lon="7.7672483"><ele>419.0</ele><time>2026-04-25T16:03:01.703Z</time></trkpt><trkpt lat="45.388435" lon="7.7673717"><ele>419.0</ele><time>2026-04-25T16:03:02.703Z</time></trkpt><trkpt lat="45.3884117" lon="7.7674983"><ele>419.0</ele><time>2026-04-25T16:03:03.703Z</time></trkpt><trkpt lat="45.3883933" lon="7.7676283"><ele>419.0</ele><time>2026-04-25T16:03:04.703Z</time></trkpt><trkpt lat="45.3883733" lon="7.767755"><ele>419.0</ele><time>2026-04-25T16:03:05.703Z</time></trkpt><trkpt lat="45.3883383" lon="7.7678817"><ele>419.0</ele><time>2026-04-25T16:03:06.704Z</time></trkpt><trkpt lat="45.3883083" lon="7.7680167"><ele>419.0</ele><time>2026-04-25T16:03:07.703Z</time></trkpt><trkpt lat="45.3882817" lon="7.7681483"><ele>419.0</ele><time>2026-04-25T16:03:08.704Z</time></trkpt><trkpt lat="45.3882467" lon="7.7682733"><ele>419.0</ele><time>2026-04-25T16:03:09.703Z</time></trkpt><trkpt lat="45.3882133" lon="7.7684067"><ele>419.0</ele><time>2026-04-25T16:03:10.703Z</time></trkpt><trkpt lat="45.388185" lon="7.7685483"><ele>418.6</ele><time>2026-04-25T16:03:11.703Z</time></trkpt><trkpt lat="45.3881517" lon="7.7686733"><ele>418.2</ele><time>2026-04-25T16:03:12.703Z</time></trkpt><trkpt lat="45.3881283" lon="7.7687867"><ele>417.8</ele><time>2026-04-25T16:03:13.703Z</time></trkpt><trkpt lat="45.3881033" lon="7.7688983"><ele>417.40000000000003</ele><time>2026-04-25T16:03:14.703Z</time></trkpt><trkpt lat="45.3880767" lon="7.7690283"><ele>417.0</ele><time>2026-04-25T16:03:15.703Z</time></trkpt><trkpt lat="45.3880533" lon="7.76916"><ele>417.0</ele><time>2026-04-25T16:03:16.703Z</time></trkpt><trkpt lat="45.3880267" lon="7.769285"><ele>417.0</ele><time>2026-04-25T16:03:17.703Z</time></trkpt><trkpt lat="45.3880017" lon="7.7694117"><ele>417.0</ele><time>2026-04-25T16:03:18.703Z</time></trkpt><trkpt lat="45.3879833" lon="7.7695433"><ele>417.0</ele><time>2026-04-25T16:03:19.703Z</time></trkpt><trkpt lat="45.3879633" lon="7.7696617"><ele>417.0</ele><time>2026-04-25T16:03:20.703Z</time></trkpt><trkpt lat="45.387935" lon="7.7697867"><ele>419.6</ele><time>2026-04-25T16:03:21.703Z</time></trkpt><trkpt lat="45.3879167" lon="7.769915"><ele>422.20000000000005</ele><time>2026-04-25T16:03:22.703Z</time></trkpt><trkpt lat="45.387915" lon="7.7700583"><ele>424.8</ele><time>2026-04-25T16:03:23.703Z</time></trkpt><trkpt lat="45.3879283" lon="7.770205"><ele>427.4</ele><time>2026-04-25T16:03:24.703Z</time></trkpt><trkpt lat="45.3879517" lon="7.77034"><ele>430.0</ele><time>2026-04-25T16:03:25.703Z</time></trkpt><trkpt lat="45.3879783" lon="7.7704617"><ele>429.33333333333337</ele><time>2026-04-25T16:03:26.703Z</time></trkpt><trkpt lat="45.3880067" lon="7.7705783"><ele>428.6666666666667</ele><time>2026-04-25T16:03:27.703Z</time></trkpt><trkpt lat="45.3880433" lon="7.770685"><ele>428.0</ele><time>2026-04-25T16:03:28.703Z</time></trkpt><trkpt lat="45.388075" lon="7.770765"><ele>427.33333333333337</ele><time>2026-04-25T16:03:29.703Z</time></trkpt><trkpt lat="45.3881333" lon="7.7708717"><ele>426.6666666666667</ele><time>2026-04-25T16:03:31.703Z</time></trkpt><trkpt lat="45.3881817" lon="7.77098"><ele>426.0</ele><time>2026-04-25T16:03:34.703Z</time></trkpt><trkpt lat="45.3882033" lon="7.7710767"><ele>426.0</ele><time>2026-04-25T16:03:37.703Z</time></trkpt><trkpt lat="45.3882283" lon="7.7711683"><ele>426.0</ele><time>2026-04-25T16:03:39.703Z</time></trkpt><trkpt lat="45.388255" lon="7.7712583"><ele>426.0</ele><time>2026-04-25T16:03:41.703Z</time></trkpt><trkpt lat="45.3882833" lon="7.7713583"><ele>426.0</ele><time>2026-04-25T16:03:43.703Z</time></trkpt><trkpt lat="45.3883267" lon="7.7714933"><ele>426.0</ele><time>2026-04-25T16:03:45.703Z</time></trkpt><trkpt lat="45.388355" lon="7.7715817"><ele>426.0</ele><time>2026-04-25T16:03:46.703Z</time></trkpt><trkpt lat="45.3883867" lon="7.7716617"><ele>426.0</ele><time>2026-04-25T16:03:47.703Z</time></trkpt><trkpt lat="45.388465" lon="7.7717833"><ele>426.0</ele><time>2026-04-25T16:03:49.703Z</time></trkpt><trkpt lat="45.38852" lon="7.7718617"><ele>426.0</ele><time>2026-04-25T16:03:50.703Z</time></trkpt><trkpt lat="45.3885583" lon="7.7719333"><ele>426.0</ele><time>2026-04-25T16:03:51.703Z</time></trkpt><trkpt lat="45.388585" lon="7.7720217"><ele>426.0</ele><time>2026-04-25T16:03:52.703Z</time></trkpt><trkpt lat="45.3886" lon="7.7721683"><ele>426.0</ele><time>2026-04-25T16:03:54.703Z</time></trkpt><trkpt lat="45.3885633" lon="7.77226"><ele>426.8</ele><time>2026-04-25T16:03:56.703Z</time></trkpt><trkpt lat="45.3884667" lon="7.7723833"><ele>427.6</ele><time>2026-04-25T16:03:58.703Z</time></trkpt><trkpt lat="45.388395" lon="7.772455"><ele>428.4</ele><time>2026-04-25T16:03:59.703Z</time></trkpt><trkpt lat="45.3883167" lon="7.7725417"><ele>429.2</ele><time>2026-04-25T16:04:00.703Z</time></trkpt><trkpt lat="45.3882483" lon="7.7726267"><ele>430.0</ele><time>2026-04-25T16:04:01.703Z</time></trkpt><trkpt lat="45.388185" lon="7.7727067"><ele>430.2</ele><time>2026-04-25T16:04:02.703Z</time></trkpt><trkpt lat="45.3881267" lon="7.77278"><ele>430.4</ele><time>2026-04-25T16:04:03.703Z</time></trkpt><trkpt lat="45.3880633" lon="7.7729033"><ele>430.6</ele><time>2026-04-25T16:04:05.703Z</time></trkpt><trkpt lat="45.3880367" lon="7.7730583"><ele>430.8</ele><time>2026-04-25T16:04:07.703Z</time></trkpt><trkpt lat="45.3880233" lon="7.7731533"><ele>431.0</ele><time>2026-04-25T16:04:08.703Z</time></trkpt><trkpt lat="45.387985" lon="7.7733317"><ele>430.99999999999994</ele><time>2026-04-25T16:04:10.703Z</time></trkpt><trkpt lat="45.3879483" lon="7.7734217"><ele>431.0</ele><time>2026-04-25T16:04:11.703Z</time></trkpt><trkpt lat="45.3878933" lon="7.7735217"><ele>431.0</ele><time>2026-04-25T16:04:12.703Z</time></trkpt><trkpt lat="45.3878333" lon="7.7736133"><ele>431.0</ele><time>2026-04-25T16:04:13.703Z</time></trkpt><trkpt lat="45.3877783" lon="7.7736917"><ele>430.99999999999994</ele><time>2026-04-25T16:04:14.703Z</time></trkpt><trkpt lat="45.3877317" lon="7.7737567"><ele>431.0</ele><time>2026-04-25T16:04:15.703Z</time></trkpt><trkpt lat="45.3876617" lon="7.7738833"><ele>431.3333333333333</ele><time>2026-04-25T16:04:17.703Z</time></trkpt><trkpt lat="45.38762" lon="7.7739567"><ele>431.66666666666663</ele><time>2026-04-25T16:04:18.703Z</time></trkpt><trkpt lat="45.3875383" lon="7.7740433"><ele>432.0</ele><time>2026-04-25T16:04:20.703Z</time></trkpt><trkpt lat="45.3874333" lon="7.7740933"><ele>432.33333333333337</ele><time>2026-04-25T16:04:22.703Z</time></trkpt><trkpt lat="45.3873617" lon="7.7740917"><ele>432.6666666666667</ele><time>2026-04-25T16:04:23.703Z</time></trkpt><trkpt lat="45.3872883" lon="7.7740883"><ele>433.0</ele><time>2026-04-25T16:04:24.703Z</time></trkpt><trkpt lat="45.3872117" lon="7.7740667"><ele>432.6666666666667</ele><time>2026-04-25T16:04:25.703Z</time></trkpt><trkpt lat="45.3871383" lon="7.7740567"><ele>432.33333333333337</ele><time>2026-04-25T16:04:26.703Z</time></trkpt><trkpt lat="45.3870733" lon="7.77405"><ele>432.0</ele><time>2026-04-25T16:04:27.703Z</time></trkpt><trkpt lat="45.3869883" lon="7.7740817"><ele>431.66666666666663</ele><time>2026-04-25T16:04:29.703Z</time></trkpt><trkpt lat="45.3869367" lon="7.774175"><ele>431.3333333333333</ele><time>2026-04-25T16:04:32.703Z</time></trkpt><trkpt lat="45.3869083" lon="7.7742967"><ele>431.0</ele><time>2026-04-25T16:04:34.703Z</time></trkpt><trkpt lat="45.3868817" lon="7.7744683"><ele>431.0</ele><time>2026-04-25T16:04:36.703Z</time></trkpt><trkpt lat="45.3868617" lon="7.774585"><ele>431.0</ele><time>2026-04-25T16:04:38.703Z</time></trkpt><trkpt lat="45.3868733" lon="7.7744567"><ele>431.0</ele><time>2026-04-25T16:05:13.703Z</time></trkpt><trkpt lat="45.3868917" lon="7.77433"><ele>431.0</ele><time>2026-04-25T16:05:30.704Z</time></trkpt><trkpt lat="45.386845" lon="7.7742317"><ele>431.0</ele><time>2026-04-25T16:05:33.703Z</time></trkpt><trkpt lat="45.3867433" lon="7.7741967"><ele>431.16666666666663</ele><time>2026-04-25T16:05:35.703Z</time></trkpt><trkpt lat="45.3866233" lon="7.7741667"><ele>431.3333333333333</ele><time>2026-04-25T16:05:37.703Z</time></trkpt><trkpt lat="45.3865567" lon="7.774145"><ele>431.5</ele><time>2026-04-25T16:05:38.703Z</time></trkpt><trkpt lat="45.38649" lon="7.774125"><ele>431.66666666666663</ele><time>2026-04-25T16:05:39.703Z</time></trkpt><trkpt lat="45.3864233" lon="7.7741033"><ele>431.8333333333333</ele><time>2026-04-25T16:05:40.703Z</time></trkpt><trkpt lat="45.386355" lon="7.77407"><ele>432.0</ele><time>2026-04-25T16:05:41.703Z</time></trkpt><trkpt lat="45.3862867" lon="7.7740383"><ele>432.0</ele><time>2026-04-25T16:05:42.703Z</time></trkpt><trkpt lat="45.386215" lon="7.774015"><ele>432.0</ele><time>2026-04-25T16:05:43.703Z</time></trkpt><trkpt lat="45.3861" lon="7.7739867"><ele>432.0</ele><time>2026-04-25T16:05:45.703Z</time></trkpt><trkpt lat="45.3860217" lon="7.7739533"><ele>432.0</ele><time>2026-04-25T16:05:47.703Z</time></trkpt><trkpt lat="45.3859483" lon="7.774015"><ele>432.0</ele><time>2026-04-25T16:05:50.703Z</time></trkpt><trkpt lat="45.3858833" lon="7.774095"><ele>432.0</ele><time>2026-04-25T16:05:52.703Z</time></trkpt><trkpt lat="45.3858067" lon="7.77414"><ele>432.0</ele><time>2026-04-25T16:05:54.703Z</time></trkpt><trkpt lat="45.3857133" lon="7.7741767"><ele>432.0</ele><time>2026-04-25T16:05:56.703Z</time></trkpt><trkpt lat="45.3856517" lon="7.7742333"><ele>432.0</ele><time>2026-04-25T16:05:58.703Z</time></trkpt><trkpt lat="45.3856017" lon="7.7743483"><ele>432.0</ele><time>2026-04-25T16:06:00.704Z</time></trkpt><trkpt lat="45.3855783" lon="7.7744317"><ele>432.0</ele><time>2026-04-25T16:06:01.703Z</time></trkpt><trkpt lat="45.385555" lon="7.77452"><ele>432.0</ele><time>2026-04-25T16:06:02.703Z</time></trkpt><trkpt lat="45.38551" lon="7.7746733"><ele>434.20000000000005</ele><time>2026-04-25T16:06:04.703Z</time></trkpt><trkpt lat="45.3854767" lon="7.774795"><ele>436.40000000000003</ele><time>2026-04-25T16:06:06.703Z</time></trkpt><trkpt lat="45.3854167" lon="7.7749283"><ele>438.59999999999997</ele><time>2026-04-25T16:06:08.703Z</time></trkpt><trkpt lat="45.3853483" lon="7.77506"><ele>440.79999999999995</ele><time>2026-04-25T16:06:10.703Z</time></trkpt><trkpt lat="45.38531" lon="7.7752033"><ele>443.0</ele><time>2026-04-25T16:06:12.703Z</time></trkpt><trkpt lat="45.3852767" lon="7.7753817"><ele>444.2</ele><time>2026-04-25T16:06:14.703Z</time></trkpt><trkpt lat="45.3852533" lon="7.7754733"><ele>445.4</ele><time>2026-04-25T16:06:15.704Z</time></trkpt><trkpt lat="45.3852067" lon="7.775625"><ele>446.59999999999997</ele><time>2026-04-25T16:06:17.703Z</time></trkpt><trkpt lat="45.38516" lon="7.7757433"><ele>447.79999999999995</ele><time>2026-04-25T16:06:19.703Z</time></trkpt><trkpt lat="45.38514" lon="7.7758583"><ele>449.0</ele><time>2026-04-25T16:06:21.703Z</time></trkpt><trkpt lat="45.3851283" lon="7.7759983"><ele>448.6</ele><time>2026-04-25T16:06:23.703Z</time></trkpt><trkpt lat="45.3851" lon="7.7761667"><ele>448.2</ele><time>2026-04-25T16:06:25.703Z</time></trkpt><trkpt lat="45.38507" lon="7.776315"><ele>447.80000000000007</ele><time>2026-04-25T16:06:27.703Z</time></trkpt><trkpt lat="45.38505" lon="7.7764217"><ele>447.40000000000003</ele><time>2026-04-25T16:06:29.703Z</time></trkpt><trkpt lat="45.385015" lon="7.77655"><ele>447.0</ele><time>2026-04-25T16:06:32.703Z</time></trkpt><trkpt lat="45.3849733" lon="7.7766833"><ele>446.99999999999994</ele><time>2026-04-25T16:06:34.703Z</time></trkpt><trkpt lat="45.3849467" lon="7.77677"><ele>447.0</ele><time>2026-04-25T16:06:35.703Z</time></trkpt><trkpt lat="45.3849233" lon="7.7768617"><ele>447.0</ele><time>2026-04-25T16:06:36.703Z</time></trkpt><trkpt lat="45.3849067" lon="7.7769567"><ele>447.0</ele><time>2026-04-25T16:06:37.703Z</time></trkpt><trkpt lat="45.3848967" lon="7.77706"><ele>447.0</ele><time>2026-04-25T16:06:38.703Z</time></trkpt><trkpt lat="45.3848833" lon="7.7771683"><ele>446.99999999999994</ele><time>2026-04-25T16:06:39.703Z</time></trkpt><trkpt lat="45.3848667" lon="7.7772733"><ele>447.0</ele><time>2026-04-25T16:06:40.703Z</time></trkpt><trkpt lat="45.3848467" lon="7.7773583"><ele>447.0</ele><time>2026-04-25T16:06:41.703Z</time></trkpt><trkpt lat="45.38482" lon="7.7775"><ele>447.00000000000006</ele><time>2026-04-25T16:06:43.703Z</time></trkpt><trkpt lat="45.3847833" lon="7.777665"><ele>447.00000000000006</ele><time>2026-04-25T16:06:45.703Z</time></trkpt><trkpt lat="45.3847567" lon="7.7777533"><ele>447.0</ele><time>2026-04-25T16:06:46.703Z</time></trkpt><trkpt lat="45.384735" lon="7.77784"><ele>447.0</ele><time>2026-04-25T16:06:47.703Z</time></trkpt><trkpt lat="45.3847017" lon="7.7779733"><ele>447.0</ele><time>2026-04-25T16:06:49.703Z</time></trkpt><trkpt lat="45.3846967" lon="7.77807"><ele>447.0</ele><time>2026-04-25T16:06:51.703Z</time></trkpt><trkpt lat="45.38466" lon="7.77818"><ele>447.0</ele><time>2026-04-25T16:06:53.703Z</time></trkpt><trkpt lat="45.3846017" lon="7.7783183"><ele>447.0</ele><time>2026-04-25T16:06:55.703Z</time></trkpt><trkpt lat="45.3845683" lon="7.7784083"><ele>447.0</ele><time>2026-04-25T16:06:56.703Z</time></trkpt><trkpt lat="45.3845333" lon="7.7784917"><ele>447.0</ele><time>2026-04-25T16:06:57.703Z</time></trkpt><trkpt lat="45.384475" lon="7.778605"><ele>447.8333333333333</ele><time>2026-04-25T16:06:59.703Z</time></trkpt><trkpt lat="45.3844367" lon="7.778685"><ele>448.66666666666663</ele><time>2026-04-25T16:07:22.703Z</time></trkpt><trkpt lat="45.3844" lon="7.7788017"><ele>449.5</ele><time>2026-04-25T16:07:23.703Z</time></trkpt><trkpt lat="45.3843767" lon="7.7789017"><ele>450.3333333333333</ele><time>2026-04-25T16:07:32.703Z</time></trkpt><trkpt lat="45.384335" lon="7.77902"><ele>451.16666666666663</ele><time>2026-04-25T16:07:35.703Z</time></trkpt><trkpt lat="45.384295" lon="7.7791133"><ele>452.0</ele><time>2026-04-25T16:07:37.704Z</time></trkpt><trkpt lat="45.3842467" lon="7.7792183"><ele>451.99999999999994</ele><time>2026-04-25T16:07:40.703Z</time></trkpt><trkpt lat="45.384215" lon="7.7793417"><ele>452.0</ele><time>2026-04-25T16:07:42.703Z</time></trkpt><trkpt lat="45.384195" lon="7.7794283"><ele>452.0</ele><time>2026-04-25T16:07:43.703Z</time></trkpt><trkpt lat="45.38417" lon="7.7795217"><ele>452.0</ele><time>2026-04-25T16:07:44.703Z</time></trkpt><trkpt lat="45.3841417" lon="7.7796167"><ele>451.99999999999994</ele><time>2026-04-25T16:07:45.703Z</time></trkpt><trkpt lat="45.3841083" lon="7.7797133"><ele>452.0</ele><time>2026-04-25T16:07:46.703Z</time></trkpt><trkpt lat="45.3840783" lon="7.7798233"><ele>451.8333333333333</ele><time>2026-04-25T16:07:47.703Z</time></trkpt><trkpt lat="45.3840483" lon="7.7799383"><ele>451.66666666666663</ele><time>2026-04-25T16:07:48.703Z</time></trkpt><trkpt lat="45.3840333" lon="7.7800517"><ele>451.5</ele><time>2026-04-25T16:07:49.703Z</time></trkpt><trkpt lat="45.384015" lon="7.780165"><ele>451.33333333333337</ele><time>2026-04-25T16:07:50.703Z</time></trkpt><trkpt lat="45.3840083" lon="7.78029"><ele>451.1666666666667</ele><time>2026-04-25T16:07:51.703Z</time></trkpt><trkpt lat="45.384015" lon="7.7804183"><ele>451.0</ele><time>2026-04-25T16:07:52.703Z</time></trkpt><trkpt lat="45.38404" lon="7.7805567"><ele>451.83333333333337</ele><time>2026-04-25T16:07:53.703Z</time></trkpt><trkpt lat="45.3840583" lon="7.7806633"><ele>452.6666666666667</ele><time>2026-04-25T16:07:54.703Z</time></trkpt><trkpt lat="45.384075" lon="7.78077"><ele>453.5</ele><time>2026-04-25T16:07:55.702Z</time></trkpt><trkpt lat="45.3841117" lon="7.7808883"><ele>454.33333333333337</ele><time>2026-04-25T16:07:56.702Z</time></trkpt><trkpt lat="45.3841417" lon="7.781"><ele>455.1666666666667</ele><time>2026-04-25T16:07:57.702Z</time></trkpt><trkpt lat="45.3841733" lon="7.781105"><ele>456.0</ele><time>2026-04-25T16:07:58.702Z</time></trkpt><trkpt lat="45.3842" lon="7.7812133"><ele>457.6666666666667</ele><time>2026-04-25T16:07:59.702Z</time></trkpt><trkpt lat="45.38423" lon="7.7813333"><ele>459.33333333333337</ele><time>2026-04-25T16:08:00.702Z</time></trkpt><trkpt lat="45.384255" lon="7.7814533"><ele>461.0</ele><time>2026-04-25T16:08:01.702Z</time></trkpt><trkpt lat="45.3842817" lon="7.781585"><ele>462.6666666666667</ele><time>2026-04-25T16:08:02.702Z</time></trkpt><trkpt lat="45.38429" lon="7.7817067"><ele>464.33333333333337</ele><time>2026-04-25T16:08:03.702Z</time></trkpt><trkpt lat="45.3842767" lon="7.78182"><ele>466.0</ele><time>2026-04-25T16:08:04.702Z</time></trkpt><trkpt lat="45.38426" lon="7.781935"><ele>466.8</ele><time>2026-04-25T16:08:05.702Z</time></trkpt><trkpt lat="45.3842483" lon="7.7820367"><ele>467.6</ele><time>2026-04-25T16:08:06.702Z</time></trkpt><trkpt lat="45.384235" lon="7.78218"><ele>468.4</ele><time>2026-04-25T16:08:08.702Z</time></trkpt><trkpt lat="45.3842267" lon="7.78231"><ele>469.2</ele><time>2026-04-25T16:08:10.702Z</time></trkpt><trkpt lat="45.3841983" lon="7.7824533"><ele>470.0</ele><time>2026-04-25T16:08:12.702Z</time></trkpt><trkpt lat="45.3841433" lon="7.7825867"><ele>470.0</ele><time>2026-04-25T16:08:14.702Z</time></trkpt><trkpt lat="45.384105" lon="7.7826617"><ele>470.0</ele><time>2026-04-25T16:08:15.702Z</time></trkpt><trkpt lat="45.3840317" lon="7.7827933"><ele>470.0</ele><time>2026-04-25T16:08:17.703Z</time></trkpt><trkpt lat="45.3839867" lon="7.782905"><ele>470.0</ele><time>2026-04-25T16:08:19.702Z</time></trkpt><trkpt lat="45.3839417" lon="7.7831033"><ele>470.0</ele><time>2026-04-25T16:10:17.702Z</time></trkpt><trkpt lat="45.3839217" lon="7.7832167"><ele>470.16666666666663</ele><time>2026-04-25T16:10:20.702Z</time></trkpt><trkpt lat="45.3838833" lon="7.783315"><ele>470.3333333333333</ele><time>2026-04-25T16:10:48.702Z</time></trkpt><trkpt lat="45.3838517" lon="7.783465"><ele>470.5</ele><time>2026-04-25T16:10:50.702Z</time></trkpt><trkpt lat="45.3838417" lon="7.783555"><ele>470.66666666666663</ele><time>2026-04-25T16:10:51.702Z</time></trkpt><trkpt lat="45.3838383" lon="7.7836567"><ele>470.8333333333333</ele><time>2026-04-25T16:10:52.702Z</time></trkpt><trkpt lat="45.3838367" lon="7.78376"><ele>471.0</ele><time>2026-04-25T16:10:53.702Z</time></trkpt><trkpt lat="45.38383" lon="7.78386"><ele>472.57142857142867</ele><time>2026-04-25T16:10:54.702Z</time></trkpt><trkpt lat="45.38382" lon="7.7839567"><ele>474.14285714285717</ele><time>2026-04-25T16:10:55.702Z</time></trkpt><trkpt lat="45.3838117" lon="7.7840483"><ele>475.7142857142858</ele><time>2026-04-25T16:10:56.702Z</time></trkpt><trkpt lat="45.3838033" lon="7.78416"><ele>477.28571428571433</ele><time>2026-04-25T16:10:57.702Z</time></trkpt><trkpt lat="45.3837983" lon="7.78427"><ele>478.8571428571429</ele><time>2026-04-25T16:10:58.702Z</time></trkpt><trkpt lat="45.38379" lon="7.7843767"><ele>480.42857142857144</ele><time>2026-04-25T16:10:59.702Z</time></trkpt><trkpt lat="45.3837783" lon="7.7844767"><ele>482.0</ele><time>2026-04-25T16:11:00.703Z</time></trkpt><trkpt lat="45.38377" lon="7.7845717"><ele>481.99999999999994</ele><time>2026-04-25T16:11:01.702Z</time></trkpt><trkpt lat="45.3837767" lon="7.784675"><ele>482.0</ele><time>2026-04-25T16:11:02.702Z</time></trkpt><trkpt lat="45.3837933" lon="7.7847867"><ele>482.0</ele><time>2026-04-25T16:11:03.702Z</time></trkpt><trkpt lat="45.38382" lon="7.7849133"><ele>482.0</ele><time>2026-04-25T16:11:04.702Z</time></trkpt><trkpt lat="45.3838483" lon="7.7850383"><ele>481.99999999999994</ele><time>2026-04-25T16:11:05.702Z</time></trkpt><trkpt lat="45.3838867" lon="7.7851533"><ele>482.0</ele><time>2026-04-25T16:11:06.702Z</time></trkpt><trkpt lat="45.3839167" lon="7.7852667"><ele>481.49999999999994</ele><time>2026-04-25T16:11:07.702Z</time></trkpt><trkpt lat="45.3839367" lon="7.7853767"><ele>481.0</ele><time>2026-04-25T16:11:08.702Z</time></trkpt><trkpt lat="45.3839567" lon="7.7854883"><ele>480.5</ele><time>2026-04-25T16:11:09.702Z</time></trkpt><trkpt lat="45.3839533" lon="7.785595"><ele>480.0</ele><time>2026-04-25T16:11:10.702Z</time></trkpt><trkpt lat="45.3839583" lon="7.785705"><ele>479.49999999999994</ele><time>2026-04-25T16:11:11.702Z</time></trkpt><trkpt lat="45.38397" lon="7.78581"><ele>479.0</ele><time>2026-04-25T16:11:12.702Z</time></trkpt><trkpt lat="45.3839867" lon="7.7859283"><ele>479.4</ele><time>2026-04-25T16:11:13.703Z</time></trkpt><trkpt lat="45.3840067" lon="7.78606"><ele>479.79999999999995</ele><time>2026-04-25T16:11:14.702Z</time></trkpt><trkpt lat="45.3840117" lon="7.786195"><ele>480.20000000000005</ele><time>2026-04-25T16:11:15.702Z</time></trkpt><trkpt lat="45.3840133" lon="7.7863283"><ele>480.6</ele><time>2026-04-25T16:11:16.702Z</time></trkpt><trkpt lat="45.3840217" lon="7.7864383"><ele>481.0</ele><time>2026-04-25T16:11:17.702Z</time></trkpt><trkpt lat="45.38404" lon="7.7865817"><ele>481.00000000000006</ele><time>2026-04-25T16:11:19.703Z</time></trkpt><trkpt lat="45.3840617" lon="7.78668"><ele>481.0</ele><time>2026-04-25T16:11:21.702Z</time></trkpt><trkpt lat="45.3840967" lon="7.786765"><ele>481.0</ele><time>2026-04-25T16:11:23.702Z</time></trkpt><trkpt lat="45.38413" lon="7.7868533"><ele>481.0</ele><time>2026-04-25T16:11:25.702Z</time></trkpt><trkpt lat="45.3841383" lon="7.7869533"><ele>481.00000000000006</ele><time>2026-04-25T16:11:27.702Z</time></trkpt><trkpt lat="45.3840717" lon="7.7870633"><ele>481.0</ele><time>2026-04-25T16:11:30.702Z</time></trkpt><trkpt lat="45.384005" lon="7.78711"><ele>482.83333333333337</ele><time>2026-04-25T16:11:32.702Z</time></trkpt><trkpt lat="45.3839367" lon="7.78719"><ele>484.6666666666667</ele><time>2026-04-25T16:11:35.702Z</time></trkpt><trkpt lat="45.3838867" lon="7.7872833"><ele>486.5</ele><time>2026-04-25T16:11:37.702Z</time></trkpt><trkpt lat="45.38385" lon="7.7874217"><ele>488.33333333333337</ele><time>2026-04-25T16:11:39.702Z</time></trkpt><trkpt lat="45.3838317" lon="7.7875133"><ele>490.1666666666667</ele><time>2026-04-25T16:11:40.702Z</time></trkpt><trkpt lat="45.38382" lon="7.7876067"><ele>492.0</ele><time>2026-04-25T16:11:41.702Z</time></trkpt><trkpt lat="45.383815" lon="7.7877033"><ele>494.8333333333333</ele><time>2026-04-25T16:11:42.702Z</time></trkpt><trkpt lat="45.3838117" lon="7.787805"><ele>497.66666666666663</ele><time>2026-04-25T16:11:43.702Z</time></trkpt><trkpt lat="45.3838117" lon="7.7879083"><ele>500.5</ele><time>2026-04-25T16:11:44.702Z</time></trkpt><trkpt lat="45.38382" lon="7.7880033"><ele>503.3333333333333</ele><time>2026-04-25T16:11:45.702Z</time></trkpt><trkpt lat="45.3838183" lon="7.78813"><ele>506.16666666666663</ele><time>2026-04-25T16:11:46.702Z</time></trkpt><trkpt lat="45.3838133" lon="7.7882617"><ele>509.0</ele><time>2026-04-25T16:11:47.702Z</time></trkpt><trkpt lat="45.3838" lon="7.7883933"><ele>508.49999999999994</ele><time>2026-04-25T16:11:48.702Z</time></trkpt><trkpt lat="45.3837883" lon="7.7885117"><ele>508.0</ele><time>2026-04-25T16:11:49.702Z</time></trkpt><trkpt lat="45.3837783" lon="7.78862"><ele>507.5</ele><time>2026-04-25T16:11:50.702Z</time></trkpt><trkpt lat="45.3837667" lon="7.7887133"><ele>507.0</ele><time>2026-04-25T16:11:51.702Z</time></trkpt><trkpt lat="45.3837367" lon="7.7888733"><ele>506.49999999999994</ele><time>2026-04-25T16:11:53.702Z</time></trkpt><trkpt lat="45.383735" lon="7.7890117"><ele>506.0</ele><time>2026-04-25T16:11:55.702Z</time></trkpt><trkpt lat="45.3837733" lon="7.7891067"><ele>505.99999999999994</ele><time>2026-04-25T16:11:57.702Z</time></trkpt><trkpt lat="45.383815" lon="7.7891783"><ele>506.0</ele><time>2026-04-25T16:11:59.702Z</time></trkpt><trkpt lat="45.38392" lon="7.789245"><ele>506.0</ele><time>2026-04-25T16:12:01.702Z</time></trkpt><trkpt lat="45.38399" lon="7.7892783"><ele>506.0</ele><time>2026-04-25T16:12:02.702Z</time></trkpt><trkpt lat="45.38407" lon="7.78931"><ele>505.99999999999994</ele><time>2026-04-25T16:12:03.702Z</time></trkpt><trkpt lat="45.384145" lon="7.789315"><ele>506.0</ele><time>2026-04-25T16:12:04.702Z</time></trkpt><trkpt lat="45.3842167" lon="7.789295"><ele>504.66666666666663</ele><time>2026-04-25T16:12:05.702Z</time></trkpt><trkpt lat="45.384275" lon="7.7892517"><ele>503.3333333333333</ele><time>2026-04-25T16:12:06.702Z</time></trkpt><trkpt lat="45.3843217" lon="7.78919"><ele>502.0</ele><time>2026-04-25T16:12:07.702Z</time></trkpt><trkpt lat="45.38442" lon="7.789125"><ele>500.66666666666663</ele><time>2026-04-25T16:12:09.702Z</time></trkpt><trkpt lat="45.384495" lon="7.7891383"><ele>499.3333333333333</ele><time>2026-04-25T16:12:11.702Z</time></trkpt><trkpt lat="45.384545" lon="7.78925"><ele>498.0</ele><time>2026-04-25T16:12:13.702Z</time></trkpt><trkpt lat="45.3845733" lon="7.7893433"><ele>497.1666666666667</ele><time>2026-04-25T16:12:14.702Z</time></trkpt><trkpt lat="45.3845983" lon="7.7894333"><ele>496.33333333333337</ele><time>2026-04-25T16:12:15.702Z</time></trkpt><trkpt lat="45.3846183" lon="7.7895267"><ele>495.5</ele><time>2026-04-25T16:12:16.702Z</time></trkpt><trkpt lat="45.3846417" lon="7.7896117"><ele>494.6666666666667</ele><time>2026-04-25T16:12:17.702Z</time></trkpt><trkpt lat="45.3846717" lon="7.7897783"><ele>493.83333333333337</ele><time>2026-04-25T16:12:19.702Z</time></trkpt><trkpt lat="45.38469" lon="7.789875"><ele>493.0</ele><time>2026-04-25T16:12:20.702Z</time></trkpt><trkpt lat="45.3847117" lon="7.7899817"><ele>492.2857142857143</ele><time>2026-04-25T16:12:21.702Z</time></trkpt><trkpt lat="45.384745" lon="7.7900833"><ele>491.57142857142856</ele><time>2026-04-25T16:12:22.702Z</time></trkpt><trkpt lat="45.3847867" lon="7.79017"><ele>490.85714285714283</ele><time>2026-04-25T16:12:23.702Z</time></trkpt><trkpt lat="45.3848267" lon="7.790245"><ele>490.1428571428571</ele><time>2026-04-25T16:12:24.702Z</time></trkpt><trkpt lat="45.3848733" lon="7.7903217"><ele>489.42857142857144</ele><time>2026-04-25T16:12:26.702Z</time></trkpt><trkpt lat="45.3849233" lon="7.7903783"><ele>488.71428571428567</ele><time>2026-04-25T16:13:35.702Z</time></trkpt><trkpt lat="45.3848767" lon="7.7902817"><ele>487.99999999999994</ele><time>2026-04-25T16:13:37.702Z</time></trkpt><trkpt lat="45.3848233" lon="7.79013"><ele>487.99999999999994</ele><time>2026-04-25T16:13:39.702Z</time></trkpt><trkpt lat="45.3848083" lon="7.79004"><ele>488.0</ele><time>2026-04-25T16:13:40.702Z</time></trkpt><trkpt lat="45.38479" lon="7.789945"><ele>488.0</ele><time>2026-04-25T16:13:41.702Z</time></trkpt><trkpt lat="45.3847783" lon="7.7898567"><ele>488.0</ele><time>2026-04-25T16:13:42.702Z</time></trkpt><trkpt lat="45.384755" lon="7.7897217"><ele>487.99999999999994</ele><time>2026-04-25T16:13:44.702Z</time></trkpt><trkpt lat="45.3847033" lon="7.7895783"><ele>488.0</ele><time>2026-04-25T16:13:46.702Z</time></trkpt><trkpt lat="45.384655" lon="7.789415"><ele>488.8333333333333</ele><time>2026-04-25T16:13:48.702Z</time></trkpt><trkpt lat="45.384615" lon="7.789305"><ele>489.66666666666663</ele><time>2026-04-25T16:13:50.702Z</time></trkpt><trkpt lat="45.3845617" lon="7.789255"><ele>490.5</ele><time>2026-04-25T16:13:52.702Z</time></trkpt><trkpt lat="45.3845" lon="7.789285"><ele>491.33333333333337</ele><time>2026-04-25T16:13:54.702Z</time></trkpt><trkpt lat="45.38441" lon="7.7893533"><ele>492.1666666666667</ele><time>2026-04-25T16:13:56.702Z</time></trkpt><trkpt lat="45.3843433" lon="7.7893717"><ele>493.0</ele><time>2026-04-25T16:13:57.702Z</time></trkpt><trkpt lat="45.38427" lon="7.7893783"><ele>493.00000000000006</ele><time>2026-04-25T16:13:58.702Z</time></trkpt><trkpt lat="45.3841883" lon="7.78938"><ele>493.0</ele><time>2026-04-25T16:13:59.703Z</time></trkpt><trkpt lat="45.38411" lon="7.7893733"><ele>493.0</ele><time>2026-04-25T16:14:00.702Z</time></trkpt><trkpt lat="45.3840417" lon="7.7893683"><ele>493.0</ele><time>2026-04-25T16:14:01.702Z</time></trkpt><trkpt lat="45.3839717" lon="7.789365"><ele>493.00000000000006</ele><time>2026-04-25T16:14:02.702Z</time></trkpt><trkpt lat="45.3839017" lon="7.7893667"><ele>493.0</ele><time>2026-04-25T16:14:03.702Z</time></trkpt><trkpt lat="45.383785" lon="7.7893867"><ele>495.0</ele><time>2026-04-25T16:14:05.702Z</time></trkpt><trkpt lat="45.3836817" lon="7.7894567"><ele>496.99999999999994</ele><time>2026-04-25T16:14:07.702Z</time></trkpt><trkpt lat="45.3835917" lon="7.7895783"><ele>498.99999999999994</ele><time>2026-04-25T16:14:09.702Z</time></trkpt><trkpt lat="45.3835217" lon="7.7897367"><ele>501.0</ele><time>2026-04-25T16:14:11.702Z</time></trkpt><trkpt lat="45.38348" lon="7.7898183"><ele>503.0</ele><time>2026-04-25T16:14:12.702Z</time></trkpt><trkpt lat="45.3834433" lon="7.7898983"><ele>502.99999999999994</ele><time>2026-04-25T16:14:13.702Z</time></trkpt><trkpt lat="45.38341" lon="7.7899817"><ele>503.0</ele><time>2026-04-25T16:14:14.702Z</time></trkpt><trkpt lat="45.3833933" lon="7.7900683"><ele>503.0</ele><time>2026-04-25T16:14:15.702Z</time></trkpt><trkpt lat="45.3833767" lon="7.79024"><ele>503.0</ele><time>2026-04-25T16:14:17.702Z</time></trkpt><trkpt lat="45.383365" lon="7.790335"><ele>502.99999999999994</ele><time>2026-04-25T16:14:18.702Z</time></trkpt><trkpt lat="45.3833467" lon="7.7904383"><ele>503.0</ele><time>2026-04-25T16:14:19.702Z</time></trkpt><trkpt lat="45.38332" lon="7.790545"><ele>502.49999999999994</ele><time>2026-04-25T16:14:20.702Z</time></trkpt><trkpt lat="45.3832933" lon="7.790655"><ele>502.0</ele><time>2026-04-25T16:14:21.702Z</time></trkpt><trkpt lat="45.383265" lon="7.7907633"><ele>501.5</ele><time>2026-04-25T16:14:22.702Z</time></trkpt><trkpt lat="45.3832217" lon="7.790865"><ele>501.0</ele><time>2026-04-25T16:14:23.702Z</time></trkpt><trkpt lat="45.3831783" lon="7.79096"><ele>500.49999999999994</ele><time>2026-04-25T16:14:24.702Z</time></trkpt><trkpt lat="45.3831417" lon="7.7910583"><ele>500.0</ele><time>2026-04-25T16:14:25.702Z</time></trkpt><trkpt lat="45.3831033" lon="7.7911617"><ele>499.8</ele><time>2026-04-25T16:14:26.702Z</time></trkpt><trkpt lat="45.3830617" lon="7.7912767"><ele>499.6</ele><time>2026-04-25T16:14:27.702Z</time></trkpt><trkpt lat="45.3830217" lon="7.7913967"><ele>499.4</ele><time>2026-04-25T16:14:28.702Z</time></trkpt><trkpt lat="45.3829817" lon="7.7915317"><ele>499.2</ele><time>2026-04-25T16:14:29.702Z</time></trkpt><trkpt lat="45.3829383" lon="7.79166"><ele>499.0</ele><time>2026-04-25T16:14:30.702Z</time></trkpt><trkpt lat="45.3829017" lon="7.7917783"><ele>498.83333333333337</ele><time>2026-04-25T16:14:31.702Z</time></trkpt><trkpt lat="45.3828633" lon="7.79187"><ele>498.6666666666667</ele><time>2026-04-25T16:14:32.702Z</time></trkpt><trkpt lat="45.3828267" lon="7.7919433"><ele>498.5</ele><time>2026-04-25T16:14:33.702Z</time></trkpt><trkpt lat="45.38274" lon="7.7920383"><ele>498.33333333333337</ele><time>2026-04-25T16:14:35.702Z</time></trkpt><trkpt lat="45.38268" lon="7.7920733"><ele>498.1666666666667</ele><time>2026-04-25T16:14:36.702Z</time></trkpt><trkpt lat="45.38256" lon="7.7921383"><ele>498.0</ele><time>2026-04-25T16:14:38.702Z</time></trkpt><trkpt lat="45.382475" lon="7.79225"><ele>498.0</ele><time>2026-04-25T16:14:40.702Z</time></trkpt><trkpt lat="45.3823767" lon="7.792345"><ele>498.0</ele><time>2026-04-25T16:14:42.702Z</time></trkpt><trkpt lat="45.3823133" lon="7.7924033"><ele>498.0</ele><time>2026-04-25T16:14:43.702Z</time></trkpt><trkpt lat="45.3822467" lon="7.7924667"><ele>498.0</ele><time>2026-04-25T16:14:44.702Z</time></trkpt><trkpt lat="45.38219" lon="7.7925367"><ele>498.0</ele><time>2026-04-25T16:14:45.702Z</time></trkpt><trkpt lat="45.38213" lon="7.79259"><ele>498.0</ele><time>2026-04-25T16:14:46.702Z</time></trkpt><trkpt lat="45.3820533" lon="7.7926217"><ele>497.8333333333333</ele><time>2026-04-25T16:14:47.702Z</time></trkpt><trkpt lat="45.381965" lon="7.7926383"><ele>497.66666666666663</ele><time>2026-04-25T16:14:48.702Z</time></trkpt><trkpt lat="45.38188" lon="7.79265"><ele>497.5</ele><time>2026-04-25T16:14:49.702Z</time></trkpt><trkpt lat="45.3818117" lon="7.7926567"><ele>497.3333333333333</ele><time>2026-04-25T16:14:50.702Z</time></trkpt><trkpt lat="45.3817467" lon="7.792665"><ele>497.16666666666663</ele><time>2026-04-25T16:14:51.702Z</time></trkpt><trkpt lat="45.3816533" lon="7.79269"><ele>497.0</ele><time>2026-04-25T16:14:53.703Z</time></trkpt><trkpt lat="45.3815717" lon="7.7927817"><ele>496.3333333333333</ele><time>2026-04-25T16:14:55.702Z</time></trkpt><trkpt lat="45.3814633" lon="7.7928983"><ele>495.66666666666663</ele><time>2026-04-25T16:14:57.702Z</time></trkpt><trkpt lat="45.3814" lon="7.7929533"><ele>495.0</ele><time>2026-04-25T16:14:58.702Z</time></trkpt><trkpt lat="45.3813367" lon="7.7930067"><ele>494.33333333333337</ele><time>2026-04-25T16:14:59.702Z</time></trkpt><trkpt lat="45.381275" lon="7.7930733"><ele>493.6666666666667</ele><time>2026-04-25T16:15:00.702Z</time></trkpt><trkpt lat="45.3812183" lon="7.7931517"><ele>493.0</ele><time>2026-04-25T16:15:01.702Z</time></trkpt><trkpt lat="45.381175" lon="7.79322"><ele>495.00000000000006</ele><time>2026-04-25T16:15:02.702Z</time></trkpt><trkpt lat="45.3811267" lon="7.7933017"><ele>497.0</ele><time>2026-04-25T16:15:03.702Z</time></trkpt><trkpt lat="45.381085" lon="7.7933867"><ele>499.0</ele><time>2026-04-25T16:15:04.702Z</time></trkpt><trkpt lat="45.3810417" lon="7.7934867"><ele>501.0</ele><time>2026-04-25T16:15:05.702Z</time></trkpt><trkpt lat="45.3810133" lon="7.7935933"><ele>503.00000000000006</ele><time>2026-04-25T16:15:06.702Z</time></trkpt><trkpt lat="45.3809983" lon="7.7937167"><ele>505.0</ele><time>2026-04-25T16:15:07.702Z</time></trkpt><trkpt lat="45.380985" lon="7.7938217"><ele>505.1666666666667</ele><time>2026-04-25T16:15:08.702Z</time></trkpt><trkpt lat="45.3809717" lon="7.79391"><ele>505.33333333333337</ele><time>2026-04-25T16:15:09.702Z</time></trkpt><trkpt lat="45.3809283" lon="7.7940083"><ele>505.5</ele><time>2026-04-25T16:15:11.702Z</time></trkpt><trkpt lat="45.3808467" lon="7.7940283"><ele>505.66666666666663</ele><time>2026-04-25T16:15:13.702Z</time></trkpt><trkpt lat="45.3807383" lon="7.7939817"><ele>505.8333333333333</ele><time>2026-04-25T16:15:15.702Z</time></trkpt><trkpt lat="45.380675" lon="7.7939383"><ele>506.0</ele><time>2026-04-25T16:15:16.703Z</time></trkpt><trkpt lat="45.3806117" lon="7.7939083"><ele>506.0</ele><time>2026-04-25T16:15:17.702Z</time></trkpt><trkpt lat="45.3805483" lon="7.7938867"><ele>506.0</ele><time>2026-04-25T16:15:18.702Z</time></trkpt><trkpt lat="45.380435" lon="7.7938683"><ele>506.0</ele><time>2026-04-25T16:15:20.702Z</time></trkpt><trkpt lat="45.3803217" lon="7.793875"><ele>506.0</ele><time>2026-04-25T16:15:22.702Z</time></trkpt><trkpt lat="45.3802183" lon="7.7938733"><ele>506.0</ele><time>2026-04-25T16:15:24.702Z</time></trkpt><trkpt lat="45.3800933" lon="7.7938483"><ele>507.66666666666663</ele><time>2026-04-25T16:15:26.702Z</time></trkpt><trkpt lat="45.380025" lon="7.793825"><ele>509.3333333333333</ele><time>2026-04-25T16:15:27.702Z</time></trkpt><trkpt lat="45.3799483" lon="7.793815"><ele>511.0</ele><time>2026-04-25T16:15:28.701Z</time></trkpt><trkpt lat="45.379865" lon="7.7938267"><ele>512.6666666666666</ele><time>2026-04-25T16:15:29.701Z</time></trkpt><trkpt lat="45.37979" lon="7.7938433"><ele>514.3333333333334</ele><time>2026-04-25T16:15:30.701Z</time></trkpt><trkpt lat="45.3797233" lon="7.7938617"><ele>516.0</ele><time>2026-04-25T16:15:31.701Z</time></trkpt><trkpt lat="45.3796167" lon="7.7938717"><ele>516.0</ele><time>2026-04-25T16:15:33.701Z</time></trkpt><trkpt lat="45.3795333" lon="7.7939117"><ele>516.0</ele><time>2026-04-25T16:15:35.701Z</time></trkpt><trkpt lat="45.379465" lon="7.7940317"><ele>516.0</ele><time>2026-04-25T16:15:37.701Z</time></trkpt><trkpt lat="45.37944" lon="7.794115"><ele>516.0</ele><time>2026-04-25T16:15:38.701Z</time></trkpt><trkpt lat="45.379405" lon="7.7942067"><ele>516.0</ele><time>2026-04-25T16:15:39.701Z</time></trkpt><trkpt lat="45.37936" lon="7.7942983"><ele>516.0</ele><time>2026-04-25T16:15:40.701Z</time></trkpt><trkpt lat="45.379305" lon="7.7943717"><ele>515.8</ele><time>2026-04-25T16:15:41.701Z</time></trkpt><trkpt lat="45.379245" lon="7.79443"><ele>515.6</ele><time>2026-04-25T16:15:42.701Z</time></trkpt><trkpt lat="45.3791733" lon="7.79448"><ele>515.4</ele><time>2026-04-25T16:15:43.701Z</time></trkpt><trkpt lat="45.37909" lon="7.7945233"><ele>515.2</ele><time>2026-04-25T16:15:44.701Z</time></trkpt><trkpt lat="45.37899" lon="7.79458"><ele>515.0</ele><time>2026-04-25T16:15:45.701Z</time></trkpt><trkpt lat="45.3788917" lon="7.7946467"><ele>515.2</ele><time>2026-04-25T16:15:46.701Z</time></trkpt><trkpt lat="45.3788083" lon="7.7947083"><ele>515.4</ele><time>2026-04-25T16:15:47.701Z</time></trkpt><trkpt lat="45.3787367" lon="7.7947633"><ele>515.6</ele><time>2026-04-25T16:15:48.701Z</time></trkpt><trkpt lat="45.3786717" lon="7.79481"><ele>515.8</ele><time>2026-04-25T16:15:49.701Z</time></trkpt><trkpt lat="45.37854" lon="7.7948467"><ele>516.0</ele><time>2026-04-25T16:15:51.701Z</time></trkpt><trkpt lat="45.3784617" lon="7.794845"><ele>516.0</ele><time>2026-04-25T16:15:52.701Z</time></trkpt><trkpt lat="45.3783967" lon="7.7948333"><ele>516.0</ele><time>2026-04-25T16:15:53.701Z</time></trkpt><trkpt lat="45.37833" lon="7.7948217"><ele>516.0</ele><time>2026-04-25T16:15:54.701Z</time></trkpt><trkpt lat="45.378245" lon="7.7948083"><ele>516.0</ele><time>2026-04-25T16:15:56.701Z</time></trkpt><trkpt lat="45.3781683" lon="7.794815"><ele>516.0</ele><time>2026-04-25T16:15:58.701Z</time></trkpt><trkpt lat="45.3780933" lon="7.7948867"><ele>516.0</ele><time>2026-04-25T16:16:00.701Z</time></trkpt><trkpt lat="45.3780467" lon="7.79496"><ele>515.4285714285713</ele><time>2026-04-25T16:16:01.701Z</time></trkpt><trkpt lat="45.378" lon="7.79503"><ele>514.8571428571429</ele><time>2026-04-25T16:16:02.701Z</time></trkpt><trkpt lat="45.3779567" lon="7.7951083"><ele>514.2857142857142</ele><time>2026-04-25T16:16:03.701Z</time></trkpt><trkpt lat="45.3779083" lon="7.7951933"><ele>513.7142857142857</ele><time>2026-04-25T16:16:04.701Z</time></trkpt><trkpt lat="45.377865" lon="7.7952783"><ele>513.1428571428571</ele><time>2026-04-25T16:16:05.701Z</time></trkpt><trkpt lat="45.3778183" lon="7.7953617"><ele>512.5714285714286</ele><time>2026-04-25T16:16:06.701Z</time></trkpt><trkpt lat="45.3777733" lon="7.7954433"><ele>512.0</ele><time>2026-04-25T16:16:07.701Z</time></trkpt><trkpt lat="45.3777317" lon="7.7955183"><ele>511.3333333333333</ele><time>2026-04-25T16:16:08.701Z</time></trkpt><trkpt lat="45.3776883" lon="7.7955917"><ele>510.66666666666663</ele><time>2026-04-25T16:16:09.701Z</time></trkpt><trkpt lat="45.3776467" lon="7.79566"><ele>510.0</ele><time>2026-04-25T16:16:10.701Z</time></trkpt><trkpt lat="45.37757" lon="7.7957733"><ele>509.33333333333337</ele><time>2026-04-25T16:16:12.701Z</time></trkpt><trkpt lat="45.3774967" lon="7.7957883"><ele>508.6666666666667</ele><time>2026-04-25T16:16:14.701Z</time></trkpt><trkpt lat="45.3774133" lon="7.795755"><ele>508.0</ele><time>2026-04-25T16:16:16.701Z</time></trkpt><trkpt lat="45.3773" lon="7.7958133"><ele>508.0</ele><time>2026-04-25T16:16:18.701Z</time></trkpt><trkpt lat="45.3772367" lon="7.7958767"><ele>507.99999999999994</ele><time>2026-04-25T16:16:19.701Z</time></trkpt><trkpt lat="45.3771667" lon="7.7959567"><ele>507.99999999999994</ele><time>2026-04-25T16:16:20.701Z</time></trkpt><trkpt lat="45.3770967" lon="7.7960417"><ele>508.0</ele><time>2026-04-25T16:16:21.701Z</time></trkpt><trkpt lat="45.3770233" lon="7.7961267"><ele>508.0</ele><time>2026-04-25T16:16:22.701Z</time></trkpt><trkpt lat="45.3769417" lon="7.79621"><ele>506.83333333333337</ele><time>2026-04-25T16:16:23.701Z</time></trkpt><trkpt lat="45.3768683" lon="7.7962867"><ele>505.6666666666667</ele><time>2026-04-25T16:16:24.701Z</time></trkpt><trkpt lat="45.3767983" lon="7.7963567"><ele>504.5</ele><time>2026-04-25T16:16:25.701Z</time></trkpt><trkpt lat="45.3767317" lon="7.7964217"><ele>503.33333333333337</ele><time>2026-04-25T16:16:26.701Z</time></trkpt><trkpt lat="45.3766683" lon="7.7964717"><ele>502.1666666666667</ele><time>2026-04-25T16:16:27.701Z</time></trkpt><trkpt lat="45.376605" lon="7.7965267"><ele>501.0</ele><time>2026-04-25T16:16:28.701Z</time></trkpt><trkpt lat="45.3765433" lon="7.7965733"><ele>501.0</ele><time>2026-04-25T16:16:29.701Z</time></trkpt><trkpt lat="45.3764833" lon="7.796605"><ele>501.0</ele><time>2026-04-25T16:16:30.702Z</time></trkpt><trkpt lat="45.3764067" lon="7.7966267"><ele>501.0</ele><time>2026-04-25T16:16:31.701Z</time></trkpt><trkpt lat="45.3763333" lon="7.7966733"><ele>501.0</ele><time>2026-04-25T16:16:32.701Z</time></trkpt><trkpt lat="45.3762717" lon="7.7967383"><ele>501.0</ele><time>2026-04-25T16:16:33.701Z</time></trkpt><trkpt lat="45.3762067" lon="7.7968183"><ele>501.0</ele><time>2026-04-25T16:16:34.701Z</time></trkpt><trkpt lat="45.3761217" lon="7.79692"><ele>500.0</ele><time>2026-04-25T16:16:35.701Z</time></trkpt><trkpt lat="45.37602" lon="7.7970417"><ele>499.0</ele><time>2026-04-25T16:16:36.701Z</time></trkpt><trkpt lat="45.37591" lon="7.79716"><ele>498.0</ele><time>2026-04-25T16:16:37.701Z</time></trkpt><trkpt lat="45.375805" lon="7.79726"><ele>497.0</ele><time>2026-04-25T16:16:38.701Z</time></trkpt><trkpt lat="45.37571" lon="7.7973467"><ele>496.99999999999994</ele><time>2026-04-25T16:16:39.701Z</time></trkpt><trkpt lat="45.3756367" lon="7.797435"><ele>497.0</ele><time>2026-04-25T16:16:40.701Z</time></trkpt><trkpt lat="45.3755733" lon="7.7975133"><ele>497.0</ele><time>2026-04-25T16:16:41.701Z</time></trkpt><trkpt lat="45.375525" lon="7.7975817"><ele>497.0</ele><time>2026-04-25T16:16:42.701Z</time></trkpt><trkpt lat="45.375475" lon="7.797675"><ele>496.99999999999994</ele><time>2026-04-25T16:16:43.701Z</time></trkpt><trkpt lat="45.3754283" lon="7.7977767"><ele>497.0</ele><time>2026-04-25T16:16:44.701Z</time></trkpt><trkpt lat="45.3753917" lon="7.7978733"><ele>496.3333333333333</ele><time>2026-04-25T16:16:45.701Z</time></trkpt><trkpt lat="45.375355" lon="7.7979683"><ele>495.66666666666663</ele><time>2026-04-25T16:16:46.701Z</time></trkpt><trkpt lat="45.3753233" lon="7.79806"><ele>495.0</ele><time>2026-04-25T16:16:47.701Z</time></trkpt><trkpt lat="45.3752683" lon="7.7982267"><ele>494.33333333333337</ele><time>2026-04-25T16:16:49.701Z</time></trkpt><trkpt lat="45.37523" lon="7.7983033"><ele>493.6666666666667</ele><time>2026-04-25T16:16:50.701Z</time></trkpt><trkpt lat="45.3752017" lon="7.7983867"><ele>493.0</ele><time>2026-04-25T16:16:51.701Z</time></trkpt><trkpt lat="45.3751733" lon="7.7984667"><ele>492.0</ele><time>2026-04-25T16:16:52.701Z</time></trkpt><trkpt lat="45.3750883" lon="7.798595"><ele>490.99999999999994</ele><time>2026-04-25T16:16:54.701Z</time></trkpt><trkpt lat="45.3750367" lon="7.7986583"><ele>489.99999999999994</ele><time>2026-04-25T16:16:55.702Z</time></trkpt><trkpt lat="45.3749417" lon="7.798755"><ele>489.0</ele><time>2026-04-25T16:16:57.701Z</time></trkpt><trkpt lat="45.3748683" lon="7.7988267"><ele>488.0</ele><time>2026-04-25T16:16:59.701Z</time></trkpt><trkpt lat="45.3747867" lon="7.7988967"><ele>488.0</ele><time>2026-04-25T16:17:01.701Z</time></trkpt><trkpt lat="45.3747083" lon="7.799"><ele>487.99999999999994</ele><time>2026-04-25T16:17:03.701Z</time></trkpt><trkpt lat="45.3746133" lon="7.7991033"><ele>487.99999999999994</ele><time>2026-04-25T16:17:05.701Z</time></trkpt><trkpt lat="45.3745567" lon="7.7991433"><ele>488.0</ele><time>2026-04-25T16:17:06.701Z</time></trkpt><trkpt lat="45.3744717" lon="7.7991883"><ele>488.0</ele><time>2026-04-25T16:17:08.701Z</time></trkpt><trkpt lat="45.37439" lon="7.799225"><ele>488.0</ele><time>2026-04-25T16:17:10.701Z</time></trkpt><trkpt lat="45.37432" lon="7.7992733"><ele>487.99999999999994</ele><time>2026-04-25T16:17:12.701Z</time></trkpt><trkpt lat="45.3741917" lon="7.799335"><ele>487.99999999999994</ele><time>2026-04-25T16:17:14.701Z</time></trkpt><trkpt lat="45.3740983" lon="7.7993833"><ele>488.0</ele><time>2026-04-25T16:17:15.701Z</time></trkpt><trkpt lat="45.374015" lon="7.799445"><ele>488.0</ele><time>2026-04-25T16:17:16.701Z</time></trkpt><trkpt lat="45.3739417" lon="7.799525"><ele>487.66666666666663</ele><time>2026-04-25T16:17:17.701Z</time></trkpt><trkpt lat="45.3738883" lon="7.799595"><ele>487.3333333333333</ele><time>2026-04-25T16:17:18.701Z</time></trkpt><trkpt lat="45.373815" lon="7.7996867"><ele>487.0</ele><time>2026-04-25T16:17:20.701Z</time></trkpt><trkpt lat="45.373905" lon="7.7996233"><ele>486.66666666666663</ele><time>2026-04-25T16:17:28.701Z</time></trkpt><trkpt lat="45.3739617" lon="7.7995417"><ele>486.3333333333333</ele><time>2026-04-25T16:17:29.701Z</time></trkpt><trkpt lat="45.3740417" lon="7.7994767"><ele>486.0</ele><time>2026-04-25T16:17:30.701Z</time></trkpt><trkpt lat="45.3741367" lon="7.7994183"><ele>486.3333333333333</ele><time>2026-04-25T16:17:31.701Z</time></trkpt><trkpt lat="45.3742333" lon="7.7993717"><ele>486.66666666666663</ele><time>2026-04-25T16:17:32.701Z</time></trkpt><trkpt lat="45.3743183" lon="7.7993367"><ele>487.0</ele><time>2026-04-25T16:17:33.702Z</time></trkpt><trkpt lat="45.3744067" lon="7.7993067"><ele>487.3333333333333</ele><time>2026-04-25T16:17:34.701Z</time></trkpt><trkpt lat="45.3744883" lon="7.7992783"><ele>487.66666666666663</ele><time>2026-04-25T16:17:35.701Z</time></trkpt><trkpt lat="45.3745517" lon="7.7992433"><ele>488.0</ele><time>2026-04-25T16:17:36.701Z</time></trkpt><trkpt lat="45.374615" lon="7.799215"><ele>488.0</ele><time>2026-04-25T16:17:37.701Z</time></trkpt><trkpt lat="45.37471" lon="7.799125"><ele>487.99999999999994</ele><time>2026-04-25T16:17:39.701Z</time></trkpt><trkpt lat="45.3747733" lon="7.799045"><ele>487.99999999999994</ele><time>2026-04-25T16:17:41.701Z</time></trkpt><trkpt lat="45.3747867" lon="7.799165"><ele>488.0</ele><time>2026-04-25T16:17:47.701Z</time></trkpt><trkpt lat="45.3747133" lon="7.7993583"><ele>488.0</ele><time>2026-04-25T16:17:49.701Z</time></trkpt><trkpt lat="45.37462" lon="7.799555"><ele>486.25</ele><time>2026-04-25T16:17:50.701Z</time></trkpt><trkpt lat="45.3745533" lon="7.79971"><ele>484.5</ele><time>2026-04-25T16:17:51.701Z</time></trkpt><trkpt lat="45.3744833" lon="7.7998433"><ele>482.75</ele><time>2026-04-25T16:17:52.701Z</time></trkpt><trkpt lat="45.3744183" lon="7.7999667"><ele>481.0</ele><time>2026-04-25T16:17:53.702Z</time></trkpt><trkpt lat="45.374355" lon="7.8000917"><ele>479.6</ele><time>2026-04-25T16:17:54.701Z</time></trkpt><trkpt lat="45.374295" lon="7.8002217"><ele>478.20000000000005</ele><time>2026-04-25T16:17:55.701Z</time></trkpt><trkpt lat="45.3742367" lon="7.8003483"><ele>476.79999999999995</ele><time>2026-04-25T16:17:56.701Z</time></trkpt><trkpt lat="45.3741783" lon="7.80047"><ele>475.4</ele><time>2026-04-25T16:17:57.701Z</time></trkpt><trkpt lat="45.3741317" lon="7.8005883"><ele>474.0</ele><time>2026-04-25T16:17:58.701Z</time></trkpt><trkpt lat="45.37409" lon="7.8007133"><ele>474.0</ele><time>2026-04-25T16:17:59.701Z</time></trkpt><trkpt lat="45.37404" lon="7.8008467"><ele>474.0</ele><time>2026-04-25T16:18:00.701Z</time></trkpt><trkpt lat="45.37399" lon="7.8009783"><ele>474.0</ele><time>2026-04-25T16:18:01.701Z</time></trkpt><trkpt lat="45.3739333" lon="7.8011"><ele>474.0</ele><time>2026-04-25T16:18:02.701Z</time></trkpt><trkpt lat="45.3738717" lon="7.8012183"><ele>474.0</ele><time>2026-04-25T16:18:03.701Z</time></trkpt><trkpt lat="45.373805" lon="7.80132"><ele>471.0</ele><time>2026-04-25T16:18:04.701Z</time></trkpt><trkpt lat="45.373735" lon="7.8014117"><ele>468.0</ele><time>2026-04-25T16:18:05.701Z</time></trkpt><trkpt lat="45.3736567" lon="7.8014867"><ele>465.0</ele><time>2026-04-25T16:18:06.701Z</time></trkpt><trkpt lat="45.3735683" lon="7.80156"><ele>462.0</ele><time>2026-04-25T16:18:07.701Z</time></trkpt><trkpt lat="45.3734817" lon="7.8016117"><ele>459.0</ele><time>2026-04-25T16:18:08.701Z</time></trkpt><trkpt lat="45.373395" lon="7.8016683"><ele>459.0</ele><time>2026-04-25T16:18:09.701Z</time></trkpt><trkpt lat="45.3733" lon="7.8017467"><ele>459.0</ele><time>2026-04-25T16:18:10.701Z</time></trkpt><trkpt lat="45.3732183" lon="7.8017983"><ele>459.0</ele><time>2026-04-25T16:18:11.701Z</time></trkpt><trkpt lat="45.3731433" lon="7.801845"><ele>459.0</ele><time>2026-04-25T16:18:12.701Z</time></trkpt><trkpt lat="45.3730717" lon="7.8018783"><ele>459.0</ele><time>2026-04-25T16:18:13.701Z</time></trkpt><trkpt lat="45.3730067" lon="7.8018817"><ele>459.0</ele><time>2026-04-25T16:18:14.701Z</time></trkpt><trkpt lat="45.3729367" lon="7.8018867"><ele>457.5</ele><time>2026-04-25T16:18:15.701Z</time></trkpt><trkpt lat="45.3728733" lon="7.8018733"><ele>456.0</ele><time>2026-04-25T16:18:16.701Z</time></trkpt><trkpt lat="45.3728083" lon="7.801835"><ele>454.5</ele><time>2026-04-25T16:18:17.701Z</time></trkpt><trkpt lat="45.372735" lon="7.80178"><ele>453.0</ele><time>2026-04-25T16:18:18.701Z</time></trkpt><trkpt lat="45.37266" lon="7.801715"><ele>451.5</ele><time>2026-04-25T16:18:19.701Z</time></trkpt><trkpt lat="45.3725783" lon="7.8016667"><ele>450.0</ele><time>2026-04-25T16:18:20.701Z</time></trkpt><trkpt lat="45.372515" lon="7.8016433"><ele>450.0</ele><time>2026-04-25T16:18:21.701Z</time></trkpt><trkpt lat="45.3724417" lon="7.8016183"><ele>450.0</ele><time>2026-04-25T16:18:22.701Z</time></trkpt><trkpt lat="45.3723583" lon="7.8015917"><ele>450.0</ele><time>2026-04-25T16:18:23.701Z</time></trkpt><trkpt lat="45.372255" lon="7.8015467"><ele>450.0</ele><time>2026-04-25T16:18:24.701Z</time></trkpt><trkpt lat="45.3721117" lon="7.801475"><ele>450.0</ele><time>2026-04-25T16:18:25.701Z</time></trkpt><trkpt lat="45.3719367" lon="7.80139"><ele>447.66666666666663</ele><time>2026-04-25T16:18:26.701Z</time></trkpt><trkpt lat="45.37176" lon="7.8012967"><ele>445.3333333333333</ele><time>2026-04-25T16:18:27.701Z</time></trkpt><trkpt lat="45.371595" lon="7.8012117"><ele>443.0</ele><time>2026-04-25T16:18:28.701Z</time></trkpt><trkpt lat="45.371445" lon="7.8011583"><ele>442.59999999999997</ele><time>2026-04-25T16:18:29.701Z</time></trkpt><trkpt lat="45.3713133" lon="7.80112"><ele>442.19999999999993</ele><time>2026-04-25T16:18:30.701Z</time></trkpt><trkpt lat="45.3712" lon="7.801095"><ele>441.8</ele><time>2026-04-25T16:18:31.702Z</time></trkpt><trkpt lat="45.371105" lon="7.8010467"><ele>441.4</ele><time>2026-04-25T16:18:32.701Z</time></trkpt><trkpt lat="45.3710367" lon="7.8009617"><ele>441.0</ele><time>2026-04-25T16:18:33.701Z</time></trkpt><trkpt lat="45.3709933" lon="7.8008517"><ele>440.4</ele><time>2026-04-25T16:18:34.701Z</time></trkpt><trkpt lat="45.37098" lon="7.8007267"><ele>439.8</ele><time>2026-04-25T16:18:35.701Z</time></trkpt><trkpt lat="45.37099" lon="7.8005917"><ele>439.19999999999993</ele><time>2026-04-25T16:18:36.701Z</time></trkpt><trkpt lat="45.371025" lon="7.8004367"><ele>438.59999999999997</ele><time>2026-04-25T16:18:37.701Z</time></trkpt><trkpt lat="45.37108" lon="7.8002683"><ele>438.0</ele><time>2026-04-25T16:18:38.701Z</time></trkpt><trkpt lat="45.371155" lon="7.8000983"><ele>437.0</ele><time>2026-04-25T16:18:39.701Z</time></trkpt><trkpt lat="45.3712333" lon="7.7999517"><ele>435.99999999999994</ele><time>2026-04-25T16:18:40.701Z</time></trkpt><trkpt lat="45.3713083" lon="7.7998267"><ele>434.99999999999994</ele><time>2026-04-25T16:18:41.701Z</time></trkpt><trkpt lat="45.371395" lon="7.7997533"><ele>434.0</ele><time>2026-04-25T16:18:42.701Z</time></trkpt><trkpt lat="45.37148" lon="7.79969"><ele>433.0</ele><time>2026-04-25T16:18:43.701Z</time></trkpt><trkpt lat="45.3715817" lon="7.79965"><ele>432.0</ele><time>2026-04-25T16:18:44.701Z</time></trkpt><trkpt lat="45.3716833" lon="7.7995883"><ele>431.0</ele><time>2026-04-25T16:18:45.701Z</time></trkpt><trkpt lat="45.371795" lon="7.7994683"><ele>430.0</ele><time>2026-04-25T16:18:46.701Z</time></trkpt><trkpt lat="45.3719233" lon="7.79932"><ele>429.0</ele><time>2026-04-25T16:18:47.701Z</time></trkpt><trkpt lat="45.3720467" lon="7.799145"><ele>429.0</ele><time>2026-04-25T16:18:48.701Z</time></trkpt><trkpt lat="45.3721517" lon="7.79895"><ele>429.0</ele><time>2026-04-25T16:18:49.701Z</time></trkpt><trkpt lat="45.3722483" lon="7.7987417"><ele>429.0</ele><time>2026-04-25T16:18:50.702Z</time></trkpt><trkpt lat="45.3723233" lon="7.79856"><ele>429.66666666666663</ele><time>2026-04-25T16:18:51.701Z</time></trkpt><trkpt lat="45.3723883" lon="7.7983517"><ele>430.3333333333333</ele><time>2026-04-25T16:18:52.701Z</time></trkpt><trkpt lat="45.3724183" lon="7.7981417"><ele>431.0</ele><time>2026-04-25T16:18:53.701Z</time></trkpt><trkpt lat="45.37244" lon="7.797925"><ele>431.0</ele><time>2026-04-25T16:18:54.701Z</time></trkpt><trkpt lat="45.37247" lon="7.7977267"><ele>431.0</ele><time>2026-04-25T16:18:55.701Z</time></trkpt><trkpt lat="45.3725083" lon="7.79753"><ele>431.0</ele><time>2026-04-25T16:18:56.701Z</time></trkpt><trkpt lat="45.3725467" lon="7.7973483"><ele>431.0</ele><time>2026-04-25T16:18:57.701Z</time></trkpt><trkpt lat="45.372585" lon="7.7971783"><ele>428.6</ele><time>2026-04-25T16:18:58.701Z</time></trkpt><trkpt lat="45.3726317" lon="7.79702"><ele>426.20000000000005</ele><time>2026-04-25T16:18:59.701Z</time></trkpt><trkpt lat="45.3726767" lon="7.7968883"><ele>423.79999999999995</ele><time>2026-04-25T16:19:00.701Z</time></trkpt><trkpt lat="45.3727083" lon="7.7967733"><ele>421.4</ele><time>2026-04-25T16:19:01.701Z</time></trkpt><trkpt lat="45.37274" lon="7.7966633"><ele>419.0</ele><time>2026-04-25T16:19:02.701Z</time></trkpt><trkpt lat="45.37275" lon="7.7965283"><ele>416.75</ele><time>2026-04-25T16:19:03.701Z</time></trkpt><trkpt lat="45.3727367" lon="7.79635"><ele>414.5</ele><time>2026-04-25T16:19:04.701Z</time></trkpt><trkpt lat="45.3727083" lon="7.796165"><ele>412.25</ele><time>2026-04-25T16:19:05.701Z</time></trkpt><trkpt lat="45.3726883" lon="7.79597"><ele>410.0</ele><time>2026-04-25T16:19:06.701Z</time></trkpt><trkpt lat="45.3726733" lon="7.7957883"><ele>408.49999999999994</ele><time>2026-04-25T16:19:07.701Z</time></trkpt><trkpt lat="45.3726783" lon="7.7956433"><ele>407.0</ele><time>2026-04-25T16:19:08.701Z</time></trkpt><trkpt lat="45.3726667" lon="7.7955183"><ele>405.5</ele><time>2026-04-25T16:19:09.701Z</time></trkpt><trkpt lat="45.372635" lon="7.79543"><ele>404.0</ele><time>2026-04-25T16:19:10.701Z</time></trkpt><trkpt lat="45.3725783" lon="7.7953533"><ele>402.49999999999994</ele><time>2026-04-25T16:19:11.701Z</time></trkpt><trkpt lat="45.3725033" lon="7.7953083"><ele>401.0</ele><time>2026-04-25T16:19:12.701Z</time></trkpt><trkpt lat="45.3724067" lon="7.79526"><ele>401.0</ele><time>2026-04-25T16:19:13.701Z</time></trkpt><trkpt lat="45.3723083" lon="7.7952433"><ele>401.0</ele><time>2026-04-25T16:19:14.701Z</time></trkpt><trkpt lat="45.3722167" lon="7.7952367"><ele>401.0</ele><time>2026-04-25T16:19:15.701Z</time></trkpt><trkpt lat="45.3721117" lon="7.795225"><ele>401.0</ele><time>2026-04-25T16:19:16.701Z</time></trkpt><trkpt lat="45.3720117" lon="7.7952217"><ele>401.0</ele><time>2026-04-25T16:19:17.701Z</time></trkpt><trkpt lat="45.3719067" lon="7.7952267"><ele>399.20000000000005</ele><time>2026-04-25T16:19:18.701Z</time></trkpt><trkpt lat="45.3718267" lon="7.79525"><ele>397.40000000000003</ele><time>2026-04-25T16:19:19.701Z</time></trkpt><trkpt lat="45.3717367" lon="7.7952283"><ele>395.6</ele><time>2026-04-25T16:19:20.701Z</time></trkpt><trkpt lat="45.3716317" lon="7.79519"><ele>393.8</ele><time>2026-04-25T16:19:21.701Z</time></trkpt><trkpt lat="45.37152" lon="7.7951267"><ele>392.0</ele><time>2026-04-25T16:19:22.701Z</time></trkpt><trkpt lat="45.3714" lon="7.7950583"><ele>390.0</ele><time>2026-04-25T16:19:23.701Z</time></trkpt><trkpt lat="45.371285" lon="7.794975"><ele>388.0</ele><time>2026-04-25T16:19:24.701Z</time></trkpt><trkpt lat="45.37117" lon="7.7948933"><ele>386.0</ele><time>2026-04-25T16:19:25.701Z</time></trkpt><trkpt lat="45.371065" lon="7.7948067"><ele>384.0</ele><time>2026-04-25T16:19:26.701Z</time></trkpt><trkpt lat="45.37096" lon="7.7947233"><ele>384.0</ele><time>2026-04-25T16:19:27.701Z</time></trkpt><trkpt lat="45.3708433" lon="7.79467"><ele>384.0</ele><time>2026-04-25T16:19:28.701Z</time></trkpt><trkpt lat="45.37071" lon="7.79464"><ele>384.0</ele><time>2026-04-25T16:19:29.701Z</time></trkpt><trkpt lat="45.3705783" lon="7.7945983"><ele>384.0</ele><time>2026-04-25T16:19:30.701Z</time></trkpt><trkpt lat="45.3704467" lon="7.7945717"><ele>383.0</ele><time>2026-04-25T16:19:31.701Z</time></trkpt><trkpt lat="45.3703283" lon="7.7945367"><ele>382.0</ele><time>2026-04-25T16:19:32.701Z</time></trkpt><trkpt lat="45.3702183" lon="7.794505"><ele>381.0</ele><time>2026-04-25T16:19:33.701Z</time></trkpt><trkpt lat="45.3701133" lon="7.7944667"><ele>380.0</ele><time>2026-04-25T16:19:34.701Z</time></trkpt><trkpt lat="45.3700067" lon="7.7944217"><ele>380.0</ele><time>2026-04-25T16:19:35.701Z</time></trkpt><trkpt lat="45.3699033" lon="7.7943767"><ele>380.0</ele><time>2026-04-25T16:19:36.701Z</time></trkpt><trkpt lat="45.3697783" lon="7.7943533"><ele>380.0</ele><time>2026-04-25T16:19:37.701Z</time></trkpt><trkpt lat="45.36965" lon="7.79433"><ele>380.0</ele><time>2026-04-25T16:19:38.701Z</time></trkpt><trkpt lat="45.3695067" lon="7.794295"><ele>378.5</ele><time>2026-04-25T16:19:39.701Z</time></trkpt><trkpt lat="45.3693717" lon="7.79426"><ele>377.0</ele><time>2026-04-25T16:19:40.701Z</time></trkpt><trkpt lat="45.3692417" lon="7.7942283"><ele>375.5</ele><time>2026-04-25T16:19:41.701Z</time></trkpt><trkpt lat="45.369135" lon="7.7941683"><ele>374.0</ele><time>2026-04-25T16:19:42.701Z</time></trkpt><trkpt lat="45.3690567" lon="7.794065"><ele>374.0</ele><time>2026-04-25T16:19:43.701Z</time></trkpt><trkpt lat="45.369" lon="7.7939083"><ele>374.0</ele><time>2026-04-25T16:19:44.701Z</time></trkpt><trkpt lat="45.3689583" lon="7.79373"><ele>374.0</ele><time>2026-04-25T16:19:45.701Z</time></trkpt><trkpt lat="45.3689417" lon="7.793555"><ele>374.0</ele><time>2026-04-25T16:19:46.701Z</time></trkpt><trkpt lat="45.3689633" lon="7.7933567"><ele>373.75</ele><time>2026-04-25T16:19:47.701Z</time></trkpt><trkpt lat="45.3689383" lon="7.7931983"><ele>373.5</ele><time>2026-04-25T16:19:48.701Z</time></trkpt><trkpt lat="45.368875" lon="7.7930433"><ele>373.25</ele><time>2026-04-25T16:19:49.701Z</time></trkpt><trkpt lat="45.36881" lon="7.7928983"><ele>373.0</ele><time>2026-04-25T16:19:50.701Z</time></trkpt><trkpt lat="45.3687567" lon="7.7927333"><ele>371.25</ele><time>2026-04-25T16:19:51.701Z</time></trkpt><trkpt lat="45.3687167" lon="7.7925583"><ele>369.5</ele><time>2026-04-25T16:19:52.701Z</time></trkpt><trkpt lat="45.36869" lon="7.792375"><ele>367.75</ele><time>2026-04-25T16:19:53.701Z</time></trkpt><trkpt lat="45.3686633" lon="7.792205"><ele>366.0</ele><time>2026-04-25T16:19:54.701Z</time></trkpt><trkpt lat="45.3686283" lon="7.7920517"><ele>366.0</ele><time>2026-04-25T16:19:55.702Z</time></trkpt><trkpt lat="45.3685667" lon="7.7919417"><ele>366.0</ele><time>2026-04-25T16:19:56.701Z</time></trkpt><trkpt lat="45.36848" lon="7.7919017"><ele>366.0</ele><time>2026-04-25T16:19:57.701Z</time></trkpt><trkpt lat="45.368375" lon="7.791875"><ele>366.0</ele><time>2026-04-25T16:19:58.701Z</time></trkpt><trkpt lat="45.36828" lon="7.7918267"><ele>366.0</ele><time>2026-04-25T16:19:59.701Z</time></trkpt><trkpt lat="45.3682033" lon="7.7917317"><ele>365.3333333333333</ele><time>2026-04-25T16:20:00.701Z</time></trkpt><trkpt lat="45.36815" lon="7.7916233"><ele>364.6666666666667</ele><time>2026-04-25T16:20:01.701Z</time></trkpt><trkpt lat="45.3681233" lon="7.79153"><ele>364.0</ele><time>2026-04-25T16:20:02.701Z</time></trkpt><trkpt lat="45.3681183" lon="7.7914067"><ele>363.33333333333337</ele><time>2026-04-25T16:20:04.701Z</time></trkpt><trkpt lat="45.3680667" lon="7.7913067"><ele>362.6666666666667</ele><time>2026-04-25T16:21:35.701Z</time></trkpt><trkpt lat="45.367985" lon="7.7913317"><ele>362.0</ele><time>2026-04-25T16:21:37.701Z</time></trkpt><trkpt lat="45.3679133" lon="7.7914233"><ele>360.0</ele><time>2026-04-25T16:21:39.702Z</time></trkpt><trkpt lat="45.367835" lon="7.79149"><ele>360.0</ele><time>2026-04-25T16:21:41.701Z</time></trkpt></trkseg></trk></gpx>